<?xml version='1.0' encoding='UTF-8'?><gpx version="1.1" creator="JPX - https://github.com/jenetics/jpx" xmlns="http://www.topografix.com/GPX/1/1"><trk><trkseg><trkpt lat="43.1068357" lon="12.3844614"><ele>403.0</ele><time>2026-04-04T06:21:44.267Z</time></trkpt><trkpt lat="43.1068978" lon="12.3844802"><ele>403.0</ele><time>2026-04-04T06:22:39.268Z</time></trkpt><trkpt lat="43.106901" lon="12.3845734"><ele>403.0</ele><time>2026-04-04T06:22:43.268Z</time></trkpt><trkpt lat="43.1068454" lon="12.3846767"><ele>403.0</ele><time>2026-04-04T06:22:46.268Z</time></trkpt><trkpt lat="43.1068086" lon="12.3847645"><ele>403.0</ele><time>2026-04-04T06:22:49.27Z</time></trkpt><trkpt lat="43.1068203" lon="12.3848606"><ele>403.0</ele><time>2026-04-04T06:22:53.268Z</time></trkpt><trkpt lat="43.1068742" lon="12.3849059"><ele>403.0</ele><time>2026-04-04T06:22:55.269Z</time></trkpt><trkpt lat="43.106931" lon="12.3849445"><ele>405.59999999999997</ele><time>2026-04-04T06:23:04.269Z</time></trkpt><trkpt lat="43.1070182" lon="12.3849507"><ele>408.2</ele><time>2026-04-04T06:23:07.269Z</time></trkpt><trkpt lat="43.1071146" lon="12.3849838"><ele>410.8</ele><time>2026-04-04T06:23:10.269Z</time></trkpt><trkpt lat="43.1071811" lon="12.3850293"><ele>413.4</ele><time>2026-04-04T06:23:12.27Z</time></trkpt><trkpt lat="43.1072432" lon="12.3851071"><ele>416.0</ele><time>2026-04-04T06:23:26.269Z</time></trkpt><trkpt lat="43.1073525" lon="12.3851023"><ele>416.49999999999994</ele><time>2026-04-04T06:23:28.269Z</time></trkpt><trkpt lat="43.1074657" lon="12.3850792"><ele>417.0</ele><time>2026-04-04T06:23:30.269Z</time></trkpt><trkpt lat="43.1075292" lon="12.385053"><ele>417.5</ele><time>2026-04-04T06:23:31.269Z</time></trkpt><trkpt lat="43.1075994" lon="12.3850304"><ele>418.0</ele><time>2026-04-04T06:23:32.269Z</time></trkpt><trkpt lat="43.1076696" lon="12.3850097"><ele>418.49999999999994</ele><time>2026-04-04T06:23:33.269Z</time></trkpt><trkpt lat="43.107739" lon="12.3849852"><ele>419.0</ele><time>2026-04-04T06:23:34.269Z</time></trkpt><trkpt lat="43.1078133" lon="12.3849605"><ele>418.99999999999994</ele><time>2026-04-04T06:23:35.269Z</time></trkpt><trkpt lat="43.1078912" lon="12.3849271"><ele>419.0</ele><time>2026-04-04T06:23:36.269Z</time></trkpt><trkpt lat="43.1079655" lon="12.3848853"><ele>419.0</ele><time>2026-04-04T06:23:37.269Z</time></trkpt><trkpt lat="43.1080334" lon="12.3848294"><ele>419.0</ele><time>2026-04-04T06:23:38.27Z</time></trkpt><trkpt lat="43.1080918" lon="12.3847626"><ele>418.99999999999994</ele><time>2026-04-04T06:23:39.269Z</time></trkpt><trkpt lat="43.1081461" lon="12.384682"><ele>419.0</ele><time>2026-04-04T06:23:40.27Z</time></trkpt><trkpt lat="43.1081943" lon="12.3845678"><ele>418.4</ele><time>2026-04-04T06:23:41.269Z</time></trkpt><trkpt lat="43.1082502" lon="12.384478"><ele>417.79999999999995</ele><time>2026-04-04T06:23:42.269Z</time></trkpt><trkpt lat="43.1083152" lon="12.3843907"><ele>417.20000000000005</ele><time>2026-04-04T06:23:43.269Z</time></trkpt><trkpt lat="43.1083831" lon="12.3843234"><ele>416.6</ele><time>2026-04-04T06:23:44.269Z</time></trkpt><trkpt lat="43.1085397" lon="12.3842126"><ele>416.0</ele><time>2026-04-04T06:23:46.269Z</time></trkpt><trkpt lat="43.1086218" lon="12.3841686"><ele>416.0</ele><time>2026-04-04T06:23:47.27Z</time></trkpt><trkpt lat="43.1087076" lon="12.3841326"><ele>416.0</ele><time>2026-04-04T06:23:48.27Z</time></trkpt><trkpt lat="43.1087958" lon="12.3840874"><ele>416.0</ele><time>2026-04-04T06:23:49.269Z</time></trkpt><trkpt lat="43.1088792" lon="12.3840269"><ele>416.0</ele><time>2026-04-04T06:23:50.269Z</time></trkpt><trkpt lat="43.1089615" lon="12.3839544"><ele>416.0</ele><time>2026-04-04T06:23:51.269Z</time></trkpt><trkpt lat="43.1090483" lon="12.3838857"><ele>413.8</ele><time>2026-04-04T06:23:52.269Z</time></trkpt><trkpt lat="43.1091316" lon="12.3838229"><ele>411.6</ele><time>2026-04-04T06:23:53.269Z</time></trkpt><trkpt lat="43.1092238" lon="12.3837724"><ele>409.4</ele><time>2026-04-04T06:23:54.269Z</time></trkpt><trkpt lat="43.1093146" lon="12.383753"><ele>407.2</ele><time>2026-04-04T06:23:55.269Z</time></trkpt><trkpt lat="43.1094066" lon="12.3837615"><ele>405.0</ele><time>2026-04-04T06:23:56.269Z</time></trkpt><trkpt lat="43.1094883" lon="12.3838056"><ele>407.6666666666667</ele><time>2026-04-04T06:23:57.269Z</time></trkpt><trkpt lat="43.1095522" lon="12.3838599"><ele>410.33333333333337</ele><time>2026-04-04T06:23:58.269Z</time></trkpt><trkpt lat="43.1096179" lon="12.3839506"><ele>413.0</ele><time>2026-04-04T06:24:00.269Z</time></trkpt><trkpt lat="43.1096392" lon="12.3840494"><ele>415.6666666666667</ele><time>2026-04-04T06:24:03.269Z</time></trkpt><trkpt lat="43.1095924" lon="12.384137"><ele>418.33333333333337</ele><time>2026-04-04T06:24:06.27Z</time></trkpt><trkpt lat="43.1095728" lon="12.3842371"><ele>421.0</ele><time>2026-04-04T06:24:28.27Z</time></trkpt><trkpt lat="43.1096208" lon="12.3843526"><ele>421.00000000000006</ele><time>2026-04-04T06:24:30.27Z</time></trkpt><trkpt lat="43.1096624" lon="12.3844261"><ele>421.0</ele><time>2026-04-04T06:24:31.27Z</time></trkpt><trkpt lat="43.1097139" lon="12.3845059"><ele>421.0</ele><time>2026-04-04T06:24:32.27Z</time></trkpt><trkpt lat="43.1097676" lon="12.3845922"><ele>421.0</ele><time>2026-04-04T06:24:33.27Z</time></trkpt><trkpt lat="43.1098234" lon="12.3846907"><ele>421.00000000000006</ele><time>2026-04-04T06:24:34.271Z</time></trkpt><trkpt lat="43.1098825" lon="12.3848034"><ele>421.0</ele><time>2026-04-04T06:24:35.271Z</time></trkpt><trkpt lat="43.1099406" lon="12.3849142"><ele>421.4</ele><time>2026-04-04T06:24:36.27Z</time></trkpt><trkpt lat="43.1099982" lon="12.3850244"><ele>421.8</ele><time>2026-04-04T06:24:37.27Z</time></trkpt><trkpt lat="43.1100528" lon="12.3851367"><ele>422.2</ele><time>2026-04-04T06:24:38.27Z</time></trkpt><trkpt lat="43.110107" lon="12.3852561"><ele>422.59999999999997</ele><time>2026-04-04T06:24:39.27Z</time></trkpt><trkpt lat="43.1101712" lon="12.3853774"><ele>423.0</ele><time>2026-04-04T06:24:40.27Z</time></trkpt><trkpt lat="43.1102305" lon="12.3854966"><ele>425.8333333333333</ele><time>2026-04-04T06:24:41.27Z</time></trkpt><trkpt lat="43.1102913" lon="12.385618"><ele>428.66666666666663</ele><time>2026-04-04T06:24:42.27Z</time></trkpt><trkpt lat="43.1103462" lon="12.385731"><ele>431.5</ele><time>2026-04-04T06:24:43.27Z</time></trkpt><trkpt lat="43.1103979" lon="12.3858256"><ele>434.3333333333333</ele><time>2026-04-04T06:24:44.27Z</time></trkpt><trkpt lat="43.1104488" lon="12.3859023"><ele>437.16666666666663</ele><time>2026-04-04T06:24:45.27Z</time></trkpt><trkpt lat="43.1105095" lon="12.3859562"><ele>440.0</ele><time>2026-04-04T06:24:46.27Z</time></trkpt><trkpt lat="43.1105694" lon="12.3860088"><ele>439.99999999999994</ele><time>2026-04-04T06:24:47.27Z</time></trkpt><trkpt lat="43.11063" lon="12.3860546"><ele>440.0</ele><time>2026-04-04T06:24:48.27Z</time></trkpt><trkpt lat="43.1107012" lon="12.3860673"><ele>440.0</ele><time>2026-04-04T06:24:49.27Z</time></trkpt><trkpt lat="43.1107752" lon="12.386049"><ele>440.0</ele><time>2026-04-04T06:24:50.27Z</time></trkpt><trkpt lat="43.1108372" lon="12.3860207"><ele>440.0</ele><time>2026-04-04T06:24:51.271Z</time></trkpt><trkpt lat="43.1108986" lon="12.3859552"><ele>439.99999999999994</ele><time>2026-04-04T06:24:52.27Z</time></trkpt><trkpt lat="43.110946" lon="12.3858719"><ele>440.0</ele><time>2026-04-04T06:24:53.27Z</time></trkpt><trkpt lat="43.1109959" lon="12.3857694"><ele>438.0</ele><time>2026-04-04T06:24:54.27Z</time></trkpt><trkpt lat="43.1110513" lon="12.3856645"><ele>436.0</ele><time>2026-04-04T06:24:55.27Z</time></trkpt><trkpt lat="43.1111043" lon="12.3855602"><ele>434.0</ele><time>2026-04-04T06:24:56.27Z</time></trkpt><trkpt lat="43.1111502" lon="12.385443"><ele>432.0</ele><time>2026-04-04T06:24:57.27Z</time></trkpt><trkpt lat="43.1111938" lon="12.3853283"><ele>430.0</ele><time>2026-04-04T06:24:58.271Z</time></trkpt><trkpt lat="43.1112242" lon="12.38522"><ele>427.33333333333337</ele><time>2026-04-04T06:24:59.27Z</time></trkpt><trkpt lat="43.1112483" lon="12.3851288"><ele>424.6666666666667</ele><time>2026-04-04T06:25:00.27Z</time></trkpt><trkpt lat="43.1112921" lon="12.385016"><ele>422.0</ele><time>2026-04-04T06:25:02.27Z</time></trkpt><trkpt lat="43.1112542" lon="12.3849456"><ele>419.33333333333337</ele><time>2026-04-04T06:25:05.27Z</time></trkpt><trkpt lat="43.111208" lon="12.384881"><ele>416.6666666666667</ele><time>2026-04-04T06:25:34.271Z</time></trkpt><trkpt lat="43.1112181" lon="12.3847754"><ele>414.0</ele><time>2026-04-04T06:26:16.271Z</time></trkpt><trkpt lat="43.1112388" lon="12.384613"><ele>411.6</ele><time>2026-04-04T06:26:18.272Z</time></trkpt><trkpt lat="43.111264" lon="12.3844629"><ele>409.2</ele><time>2026-04-04T06:26:20.272Z</time></trkpt><trkpt lat="43.1112897" lon="12.3842979"><ele>406.8</ele><time>2026-04-04T06:26:22.272Z</time></trkpt><trkpt lat="43.1113197" lon="12.3841928"><ele>404.40000000000003</ele><time>2026-04-04T06:26:23.272Z</time></trkpt><trkpt lat="43.1113479" lon="12.3840832"><ele>402.0</ele><time>2026-04-04T06:26:24.272Z</time></trkpt><trkpt lat="43.1113785" lon="12.3839741"><ele>402.0</ele><time>2026-04-04T06:26:25.272Z</time></trkpt><trkpt lat="43.1114091" lon="12.3838549"><ele>402.0</ele><time>2026-04-04T06:26:26.272Z</time></trkpt><trkpt lat="43.1114388" lon="12.3837392"><ele>402.0</ele><time>2026-04-04T06:26:27.272Z</time></trkpt><trkpt lat="43.1114653" lon="12.3836246"><ele>402.0</ele><time>2026-04-04T06:26:28.273Z</time></trkpt><trkpt lat="43.1114861" lon="12.383509"><ele>402.0</ele><time>2026-04-04T06:26:29.272Z</time></trkpt><trkpt lat="43.1115069" lon="12.3833938"><ele>402.0</ele><time>2026-04-04T06:26:30.272Z</time></trkpt><trkpt lat="43.1115258" lon="12.3832802"><ele>402.0</ele><time>2026-04-04T06:26:31.272Z</time></trkpt><trkpt lat="43.111551" lon="12.383165"><ele>402.0</ele><time>2026-04-04T06:26:32.273Z</time></trkpt><trkpt lat="43.1115804" lon="12.3830461"><ele>402.0</ele><time>2026-04-04T06:26:33.272Z</time></trkpt><trkpt lat="43.1116177" lon="12.3829242"><ele>402.0</ele><time>2026-04-04T06:26:34.273Z</time></trkpt><trkpt lat="43.1116641" lon="12.3828086"><ele>402.0</ele><time>2026-04-04T06:26:35.273Z</time></trkpt><trkpt lat="43.1117203" lon="12.382693"><ele>403.8</ele><time>2026-04-04T06:26:36.272Z</time></trkpt><trkpt lat="43.1117869" lon="12.3825851"><ele>405.6</ele><time>2026-04-04T06:26:37.272Z</time></trkpt><trkpt lat="43.1118514" lon="12.3825009"><ele>407.40000000000003</ele><time>2026-04-04T06:26:38.272Z</time></trkpt><trkpt lat="43.1119269" lon="12.3824379"><ele>409.20000000000005</ele><time>2026-04-04T06:26:39.272Z</time></trkpt><trkpt lat="43.1120092" lon="12.3823678"><ele>411.0</ele><time>2026-04-04T06:26:40.272Z</time></trkpt><trkpt lat="43.1121024" lon="12.3823301"><ele>411.0</ele><time>2026-04-04T06:26:41.272Z</time></trkpt><trkpt lat="43.1121936" lon="12.3823115"><ele>411.0</ele><time>2026-04-04T06:26:42.272Z</time></trkpt><trkpt lat="43.1122812" lon="12.3823122"><ele>411.0</ele><time>2026-04-04T06:26:43.273Z</time></trkpt><trkpt lat="43.1123678" lon="12.3823321"><ele>411.0</ele><time>2026-04-04T06:26:44.272Z</time></trkpt><trkpt lat="43.1124553" lon="12.3823603"><ele>411.0</ele><time>2026-04-04T06:26:45.272Z</time></trkpt><trkpt lat="43.1125658" lon="12.382372"><ele>413.0</ele><time>2026-04-04T06:26:46.272Z</time></trkpt><trkpt lat="43.1126966" lon="12.382396"><ele>415.0</ele><time>2026-04-04T06:26:47.272Z</time></trkpt><trkpt lat="43.112817" lon="12.3824052"><ele>417.0</ele><time>2026-04-04T06:26:48.272Z</time></trkpt><trkpt lat="43.1129186" lon="12.3823937"><ele>419.0</ele><time>2026-04-04T06:26:49.272Z</time></trkpt><trkpt lat="43.1130128" lon="12.3823648"><ele>419.0</ele><time>2026-04-04T06:26:50.273Z</time></trkpt><trkpt lat="43.1130939" lon="12.3823084"><ele>419.0</ele><time>2026-04-04T06:26:51.272Z</time></trkpt><trkpt lat="43.1131781" lon="12.3822304"><ele>419.0</ele><time>2026-04-04T06:26:52.273Z</time></trkpt><trkpt lat="43.1132505" lon="12.3821317"><ele>419.0</ele><time>2026-04-04T06:26:53.272Z</time></trkpt><trkpt lat="43.1133176" lon="12.3820154"><ele>419.0</ele><time>2026-04-04T06:26:54.272Z</time></trkpt><trkpt lat="43.1133771" lon="12.3818891"><ele>418.0</ele><time>2026-04-04T06:26:55.272Z</time></trkpt><trkpt lat="43.1134265" lon="12.3817651"><ele>417.0</ele><time>2026-04-04T06:26:56.273Z</time></trkpt><trkpt lat="43.1134698" lon="12.3816239"><ele>416.0</ele><time>2026-04-04T06:26:57.273Z</time></trkpt><trkpt lat="43.113512" lon="12.3814765"><ele>415.0</ele><time>2026-04-04T06:26:58.272Z</time></trkpt><trkpt lat="43.1135566" lon="12.3813322"><ele>414.0</ele><time>2026-04-04T06:26:59.272Z</time></trkpt><trkpt lat="43.1136078" lon="12.3811989"><ele>412.0</ele><time>2026-04-04T06:27:00.272Z</time></trkpt><trkpt lat="43.1136712" lon="12.3810736"><ele>410.0</ele><time>2026-04-04T06:27:01.273Z</time></trkpt><trkpt lat="43.1137379" lon="12.3809771"><ele>408.0</ele><time>2026-04-04T06:27:02.272Z</time></trkpt><trkpt lat="43.1138145" lon="12.3809046"><ele>406.0</ele><time>2026-04-04T06:27:03.272Z</time></trkpt><trkpt lat="43.1139069" lon="12.3808348"><ele>404.0</ele><time>2026-04-04T06:27:04.272Z</time></trkpt><trkpt lat="43.1140166" lon="12.3807803"><ele>404.0</ele><time>2026-04-04T06:27:05.272Z</time></trkpt><trkpt lat="43.1141219" lon="12.3807633"><ele>404.0</ele><time>2026-04-04T06:27:06.272Z</time></trkpt><trkpt lat="43.1142241" lon="12.380784"><ele>404.0</ele><time>2026-04-04T06:27:07.273Z</time></trkpt><trkpt lat="43.1143202" lon="12.3808278"><ele>404.0</ele><time>2026-04-04T06:27:08.272Z</time></trkpt><trkpt lat="43.1144117" lon="12.3808735"><ele>404.0</ele><time>2026-04-04T06:27:09.272Z</time></trkpt><trkpt lat="43.1144966" lon="12.38095"><ele>404.0</ele><time>2026-04-04T06:27:10.272Z</time></trkpt><trkpt lat="43.11456" lon="12.3810503"><ele>404.0</ele><time>2026-04-04T06:27:11.272Z</time></trkpt><trkpt lat="43.1145918" lon="12.3811752"><ele>404.0</ele><time>2026-04-04T06:27:12.272Z</time></trkpt><trkpt lat="43.1146106" lon="12.3813029"><ele>404.0</ele><time>2026-04-04T06:27:13.272Z</time></trkpt><trkpt lat="43.1146284" lon="12.3814387"><ele>404.0</ele><time>2026-04-04T06:27:14.272Z</time></trkpt><trkpt lat="43.1146535" lon="12.3815755"><ele>406.25</ele><time>2026-04-04T06:27:15.272Z</time></trkpt><trkpt lat="43.1146747" lon="12.3817139"><ele>408.5</ele><time>2026-04-04T06:27:16.272Z</time></trkpt><trkpt lat="43.1146807" lon="12.3820447"><ele>410.75</ele><time>2026-04-04T06:27:17.272Z</time></trkpt><trkpt lat="43.114693" lon="12.3821643"><ele>413.0</ele><time>2026-04-04T06:27:18.272Z</time></trkpt><trkpt lat="43.1147064" lon="12.3822772"><ele>414.8333333333333</ele><time>2026-04-04T06:27:19.273Z</time></trkpt><trkpt lat="43.1147232" lon="12.3823927"><ele>416.66666666666663</ele><time>2026-04-04T06:27:20.272Z</time></trkpt><trkpt lat="43.1147384" lon="12.3824873"><ele>418.5</ele><time>2026-04-04T06:27:21.272Z</time></trkpt><trkpt lat="43.1147719" lon="12.3826581"><ele>420.33333333333337</ele><time>2026-04-04T06:27:23.274Z</time></trkpt><trkpt lat="43.1147933" lon="12.382752"><ele>422.1666666666667</ele><time>2026-04-04T06:27:24.274Z</time></trkpt><trkpt lat="43.1148136" lon="12.3828437"><ele>424.0</ele><time>2026-04-04T06:27:25.273Z</time></trkpt><trkpt lat="43.1148391" lon="12.3829608"><ele>424.0</ele><time>2026-04-04T06:27:27.273Z</time></trkpt><trkpt lat="43.1148071" lon="12.3830544"><ele>424.0</ele><time>2026-04-04T06:27:31.273Z</time></trkpt><trkpt lat="43.114761" lon="12.3829548"><ele>424.0</ele><time>2026-04-04T06:27:33.273Z</time></trkpt><trkpt lat="43.1147578" lon="12.3830679"><ele>424.0</ele><time>2026-04-04T06:29:00.274Z</time></trkpt><trkpt lat="43.1147725" lon="12.3832418"><ele>424.0</ele><time>2026-04-04T06:29:02.274Z</time></trkpt><trkpt lat="43.1148088" lon="12.3833995"><ele>420.79999999999995</ele><time>2026-04-04T06:29:04.274Z</time></trkpt><trkpt lat="43.1149121" lon="12.3834803"><ele>417.59999999999997</ele><time>2026-04-04T06:29:06.274Z</time></trkpt><trkpt lat="43.1150015" lon="12.3834754"><ele>414.4</ele><time>2026-04-04T06:29:07.274Z</time></trkpt><trkpt lat="43.1150891" lon="12.3834563"><ele>411.2</ele><time>2026-04-04T06:29:08.275Z</time></trkpt><trkpt lat="43.1151784" lon="12.3834198"><ele>408.0</ele><time>2026-04-04T06:29:09.274Z</time></trkpt><trkpt lat="43.115259" lon="12.3833722"><ele>408.0</ele><time>2026-04-04T06:29:10.275Z</time></trkpt><trkpt lat="43.1153229" lon="12.3833067"><ele>408.0</ele><time>2026-04-04T06:29:11.274Z</time></trkpt><trkpt lat="43.1153786" lon="12.3832221"><ele>408.0</ele><time>2026-04-04T06:29:12.274Z</time></trkpt><trkpt lat="43.1154559" lon="12.3831057"><ele>408.0</ele><time>2026-04-04T06:29:13.274Z</time></trkpt><trkpt lat="43.1155087" lon="12.3829742"><ele>408.0</ele><time>2026-04-04T06:29:14.274Z</time></trkpt><trkpt lat="43.1155437" lon="12.3828277"><ele>406.5</ele><time>2026-04-04T06:29:15.274Z</time></trkpt><trkpt lat="43.1155665" lon="12.3826666"><ele>405.0</ele><time>2026-04-04T06:29:16.274Z</time></trkpt><trkpt lat="43.1155967" lon="12.3824817"><ele>403.5</ele><time>2026-04-04T06:29:17.274Z</time></trkpt><trkpt lat="43.1156457" lon="12.382273"><ele>402.0</ele><time>2026-04-04T06:29:18.275Z</time></trkpt><trkpt lat="43.1156818" lon="12.3820852"><ele>401.25</ele><time>2026-04-04T06:29:19.275Z</time></trkpt><trkpt lat="43.1157081" lon="12.3819138"><ele>400.5</ele><time>2026-04-04T06:29:20.274Z</time></trkpt><trkpt lat="43.1157468" lon="12.3817573"><ele>399.75</ele><time>2026-04-04T06:29:21.274Z</time></trkpt><trkpt lat="43.1157762" lon="12.3816045"><ele>399.0</ele><time>2026-04-04T06:29:22.275Z</time></trkpt><trkpt lat="43.1158034" lon="12.3814614"><ele>401.4</ele><time>2026-04-04T06:29:23.274Z</time></trkpt><trkpt lat="43.1158367" lon="12.3813375"><ele>403.79999999999995</ele><time>2026-04-04T06:29:24.275Z</time></trkpt><trkpt lat="43.1158839" lon="12.3812228"><ele>406.20000000000005</ele><time>2026-04-04T06:29:25.274Z</time></trkpt><trkpt lat="43.115941" lon="12.381138"><ele>408.6</ele><time>2026-04-04T06:29:26.274Z</time></trkpt><trkpt lat="43.1160221" lon="12.3810607"><ele>411.0</ele><time>2026-04-04T06:29:27.274Z</time></trkpt><trkpt lat="43.1161045" lon="12.3810151"><ele>411.0</ele><time>2026-04-04T06:29:28.274Z</time></trkpt><trkpt lat="43.1162053" lon="12.3809756"><ele>411.0</ele><time>2026-04-04T06:29:29.274Z</time></trkpt><trkpt lat="43.1163168" lon="12.3809368"><ele>411.0</ele><time>2026-04-04T06:29:30.275Z</time></trkpt><trkpt lat="43.1164397" lon="12.3808936"><ele>411.0</ele><time>2026-04-04T06:29:31.275Z</time></trkpt><trkpt lat="43.1165742" lon="12.3808503"><ele>412.20000000000005</ele><time>2026-04-04T06:29:32.276Z</time></trkpt><trkpt lat="43.1166949" lon="12.3808158"><ele>413.40000000000003</ele><time>2026-04-04T06:29:33.275Z</time></trkpt><trkpt lat="43.1168115" lon="12.3807964"><ele>414.6</ele><time>2026-04-04T06:29:34.276Z</time></trkpt><trkpt lat="43.1169215" lon="12.3807718"><ele>415.8</ele><time>2026-04-04T06:29:35.275Z</time></trkpt><trkpt lat="43.1170114" lon="12.3807315"><ele>417.0</ele><time>2026-04-04T06:29:36.275Z</time></trkpt><trkpt lat="43.1171647" lon="12.3806891"><ele>417.0</ele><time>2026-04-04T06:29:38.275Z</time></trkpt><trkpt lat="43.1172335" lon="12.3806721"><ele>417.0</ele><time>2026-04-04T06:29:39.275Z</time></trkpt><trkpt lat="43.1173063" lon="12.3806531"><ele>417.0</ele><time>2026-04-04T06:29:40.275Z</time></trkpt><trkpt lat="43.1173757" lon="12.3806301"><ele>417.0</ele><time>2026-04-04T06:29:41.275Z</time></trkpt><trkpt lat="43.1174382" lon="12.3805571"><ele>417.0</ele><time>2026-04-04T06:29:43.276Z</time></trkpt><trkpt lat="43.1173668" lon="12.3803928"><ele>417.0</ele><time>2026-04-04T06:29:45.275Z</time></trkpt><trkpt lat="43.1173235" lon="12.3803078"><ele>416.40000000000003</ele><time>2026-04-04T06:29:46.275Z</time></trkpt><trkpt lat="43.1172852" lon="12.38021"><ele>415.8</ele><time>2026-04-04T06:29:47.275Z</time></trkpt><trkpt lat="43.1172382" lon="12.3800722"><ele>415.2</ele><time>2026-04-04T06:29:48.275Z</time></trkpt><trkpt lat="43.1171865" lon="12.3799185"><ele>414.6</ele><time>2026-04-04T06:29:49.275Z</time></trkpt><trkpt lat="43.1171406" lon="12.3797661"><ele>414.0</ele><time>2026-04-04T06:29:50.276Z</time></trkpt><trkpt lat="43.1170835" lon="12.3796128"><ele>413.0</ele><time>2026-04-04T06:29:51.275Z</time></trkpt><trkpt lat="43.1170386" lon="12.3794603"><ele>412.0</ele><time>2026-04-04T06:29:52.276Z</time></trkpt><trkpt lat="43.117001" lon="12.3793004"><ele>411.0</ele><time>2026-04-04T06:29:53.275Z</time></trkpt><trkpt lat="43.1169771" lon="12.3791202"><ele>410.0</ele><time>2026-04-04T06:29:54.276Z</time></trkpt><trkpt lat="43.116957" lon="12.3789418"><ele>410.0</ele><time>2026-04-04T06:29:55.276Z</time></trkpt><trkpt lat="43.1169427" lon="12.378762"><ele>410.0</ele><time>2026-04-04T06:29:56.275Z</time></trkpt><trkpt lat="43.1169298" lon="12.3785797"><ele>410.0</ele><time>2026-04-04T06:29:57.276Z</time></trkpt><trkpt lat="43.1169337" lon="12.3783888"><ele>410.0</ele><time>2026-04-04T06:29:58.275Z</time></trkpt><trkpt lat="43.1169367" lon="12.3782014"><ele>410.0</ele><time>2026-04-04T06:29:59.275Z</time></trkpt><trkpt lat="43.1169448" lon="12.3780251"><ele>410.0</ele><time>2026-04-04T06:30:00.275Z</time></trkpt><trkpt lat="43.1169519" lon="12.3778492"><ele>410.0</ele><time>2026-04-04T06:30:01.275Z</time></trkpt><trkpt lat="43.1169644" lon="12.3776845"><ele>410.0</ele><time>2026-04-04T06:30:02.275Z</time></trkpt><trkpt lat="43.1169718" lon="12.3773704"><ele>409.75</ele><time>2026-04-04T06:30:04.275Z</time></trkpt><trkpt lat="43.1169824" lon="12.3772229"><ele>409.5</ele><time>2026-04-04T06:30:05.275Z</time></trkpt><trkpt lat="43.1169925" lon="12.3770785"><ele>409.25</ele><time>2026-04-04T06:30:06.275Z</time></trkpt><trkpt lat="43.1170636" lon="12.3769413"><ele>409.0</ele><time>2026-04-04T06:30:07.276Z</time></trkpt><trkpt lat="43.1171334" lon="12.3768064"><ele>409.0</ele><time>2026-04-04T06:30:08.275Z</time></trkpt><trkpt lat="43.1172013" lon="12.3766718"><ele>409.0</ele><time>2026-04-04T06:30:09.275Z</time></trkpt><trkpt lat="43.1172758" lon="12.3765395"><ele>409.0</ele><time>2026-04-04T06:30:10.275Z</time></trkpt><trkpt lat="43.1173502" lon="12.3764043"><ele>409.0</ele><time>2026-04-04T06:30:11.276Z</time></trkpt><trkpt lat="43.1174226" lon="12.3762659"><ele>409.0</ele><time>2026-04-04T06:30:12.275Z</time></trkpt><trkpt lat="43.1174914" lon="12.3761245"><ele>409.0</ele><time>2026-04-04T06:30:13.275Z</time></trkpt><trkpt lat="43.1176576" lon="12.3758664"><ele>409.0</ele><time>2026-04-04T06:30:15.275Z</time></trkpt><trkpt lat="43.117754" lon="12.3757569"><ele>409.0</ele><time>2026-04-04T06:30:16.275Z</time></trkpt><trkpt lat="43.117852" lon="12.3756425"><ele>409.0</ele><time>2026-04-04T06:30:17.275Z</time></trkpt><trkpt lat="43.1179561" lon="12.3755395"><ele>409.0</ele><time>2026-04-04T06:30:18.275Z</time></trkpt><trkpt lat="43.1180614" lon="12.3754376"><ele>409.0</ele><time>2026-04-04T06:30:19.275Z</time></trkpt><trkpt lat="43.118165" lon="12.3753344"><ele>410.0</ele><time>2026-04-04T06:30:20.275Z</time></trkpt><trkpt lat="43.118269" lon="12.375233"><ele>411.0</ele><time>2026-04-04T06:30:21.275Z</time></trkpt><trkpt lat="43.118361" lon="12.3751161"><ele>412.0</ele><time>2026-04-04T06:30:22.275Z</time></trkpt><trkpt lat="43.1184462" lon="12.3749906"><ele>413.0</ele><time>2026-04-04T06:30:23.276Z</time></trkpt><trkpt lat="43.1185341" lon="12.3748632"><ele>413.0</ele><time>2026-04-04T06:30:24.276Z</time></trkpt><trkpt lat="43.1186136" lon="12.3747235"><ele>413.0</ele><time>2026-04-04T06:30:25.276Z</time></trkpt><trkpt lat="43.1186923" lon="12.3745816"><ele>413.0</ele><time>2026-04-04T06:30:26.275Z</time></trkpt><trkpt lat="43.1187796" lon="12.3744394"><ele>413.0</ele><time>2026-04-04T06:30:27.275Z</time></trkpt><trkpt lat="43.1188669" lon="12.374299"><ele>413.0</ele><time>2026-04-04T06:30:28.275Z</time></trkpt><trkpt lat="43.1189505" lon="12.3741604"><ele>413.0</ele><time>2026-04-04T06:30:29.276Z</time></trkpt><trkpt lat="43.1190323" lon="12.3740338"><ele>413.0</ele><time>2026-04-04T06:30:30.275Z</time></trkpt><trkpt lat="43.1191158" lon="12.3739139"><ele>413.0</ele><time>2026-04-04T06:30:31.275Z</time></trkpt><trkpt lat="43.119203" lon="12.3738024"><ele>410.0</ele><time>2026-04-04T06:30:32.275Z</time></trkpt><trkpt lat="43.1193014" lon="12.3737144"><ele>407.0</ele><time>2026-04-04T06:30:33.275Z</time></trkpt><trkpt lat="43.1193986" lon="12.3736512"><ele>404.0</ele><time>2026-04-04T06:30:34.275Z</time></trkpt><trkpt lat="43.1195002" lon="12.3736264"><ele>401.0</ele><time>2026-04-04T06:30:35.275Z</time></trkpt><trkpt lat="43.1196255" lon="12.3736033"><ele>401.0</ele><time>2026-04-04T06:30:36.275Z</time></trkpt><trkpt lat="43.1197314" lon="12.3736512"><ele>401.0</ele><time>2026-04-04T06:30:37.275Z</time></trkpt><trkpt lat="43.1198587" lon="12.3737492"><ele>401.0</ele><time>2026-04-04T06:30:38.276Z</time></trkpt><trkpt lat="43.1199221" lon="12.3739302"><ele>401.0</ele><time>2026-04-04T06:30:39.276Z</time></trkpt><trkpt lat="43.120027" lon="12.3740695"><ele>403.25</ele><time>2026-04-04T06:30:40.276Z</time></trkpt><trkpt lat="43.1201334" lon="12.374187"><ele>405.5</ele><time>2026-04-04T06:30:41.276Z</time></trkpt><trkpt lat="43.1202314" lon="12.3742702"><ele>407.75</ele><time>2026-04-04T06:30:42.276Z</time></trkpt><trkpt lat="43.120331" lon="12.3743165"><ele>410.0</ele><time>2026-04-04T06:30:43.276Z</time></trkpt><trkpt lat="43.1204365" lon="12.374336"><ele>410.0</ele><time>2026-04-04T06:30:44.276Z</time></trkpt><trkpt lat="43.1205418" lon="12.3743214"><ele>410.0</ele><time>2026-04-04T06:30:45.276Z</time></trkpt><trkpt lat="43.1206351" lon="12.3742606"><ele>410.0</ele><time>2026-04-04T06:30:46.276Z</time></trkpt><trkpt lat="43.1207242" lon="12.3742044"><ele>410.0</ele><time>2026-04-04T06:30:47.276Z</time></trkpt><trkpt lat="43.1207894" lon="12.3741133"><ele>410.0</ele><time>2026-04-04T06:30:48.276Z</time></trkpt><trkpt lat="43.120814" lon="12.3739584"><ele>408.25</ele><time>2026-04-04T06:30:49.276Z</time></trkpt><trkpt lat="43.1208329" lon="12.3737931"><ele>406.5</ele><time>2026-04-04T06:30:50.276Z</time></trkpt><trkpt lat="43.1208693" lon="12.3736226"><ele>404.75</ele><time>2026-04-04T06:30:51.276Z</time></trkpt><trkpt lat="43.1209271" lon="12.3734566"><ele>403.0</ele><time>2026-04-04T06:30:52.276Z</time></trkpt><trkpt lat="43.1210127" lon="12.3733757"><ele>403.0</ele><time>2026-04-04T06:30:53.276Z</time></trkpt><trkpt lat="43.1211137" lon="12.3733321"><ele>403.0</ele><time>2026-04-04T06:30:54.276Z</time></trkpt><trkpt lat="43.1212166" lon="12.3733296"><ele>403.0</ele><time>2026-04-04T06:30:55.276Z</time></trkpt><trkpt lat="43.1213298" lon="12.3733478"><ele>403.0</ele><time>2026-04-04T06:30:56.277Z</time></trkpt><trkpt lat="43.121442" lon="12.3733835"><ele>403.0</ele><time>2026-04-04T06:30:57.277Z</time></trkpt><trkpt lat="43.1215587" lon="12.373452"><ele>402.25</ele><time>2026-04-04T06:30:58.276Z</time></trkpt><trkpt lat="43.1216624" lon="12.3735302"><ele>401.5</ele><time>2026-04-04T06:30:59.276Z</time></trkpt><trkpt lat="43.1217654" lon="12.3736017"><ele>400.75</ele><time>2026-04-04T06:31:00.276Z</time></trkpt><trkpt lat="43.1218687" lon="12.3736553"><ele>400.0</ele><time>2026-04-04T06:31:01.276Z</time></trkpt><trkpt lat="43.1219757" lon="12.3736689"><ele>400.0</ele><time>2026-04-04T06:31:02.276Z</time></trkpt><trkpt lat="43.1220895" lon="12.3736476"><ele>400.0</ele><time>2026-04-04T06:31:03.276Z</time></trkpt><trkpt lat="43.1221973" lon="12.373587"><ele>400.0</ele><time>2026-04-04T06:31:04.277Z</time></trkpt><trkpt lat="43.1222938" lon="12.3734919"><ele>400.0</ele><time>2026-04-04T06:31:05.277Z</time></trkpt><trkpt lat="43.1223687" lon="12.3733389"><ele>400.75</ele><time>2026-04-04T06:31:06.277Z</time></trkpt><trkpt lat="43.1224417" lon="12.3731841"><ele>401.5</ele><time>2026-04-04T06:31:07.276Z</time></trkpt><trkpt lat="43.1224843" lon="12.3730297"><ele>402.25</ele><time>2026-04-04T06:31:08.276Z</time></trkpt><trkpt lat="43.1225164" lon="12.3728794"><ele>403.0</ele><time>2026-04-04T06:31:09.276Z</time></trkpt><trkpt lat="43.1225408" lon="12.3727398"><ele>403.0</ele><time>2026-04-04T06:31:10.276Z</time></trkpt><trkpt lat="43.1225626" lon="12.3726067"><ele>403.0</ele><time>2026-04-04T06:31:11.277Z</time></trkpt><trkpt lat="43.122585" lon="12.3724765"><ele>403.0</ele><time>2026-04-04T06:31:12.276Z</time></trkpt><trkpt lat="43.1226215" lon="12.3723595"><ele>403.0</ele><time>2026-04-04T06:31:13.276Z</time></trkpt><trkpt lat="43.1226537" lon="12.3722348"><ele>403.0</ele><time>2026-04-04T06:31:14.276Z</time></trkpt><trkpt lat="43.1226714" lon="12.3720982"><ele>403.0</ele><time>2026-04-04T06:31:15.276Z</time></trkpt><trkpt lat="43.1226902" lon="12.3719595"><ele>403.0</ele><time>2026-04-04T06:31:16.276Z</time></trkpt><trkpt lat="43.1227068" lon="12.3718067"><ele>403.0</ele><time>2026-04-04T06:31:17.276Z</time></trkpt><trkpt lat="43.1227228" lon="12.3716712"><ele>403.0</ele><time>2026-04-04T06:31:18.277Z</time></trkpt><trkpt lat="43.1227416" lon="12.3715324"><ele>403.0</ele><time>2026-04-04T06:31:19.277Z</time></trkpt><trkpt lat="43.1227611" lon="12.3713913"><ele>405.0</ele><time>2026-04-04T06:31:20.276Z</time></trkpt><trkpt lat="43.1227773" lon="12.3712444"><ele>407.0</ele><time>2026-04-04T06:31:21.276Z</time></trkpt><trkpt lat="43.1228045" lon="12.3710912"><ele>409.0</ele><time>2026-04-04T06:31:22.276Z</time></trkpt><trkpt lat="43.1228402" lon="12.3709434"><ele>411.0</ele><time>2026-04-04T06:31:23.276Z</time></trkpt><trkpt lat="43.1228863" lon="12.3708007"><ele>411.0</ele><time>2026-04-04T06:31:24.276Z</time></trkpt><trkpt lat="43.1229303" lon="12.3706708"><ele>411.0</ele><time>2026-04-04T06:31:25.276Z</time></trkpt><trkpt lat="43.1229984" lon="12.3705552"><ele>411.0</ele><time>2026-04-04T06:31:26.276Z</time></trkpt><trkpt lat="43.1230723" lon="12.3704428"><ele>411.0</ele><time>2026-04-04T06:31:27.277Z</time></trkpt><trkpt lat="43.1231541" lon="12.370335"><ele>411.0</ele><time>2026-04-04T06:31:28.276Z</time></trkpt><trkpt lat="43.1232427" lon="12.3702301"><ele>410.25</ele><time>2026-04-04T06:31:29.276Z</time></trkpt><trkpt lat="43.1233317" lon="12.370132"><ele>409.5</ele><time>2026-04-04T06:31:30.276Z</time></trkpt><trkpt lat="43.1234277" lon="12.370043"><ele>408.75</ele><time>2026-04-04T06:31:31.276Z</time></trkpt><trkpt lat="43.1235342" lon="12.3699682"><ele>408.0</ele><time>2026-04-04T06:31:32.276Z</time></trkpt><trkpt lat="43.123646" lon="12.369908"><ele>408.0</ele><time>2026-04-04T06:31:33.276Z</time></trkpt><trkpt lat="43.1237613" lon="12.3698646"><ele>408.0</ele><time>2026-04-04T06:31:34.276Z</time></trkpt><trkpt lat="43.1238757" lon="12.3698268"><ele>408.0</ele><time>2026-04-04T06:31:35.276Z</time></trkpt><trkpt lat="43.1239988" lon="12.3698011"><ele>408.0</ele><time>2026-04-04T06:31:36.276Z</time></trkpt><trkpt lat="43.1241207" lon="12.3697777"><ele>407.25</ele><time>2026-04-04T06:31:37.277Z</time></trkpt><trkpt lat="43.1242498" lon="12.3697549"><ele>406.5</ele><time>2026-04-04T06:31:38.276Z</time></trkpt><trkpt lat="43.1243772" lon="12.3697596"><ele>405.75</ele><time>2026-04-04T06:31:39.276Z</time></trkpt><trkpt lat="43.1245039" lon="12.3697834"><ele>405.0</ele><time>2026-04-04T06:31:40.276Z</time></trkpt><trkpt lat="43.1246162" lon="12.3698072"><ele>405.0</ele><time>2026-04-04T06:31:41.278Z</time></trkpt><trkpt lat="43.1247287" lon="12.369812"><ele>405.0</ele><time>2026-04-04T06:31:42.277Z</time></trkpt><trkpt lat="43.1248392" lon="12.3697845"><ele>405.0</ele><time>2026-04-04T06:31:43.277Z</time></trkpt><trkpt lat="43.1249355" lon="12.3697151"><ele>405.0</ele><time>2026-04-04T06:31:44.277Z</time></trkpt><trkpt lat="43.1250162" lon="12.3695961"><ele>404.75</ele><time>2026-04-04T06:31:45.277Z</time></trkpt><trkpt lat="43.1250708" lon="12.3694372"><ele>404.5</ele><time>2026-04-04T06:31:46.277Z</time></trkpt><trkpt lat="43.1250848" lon="12.369267"><ele>404.25</ele><time>2026-04-04T06:31:47.277Z</time></trkpt><trkpt lat="43.1250984" lon="12.369091"><ele>404.0</ele><time>2026-04-04T06:31:48.277Z</time></trkpt><trkpt lat="43.1251172" lon="12.3689107"><ele>402.0</ele><time>2026-04-04T06:31:49.277Z</time></trkpt><trkpt lat="43.1251739" lon="12.3687643"><ele>400.0</ele><time>2026-04-04T06:31:50.277Z</time></trkpt><trkpt lat="43.1252429" lon="12.3686177"><ele>398.0</ele><time>2026-04-04T06:31:51.278Z</time></trkpt><trkpt lat="43.1253299" lon="12.3685158"><ele>396.0</ele><time>2026-04-04T06:31:52.277Z</time></trkpt><trkpt lat="43.1254277" lon="12.3684225"><ele>396.0</ele><time>2026-04-04T06:31:53.277Z</time></trkpt><trkpt lat="43.1255264" lon="12.3683306"><ele>396.0</ele><time>2026-04-04T06:31:54.277Z</time></trkpt><trkpt lat="43.1256168" lon="12.3682215"><ele>396.0</ele><time>2026-04-04T06:31:55.278Z</time></trkpt><trkpt lat="43.1257042" lon="12.3680989"><ele>396.0</ele><time>2026-04-04T06:31:56.277Z</time></trkpt><trkpt lat="43.1257786" lon="12.3679534"><ele>399.5</ele><time>2026-04-04T06:31:57.277Z</time></trkpt><trkpt lat="43.125806" lon="12.3677736"><ele>403.0</ele><time>2026-04-04T06:31:58.277Z</time></trkpt><trkpt lat="43.1258192" lon="12.3675959"><ele>406.5</ele><time>2026-04-04T06:31:59.277Z</time></trkpt><trkpt lat="43.125824" lon="12.3674178"><ele>410.0</ele><time>2026-04-04T06:32:00.277Z</time></trkpt><trkpt lat="43.1258338" lon="12.3672396"><ele>408.75</ele><time>2026-04-04T06:32:01.277Z</time></trkpt><trkpt lat="43.1258562" lon="12.3670653"><ele>407.5</ele><time>2026-04-04T06:32:02.277Z</time></trkpt><trkpt lat="43.1258905" lon="12.3668992"><ele>406.25</ele><time>2026-04-04T06:32:03.277Z</time></trkpt><trkpt lat="43.1259479" lon="12.3667442"><ele>405.0</ele><time>2026-04-04T06:32:04.277Z</time></trkpt><trkpt lat="43.1260283" lon="12.3666104"><ele>405.0</ele><time>2026-04-04T06:32:05.277Z</time></trkpt><trkpt lat="43.1261258" lon="12.3665083"><ele>405.0</ele><time>2026-04-04T06:32:06.277Z</time></trkpt><trkpt lat="43.1262255" lon="12.3664149"><ele>405.0</ele><time>2026-04-04T06:32:07.278Z</time></trkpt><trkpt lat="43.1263366" lon="12.366364"><ele>405.0</ele><time>2026-04-04T06:32:08.277Z</time></trkpt><trkpt lat="43.1264537" lon="12.3663307"><ele>402.0</ele><time>2026-04-04T06:32:09.277Z</time></trkpt><trkpt lat="43.1265713" lon="12.3663076"><ele>399.0</ele><time>2026-04-04T06:32:10.277Z</time></trkpt><trkpt lat="43.126691" lon="12.3663071"><ele>396.0</ele><time>2026-04-04T06:32:11.277Z</time></trkpt><trkpt lat="43.1268272" lon="12.3663311"><ele>393.0</ele><time>2026-04-04T06:32:12.278Z</time></trkpt><trkpt lat="43.1269517" lon="12.3663668"><ele>397.5</ele><time>2026-04-04T06:32:13.278Z</time></trkpt><trkpt lat="43.1270762" lon="12.3664069"><ele>402.0</ele><time>2026-04-04T06:32:14.278Z</time></trkpt><trkpt lat="43.1271973" lon="12.3664393"><ele>406.5</ele><time>2026-04-04T06:32:15.277Z</time></trkpt><trkpt lat="43.127308" lon="12.3664444"><ele>411.0</ele><time>2026-04-04T06:32:16.277Z</time></trkpt><trkpt lat="43.1274197" lon="12.3664128"><ele>408.0</ele><time>2026-04-04T06:32:17.277Z</time></trkpt><trkpt lat="43.1275235" lon="12.3663476"><ele>405.0</ele><time>2026-04-04T06:32:18.277Z</time></trkpt><trkpt lat="43.1275999" lon="12.3662398"><ele>402.0</ele><time>2026-04-04T06:32:19.277Z</time></trkpt><trkpt lat="43.1276214" lon="12.3660731"><ele>399.0</ele><time>2026-04-04T06:32:20.278Z</time></trkpt><trkpt lat="43.1276481" lon="12.3659025"><ele>399.0</ele><time>2026-04-04T06:32:21.278Z</time></trkpt><trkpt lat="43.1276624" lon="12.3657216"><ele>399.0</ele><time>2026-04-04T06:32:22.277Z</time></trkpt><trkpt lat="43.1276862" lon="12.3655505"><ele>399.0</ele><time>2026-04-04T06:32:23.277Z</time></trkpt><trkpt lat="43.1277123" lon="12.365393"><ele>399.0</ele><time>2026-04-04T06:32:24.277Z</time></trkpt><trkpt lat="43.1277355" lon="12.3652493"><ele>399.7142857142857</ele><time>2026-04-04T06:32:25.277Z</time></trkpt><trkpt lat="43.1277482" lon="12.3651286"><ele>400.42857142857144</ele><time>2026-04-04T06:32:26.278Z</time></trkpt><trkpt lat="43.1277576" lon="12.3650157"><ele>401.1428571428571</ele><time>2026-04-04T06:32:27.277Z</time></trkpt><trkpt lat="43.1277694" lon="12.3649239"><ele>401.8571428571429</ele><time>2026-04-04T06:32:28.277Z</time></trkpt><trkpt lat="43.1277937" lon="12.3648428"><ele>402.57142857142856</ele><time>2026-04-04T06:32:29.278Z</time></trkpt><trkpt lat="43.1278538" lon="12.3647892"><ele>403.2857142857143</ele><time>2026-04-04T06:32:30.277Z</time></trkpt><trkpt lat="43.1279154" lon="12.3647468"><ele>404.0</ele><time>2026-04-04T06:32:31.277Z</time></trkpt><trkpt lat="43.1279662" lon="12.3646912"><ele>404.99999999999994</ele><time>2026-04-04T06:32:32.277Z</time></trkpt><trkpt lat="43.1280029" lon="12.3646139"><ele>406.0</ele><time>2026-04-04T06:32:33.277Z</time></trkpt><trkpt lat="43.1280285" lon="12.3645128"><ele>407.0</ele><time>2026-04-04T06:32:34.277Z</time></trkpt><trkpt lat="43.1280497" lon="12.3643985"><ele>408.0</ele><time>2026-04-04T06:32:35.277Z</time></trkpt><trkpt lat="43.1280804" lon="12.3642821"><ele>408.99999999999994</ele><time>2026-04-04T06:32:36.278Z</time></trkpt><trkpt lat="43.1281188" lon="12.3641648"><ele>410.0</ele><time>2026-04-04T06:32:37.277Z</time></trkpt><trkpt lat="43.1281842" lon="12.3640673"><ele>408.0</ele><time>2026-04-04T06:32:38.277Z</time></trkpt><trkpt lat="43.1282555" lon="12.3639755"><ele>406.0</ele><time>2026-04-04T06:32:39.277Z</time></trkpt><trkpt lat="43.1283606" lon="12.3639112"><ele>404.0</ele><time>2026-04-04T06:32:40.277Z</time></trkpt><trkpt lat="43.1284788" lon="12.3638457"><ele>402.0</ele><time>2026-04-04T06:32:41.278Z</time></trkpt><trkpt lat="43.1286156" lon="12.3637646"><ele>400.66666666666663</ele><time>2026-04-04T06:32:42.279Z</time></trkpt><trkpt lat="43.1287703" lon="12.3636878"><ele>399.3333333333333</ele><time>2026-04-04T06:32:43.278Z</time></trkpt><trkpt lat="43.1289272" lon="12.3636192"><ele>398.0</ele><time>2026-04-04T06:32:44.278Z</time></trkpt><trkpt lat="43.1290813" lon="12.3635466"><ele>397.66666666666663</ele><time>2026-04-04T06:32:45.279Z</time></trkpt><trkpt lat="43.1292342" lon="12.3634709"><ele>397.33333333333337</ele><time>2026-04-04T06:32:46.278Z</time></trkpt><trkpt lat="43.1293853" lon="12.3633951"><ele>397.0</ele><time>2026-04-04T06:32:47.278Z</time></trkpt><trkpt lat="43.1295347" lon="12.3633196"><ele>397.0</ele><time>2026-04-04T06:32:48.278Z</time></trkpt><trkpt lat="43.1296803" lon="12.3632433"><ele>397.0</ele><time>2026-04-04T06:32:49.278Z</time></trkpt><trkpt lat="43.1298227" lon="12.3631693"><ele>397.0</ele><time>2026-04-04T06:32:50.278Z</time></trkpt><trkpt lat="43.1299636" lon="12.3630917"><ele>395.5</ele><time>2026-04-04T06:32:51.278Z</time></trkpt><trkpt lat="43.1300921" lon="12.3630224"><ele>394.0</ele><time>2026-04-04T06:32:52.278Z</time></trkpt><trkpt lat="43.130213" lon="12.3629506"><ele>392.5</ele><time>2026-04-04T06:32:53.278Z</time></trkpt><trkpt lat="43.1303237" lon="12.3628763"><ele>391.0</ele><time>2026-04-04T06:32:54.278Z</time></trkpt><trkpt lat="43.1304255" lon="12.3628093"><ele>391.0</ele><time>2026-04-04T06:32:55.278Z</time></trkpt><trkpt lat="43.1305283" lon="12.3627598"><ele>391.0</ele><time>2026-04-04T06:32:56.278Z</time></trkpt><trkpt lat="43.1306274" lon="12.3627218"><ele>391.0</ele><time>2026-04-04T06:32:57.278Z</time></trkpt><trkpt lat="43.1307136" lon="12.3626995"><ele>391.0</ele><time>2026-04-04T06:32:58.278Z</time></trkpt><trkpt lat="43.1307772" lon="12.3625981"><ele>391.0</ele><time>2026-04-04T06:33:00.279Z</time></trkpt><trkpt lat="43.1307397" lon="12.3624477"><ele>391.00000000000006</ele><time>2026-04-04T06:33:02.278Z</time></trkpt><trkpt lat="43.1306908" lon="12.3623787"><ele>391.0</ele><time>2026-04-04T06:33:03.278Z</time></trkpt><trkpt lat="43.1306473" lon="12.3622966"><ele>391.0</ele><time>2026-04-04T06:33:04.278Z</time></trkpt><trkpt lat="43.130625" lon="12.3621882"><ele>391.0</ele><time>2026-04-04T06:33:05.278Z</time></trkpt><trkpt lat="43.1306109" lon="12.3620789"><ele>391.00000000000006</ele><time>2026-04-04T06:33:06.278Z</time></trkpt><trkpt lat="43.130629" lon="12.3619572"><ele>391.0</ele><time>2026-04-04T06:33:07.278Z</time></trkpt><trkpt lat="43.1306445" lon="12.3618214"><ele>391.6</ele><time>2026-04-04T06:33:08.278Z</time></trkpt><trkpt lat="43.1306541" lon="12.3616761"><ele>392.20000000000005</ele><time>2026-04-04T06:33:09.279Z</time></trkpt><trkpt lat="43.1306599" lon="12.3615334"><ele>392.79999999999995</ele><time>2026-04-04T06:33:10.278Z</time></trkpt><trkpt lat="43.130667" lon="12.3613868"><ele>393.4</ele><time>2026-04-04T06:33:11.278Z</time></trkpt><trkpt lat="43.1306805" lon="12.3612387"><ele>394.0</ele><time>2026-04-04T06:33:12.278Z</time></trkpt><trkpt lat="43.1306905" lon="12.3610936"><ele>394.0</ele><time>2026-04-04T06:33:13.278Z</time></trkpt><trkpt lat="43.1306919" lon="12.3609577"><ele>394.0</ele><time>2026-04-04T06:33:14.279Z</time></trkpt><trkpt lat="43.1306788" lon="12.3608303"><ele>394.0</ele><time>2026-04-04T06:33:15.278Z</time></trkpt><trkpt lat="43.1306464" lon="12.3607074"><ele>394.0</ele><time>2026-04-04T06:33:16.278Z</time></trkpt><trkpt lat="43.1305918" lon="12.360588"><ele>394.0</ele><time>2026-04-04T06:33:17.279Z</time></trkpt><trkpt lat="43.1305185" lon="12.3604716"><ele>395.5</ele><time>2026-04-04T06:33:18.278Z</time></trkpt><trkpt lat="43.1304449" lon="12.3603585"><ele>397.0</ele><time>2026-04-04T06:33:19.278Z</time></trkpt><trkpt lat="43.1303563" lon="12.3602335"><ele>398.5</ele><time>2026-04-04T06:33:20.278Z</time></trkpt><trkpt lat="43.1302669" lon="12.3601082"><ele>400.0</ele><time>2026-04-04T06:33:21.279Z</time></trkpt><trkpt lat="43.130184" lon="12.359977"><ele>400.0</ele><time>2026-04-04T06:33:22.278Z</time></trkpt><trkpt lat="43.1301086" lon="12.3598377"><ele>400.0</ele><time>2026-04-04T06:33:23.278Z</time></trkpt><trkpt lat="43.1300439" lon="12.3596823"><ele>400.0</ele><time>2026-04-04T06:33:24.278Z</time></trkpt><trkpt lat="43.1299958" lon="12.3595082"><ele>400.0</ele><time>2026-04-04T06:33:25.278Z</time></trkpt><trkpt lat="43.1299672" lon="12.3593185"><ele>400.33333333333337</ele><time>2026-04-04T06:33:26.278Z</time></trkpt><trkpt lat="43.1299569" lon="12.3591165"><ele>400.66666666666663</ele><time>2026-04-04T06:33:27.278Z</time></trkpt><trkpt lat="43.1299627" lon="12.3589081"><ele>401.0</ele><time>2026-04-04T06:33:28.278Z</time></trkpt><trkpt lat="43.1299745" lon="12.3586937"><ele>399.66666666666663</ele><time>2026-04-04T06:33:29.278Z</time></trkpt><trkpt lat="43.1299855" lon="12.3584737"><ele>398.33333333333337</ele><time>2026-04-04T06:33:30.278Z</time></trkpt><trkpt lat="43.1299965" lon="12.3582487"><ele>397.0</ele><time>2026-04-04T06:33:31.278Z</time></trkpt><trkpt lat="43.1300105" lon="12.3580204"><ele>397.0</ele><time>2026-04-04T06:33:32.278Z</time></trkpt><trkpt lat="43.1300232" lon="12.3577895"><ele>397.0</ele><time>2026-04-04T06:33:33.279Z</time></trkpt><trkpt lat="43.1300362" lon="12.3575586"><ele>397.0</ele><time>2026-04-04T06:33:34.278Z</time></trkpt><trkpt lat="43.1300488" lon="12.3573284"><ele>397.33333333333337</ele><time>2026-04-04T06:33:35.278Z</time></trkpt><trkpt lat="43.1300622" lon="12.3570996"><ele>397.66666666666663</ele><time>2026-04-04T06:33:36.278Z</time></trkpt><trkpt lat="43.130075" lon="12.3568738"><ele>398.0</ele><time>2026-04-04T06:33:37.278Z</time></trkpt><trkpt lat="43.1300875" lon="12.3566503"><ele>398.0</ele><time>2026-04-04T06:33:38.278Z</time></trkpt><trkpt lat="43.1300994" lon="12.3564293"><ele>398.0</ele><time>2026-04-04T06:33:39.278Z</time></trkpt><trkpt lat="43.1301107" lon="12.3562154"><ele>398.0</ele><time>2026-04-04T06:33:40.278Z</time></trkpt><trkpt lat="43.1301231" lon="12.3560086"><ele>397.5</ele><time>2026-04-04T06:33:41.279Z</time></trkpt><trkpt lat="43.1301406" lon="12.3558066"><ele>397.0</ele><time>2026-04-04T06:33:42.279Z</time></trkpt><trkpt lat="43.1301675" lon="12.3556099"><ele>396.5</ele><time>2026-04-04T06:33:43.279Z</time></trkpt><trkpt lat="43.1302072" lon="12.3554167"><ele>396.0</ele><time>2026-04-04T06:33:44.279Z</time></trkpt><trkpt lat="43.1302595" lon="12.3552259"><ele>395.0</ele><time>2026-04-04T06:33:45.279Z</time></trkpt><trkpt lat="43.1303271" lon="12.3550413"><ele>394.0</ele><time>2026-04-04T06:33:46.28Z</time></trkpt><trkpt lat="43.1303974" lon="12.3548577"><ele>393.0</ele><time>2026-04-04T06:33:47.279Z</time></trkpt><trkpt lat="43.1304952" lon="12.3547235"><ele>392.0</ele><time>2026-04-04T06:33:48.28Z</time></trkpt><trkpt lat="43.1305941" lon="12.354605"><ele>391.25</ele><time>2026-04-04T06:33:49.279Z</time></trkpt><trkpt lat="43.130712" lon="12.3545296"><ele>390.5</ele><time>2026-04-04T06:33:50.279Z</time></trkpt><trkpt lat="43.1308614" lon="12.3545169"><ele>389.75</ele><time>2026-04-04T06:33:51.279Z</time></trkpt><trkpt lat="43.1309966" lon="12.354511"><ele>389.0</ele><time>2026-04-04T06:33:52.279Z</time></trkpt><trkpt lat="43.13114" lon="12.3545491"><ele>389.0</ele><time>2026-04-04T06:33:53.28Z</time></trkpt><trkpt lat="43.1312826" lon="12.3546301"><ele>389.0</ele><time>2026-04-04T06:33:54.28Z</time></trkpt><trkpt lat="43.1314313" lon="12.3546941"><ele>389.0</ele><time>2026-04-04T06:33:55.279Z</time></trkpt><trkpt lat="43.131571" lon="12.3547232"><ele>388.25</ele><time>2026-04-04T06:33:56.279Z</time></trkpt><trkpt lat="43.1317065" lon="12.3547179"><ele>387.5</ele><time>2026-04-04T06:33:57.279Z</time></trkpt><trkpt lat="43.1318417" lon="12.3547051"><ele>386.75</ele><time>2026-04-04T06:33:58.279Z</time></trkpt><trkpt lat="43.1319456" lon="12.354611"><ele>386.0</ele><time>2026-04-04T06:33:59.279Z</time></trkpt><trkpt lat="43.1320314" lon="12.3544783"><ele>386.0</ele><time>2026-04-04T06:34:00.279Z</time></trkpt><trkpt lat="43.1321003" lon="12.3543157"><ele>386.0</ele><time>2026-04-04T06:34:01.279Z</time></trkpt><trkpt lat="43.132167" lon="12.3541448"><ele>386.0</ele><time>2026-04-04T06:34:02.279Z</time></trkpt><trkpt lat="43.1322292" lon="12.3539504"><ele>386.0</ele><time>2026-04-04T06:34:03.279Z</time></trkpt><trkpt lat="43.1322981" lon="12.3537615"><ele>387.0</ele><time>2026-04-04T06:34:04.279Z</time></trkpt><trkpt lat="43.1323678" lon="12.3535774"><ele>388.0</ele><time>2026-04-04T06:34:05.28Z</time></trkpt><trkpt lat="43.1324457" lon="12.3534032"><ele>389.0</ele><time>2026-04-04T06:34:06.279Z</time></trkpt><trkpt lat="43.1325415" lon="12.3532359"><ele>389.0</ele><time>2026-04-04T06:34:07.279Z</time></trkpt><trkpt lat="43.1326478" lon="12.3530791"><ele>389.0</ele><time>2026-04-04T06:34:08.279Z</time></trkpt><trkpt lat="43.1327691" lon="12.3529421"><ele>389.0</ele><time>2026-04-04T06:34:09.279Z</time></trkpt><trkpt lat="43.1329015" lon="12.3528208"><ele>386.66666666666663</ele><time>2026-04-04T06:34:10.279Z</time></trkpt><trkpt lat="43.1330352" lon="12.3527104"><ele>384.3333333333333</ele><time>2026-04-04T06:34:11.279Z</time></trkpt><trkpt lat="43.133175" lon="12.3526052"><ele>382.0</ele><time>2026-04-04T06:34:12.279Z</time></trkpt><trkpt lat="43.1333225" lon="12.3524997"><ele>387.3333333333333</ele><time>2026-04-04T06:34:13.28Z</time></trkpt><trkpt lat="43.1334677" lon="12.3523933"><ele>392.66666666666663</ele><time>2026-04-04T06:34:14.279Z</time></trkpt><trkpt lat="43.1336078" lon="12.3523071"><ele>398.0</ele><time>2026-04-04T06:34:15.279Z</time></trkpt><trkpt lat="43.1337416" lon="12.3522404"><ele>398.0</ele><time>2026-04-04T06:34:16.279Z</time></trkpt><trkpt lat="43.133885" lon="12.3521988"><ele>398.0</ele><time>2026-04-04T06:34:17.28Z</time></trkpt><trkpt lat="43.134018" lon="12.352183"><ele>398.0</ele><time>2026-04-04T06:34:18.28Z</time></trkpt><trkpt lat="43.1341541" lon="12.3522055"><ele>398.0</ele><time>2026-04-04T06:34:19.279Z</time></trkpt><trkpt lat="43.1343098" lon="12.3522533"><ele>398.0</ele><time>2026-04-04T06:34:20.279Z</time></trkpt><trkpt lat="43.1344645" lon="12.3523193"><ele>398.0</ele><time>2026-04-04T06:34:21.279Z</time></trkpt><trkpt lat="43.13462" lon="12.3523809"><ele>398.0</ele><time>2026-04-04T06:34:22.279Z</time></trkpt><trkpt lat="43.1347739" lon="12.3524527"><ele>396.66666666666663</ele><time>2026-04-04T06:34:23.279Z</time></trkpt><trkpt lat="43.1349179" lon="12.3525261"><ele>395.33333333333337</ele><time>2026-04-04T06:34:24.279Z</time></trkpt><trkpt lat="43.1350816" lon="12.3526274"><ele>394.0</ele><time>2026-04-04T06:34:25.28Z</time></trkpt><trkpt lat="43.1352362" lon="12.3527392"><ele>394.0</ele><time>2026-04-04T06:34:26.28Z</time></trkpt><trkpt lat="43.1353895" lon="12.3528711"><ele>394.0</ele><time>2026-04-04T06:34:27.279Z</time></trkpt><trkpt lat="43.1355421" lon="12.353006"><ele>394.0</ele><time>2026-04-04T06:34:28.279Z</time></trkpt><trkpt lat="43.1356962" lon="12.3531454"><ele>393.33333333333337</ele><time>2026-04-04T06:34:29.279Z</time></trkpt><trkpt lat="43.1358472" lon="12.3532831"><ele>392.66666666666663</ele><time>2026-04-04T06:34:30.279Z</time></trkpt><trkpt lat="43.1359921" lon="12.3534267"><ele>392.0</ele><time>2026-04-04T06:34:31.279Z</time></trkpt><trkpt lat="43.136136" lon="12.3535627"><ele>392.0</ele><time>2026-04-04T06:34:32.279Z</time></trkpt><trkpt lat="43.1362851" lon="12.3537098"><ele>392.0</ele><time>2026-04-04T06:34:33.279Z</time></trkpt><trkpt lat="43.1364247" lon="12.3538456"><ele>392.0</ele><time>2026-04-04T06:34:34.279Z</time></trkpt><trkpt lat="43.1365652" lon="12.3539685"><ele>389.3333333333333</ele><time>2026-04-04T06:34:35.279Z</time></trkpt><trkpt lat="43.1367049" lon="12.3540817"><ele>386.66666666666663</ele><time>2026-04-04T06:34:36.279Z</time></trkpt><trkpt lat="43.1368352" lon="12.3541936"><ele>384.0</ele><time>2026-04-04T06:34:37.279Z</time></trkpt><trkpt lat="43.1369553" lon="12.3543068"><ele>384.0</ele><time>2026-04-04T06:34:38.28Z</time></trkpt><trkpt lat="43.137063" lon="12.3544188"><ele>384.0</ele><time>2026-04-04T06:34:39.279Z</time></trkpt><trkpt lat="43.1371527" lon="12.3545525"><ele>384.0</ele><time>2026-04-04T06:34:40.279Z</time></trkpt><trkpt lat="43.1372166" lon="12.3547144"><ele>384.0</ele><time>2026-04-04T06:34:41.279Z</time></trkpt><trkpt lat="43.1372647" lon="12.3548848"><ele>386.25</ele><time>2026-04-04T06:34:42.281Z</time></trkpt><trkpt lat="43.1373017" lon="12.3550702"><ele>388.5</ele><time>2026-04-04T06:34:43.28Z</time></trkpt><trkpt lat="43.1373073" lon="12.3552481"><ele>390.75</ele><time>2026-04-04T06:34:44.28Z</time></trkpt><trkpt lat="43.1372791" lon="12.3554069"><ele>393.0</ele><time>2026-04-04T06:34:45.28Z</time></trkpt><trkpt lat="43.1372479" lon="12.3555652"><ele>395.25</ele><time>2026-04-04T06:34:46.281Z</time></trkpt><trkpt lat="43.1372204" lon="12.3557135"><ele>397.5</ele><time>2026-04-04T06:34:47.281Z</time></trkpt><trkpt lat="43.1371858" lon="12.355873"><ele>399.75</ele><time>2026-04-04T06:34:48.28Z</time></trkpt><trkpt lat="43.1371616" lon="12.356026"><ele>402.0</ele><time>2026-04-04T06:34:49.28Z</time></trkpt><trkpt lat="43.13714" lon="12.3561826"><ele>402.0</ele><time>2026-04-04T06:34:50.281Z</time></trkpt><trkpt lat="43.1371444" lon="12.3563367"><ele>402.0</ele><time>2026-04-04T06:34:51.28Z</time></trkpt><trkpt lat="43.1371491" lon="12.3565858"><ele>402.0</ele><time>2026-04-04T06:34:52.281Z</time></trkpt><trkpt lat="43.1372028" lon="12.3567033"><ele>402.0</ele><time>2026-04-04T06:34:53.28Z</time></trkpt><trkpt lat="43.1372941" lon="12.3567877"><ele>396.0</ele><time>2026-04-04T06:34:54.281Z</time></trkpt><trkpt lat="43.137406" lon="12.3568492"><ele>390.0</ele><time>2026-04-04T06:34:55.28Z</time></trkpt><trkpt lat="43.1375407" lon="12.356886"><ele>384.0</ele><time>2026-04-04T06:34:56.28Z</time></trkpt><trkpt lat="43.1376588" lon="12.3568701"><ele>378.0</ele><time>2026-04-04T06:34:57.28Z</time></trkpt><trkpt lat="43.137777" lon="12.3567764"><ele>378.0</ele><time>2026-04-04T06:34:58.28Z</time></trkpt><trkpt lat="43.1379877" lon="12.3564778"><ele>378.0</ele><time>2026-04-04T06:34:59.28Z</time></trkpt><trkpt lat="43.138129" lon="12.3563254"><ele>372.6666666666667</ele><time>2026-04-04T06:35:00.28Z</time></trkpt><trkpt lat="43.1382734" lon="12.3561937"><ele>367.33333333333337</ele><time>2026-04-04T06:35:01.28Z</time></trkpt><trkpt lat="43.1384246" lon="12.3560778"><ele>362.0</ele><time>2026-04-04T06:35:02.28Z</time></trkpt><trkpt lat="43.1385587" lon="12.355999"><ele>362.0</ele><time>2026-04-04T06:35:03.28Z</time></trkpt><trkpt lat="43.1386787" lon="12.3559838"><ele>362.0</ele><time>2026-04-04T06:35:04.28Z</time></trkpt><trkpt lat="43.1388062" lon="12.3560047"><ele>362.0</ele><time>2026-04-04T06:35:05.281Z</time></trkpt><trkpt lat="43.1389657" lon="12.3560756"><ele>362.0</ele><time>2026-04-04T06:35:06.281Z</time></trkpt><trkpt lat="43.1391156" lon="12.3561458"><ele>362.33333333333337</ele><time>2026-04-04T06:35:07.28Z</time></trkpt><trkpt lat="43.1392685" lon="12.3562235"><ele>362.6666666666667</ele><time>2026-04-04T06:35:08.28Z</time></trkpt><trkpt lat="43.1394218" lon="12.3563076"><ele>363.0</ele><time>2026-04-04T06:35:09.281Z</time></trkpt><trkpt lat="43.1395666" lon="12.3563839"><ele>363.0</ele><time>2026-04-04T06:35:10.28Z</time></trkpt><trkpt lat="43.1397392" lon="12.3564385"><ele>363.0</ele><time>2026-04-04T06:35:11.28Z</time></trkpt><trkpt lat="43.1398943" lon="12.3564052"><ele>363.0</ele><time>2026-04-04T06:35:12.28Z</time></trkpt><trkpt lat="43.1400454" lon="12.3563175"><ele>361.0</ele><time>2026-04-04T06:35:13.28Z</time></trkpt><trkpt lat="43.1401579" lon="12.356176"><ele>359.0</ele><time>2026-04-04T06:35:14.28Z</time></trkpt><trkpt lat="43.1402485" lon="12.3559969"><ele>357.0</ele><time>2026-04-04T06:35:15.28Z</time></trkpt><trkpt lat="43.140316" lon="12.3557995"><ele>357.0</ele><time>2026-04-04T06:35:16.28Z</time></trkpt><trkpt lat="43.1403862" lon="12.3555999"><ele>357.0</ele><time>2026-04-04T06:35:17.28Z</time></trkpt><trkpt lat="43.1404511" lon="12.3553965"><ele>357.0</ele><time>2026-04-04T06:35:18.28Z</time></trkpt><trkpt lat="43.1405157" lon="12.3551819"><ele>355.0</ele><time>2026-04-04T06:35:19.28Z</time></trkpt><trkpt lat="43.1405976" lon="12.3549768"><ele>353.0</ele><time>2026-04-04T06:35:20.28Z</time></trkpt><trkpt lat="43.1407063" lon="12.3548206"><ele>351.0</ele><time>2026-04-04T06:35:21.28Z</time></trkpt><trkpt lat="43.1408389" lon="12.3546973"><ele>347.6666666666667</ele><time>2026-04-04T06:35:22.28Z</time></trkpt><trkpt lat="43.140988" lon="12.3546041"><ele>344.33333333333337</ele><time>2026-04-04T06:35:23.28Z</time></trkpt><trkpt lat="43.1411508" lon="12.3545317"><ele>341.0</ele><time>2026-04-04T06:35:24.28Z</time></trkpt><trkpt lat="43.1413163" lon="12.3544776"><ele>341.0</ele><time>2026-04-04T06:35:25.28Z</time></trkpt><trkpt lat="43.1414827" lon="12.35444"><ele>341.0</ele><time>2026-04-04T06:35:26.281Z</time></trkpt><trkpt lat="43.1416452" lon="12.3544116"><ele>341.0</ele><time>2026-04-04T06:35:27.28Z</time></trkpt><trkpt lat="43.141805" lon="12.3544055"><ele>340.6666666666667</ele><time>2026-04-04T06:35:28.28Z</time></trkpt><trkpt lat="43.1419691" lon="12.3544239"><ele>340.3333333333333</ele><time>2026-04-04T06:35:29.28Z</time></trkpt><trkpt lat="43.1421149" lon="12.3544868"><ele>340.0</ele><time>2026-04-04T06:35:30.28Z</time></trkpt><trkpt lat="43.1422465" lon="12.3545695"><ele>340.0</ele><time>2026-04-04T06:35:31.28Z</time></trkpt><trkpt lat="43.1423709" lon="12.3546949"><ele>340.0</ele><time>2026-04-04T06:35:32.28Z</time></trkpt><trkpt lat="43.1424919" lon="12.3548789"><ele>340.0</ele><time>2026-04-04T06:35:33.28Z</time></trkpt><trkpt lat="43.1426066" lon="12.3550729"><ele>340.3333333333333</ele><time>2026-04-04T06:35:34.28Z</time></trkpt><trkpt lat="43.1426936" lon="12.355357"><ele>340.6666666666667</ele><time>2026-04-04T06:35:35.281Z</time></trkpt><trkpt lat="43.1427983" lon="12.3555552"><ele>341.0</ele><time>2026-04-04T06:35:36.28Z</time></trkpt><trkpt lat="43.142892" lon="12.3557366"><ele>342.25</ele><time>2026-04-04T06:35:37.28Z</time></trkpt><trkpt lat="43.142984" lon="12.3559018"><ele>343.5</ele><time>2026-04-04T06:35:38.28Z</time></trkpt><trkpt lat="43.1430803" lon="12.3560591"><ele>344.75</ele><time>2026-04-04T06:35:39.28Z</time></trkpt><trkpt lat="43.1431728" lon="12.3561828"><ele>346.0</ele><time>2026-04-04T06:35:40.28Z</time></trkpt><trkpt lat="43.1432772" lon="12.3562755"><ele>343.5</ele><time>2026-04-04T06:35:41.281Z</time></trkpt><trkpt lat="43.1433971" lon="12.3563694"><ele>341.0</ele><time>2026-04-04T06:35:42.281Z</time></trkpt><trkpt lat="43.1435371" lon="12.3563708"><ele>338.5</ele><time>2026-04-04T06:35:43.281Z</time></trkpt><trkpt lat="43.1436879" lon="12.3563676"><ele>336.0</ele><time>2026-04-04T06:35:44.281Z</time></trkpt><trkpt lat="43.1438405" lon="12.3563346"><ele>333.6666666666667</ele><time>2026-04-04T06:35:45.281Z</time></trkpt><trkpt lat="43.143998" lon="12.3562656"><ele>331.33333333333337</ele><time>2026-04-04T06:35:46.281Z</time></trkpt><trkpt lat="43.1441436" lon="12.3561841"><ele>329.0</ele><time>2026-04-04T06:35:47.281Z</time></trkpt><trkpt lat="43.1442788" lon="12.356086"><ele>329.0</ele><time>2026-04-04T06:35:48.281Z</time></trkpt><trkpt lat="43.1443927" lon="12.355959"><ele>329.0</ele><time>2026-04-04T06:35:49.281Z</time></trkpt><trkpt lat="43.1444677" lon="12.3558093"><ele>329.0</ele><time>2026-04-04T06:35:50.281Z</time></trkpt><trkpt lat="43.1444736" lon="12.3554408"><ele>328.5</ele><time>2026-04-04T06:35:51.281Z</time></trkpt><trkpt lat="43.144492" lon="12.3552616"><ele>328.0</ele><time>2026-04-04T06:35:52.281Z</time></trkpt><trkpt lat="43.1444847" lon="12.3550656"><ele>327.5</ele><time>2026-04-04T06:35:53.282Z</time></trkpt><trkpt lat="43.1444508" lon="12.3548574"><ele>327.0</ele><time>2026-04-04T06:35:54.281Z</time></trkpt><trkpt lat="43.1443981" lon="12.3546364"><ele>324.3333333333333</ele><time>2026-04-04T06:35:55.281Z</time></trkpt><trkpt lat="43.1443233" lon="12.35442"><ele>321.66666666666663</ele><time>2026-04-04T06:35:56.281Z</time></trkpt><trkpt lat="43.1442456" lon="12.3542184"><ele>319.0</ele><time>2026-04-04T06:35:57.281Z</time></trkpt><trkpt lat="43.1441965" lon="12.3540136"><ele>317.66666666666663</ele><time>2026-04-04T06:35:58.281Z</time></trkpt><trkpt lat="43.1441561" lon="12.3537881"><ele>316.3333333333333</ele><time>2026-04-04T06:35:59.281Z</time></trkpt><trkpt lat="43.1441518" lon="12.3535753"><ele>315.0</ele><time>2026-04-04T06:36:00.281Z</time></trkpt><trkpt lat="43.144189" lon="12.3533916"><ele>315.0</ele><time>2026-04-04T06:36:01.281Z</time></trkpt><trkpt lat="43.1442571" lon="12.3532173"><ele>315.0</ele><time>2026-04-04T06:36:02.282Z</time></trkpt><trkpt lat="43.1443502" lon="12.3530568"><ele>315.0</ele><time>2026-04-04T06:36:03.281Z</time></trkpt><trkpt lat="43.1444407" lon="12.352895"><ele>315.0</ele><time>2026-04-04T06:36:04.281Z</time></trkpt><trkpt lat="43.1445415" lon="12.3527318"><ele>314.6666666666667</ele><time>2026-04-04T06:36:05.282Z</time></trkpt><trkpt lat="43.1446543" lon="12.3525757"><ele>314.33333333333337</ele><time>2026-04-04T06:36:06.281Z</time></trkpt><trkpt lat="43.1447855" lon="12.3524305"><ele>314.0</ele><time>2026-04-04T06:36:07.281Z</time></trkpt><trkpt lat="43.144928" lon="12.3522863"><ele>312.6666666666667</ele><time>2026-04-04T06:36:08.281Z</time></trkpt><trkpt lat="43.1450671" lon="12.3521278"><ele>311.3333333333333</ele><time>2026-04-04T06:36:09.281Z</time></trkpt><trkpt lat="43.1452062" lon="12.3519648"><ele>310.0</ele><time>2026-04-04T06:36:10.282Z</time></trkpt><trkpt lat="43.1453523" lon="12.351806"><ele>310.0</ele><time>2026-04-04T06:36:11.281Z</time></trkpt><trkpt lat="43.14549" lon="12.3516436"><ele>310.0</ele><time>2026-04-04T06:36:12.281Z</time></trkpt><trkpt lat="43.1456191" lon="12.3514854"><ele>310.0</ele><time>2026-04-04T06:36:13.282Z</time></trkpt><trkpt lat="43.1457502" lon="12.3513329"><ele>308.66666666666663</ele><time>2026-04-04T06:36:14.281Z</time></trkpt><trkpt lat="43.145885" lon="12.3511969"><ele>307.3333333333333</ele><time>2026-04-04T06:36:15.281Z</time></trkpt><trkpt lat="43.1460199" lon="12.3510719"><ele>306.0</ele><time>2026-04-04T06:36:16.281Z</time></trkpt><trkpt lat="43.1461705" lon="12.3509685"><ele>306.0</ele><time>2026-04-04T06:36:17.281Z</time></trkpt><trkpt lat="43.146317" lon="12.3508965"><ele>306.0</ele><time>2026-04-04T06:36:18.281Z</time></trkpt><trkpt lat="43.1464707" lon="12.3508527"><ele>306.0</ele><time>2026-04-04T06:36:19.281Z</time></trkpt><trkpt lat="43.1466496" lon="12.3508422"><ele>305.0</ele><time>2026-04-04T06:36:20.281Z</time></trkpt><trkpt lat="43.1468428" lon="12.350846"><ele>304.0</ele><time>2026-04-04T06:36:21.281Z</time></trkpt><trkpt lat="43.1472444" lon="12.3508304"><ele>304.0</ele><time>2026-04-04T06:36:23.281Z</time></trkpt><trkpt lat="43.1474419" lon="12.3507956"><ele>304.0</ele><time>2026-04-04T06:36:24.282Z</time></trkpt><trkpt lat="43.1476273" lon="12.3507393"><ele>304.0</ele><time>2026-04-04T06:36:25.281Z</time></trkpt><trkpt lat="43.1478129" lon="12.3506671"><ele>304.0</ele><time>2026-04-04T06:36:26.282Z</time></trkpt><trkpt lat="43.1479945" lon="12.3505769"><ele>304.0</ele><time>2026-04-04T06:36:27.281Z</time></trkpt><trkpt lat="43.1481635" lon="12.3504755"><ele>304.0</ele><time>2026-04-04T06:36:28.281Z</time></trkpt><trkpt lat="43.14833" lon="12.3503555"><ele>303.3333333333333</ele><time>2026-04-04T06:36:29.282Z</time></trkpt><trkpt lat="43.1484828" lon="12.3502129"><ele>302.6666666666667</ele><time>2026-04-04T06:36:30.281Z</time></trkpt><trkpt lat="43.1486198" lon="12.3500227"><ele>302.0</ele><time>2026-04-04T06:36:31.281Z</time></trkpt><trkpt lat="43.1487609" lon="12.349844"><ele>301.6666666666667</ele><time>2026-04-04T06:36:32.281Z</time></trkpt><trkpt lat="43.1489093" lon="12.3496789"><ele>301.3333333333333</ele><time>2026-04-04T06:36:33.281Z</time></trkpt><trkpt lat="43.1490468" lon="12.3495045"><ele>301.0</ele><time>2026-04-04T06:36:34.281Z</time></trkpt><trkpt lat="43.1491752" lon="12.3493111"><ele>301.0</ele><time>2026-04-04T06:36:35.281Z</time></trkpt><trkpt lat="43.149297" lon="12.3491152"><ele>301.0</ele><time>2026-04-04T06:36:36.281Z</time></trkpt><trkpt lat="43.1494188" lon="12.3489148"><ele>301.0</ele><time>2026-04-04T06:36:37.281Z</time></trkpt><trkpt lat="43.1495296" lon="12.3487103"><ele>300.3333333333333</ele><time>2026-04-04T06:36:38.282Z</time></trkpt><trkpt lat="43.1496119" lon="12.3485117"><ele>299.6666666666667</ele><time>2026-04-04T06:36:39.282Z</time></trkpt><trkpt lat="43.14971" lon="12.3483316"><ele>299.0</ele><time>2026-04-04T06:36:40.282Z</time></trkpt><trkpt lat="43.1498015" lon="12.3481615"><ele>298.6666666666667</ele><time>2026-04-04T06:36:41.282Z</time></trkpt><trkpt lat="43.1498996" lon="12.3480068"><ele>298.3333333333333</ele><time>2026-04-04T06:36:42.282Z</time></trkpt><trkpt lat="43.1500226" lon="12.3478666"><ele>298.0</ele><time>2026-04-04T06:36:43.282Z</time></trkpt><trkpt lat="43.1501666" lon="12.3477357"><ele>298.0</ele><time>2026-04-04T06:36:44.282Z</time></trkpt><trkpt lat="43.1503389" lon="12.3476088"><ele>298.0</ele><time>2026-04-04T06:36:45.282Z</time></trkpt><trkpt lat="43.150522" lon="12.3474955"><ele>298.0</ele><time>2026-04-04T06:36:46.283Z</time></trkpt><trkpt lat="43.150699" lon="12.3473828"><ele>296.66666666666663</ele><time>2026-04-04T06:36:47.282Z</time></trkpt><trkpt lat="43.1508767" lon="12.3472837"><ele>295.3333333333333</ele><time>2026-04-04T06:36:48.282Z</time></trkpt><trkpt lat="43.1510704" lon="12.3471928"><ele>294.0</ele><time>2026-04-04T06:36:49.282Z</time></trkpt><trkpt lat="43.1512496" lon="12.3470793"><ele>293.6666666666667</ele><time>2026-04-04T06:36:50.282Z</time></trkpt><trkpt lat="43.1514228" lon="12.3469296"><ele>293.33333333333337</ele><time>2026-04-04T06:36:51.282Z</time></trkpt><trkpt lat="43.1515859" lon="12.3467669"><ele>293.0</ele><time>2026-04-04T06:36:52.282Z</time></trkpt><trkpt lat="43.1517366" lon="12.3466041"><ele>292.33333333333337</ele><time>2026-04-04T06:36:53.282Z</time></trkpt><trkpt lat="43.1518845" lon="12.3464313"><ele>291.6666666666667</ele><time>2026-04-04T06:36:54.282Z</time></trkpt><trkpt lat="43.1520273" lon="12.3462439"><ele>291.0</ele><time>2026-04-04T06:36:55.282Z</time></trkpt><trkpt lat="43.1521569" lon="12.3460582"><ele>290.6666666666667</ele><time>2026-04-04T06:36:56.282Z</time></trkpt><trkpt lat="43.1522752" lon="12.3458482"><ele>290.33333333333337</ele><time>2026-04-04T06:36:57.282Z</time></trkpt><trkpt lat="43.1523782" lon="12.3456315"><ele>290.0</ele><time>2026-04-04T06:36:58.282Z</time></trkpt><trkpt lat="43.15245" lon="12.3453801"><ele>290.6666666666667</ele><time>2026-04-04T06:36:59.282Z</time></trkpt><trkpt lat="43.1525023" lon="12.3451057"><ele>291.3333333333333</ele><time>2026-04-04T06:37:00.282Z</time></trkpt><trkpt lat="43.1525658" lon="12.3448354"><ele>292.0</ele><time>2026-04-04T06:37:01.282Z</time></trkpt><trkpt lat="43.1526121" lon="12.344581"><ele>292.0</ele><time>2026-04-04T06:37:02.283Z</time></trkpt><trkpt lat="43.1526554" lon="12.344353"><ele>292.0</ele><time>2026-04-04T06:37:03.282Z</time></trkpt><trkpt lat="43.1526882" lon="12.3441202"><ele>292.0</ele><time>2026-04-04T06:37:04.283Z</time></trkpt><trkpt lat="43.1527474" lon="12.3439367"><ele>291.3333333333333</ele><time>2026-04-04T06:37:05.283Z</time></trkpt><trkpt lat="43.1528448" lon="12.3437489"><ele>290.6666666666667</ele><time>2026-04-04T06:37:06.282Z</time></trkpt><trkpt lat="43.1529622" lon="12.3435696"><ele>290.0</ele><time>2026-04-04T06:37:07.282Z</time></trkpt><trkpt lat="43.1530795" lon="12.3433862"><ele>290.0</ele><time>2026-04-04T06:37:08.282Z</time></trkpt><trkpt lat="43.1532244" lon="12.3432"><ele>290.0</ele><time>2026-04-04T06:37:09.282Z</time></trkpt><trkpt lat="43.1533706" lon="12.3430003"><ele>290.0</ele><time>2026-04-04T06:37:10.283Z</time></trkpt><trkpt lat="43.1534947" lon="12.3428076"><ele>289.6666666666667</ele><time>2026-04-04T06:37:11.283Z</time></trkpt><trkpt lat="43.1536112" lon="12.3426163"><ele>289.3333333333333</ele><time>2026-04-04T06:37:12.282Z</time></trkpt><trkpt lat="43.153726" lon="12.3424379"><ele>289.0</ele><time>2026-04-04T06:37:13.282Z</time></trkpt><trkpt lat="43.1538376" lon="12.3422644"><ele>289.0</ele><time>2026-04-04T06:37:14.282Z</time></trkpt><trkpt lat="43.1539566" lon="12.3420951"><ele>289.0</ele><time>2026-04-04T06:37:15.282Z</time></trkpt><trkpt lat="43.1540872" lon="12.3419221"><ele>289.0</ele><time>2026-04-04T06:37:16.282Z</time></trkpt><trkpt lat="43.1542154" lon="12.3417434"><ele>289.0</ele><time>2026-04-04T06:37:17.282Z</time></trkpt><trkpt lat="43.1543451" lon="12.3415447"><ele>289.0</ele><time>2026-04-04T06:37:18.282Z</time></trkpt><trkpt lat="43.1544812" lon="12.3413567"><ele>289.0</ele><time>2026-04-04T06:37:19.282Z</time></trkpt><trkpt lat="43.1546163" lon="12.3411672"><ele>288.3333333333333</ele><time>2026-04-04T06:37:20.283Z</time></trkpt><trkpt lat="43.1547529" lon="12.3409881"><ele>287.6666666666667</ele><time>2026-04-04T06:37:21.283Z</time></trkpt><trkpt lat="43.1548948" lon="12.340815"><ele>287.0</ele><time>2026-04-04T06:37:22.282Z</time></trkpt><trkpt lat="43.1550373" lon="12.3406454"><ele>286.6666666666667</ele><time>2026-04-04T06:37:23.282Z</time></trkpt><trkpt lat="43.1551736" lon="12.3404578"><ele>286.3333333333333</ele><time>2026-04-04T06:37:24.282Z</time></trkpt><trkpt lat="43.1553125" lon="12.3402679"><ele>286.0</ele><time>2026-04-04T06:37:25.283Z</time></trkpt><trkpt lat="43.1554352" lon="12.3400531"><ele>286.0</ele><time>2026-04-04T06:37:26.282Z</time></trkpt><trkpt lat="43.1555486" lon="12.3398366"><ele>286.0</ele><time>2026-04-04T06:37:27.283Z</time></trkpt><trkpt lat="43.1556496" lon="12.3396147"><ele>286.0</ele><time>2026-04-04T06:37:28.282Z</time></trkpt><trkpt lat="43.1557543" lon="12.3393878"><ele>285.66666666666663</ele><time>2026-04-04T06:37:29.282Z</time></trkpt><trkpt lat="43.1558538" lon="12.3391714"><ele>285.3333333333333</ele><time>2026-04-04T06:37:30.283Z</time></trkpt><trkpt lat="43.1559571" lon="12.3389619"><ele>285.0</ele><time>2026-04-04T06:37:31.282Z</time></trkpt><trkpt lat="43.156056" lon="12.3387407"><ele>284.3333333333333</ele><time>2026-04-04T06:37:32.282Z</time></trkpt><trkpt lat="43.1561491" lon="12.3385241"><ele>283.66666666666663</ele><time>2026-04-04T06:37:33.282Z</time></trkpt><trkpt lat="43.1562391" lon="12.3383115"><ele>283.0</ele><time>2026-04-04T06:37:34.282Z</time></trkpt><trkpt lat="43.1563419" lon="12.3381001"><ele>283.0</ele><time>2026-04-04T06:37:35.284Z</time></trkpt><trkpt lat="43.1564456" lon="12.337881"><ele>283.0</ele><time>2026-04-04T06:37:36.283Z</time></trkpt><trkpt lat="43.1565487" lon="12.3376644"><ele>283.0</ele><time>2026-04-04T06:37:37.283Z</time></trkpt><trkpt lat="43.1566397" lon="12.337442"><ele>282.3333333333333</ele><time>2026-04-04T06:37:38.283Z</time></trkpt><trkpt lat="43.1567293" lon="12.3372162"><ele>281.6666666666667</ele><time>2026-04-04T06:37:39.283Z</time></trkpt><trkpt lat="43.1568156" lon="12.3369989"><ele>281.0</ele><time>2026-04-04T06:37:40.283Z</time></trkpt><trkpt lat="43.1569" lon="12.3367796"><ele>281.0</ele><time>2026-04-04T06:37:41.283Z</time></trkpt><trkpt lat="43.156989" lon="12.3365743"><ele>281.0</ele><time>2026-04-04T06:37:42.283Z</time></trkpt><trkpt lat="43.1570888" lon="12.3363722"><ele>281.0</ele><time>2026-04-04T06:37:43.283Z</time></trkpt><trkpt lat="43.1571911" lon="12.3361642"><ele>281.0</ele><time>2026-04-04T06:37:44.283Z</time></trkpt><trkpt lat="43.1572918" lon="12.3359721"><ele>281.0</ele><time>2026-04-04T06:37:45.283Z</time></trkpt><trkpt lat="43.1573813" lon="12.3357606"><ele>281.0</ele><time>2026-04-04T06:37:46.283Z</time></trkpt><trkpt lat="43.1574763" lon="12.3355476"><ele>281.0</ele><time>2026-04-04T06:37:47.283Z</time></trkpt><trkpt lat="43.1575498" lon="12.3353391"><ele>281.0</ele><time>2026-04-04T06:37:48.283Z</time></trkpt><trkpt lat="43.1576246" lon="12.3351268"><ele>281.0</ele><time>2026-04-04T06:37:49.283Z</time></trkpt><trkpt lat="43.1576744" lon="12.3349119"><ele>280.6666666666667</ele><time>2026-04-04T06:37:50.283Z</time></trkpt><trkpt lat="43.1577081" lon="12.3346976"><ele>280.3333333333333</ele><time>2026-04-04T06:37:51.284Z</time></trkpt><trkpt lat="43.1577407" lon="12.3344819"><ele>280.0</ele><time>2026-04-04T06:37:52.284Z</time></trkpt><trkpt lat="43.1578047" lon="12.3342826"><ele>280.0</ele><time>2026-04-04T06:37:53.283Z</time></trkpt><trkpt lat="43.1578817" lon="12.3340869"><ele>280.0</ele><time>2026-04-04T06:37:54.283Z</time></trkpt><trkpt lat="43.1579699" lon="12.3338922"><ele>280.0</ele><time>2026-04-04T06:37:55.283Z</time></trkpt><trkpt lat="43.1580789" lon="12.3337052"><ele>279.66666666666663</ele><time>2026-04-04T06:37:56.283Z</time></trkpt><trkpt lat="43.1581891" lon="12.3335152"><ele>279.3333333333333</ele><time>2026-04-04T06:37:57.283Z</time></trkpt><trkpt lat="43.158291" lon="12.3333203"><ele>279.0</ele><time>2026-04-04T06:37:58.283Z</time></trkpt><trkpt lat="43.1583981" lon="12.3331264"><ele>278.3333333333333</ele><time>2026-04-04T06:37:59.283Z</time></trkpt><trkpt lat="43.1585081" lon="12.3329383"><ele>277.66666666666663</ele><time>2026-04-04T06:38:00.284Z</time></trkpt><trkpt lat="43.158615" lon="12.3327466"><ele>277.0</ele><time>2026-04-04T06:38:01.283Z</time></trkpt><trkpt lat="43.1587317" lon="12.3325435"><ele>277.0</ele><time>2026-04-04T06:38:02.283Z</time></trkpt><trkpt lat="43.1588511" lon="12.3323392"><ele>277.0</ele><time>2026-04-04T06:38:03.283Z</time></trkpt><trkpt lat="43.1589711" lon="12.3321425"><ele>277.0</ele><time>2026-04-04T06:38:04.283Z</time></trkpt><trkpt lat="43.1590962" lon="12.331948"><ele>276.66666666666663</ele><time>2026-04-04T06:38:05.283Z</time></trkpt><trkpt lat="43.1592167" lon="12.3317582"><ele>276.3333333333333</ele><time>2026-04-04T06:38:06.283Z</time></trkpt><trkpt lat="43.159342" lon="12.3315675"><ele>276.0</ele><time>2026-04-04T06:38:07.283Z</time></trkpt><trkpt lat="43.1594711" lon="12.3313832"><ele>275.6666666666667</ele><time>2026-04-04T06:38:08.283Z</time></trkpt><trkpt lat="43.1595953" lon="12.3312061"><ele>275.33333333333337</ele><time>2026-04-04T06:38:09.283Z</time></trkpt><trkpt lat="43.1597243" lon="12.3310196"><ele>275.0</ele><time>2026-04-04T06:38:10.283Z</time></trkpt><trkpt lat="43.1598568" lon="12.3308341"><ele>275.6666666666667</ele><time>2026-04-04T06:38:11.283Z</time></trkpt><trkpt lat="43.1599829" lon="12.3306537"><ele>276.3333333333333</ele><time>2026-04-04T06:38:12.284Z</time></trkpt><trkpt lat="43.1601226" lon="12.3304653"><ele>277.0</ele><time>2026-04-04T06:38:13.283Z</time></trkpt><trkpt lat="43.1602523" lon="12.3302855"><ele>275.66666666666663</ele><time>2026-04-04T06:38:14.283Z</time></trkpt><trkpt lat="43.1603794" lon="12.330101"><ele>274.3333333333333</ele><time>2026-04-04T06:38:15.283Z</time></trkpt><trkpt lat="43.160507" lon="12.3299188"><ele>273.0</ele><time>2026-04-04T06:38:16.283Z</time></trkpt><trkpt lat="43.1606367" lon="12.3297488"><ele>272.6666666666667</ele><time>2026-04-04T06:38:17.283Z</time></trkpt><trkpt lat="43.1607707" lon="12.3295962"><ele>272.33333333333337</ele><time>2026-04-04T06:38:18.283Z</time></trkpt><trkpt lat="43.1609058" lon="12.329467"><ele>272.0</ele><time>2026-04-04T06:38:19.283Z</time></trkpt><trkpt lat="43.1610509" lon="12.3293509"><ele>272.0</ele><time>2026-04-04T06:38:20.284Z</time></trkpt><trkpt lat="43.1611948" lon="12.3292718"><ele>272.0</ele><time>2026-04-04T06:38:21.283Z</time></trkpt><trkpt lat="43.161351" lon="12.3292171"><ele>272.0</ele><time>2026-04-04T06:38:22.283Z</time></trkpt><trkpt lat="43.1615255" lon="12.3291833"><ele>273.33333333333337</ele><time>2026-04-04T06:38:23.283Z</time></trkpt><trkpt lat="43.1617113" lon="12.3291531"><ele>274.6666666666667</ele><time>2026-04-04T06:38:24.283Z</time></trkpt><trkpt lat="43.1618861" lon="12.3291517"><ele>276.0</ele><time>2026-04-04T06:38:25.283Z</time></trkpt><trkpt lat="43.1620735" lon="12.3291557"><ele>276.0</ele><time>2026-04-04T06:38:26.283Z</time></trkpt><trkpt lat="43.1622594" lon="12.329175"><ele>276.0</ele><time>2026-04-04T06:38:27.283Z</time></trkpt><trkpt lat="43.1624478" lon="12.3291988"><ele>276.0</ele><time>2026-04-04T06:38:28.283Z</time></trkpt><trkpt lat="43.1626296" lon="12.3291842"><ele>274.6666666666667</ele><time>2026-04-04T06:38:29.283Z</time></trkpt><trkpt lat="43.1628038" lon="12.3291207"><ele>273.33333333333337</ele><time>2026-04-04T06:38:30.283Z</time></trkpt><trkpt lat="43.1629918" lon="12.3290339"><ele>272.0</ele><time>2026-04-04T06:38:31.284Z</time></trkpt><trkpt lat="43.1631763" lon="12.3289476"><ele>272.0</ele><time>2026-04-04T06:38:32.283Z</time></trkpt><trkpt lat="43.1633539" lon="12.3289127"><ele>272.0</ele><time>2026-04-04T06:38:33.284Z</time></trkpt><trkpt lat="43.163537" lon="12.3289157"><ele>272.0</ele><time>2026-04-04T06:38:34.284Z</time></trkpt><trkpt lat="43.1637273" lon="12.3289239"><ele>272.0</ele><time>2026-04-04T06:38:35.284Z</time></trkpt><trkpt lat="43.1639169" lon="12.3289329"><ele>272.0</ele><time>2026-04-04T06:38:36.284Z</time></trkpt><trkpt lat="43.1640981" lon="12.3289368"><ele>272.0</ele><time>2026-04-04T06:38:37.285Z</time></trkpt><trkpt lat="43.1642706" lon="12.3289248"><ele>274.0</ele><time>2026-04-04T06:38:38.285Z</time></trkpt><trkpt lat="43.1644321" lon="12.3288969"><ele>276.0</ele><time>2026-04-04T06:38:39.284Z</time></trkpt><trkpt lat="43.1646" lon="12.3288643"><ele>278.0</ele><time>2026-04-04T06:38:40.284Z</time></trkpt><trkpt lat="43.1647692" lon="12.3288127"><ele>280.6666666666667</ele><time>2026-04-04T06:38:41.284Z</time></trkpt><trkpt lat="43.1649494" lon="12.3287571"><ele>283.3333333333333</ele><time>2026-04-04T06:38:42.284Z</time></trkpt><trkpt lat="43.1651175" lon="12.3286835"><ele>286.0</ele><time>2026-04-04T06:38:43.284Z</time></trkpt><trkpt lat="43.1652707" lon="12.3286063"><ele>286.0</ele><time>2026-04-04T06:38:44.284Z</time></trkpt><trkpt lat="43.1654213" lon="12.3285258"><ele>286.0</ele><time>2026-04-04T06:38:45.285Z</time></trkpt><trkpt lat="43.1655603" lon="12.3284379"><ele>286.0</ele><time>2026-04-04T06:38:46.284Z</time></trkpt><trkpt lat="43.1657016" lon="12.3283323"><ele>286.3333333333333</ele><time>2026-04-04T06:38:47.284Z</time></trkpt><trkpt lat="43.1658416" lon="12.3282214"><ele>286.6666666666667</ele><time>2026-04-04T06:38:48.284Z</time></trkpt><trkpt lat="43.1659711" lon="12.3280829"><ele>287.0</ele><time>2026-04-04T06:38:49.284Z</time></trkpt><trkpt lat="43.166087" lon="12.3279328"><ele>287.6666666666667</ele><time>2026-04-04T06:38:50.284Z</time></trkpt><trkpt lat="43.1662101" lon="12.3277602"><ele>288.3333333333333</ele><time>2026-04-04T06:38:51.284Z</time></trkpt><trkpt lat="43.1663273" lon="12.3275768"><ele>289.0</ele><time>2026-04-04T06:38:52.284Z</time></trkpt><trkpt lat="43.1664369" lon="12.3273721"><ele>286.3333333333333</ele><time>2026-04-04T06:38:53.284Z</time></trkpt><trkpt lat="43.1665807" lon="12.3271897"><ele>283.6666666666667</ele><time>2026-04-04T06:38:54.284Z</time></trkpt><trkpt lat="43.1667112" lon="12.3270114"><ele>281.0</ele><time>2026-04-04T06:38:55.285Z</time></trkpt><trkpt lat="43.1668263" lon="12.3268323"><ele>281.0</ele><time>2026-04-04T06:38:56.284Z</time></trkpt><trkpt lat="43.1669233" lon="12.3266656"><ele>281.0</ele><time>2026-04-04T06:38:57.284Z</time></trkpt><trkpt lat="43.1669985" lon="12.3264897"><ele>281.0</ele><time>2026-04-04T06:38:58.284Z</time></trkpt><trkpt lat="43.1670575" lon="12.3262978"><ele>281.0</ele><time>2026-04-04T06:38:59.284Z</time></trkpt><trkpt lat="43.1670912" lon="12.326042"><ele>281.0</ele><time>2026-04-04T06:39:00.284Z</time></trkpt><trkpt lat="43.1671209" lon="12.3257827"><ele>281.0</ele><time>2026-04-04T06:39:01.284Z</time></trkpt><trkpt lat="43.1671583" lon="12.3255124"><ele>281.0</ele><time>2026-04-04T06:39:02.285Z</time></trkpt><trkpt lat="43.1671925" lon="12.3252409"><ele>281.0</ele><time>2026-04-04T06:39:03.284Z</time></trkpt><trkpt lat="43.1672284" lon="12.3249819"><ele>281.0</ele><time>2026-04-04T06:39:04.284Z</time></trkpt><trkpt lat="43.1672673" lon="12.3247175"><ele>280.33333333333337</ele><time>2026-04-04T06:39:05.285Z</time></trkpt><trkpt lat="43.1672929" lon="12.3244552"><ele>279.6666666666667</ele><time>2026-04-04T06:39:06.285Z</time></trkpt><trkpt lat="43.1673323" lon="12.3242062"><ele>279.0</ele><time>2026-04-04T06:39:07.284Z</time></trkpt><trkpt lat="43.1673867" lon="12.3239602"><ele>277.0</ele><time>2026-04-04T06:39:08.285Z</time></trkpt><trkpt lat="43.1674624" lon="12.3237234"><ele>275.0</ele><time>2026-04-04T06:39:09.284Z</time></trkpt><trkpt lat="43.1675656" lon="12.3235049"><ele>273.0</ele><time>2026-04-04T06:39:10.285Z</time></trkpt><trkpt lat="43.1676877" lon="12.3232974"><ele>273.0</ele><time>2026-04-04T06:39:11.284Z</time></trkpt><trkpt lat="43.167828" lon="12.3230815"><ele>273.0</ele><time>2026-04-04T06:39:12.284Z</time></trkpt><trkpt lat="43.1679693" lon="12.3228719"><ele>273.0</ele><time>2026-04-04T06:39:13.284Z</time></trkpt><trkpt lat="43.1681044" lon="12.3226504"><ele>272.3333333333333</ele><time>2026-04-04T06:39:14.284Z</time></trkpt><trkpt lat="43.1682336" lon="12.3224301"><ele>271.66666666666663</ele><time>2026-04-04T06:39:15.284Z</time></trkpt><trkpt lat="43.1683458" lon="12.3222051"><ele>271.0</ele><time>2026-04-04T06:39:16.284Z</time></trkpt><trkpt lat="43.1684701" lon="12.3219784"><ele>271.0</ele><time>2026-04-04T06:39:17.284Z</time></trkpt><trkpt lat="43.1686017" lon="12.3217469"><ele>271.0</ele><time>2026-04-04T06:39:18.284Z</time></trkpt><trkpt lat="43.1687453" lon="12.3215268"><ele>271.0</ele><time>2026-04-04T06:39:19.285Z</time></trkpt><trkpt lat="43.1688944" lon="12.3213241"><ele>269.3333333333333</ele><time>2026-04-04T06:39:20.284Z</time></trkpt><trkpt lat="43.169054" lon="12.3211351"><ele>267.6666666666667</ele><time>2026-04-04T06:39:21.284Z</time></trkpt><trkpt lat="43.1692294" lon="12.32096"><ele>266.0</ele><time>2026-04-04T06:39:22.284Z</time></trkpt><trkpt lat="43.1694025" lon="12.3207924"><ele>266.0</ele><time>2026-04-04T06:39:23.285Z</time></trkpt><trkpt lat="43.1695766" lon="12.3206218"><ele>266.0</ele><time>2026-04-04T06:39:24.284Z</time></trkpt><trkpt lat="43.1697416" lon="12.320452"><ele>266.0</ele><time>2026-04-04T06:39:25.284Z</time></trkpt><trkpt lat="43.1699031" lon="12.3202896"><ele>266.33333333333337</ele><time>2026-04-04T06:39:26.284Z</time></trkpt><trkpt lat="43.1700649" lon="12.3201259"><ele>266.6666666666667</ele><time>2026-04-04T06:39:27.284Z</time></trkpt><trkpt lat="43.1702249" lon="12.3199628"><ele>267.0</ele><time>2026-04-04T06:39:28.285Z</time></trkpt><trkpt lat="43.1703869" lon="12.3198002"><ele>266.3333333333333</ele><time>2026-04-04T06:39:29.285Z</time></trkpt><trkpt lat="43.1705531" lon="12.3196442"><ele>265.66666666666663</ele><time>2026-04-04T06:39:30.285Z</time></trkpt><trkpt lat="43.1707213" lon="12.3194743"><ele>265.0</ele><time>2026-04-04T06:39:31.285Z</time></trkpt><trkpt lat="43.170891" lon="12.3193053"><ele>265.0</ele><time>2026-04-04T06:39:32.286Z</time></trkpt><trkpt lat="43.1710461" lon="12.3191391"><ele>265.0</ele><time>2026-04-04T06:39:33.285Z</time></trkpt><trkpt lat="43.1712091" lon="12.3189936"><ele>265.0</ele><time>2026-04-04T06:39:34.286Z</time></trkpt><trkpt lat="43.171367" lon="12.3188545"><ele>265.0</ele><time>2026-04-04T06:39:35.285Z</time></trkpt><trkpt lat="43.1715085" lon="12.3187181"><ele>265.0</ele><time>2026-04-04T06:39:36.285Z</time></trkpt><trkpt lat="43.1716434" lon="12.3185806"><ele>265.0</ele><time>2026-04-04T06:39:37.285Z</time></trkpt><trkpt lat="43.1717663" lon="12.3184482"><ele>265.5</ele><time>2026-04-04T06:39:38.285Z</time></trkpt><trkpt lat="43.1718815" lon="12.3183204"><ele>266.0</ele><time>2026-04-04T06:39:39.285Z</time></trkpt><trkpt lat="43.1719904" lon="12.3182044"><ele>266.5</ele><time>2026-04-04T06:39:40.285Z</time></trkpt><trkpt lat="43.1720908" lon="12.3180916"><ele>267.0</ele><time>2026-04-04T06:39:41.285Z</time></trkpt><trkpt lat="43.1721896" lon="12.3179924"><ele>267.0</ele><time>2026-04-04T06:39:42.285Z</time></trkpt><trkpt lat="43.1722938" lon="12.3178859"><ele>267.0</ele><time>2026-04-04T06:39:43.285Z</time></trkpt><trkpt lat="43.1723915" lon="12.3177837"><ele>267.0</ele><time>2026-04-04T06:39:44.285Z</time></trkpt><trkpt lat="43.1724877" lon="12.3176933"><ele>267.0</ele><time>2026-04-04T06:39:45.285Z</time></trkpt><trkpt lat="43.172592" lon="12.3176034"><ele>267.0</ele><time>2026-04-04T06:39:46.285Z</time></trkpt><trkpt lat="43.1726909" lon="12.3175067"><ele>267.0</ele><time>2026-04-04T06:39:47.285Z</time></trkpt><trkpt lat="43.1727844" lon="12.317409"><ele>267.0</ele><time>2026-04-04T06:39:48.285Z</time></trkpt><trkpt lat="43.1728679" lon="12.3173239"><ele>267.0</ele><time>2026-04-04T06:39:49.285Z</time></trkpt><trkpt lat="43.17295" lon="12.3172656"><ele>267.0</ele><time>2026-04-04T06:39:50.285Z</time></trkpt><trkpt lat="43.173036" lon="12.3172395"><ele>267.0</ele><time>2026-04-04T06:39:51.285Z</time></trkpt><trkpt lat="43.1731286" lon="12.3172534"><ele>267.0</ele><time>2026-04-04T06:39:52.285Z</time></trkpt><trkpt lat="43.1732271" lon="12.3172898"><ele>267.0</ele><time>2026-04-04T06:39:53.285Z</time></trkpt><trkpt lat="43.1733434" lon="12.3173173"><ele>267.0</ele><time>2026-04-04T06:39:54.285Z</time></trkpt><trkpt lat="43.1734808" lon="12.317359"><ele>267.25</ele><time>2026-04-04T06:39:55.285Z</time></trkpt><trkpt lat="43.1736237" lon="12.3174169"><ele>267.5</ele><time>2026-04-04T06:39:56.285Z</time></trkpt><trkpt lat="43.1737726" lon="12.317457"><ele>267.75</ele><time>2026-04-04T06:39:57.285Z</time></trkpt><trkpt lat="43.1739147" lon="12.3174985"><ele>268.0</ele><time>2026-04-04T06:39:58.285Z</time></trkpt><trkpt lat="43.1740659" lon="12.3175603"><ele>268.0</ele><time>2026-04-04T06:39:59.285Z</time></trkpt><trkpt lat="43.1742332" lon="12.3176277"><ele>268.0</ele><time>2026-04-04T06:40:00.285Z</time></trkpt><trkpt lat="43.1744108" lon="12.317698"><ele>268.0</ele><time>2026-04-04T06:40:01.285Z</time></trkpt><trkpt lat="43.1745808" lon="12.3177578"><ele>268.0</ele><time>2026-04-04T06:40:02.285Z</time></trkpt><trkpt lat="43.1747459" lon="12.3178255"><ele>268.0</ele><time>2026-04-04T06:40:03.285Z</time></trkpt><trkpt lat="43.1749152" lon="12.3178891"><ele>268.0</ele><time>2026-04-04T06:40:04.286Z</time></trkpt><trkpt lat="43.1750856" lon="12.3179569"><ele>268.0</ele><time>2026-04-04T06:40:05.285Z</time></trkpt><trkpt lat="43.1752525" lon="12.318024"><ele>268.0</ele><time>2026-04-04T06:40:06.285Z</time></trkpt><trkpt lat="43.1754289" lon="12.318084"><ele>268.0</ele><time>2026-04-04T06:40:07.285Z</time></trkpt><trkpt lat="43.1756101" lon="12.3181455"><ele>269.0</ele><time>2026-04-04T06:40:08.285Z</time></trkpt><trkpt lat="43.1757934" lon="12.3181929"><ele>270.0</ele><time>2026-04-04T06:40:09.286Z</time></trkpt><trkpt lat="43.1759769" lon="12.3182312"><ele>271.0</ele><time>2026-04-04T06:40:10.286Z</time></trkpt><trkpt lat="43.1761625" lon="12.3182584"><ele>271.0</ele><time>2026-04-04T06:40:11.285Z</time></trkpt><trkpt lat="43.1763444" lon="12.3182878"><ele>271.0</ele><time>2026-04-04T06:40:12.285Z</time></trkpt><trkpt lat="43.1765263" lon="12.3183182"><ele>271.0</ele><time>2026-04-04T06:40:13.285Z</time></trkpt><trkpt lat="43.1767106" lon="12.3183559"><ele>270.66666666666663</ele><time>2026-04-04T06:40:14.286Z</time></trkpt><trkpt lat="43.1768921" lon="12.318393"><ele>270.3333333333333</ele><time>2026-04-04T06:40:15.285Z</time></trkpt><trkpt lat="43.1770822" lon="12.3184529"><ele>270.0</ele><time>2026-04-04T06:40:16.285Z</time></trkpt><trkpt lat="43.1772633" lon="12.3185244"><ele>270.0</ele><time>2026-04-04T06:40:17.285Z</time></trkpt><trkpt lat="43.177443" lon="12.3186102"><ele>270.0</ele><time>2026-04-04T06:40:18.285Z</time></trkpt><trkpt lat="43.1776209" lon="12.3187157"><ele>270.0</ele><time>2026-04-04T06:40:19.285Z</time></trkpt><trkpt lat="43.1777927" lon="12.318809"><ele>270.0</ele><time>2026-04-04T06:40:20.285Z</time></trkpt><trkpt lat="43.1779564" lon="12.3188986"><ele>270.0</ele><time>2026-04-04T06:40:21.285Z</time></trkpt><trkpt lat="43.1781042" lon="12.3189785"><ele>270.0</ele><time>2026-04-04T06:40:22.286Z</time></trkpt><trkpt lat="43.1782733" lon="12.3190393"><ele>271.6666666666667</ele><time>2026-04-04T06:40:23.285Z</time></trkpt><trkpt lat="43.1784506" lon="12.3190868"><ele>273.33333333333337</ele><time>2026-04-04T06:40:24.285Z</time></trkpt><trkpt lat="43.1786383" lon="12.3191076"><ele>275.0</ele><time>2026-04-04T06:40:25.287Z</time></trkpt><trkpt lat="43.1788228" lon="12.3191086"><ele>275.0</ele><time>2026-04-04T06:40:26.286Z</time></trkpt><trkpt lat="43.179003" lon="12.3190909"><ele>275.0</ele><time>2026-04-04T06:40:27.287Z</time></trkpt><trkpt lat="43.1791812" lon="12.3190562"><ele>275.0</ele><time>2026-04-04T06:40:28.287Z</time></trkpt><trkpt lat="43.1793566" lon="12.3190034"><ele>274.6666666666667</ele><time>2026-04-04T06:40:29.286Z</time></trkpt><trkpt lat="43.1795354" lon="12.3189091"><ele>274.3333333333333</ele><time>2026-04-04T06:40:30.286Z</time></trkpt><trkpt lat="43.1797183" lon="12.3187997"><ele>274.0</ele><time>2026-04-04T06:40:31.287Z</time></trkpt><trkpt lat="43.1798986" lon="12.3186921"><ele>273.3333333333333</ele><time>2026-04-04T06:40:32.286Z</time></trkpt><trkpt lat="43.1800758" lon="12.3185871"><ele>272.6666666666667</ele><time>2026-04-04T06:40:33.286Z</time></trkpt><trkpt lat="43.1802618" lon="12.3185074"><ele>272.0</ele><time>2026-04-04T06:40:34.286Z</time></trkpt><trkpt lat="43.1804579" lon="12.3184436"><ele>272.0</ele><time>2026-04-04T06:40:35.286Z</time></trkpt><trkpt lat="43.18066" lon="12.3183964"><ele>272.0</ele><time>2026-04-04T06:40:36.286Z</time></trkpt><trkpt lat="43.1808645" lon="12.318337"><ele>272.0</ele><time>2026-04-04T06:40:37.286Z</time></trkpt><trkpt lat="43.1810718" lon="12.3182836"><ele>273.0</ele><time>2026-04-04T06:40:38.286Z</time></trkpt><trkpt lat="43.181269" lon="12.3182176"><ele>274.0</ele><time>2026-04-04T06:40:39.286Z</time></trkpt><trkpt lat="43.181461" lon="12.3181468"><ele>275.0</ele><time>2026-04-04T06:40:40.287Z</time></trkpt><trkpt lat="43.1816519" lon="12.3180833"><ele>275.33333333333337</ele><time>2026-04-04T06:40:41.286Z</time></trkpt><trkpt lat="43.1818468" lon="12.3180262"><ele>275.6666666666667</ele><time>2026-04-04T06:40:42.286Z</time></trkpt><trkpt lat="43.1820302" lon="12.3179555"><ele>276.0</ele><time>2026-04-04T06:40:43.286Z</time></trkpt><trkpt lat="43.1821926" lon="12.3178762"><ele>276.3333333333333</ele><time>2026-04-04T06:40:44.286Z</time></trkpt><trkpt lat="43.182354" lon="12.317787"><ele>276.66666666666663</ele><time>2026-04-04T06:40:45.286Z</time></trkpt><trkpt lat="43.1825149" lon="12.3176979"><ele>277.0</ele><time>2026-04-04T06:40:46.287Z</time></trkpt><trkpt lat="43.1826727" lon="12.3176052"><ele>277.0</ele><time>2026-04-04T06:40:47.286Z</time></trkpt><trkpt lat="43.1828314" lon="12.3175114"><ele>277.0</ele><time>2026-04-04T06:40:48.286Z</time></trkpt><trkpt lat="43.1829949" lon="12.3174398"><ele>277.0</ele><time>2026-04-04T06:40:49.286Z</time></trkpt><trkpt lat="43.1831834" lon="12.3173776"><ele>277.0</ele><time>2026-04-04T06:40:50.287Z</time></trkpt><trkpt lat="43.1833694" lon="12.3173148"><ele>277.0</ele><time>2026-04-04T06:40:51.287Z</time></trkpt><trkpt lat="43.1835622" lon="12.3172571"><ele>277.0</ele><time>2026-04-04T06:40:52.286Z</time></trkpt><trkpt lat="43.1837541" lon="12.3171958"><ele>278.0</ele><time>2026-04-04T06:40:53.286Z</time></trkpt><trkpt lat="43.1839494" lon="12.3171391"><ele>279.0</ele><time>2026-04-04T06:40:54.286Z</time></trkpt><trkpt lat="43.1841452" lon="12.3170961"><ele>280.0</ele><time>2026-04-04T06:40:55.286Z</time></trkpt><trkpt lat="43.1843438" lon="12.3170816"><ele>281.0</ele><time>2026-04-04T06:40:56.286Z</time></trkpt><trkpt lat="43.1845571" lon="12.3170886"><ele>282.0</ele><time>2026-04-04T06:40:57.287Z</time></trkpt><trkpt lat="43.1847589" lon="12.3171261"><ele>283.0</ele><time>2026-04-04T06:40:58.286Z</time></trkpt><trkpt lat="43.1849538" lon="12.3171865"><ele>282.0</ele><time>2026-04-04T06:40:59.286Z</time></trkpt><trkpt lat="43.1851553" lon="12.3172632"><ele>281.0</ele><time>2026-04-04T06:41:00.286Z</time></trkpt><trkpt lat="43.1853402" lon="12.3173358"><ele>280.0</ele><time>2026-04-04T06:41:01.286Z</time></trkpt><trkpt lat="43.185534" lon="12.317422"><ele>280.0</ele><time>2026-04-04T06:41:02.287Z</time></trkpt><trkpt lat="43.1857233" lon="12.3175102"><ele>280.0</ele><time>2026-04-04T06:41:03.286Z</time></trkpt><trkpt lat="43.1859128" lon="12.3176022"><ele>280.0</ele><time>2026-04-04T06:41:04.287Z</time></trkpt><trkpt lat="43.1861046" lon="12.3176943"><ele>280.0</ele><time>2026-04-04T06:41:05.286Z</time></trkpt><trkpt lat="43.1862972" lon="12.3177813"><ele>280.0</ele><time>2026-04-04T06:41:06.286Z</time></trkpt><trkpt lat="43.1864888" lon="12.3178664"><ele>280.0</ele><time>2026-04-04T06:41:07.287Z</time></trkpt><trkpt lat="43.186673" lon="12.3179544"><ele>280.3333333333333</ele><time>2026-04-04T06:41:08.287Z</time></trkpt><trkpt lat="43.1868549" lon="12.3180377"><ele>280.6666666666667</ele><time>2026-04-04T06:41:09.286Z</time></trkpt><trkpt lat="43.1870395" lon="12.3181182"><ele>281.0</ele><time>2026-04-04T06:41:10.286Z</time></trkpt><trkpt lat="43.1872194" lon="12.3182046"><ele>281.6666666666667</ele><time>2026-04-04T06:41:11.287Z</time></trkpt><trkpt lat="43.1874009" lon="12.3182818"><ele>282.3333333333333</ele><time>2026-04-04T06:41:12.286Z</time></trkpt><trkpt lat="43.1875801" lon="12.318366"><ele>283.0</ele><time>2026-04-04T06:41:13.286Z</time></trkpt><trkpt lat="43.1877527" lon="12.3184469"><ele>283.0</ele><time>2026-04-04T06:41:14.286Z</time></trkpt><trkpt lat="43.1879144" lon="12.3185196"><ele>283.0</ele><time>2026-04-04T06:41:15.286Z</time></trkpt><trkpt lat="43.1880646" lon="12.3185747"><ele>283.0</ele><time>2026-04-04T06:41:16.286Z</time></trkpt><trkpt lat="43.1882026" lon="12.3186376"><ele>283.0</ele><time>2026-04-04T06:41:17.288Z</time></trkpt><trkpt lat="43.1883317" lon="12.3186961"><ele>283.0</ele><time>2026-04-04T06:41:18.286Z</time></trkpt><trkpt lat="43.1884447" lon="12.3187542"><ele>283.0</ele><time>2026-04-04T06:41:19.286Z</time></trkpt><trkpt lat="43.1885601" lon="12.3188235"><ele>283.0</ele><time>2026-04-04T06:41:20.287Z</time></trkpt><trkpt lat="43.1886697" lon="12.3188903"><ele>283.2</ele><time>2026-04-04T06:41:21.287Z</time></trkpt><trkpt lat="43.1887368" lon="12.3189893"><ele>283.4</ele><time>2026-04-04T06:41:22.287Z</time></trkpt><trkpt lat="43.1887632" lon="12.3190982"><ele>283.59999999999997</ele><time>2026-04-04T06:41:23.288Z</time></trkpt><trkpt lat="43.1887948" lon="12.3192341"><ele>283.8</ele><time>2026-04-04T06:41:24.287Z</time></trkpt><trkpt lat="43.1888028" lon="12.3193627"><ele>284.0</ele><time>2026-04-04T06:41:25.287Z</time></trkpt><trkpt lat="43.1888469" lon="12.3194775"><ele>284.0</ele><time>2026-04-04T06:41:26.287Z</time></trkpt><trkpt lat="43.1889292" lon="12.31961"><ele>284.0</ele><time>2026-04-04T06:41:28.287Z</time></trkpt><trkpt lat="43.1890317" lon="12.3196701"><ele>284.0</ele><time>2026-04-04T06:41:29.287Z</time></trkpt><trkpt lat="43.189137" lon="12.3197199"><ele>284.0</ele><time>2026-04-04T06:41:30.287Z</time></trkpt><trkpt lat="43.1892596" lon="12.3197766"><ele>285.0</ele><time>2026-04-04T06:41:31.287Z</time></trkpt><trkpt lat="43.189388" lon="12.3198499"><ele>286.0</ele><time>2026-04-04T06:41:32.287Z</time></trkpt><trkpt lat="43.1895075" lon="12.3199142"><ele>287.0</ele><time>2026-04-04T06:41:33.287Z</time></trkpt><trkpt lat="43.1896336" lon="12.3199866"><ele>288.0</ele><time>2026-04-04T06:41:34.288Z</time></trkpt><trkpt lat="43.189771" lon="12.3200697"><ele>287.6666666666667</ele><time>2026-04-04T06:41:35.287Z</time></trkpt><trkpt lat="43.1899084" lon="12.3201549"><ele>287.33333333333337</ele><time>2026-04-04T06:41:36.287Z</time></trkpt><trkpt lat="43.1900418" lon="12.3202451"><ele>287.0</ele><time>2026-04-04T06:41:37.287Z</time></trkpt><trkpt lat="43.1901859" lon="12.3203266"><ele>287.0</ele><time>2026-04-04T06:41:38.287Z</time></trkpt><trkpt lat="43.1903392" lon="12.3204078"><ele>287.0</ele><time>2026-04-04T06:41:39.288Z</time></trkpt><trkpt lat="43.1904794" lon="12.3204875"><ele>287.0</ele><time>2026-04-04T06:41:40.287Z</time></trkpt><trkpt lat="43.1906198" lon="12.3205614"><ele>288.6666666666667</ele><time>2026-04-04T06:41:41.287Z</time></trkpt><trkpt lat="43.1907651" lon="12.320619"><ele>290.3333333333333</ele><time>2026-04-04T06:41:42.287Z</time></trkpt><trkpt lat="43.1909166" lon="12.3206622"><ele>292.0</ele><time>2026-04-04T06:41:43.287Z</time></trkpt><trkpt lat="43.1910799" lon="12.3206874"><ele>292.0</ele><time>2026-04-04T06:41:44.287Z</time></trkpt><trkpt lat="43.1912503" lon="12.3206899"><ele>292.0</ele><time>2026-04-04T06:41:45.287Z</time></trkpt><trkpt lat="43.1914173" lon="12.3206731"><ele>292.0</ele><time>2026-04-04T06:41:46.287Z</time></trkpt><trkpt lat="43.1915863" lon="12.3206566"><ele>291.5</ele><time>2026-04-04T06:41:47.287Z</time></trkpt><trkpt lat="43.1917351" lon="12.3206329"><ele>291.0</ele><time>2026-04-04T06:41:48.287Z</time></trkpt><trkpt lat="43.1918745" lon="12.3206161"><ele>290.5</ele><time>2026-04-04T06:41:49.287Z</time></trkpt><trkpt lat="43.1920118" lon="12.3206086"><ele>290.0</ele><time>2026-04-04T06:41:50.287Z</time></trkpt><trkpt lat="43.1921356" lon="12.3206011"><ele>290.0</ele><time>2026-04-04T06:41:51.287Z</time></trkpt><trkpt lat="43.1922462" lon="12.3205976"><ele>290.0</ele><time>2026-04-04T06:41:52.287Z</time></trkpt><trkpt lat="43.1923486" lon="12.3205948"><ele>290.0</ele><time>2026-04-04T06:41:53.287Z</time></trkpt><trkpt lat="43.1924516" lon="12.3205899"><ele>290.0</ele><time>2026-04-04T06:41:54.288Z</time></trkpt><trkpt lat="43.1925493" lon="12.3205765"><ele>290.0</ele><time>2026-04-04T06:41:55.288Z</time></trkpt><trkpt lat="43.1926432" lon="12.3205643"><ele>289.83333333333337</ele><time>2026-04-04T06:41:56.287Z</time></trkpt><trkpt lat="43.1927302" lon="12.3205538"><ele>289.6666666666667</ele><time>2026-04-04T06:41:57.287Z</time></trkpt><trkpt lat="43.1928112" lon="12.3205299"><ele>289.5</ele><time>2026-04-04T06:41:58.287Z</time></trkpt><trkpt lat="43.1928789" lon="12.3204834"><ele>289.3333333333333</ele><time>2026-04-04T06:41:59.287Z</time></trkpt><trkpt lat="43.1929255" lon="12.3204168"><ele>289.16666666666663</ele><time>2026-04-04T06:42:00.287Z</time></trkpt><trkpt lat="43.1929374" lon="12.3202673"><ele>289.0</ele><time>2026-04-04T06:42:02.288Z</time></trkpt><trkpt lat="43.1928648" lon="12.3201559"><ele>289.0</ele><time>2026-04-04T06:42:04.287Z</time></trkpt><trkpt lat="43.1927958" lon="12.3200998"><ele>289.0</ele><time>2026-04-04T06:42:05.287Z</time></trkpt><trkpt lat="43.1927093" lon="12.3200509"><ele>289.0</ele><time>2026-04-04T06:42:06.288Z</time></trkpt><trkpt lat="43.1926064" lon="12.3200044"><ele>289.0</ele><time>2026-04-04T06:42:07.287Z</time></trkpt><trkpt lat="43.1925005" lon="12.3199535"><ele>289.0</ele><time>2026-04-04T06:42:08.287Z</time></trkpt><trkpt lat="43.1923928" lon="12.3198972"><ele>288.75</ele><time>2026-04-04T06:42:09.288Z</time></trkpt><trkpt lat="43.1922724" lon="12.3198289"><ele>288.5</ele><time>2026-04-04T06:42:10.288Z</time></trkpt><trkpt lat="43.1921486" lon="12.3197593"><ele>288.25</ele><time>2026-04-04T06:42:11.288Z</time></trkpt><trkpt lat="43.1920105" lon="12.3196827"><ele>288.0</ele><time>2026-04-04T06:42:12.288Z</time></trkpt><trkpt lat="43.1918796" lon="12.3196097"><ele>288.0</ele><time>2026-04-04T06:42:13.288Z</time></trkpt><trkpt lat="43.1917251" lon="12.319525"><ele>288.0</ele><time>2026-04-04T06:42:14.287Z</time></trkpt><trkpt lat="43.1915754" lon="12.3194477"><ele>288.0</ele><time>2026-04-04T06:42:15.288Z</time></trkpt><trkpt lat="43.1914178" lon="12.3193663"><ele>288.0</ele><time>2026-04-04T06:42:16.288Z</time></trkpt><trkpt lat="43.1912561" lon="12.3192875"><ele>288.0</ele><time>2026-04-04T06:42:17.288Z</time></trkpt><trkpt lat="43.1910912" lon="12.3191986"><ele>288.0</ele><time>2026-04-04T06:42:18.288Z</time></trkpt><trkpt lat="43.1909196" lon="12.3191057"><ele>288.0</ele><time>2026-04-04T06:42:19.288Z</time></trkpt><trkpt lat="43.1907421" lon="12.3190133"><ele>288.0</ele><time>2026-04-04T06:42:20.288Z</time></trkpt><trkpt lat="43.1905638" lon="12.3189216"><ele>288.0</ele><time>2026-04-04T06:42:21.288Z</time></trkpt><trkpt lat="43.1903897" lon="12.3188292"><ele>287.0</ele><time>2026-04-04T06:42:22.288Z</time></trkpt><trkpt lat="43.1902138" lon="12.3187294"><ele>286.0</ele><time>2026-04-04T06:42:23.288Z</time></trkpt><trkpt lat="43.1900329" lon="12.3186306"><ele>285.0</ele><time>2026-04-04T06:42:24.288Z</time></trkpt><trkpt lat="43.1898454" lon="12.3185403"><ele>285.0</ele><time>2026-04-04T06:42:25.288Z</time></trkpt><trkpt lat="43.1896624" lon="12.3184447"><ele>285.0</ele><time>2026-04-04T06:42:26.288Z</time></trkpt><trkpt lat="43.1894737" lon="12.3183478"><ele>285.0</ele><time>2026-04-04T06:42:27.288Z</time></trkpt><trkpt lat="43.1892838" lon="12.3182483"><ele>285.0</ele><time>2026-04-04T06:42:28.288Z</time></trkpt><trkpt lat="43.1890938" lon="12.3181495"><ele>285.0</ele><time>2026-04-04T06:42:29.289Z</time></trkpt><trkpt lat="43.1889055" lon="12.3180482"><ele>285.0</ele><time>2026-04-04T06:42:30.288Z</time></trkpt><trkpt lat="43.1887139" lon="12.3179537"><ele>284.6666666666667</ele><time>2026-04-04T06:42:31.289Z</time></trkpt><trkpt lat="43.1885226" lon="12.3178492"><ele>284.33333333333337</ele><time>2026-04-04T06:42:32.288Z</time></trkpt><trkpt lat="43.188325" lon="12.3177458"><ele>284.0</ele><time>2026-04-04T06:42:33.288Z</time></trkpt><trkpt lat="43.188125" lon="12.3176402"><ele>284.0</ele><time>2026-04-04T06:42:34.288Z</time></trkpt><trkpt lat="43.1879227" lon="12.3175394"><ele>284.0</ele><time>2026-04-04T06:42:35.288Z</time></trkpt><trkpt lat="43.1877277" lon="12.3174569"><ele>284.0</ele><time>2026-04-04T06:42:36.289Z</time></trkpt><trkpt lat="43.1875195" lon="12.3173701"><ele>283.33333333333337</ele><time>2026-04-04T06:42:37.288Z</time></trkpt><trkpt lat="43.1873075" lon="12.3172894"><ele>282.6666666666667</ele><time>2026-04-04T06:42:38.288Z</time></trkpt><trkpt lat="43.187099" lon="12.3172086"><ele>282.0</ele><time>2026-04-04T06:42:39.288Z</time></trkpt><trkpt lat="43.1868884" lon="12.317129"><ele>282.0</ele><time>2026-04-04T06:42:40.289Z</time></trkpt><trkpt lat="43.1866823" lon="12.3170504"><ele>282.0</ele><time>2026-04-04T06:42:41.288Z</time></trkpt><trkpt lat="43.1864789" lon="12.3169748"><ele>282.0</ele><time>2026-04-04T06:42:42.288Z</time></trkpt><trkpt lat="43.1862654" lon="12.3168996"><ele>281.6666666666667</ele><time>2026-04-04T06:42:43.288Z</time></trkpt><trkpt lat="43.1860592" lon="12.3168261"><ele>281.33333333333337</ele><time>2026-04-04T06:42:44.288Z</time></trkpt><trkpt lat="43.1858523" lon="12.3167447"><ele>281.0</ele><time>2026-04-04T06:42:45.288Z</time></trkpt><trkpt lat="43.1856323" lon="12.3166718"><ele>281.6666666666667</ele><time>2026-04-04T06:42:46.288Z</time></trkpt><trkpt lat="43.1854187" lon="12.3165978"><ele>282.3333333333333</ele><time>2026-04-04T06:42:47.288Z</time></trkpt><trkpt lat="43.1852186" lon="12.3165266"><ele>283.0</ele><time>2026-04-04T06:42:48.288Z</time></trkpt><trkpt lat="43.185023" lon="12.316449"><ele>286.3333333333333</ele><time>2026-04-04T06:42:49.288Z</time></trkpt><trkpt lat="43.1848396" lon="12.3163895"><ele>289.6666666666667</ele><time>2026-04-04T06:42:50.289Z</time></trkpt><trkpt lat="43.1846494" lon="12.3163414"><ele>293.0</ele><time>2026-04-04T06:42:51.288Z</time></trkpt><trkpt lat="43.184473" lon="12.3163182"><ele>293.0</ele><time>2026-04-04T06:42:52.288Z</time></trkpt><trkpt lat="43.1842913" lon="12.3163059"><ele>293.0</ele><time>2026-04-04T06:42:53.288Z</time></trkpt><trkpt lat="43.1840982" lon="12.3163188"><ele>293.0</ele><time>2026-04-04T06:42:54.289Z</time></trkpt><trkpt lat="43.1839094" lon="12.3163634"><ele>288.6666666666667</ele><time>2026-04-04T06:42:55.289Z</time></trkpt><trkpt lat="43.1837122" lon="12.3164191"><ele>284.3333333333333</ele><time>2026-04-04T06:42:56.288Z</time></trkpt><trkpt lat="43.1835196" lon="12.3164986"><ele>280.0</ele><time>2026-04-04T06:42:57.288Z</time></trkpt><trkpt lat="43.1833375" lon="12.3166039"><ele>280.66666666666663</ele><time>2026-04-04T06:42:58.289Z</time></trkpt><trkpt lat="43.1831736" lon="12.3167264"><ele>281.3333333333333</ele><time>2026-04-04T06:42:59.288Z</time></trkpt><trkpt lat="43.1830004" lon="12.3168358"><ele>282.0</ele><time>2026-04-04T06:43:00.289Z</time></trkpt><trkpt lat="43.1828235" lon="12.316928"><ele>282.0</ele><time>2026-04-04T06:43:01.289Z</time></trkpt><trkpt lat="43.1826327" lon="12.3169878"><ele>282.0</ele><time>2026-04-04T06:43:02.288Z</time></trkpt><trkpt lat="43.182449" lon="12.317022"><ele>282.0</ele><time>2026-04-04T06:43:03.288Z</time></trkpt><trkpt lat="43.18226" lon="12.3170249"><ele>282.0</ele><time>2026-04-04T06:43:04.288Z</time></trkpt><trkpt lat="43.1820746" lon="12.3170062"><ele>282.0</ele><time>2026-04-04T06:43:05.288Z</time></trkpt><trkpt lat="43.1818937" lon="12.3169801"><ele>282.0</ele><time>2026-04-04T06:43:06.289Z</time></trkpt><trkpt lat="43.181703" lon="12.3169515"><ele>283.3333333333333</ele><time>2026-04-04T06:43:07.288Z</time></trkpt><trkpt lat="43.1815082" lon="12.3169238"><ele>284.66666666666663</ele><time>2026-04-04T06:43:08.288Z</time></trkpt><trkpt lat="43.1813081" lon="12.3169072"><ele>286.0</ele><time>2026-04-04T06:43:09.288Z</time></trkpt><trkpt lat="43.1811063" lon="12.3168777"><ele>286.0</ele><time>2026-04-04T06:43:10.288Z</time></trkpt><trkpt lat="43.1809001" lon="12.3168542"><ele>286.0</ele><time>2026-04-04T06:43:11.289Z</time></trkpt><trkpt lat="43.1806895" lon="12.3168337"><ele>286.0</ele><time>2026-04-04T06:43:12.289Z</time></trkpt><trkpt lat="43.1804828" lon="12.3168377"><ele>283.3333333333333</ele><time>2026-04-04T06:43:13.289Z</time></trkpt><trkpt lat="43.1802817" lon="12.3168595"><ele>280.6666666666667</ele><time>2026-04-04T06:43:14.289Z</time></trkpt><trkpt lat="43.1800784" lon="12.3168827"><ele>278.0</ele><time>2026-04-04T06:43:15.289Z</time></trkpt><trkpt lat="43.1798689" lon="12.3169057"><ele>275.6666666666667</ele><time>2026-04-04T06:43:16.29Z</time></trkpt><trkpt lat="43.1796432" lon="12.3169104"><ele>273.3333333333333</ele><time>2026-04-04T06:43:17.289Z</time></trkpt><trkpt lat="43.1794297" lon="12.3168824"><ele>271.0</ele><time>2026-04-04T06:43:18.289Z</time></trkpt><trkpt lat="43.1792166" lon="12.3168333"><ele>270.3333333333333</ele><time>2026-04-04T06:43:19.289Z</time></trkpt><trkpt lat="43.1790096" lon="12.3167683"><ele>269.6666666666667</ele><time>2026-04-04T06:43:20.289Z</time></trkpt><trkpt lat="43.1787974" lon="12.3167081"><ele>269.0</ele><time>2026-04-04T06:43:21.289Z</time></trkpt><trkpt lat="43.1785897" lon="12.3166457"><ele>269.0</ele><time>2026-04-04T06:43:22.289Z</time></trkpt><trkpt lat="43.178379" lon="12.3165842"><ele>269.0</ele><time>2026-04-04T06:43:23.289Z</time></trkpt><trkpt lat="43.1781809" lon="12.3165302"><ele>269.0</ele><time>2026-04-04T06:43:24.289Z</time></trkpt><trkpt lat="43.1779868" lon="12.3164756"><ele>268.6666666666667</ele><time>2026-04-04T06:43:25.29Z</time></trkpt><trkpt lat="43.1777927" lon="12.3164258"><ele>268.3333333333333</ele><time>2026-04-04T06:43:26.289Z</time></trkpt><trkpt lat="43.1776108" lon="12.3163833"><ele>268.0</ele><time>2026-04-04T06:43:27.289Z</time></trkpt><trkpt lat="43.177437" lon="12.3163323"><ele>268.3333333333333</ele><time>2026-04-04T06:43:28.289Z</time></trkpt><trkpt lat="43.1772621" lon="12.3162822"><ele>268.6666666666667</ele><time>2026-04-04T06:43:29.289Z</time></trkpt><trkpt lat="43.1770955" lon="12.3162398"><ele>269.0</ele><time>2026-04-04T06:43:30.289Z</time></trkpt><trkpt lat="43.1769378" lon="12.3161992"><ele>269.0</ele><time>2026-04-04T06:43:31.289Z</time></trkpt><trkpt lat="43.1767858" lon="12.3161612"><ele>269.0</ele><time>2026-04-04T06:43:32.289Z</time></trkpt><trkpt lat="43.1766514" lon="12.3161247"><ele>269.0</ele><time>2026-04-04T06:43:33.289Z</time></trkpt><trkpt lat="43.1765154" lon="12.3160882"><ele>269.0</ele><time>2026-04-04T06:43:34.29Z</time></trkpt><trkpt lat="43.1763838" lon="12.3160543"><ele>268.5</ele><time>2026-04-04T06:43:35.289Z</time></trkpt><trkpt lat="43.1762522" lon="12.3160206"><ele>268.0</ele><time>2026-04-04T06:43:36.289Z</time></trkpt><trkpt lat="43.176124" lon="12.3159868"><ele>267.5</ele><time>2026-04-04T06:43:37.289Z</time></trkpt><trkpt lat="43.1759928" lon="12.3159483"><ele>267.0</ele><time>2026-04-04T06:43:38.289Z</time></trkpt><trkpt lat="43.1758609" lon="12.3159161"><ele>267.0</ele><time>2026-04-04T06:43:39.29Z</time></trkpt><trkpt lat="43.1757244" lon="12.3158758"><ele>267.0</ele><time>2026-04-04T06:43:40.29Z</time></trkpt><trkpt lat="43.175587" lon="12.3158474"><ele>267.0</ele><time>2026-04-04T06:43:41.289Z</time></trkpt><trkpt lat="43.1754449" lon="12.315808"><ele>267.0</ele><time>2026-04-04T06:43:42.289Z</time></trkpt><trkpt lat="43.1753167" lon="12.3157736"><ele>266.75</ele><time>2026-04-04T06:43:43.289Z</time></trkpt><trkpt lat="43.1751907" lon="12.3157382"><ele>266.5</ele><time>2026-04-04T06:43:44.289Z</time></trkpt><trkpt lat="43.1750729" lon="12.3157114"><ele>266.25</ele><time>2026-04-04T06:43:45.289Z</time></trkpt><trkpt lat="43.1749635" lon="12.3156827"><ele>266.0</ele><time>2026-04-04T06:43:46.289Z</time></trkpt><trkpt lat="43.1748637" lon="12.315655"><ele>265.83333333333337</ele><time>2026-04-04T06:43:47.29Z</time></trkpt><trkpt lat="43.1747833" lon="12.3156337"><ele>265.6666666666667</ele><time>2026-04-04T06:43:48.289Z</time></trkpt><trkpt lat="43.1747244" lon="12.3156028"><ele>265.5</ele><time>2026-04-04T06:43:49.289Z</time></trkpt><trkpt lat="43.1747" lon="12.3154804"><ele>265.3333333333333</ele><time>2026-04-04T06:43:51.289Z</time></trkpt><trkpt lat="43.1747347" lon="12.3154073"><ele>265.16666666666663</ele><time>2026-04-04T06:43:52.289Z</time></trkpt><trkpt lat="43.1747842" lon="12.3153395"><ele>265.0</ele><time>2026-04-04T06:43:53.289Z</time></trkpt><trkpt lat="43.1748656" lon="12.3152739"><ele>265.0</ele><time>2026-04-04T06:43:54.29Z</time></trkpt><trkpt lat="43.1749627" lon="12.3152019"><ele>265.0</ele><time>2026-04-04T06:43:55.289Z</time></trkpt><trkpt lat="43.1750739" lon="12.3151178"><ele>265.0</ele><time>2026-04-04T06:43:56.289Z</time></trkpt><trkpt lat="43.1751864" lon="12.3150152"><ele>265.0</ele><time>2026-04-04T06:43:57.289Z</time></trkpt><trkpt lat="43.1752843" lon="12.3149127"><ele>265.0</ele><time>2026-04-04T06:43:58.289Z</time></trkpt><trkpt lat="43.1753779" lon="12.3148046"><ele>265.0</ele><time>2026-04-04T06:43:59.29Z</time></trkpt><trkpt lat="43.1754677" lon="12.3146943"><ele>265.0</ele><time>2026-04-04T06:44:00.289Z</time></trkpt><trkpt lat="43.1755613" lon="12.3145877"><ele>265.0</ele><time>2026-04-04T06:44:01.289Z</time></trkpt><trkpt lat="43.175675" lon="12.314478"><ele>265.25</ele><time>2026-04-04T06:44:02.289Z</time></trkpt><trkpt lat="43.1757866" lon="12.3143631"><ele>265.5</ele><time>2026-04-04T06:44:03.289Z</time></trkpt><trkpt lat="43.1759105" lon="12.3142425"><ele>265.75</ele><time>2026-04-04T06:44:04.289Z</time></trkpt><trkpt lat="43.1760303" lon="12.3141209"><ele>266.0</ele><time>2026-04-04T06:44:05.289Z</time></trkpt><trkpt lat="43.1761486" lon="12.314005"><ele>266.0</ele><time>2026-04-04T06:44:06.29Z</time></trkpt><trkpt lat="43.1762639" lon="12.3138975"><ele>266.0</ele><time>2026-04-04T06:44:07.29Z</time></trkpt><trkpt lat="43.1763793" lon="12.3138058"><ele>266.0</ele><time>2026-04-04T06:44:08.29Z</time></trkpt><trkpt lat="43.1764963" lon="12.3137367"><ele>266.0</ele><time>2026-04-04T06:44:09.291Z</time></trkpt><trkpt lat="43.1766175" lon="12.3136951"><ele>266.5</ele><time>2026-04-04T06:44:10.29Z</time></trkpt><trkpt lat="43.1767343" lon="12.3136766"><ele>267.0</ele><time>2026-04-04T06:44:11.29Z</time></trkpt><trkpt lat="43.1768418" lon="12.3136586"><ele>267.5</ele><time>2026-04-04T06:44:12.29Z</time></trkpt><trkpt lat="43.1770285" lon="12.313567"><ele>268.0</ele><time>2026-04-04T06:44:14.29Z</time></trkpt><trkpt lat="43.1770972" lon="12.3134574"><ele>268.0</ele><time>2026-04-04T06:44:15.291Z</time></trkpt><trkpt lat="43.177159" lon="12.313319"><ele>268.0</ele><time>2026-04-04T06:44:16.29Z</time></trkpt><trkpt lat="43.1772279" lon="12.3131818"><ele>268.0</ele><time>2026-04-04T06:44:17.29Z</time></trkpt><trkpt lat="43.1772992" lon="12.31303"><ele>268.0</ele><time>2026-04-04T06:44:18.29Z</time></trkpt><trkpt lat="43.1773724" lon="12.3128602"><ele>268.25</ele><time>2026-04-04T06:44:19.29Z</time></trkpt><trkpt lat="43.1774359" lon="12.3127099"><ele>268.5</ele><time>2026-04-04T06:44:20.29Z</time></trkpt><trkpt lat="43.1775169" lon="12.3125101"><ele>268.75</ele><time>2026-04-04T06:44:21.29Z</time></trkpt><trkpt lat="43.1775716" lon="12.3123487"><ele>269.0</ele><time>2026-04-04T06:44:22.291Z</time></trkpt><trkpt lat="43.1776391" lon="12.3121527"><ele>269.75</ele><time>2026-04-04T06:44:23.29Z</time></trkpt><trkpt lat="43.1777074" lon="12.3119876"><ele>270.5</ele><time>2026-04-04T06:44:24.29Z</time></trkpt><trkpt lat="43.1777592" lon="12.3118349"><ele>271.25</ele><time>2026-04-04T06:44:25.291Z</time></trkpt><trkpt lat="43.1777948" lon="12.3116894"><ele>272.0</ele><time>2026-04-04T06:44:26.29Z</time></trkpt><trkpt lat="43.1778159" lon="12.3115247"><ele>271.75</ele><time>2026-04-04T06:44:27.29Z</time></trkpt><trkpt lat="43.1778227" lon="12.311405"><ele>271.5</ele><time>2026-04-04T06:44:28.29Z</time></trkpt><trkpt lat="43.1778094" lon="12.3111159"><ele>271.25</ele><time>2026-04-04T06:44:30.29Z</time></trkpt><trkpt lat="43.1777846" lon="12.3109767"><ele>271.0</ele><time>2026-04-04T06:44:31.29Z</time></trkpt><trkpt lat="43.1777345" lon="12.3108187"><ele>271.0</ele><time>2026-04-04T06:44:32.29Z</time></trkpt><trkpt lat="43.1776968" lon="12.3106639"><ele>271.0</ele><time>2026-04-04T06:44:33.29Z</time></trkpt><trkpt lat="43.1776706" lon="12.3105052"><ele>271.0</ele><time>2026-04-04T06:44:34.29Z</time></trkpt><trkpt lat="43.1776531" lon="12.3103624"><ele>271.0</ele><time>2026-04-04T06:44:35.29Z</time></trkpt><trkpt lat="43.1776284" lon="12.310218"><ele>271.75</ele><time>2026-04-04T06:44:36.29Z</time></trkpt><trkpt lat="43.1775815" lon="12.3100752"><ele>272.5</ele><time>2026-04-04T06:44:37.29Z</time></trkpt><trkpt lat="43.177505" lon="12.3099263"><ele>273.25</ele><time>2026-04-04T06:44:38.29Z</time></trkpt><trkpt lat="43.1774184" lon="12.3097643"><ele>274.0</ele><time>2026-04-04T06:44:39.29Z</time></trkpt><trkpt lat="43.1773085" lon="12.3096121"><ele>274.0</ele><time>2026-04-04T06:44:40.29Z</time></trkpt><trkpt lat="43.1771258" lon="12.3094696"><ele>274.0</ele><time>2026-04-04T06:44:41.29Z</time></trkpt><trkpt lat="43.1769968" lon="12.3093268"><ele>274.0</ele><time>2026-04-04T06:44:42.29Z</time></trkpt><trkpt lat="43.1768968" lon="12.3091844"><ele>274.0</ele><time>2026-04-04T06:44:43.29Z</time></trkpt><trkpt lat="43.176817" lon="12.3090481"><ele>274.0</ele><time>2026-04-04T06:44:44.29Z</time></trkpt><trkpt lat="43.1767439" lon="12.3089042"><ele>274.0</ele><time>2026-04-04T06:44:45.29Z</time></trkpt><trkpt lat="43.1766834" lon="12.3087504"><ele>274.0</ele><time>2026-04-04T06:44:46.29Z</time></trkpt><trkpt lat="43.1766365" lon="12.3086133"><ele>275.0</ele><time>2026-04-04T06:44:47.29Z</time></trkpt><trkpt lat="43.1766035" lon="12.3084748"><ele>276.0</ele><time>2026-04-04T06:44:48.29Z</time></trkpt><trkpt lat="43.1765905" lon="12.308344"><ele>277.0</ele><time>2026-04-04T06:44:49.29Z</time></trkpt><trkpt lat="43.1766162" lon="12.3082151"><ele>278.0</ele><time>2026-04-04T06:44:50.29Z</time></trkpt><trkpt lat="43.1766813" lon="12.3080732"><ele>279.0</ele><time>2026-04-04T06:44:51.29Z</time></trkpt><trkpt lat="43.1767768" lon="12.3079376"><ele>280.3333333333333</ele><time>2026-04-04T06:44:52.29Z</time></trkpt><trkpt lat="43.1768761" lon="12.3077998"><ele>281.66666666666663</ele><time>2026-04-04T06:44:53.29Z</time></trkpt><trkpt lat="43.1769881" lon="12.307656"><ele>283.0</ele><time>2026-04-04T06:44:54.29Z</time></trkpt><trkpt lat="43.1771185" lon="12.3075268"><ele>283.0</ele><time>2026-04-04T06:44:55.291Z</time></trkpt><trkpt lat="43.1772572" lon="12.3074063"><ele>283.0</ele><time>2026-04-04T06:44:56.29Z</time></trkpt><trkpt lat="43.1774102" lon="12.3073015"><ele>283.0</ele><time>2026-04-04T06:44:57.29Z</time></trkpt><trkpt lat="43.1775676" lon="12.3072269"><ele>282.3333333333333</ele><time>2026-04-04T06:44:58.29Z</time></trkpt><trkpt lat="43.1777275" lon="12.3071837"><ele>281.6666666666667</ele><time>2026-04-04T06:44:59.291Z</time></trkpt><trkpt lat="43.1779076" lon="12.3071669"><ele>281.0</ele><time>2026-04-04T06:45:00.29Z</time></trkpt><trkpt lat="43.1780864" lon="12.3071519"><ele>281.33333333333337</ele><time>2026-04-04T06:45:01.292Z</time></trkpt><trkpt lat="43.1782565" lon="12.3071342"><ele>281.6666666666667</ele><time>2026-04-04T06:45:02.291Z</time></trkpt><trkpt lat="43.1784291" lon="12.3071101"><ele>282.0</ele><time>2026-04-04T06:45:03.29Z</time></trkpt><trkpt lat="43.1785925" lon="12.307083"><ele>282.0</ele><time>2026-04-04T06:45:04.291Z</time></trkpt><trkpt lat="43.1787485" lon="12.3070508"><ele>282.0</ele><time>2026-04-04T06:45:05.291Z</time></trkpt><trkpt lat="43.1789029" lon="12.3070056"><ele>282.0</ele><time>2026-04-04T06:45:06.291Z</time></trkpt><trkpt lat="43.1790532" lon="12.3069426"><ele>283.25</ele><time>2026-04-04T06:45:07.292Z</time></trkpt><trkpt lat="43.179196" lon="12.3068585"><ele>284.5</ele><time>2026-04-04T06:45:08.292Z</time></trkpt><trkpt lat="43.1793256" lon="12.3067622"><ele>285.75</ele><time>2026-04-04T06:45:09.291Z</time></trkpt><trkpt lat="43.1794407" lon="12.3066771"><ele>287.0</ele><time>2026-04-04T06:45:10.291Z</time></trkpt><trkpt lat="43.1795433" lon="12.3066025"><ele>287.0</ele><time>2026-04-04T06:45:11.291Z</time></trkpt><trkpt lat="43.1796373" lon="12.3065409"><ele>287.0</ele><time>2026-04-04T06:45:12.292Z</time></trkpt><trkpt lat="43.1797238" lon="12.3064876"><ele>287.0</ele><time>2026-04-04T06:45:13.291Z</time></trkpt><trkpt lat="43.1798034" lon="12.3064326"><ele>287.0</ele><time>2026-04-04T06:45:14.292Z</time></trkpt><trkpt lat="43.1798662" lon="12.3063933"><ele>287.0</ele><time>2026-04-04T06:45:15.291Z</time></trkpt><trkpt lat="43.1799186" lon="12.3063332"><ele>287.0</ele><time>2026-04-04T06:45:16.291Z</time></trkpt><trkpt lat="43.1799533" lon="12.3062381"><ele>287.5</ele><time>2026-04-04T06:45:17.291Z</time></trkpt><trkpt lat="43.1799992" lon="12.3061146"><ele>288.0</ele><time>2026-04-04T06:45:18.291Z</time></trkpt><trkpt lat="43.180041" lon="12.3059687"><ele>288.5</ele><time>2026-04-04T06:45:19.292Z</time></trkpt><trkpt lat="43.1800856" lon="12.3057876"><ele>289.0</ele><time>2026-04-04T06:45:20.292Z</time></trkpt><trkpt lat="43.1801207" lon="12.3056038"><ele>291.0</ele><time>2026-04-04T06:45:21.291Z</time></trkpt><trkpt lat="43.1801386" lon="12.3054124"><ele>293.0</ele><time>2026-04-04T06:45:22.291Z</time></trkpt><trkpt lat="43.1801428" lon="12.3052321"><ele>295.0</ele><time>2026-04-04T06:45:23.291Z</time></trkpt><trkpt lat="43.1801504" lon="12.3050396"><ele>297.0</ele><time>2026-04-04T06:45:24.291Z</time></trkpt><trkpt lat="43.1801407" lon="12.3048409"><ele>297.5</ele><time>2026-04-04T06:45:25.291Z</time></trkpt><trkpt lat="43.1801263" lon="12.3046412"><ele>298.0</ele><time>2026-04-04T06:45:26.291Z</time></trkpt><trkpt lat="43.1801143" lon="12.3044432"><ele>298.5</ele><time>2026-04-04T06:45:27.291Z</time></trkpt><trkpt lat="43.1800854" lon="12.3042445"><ele>299.0</ele><time>2026-04-04T06:45:28.291Z</time></trkpt><trkpt lat="43.1800707" lon="12.3040495"><ele>300.0</ele><time>2026-04-04T06:45:29.291Z</time></trkpt><trkpt lat="43.1800641" lon="12.3038522"><ele>301.0</ele><time>2026-04-04T06:45:30.291Z</time></trkpt><trkpt lat="43.1800518" lon="12.3036552"><ele>302.0</ele><time>2026-04-04T06:45:31.291Z</time></trkpt><trkpt lat="43.1800387" lon="12.3034523"><ele>303.0</ele><time>2026-04-04T06:45:32.291Z</time></trkpt><trkpt lat="43.1800268" lon="12.3032569"><ele>304.25</ele><time>2026-04-04T06:45:33.291Z</time></trkpt><trkpt lat="43.1800176" lon="12.3030598"><ele>305.5</ele><time>2026-04-04T06:45:34.291Z</time></trkpt><trkpt lat="43.1800055" lon="12.3028595"><ele>306.75</ele><time>2026-04-04T06:45:35.291Z</time></trkpt><trkpt lat="43.1799947" lon="12.3026614"><ele>308.0</ele><time>2026-04-04T06:45:36.291Z</time></trkpt><trkpt lat="43.1799829" lon="12.3024647"><ele>308.0</ele><time>2026-04-04T06:45:37.291Z</time></trkpt><trkpt lat="43.1799719" lon="12.302273"><ele>308.0</ele><time>2026-04-04T06:45:38.291Z</time></trkpt><trkpt lat="43.1799621" lon="12.3020835"><ele>308.0</ele><time>2026-04-04T06:45:39.291Z</time></trkpt><trkpt lat="43.1799555" lon="12.3018993"><ele>308.0</ele><time>2026-04-04T06:45:40.291Z</time></trkpt><trkpt lat="43.1799483" lon="12.3017167"><ele>309.5</ele><time>2026-04-04T06:45:41.291Z</time></trkpt><trkpt lat="43.1799403" lon="12.3015349"><ele>311.0</ele><time>2026-04-04T06:45:42.291Z</time></trkpt><trkpt lat="43.1799353" lon="12.3013592"><ele>312.5</ele><time>2026-04-04T06:45:43.291Z</time></trkpt><trkpt lat="43.1799317" lon="12.3011761"><ele>314.0</ele><time>2026-04-04T06:45:44.291Z</time></trkpt><trkpt lat="43.1799287" lon="12.3009882"><ele>315.25</ele><time>2026-04-04T06:45:45.291Z</time></trkpt><trkpt lat="43.179927" lon="12.3008028"><ele>316.5</ele><time>2026-04-04T06:45:46.291Z</time></trkpt><trkpt lat="43.1799273" lon="12.3006254"><ele>317.75</ele><time>2026-04-04T06:45:47.291Z</time></trkpt><trkpt lat="43.1799269" lon="12.3004548"><ele>319.0</ele><time>2026-04-04T06:45:48.291Z</time></trkpt><trkpt lat="43.1799243" lon="12.3002859"><ele>320.75</ele><time>2026-04-04T06:45:49.291Z</time></trkpt><trkpt lat="43.1799148" lon="12.3001101"><ele>322.5</ele><time>2026-04-04T06:45:50.292Z</time></trkpt><trkpt lat="43.1799063" lon="12.2999312"><ele>324.25</ele><time>2026-04-04T06:45:51.291Z</time></trkpt><trkpt lat="43.179897" lon="12.2997488"><ele>326.0</ele><time>2026-04-04T06:45:52.291Z</time></trkpt><trkpt lat="43.1798866" lon="12.299567"><ele>326.0</ele><time>2026-04-04T06:45:53.291Z</time></trkpt><trkpt lat="43.1798766" lon="12.2993765"><ele>326.0</ele><time>2026-04-04T06:45:54.292Z</time></trkpt><trkpt lat="43.179867" lon="12.2991825"><ele>326.0</ele><time>2026-04-04T06:45:55.291Z</time></trkpt><trkpt lat="43.1798529" lon="12.2989953"><ele>326.0</ele><time>2026-04-04T06:45:56.291Z</time></trkpt><trkpt lat="43.1798308" lon="12.2988002"><ele>326.0</ele><time>2026-04-04T06:45:57.291Z</time></trkpt><trkpt lat="43.1798037" lon="12.2986124"><ele>326.0</ele><time>2026-04-04T06:45:58.291Z</time></trkpt><trkpt lat="43.1797806" lon="12.2984368"><ele>326.0</ele><time>2026-04-04T06:45:59.291Z</time></trkpt><trkpt lat="43.1797618" lon="12.2982707"><ele>326.0</ele><time>2026-04-04T06:46:00.292Z</time></trkpt><trkpt lat="43.1797493" lon="12.298135"><ele>326.83333333333337</ele><time>2026-04-04T06:46:01.292Z</time></trkpt><trkpt lat="43.1797412" lon="12.2980262"><ele>327.6666666666667</ele><time>2026-04-04T06:46:02.292Z</time></trkpt><trkpt lat="43.1797336" lon="12.2979311"><ele>328.5</ele><time>2026-04-04T06:46:03.293Z</time></trkpt><trkpt lat="43.1797317" lon="12.2978376"><ele>329.3333333333333</ele><time>2026-04-04T06:46:04.292Z</time></trkpt><trkpt lat="43.1797448" lon="12.2976637"><ele>330.16666666666663</ele><time>2026-04-04T06:46:06.292Z</time></trkpt><trkpt lat="43.1797707" lon="12.2975574"><ele>331.0</ele><time>2026-04-04T06:46:07.293Z</time></trkpt><trkpt lat="43.17982" lon="12.2974354"><ele>328.25</ele><time>2026-04-04T06:46:08.293Z</time></trkpt><trkpt lat="43.1798957" lon="12.2973037"><ele>325.5</ele><time>2026-04-04T06:46:09.293Z</time></trkpt><trkpt lat="43.1799648" lon="12.2971699"><ele>322.75</ele><time>2026-04-04T06:46:10.292Z</time></trkpt><trkpt lat="43.1800199" lon="12.2970365"><ele>320.0</ele><time>2026-04-04T06:46:11.292Z</time></trkpt><trkpt lat="43.1800587" lon="12.2968972"><ele>317.75</ele><time>2026-04-04T06:46:12.292Z</time></trkpt><trkpt lat="43.1800732" lon="12.296748"><ele>315.5</ele><time>2026-04-04T06:46:13.293Z</time></trkpt><trkpt lat="43.1800692" lon="12.2965886"><ele>313.25</ele><time>2026-04-04T06:46:14.292Z</time></trkpt><trkpt lat="43.180047" lon="12.2964243"><ele>311.0</ele><time>2026-04-04T06:46:15.292Z</time></trkpt><trkpt lat="43.1800067" lon="12.2962555"><ele>309.5</ele><time>2026-04-04T06:46:16.293Z</time></trkpt><trkpt lat="43.1799602" lon="12.2960884"><ele>308.0</ele><time>2026-04-04T06:46:17.292Z</time></trkpt><trkpt lat="43.1799288" lon="12.2959268"><ele>306.5</ele><time>2026-04-04T06:46:18.292Z</time></trkpt><trkpt lat="43.1799019" lon="12.295763"><ele>305.0</ele><time>2026-04-04T06:46:19.292Z</time></trkpt><trkpt lat="43.1798843" lon="12.2955831"><ele>304.0</ele><time>2026-04-04T06:46:20.292Z</time></trkpt><trkpt lat="43.1798746" lon="12.2954146"><ele>303.0</ele><time>2026-04-04T06:46:21.292Z</time></trkpt><trkpt lat="43.1798763" lon="12.295273"><ele>302.0</ele><time>2026-04-04T06:46:22.293Z</time></trkpt><trkpt lat="43.179888" lon="12.2951634"><ele>301.0</ele><time>2026-04-04T06:46:23.292Z</time></trkpt><trkpt lat="43.1799139" lon="12.2950747"><ele>300.0</ele><time>2026-04-04T06:46:24.293Z</time></trkpt><trkpt lat="43.1799693" lon="12.2950334"><ele>299.0</ele><time>2026-04-04T06:46:26.292Z</time></trkpt><trkpt lat="43.1800312" lon="12.2950797"><ele>299.0</ele><time>2026-04-04T06:46:27.292Z</time></trkpt><trkpt lat="43.1800857" lon="12.2951748"><ele>299.0</ele><time>2026-04-04T06:46:28.293Z</time></trkpt><trkpt lat="43.1801307" lon="12.2952859"><ele>299.0</ele><time>2026-04-04T06:46:29.292Z</time></trkpt><trkpt lat="43.1801715" lon="12.2953833"><ele>299.0</ele><time>2026-04-04T06:46:30.292Z</time></trkpt><trkpt lat="43.1802326" lon="12.295542"><ele>299.0</ele><time>2026-04-04T06:46:31.293Z</time></trkpt><trkpt lat="43.1802851" lon="12.2955936"><ele>299.0</ele><time>2026-04-04T06:46:32.292Z</time></trkpt><trkpt lat="43.1803809" lon="12.2956569"><ele>299.0</ele><time>2026-04-04T06:46:34.292Z</time></trkpt><trkpt lat="43.1804479" lon="12.2955771"><ele>299.0</ele><time>2026-04-04T06:46:38.292Z</time></trkpt><trkpt lat="43.1804887" lon="12.2954634"><ele>299.0</ele><time>2026-04-04T06:46:39.292Z</time></trkpt><trkpt lat="43.1805365" lon="12.2952888"><ele>299.0</ele><time>2026-04-04T06:46:40.292Z</time></trkpt><trkpt lat="43.1805843" lon="12.2951035"><ele>299.0</ele><time>2026-04-04T06:46:41.292Z</time></trkpt><trkpt lat="43.18063" lon="12.2949063"><ele>299.0</ele><time>2026-04-04T06:46:42.292Z</time></trkpt><trkpt lat="43.1806746" lon="12.2947121"><ele>299.0</ele><time>2026-04-04T06:46:43.292Z</time></trkpt><trkpt lat="43.180719" lon="12.2945303"><ele>299.0</ele><time>2026-04-04T06:46:44.293Z</time></trkpt><trkpt lat="43.180777" lon="12.2943621"><ele>294.0</ele><time>2026-04-04T06:46:45.293Z</time></trkpt><trkpt lat="43.1808237" lon="12.2941581"><ele>289.0</ele><time>2026-04-04T06:46:46.292Z</time></trkpt><trkpt lat="43.1808753" lon="12.2939857"><ele>284.0</ele><time>2026-04-04T06:46:47.292Z</time></trkpt><trkpt lat="43.181048" lon="12.2935122"><ele>282.75</ele><time>2026-04-04T06:46:48.292Z</time></trkpt><trkpt lat="43.1810799" lon="12.2933306"><ele>281.5</ele><time>2026-04-04T06:46:49.292Z</time></trkpt><trkpt lat="43.1811314" lon="12.2931934"><ele>280.25</ele><time>2026-04-04T06:46:50.292Z</time></trkpt><trkpt lat="43.1811859" lon="12.292992"><ele>279.0</ele><time>2026-04-04T06:46:51.292Z</time></trkpt><trkpt lat="43.1812677" lon="12.292902"><ele>279.0</ele><time>2026-04-04T06:46:52.293Z</time></trkpt><trkpt lat="43.1813431" lon="12.2928286"><ele>279.0</ele><time>2026-04-04T06:46:53.292Z</time></trkpt><trkpt lat="43.1814169" lon="12.2927364"><ele>279.0</ele><time>2026-04-04T06:46:54.292Z</time></trkpt><trkpt lat="43.1815937" lon="12.292447"><ele>280.0</ele><time>2026-04-04T06:46:56.293Z</time></trkpt><trkpt lat="43.1817602" lon="12.2920979"><ele>281.0</ele><time>2026-04-04T06:46:58.293Z</time></trkpt><trkpt lat="43.1818498" lon="12.2919203"><ele>281.0</ele><time>2026-04-04T06:46:59.294Z</time></trkpt><trkpt lat="43.1819339" lon="12.2917442"><ele>281.0</ele><time>2026-04-04T06:47:00.293Z</time></trkpt><trkpt lat="43.1820101" lon="12.2915613"><ele>281.0</ele><time>2026-04-04T06:47:01.293Z</time></trkpt><trkpt lat="43.1820849" lon="12.2913715"><ele>281.6666666666667</ele><time>2026-04-04T06:47:02.293Z</time></trkpt><trkpt lat="43.1821576" lon="12.2911775"><ele>282.3333333333333</ele><time>2026-04-04T06:47:03.293Z</time></trkpt><trkpt lat="43.1822209" lon="12.2909911"><ele>283.0</ele><time>2026-04-04T06:47:04.293Z</time></trkpt><trkpt lat="43.1822852" lon="12.2908091"><ele>283.0</ele><time>2026-04-04T06:47:05.293Z</time></trkpt><trkpt lat="43.1823417" lon="12.2906575"><ele>283.0</ele><time>2026-04-04T06:47:06.293Z</time></trkpt><trkpt lat="43.1823963" lon="12.2905247"><ele>283.0</ele><time>2026-04-04T06:47:07.293Z</time></trkpt><trkpt lat="43.1824429" lon="12.2904012"><ele>283.0</ele><time>2026-04-04T06:47:08.294Z</time></trkpt><trkpt lat="43.1824793" lon="12.290284"><ele>283.0</ele><time>2026-04-04T06:47:09.293Z</time></trkpt><trkpt lat="43.1825037" lon="12.2901721"><ele>285.6</ele><time>2026-04-04T06:47:10.294Z</time></trkpt><trkpt lat="43.182512" lon="12.2900621"><ele>288.20000000000005</ele><time>2026-04-04T06:47:11.293Z</time></trkpt><trkpt lat="43.1825076" lon="12.2899498"><ele>290.8</ele><time>2026-04-04T06:47:12.293Z</time></trkpt><trkpt lat="43.1824935" lon="12.2898314"><ele>293.40000000000003</ele><time>2026-04-04T06:47:13.293Z</time></trkpt><trkpt lat="43.1824804" lon="12.2896999"><ele>296.0</ele><time>2026-04-04T06:47:14.293Z</time></trkpt><trkpt lat="43.1824813" lon="12.2895567"><ele>296.25</ele><time>2026-04-04T06:47:15.293Z</time></trkpt><trkpt lat="43.1824908" lon="12.2894039"><ele>296.5</ele><time>2026-04-04T06:47:16.293Z</time></trkpt><trkpt lat="43.1825079" lon="12.2892405"><ele>296.75</ele><time>2026-04-04T06:47:17.293Z</time></trkpt><trkpt lat="43.1825334" lon="12.2890737"><ele>297.0</ele><time>2026-04-04T06:47:18.293Z</time></trkpt><trkpt lat="43.1825602" lon="12.2889084"><ele>297.0</ele><time>2026-04-04T06:47:19.293Z</time></trkpt><trkpt lat="43.1826006" lon="12.2887471"><ele>297.0</ele><time>2026-04-04T06:47:20.293Z</time></trkpt><trkpt lat="43.1826633" lon="12.2885844"><ele>297.0</ele><time>2026-04-04T06:47:21.293Z</time></trkpt><trkpt lat="43.182754" lon="12.2884311"><ele>297.0</ele><time>2026-04-04T06:47:22.293Z</time></trkpt><trkpt lat="43.1828421" lon="12.2882792"><ele>297.0</ele><time>2026-04-04T06:47:23.293Z</time></trkpt><trkpt lat="43.1829329" lon="12.288128"><ele>297.0</ele><time>2026-04-04T06:47:24.293Z</time></trkpt><trkpt lat="43.1830226" lon="12.2879773"><ele>297.0</ele><time>2026-04-04T06:47:25.293Z</time></trkpt><trkpt lat="43.1831146" lon="12.2878374"><ele>297.0</ele><time>2026-04-04T06:47:26.293Z</time></trkpt><trkpt lat="43.183222" lon="12.287706"><ele>300.6666666666667</ele><time>2026-04-04T06:47:27.293Z</time></trkpt><trkpt lat="43.1833511" lon="12.2875979"><ele>304.33333333333337</ele><time>2026-04-04T06:47:28.293Z</time></trkpt><trkpt lat="43.1834916" lon="12.2875018"><ele>308.0</ele><time>2026-04-04T06:47:29.293Z</time></trkpt><trkpt lat="43.1836252" lon="12.2874159"><ele>308.0</ele><time>2026-04-04T06:47:30.293Z</time></trkpt><trkpt lat="43.1837475" lon="12.2873444"><ele>308.0</ele><time>2026-04-04T06:47:31.293Z</time></trkpt><trkpt lat="43.1838569" lon="12.2872952"><ele>308.0</ele><time>2026-04-04T06:47:32.293Z</time></trkpt><trkpt lat="43.1839653" lon="12.2872711"><ele>308.0</ele><time>2026-04-04T06:47:33.294Z</time></trkpt><trkpt lat="43.1840582" lon="12.2872779"><ele>311.25</ele><time>2026-04-04T06:47:34.293Z</time></trkpt><trkpt lat="43.1841574" lon="12.2873403"><ele>314.5</ele><time>2026-04-04T06:47:35.293Z</time></trkpt><trkpt lat="43.1842754" lon="12.2874455"><ele>317.75</ele><time>2026-04-04T06:47:36.293Z</time></trkpt><trkpt lat="43.184356" lon="12.2875766"><ele>321.0</ele><time>2026-04-04T06:47:37.293Z</time></trkpt><trkpt lat="43.1844114" lon="12.2877165"><ele>321.0</ele><time>2026-04-04T06:47:38.293Z</time></trkpt><trkpt lat="43.1844638" lon="12.2878469"><ele>321.0</ele><time>2026-04-04T06:47:39.293Z</time></trkpt><trkpt lat="43.1845363" lon="12.2879721"><ele>321.0</ele><time>2026-04-04T06:47:40.294Z</time></trkpt><trkpt lat="43.1846089" lon="12.2880728"><ele>321.0</ele><time>2026-04-04T06:47:41.293Z</time></trkpt><trkpt lat="43.1846885" lon="12.288104"><ele>321.0</ele><time>2026-04-04T06:47:42.294Z</time></trkpt><trkpt lat="43.1847839" lon="12.2880828"><ele>324.75</ele><time>2026-04-04T06:47:43.293Z</time></trkpt><trkpt lat="43.1848836" lon="12.2880179"><ele>328.5</ele><time>2026-04-04T06:47:44.293Z</time></trkpt><trkpt lat="43.1849666" lon="12.2879049"><ele>332.25</ele><time>2026-04-04T06:47:45.293Z</time></trkpt><trkpt lat="43.1850202" lon="12.2877345"><ele>336.0</ele><time>2026-04-04T06:47:46.293Z</time></trkpt><trkpt lat="43.1850483" lon="12.2875389"><ele>336.0</ele><time>2026-04-04T06:47:47.293Z</time></trkpt><trkpt lat="43.1850568" lon="12.2873158"><ele>336.0</ele><time>2026-04-04T06:47:48.293Z</time></trkpt><trkpt lat="43.1850621" lon="12.2870694"><ele>336.0</ele><time>2026-04-04T06:47:49.293Z</time></trkpt><trkpt lat="43.1850787" lon="12.2868522"><ele>335.0</ele><time>2026-04-04T06:47:50.294Z</time></trkpt><trkpt lat="43.1851372" lon="12.2866539"><ele>334.0</ele><time>2026-04-04T06:47:51.294Z</time></trkpt><trkpt lat="43.1852007" lon="12.2864772"><ele>333.0</ele><time>2026-04-04T06:47:52.294Z</time></trkpt><trkpt lat="43.1852547" lon="12.2863"><ele>332.0</ele><time>2026-04-04T06:47:53.294Z</time></trkpt><trkpt lat="43.1853005" lon="12.2861027"><ele>332.0</ele><time>2026-04-04T06:47:54.295Z</time></trkpt><trkpt lat="43.1853232" lon="12.2858951"><ele>332.0</ele><time>2026-04-04T06:47:55.294Z</time></trkpt><trkpt lat="43.1853121" lon="12.2856767"><ele>332.0</ele><time>2026-04-04T06:47:56.295Z</time></trkpt><trkpt lat="43.1852739" lon="12.2854608"><ele>336.33333333333337</ele><time>2026-04-04T06:47:57.294Z</time></trkpt><trkpt lat="43.185213" lon="12.2852439"><ele>340.6666666666667</ele><time>2026-04-04T06:47:58.294Z</time></trkpt><trkpt lat="43.1851292" lon="12.2850199"><ele>345.0</ele><time>2026-04-04T06:47:59.294Z</time></trkpt><trkpt lat="43.18501" lon="12.284796"><ele>342.6666666666667</ele><time>2026-04-04T06:48:00.294Z</time></trkpt><trkpt lat="43.1848913" lon="12.2845639"><ele>340.33333333333337</ele><time>2026-04-04T06:48:01.294Z</time></trkpt><trkpt lat="43.1847709" lon="12.2843331"><ele>338.0</ele><time>2026-04-04T06:48:02.294Z</time></trkpt><trkpt lat="43.1846232" lon="12.2841094"><ele>346.0</ele><time>2026-04-04T06:48:03.294Z</time></trkpt><trkpt lat="43.1844656" lon="12.2838769"><ele>354.0</ele><time>2026-04-04T06:48:04.294Z</time></trkpt><trkpt lat="43.1843126" lon="12.283661"><ele>354.0</ele><time>2026-04-04T06:48:05.295Z</time></trkpt><trkpt lat="43.1841579" lon="12.283446"><ele>354.0</ele><time>2026-04-04T06:48:06.295Z</time></trkpt><trkpt lat="43.1839956" lon="12.2832351"><ele>354.0</ele><time>2026-04-04T06:48:07.294Z</time></trkpt><trkpt lat="43.1838312" lon="12.2830424"><ele>352.3333333333333</ele><time>2026-04-04T06:48:08.294Z</time></trkpt><trkpt lat="43.1836323" lon="12.2828817"><ele>350.66666666666663</ele><time>2026-04-04T06:48:09.294Z</time></trkpt><trkpt lat="43.1834449" lon="12.2827556"><ele>349.0</ele><time>2026-04-04T06:48:10.294Z</time></trkpt><trkpt lat="43.1832764" lon="12.2826534"><ele>349.75</ele><time>2026-04-04T06:48:11.294Z</time></trkpt><trkpt lat="43.1831171" lon="12.2825617"><ele>350.5</ele><time>2026-04-04T06:48:12.294Z</time></trkpt><trkpt lat="43.1830099" lon="12.2824758"><ele>351.25</ele><time>2026-04-04T06:48:13.294Z</time></trkpt><trkpt lat="43.1829345" lon="12.2823682"><ele>352.0</ele><time>2026-04-04T06:48:14.294Z</time></trkpt><trkpt lat="43.1828986" lon="12.2822477"><ele>352.0</ele><time>2026-04-04T06:48:15.294Z</time></trkpt><trkpt lat="43.1828855" lon="12.2821102"><ele>352.0</ele><time>2026-04-04T06:48:16.294Z</time></trkpt><trkpt lat="43.1829156" lon="12.281979"><ele>352.0</ele><time>2026-04-04T06:48:17.294Z</time></trkpt><trkpt lat="43.1829799" lon="12.2818452"><ele>352.0</ele><time>2026-04-04T06:48:18.295Z</time></trkpt><trkpt lat="43.183101" lon="12.2817922"><ele>352.0</ele><time>2026-04-04T06:48:19.294Z</time></trkpt><trkpt lat="43.1832348" lon="12.2818073"><ele>351.3333333333333</ele><time>2026-04-04T06:48:20.294Z</time></trkpt><trkpt lat="43.1833798" lon="12.2818449"><ele>350.6666666666667</ele><time>2026-04-04T06:48:21.295Z</time></trkpt><trkpt lat="43.1835248" lon="12.2818937"><ele>350.0</ele><time>2026-04-04T06:48:22.294Z</time></trkpt><trkpt lat="43.1836739" lon="12.2819555"><ele>350.0</ele><time>2026-04-04T06:48:23.294Z</time></trkpt><trkpt lat="43.1838455" lon="12.2820308"><ele>350.0</ele><time>2026-04-04T06:48:24.294Z</time></trkpt><trkpt lat="43.1840124" lon="12.2821067"><ele>350.0</ele><time>2026-04-04T06:48:25.295Z</time></trkpt><trkpt lat="43.184171" lon="12.282178"><ele>350.0</ele><time>2026-04-04T06:48:26.294Z</time></trkpt><trkpt lat="43.184339" lon="12.2822464"><ele>350.0</ele><time>2026-04-04T06:48:27.295Z</time></trkpt><trkpt lat="43.1845059" lon="12.2823194"><ele>350.0</ele><time>2026-04-04T06:48:28.294Z</time></trkpt><trkpt lat="43.1846784" lon="12.2824217"><ele>353.6666666666667</ele><time>2026-04-04T06:48:29.295Z</time></trkpt><trkpt lat="43.1848412" lon="12.2825509"><ele>357.3333333333333</ele><time>2026-04-04T06:48:30.294Z</time></trkpt><trkpt lat="43.1849831" lon="12.282688"><ele>361.0</ele><time>2026-04-04T06:48:31.294Z</time></trkpt><trkpt lat="43.1851275" lon="12.282805"><ele>363.3333333333333</ele><time>2026-04-04T06:48:32.294Z</time></trkpt><trkpt lat="43.1852764" lon="12.28291"><ele>365.6666666666667</ele><time>2026-04-04T06:48:33.294Z</time></trkpt><trkpt lat="43.1854094" lon="12.2830119"><ele>368.0</ele><time>2026-04-04T06:48:34.294Z</time></trkpt><trkpt lat="43.1855256" lon="12.2831177"><ele>368.0</ele><time>2026-04-04T06:48:35.294Z</time></trkpt><trkpt lat="43.1856199" lon="12.2832358"><ele>368.0</ele><time>2026-04-04T06:48:36.294Z</time></trkpt><trkpt lat="43.1856854" lon="12.2833802"><ele>368.0</ele><time>2026-04-04T06:48:37.295Z</time></trkpt><trkpt lat="43.1857137" lon="12.2835469"><ele>368.0</ele><time>2026-04-04T06:48:38.294Z</time></trkpt><trkpt lat="43.1857097" lon="12.2837163"><ele>370.4</ele><time>2026-04-04T06:48:39.294Z</time></trkpt><trkpt lat="43.1857043" lon="12.2838817"><ele>372.79999999999995</ele><time>2026-04-04T06:48:40.294Z</time></trkpt><trkpt lat="43.1857438" lon="12.2840178"><ele>375.2</ele><time>2026-04-04T06:48:41.294Z</time></trkpt><trkpt lat="43.1858046" lon="12.2841177"><ele>377.6</ele><time>2026-04-04T06:48:42.294Z</time></trkpt><trkpt lat="43.1858771" lon="12.2842028"><ele>380.0</ele><time>2026-04-04T06:48:43.295Z</time></trkpt><trkpt lat="43.1859853" lon="12.2842324"><ele>380.0</ele><time>2026-04-04T06:48:44.294Z</time></trkpt><trkpt lat="43.1860921" lon="12.2842215"><ele>380.0</ele><time>2026-04-04T06:48:45.295Z</time></trkpt><trkpt lat="43.1861994" lon="12.2841624"><ele>380.0</ele><time>2026-04-04T06:48:46.295Z</time></trkpt><trkpt lat="43.1863027" lon="12.2840657"><ele>380.0</ele><time>2026-04-04T06:48:47.295Z</time></trkpt><trkpt lat="43.1863932" lon="12.2839315"><ele>380.33333333333337</ele><time>2026-04-04T06:48:48.296Z</time></trkpt><trkpt lat="43.1864763" lon="12.2837678"><ele>380.6666666666667</ele><time>2026-04-04T06:48:49.295Z</time></trkpt><trkpt lat="43.1865698" lon="12.2835803"><ele>381.0</ele><time>2026-04-04T06:48:50.295Z</time></trkpt><trkpt lat="43.1866525" lon="12.2833832"><ele>384.66666666666663</ele><time>2026-04-04T06:48:51.295Z</time></trkpt><trkpt lat="43.1867444" lon="12.2831928"><ele>388.3333333333333</ele><time>2026-04-04T06:48:52.295Z</time></trkpt><trkpt lat="43.186854" lon="12.2830042"><ele>392.0</ele><time>2026-04-04T06:48:53.295Z</time></trkpt><trkpt lat="43.1869572" lon="12.2828355"><ele>392.0</ele><time>2026-04-04T06:48:54.295Z</time></trkpt><trkpt lat="43.1870358" lon="12.2826869"><ele>392.0</ele><time>2026-04-04T06:48:55.295Z</time></trkpt><trkpt lat="43.1871486" lon="12.2825675"><ele>392.0</ele><time>2026-04-04T06:48:56.295Z</time></trkpt><trkpt lat="43.1872608" lon="12.2824629"><ele>392.0</ele><time>2026-04-04T06:48:57.295Z</time></trkpt><trkpt lat="43.1874016" lon="12.2823861"><ele>399.0</ele><time>2026-04-04T06:48:58.295Z</time></trkpt><trkpt lat="43.1875605" lon="12.282339"><ele>406.0</ele><time>2026-04-04T06:48:59.295Z</time></trkpt><trkpt lat="43.1877466" lon="12.2823061"><ele>413.0</ele><time>2026-04-04T06:49:00.295Z</time></trkpt><trkpt lat="43.1879469" lon="12.282277"><ele>409.3333333333333</ele><time>2026-04-04T06:49:01.296Z</time></trkpt><trkpt lat="43.188145" lon="12.2822348"><ele>405.66666666666663</ele><time>2026-04-04T06:49:02.295Z</time></trkpt><trkpt lat="43.1883345" lon="12.2821845"><ele>402.0</ele><time>2026-04-04T06:49:03.295Z</time></trkpt><trkpt lat="43.1885075" lon="12.2821403"><ele>402.0</ele><time>2026-04-04T06:49:04.295Z</time></trkpt><trkpt lat="43.1886722" lon="12.2820997"><ele>402.0</ele><time>2026-04-04T06:49:05.295Z</time></trkpt><trkpt lat="43.1888359" lon="12.2820581"><ele>402.0</ele><time>2026-04-04T06:49:06.295Z</time></trkpt><trkpt lat="43.1889818" lon="12.2819939"><ele>403.75</ele><time>2026-04-04T06:49:07.295Z</time></trkpt><trkpt lat="43.1890915" lon="12.2818995"><ele>405.5</ele><time>2026-04-04T06:49:08.295Z</time></trkpt><trkpt lat="43.1891936" lon="12.2817647"><ele>407.25</ele><time>2026-04-04T06:49:09.295Z</time></trkpt><trkpt lat="43.1892711" lon="12.2816055"><ele>409.0</ele><time>2026-04-04T06:49:10.296Z</time></trkpt><trkpt lat="43.1893323" lon="12.2814193"><ele>409.0</ele><time>2026-04-04T06:49:11.295Z</time></trkpt><trkpt lat="43.1893945" lon="12.2812554"><ele>409.0</ele><time>2026-04-04T06:49:12.295Z</time></trkpt><trkpt lat="43.1894777" lon="12.2811373"><ele>409.0</ele><time>2026-04-04T06:49:13.295Z</time></trkpt><trkpt lat="43.1895856" lon="12.2810418"><ele>409.0</ele><time>2026-04-04T06:49:14.296Z</time></trkpt><trkpt lat="43.1897164" lon="12.2809727"><ele>415.33333333333337</ele><time>2026-04-04T06:49:15.295Z</time></trkpt><trkpt lat="43.1898736" lon="12.280941"><ele>421.66666666666663</ele><time>2026-04-04T06:49:16.295Z</time></trkpt><trkpt lat="43.1900565" lon="12.2809177"><ele>428.0</ele><time>2026-04-04T06:49:17.296Z</time></trkpt><trkpt lat="43.1902323" lon="12.2808898"><ele>428.0</ele><time>2026-04-04T06:49:18.295Z</time></trkpt><trkpt lat="43.1903909" lon="12.2808524"><ele>428.0</ele><time>2026-04-04T06:49:19.295Z</time></trkpt><trkpt lat="43.1905465" lon="12.2808169"><ele>428.0</ele><time>2026-04-04T06:49:20.295Z</time></trkpt><trkpt lat="43.1906964" lon="12.2807328"><ele>427.3333333333333</ele><time>2026-04-04T06:49:21.296Z</time></trkpt><trkpt lat="43.1908321" lon="12.2806198"><ele>426.66666666666663</ele><time>2026-04-04T06:49:22.295Z</time></trkpt><trkpt lat="43.1909677" lon="12.2804927"><ele>426.0</ele><time>2026-04-04T06:49:23.295Z</time></trkpt><trkpt lat="43.1911073" lon="12.2803332"><ele>426.0</ele><time>2026-04-04T06:49:24.296Z</time></trkpt><trkpt lat="43.1912581" lon="12.2801378"><ele>426.0</ele><time>2026-04-04T06:49:25.295Z</time></trkpt><trkpt lat="43.1914033" lon="12.2799595"><ele>426.0</ele><time>2026-04-04T06:49:26.295Z</time></trkpt><trkpt lat="43.1915459" lon="12.2797836"><ele>430.66666666666663</ele><time>2026-04-04T06:49:27.295Z</time></trkpt><trkpt lat="43.1916876" lon="12.2796062"><ele>435.3333333333333</ele><time>2026-04-04T06:49:28.295Z</time></trkpt><trkpt lat="43.1918223" lon="12.2794423"><ele>440.0</ele><time>2026-04-04T06:49:29.295Z</time></trkpt><trkpt lat="43.191948" lon="12.2792919"><ele>440.0</ele><time>2026-04-04T06:49:30.295Z</time></trkpt><trkpt lat="43.1920607" lon="12.2791565"><ele>440.0</ele><time>2026-04-04T06:49:31.295Z</time></trkpt><trkpt lat="43.192174" lon="12.2790278"><ele>440.0</ele><time>2026-04-04T06:49:32.296Z</time></trkpt><trkpt lat="43.1923029" lon="12.2789378"><ele>440.0</ele><time>2026-04-04T06:49:33.295Z</time></trkpt><trkpt lat="43.192452" lon="12.2788752"><ele>441.0</ele><time>2026-04-04T06:49:34.295Z</time></trkpt><trkpt lat="43.1926176" lon="12.2788566"><ele>442.0</ele><time>2026-04-04T06:49:35.295Z</time></trkpt><trkpt lat="43.1927976" lon="12.2788499"><ele>443.0</ele><time>2026-04-04T06:49:36.295Z</time></trkpt><trkpt lat="43.1929721" lon="12.2788208"><ele>443.0</ele><time>2026-04-04T06:49:37.295Z</time></trkpt><trkpt lat="43.1931447" lon="12.2787506"><ele>443.0</ele><time>2026-04-04T06:49:38.296Z</time></trkpt><trkpt lat="43.1933031" lon="12.2786313"><ele>443.0</ele><time>2026-04-04T06:49:39.295Z</time></trkpt><trkpt lat="43.1934618" lon="12.2784666"><ele>446.0</ele><time>2026-04-04T06:49:40.295Z</time></trkpt><trkpt lat="43.193617" lon="12.278274"><ele>449.0</ele><time>2026-04-04T06:49:41.296Z</time></trkpt><trkpt lat="43.1937779" lon="12.2780616"><ele>452.0</ele><time>2026-04-04T06:49:42.297Z</time></trkpt><trkpt lat="43.1939376" lon="12.2778559"><ele>454.3333333333333</ele><time>2026-04-04T06:49:43.296Z</time></trkpt><trkpt lat="43.1940857" lon="12.2776816"><ele>456.66666666666663</ele><time>2026-04-04T06:49:44.296Z</time></trkpt><trkpt lat="43.1942329" lon="12.2775134"><ele>459.0</ele><time>2026-04-04T06:49:45.296Z</time></trkpt><trkpt lat="43.1943979" lon="12.2773548"><ele>457.0</ele><time>2026-04-04T06:49:46.296Z</time></trkpt><trkpt lat="43.1945218" lon="12.2771928"><ele>455.0</ele><time>2026-04-04T06:49:47.297Z</time></trkpt><trkpt lat="43.1946355" lon="12.2770055"><ele>453.0</ele><time>2026-04-04T06:49:48.296Z</time></trkpt><trkpt lat="43.1947365" lon="12.2767926"><ele>453.0</ele><time>2026-04-04T06:49:49.296Z</time></trkpt><trkpt lat="43.194821" lon="12.2765549"><ele>453.0</ele><time>2026-04-04T06:49:50.296Z</time></trkpt><trkpt lat="43.1948964" lon="12.2763022"><ele>453.0</ele><time>2026-04-04T06:49:51.296Z</time></trkpt><trkpt lat="43.1949572" lon="12.2760371"><ele>454.66666666666663</ele><time>2026-04-04T06:49:52.296Z</time></trkpt><trkpt lat="43.195042" lon="12.2757825"><ele>456.3333333333333</ele><time>2026-04-04T06:49:53.296Z</time></trkpt><trkpt lat="43.1951462" lon="12.2755374"><ele>458.0</ele><time>2026-04-04T06:49:54.297Z</time></trkpt><trkpt lat="43.195264" lon="12.2753005"><ele>458.0</ele><time>2026-04-04T06:49:55.296Z</time></trkpt><trkpt lat="43.1953889" lon="12.2750765"><ele>458.0</ele><time>2026-04-04T06:49:56.296Z</time></trkpt><trkpt lat="43.1955195" lon="12.2748636"><ele>458.0</ele><time>2026-04-04T06:49:57.296Z</time></trkpt><trkpt lat="43.1956371" lon="12.2746545"><ele>461.3333333333333</ele><time>2026-04-04T06:49:58.296Z</time></trkpt><trkpt lat="43.1957424" lon="12.2744597"><ele>464.66666666666663</ele><time>2026-04-04T06:49:59.296Z</time></trkpt><trkpt lat="43.1958373" lon="12.2742843"><ele>468.0</ele><time>2026-04-04T06:50:00.297Z</time></trkpt><trkpt lat="43.1959213" lon="12.2741182"><ele>468.0</ele><time>2026-04-04T06:50:01.297Z</time></trkpt><trkpt lat="43.1959853" lon="12.2739447"><ele>468.0</ele><time>2026-04-04T06:50:02.296Z</time></trkpt><trkpt lat="43.1960251" lon="12.2737514"><ele>468.0</ele><time>2026-04-04T06:50:03.296Z</time></trkpt><trkpt lat="43.196007" lon="12.2735502"><ele>468.0</ele><time>2026-04-04T06:50:04.296Z</time></trkpt><trkpt lat="43.1959733" lon="12.2733305"><ele>472.0</ele><time>2026-04-04T06:50:05.296Z</time></trkpt><trkpt lat="43.1959171" lon="12.2730959"><ele>476.0</ele><time>2026-04-04T06:50:06.297Z</time></trkpt><trkpt lat="43.1958541" lon="12.2728421"><ele>480.0</ele><time>2026-04-04T06:50:07.296Z</time></trkpt><trkpt lat="43.1957889" lon="12.2725929"><ele>480.0</ele><time>2026-04-04T06:50:08.296Z</time></trkpt><trkpt lat="43.1957294" lon="12.2723717"><ele>480.0</ele><time>2026-04-04T06:50:09.296Z</time></trkpt><trkpt lat="43.1957006" lon="12.2721719"><ele>480.0</ele><time>2026-04-04T06:50:10.297Z</time></trkpt><trkpt lat="43.195694" lon="12.2719524"><ele>481.66666666666663</ele><time>2026-04-04T06:50:11.296Z</time></trkpt><trkpt lat="43.1956997" lon="12.2717283"><ele>483.3333333333333</ele><time>2026-04-04T06:50:12.296Z</time></trkpt><trkpt lat="43.1957233" lon="12.2715064"><ele>485.0</ele><time>2026-04-04T06:50:13.296Z</time></trkpt><trkpt lat="43.1957676" lon="12.2712943"><ele>487.5</ele><time>2026-04-04T06:50:14.297Z</time></trkpt><trkpt lat="43.1958253" lon="12.2711122"><ele>490.0</ele><time>2026-04-04T06:50:15.296Z</time></trkpt><trkpt lat="43.1959164" lon="12.2709505"><ele>492.5</ele><time>2026-04-04T06:50:16.297Z</time></trkpt><trkpt lat="43.1960243" lon="12.2708065"><ele>495.0</ele><time>2026-04-04T06:50:17.296Z</time></trkpt><trkpt lat="43.1961603" lon="12.2706968"><ele>498.66666666666663</ele><time>2026-04-04T06:50:18.296Z</time></trkpt><trkpt lat="43.1963289" lon="12.2706069"><ele>502.3333333333333</ele><time>2026-04-04T06:50:19.296Z</time></trkpt><trkpt lat="43.196514" lon="12.270513"><ele>506.0</ele><time>2026-04-04T06:50:20.296Z</time></trkpt><trkpt lat="43.1966792" lon="12.2704078"><ele>506.66666666666663</ele><time>2026-04-04T06:50:21.296Z</time></trkpt><trkpt lat="43.1968312" lon="12.2703046"><ele>507.33333333333337</ele><time>2026-04-04T06:50:22.297Z</time></trkpt><trkpt lat="43.1969721" lon="12.2701805"><ele>508.0</ele><time>2026-04-04T06:50:23.296Z</time></trkpt><trkpt lat="43.1971046" lon="12.2700378"><ele>508.0</ele><time>2026-04-04T06:50:24.296Z</time></trkpt><trkpt lat="43.1972166" lon="12.269873"><ele>508.0</ele><time>2026-04-04T06:50:25.296Z</time></trkpt><trkpt lat="43.1973148" lon="12.2696989"><ele>508.0</ele><time>2026-04-04T06:50:26.296Z</time></trkpt><trkpt lat="43.1974005" lon="12.2695293"><ele>508.5</ele><time>2026-04-04T06:50:27.296Z</time></trkpt><trkpt lat="43.1974665" lon="12.2693617"><ele>509.0</ele><time>2026-04-04T06:50:28.296Z</time></trkpt><trkpt lat="43.197538" lon="12.2692158"><ele>509.5</ele><time>2026-04-04T06:50:29.297Z</time></trkpt><trkpt lat="43.1976358" lon="12.2690882"><ele>510.0</ele><time>2026-04-04T06:50:30.296Z</time></trkpt><trkpt lat="43.197752" lon="12.2689878"><ele>508.33333333333337</ele><time>2026-04-04T06:50:31.296Z</time></trkpt><trkpt lat="43.1978921" lon="12.2689136"><ele>506.6666666666667</ele><time>2026-04-04T06:50:32.296Z</time></trkpt><trkpt lat="43.1980523" lon="12.2688664"><ele>505.0</ele><time>2026-04-04T06:50:33.297Z</time></trkpt><trkpt lat="43.1982229" lon="12.2688215"><ele>508.6666666666667</ele><time>2026-04-04T06:50:34.296Z</time></trkpt><trkpt lat="43.1983807" lon="12.2687617"><ele>512.3333333333334</ele><time>2026-04-04T06:50:35.296Z</time></trkpt><trkpt lat="43.1985258" lon="12.2686673"><ele>516.0</ele><time>2026-04-04T06:50:36.298Z</time></trkpt><trkpt lat="43.1986757" lon="12.2685405"><ele>516.0</ele><time>2026-04-04T06:50:37.297Z</time></trkpt><trkpt lat="43.198817" lon="12.2683881"><ele>516.0</ele><time>2026-04-04T06:50:38.297Z</time></trkpt><trkpt lat="43.1989605" lon="12.2682276"><ele>516.0</ele><time>2026-04-04T06:50:39.297Z</time></trkpt><trkpt lat="43.1991044" lon="12.2680594"><ele>514.0</ele><time>2026-04-04T06:50:40.297Z</time></trkpt><trkpt lat="43.1992644" lon="12.2678916"><ele>512.0</ele><time>2026-04-04T06:50:41.297Z</time></trkpt><trkpt lat="43.1994348" lon="12.2677203"><ele>510.0</ele><time>2026-04-04T06:50:42.298Z</time></trkpt><trkpt lat="43.1996038" lon="12.2675478"><ele>510.0</ele><time>2026-04-04T06:50:43.298Z</time></trkpt><trkpt lat="43.19977" lon="12.26738"><ele>510.0</ele><time>2026-04-04T06:50:44.297Z</time></trkpt><trkpt lat="43.1999312" lon="12.2672128"><ele>510.0</ele><time>2026-04-04T06:50:45.298Z</time></trkpt><trkpt lat="43.2000822" lon="12.2670613"><ele>509.66666666666663</ele><time>2026-04-04T06:50:46.297Z</time></trkpt><trkpt lat="43.2002408" lon="12.2669076"><ele>509.3333333333333</ele><time>2026-04-04T06:50:47.297Z</time></trkpt><trkpt lat="43.2004077" lon="12.2667708"><ele>509.0</ele><time>2026-04-04T06:50:48.297Z</time></trkpt><trkpt lat="43.2005944" lon="12.2666578"><ele>509.3333333333333</ele><time>2026-04-04T06:50:49.297Z</time></trkpt><trkpt lat="43.2007929" lon="12.2665596"><ele>509.66666666666663</ele><time>2026-04-04T06:50:50.297Z</time></trkpt><trkpt lat="43.2010148" lon="12.2664664"><ele>510.0</ele><time>2026-04-04T06:50:51.297Z</time></trkpt><trkpt lat="43.2012259" lon="12.2663654"><ele>509.0</ele><time>2026-04-04T06:50:52.297Z</time></trkpt><trkpt lat="43.2014301" lon="12.2662801"><ele>508.0</ele><time>2026-04-04T06:50:53.297Z</time></trkpt><trkpt lat="43.2016332" lon="12.2662168"><ele>507.0</ele><time>2026-04-04T06:50:54.298Z</time></trkpt><trkpt lat="43.2018392" lon="12.2661477"><ele>507.0</ele><time>2026-04-04T06:50:55.297Z</time></trkpt><trkpt lat="43.202045" lon="12.2660872"><ele>507.0</ele><time>2026-04-04T06:50:56.297Z</time></trkpt><trkpt lat="43.2022397" lon="12.2660366"><ele>507.0</ele><time>2026-04-04T06:50:57.297Z</time></trkpt><trkpt lat="43.2024277" lon="12.2659952"><ele>509.66666666666663</ele><time>2026-04-04T06:50:58.297Z</time></trkpt><trkpt lat="43.2026203" lon="12.2659745"><ele>512.3333333333333</ele><time>2026-04-04T06:50:59.297Z</time></trkpt><trkpt lat="43.2028211" lon="12.2659773"><ele>515.0</ele><time>2026-04-04T06:51:00.298Z</time></trkpt><trkpt lat="43.2030337" lon="12.2659887"><ele>516.6666666666666</ele><time>2026-04-04T06:51:01.298Z</time></trkpt><trkpt lat="43.2032462" lon="12.2659883"><ele>518.3333333333334</ele><time>2026-04-04T06:51:02.297Z</time></trkpt><trkpt lat="43.2034588" lon="12.2659894"><ele>520.0</ele><time>2026-04-04T06:51:03.297Z</time></trkpt><trkpt lat="43.2036708" lon="12.2659974"><ele>520.0</ele><time>2026-04-04T06:51:04.297Z</time></trkpt><trkpt lat="43.20387" lon="12.2660089"><ele>520.0</ele><time>2026-04-04T06:51:05.297Z</time></trkpt><trkpt lat="43.204058" lon="12.2660326"><ele>520.0</ele><time>2026-04-04T06:51:06.297Z</time></trkpt><trkpt lat="43.2042273" lon="12.2660653"><ele>520.25</ele><time>2026-04-04T06:51:07.297Z</time></trkpt><trkpt lat="43.2043831" lon="12.2661"><ele>520.5</ele><time>2026-04-04T06:51:08.297Z</time></trkpt><trkpt lat="43.2045298" lon="12.2661231"><ele>520.75</ele><time>2026-04-04T06:51:09.298Z</time></trkpt><trkpt lat="43.2046604" lon="12.266137"><ele>521.0</ele><time>2026-04-04T06:51:10.297Z</time></trkpt><trkpt lat="43.204783" lon="12.2661248"><ele>523.5</ele><time>2026-04-04T06:51:11.298Z</time></trkpt><trkpt lat="43.2048909" lon="12.2660617"><ele>526.0</ele><time>2026-04-04T06:51:12.297Z</time></trkpt><trkpt lat="43.2049933" lon="12.2659547"><ele>528.5</ele><time>2026-04-04T06:51:13.297Z</time></trkpt><trkpt lat="43.2050834" lon="12.2657997"><ele>531.0</ele><time>2026-04-04T06:51:14.297Z</time></trkpt><trkpt lat="43.2051363" lon="12.2656323"><ele>528.25</ele><time>2026-04-04T06:51:15.297Z</time></trkpt><trkpt lat="43.2052144" lon="12.2654783"><ele>525.5</ele><time>2026-04-04T06:51:16.297Z</time></trkpt><trkpt lat="43.2053264" lon="12.2653576"><ele>522.75</ele><time>2026-04-04T06:51:17.297Z</time></trkpt><trkpt lat="43.2054572" lon="12.2652701"><ele>520.0</ele><time>2026-04-04T06:51:18.298Z</time></trkpt><trkpt lat="43.2056129" lon="12.2651902"><ele>523.6666666666667</ele><time>2026-04-04T06:51:19.297Z</time></trkpt><trkpt lat="43.205777" lon="12.2651028"><ele>527.3333333333334</ele><time>2026-04-04T06:51:20.297Z</time></trkpt><trkpt lat="43.2059323" lon="12.265029"><ele>531.0</ele><time>2026-04-04T06:51:21.297Z</time></trkpt><trkpt lat="43.2060774" lon="12.264979"><ele>531.0</ele><time>2026-04-04T06:51:22.297Z</time></trkpt><trkpt lat="43.2062128" lon="12.2649287"><ele>531.0</ele><time>2026-04-04T06:51:23.297Z</time></trkpt><trkpt lat="43.2063385" lon="12.264881"><ele>531.0</ele><time>2026-04-04T06:51:24.298Z</time></trkpt><trkpt lat="43.2064474" lon="12.2648215"><ele>531.0</ele><time>2026-04-04T06:51:25.297Z</time></trkpt><trkpt lat="43.2065422" lon="12.2647436"><ele>534.6</ele><time>2026-04-04T06:51:26.297Z</time></trkpt><trkpt lat="43.2066057" lon="12.2646464"><ele>538.2</ele><time>2026-04-04T06:51:27.297Z</time></trkpt><trkpt lat="43.2066371" lon="12.2645379"><ele>541.8</ele><time>2026-04-04T06:51:28.297Z</time></trkpt><trkpt lat="43.2066467" lon="12.2644073"><ele>545.4</ele><time>2026-04-04T06:51:29.297Z</time></trkpt><trkpt lat="43.2066209" lon="12.2642579"><ele>549.0</ele><time>2026-04-04T06:51:30.297Z</time></trkpt><trkpt lat="43.2065616" lon="12.2641091"><ele>547.0</ele><time>2026-04-04T06:51:31.298Z</time></trkpt><trkpt lat="43.2064757" lon="12.2639708"><ele>545.0</ele><time>2026-04-04T06:51:32.298Z</time></trkpt><trkpt lat="43.2063709" lon="12.2638352"><ele>543.0</ele><time>2026-04-04T06:51:33.298Z</time></trkpt><trkpt lat="43.2062645" lon="12.2636915"><ele>541.0</ele><time>2026-04-04T06:51:34.298Z</time></trkpt><trkpt lat="43.206179" lon="12.2635487"><ele>541.0</ele><time>2026-04-04T06:51:35.298Z</time></trkpt><trkpt lat="43.206112" lon="12.263418"><ele>541.0</ele><time>2026-04-04T06:51:36.298Z</time></trkpt><trkpt lat="43.206072" lon="12.2632975"><ele>541.0</ele><time>2026-04-04T06:51:37.298Z</time></trkpt><trkpt lat="43.2060569" lon="12.2631631"><ele>541.0</ele><time>2026-04-04T06:51:38.298Z</time></trkpt><trkpt lat="43.2060868" lon="12.2630239"><ele>541.0</ele><time>2026-04-04T06:51:39.298Z</time></trkpt><trkpt lat="43.2061667" lon="12.2629011"><ele>540.75</ele><time>2026-04-04T06:51:40.298Z</time></trkpt><trkpt lat="43.2062612" lon="12.2627826"><ele>540.5</ele><time>2026-04-04T06:51:41.298Z</time></trkpt><trkpt lat="43.2063689" lon="12.2626627"><ele>540.25</ele><time>2026-04-04T06:51:42.299Z</time></trkpt><trkpt lat="43.2064766" lon="12.2625639"><ele>540.0</ele><time>2026-04-04T06:51:43.298Z</time></trkpt><trkpt lat="43.2065857" lon="12.2625023"><ele>544.5</ele><time>2026-04-04T06:51:44.298Z</time></trkpt><trkpt lat="43.2067164" lon="12.262503"><ele>549.0</ele><time>2026-04-04T06:51:45.298Z</time></trkpt><trkpt lat="43.2068138" lon="12.262557"><ele>553.5</ele><time>2026-04-04T06:51:46.298Z</time></trkpt><trkpt lat="43.2069149" lon="12.2626495"><ele>558.0</ele><time>2026-04-04T06:51:47.299Z</time></trkpt><trkpt lat="43.206972" lon="12.2627847"><ele>558.0</ele><time>2026-04-04T06:51:48.298Z</time></trkpt><trkpt lat="43.2069968" lon="12.2629524"><ele>558.0</ele><time>2026-04-04T06:51:49.298Z</time></trkpt><trkpt lat="43.2070053" lon="12.2631346"><ele>558.0</ele><time>2026-04-04T06:51:50.298Z</time></trkpt><trkpt lat="43.2070184" lon="12.2632824"><ele>558.0</ele><time>2026-04-04T06:51:51.298Z</time></trkpt><trkpt lat="43.2070566" lon="12.2634165"><ele>558.0</ele><time>2026-04-04T06:51:52.298Z</time></trkpt><trkpt lat="43.2071019" lon="12.2635308"><ele>558.0</ele><time>2026-04-04T06:51:53.299Z</time></trkpt><trkpt lat="43.2071717" lon="12.2636111"><ele>558.0</ele><time>2026-04-04T06:51:54.298Z</time></trkpt><trkpt lat="43.20724" lon="12.263687"><ele>558.0</ele><time>2026-04-04T06:51:55.298Z</time></trkpt><trkpt lat="43.2073579" lon="12.2636628"><ele>558.0</ele><time>2026-04-04T06:51:56.298Z</time></trkpt><trkpt lat="43.2075033" lon="12.2635856"><ele>561.3333333333334</ele><time>2026-04-04T06:51:57.298Z</time></trkpt><trkpt lat="43.2076153" lon="12.2634839"><ele>564.6666666666667</ele><time>2026-04-04T06:51:58.298Z</time></trkpt><trkpt lat="43.207732" lon="12.2633264"><ele>568.0</ele><time>2026-04-04T06:51:59.299Z</time></trkpt><trkpt lat="43.2078408" lon="12.2631321"><ele>572.0</ele><time>2026-04-04T06:52:00.298Z</time></trkpt><trkpt lat="43.2079273" lon="12.2629277"><ele>576.0</ele><time>2026-04-04T06:52:01.298Z</time></trkpt><trkpt lat="43.2080132" lon="12.2627598"><ele>580.0</ele><time>2026-04-04T06:52:02.298Z</time></trkpt><trkpt lat="43.2081222" lon="12.2626417"><ele>582.75</ele><time>2026-04-04T06:52:03.298Z</time></trkpt><trkpt lat="43.2082187" lon="12.2625712"><ele>585.5</ele><time>2026-04-04T06:52:04.298Z</time></trkpt><trkpt lat="43.2083149" lon="12.2625678"><ele>588.25</ele><time>2026-04-04T06:52:05.298Z</time></trkpt><trkpt lat="43.2084281" lon="12.2625928"><ele>591.0</ele><time>2026-04-04T06:52:06.298Z</time></trkpt><trkpt lat="43.2085602" lon="12.2626883"><ele>591.0</ele><time>2026-04-04T06:52:07.299Z</time></trkpt><trkpt lat="43.208689" lon="12.2628059"><ele>591.0</ele><time>2026-04-04T06:52:08.298Z</time></trkpt><trkpt lat="43.208798" lon="12.2629034"><ele>591.0</ele><time>2026-04-04T06:52:09.298Z</time></trkpt><trkpt lat="43.2089145" lon="12.2629613"><ele>591.0</ele><time>2026-04-04T06:52:10.299Z</time></trkpt><trkpt lat="43.2090447" lon="12.2629933"><ele>592.25</ele><time>2026-04-04T06:52:11.298Z</time></trkpt><trkpt lat="43.2091673" lon="12.2629872"><ele>593.5</ele><time>2026-04-04T06:52:12.298Z</time></trkpt><trkpt lat="43.209297" lon="12.2629473"><ele>594.75</ele><time>2026-04-04T06:52:13.298Z</time></trkpt><trkpt lat="43.209408" lon="12.2628538"><ele>596.0</ele><time>2026-04-04T06:52:14.298Z</time></trkpt><trkpt lat="43.20949" lon="12.2627365"><ele>596.0</ele><time>2026-04-04T06:52:15.298Z</time></trkpt><trkpt lat="43.2095384" lon="12.2625894"><ele>596.0</ele><time>2026-04-04T06:52:16.298Z</time></trkpt><trkpt lat="43.2095652" lon="12.2624127"><ele>596.0</ele><time>2026-04-04T06:52:17.298Z</time></trkpt><trkpt lat="43.2095707" lon="12.2622212"><ele>596.0</ele><time>2026-04-04T06:52:18.298Z</time></trkpt><trkpt lat="43.2095787" lon="12.2620223"><ele>598.75</ele><time>2026-04-04T06:52:19.298Z</time></trkpt><trkpt lat="43.2096047" lon="12.2618406"><ele>601.5</ele><time>2026-04-04T06:52:20.298Z</time></trkpt><trkpt lat="43.2096683" lon="12.2616844"><ele>604.25</ele><time>2026-04-04T06:52:21.298Z</time></trkpt><trkpt lat="43.2097494" lon="12.2615543"><ele>607.0</ele><time>2026-04-04T06:52:22.298Z</time></trkpt><trkpt lat="43.2098611" lon="12.2614607"><ele>607.0</ele><time>2026-04-04T06:52:23.298Z</time></trkpt><trkpt lat="43.2099804" lon="12.2614059"><ele>607.0</ele><time>2026-04-04T06:52:24.298Z</time></trkpt><trkpt lat="43.2100775" lon="12.2613852"><ele>607.0</ele><time>2026-04-04T06:52:25.299Z</time></trkpt><trkpt lat="43.2101496" lon="12.2614284"><ele>607.0</ele><time>2026-04-04T06:52:26.299Z</time></trkpt><trkpt lat="43.2102185" lon="12.2614841"><ele>607.0</ele><time>2026-04-04T06:52:27.299Z</time></trkpt><trkpt lat="43.2103106" lon="12.2615941"><ele>607.0</ele><time>2026-04-04T06:52:28.299Z</time></trkpt><trkpt lat="43.2104673" lon="12.2617901"><ele>607.0</ele><time>2026-04-04T06:52:29.299Z</time></trkpt><trkpt lat="43.2105753" lon="12.2618904"><ele>607.0</ele><time>2026-04-04T06:52:30.299Z</time></trkpt><trkpt lat="43.2106876" lon="12.2619279"><ele>607.8000000000001</ele><time>2026-04-04T06:52:31.299Z</time></trkpt><trkpt lat="43.2107889" lon="12.2619168"><ele>608.6</ele><time>2026-04-04T06:52:32.299Z</time></trkpt><trkpt lat="43.2108803" lon="12.2618499"><ele>609.4000000000001</ele><time>2026-04-04T06:52:33.299Z</time></trkpt><trkpt lat="43.2109485" lon="12.2617704"><ele>610.2</ele><time>2026-04-04T06:52:34.299Z</time></trkpt><trkpt lat="43.211012" lon="12.2616753"><ele>611.0</ele><time>2026-04-04T06:52:35.299Z</time></trkpt><trkpt lat="43.2110423" lon="12.2615606"><ele>611.6666666666666</ele><time>2026-04-04T06:52:36.299Z</time></trkpt><trkpt lat="43.2109993" lon="12.2614343"><ele>612.3333333333334</ele><time>2026-04-04T06:52:37.299Z</time></trkpt><trkpt lat="43.2109357" lon="12.2612127"><ele>613.0</ele><time>2026-04-04T06:52:38.299Z</time></trkpt><trkpt lat="43.2108895" lon="12.2609539"><ele>613.0</ele><time>2026-04-04T06:52:39.299Z</time></trkpt><trkpt lat="43.2108434" lon="12.2606993"><ele>613.0</ele><time>2026-04-04T06:52:40.299Z</time></trkpt><trkpt lat="43.2107834" lon="12.2604442"><ele>613.0</ele><time>2026-04-04T06:52:41.299Z</time></trkpt><trkpt lat="43.2107089" lon="12.260201"><ele>614.6666666666667</ele><time>2026-04-04T06:52:42.299Z</time></trkpt><trkpt lat="43.2106257" lon="12.2599819"><ele>616.3333333333334</ele><time>2026-04-04T06:52:43.299Z</time></trkpt><trkpt lat="43.2105221" lon="12.2598028"><ele>618.0</ele><time>2026-04-04T06:52:44.3Z</time></trkpt><trkpt lat="43.2104032" lon="12.2596338"><ele>618.0</ele><time>2026-04-04T06:52:45.299Z</time></trkpt><trkpt lat="43.2103065" lon="12.2594632"><ele>618.0</ele><time>2026-04-04T06:52:46.299Z</time></trkpt><trkpt lat="43.2102418" lon="12.2592929"><ele>618.0</ele><time>2026-04-04T06:52:47.299Z</time></trkpt><trkpt lat="43.2102161" lon="12.2591181"><ele>618.0</ele><time>2026-04-04T06:52:48.299Z</time></trkpt><trkpt lat="43.2102323" lon="12.2589294"><ele>615.3333333333334</ele><time>2026-04-04T06:52:49.299Z</time></trkpt><trkpt lat="43.2102886" lon="12.2587291"><ele>612.6666666666667</ele><time>2026-04-04T06:52:50.3Z</time></trkpt><trkpt lat="43.2103468" lon="12.2585383"><ele>610.0</ele><time>2026-04-04T06:52:51.299Z</time></trkpt><trkpt lat="43.210414" lon="12.2583388"><ele>610.0</ele><time>2026-04-04T06:52:52.3Z</time></trkpt><trkpt lat="43.210506" lon="12.2581307"><ele>610.0</ele><time>2026-04-04T06:52:53.299Z</time></trkpt><trkpt lat="43.2106372" lon="12.2578989"><ele>610.0</ele><time>2026-04-04T06:52:54.299Z</time></trkpt><trkpt lat="43.2107714" lon="12.2576886"><ele>618.5</ele><time>2026-04-04T06:52:55.299Z</time></trkpt><trkpt lat="43.2109111" lon="12.2574509"><ele>627.0</ele><time>2026-04-04T06:52:56.3Z</time></trkpt><trkpt lat="43.2110665" lon="12.2572101"><ele>629.5</ele><time>2026-04-04T06:52:57.299Z</time></trkpt><trkpt lat="43.2112134" lon="12.2569743"><ele>632.0</ele><time>2026-04-04T06:52:58.299Z</time></trkpt><trkpt lat="43.2113721" lon="12.2567493"><ele>633.6666666666666</ele><time>2026-04-04T06:52:59.299Z</time></trkpt><trkpt lat="43.2115107" lon="12.2565307"><ele>635.3333333333334</ele><time>2026-04-04T06:53:00.299Z</time></trkpt><trkpt lat="43.2116683" lon="12.2563268"><ele>637.0</ele><time>2026-04-04T06:53:01.299Z</time></trkpt><trkpt lat="43.2118064" lon="12.256124"><ele>639.3333333333334</ele><time>2026-04-04T06:53:02.299Z</time></trkpt><trkpt lat="43.2119415" lon="12.2559193"><ele>641.6666666666666</ele><time>2026-04-04T06:53:03.299Z</time></trkpt><trkpt lat="43.2120711" lon="12.2557256"><ele>644.0</ele><time>2026-04-04T06:53:04.299Z</time></trkpt><trkpt lat="43.2122315" lon="12.2555551"><ele>646.0</ele><time>2026-04-04T06:53:05.299Z</time></trkpt><trkpt lat="43.2124015" lon="12.2554169"><ele>648.0</ele><time>2026-04-04T06:53:06.299Z</time></trkpt><trkpt lat="43.2125621" lon="12.2553067"><ele>650.0</ele><time>2026-04-04T06:53:07.299Z</time></trkpt><trkpt lat="43.2126931" lon="12.2551813"><ele>650.0</ele><time>2026-04-04T06:53:08.3Z</time></trkpt><trkpt lat="43.212808" lon="12.2550402"><ele>650.0</ele><time>2026-04-04T06:53:09.3Z</time></trkpt><trkpt lat="43.2129045" lon="12.2548507"><ele>650.0</ele><time>2026-04-04T06:53:10.3Z</time></trkpt><trkpt lat="43.2129751" lon="12.2546249"><ele>649.3333333333333</ele><time>2026-04-04T06:53:11.299Z</time></trkpt><trkpt lat="43.2130518" lon="12.254405"><ele>648.6666666666666</ele><time>2026-04-04T06:53:12.3Z</time></trkpt><trkpt lat="43.2131346" lon="12.2541932"><ele>648.0</ele><time>2026-04-04T06:53:13.299Z</time></trkpt><trkpt lat="43.213236" lon="12.2539864"><ele>647.3333333333334</ele><time>2026-04-04T06:53:14.299Z</time></trkpt><trkpt lat="43.2133566" lon="12.2537887"><ele>646.6666666666667</ele><time>2026-04-04T06:53:15.299Z</time></trkpt><trkpt lat="43.2135028" lon="12.253612"><ele>646.0</ele><time>2026-04-04T06:53:16.299Z</time></trkpt><trkpt lat="43.2136507" lon="12.2534508"><ele>646.0</ele><time>2026-04-04T06:53:17.299Z</time></trkpt><trkpt lat="43.2137698" lon="12.2532909"><ele>646.0</ele><time>2026-04-04T06:53:18.299Z</time></trkpt><trkpt lat="43.2138571" lon="12.2531262"><ele>646.0</ele><time>2026-04-04T06:53:19.3Z</time></trkpt><trkpt lat="43.213919" lon="12.2529369"><ele>646.75</ele><time>2026-04-04T06:53:20.299Z</time></trkpt><trkpt lat="43.2139466" lon="12.252741"><ele>647.5</ele><time>2026-04-04T06:53:21.299Z</time></trkpt><trkpt lat="43.2139521" lon="12.2525442"><ele>648.25</ele><time>2026-04-04T06:53:22.3Z</time></trkpt><trkpt lat="43.2139074" lon="12.252364"><ele>649.0</ele><time>2026-04-04T06:53:23.299Z</time></trkpt><trkpt lat="43.2138309" lon="12.2522151"><ele>651.75</ele><time>2026-04-04T06:53:24.301Z</time></trkpt><trkpt lat="43.2137345" lon="12.252077"><ele>654.5</ele><time>2026-04-04T06:53:25.3Z</time></trkpt><trkpt lat="43.2136219" lon="12.2519476"><ele>657.25</ele><time>2026-04-04T06:53:26.301Z</time></trkpt><trkpt lat="43.2135088" lon="12.251841"><ele>660.0</ele><time>2026-04-04T06:53:27.3Z</time></trkpt><trkpt lat="43.2134137" lon="12.2517281"><ele>660.0</ele><time>2026-04-04T06:53:28.3Z</time></trkpt><trkpt lat="43.2133551" lon="12.2515786"><ele>660.0</ele><time>2026-04-04T06:53:29.3Z</time></trkpt><trkpt lat="43.2133399" lon="12.2514116"><ele>660.0</ele><time>2026-04-04T06:53:30.301Z</time></trkpt><trkpt lat="43.2133503" lon="12.2512215"><ele>660.0</ele><time>2026-04-04T06:53:31.301Z</time></trkpt><trkpt lat="43.2133857" lon="12.2510121"><ele>661.6666666666666</ele><time>2026-04-04T06:53:32.3Z</time></trkpt><trkpt lat="43.2134079" lon="12.2507904"><ele>663.3333333333333</ele><time>2026-04-04T06:53:33.3Z</time></trkpt><trkpt lat="43.2134247" lon="12.2505614"><ele>665.0</ele><time>2026-04-04T06:53:34.3Z</time></trkpt><trkpt lat="43.2134374" lon="12.2503239"><ele>666.25</ele><time>2026-04-04T06:53:35.3Z</time></trkpt><trkpt lat="43.213452" lon="12.2501038"><ele>667.5</ele><time>2026-04-04T06:53:36.301Z</time></trkpt><trkpt lat="43.2134518" lon="12.2498969"><ele>668.75</ele><time>2026-04-04T06:53:37.3Z</time></trkpt><trkpt lat="43.2134649" lon="12.2497151"><ele>670.0</ele><time>2026-04-04T06:53:38.301Z</time></trkpt><trkpt lat="43.2134825" lon="12.249569"><ele>670.4</ele><time>2026-04-04T06:53:39.301Z</time></trkpt><trkpt lat="43.2134976" lon="12.2494635"><ele>670.8</ele><time>2026-04-04T06:53:40.3Z</time></trkpt><trkpt lat="43.2135897" lon="12.249386"><ele>671.2</ele><time>2026-04-04T06:53:42.3Z</time></trkpt><trkpt lat="43.213669" lon="12.2494063"><ele>671.6</ele><time>2026-04-04T06:53:43.3Z</time></trkpt><trkpt lat="43.2137608" lon="12.2494256"><ele>672.0</ele><time>2026-04-04T06:53:44.3Z</time></trkpt><trkpt lat="43.2138739" lon="12.2494634"><ele>671.0</ele><time>2026-04-04T06:53:45.3Z</time></trkpt><trkpt lat="43.2140067" lon="12.2495303"><ele>670.0</ele><time>2026-04-04T06:53:46.3Z</time></trkpt><trkpt lat="43.2141412" lon="12.249603"><ele>669.0</ele><time>2026-04-04T06:53:47.3Z</time></trkpt><trkpt lat="43.2142843" lon="12.2496813"><ele>668.0</ele><time>2026-04-04T06:53:48.3Z</time></trkpt><trkpt lat="43.2144172" lon="12.2497302"><ele>668.0</ele><time>2026-04-04T06:53:49.301Z</time></trkpt><trkpt lat="43.214545" lon="12.249785"><ele>668.0</ele><time>2026-04-04T06:53:50.301Z</time></trkpt><trkpt lat="43.2146745" lon="12.2498404"><ele>668.0</ele><time>2026-04-04T06:53:51.3Z</time></trkpt><trkpt lat="43.2147965" lon="12.2499063"><ele>668.0</ele><time>2026-04-04T06:53:52.3Z</time></trkpt><trkpt lat="43.2149123" lon="12.2500241"><ele>671.0</ele><time>2026-04-04T06:53:53.3Z</time></trkpt><trkpt lat="43.2150022" lon="12.2501362"><ele>674.0</ele><time>2026-04-04T06:53:54.3Z</time></trkpt><trkpt lat="43.2150753" lon="12.2502835"><ele>677.0</ele><time>2026-04-04T06:53:55.3Z</time></trkpt><trkpt lat="43.21514" lon="12.2504202"><ele>680.0</ele><time>2026-04-04T06:53:56.3Z</time></trkpt><trkpt lat="43.2152027" lon="12.2505488"><ele>681.75</ele><time>2026-04-04T06:53:57.3Z</time></trkpt><trkpt lat="43.2152834" lon="12.2506511"><ele>683.5</ele><time>2026-04-04T06:53:58.3Z</time></trkpt><trkpt lat="43.2153809" lon="12.2507115"><ele>685.25</ele><time>2026-04-04T06:53:59.3Z</time></trkpt><trkpt lat="43.2154934" lon="12.2507457"><ele>687.0</ele><time>2026-04-04T06:54:00.301Z</time></trkpt><trkpt lat="43.2156139" lon="12.2507479"><ele>686.75</ele><time>2026-04-04T06:54:01.3Z</time></trkpt><trkpt lat="43.2157267" lon="12.2506866"><ele>686.5</ele><time>2026-04-04T06:54:02.3Z</time></trkpt><trkpt lat="43.2158351" lon="12.250569"><ele>686.25</ele><time>2026-04-04T06:54:03.3Z</time></trkpt><trkpt lat="43.2159384" lon="12.2504209"><ele>686.0</ele><time>2026-04-04T06:54:04.3Z</time></trkpt><trkpt lat="43.216029" lon="12.2502635"><ele>686.0</ele><time>2026-04-04T06:54:05.3Z</time></trkpt><trkpt lat="43.2160878" lon="12.2500923"><ele>686.0</ele><time>2026-04-04T06:54:06.3Z</time></trkpt><trkpt lat="43.2161244" lon="12.2499396"><ele>686.0</ele><time>2026-04-04T06:54:07.3Z</time></trkpt><trkpt lat="43.2161656" lon="12.2497823"><ele>686.0</ele><time>2026-04-04T06:54:08.301Z</time></trkpt><trkpt lat="43.2162099" lon="12.2496482"><ele>686.0</ele><time>2026-04-04T06:54:09.3Z</time></trkpt><trkpt lat="43.2162584" lon="12.2495562"><ele>686.0</ele><time>2026-04-04T06:54:10.301Z</time></trkpt><trkpt lat="43.216328" lon="12.2494911"><ele>686.0</ele><time>2026-04-04T06:54:11.301Z</time></trkpt><trkpt lat="43.2163964" lon="12.2494716"><ele>686.0</ele><time>2026-04-04T06:54:12.3Z</time></trkpt><trkpt lat="43.2164733" lon="12.249461"><ele>686.0</ele><time>2026-04-04T06:54:13.3Z</time></trkpt><trkpt lat="43.2165844" lon="12.2494511"><ele>686.0</ele><time>2026-04-04T06:54:14.3Z</time></trkpt><trkpt lat="43.216717" lon="12.2494724"><ele>686.0</ele><time>2026-04-04T06:54:15.3Z</time></trkpt><trkpt lat="43.2168876" lon="12.2494846"><ele>686.0</ele><time>2026-04-04T06:54:16.3Z</time></trkpt><trkpt lat="43.2170657" lon="12.2495212"><ele>686.0</ele><time>2026-04-04T06:54:17.3Z</time></trkpt><trkpt lat="43.2172356" lon="12.2495711"><ele>691.3333333333333</ele><time>2026-04-04T06:54:18.301Z</time></trkpt><trkpt lat="43.2174034" lon="12.2496365"><ele>696.6666666666666</ele><time>2026-04-04T06:54:19.301Z</time></trkpt><trkpt lat="43.21757" lon="12.2497221"><ele>702.0</ele><time>2026-04-04T06:54:20.3Z</time></trkpt><trkpt lat="43.2177515" lon="12.2498292"><ele>703.6666666666666</ele><time>2026-04-04T06:54:21.3Z</time></trkpt><trkpt lat="43.217917" lon="12.2499398"><ele>705.3333333333333</ele><time>2026-04-04T06:54:22.3Z</time></trkpt><trkpt lat="43.2181037" lon="12.2500592"><ele>707.0</ele><time>2026-04-04T06:54:23.301Z</time></trkpt><trkpt lat="43.2182818" lon="12.250157"><ele>707.0</ele><time>2026-04-04T06:54:24.301Z</time></trkpt><trkpt lat="43.2184669" lon="12.2502193"><ele>707.0</ele><time>2026-04-04T06:54:25.302Z</time></trkpt><trkpt lat="43.2186417" lon="12.2502457"><ele>707.0</ele><time>2026-04-04T06:54:26.301Z</time></trkpt><trkpt lat="43.218802" lon="12.2502638"><ele>707.0</ele><time>2026-04-04T06:54:27.301Z</time></trkpt><trkpt lat="43.2189454" lon="12.2503078"><ele>707.0</ele><time>2026-04-04T06:54:28.301Z</time></trkpt><trkpt lat="43.2190721" lon="12.2503859"><ele>707.0</ele><time>2026-04-04T06:54:29.301Z</time></trkpt><trkpt lat="43.219193" lon="12.2504736"><ele>707.0</ele><time>2026-04-04T06:54:30.302Z</time></trkpt><trkpt lat="43.2193077" lon="12.2505867"><ele>713.3333333333333</ele><time>2026-04-04T06:54:31.301Z</time></trkpt><trkpt lat="43.2194316" lon="12.2507239"><ele>719.6666666666666</ele><time>2026-04-04T06:54:32.301Z</time></trkpt><trkpt lat="43.2195857" lon="12.2508562"><ele>726.0</ele><time>2026-04-04T06:54:33.301Z</time></trkpt><trkpt lat="43.2197835" lon="12.2509739"><ele>724.6666666666666</ele><time>2026-04-04T06:54:34.302Z</time></trkpt><trkpt lat="43.2199745" lon="12.2510481"><ele>723.3333333333333</ele><time>2026-04-04T06:54:35.301Z</time></trkpt><trkpt lat="43.2201873" lon="12.2511082"><ele>722.0</ele><time>2026-04-04T06:54:36.301Z</time></trkpt><trkpt lat="43.2203938" lon="12.2511564"><ele>722.0</ele><time>2026-04-04T06:54:37.301Z</time></trkpt><trkpt lat="43.2205994" lon="12.2511969"><ele>722.0</ele><time>2026-04-04T06:54:38.301Z</time></trkpt><trkpt lat="43.2208086" lon="12.2512239"><ele>722.0</ele><time>2026-04-04T06:54:39.301Z</time></trkpt><trkpt lat="43.2210181" lon="12.2512395"><ele>726.3333333333333</ele><time>2026-04-04T06:54:40.301Z</time></trkpt><trkpt lat="43.2212217" lon="12.2512455"><ele>730.6666666666666</ele><time>2026-04-04T06:54:41.301Z</time></trkpt><trkpt lat="43.2214308" lon="12.2512483"><ele>735.0</ele><time>2026-04-04T06:54:42.301Z</time></trkpt><trkpt lat="43.2216188" lon="12.2512557"><ele>737.6666666666666</ele><time>2026-04-04T06:54:43.301Z</time></trkpt><trkpt lat="43.2218236" lon="12.2512441"><ele>740.3333333333333</ele><time>2026-04-04T06:54:44.301Z</time></trkpt><trkpt lat="43.2220217" lon="12.2512222"><ele>743.0</ele><time>2026-04-04T06:54:45.301Z</time></trkpt><trkpt lat="43.2222302" lon="12.251201"><ele>745.3333333333333</ele><time>2026-04-04T06:54:46.301Z</time></trkpt><trkpt lat="43.2224383" lon="12.2511816"><ele>747.6666666666666</ele><time>2026-04-04T06:54:47.301Z</time></trkpt><trkpt lat="43.2226405" lon="12.2511991"><ele>750.0</ele><time>2026-04-04T06:54:48.301Z</time></trkpt><trkpt lat="43.2228371" lon="12.2512485"><ele>750.0</ele><time>2026-04-04T06:54:49.301Z</time></trkpt><trkpt lat="43.2230445" lon="12.2513163"><ele>750.0</ele><time>2026-04-04T06:54:50.301Z</time></trkpt><trkpt lat="43.2232453" lon="12.2513392"><ele>750.0</ele><time>2026-04-04T06:54:51.301Z</time></trkpt><trkpt lat="43.2234453" lon="12.2513636"><ele>754.3333333333334</ele><time>2026-04-04T06:54:52.301Z</time></trkpt><trkpt lat="43.2236432" lon="12.2513623"><ele>758.6666666666667</ele><time>2026-04-04T06:54:53.302Z</time></trkpt><trkpt lat="43.223825" lon="12.2513409"><ele>763.0</ele><time>2026-04-04T06:54:54.302Z</time></trkpt><trkpt lat="43.2240097" lon="12.251283"><ele>763.6666666666667</ele><time>2026-04-04T06:54:55.301Z</time></trkpt><trkpt lat="43.2241955" lon="12.2511791"><ele>764.3333333333334</ele><time>2026-04-04T06:54:56.301Z</time></trkpt><trkpt lat="43.2243768" lon="12.251054"><ele>765.0</ele><time>2026-04-04T06:54:57.302Z</time></trkpt><trkpt lat="43.2245708" lon="12.250928"><ele>765.0</ele><time>2026-04-04T06:54:58.302Z</time></trkpt><trkpt lat="43.224778" lon="12.2507703"><ele>765.0</ele><time>2026-04-04T06:54:59.301Z</time></trkpt><trkpt lat="43.2249905" lon="12.2506333"><ele>760.5</ele><time>2026-04-04T06:55:00.301Z</time></trkpt><trkpt lat="43.2252069" lon="12.2504936"><ele>756.0</ele><time>2026-04-04T06:55:01.302Z</time></trkpt><trkpt lat="43.2254107" lon="12.2503695"><ele>756.0</ele><time>2026-04-04T06:55:02.301Z</time></trkpt><trkpt lat="43.2256263" lon="12.250269"><ele>756.0</ele><time>2026-04-04T06:55:03.301Z</time></trkpt><trkpt lat="43.2258329" lon="12.2501927"><ele>756.0</ele><time>2026-04-04T06:55:04.301Z</time></trkpt><trkpt lat="43.2260475" lon="12.2501572"><ele>756.3333333333334</ele><time>2026-04-04T06:55:05.301Z</time></trkpt><trkpt lat="43.2262607" lon="12.2501305"><ele>756.6666666666667</ele><time>2026-04-04T06:55:06.301Z</time></trkpt><trkpt lat="43.2264926" lon="12.2501453"><ele>757.0</ele><time>2026-04-04T06:55:07.301Z</time></trkpt><trkpt lat="43.2267206" lon="12.2501619"><ele>760.5</ele><time>2026-04-04T06:55:08.302Z</time></trkpt><trkpt lat="43.2269598" lon="12.2502058"><ele>764.0</ele><time>2026-04-04T06:55:09.301Z</time></trkpt><trkpt lat="43.227175" lon="12.2502287"><ele>767.3333333333333</ele><time>2026-04-04T06:55:10.302Z</time></trkpt><trkpt lat="43.227382" lon="12.2502569"><ele>770.6666666666666</ele><time>2026-04-04T06:55:11.301Z</time></trkpt><trkpt lat="43.2275901" lon="12.2502833"><ele>774.0</ele><time>2026-04-04T06:55:12.301Z</time></trkpt><trkpt lat="43.2277799" lon="12.2503077"><ele>774.0</ele><time>2026-04-04T06:55:13.301Z</time></trkpt><trkpt lat="43.2279128" lon="12.2503212"><ele>774.0</ele><time>2026-04-04T06:55:14.301Z</time></trkpt><trkpt lat="43.2279907" lon="12.25033"><ele>774.0</ele><time>2026-04-04T06:55:15.301Z</time></trkpt><trkpt lat="43.228067" lon="12.2503262"><ele>774.0</ele><time>2026-04-04T06:55:17.301Z</time></trkpt><trkpt lat="43.2281517" lon="12.250323"><ele>774.0</ele><time>2026-04-04T06:55:19.301Z</time></trkpt><trkpt lat="43.2282119" lon="12.2502914"><ele>774.0</ele><time>2026-04-04T06:55:22.302Z</time></trkpt><trkpt lat="43.2282765" lon="12.2502417"><ele>774.5</ele><time>2026-04-04T06:55:26.302Z</time></trkpt><trkpt lat="43.2283452" lon="12.2502022"><ele>775.0</ele><time>2026-04-04T06:55:31.303Z</time></trkpt><trkpt lat="43.2283925" lon="12.250129"><ele>775.5</ele><time>2026-04-04T06:55:34.302Z</time></trkpt><trkpt lat="43.228447" lon="12.2500775"><ele>776.0</ele><time>2026-04-04T06:55:37.302Z</time></trkpt><trkpt lat="43.2284896" lon="12.2500082"><ele>776.5</ele><time>2026-04-04T06:55:46.302Z</time></trkpt><trkpt lat="43.2285514" lon="12.2499219"><ele>777.0</ele><time>2026-04-04T06:55:49.303Z</time></trkpt><trkpt lat="43.2286221" lon="12.2498578"><ele>777.0</ele><time>2026-04-04T06:55:52.302Z</time></trkpt><trkpt lat="43.2286864" lon="12.2498019"><ele>777.0</ele><time>2026-04-04T06:55:56.302Z</time></trkpt><trkpt lat="43.228736" lon="12.2497324"><ele>777.0</ele><time>2026-04-04T06:56:01.302Z</time></trkpt><trkpt lat="43.2288052" lon="12.2496187"><ele>777.0</ele><time>2026-04-04T06:58:55.306Z</time></trkpt><trkpt lat="43.2289023" lon="12.2494978"><ele>777.0</ele><time>2026-04-04T06:58:57.305Z</time></trkpt><trkpt lat="43.2289661" lon="12.2494395"><ele>777.8</ele><time>2026-04-04T06:58:58.305Z</time></trkpt><trkpt lat="43.2290433" lon="12.2493852"><ele>778.6</ele><time>2026-04-04T06:58:59.305Z</time></trkpt><trkpt lat="43.2291218" lon="12.2493354"><ele>779.4</ele><time>2026-04-04T06:59:00.306Z</time></trkpt><trkpt lat="43.2292106" lon="12.2492884"><ele>780.1999999999999</ele><time>2026-04-04T06:59:01.305Z</time></trkpt><trkpt lat="43.2293026" lon="12.2492615"><ele>781.0</ele><time>2026-04-04T06:59:02.305Z</time></trkpt><trkpt lat="43.2293938" lon="12.2492434"><ele>781.0</ele><time>2026-04-04T06:59:03.305Z</time></trkpt><trkpt lat="43.2294939" lon="12.2492359"><ele>781.0</ele><time>2026-04-04T06:59:04.305Z</time></trkpt><trkpt lat="43.2296201" lon="12.2492256"><ele>781.0</ele><time>2026-04-04T06:59:05.305Z</time></trkpt><trkpt lat="43.2297472" lon="12.2492096"><ele>781.0</ele><time>2026-04-04T06:59:06.306Z</time></trkpt><trkpt lat="43.2298741" lon="12.2491734"><ele>780.0</ele><time>2026-04-04T06:59:07.306Z</time></trkpt><trkpt lat="43.2299988" lon="12.2491223"><ele>779.0</ele><time>2026-04-04T06:59:08.305Z</time></trkpt><trkpt lat="43.2301074" lon="12.2490618"><ele>778.0</ele><time>2026-04-04T06:59:09.305Z</time></trkpt><trkpt lat="43.2302146" lon="12.2489889"><ele>777.0</ele><time>2026-04-04T06:59:10.305Z</time></trkpt><trkpt lat="43.2303349" lon="12.2489104"><ele>776.75</ele><time>2026-04-04T06:59:11.305Z</time></trkpt><trkpt lat="43.2304601" lon="12.2488427"><ele>776.5</ele><time>2026-04-04T06:59:12.305Z</time></trkpt><trkpt lat="43.2305869" lon="12.2487818"><ele>776.25</ele><time>2026-04-04T06:59:13.305Z</time></trkpt><trkpt lat="43.2307242" lon="12.2487251"><ele>776.0</ele><time>2026-04-04T06:59:14.305Z</time></trkpt><trkpt lat="43.2308739" lon="12.2486636"><ele>776.0</ele><time>2026-04-04T06:59:15.305Z</time></trkpt><trkpt lat="43.2310265" lon="12.2485931"><ele>776.0</ele><time>2026-04-04T06:59:16.305Z</time></trkpt><trkpt lat="43.2311826" lon="12.2485124"><ele>776.0</ele><time>2026-04-04T06:59:17.305Z</time></trkpt><trkpt lat="43.2313406" lon="12.248427"><ele>771.0</ele><time>2026-04-04T06:59:18.306Z</time></trkpt><trkpt lat="43.2315015" lon="12.2483407"><ele>766.0</ele><time>2026-04-04T06:59:19.305Z</time></trkpt><trkpt lat="43.23166" lon="12.2482563"><ele>761.0</ele><time>2026-04-04T06:59:20.305Z</time></trkpt><trkpt lat="43.2318114" lon="12.248172"><ele>758.6666666666666</ele><time>2026-04-04T06:59:21.305Z</time></trkpt><trkpt lat="43.2319658" lon="12.248086"><ele>756.3333333333334</ele><time>2026-04-04T06:59:22.305Z</time></trkpt><trkpt lat="43.2321116" lon="12.247997"><ele>754.0</ele><time>2026-04-04T06:59:23.305Z</time></trkpt><trkpt lat="43.2322539" lon="12.2478992"><ele>755.75</ele><time>2026-04-04T06:59:24.305Z</time></trkpt><trkpt lat="43.2323805" lon="12.2477831"><ele>757.5</ele><time>2026-04-04T06:59:25.305Z</time></trkpt><trkpt lat="43.232484" lon="12.2476526"><ele>759.25</ele><time>2026-04-04T06:59:26.306Z</time></trkpt><trkpt lat="43.2325748" lon="12.2475056"><ele>761.0</ele><time>2026-04-04T06:59:27.306Z</time></trkpt><trkpt lat="43.2326293" lon="12.2473444"><ele>759.0</ele><time>2026-04-04T06:59:28.306Z</time></trkpt><trkpt lat="43.2326513" lon="12.2471766"><ele>757.0</ele><time>2026-04-04T06:59:29.306Z</time></trkpt><trkpt lat="43.2326808" lon="12.2470099"><ele>755.0</ele><time>2026-04-04T06:59:30.306Z</time></trkpt><trkpt lat="43.2291218" lon="12.2493354"><ele>760.2</ele><time>2026-04-04T06:59:00.306Z</time></trkpt><trkpt lat="43.2292106" lon="12.2492884"><ele>765.4</ele><time>2026-04-04T06:59:01.305Z</time></trkpt><trkpt lat="43.2293026" lon="12.2492615"><ele>770.5999999999999</ele><time>2026-04-04T06:59:02.305Z</time></trkpt><trkpt lat="43.2293938" lon="12.2492434"><ele>775.8</ele><time>2026-04-04T06:59:03.305Z</time></trkpt><trkpt lat="43.2294939" lon="12.2492359"><ele>781.0</ele><time>2026-04-04T06:59:04.305Z</time></trkpt><trkpt lat="43.2296201" lon="12.2492256"><ele>781.0</ele><time>2026-04-04T06:59:05.305Z</time></trkpt><trkpt lat="43.2297472" lon="12.2492096"><ele>781.0</ele><time>2026-04-04T06:59:06.306Z</time></trkpt><trkpt lat="43.2298741" lon="12.2491734"><ele>781.0</ele><time>2026-04-04T06:59:07.306Z</time></trkpt><trkpt lat="43.2299988" lon="12.2491223"><ele>781.0</ele><time>2026-04-04T06:59:08.305Z</time></trkpt><trkpt lat="43.2301074" lon="12.2490618"><ele>780.0</ele><time>2026-04-04T06:59:09.305Z</time></trkpt><trkpt lat="43.2302146" lon="12.2489889"><ele>779.0</ele><time>2026-04-04T06:59:10.305Z</time></trkpt><trkpt lat="43.2303349" lon="12.2489104"><ele>778.0</ele><time>2026-04-04T06:59:11.305Z</time></trkpt><trkpt lat="43.2304601" lon="12.2488427"><ele>777.0</ele><time>2026-04-04T06:59:12.305Z</time></trkpt><trkpt lat="43.2305869" lon="12.2487818"><ele>776.6666666666667</ele><time>2026-04-04T06:59:13.305Z</time></trkpt><trkpt lat="43.2307242" lon="12.2487251"><ele>776.3333333333334</ele><time>2026-04-04T06:59:14.305Z</time></trkpt><trkpt lat="43.2308739" lon="12.2486636"><ele>776.0</ele><time>2026-04-04T06:59:15.305Z</time></trkpt><trkpt lat="43.2310265" lon="12.2485931"><ele>776.0</ele><time>2026-04-04T06:59:16.305Z</time></trkpt><trkpt lat="43.2311826" lon="12.2485124"><ele>776.0</ele><time>2026-04-04T06:59:17.305Z</time></trkpt><trkpt lat="43.2313406" lon="12.248427"><ele>776.0</ele><time>2026-04-04T06:59:18.306Z</time></trkpt><trkpt lat="43.2315015" lon="12.2483407"><ele>771.0</ele><time>2026-04-04T06:59:19.305Z</time></trkpt><trkpt lat="43.23166" lon="12.2482563"><ele>766.0</ele><time>2026-04-04T06:59:20.305Z</time></trkpt><trkpt lat="43.2318114" lon="12.248172"><ele>761.0</ele><time>2026-04-04T06:59:21.305Z</time></trkpt><trkpt lat="43.2319658" lon="12.248086"><ele>761.0</ele><time>2026-04-04T06:59:22.305Z</time></trkpt><trkpt lat="43.2321116" lon="12.247997"><ele>761.0</ele><time>2026-04-04T06:59:23.305Z</time></trkpt><trkpt lat="43.2322539" lon="12.2478992"><ele>761.0</ele><time>2026-04-04T06:59:24.305Z</time></trkpt><trkpt lat="43.2323805" lon="12.2477831"><ele>761.0</ele><time>2026-04-04T06:59:25.305Z</time></trkpt><trkpt lat="43.232484" lon="12.2476526"><ele>761.0</ele><time>2026-04-04T06:59:26.306Z</time></trkpt><trkpt lat="43.2325748" lon="12.2475056"><ele>761.0</ele><time>2026-04-04T06:59:27.306Z</time></trkpt><trkpt lat="43.2326293" lon="12.2473444"><ele>761.0</ele><time>2026-04-04T06:59:28.306Z</time></trkpt><trkpt lat="43.2326513" lon="12.2471766"><ele>759.8</ele><time>2026-04-04T06:59:29.306Z</time></trkpt><trkpt lat="43.2326808" lon="12.2470099"><ele>758.5999999999999</ele><time>2026-04-04T06:59:30.306Z</time></trkpt><trkpt lat="43.2327301" lon="12.2468975"><ele>757.4</ele><time>2026-04-04T06:59:31.307Z</time></trkpt><trkpt lat="43.2328063" lon="12.2468164"><ele>756.2</ele><time>2026-04-04T06:59:32.307Z</time></trkpt><trkpt lat="43.2329025" lon="12.2467673"><ele>755.0</ele><time>2026-04-04T06:59:33.307Z</time></trkpt><trkpt lat="43.2330224" lon="12.2467462"><ele>755.0</ele><time>2026-04-04T06:59:34.306Z</time></trkpt><trkpt lat="43.233159" lon="12.2467382"><ele>755.0</ele><time>2026-04-04T06:59:35.306Z</time></trkpt><trkpt lat="43.2333035" lon="12.2467397"><ele>755.0</ele><time>2026-04-04T06:59:36.306Z</time></trkpt><trkpt lat="43.2334543" lon="12.2467542"><ele>755.0</ele><time>2026-04-04T06:59:37.306Z</time></trkpt><trkpt lat="43.2336103" lon="12.2467693"><ele>755.0</ele><time>2026-04-04T06:59:38.306Z</time></trkpt><trkpt lat="43.233774" lon="12.246785"><ele>755.0</ele><time>2026-04-04T06:59:39.306Z</time></trkpt><trkpt lat="43.233955" lon="12.2467949"><ele>755.0</ele><time>2026-04-04T06:59:40.306Z</time></trkpt><trkpt lat="43.2341276" lon="12.2467612"><ele>752.6666666666666</ele><time>2026-04-04T06:59:41.306Z</time></trkpt><trkpt lat="43.2342954" lon="12.2466958"><ele>750.3333333333334</ele><time>2026-04-04T06:59:42.306Z</time></trkpt><trkpt lat="43.2344468" lon="12.2466021"><ele>748.0</ele><time>2026-04-04T06:59:43.307Z</time></trkpt><trkpt lat="43.2345961" lon="12.2465092"><ele>744.0</ele><time>2026-04-04T06:59:44.307Z</time></trkpt><trkpt lat="43.2347316" lon="12.2464294"><ele>740.0</ele><time>2026-04-04T06:59:45.306Z</time></trkpt><trkpt lat="43.2348694" lon="12.2463544"><ele>736.0</ele><time>2026-04-04T06:59:46.306Z</time></trkpt><trkpt lat="43.235007" lon="12.2462977"><ele>732.0</ele><time>2026-04-04T06:59:47.307Z</time></trkpt><trkpt lat="43.2351279" lon="12.2462705"><ele>732.0</ele><time>2026-04-04T06:59:48.307Z</time></trkpt><trkpt lat="43.2352434" lon="12.2462666"><ele>732.0</ele><time>2026-04-04T06:59:49.306Z</time></trkpt><trkpt lat="43.2353759" lon="12.2463028"><ele>732.0</ele><time>2026-04-04T06:59:50.306Z</time></trkpt><trkpt lat="43.2354968" lon="12.246376"><ele>732.0</ele><time>2026-04-04T06:59:51.306Z</time></trkpt><trkpt lat="43.2356111" lon="12.2464298"><ele>731.5</ele><time>2026-04-04T06:59:52.306Z</time></trkpt><trkpt lat="43.2357362" lon="12.2464617"><ele>731.0</ele><time>2026-04-04T06:59:53.306Z</time></trkpt><trkpt lat="43.2358501" lon="12.2464675"><ele>730.5</ele><time>2026-04-04T06:59:54.307Z</time></trkpt><trkpt lat="43.2359633" lon="12.2464065"><ele>730.0</ele><time>2026-04-04T06:59:55.306Z</time></trkpt><trkpt lat="43.2360645" lon="12.2462991"><ele>728.3333333333334</ele><time>2026-04-04T06:59:56.307Z</time></trkpt><trkpt lat="43.2362034" lon="12.2460568"><ele>726.6666666666666</ele><time>2026-04-04T06:59:57.306Z</time></trkpt><trkpt lat="43.2362967" lon="12.2458827"><ele>725.0</ele><time>2026-04-04T06:59:58.306Z</time></trkpt><trkpt lat="43.2364186" lon="12.2457034"><ele>725.3333333333333</ele><time>2026-04-04T06:59:59.307Z</time></trkpt><trkpt lat="43.2365588" lon="12.2455221"><ele>725.6666666666666</ele><time>2026-04-04T07:00:00.306Z</time></trkpt><trkpt lat="43.2366953" lon="12.2453582"><ele>726.0</ele><time>2026-04-04T07:00:01.306Z</time></trkpt><trkpt lat="43.2368385" lon="12.2452014"><ele>726.0</ele><time>2026-04-04T07:00:02.306Z</time></trkpt><trkpt lat="43.2369989" lon="12.245053"><ele>726.0</ele><time>2026-04-04T07:00:03.306Z</time></trkpt><trkpt lat="43.2371621" lon="12.2449066"><ele>726.0</ele><time>2026-04-04T07:00:04.306Z</time></trkpt><trkpt lat="43.2373251" lon="12.244772"><ele>722.3333333333334</ele><time>2026-04-04T07:00:05.307Z</time></trkpt><trkpt lat="43.2374855" lon="12.2446462"><ele>718.6666666666667</ele><time>2026-04-04T07:00:06.306Z</time></trkpt><trkpt lat="43.2376487" lon="12.2445235"><ele>715.0</ele><time>2026-04-04T07:00:07.306Z</time></trkpt><trkpt lat="43.2378045" lon="12.2444097"><ele>715.0</ele><time>2026-04-04T07:00:08.306Z</time></trkpt><trkpt lat="43.237958" lon="12.2443005"><ele>715.0</ele><time>2026-04-04T07:00:09.306Z</time></trkpt><trkpt lat="43.238106" lon="12.2442144"><ele>715.0</ele><time>2026-04-04T07:00:10.307Z</time></trkpt><trkpt lat="43.2382447" lon="12.2441281"><ele>715.25</ele><time>2026-04-04T07:00:11.306Z</time></trkpt><trkpt lat="43.2383838" lon="12.2440672"><ele>715.5</ele><time>2026-04-04T07:00:12.306Z</time></trkpt><trkpt lat="43.2385286" lon="12.2440307"><ele>715.75</ele><time>2026-04-04T07:00:13.306Z</time></trkpt><trkpt lat="43.2386765" lon="12.2440036"><ele>716.0</ele><time>2026-04-04T07:00:14.306Z</time></trkpt><trkpt lat="43.2388243" lon="12.2439384"><ele>716.3333333333333</ele><time>2026-04-04T07:00:15.306Z</time></trkpt><trkpt lat="43.2389651" lon="12.2438254"><ele>716.6666666666666</ele><time>2026-04-04T07:00:16.306Z</time></trkpt><trkpt lat="43.2391035" lon="12.2436696"><ele>717.0</ele><time>2026-04-04T07:00:17.306Z</time></trkpt><trkpt lat="43.2392399" lon="12.2434975"><ele>714.0</ele><time>2026-04-04T07:00:18.306Z</time></trkpt><trkpt lat="43.2393727" lon="12.2433363"><ele>711.0</ele><time>2026-04-04T07:00:19.306Z</time></trkpt><trkpt lat="43.2395328" lon="12.2431867"><ele>708.0</ele><time>2026-04-04T07:00:20.307Z</time></trkpt><trkpt lat="43.239664" lon="12.2430442"><ele>705.6666666666666</ele><time>2026-04-04T07:00:21.306Z</time></trkpt><trkpt lat="43.2397963" lon="12.2429145"><ele>703.3333333333333</ele><time>2026-04-04T07:00:22.306Z</time></trkpt><trkpt lat="43.239929" lon="12.2427847"><ele>701.0</ele><time>2026-04-04T07:00:23.306Z</time></trkpt><trkpt lat="43.2400602" lon="12.2426607"><ele>700.0</ele><time>2026-04-04T07:00:24.306Z</time></trkpt><trkpt lat="43.240181" lon="12.2425507"><ele>699.0</ele><time>2026-04-04T07:00:25.306Z</time></trkpt><trkpt lat="43.2402813" lon="12.2424477"><ele>698.0</ele><time>2026-04-04T07:00:26.306Z</time></trkpt><trkpt lat="43.2403575" lon="12.2423508"><ele>697.0</ele><time>2026-04-04T07:00:27.306Z</time></trkpt><trkpt lat="43.2404019" lon="12.2422446"><ele>696.0</ele><time>2026-04-04T07:00:28.307Z</time></trkpt><trkpt lat="43.2404181" lon="12.2421154"><ele>695.0</ele><time>2026-04-04T07:00:29.306Z</time></trkpt><trkpt lat="43.2404155" lon="12.241953"><ele>694.0</ele><time>2026-04-04T07:00:30.307Z</time></trkpt><trkpt lat="43.2404089" lon="12.2417878"><ele>693.0</ele><time>2026-04-04T07:00:31.308Z</time></trkpt><trkpt lat="43.240433" lon="12.2415972"><ele>688.6666666666666</ele><time>2026-04-04T07:00:32.307Z</time></trkpt><trkpt lat="43.2404757" lon="12.2414017"><ele>684.3333333333333</ele><time>2026-04-04T07:00:33.307Z</time></trkpt><trkpt lat="43.2405443" lon="12.2411947"><ele>680.0</ele><time>2026-04-04T07:00:34.307Z</time></trkpt><trkpt lat="43.240596" lon="12.2409894"><ele>679.6666666666666</ele><time>2026-04-04T07:00:35.307Z</time></trkpt><trkpt lat="43.2406682" lon="12.2407624"><ele>679.3333333333334</ele><time>2026-04-04T07:00:36.307Z</time></trkpt><trkpt lat="43.2407298" lon="12.2405651"><ele>679.0</ele><time>2026-04-04T07:00:37.307Z</time></trkpt><trkpt lat="43.2407856" lon="12.2403627"><ele>679.0</ele><time>2026-04-04T07:00:38.307Z</time></trkpt><trkpt lat="43.2408473" lon="12.2401741"><ele>679.0</ele><time>2026-04-04T07:00:39.307Z</time></trkpt><trkpt lat="43.2409077" lon="12.2400223"><ele>679.0</ele><time>2026-04-04T07:00:40.308Z</time></trkpt><trkpt lat="43.2409845" lon="12.2399127"><ele>679.0</ele><time>2026-04-04T07:00:41.307Z</time></trkpt><trkpt lat="43.2411396" lon="12.2398077"><ele>678.3333333333334</ele><time>2026-04-04T07:00:42.307Z</time></trkpt><trkpt lat="43.2412863" lon="12.2397079"><ele>677.6666666666666</ele><time>2026-04-04T07:00:43.307Z</time></trkpt><trkpt lat="43.241455" lon="12.2396058"><ele>677.0</ele><time>2026-04-04T07:00:44.307Z</time></trkpt><trkpt lat="43.2415839" lon="12.2395027"><ele>677.0</ele><time>2026-04-04T07:00:45.307Z</time></trkpt><trkpt lat="43.2417108" lon="12.2393961"><ele>677.0</ele><time>2026-04-04T07:00:46.307Z</time></trkpt><trkpt lat="43.2418749" lon="12.2393072"><ele>677.0</ele><time>2026-04-04T07:00:47.307Z</time></trkpt><trkpt lat="43.2419898" lon="12.2391952"><ele>677.0</ele><time>2026-04-04T07:00:48.307Z</time></trkpt><trkpt lat="43.2420932" lon="12.2391161"><ele>677.0</ele><time>2026-04-04T07:00:49.307Z</time></trkpt><trkpt lat="43.2422011" lon="12.2390866"><ele>677.0</ele><time>2026-04-04T07:00:50.307Z</time></trkpt><trkpt lat="43.2423977" lon="12.2391222"><ele>677.0</ele><time>2026-04-04T07:00:52.308Z</time></trkpt><trkpt lat="43.2425314" lon="12.2391977"><ele>677.0</ele><time>2026-04-04T07:00:53.307Z</time></trkpt><trkpt lat="43.2426901" lon="12.2392709"><ele>677.0</ele><time>2026-04-04T07:00:54.307Z</time></trkpt><trkpt lat="43.242858" lon="12.2393103"><ele>677.0</ele><time>2026-04-04T07:00:55.307Z</time></trkpt><trkpt lat="43.2430511" lon="12.2393524"><ele>674.3333333333333</ele><time>2026-04-04T07:00:56.307Z</time></trkpt><trkpt lat="43.2432386" lon="12.2393582"><ele>671.6666666666666</ele><time>2026-04-04T07:00:57.307Z</time></trkpt><trkpt lat="43.2434302" lon="12.239353"><ele>669.0</ele><time>2026-04-04T07:00:58.307Z</time></trkpt><trkpt lat="43.2436111" lon="12.2393366"><ele>669.0</ele><time>2026-04-04T07:00:59.307Z</time></trkpt><trkpt lat="43.2437837" lon="12.2393136"><ele>669.0</ele><time>2026-04-04T07:01:00.307Z</time></trkpt><trkpt lat="43.2439448" lon="12.2392811"><ele>669.0</ele><time>2026-04-04T07:01:01.307Z</time></trkpt><trkpt lat="43.2440983" lon="12.2392555"><ele>667.75</ele><time>2026-04-04T07:01:02.308Z</time></trkpt><trkpt lat="43.2442285" lon="12.239247"><ele>666.5</ele><time>2026-04-04T07:01:03.308Z</time></trkpt><trkpt lat="43.2443497" lon="12.239294"><ele>665.25</ele><time>2026-04-04T07:01:04.307Z</time></trkpt><trkpt lat="43.2444486" lon="12.2393869"><ele>664.0</ele><time>2026-04-04T07:01:05.308Z</time></trkpt><trkpt lat="43.2445297" lon="12.2394853"><ele>664.0</ele><time>2026-04-04T07:01:06.307Z</time></trkpt><trkpt lat="43.2446025" lon="12.2395515"><ele>664.0</ele><time>2026-04-04T07:01:07.307Z</time></trkpt><trkpt lat="43.2447051" lon="12.2395671"><ele>664.0</ele><time>2026-04-04T07:01:08.307Z</time></trkpt><trkpt lat="43.2448105" lon="12.2395532"><ele>664.0</ele><time>2026-04-04T07:01:09.307Z</time></trkpt><trkpt lat="43.244905" lon="12.23948"><ele>664.0</ele><time>2026-04-04T07:01:10.307Z</time></trkpt><trkpt lat="43.2449861" lon="12.2393623"><ele>662.3333333333334</ele><time>2026-04-04T07:01:11.308Z</time></trkpt><trkpt lat="43.2451785" lon="12.2391139"><ele>660.6666666666666</ele><time>2026-04-04T07:01:13.307Z</time></trkpt><trkpt lat="43.2452795" lon="12.2390212"><ele>659.0</ele><time>2026-04-04T07:01:14.307Z</time></trkpt><trkpt lat="43.2454041" lon="12.238947"><ele>658.2</ele><time>2026-04-04T07:01:15.307Z</time></trkpt><trkpt lat="43.2455219" lon="12.2389019"><ele>657.4000000000001</ele><time>2026-04-04T07:01:16.308Z</time></trkpt><trkpt lat="43.2456265" lon="12.2389114"><ele>656.6</ele><time>2026-04-04T07:01:17.307Z</time></trkpt><trkpt lat="43.2457188" lon="12.2389704"><ele>655.8</ele><time>2026-04-04T07:01:18.307Z</time></trkpt><trkpt lat="43.2458157" lon="12.2390533"><ele>655.0</ele><time>2026-04-04T07:01:19.308Z</time></trkpt><trkpt lat="43.2459126" lon="12.2391282"><ele>655.0</ele><time>2026-04-04T07:01:20.307Z</time></trkpt><trkpt lat="43.2460178" lon="12.2391935"><ele>655.0</ele><time>2026-04-04T07:01:21.308Z</time></trkpt><trkpt lat="43.2461252" lon="12.2392552"><ele>655.0</ele><time>2026-04-04T07:01:22.307Z</time></trkpt><trkpt lat="43.2462148" lon="12.2392478"><ele>655.0</ele><time>2026-04-04T07:01:23.308Z</time></trkpt><trkpt lat="43.2463049" lon="12.2391917"><ele>655.0</ele><time>2026-04-04T07:01:24.307Z</time></trkpt><trkpt lat="43.246377" lon="12.2390992"><ele>655.0</ele><time>2026-04-04T07:01:25.308Z</time></trkpt><trkpt lat="43.2464517" lon="12.2389772"><ele>655.0</ele><time>2026-04-04T07:01:26.307Z</time></trkpt><trkpt lat="43.2465443" lon="12.2388142"><ele>655.0</ele><time>2026-04-04T07:01:27.307Z</time></trkpt><trkpt lat="43.2466598" lon="12.2386367"><ele>655.0</ele><time>2026-04-04T07:01:28.308Z</time></trkpt><trkpt lat="43.246763" lon="12.2384713"><ele>651.3333333333334</ele><time>2026-04-04T07:01:29.308Z</time></trkpt><trkpt lat="43.2468757" lon="12.2382906"><ele>647.6666666666666</ele><time>2026-04-04T07:01:30.307Z</time></trkpt><trkpt lat="43.2469791" lon="12.238116"><ele>644.0</ele><time>2026-04-04T07:01:31.309Z</time></trkpt><trkpt lat="43.2470899" lon="12.2379196"><ele>641.3333333333333</ele><time>2026-04-04T07:01:32.308Z</time></trkpt><trkpt lat="43.2471783" lon="12.2377185"><ele>638.6666666666666</ele><time>2026-04-04T07:01:33.308Z</time></trkpt><trkpt lat="43.2472467" lon="12.2373605"><ele>636.0</ele><time>2026-04-04T07:01:34.309Z</time></trkpt><trkpt lat="43.247304" lon="12.23718"><ele>636.0</ele><time>2026-04-04T07:01:35.309Z</time></trkpt><trkpt lat="43.2473666" lon="12.2370014"><ele>636.0</ele><time>2026-04-04T07:01:36.308Z</time></trkpt><trkpt lat="43.2474251" lon="12.2368337"><ele>636.0</ele><time>2026-04-04T07:01:37.308Z</time></trkpt><trkpt lat="43.2474825" lon="12.2366605"><ele>636.0</ele><time>2026-04-04T07:01:38.308Z</time></trkpt><trkpt lat="43.2475266" lon="12.2364786"><ele>633.0</ele><time>2026-04-04T07:01:39.309Z</time></trkpt><trkpt lat="43.247555" lon="12.2361703"><ele>630.0</ele><time>2026-04-04T07:01:40.308Z</time></trkpt><trkpt lat="43.2475743" lon="12.2359845"><ele>627.0</ele><time>2026-04-04T07:01:41.308Z</time></trkpt><trkpt lat="43.2475993" lon="12.2358191"><ele>627.0</ele><time>2026-04-04T07:01:42.308Z</time></trkpt><trkpt lat="43.2476351" lon="12.2356669"><ele>627.0</ele><time>2026-04-04T07:01:43.308Z</time></trkpt><trkpt lat="43.2476963" lon="12.2355349"><ele>627.0</ele><time>2026-04-04T07:01:44.308Z</time></trkpt><trkpt lat="43.2477653" lon="12.2354066"><ele>627.0</ele><time>2026-04-04T07:01:45.308Z</time></trkpt><trkpt lat="43.2478304" lon="12.2352852"><ele>627.0</ele><time>2026-04-04T07:01:46.308Z</time></trkpt><trkpt lat="43.2478749" lon="12.2351762"><ele>627.0</ele><time>2026-04-04T07:01:47.308Z</time></trkpt><trkpt lat="43.2478903" lon="12.2350426"><ele>627.0</ele><time>2026-04-04T07:01:48.309Z</time></trkpt><trkpt lat="43.2478825" lon="12.2349155"><ele>627.0</ele><time>2026-04-04T07:01:49.309Z</time></trkpt><trkpt lat="43.247853" lon="12.2347808"><ele>627.0</ele><time>2026-04-04T07:01:50.308Z</time></trkpt><trkpt lat="43.2478003" lon="12.2346647"><ele>627.0</ele><time>2026-04-04T07:01:51.309Z</time></trkpt><trkpt lat="43.2476797" lon="12.2345665"><ele>627.0</ele><time>2026-04-04T07:01:52.309Z</time></trkpt><trkpt lat="43.2475315" lon="12.2345111"><ele>627.0</ele><time>2026-04-04T07:01:53.308Z</time></trkpt><trkpt lat="43.2474055" lon="12.2344378"><ele>627.0</ele><time>2026-04-04T07:01:54.308Z</time></trkpt><trkpt lat="43.2472187" lon="12.2343364"><ele>621.5</ele><time>2026-04-04T07:01:55.308Z</time></trkpt><trkpt lat="43.2471136" lon="12.2342458"><ele>616.0</ele><time>2026-04-04T07:01:56.308Z</time></trkpt><trkpt lat="43.247013" lon="12.2341296"><ele>610.5</ele><time>2026-04-04T07:01:57.308Z</time></trkpt><trkpt lat="43.2469276" lon="12.2340206"><ele>605.0</ele><time>2026-04-04T07:01:58.308Z</time></trkpt><trkpt lat="43.2468578" lon="12.2338934"><ele>605.0</ele><time>2026-04-04T07:01:59.308Z</time></trkpt><trkpt lat="43.246801" lon="12.2337112"><ele>605.0</ele><time>2026-04-04T07:02:00.308Z</time></trkpt><trkpt lat="43.246758" lon="12.2334895"><ele>605.0</ele><time>2026-04-04T07:02:01.308Z</time></trkpt><trkpt lat="43.2467178" lon="12.2332498"><ele>607.3333333333333</ele><time>2026-04-04T07:02:02.308Z</time></trkpt><trkpt lat="43.246682" lon="12.2330005"><ele>609.6666666666666</ele><time>2026-04-04T07:02:03.308Z</time></trkpt><trkpt lat="43.2466155" lon="12.2327383"><ele>612.0</ele><time>2026-04-04T07:02:04.308Z</time></trkpt><trkpt lat="43.2465534" lon="12.2324862"><ele>613.3333333333334</ele><time>2026-04-04T07:02:05.308Z</time></trkpt><trkpt lat="43.2464916" lon="12.2322473"><ele>614.6666666666667</ele><time>2026-04-04T07:02:06.308Z</time></trkpt><trkpt lat="43.2464359" lon="12.2320241"><ele>616.0</ele><time>2026-04-04T07:02:07.309Z</time></trkpt><trkpt lat="43.2463765" lon="12.23181"><ele>610.0</ele><time>2026-04-04T07:02:08.308Z</time></trkpt><trkpt lat="43.2463121" lon="12.2316105"><ele>604.0</ele><time>2026-04-04T07:02:09.308Z</time></trkpt><trkpt lat="43.2462409" lon="12.2314141"><ele>598.0</ele><time>2026-04-04T07:02:10.308Z</time></trkpt><trkpt lat="43.2461551" lon="12.2312144"><ele>598.0</ele><time>2026-04-04T07:02:11.308Z</time></trkpt><trkpt lat="43.2460444" lon="12.2310292"><ele>598.0</ele><time>2026-04-04T07:02:12.308Z</time></trkpt><trkpt lat="43.2459192" lon="12.2308383"><ele>598.0</ele><time>2026-04-04T07:02:13.308Z</time></trkpt><trkpt lat="43.2457844" lon="12.2306487"><ele>595.0</ele><time>2026-04-04T07:02:14.308Z</time></trkpt><trkpt lat="43.2456273" lon="12.2305098"><ele>592.0</ele><time>2026-04-04T07:02:15.308Z</time></trkpt><trkpt lat="43.2454709" lon="12.2303697"><ele>589.0</ele><time>2026-04-04T07:02:16.308Z</time></trkpt><trkpt lat="43.2453152" lon="12.2302329"><ele>589.0</ele><time>2026-04-04T07:02:17.308Z</time></trkpt><trkpt lat="43.2451413" lon="12.2301224"><ele>589.0</ele><time>2026-04-04T07:02:18.309Z</time></trkpt><trkpt lat="43.2449866" lon="12.2299933"><ele>589.0</ele><time>2026-04-04T07:02:19.308Z</time></trkpt><trkpt lat="43.244834" lon="12.2298607"><ele>585.3333333333334</ele><time>2026-04-04T07:02:20.308Z</time></trkpt><trkpt lat="43.2446976" lon="12.2297212"><ele>581.6666666666666</ele><time>2026-04-04T07:02:21.309Z</time></trkpt><trkpt lat="43.2445555" lon="12.2296065"><ele>578.0</ele><time>2026-04-04T07:02:22.308Z</time></trkpt><trkpt lat="43.2444211" lon="12.2294785"><ele>578.0</ele><time>2026-04-04T07:02:23.309Z</time></trkpt><trkpt lat="43.2443005" lon="12.2293465"><ele>578.0</ele><time>2026-04-04T07:02:24.309Z</time></trkpt><trkpt lat="43.2442041" lon="12.2292156"><ele>578.0</ele><time>2026-04-04T07:02:25.308Z</time></trkpt><trkpt lat="43.244146" lon="12.2290806"><ele>578.0</ele><time>2026-04-04T07:02:26.308Z</time></trkpt><trkpt lat="43.2441218" lon="12.2289481"><ele>576.75</ele><time>2026-04-04T07:02:27.309Z</time></trkpt><trkpt lat="43.2441298" lon="12.2288189"><ele>575.5</ele><time>2026-04-04T07:02:28.308Z</time></trkpt><trkpt lat="43.2442314" lon="12.2286804"><ele>574.25</ele><time>2026-04-04T07:02:29.309Z</time></trkpt><trkpt lat="43.2443369" lon="12.2285359"><ele>573.0</ele><time>2026-04-04T07:02:30.31Z</time></trkpt><trkpt lat="43.2444267" lon="12.2283914"><ele>573.0</ele><time>2026-04-04T07:02:31.309Z</time></trkpt><trkpt lat="43.2445213" lon="12.2282399"><ele>573.0</ele><time>2026-04-04T07:02:32.309Z</time></trkpt><trkpt lat="43.2445952" lon="12.2280928"><ele>573.0</ele><time>2026-04-04T07:02:33.309Z</time></trkpt><trkpt lat="43.2446316" lon="12.227947"><ele>573.0</ele><time>2026-04-04T07:02:34.31Z</time></trkpt><trkpt lat="43.244661" lon="12.2278119"><ele>573.0</ele><time>2026-04-04T07:02:35.31Z</time></trkpt><trkpt lat="43.2446696" lon="12.2276616"><ele>573.0</ele><time>2026-04-04T07:02:36.309Z</time></trkpt><trkpt lat="43.2446329" lon="12.2275109"><ele>573.0</ele><time>2026-04-04T07:02:37.309Z</time></trkpt><trkpt lat="43.2445914" lon="12.2273612"><ele>573.0</ele><time>2026-04-04T07:02:38.309Z</time></trkpt><trkpt lat="43.2444959" lon="12.2272302"><ele>573.0</ele><time>2026-04-04T07:02:39.309Z</time></trkpt><trkpt lat="43.2444109" lon="12.2270871"><ele>573.0</ele><time>2026-04-04T07:02:40.309Z</time></trkpt><trkpt lat="43.2443666" lon="12.2269743"><ele>573.0</ele><time>2026-04-04T07:02:41.309Z</time></trkpt><trkpt lat="43.2443214" lon="12.2268561"><ele>573.0</ele><time>2026-04-04T07:02:42.309Z</time></trkpt><trkpt lat="43.244249" lon="12.2267299"><ele>573.0</ele><time>2026-04-04T07:02:43.309Z</time></trkpt><trkpt lat="43.2441711" lon="12.2266046"><ele>573.25</ele><time>2026-04-04T07:02:44.309Z</time></trkpt><trkpt lat="43.2441111" lon="12.226475"><ele>573.5</ele><time>2026-04-04T07:02:45.31Z</time></trkpt><trkpt lat="43.2440701" lon="12.2263284"><ele>573.75</ele><time>2026-04-04T07:02:46.309Z</time></trkpt><trkpt lat="43.2440512" lon="12.2261672"><ele>574.0</ele><time>2026-04-04T07:02:47.31Z</time></trkpt><trkpt lat="43.2440553" lon="12.2259868"><ele>574.0</ele><time>2026-04-04T07:02:48.309Z</time></trkpt><trkpt lat="43.244077" lon="12.2258151"><ele>574.0</ele><time>2026-04-04T07:02:49.309Z</time></trkpt><trkpt lat="43.2441018" lon="12.2256367"><ele>574.0</ele><time>2026-04-04T07:02:50.309Z</time></trkpt><trkpt lat="43.2441335" lon="12.2254664"><ele>574.0</ele><time>2026-04-04T07:02:51.31Z</time></trkpt><trkpt lat="43.2441737" lon="12.2253058"><ele>576.25</ele><time>2026-04-04T07:02:52.309Z</time></trkpt><trkpt lat="43.2442257" lon="12.2251609"><ele>578.5</ele><time>2026-04-04T07:02:53.309Z</time></trkpt><trkpt lat="43.2442809" lon="12.2250187"><ele>580.75</ele><time>2026-04-04T07:02:54.309Z</time></trkpt><trkpt lat="43.2443558" lon="12.224866"><ele>583.0</ele><time>2026-04-04T07:02:55.31Z</time></trkpt><trkpt lat="43.2444202" lon="12.2247355"><ele>585.25</ele><time>2026-04-04T07:02:56.309Z</time></trkpt><trkpt lat="43.2444997" lon="12.224601"><ele>587.5</ele><time>2026-04-04T07:02:57.309Z</time></trkpt><trkpt lat="43.2446077" lon="12.2244565"><ele>589.75</ele><time>2026-04-04T07:02:58.31Z</time></trkpt><trkpt lat="43.2447395" lon="12.2243057"><ele>592.0</ele><time>2026-04-04T07:02:59.309Z</time></trkpt><trkpt lat="43.244879" lon="12.2241541"><ele>586.0</ele><time>2026-04-04T07:03:00.31Z</time></trkpt><trkpt lat="43.2450488" lon="12.2240119"><ele>580.0</ele><time>2026-04-04T07:03:01.309Z</time></trkpt><trkpt lat="43.2452056" lon="12.2238781"><ele>574.0</ele><time>2026-04-04T07:03:02.31Z</time></trkpt><trkpt lat="43.2453484" lon="12.2237458"><ele>574.0</ele><time>2026-04-04T07:03:03.309Z</time></trkpt><trkpt lat="43.2454709" lon="12.2236211"><ele>574.0</ele><time>2026-04-04T07:03:04.309Z</time></trkpt><trkpt lat="43.2455953" lon="12.2234905"><ele>574.0</ele><time>2026-04-04T07:03:05.31Z</time></trkpt><trkpt lat="43.245703" lon="12.2233464"><ele>568.75</ele><time>2026-04-04T07:03:06.309Z</time></trkpt><trkpt lat="43.2458037" lon="12.2232009"><ele>563.5</ele><time>2026-04-04T07:03:07.309Z</time></trkpt><trkpt lat="43.2458924" lon="12.2230431"><ele>558.25</ele><time>2026-04-04T07:03:08.309Z</time></trkpt><trkpt lat="43.2459526" lon="12.2228424"><ele>553.0</ele><time>2026-04-04T07:03:09.309Z</time></trkpt><trkpt lat="43.2459936" lon="12.2226294"><ele>553.0</ele><time>2026-04-04T07:03:10.309Z</time></trkpt><trkpt lat="43.2460269" lon="12.2224323"><ele>553.0</ele><time>2026-04-04T07:03:11.309Z</time></trkpt><trkpt lat="43.2460545" lon="12.2222348"><ele>553.0</ele><time>2026-04-04T07:03:12.309Z</time></trkpt><trkpt lat="43.2460851" lon="12.2220441"><ele>553.0</ele><time>2026-04-04T07:03:13.309Z</time></trkpt><trkpt lat="43.2461449" lon="12.2219071"><ele>551.75</ele><time>2026-04-04T07:03:14.309Z</time></trkpt><trkpt lat="43.246239" lon="12.2217903"><ele>550.5</ele><time>2026-04-04T07:03:15.309Z</time></trkpt><trkpt lat="43.2463513" lon="12.2216674"><ele>549.25</ele><time>2026-04-04T07:03:16.309Z</time></trkpt><trkpt lat="43.2464911" lon="12.2215387"><ele>548.0</ele><time>2026-04-04T07:03:17.309Z</time></trkpt><trkpt lat="43.2466531" lon="12.2214197"><ele>542.6666666666666</ele><time>2026-04-04T07:03:18.31Z</time></trkpt><trkpt lat="43.246826" lon="12.2213151"><ele>537.3333333333334</ele><time>2026-04-04T07:03:19.309Z</time></trkpt><trkpt lat="43.247001" lon="12.2212282"><ele>532.0</ele><time>2026-04-04T07:03:20.309Z</time></trkpt><trkpt lat="43.2471698" lon="12.2211533"><ele>532.0</ele><time>2026-04-04T07:03:21.309Z</time></trkpt><trkpt lat="43.2473329" lon="12.2210719"><ele>532.0</ele><time>2026-04-04T07:03:22.31Z</time></trkpt><trkpt lat="43.2474861" lon="12.220974"><ele>532.0</ele><time>2026-04-04T07:03:23.309Z</time></trkpt><trkpt lat="43.2476329" lon="12.2208529"><ele>532.0</ele><time>2026-04-04T07:03:24.309Z</time></trkpt><trkpt lat="43.2477768" lon="12.2207017"><ele>532.0</ele><time>2026-04-04T07:03:25.309Z</time></trkpt><trkpt lat="43.2479071" lon="12.2205295"><ele>532.0</ele><time>2026-04-04T07:03:26.309Z</time></trkpt><trkpt lat="43.248029" lon="12.2203616"><ele>530.0</ele><time>2026-04-04T07:03:27.309Z</time></trkpt><trkpt lat="43.248159" lon="12.2201875"><ele>528.0</ele><time>2026-04-04T07:03:28.309Z</time></trkpt><trkpt lat="43.2482517" lon="12.2199915"><ele>526.0</ele><time>2026-04-04T07:03:29.31Z</time></trkpt><trkpt lat="43.2483775" lon="12.2198318"><ele>525.3333333333334</ele><time>2026-04-04T07:03:30.31Z</time></trkpt><trkpt lat="43.248499" lon="12.2196669"><ele>524.6666666666666</ele><time>2026-04-04T07:03:31.31Z</time></trkpt><trkpt lat="43.2485998" lon="12.2194987"><ele>524.0</ele><time>2026-04-04T07:03:32.31Z</time></trkpt><trkpt lat="43.2487004" lon="12.2193314"><ele>524.0</ele><time>2026-04-04T07:03:33.31Z</time></trkpt><trkpt lat="43.2488131" lon="12.2191699"><ele>524.0</ele><time>2026-04-04T07:03:34.31Z</time></trkpt><trkpt lat="43.2489451" lon="12.219026"><ele>524.0</ele><time>2026-04-04T07:03:35.31Z</time></trkpt><trkpt lat="43.2491061" lon="12.2189007"><ele>520.6666666666666</ele><time>2026-04-04T07:03:36.31Z</time></trkpt><trkpt lat="43.2492928" lon="12.2187913"><ele>517.3333333333334</ele><time>2026-04-04T07:03:37.31Z</time></trkpt><trkpt lat="43.2494723" lon="12.2187038"><ele>514.0</ele><time>2026-04-04T07:03:38.311Z</time></trkpt><trkpt lat="43.2496582" lon="12.218623"><ele>513.6666666666667</ele><time>2026-04-04T07:03:39.311Z</time></trkpt><trkpt lat="43.249825" lon="12.2185401"><ele>513.3333333333334</ele><time>2026-04-04T07:03:40.31Z</time></trkpt><trkpt lat="43.2499683" lon="12.2184507"><ele>513.0</ele><time>2026-04-04T07:03:41.311Z</time></trkpt><trkpt lat="43.2500974" lon="12.218344"><ele>513.0</ele><time>2026-04-04T07:03:42.31Z</time></trkpt><trkpt lat="43.2501997" lon="12.2182398"><ele>513.0</ele><time>2026-04-04T07:03:43.31Z</time></trkpt><trkpt lat="43.250302" lon="12.21818"><ele>513.0</ele><time>2026-04-04T07:03:44.31Z</time></trkpt><trkpt lat="43.2504114" lon="12.2181819"><ele>513.0</ele><time>2026-04-04T07:03:45.31Z</time></trkpt><trkpt lat="43.2505306" lon="12.218247"><ele>511.4</ele><time>2026-04-04T07:03:46.311Z</time></trkpt><trkpt lat="43.2506401" lon="12.2183108"><ele>509.79999999999995</ele><time>2026-04-04T07:03:47.31Z</time></trkpt><trkpt lat="43.2507278" lon="12.2183701"><ele>508.2</ele><time>2026-04-04T07:03:48.31Z</time></trkpt><trkpt lat="43.2508235" lon="12.218387"><ele>506.6</ele><time>2026-04-04T07:03:49.31Z</time></trkpt><trkpt lat="43.2509156" lon="12.2183359"><ele>505.0</ele><time>2026-04-04T07:03:50.31Z</time></trkpt><trkpt lat="43.2509958" lon="12.2182316"><ele>504.0</ele><time>2026-04-04T07:03:51.31Z</time></trkpt><trkpt lat="43.2510781" lon="12.2180917"><ele>503.0</ele><time>2026-04-04T07:03:52.311Z</time></trkpt><trkpt lat="43.2511536" lon="12.2179153"><ele>502.0</ele><time>2026-04-04T07:03:53.311Z</time></trkpt><trkpt lat="43.2512299" lon="12.2177188"><ele>501.0</ele><time>2026-04-04T07:03:54.31Z</time></trkpt><trkpt lat="43.2513189" lon="12.2175309"><ele>501.0</ele><time>2026-04-04T07:03:55.31Z</time></trkpt><trkpt lat="43.2514059" lon="12.2173345"><ele>501.0</ele><time>2026-04-04T07:03:56.31Z</time></trkpt><trkpt lat="43.2514757" lon="12.2171454"><ele>501.0</ele><time>2026-04-04T07:03:57.31Z</time></trkpt><trkpt lat="43.251549" lon="12.2169877"><ele>502.0</ele><time>2026-04-04T07:03:58.311Z</time></trkpt><trkpt lat="43.2516329" lon="12.216844"><ele>503.0</ele><time>2026-04-04T07:03:59.31Z</time></trkpt><trkpt lat="43.2517338" lon="12.2166879"><ele>504.0</ele><time>2026-04-04T07:04:00.311Z</time></trkpt><trkpt lat="43.251844" lon="12.2165184"><ele>502.66666666666663</ele><time>2026-04-04T07:04:01.31Z</time></trkpt><trkpt lat="43.2519621" lon="12.216348"><ele>501.3333333333333</ele><time>2026-04-04T07:04:02.31Z</time></trkpt><trkpt lat="43.2520822" lon="12.2161796"><ele>500.0</ele><time>2026-04-04T07:04:03.31Z</time></trkpt><trkpt lat="43.2521992" lon="12.2160217"><ele>499.0</ele><time>2026-04-04T07:04:04.31Z</time></trkpt><trkpt lat="43.25231" lon="12.215886"><ele>498.0</ele><time>2026-04-04T07:04:05.311Z</time></trkpt><trkpt lat="43.252395" lon="12.2157565"><ele>497.0</ele><time>2026-04-04T07:04:06.31Z</time></trkpt><trkpt lat="43.2524594" lon="12.2156358"><ele>496.0</ele><time>2026-04-04T07:04:07.31Z</time></trkpt><trkpt lat="43.2524775" lon="12.2155073"><ele>495.5</ele><time>2026-04-04T07:04:08.31Z</time></trkpt><trkpt lat="43.2524802" lon="12.2153493"><ele>495.0</ele><time>2026-04-04T07:04:09.31Z</time></trkpt><trkpt lat="43.2524399" lon="12.2151772"><ele>494.5</ele><time>2026-04-04T07:04:10.31Z</time></trkpt><trkpt lat="43.2523697" lon="12.215027"><ele>494.0</ele><time>2026-04-04T07:04:11.311Z</time></trkpt><trkpt lat="43.2523161" lon="12.2149051"><ele>492.6</ele><time>2026-04-04T07:04:12.31Z</time></trkpt><trkpt lat="43.2522609" lon="12.214783"><ele>491.2</ele><time>2026-04-04T07:04:13.31Z</time></trkpt><trkpt lat="43.2522469" lon="12.214691"><ele>489.80000000000007</ele><time>2026-04-04T07:04:14.31Z</time></trkpt><trkpt lat="43.2522908" lon="12.2145802"><ele>488.40000000000003</ele><time>2026-04-04T07:04:15.311Z</time></trkpt><trkpt lat="43.2524032" lon="12.2145041"><ele>487.0</ele><time>2026-04-04T07:04:16.31Z</time></trkpt><trkpt lat="43.2525358" lon="12.2144502"><ele>487.0</ele><time>2026-04-04T07:04:17.31Z</time></trkpt><trkpt lat="43.2526838" lon="12.2143949"><ele>487.0</ele><time>2026-04-04T07:04:18.31Z</time></trkpt><trkpt lat="43.2528497" lon="12.2143411"><ele>487.0</ele><time>2026-04-04T07:04:19.31Z</time></trkpt><trkpt lat="43.2530077" lon="12.2142804"><ele>486.0</ele><time>2026-04-04T07:04:20.311Z</time></trkpt><trkpt lat="43.2531616" lon="12.2142189"><ele>485.0</ele><time>2026-04-04T07:04:21.31Z</time></trkpt><trkpt lat="43.2533215" lon="12.2141658"><ele>484.0</ele><time>2026-04-04T07:04:22.311Z</time></trkpt><trkpt lat="43.2534749" lon="12.2141089"><ele>484.0</ele><time>2026-04-04T07:04:23.31Z</time></trkpt><trkpt lat="43.2536299" lon="12.2140741"><ele>484.0</ele><time>2026-04-04T07:04:24.31Z</time></trkpt><trkpt lat="43.2537687" lon="12.2140392"><ele>484.0</ele><time>2026-04-04T07:04:25.31Z</time></trkpt><trkpt lat="43.2539072" lon="12.2140041"><ele>484.0</ele><time>2026-04-04T07:04:26.311Z</time></trkpt><trkpt lat="43.2540482" lon="12.2139506"><ele>486.25</ele><time>2026-04-04T07:04:27.311Z</time></trkpt><trkpt lat="43.2541725" lon="12.2138794"><ele>488.5</ele><time>2026-04-04T07:04:28.311Z</time></trkpt><trkpt lat="43.2543058" lon="12.2138226"><ele>490.75</ele><time>2026-04-04T07:04:29.311Z</time></trkpt><trkpt lat="43.2544252" lon="12.2138006"><ele>493.0</ele><time>2026-04-04T07:04:30.311Z</time></trkpt><trkpt lat="43.2545184" lon="12.213827"><ele>493.0</ele><time>2026-04-04T07:04:31.311Z</time></trkpt><trkpt lat="43.2546029" lon="12.21389"><ele>492.99999999999994</ele><time>2026-04-04T07:04:32.311Z</time></trkpt><trkpt lat="43.2546719" lon="12.2139899"><ele>492.99999999999994</ele><time>2026-04-04T07:04:33.312Z</time></trkpt><trkpt lat="43.2546977" lon="12.2141136"><ele>493.0</ele><time>2026-04-04T07:04:34.311Z</time></trkpt><trkpt lat="43.2547043" lon="12.2142605"><ele>493.0</ele><time>2026-04-04T07:04:35.311Z</time></trkpt><trkpt lat="43.2547248" lon="12.2143878"><ele>489.2</ele><time>2026-04-04T07:04:36.312Z</time></trkpt><trkpt lat="43.2547711" lon="12.2144744"><ele>485.4</ele><time>2026-04-04T07:04:37.312Z</time></trkpt><trkpt lat="43.2548269" lon="12.2145258"><ele>481.59999999999997</ele><time>2026-04-04T07:04:38.312Z</time></trkpt><trkpt lat="43.2549533" lon="12.2145197"><ele>477.79999999999995</ele><time>2026-04-04T07:04:40.312Z</time></trkpt><trkpt lat="43.255034" lon="12.2144108"><ele>474.0</ele><time>2026-04-04T07:04:41.312Z</time></trkpt><trkpt lat="43.2551098" lon="12.2142716"><ele>473.0</ele><time>2026-04-04T07:04:42.312Z</time></trkpt><trkpt lat="43.2551802" lon="12.214178"><ele>472.0</ele><time>2026-04-04T07:04:43.311Z</time></trkpt><trkpt lat="43.2552536" lon="12.2140838"><ele>471.0</ele><time>2026-04-04T07:04:44.311Z</time></trkpt><trkpt lat="43.2553223" lon="12.2139929"><ele>470.0</ele><time>2026-04-04T07:04:45.311Z</time></trkpt><trkpt lat="43.255399" lon="12.2139403"><ele>469.0</ele><time>2026-04-04T07:04:46.311Z</time></trkpt><trkpt lat="43.2554859" lon="12.2139182"><ele>474.6666666666667</ele><time>2026-04-04T07:04:47.311Z</time></trkpt><trkpt lat="43.2557139" lon="12.2138973"><ele>480.33333333333337</ele><time>2026-04-04T07:04:48.312Z</time></trkpt><trkpt lat="43.2558472" lon="12.21393"><ele>486.0</ele><time>2026-04-04T07:04:49.312Z</time></trkpt><trkpt lat="43.2559853" lon="12.2139695"><ele>479.5</ele><time>2026-04-04T07:04:50.311Z</time></trkpt><trkpt lat="43.2561173" lon="12.2140069"><ele>473.0</ele><time>2026-04-04T07:04:51.311Z</time></trkpt><trkpt lat="43.25623" lon="12.2140158"><ele>466.5</ele><time>2026-04-04T07:04:52.312Z</time></trkpt><trkpt lat="43.256363" lon="12.2140153"><ele>460.0</ele><time>2026-04-04T07:04:53.311Z</time></trkpt><trkpt lat="43.256582" lon="12.214024"><ele>458.33333333333337</ele><time>2026-04-04T07:04:54.311Z</time></trkpt><trkpt lat="43.2567191" lon="12.2140344"><ele>456.66666666666663</ele><time>2026-04-04T07:04:55.312Z</time></trkpt><trkpt lat="43.2568477" lon="12.2140628"><ele>455.0</ele><time>2026-04-04T07:04:56.311Z</time></trkpt><trkpt lat="43.2572309" lon="12.2141751"><ele>450.0</ele><time>2026-04-04T07:04:58.312Z</time></trkpt><trkpt lat="43.2573765" lon="12.2142246"><ele>445.0</ele><time>2026-04-04T07:04:59.311Z</time></trkpt><trkpt lat="43.2575257" lon="12.2142788"><ele>440.0</ele><time>2026-04-04T07:05:00.311Z</time></trkpt><trkpt lat="43.2576487" lon="12.214321"><ele>435.0</ele><time>2026-04-04T07:05:01.312Z</time></trkpt><trkpt lat="43.2577739" lon="12.2143649"><ele>435.0</ele><time>2026-04-04T07:05:02.311Z</time></trkpt><trkpt lat="43.2578484" lon="12.2142202"><ele>435.0</ele><time>2026-04-04T07:05:04.311Z</time></trkpt><trkpt lat="43.2578604" lon="12.2141148"><ele>435.0</ele><time>2026-04-04T07:05:05.312Z</time></trkpt><trkpt lat="43.2578026" lon="12.2139624"><ele>435.0</ele><time>2026-04-04T07:05:06.311Z</time></trkpt><trkpt lat="43.2577354" lon="12.2138098"><ele>434.75</ele><time>2026-04-04T07:05:07.311Z</time></trkpt><trkpt lat="43.2576698" lon="12.2136527"><ele>434.5</ele><time>2026-04-04T07:05:08.311Z</time></trkpt><trkpt lat="43.2576208" lon="12.2135003"><ele>434.25</ele><time>2026-04-04T07:05:09.311Z</time></trkpt><trkpt lat="43.2575973" lon="12.2133459"><ele>434.0</ele><time>2026-04-04T07:05:10.311Z</time></trkpt><trkpt lat="43.2575801" lon="12.2131881"><ele>433.5</ele><time>2026-04-04T07:05:11.312Z</time></trkpt><trkpt lat="43.2575814" lon="12.2130243"><ele>433.0</ele><time>2026-04-04T07:05:12.311Z</time></trkpt><trkpt lat="43.2576049" lon="12.2128609"><ele>432.5</ele><time>2026-04-04T07:05:13.311Z</time></trkpt><trkpt lat="43.2576378" lon="12.2126933"><ele>432.0</ele><time>2026-04-04T07:05:14.312Z</time></trkpt><trkpt lat="43.2576614" lon="12.2125216"><ele>432.0</ele><time>2026-04-04T07:05:15.311Z</time></trkpt><trkpt lat="43.2576857" lon="12.2123551"><ele>432.0</ele><time>2026-04-04T07:05:16.312Z</time></trkpt><trkpt lat="43.257727" lon="12.2122003"><ele>432.0</ele><time>2026-04-04T07:05:17.311Z</time></trkpt><trkpt lat="43.2578265" lon="12.2120752"><ele>432.0</ele><time>2026-04-04T07:05:18.312Z</time></trkpt><trkpt lat="43.2579303" lon="12.2119473"><ele>435.33333333333337</ele><time>2026-04-04T07:05:19.311Z</time></trkpt><trkpt lat="43.2580604" lon="12.2118231"><ele>438.6666666666667</ele><time>2026-04-04T07:05:20.311Z</time></trkpt><trkpt lat="43.2581897" lon="12.2117025"><ele>442.0</ele><time>2026-04-04T07:05:21.313Z</time></trkpt><trkpt lat="43.2583072" lon="12.2115779"><ele>437.0</ele><time>2026-04-04T07:05:22.312Z</time></trkpt><trkpt lat="43.2584279" lon="12.2114581"><ele>432.0</ele><time>2026-04-04T07:05:23.313Z</time></trkpt><trkpt lat="43.2585459" lon="12.2113519"><ele>427.0</ele><time>2026-04-04T07:05:24.312Z</time></trkpt><trkpt lat="43.2586676" lon="12.2112622"><ele>422.0</ele><time>2026-04-04T07:05:25.312Z</time></trkpt><trkpt lat="43.2587981" lon="12.2111908"><ele>422.0</ele><time>2026-04-04T07:05:26.313Z</time></trkpt><trkpt lat="43.2589425" lon="12.2111352"><ele>422.0</ele><time>2026-04-04T07:05:27.312Z</time></trkpt><trkpt lat="43.2591014" lon="12.2110911"><ele>422.0</ele><time>2026-04-04T07:05:28.313Z</time></trkpt><trkpt lat="43.259267" lon="12.2110463"><ele>414.66666666666663</ele><time>2026-04-04T07:05:29.313Z</time></trkpt><trkpt lat="43.2594393" lon="12.2110034"><ele>407.33333333333337</ele><time>2026-04-04T07:05:30.312Z</time></trkpt><trkpt lat="43.2596049" lon="12.2109676"><ele>400.0</ele><time>2026-04-04T07:05:31.313Z</time></trkpt><trkpt lat="43.2597636" lon="12.2109466"><ele>399.0</ele><time>2026-04-04T07:05:32.312Z</time></trkpt><trkpt lat="43.2599058" lon="12.210932"><ele>398.0</ele><time>2026-04-04T07:05:33.312Z</time></trkpt><trkpt lat="43.2600317" lon="12.2109215"><ele>397.0</ele><time>2026-04-04T07:05:34.312Z</time></trkpt><trkpt lat="43.2601445" lon="12.2109061"><ele>396.0</ele><time>2026-04-04T07:05:35.312Z</time></trkpt><trkpt lat="43.2602578" lon="12.2108659"><ele>396.0</ele><time>2026-04-04T07:05:36.312Z</time></trkpt><trkpt lat="43.2603621" lon="12.2107915"><ele>396.0</ele><time>2026-04-04T07:05:37.312Z</time></trkpt><trkpt lat="43.2604669" lon="12.2106805"><ele>396.0</ele><time>2026-04-04T07:05:38.312Z</time></trkpt><trkpt lat="43.2605546" lon="12.2105248"><ele>396.0</ele><time>2026-04-04T07:05:39.312Z</time></trkpt><trkpt lat="43.260631" lon="12.2103538"><ele>395.25</ele><time>2026-04-04T07:05:40.312Z</time></trkpt><trkpt lat="43.260708" lon="12.210185"><ele>394.5</ele><time>2026-04-04T07:05:41.312Z</time></trkpt><trkpt lat="43.260784" lon="12.2100206"><ele>393.75</ele><time>2026-04-04T07:05:42.312Z</time></trkpt><trkpt lat="43.2608638" lon="12.2098626"><ele>393.0</ele><time>2026-04-04T07:05:43.312Z</time></trkpt><trkpt lat="43.260951" lon="12.2097276"><ele>390.0</ele><time>2026-04-04T07:05:44.312Z</time></trkpt><trkpt lat="43.261048" lon="12.2096356"><ele>387.0</ele><time>2026-04-04T07:05:45.312Z</time></trkpt><trkpt lat="43.2611526" lon="12.209572"><ele>384.0</ele><time>2026-04-04T07:05:46.312Z</time></trkpt><trkpt lat="43.261275" lon="12.2095102"><ele>381.0</ele><time>2026-04-04T07:05:47.313Z</time></trkpt><trkpt lat="43.2614024" lon="12.2094117"><ele>382.33333333333337</ele><time>2026-04-04T07:05:48.312Z</time></trkpt><trkpt lat="43.2615273" lon="12.2092851"><ele>383.6666666666667</ele><time>2026-04-04T07:05:49.312Z</time></trkpt><trkpt lat="43.2616476" lon="12.2091241"><ele>385.0</ele><time>2026-04-04T07:05:50.312Z</time></trkpt><trkpt lat="43.2617668" lon="12.2089512"><ele>380.6666666666667</ele><time>2026-04-04T07:05:51.313Z</time></trkpt><trkpt lat="43.2618908" lon="12.2087866"><ele>376.33333333333337</ele><time>2026-04-04T07:05:52.313Z</time></trkpt><trkpt lat="43.2620185" lon="12.208653"><ele>372.0</ele><time>2026-04-04T07:05:53.312Z</time></trkpt><trkpt lat="43.2621519" lon="12.2085473"><ele>373.0</ele><time>2026-04-04T07:05:54.312Z</time></trkpt><trkpt lat="43.2622965" lon="12.2084787"><ele>374.0</ele><time>2026-04-04T07:05:55.312Z</time></trkpt><trkpt lat="43.2624524" lon="12.2084186"><ele>375.0</ele><time>2026-04-04T07:05:56.312Z</time></trkpt><trkpt lat="43.2626024" lon="12.2083898"><ele>375.0</ele><time>2026-04-04T07:05:57.312Z</time></trkpt><trkpt lat="43.262753" lon="12.2083537"><ele>375.0</ele><time>2026-04-04T07:05:58.313Z</time></trkpt><trkpt lat="43.2628905" lon="12.2083092"><ele>375.0</ele><time>2026-04-04T07:05:59.313Z</time></trkpt><trkpt lat="43.2630271" lon="12.2082129"><ele>375.0</ele><time>2026-04-04T07:06:00.312Z</time></trkpt><trkpt lat="43.2631409" lon="12.2080846"><ele>373.25</ele><time>2026-04-04T07:06:01.313Z</time></trkpt><trkpt lat="43.2632207" lon="12.2079523"><ele>371.5</ele><time>2026-04-04T07:06:02.312Z</time></trkpt><trkpt lat="43.2632928" lon="12.2078103"><ele>369.75</ele><time>2026-04-04T07:06:03.312Z</time></trkpt><trkpt lat="43.263373" lon="12.2076502"><ele>368.0</ele><time>2026-04-04T07:06:04.312Z</time></trkpt><trkpt lat="43.2634757" lon="12.2074954"><ele>368.0</ele><time>2026-04-04T07:06:05.312Z</time></trkpt><trkpt lat="43.2635985" lon="12.2073533"><ele>368.0</ele><time>2026-04-04T07:06:06.312Z</time></trkpt><trkpt lat="43.2637072" lon="12.2072243"><ele>368.0</ele><time>2026-04-04T07:06:07.312Z</time></trkpt><trkpt lat="43.2638174" lon="12.2070874"><ele>365.5</ele><time>2026-04-04T07:06:08.312Z</time></trkpt><trkpt lat="43.2639222" lon="12.2069606"><ele>363.0</ele><time>2026-04-04T07:06:09.313Z</time></trkpt><trkpt lat="43.2640197" lon="12.2068243"><ele>360.5</ele><time>2026-04-04T07:06:10.312Z</time></trkpt><trkpt lat="43.2641021" lon="12.2066856"><ele>358.0</ele><time>2026-04-04T07:06:11.313Z</time></trkpt><trkpt lat="43.264162" lon="12.2065507"><ele>356.0</ele><time>2026-04-04T07:06:12.312Z</time></trkpt><trkpt lat="43.2642077" lon="12.2064016"><ele>354.0</ele><time>2026-04-04T07:06:13.312Z</time></trkpt><trkpt lat="43.2642554" lon="12.2062792"><ele>352.0</ele><time>2026-04-04T07:06:14.313Z</time></trkpt><trkpt lat="43.2642992" lon="12.2061633"><ele>350.0</ele><time>2026-04-04T07:06:15.312Z</time></trkpt><trkpt lat="43.2643693" lon="12.2060924"><ele>348.0</ele><time>2026-04-04T07:06:16.312Z</time></trkpt><trkpt lat="43.2644464" lon="12.2060906"><ele>348.0</ele><time>2026-04-04T07:06:17.312Z</time></trkpt><trkpt lat="43.2645137" lon="12.2061231"><ele>348.0</ele><time>2026-04-04T07:06:18.312Z</time></trkpt><trkpt lat="43.2646384" lon="12.2062157"><ele>348.0</ele><time>2026-04-04T07:06:19.312Z</time></trkpt><trkpt lat="43.2646907" lon="12.2064525"><ele>348.0</ele><time>2026-04-04T07:06:20.313Z</time></trkpt><trkpt lat="43.2648061" lon="12.2066075"><ele>346.6666666666667</ele><time>2026-04-04T07:06:21.314Z</time></trkpt><trkpt lat="43.2650106" lon="12.2068107"><ele>345.33333333333337</ele><time>2026-04-04T07:06:22.314Z</time></trkpt><trkpt lat="43.2651296" lon="12.2069124"><ele>344.0</ele><time>2026-04-04T07:06:23.313Z</time></trkpt><trkpt lat="43.2652661" lon="12.2070138"><ele>344.0</ele><time>2026-04-04T07:06:24.313Z</time></trkpt><trkpt lat="43.2654032" lon="12.2070707"><ele>344.0</ele><time>2026-04-04T07:06:25.313Z</time></trkpt><trkpt lat="43.2655745" lon="12.2070533"><ele>344.0</ele><time>2026-04-04T07:06:26.313Z</time></trkpt><trkpt lat="43.2656856" lon="12.2069637"><ele>344.0</ele><time>2026-04-04T07:06:27.313Z</time></trkpt><trkpt lat="43.2658168" lon="12.2068983"><ele>341.0</ele><time>2026-04-04T07:06:28.313Z</time></trkpt><trkpt lat="43.2659483" lon="12.2068303"><ele>338.0</ele><time>2026-04-04T07:06:29.314Z</time></trkpt><trkpt lat="43.2660897" lon="12.206759"><ele>335.0</ele><time>2026-04-04T07:06:30.313Z</time></trkpt><trkpt lat="43.2662208" lon="12.2066832"><ele>332.0</ele><time>2026-04-04T07:06:31.313Z</time></trkpt><trkpt lat="43.2663476" lon="12.2065793"><ele>328.33333333333337</ele><time>2026-04-04T07:06:32.313Z</time></trkpt><trkpt lat="43.2664697" lon="12.20642"><ele>324.6666666666667</ele><time>2026-04-04T07:06:33.313Z</time></trkpt><trkpt lat="43.2665888" lon="12.2062571"><ele>321.0</ele><time>2026-04-04T07:06:34.313Z</time></trkpt><trkpt lat="43.2666865" lon="12.206104"><ele>321.0</ele><time>2026-04-04T07:06:35.313Z</time></trkpt><trkpt lat="43.2667857" lon="12.2059555"><ele>321.0</ele><time>2026-04-04T07:06:36.313Z</time></trkpt><trkpt lat="43.2668973" lon="12.205802"><ele>321.0</ele><time>2026-04-04T07:06:37.313Z</time></trkpt><trkpt lat="43.266996" lon="12.2055872"><ele>317.6666666666667</ele><time>2026-04-04T07:06:38.313Z</time></trkpt><trkpt lat="43.2671395" lon="12.2054611"><ele>314.33333333333337</ele><time>2026-04-04T07:06:39.313Z</time></trkpt><trkpt lat="43.2672967" lon="12.2053479"><ele>311.0</ele><time>2026-04-04T07:06:40.314Z</time></trkpt><trkpt lat="43.2674515" lon="12.2052382"><ele>310.0</ele><time>2026-04-04T07:06:41.313Z</time></trkpt><trkpt lat="43.2676176" lon="12.2051304"><ele>309.0</ele><time>2026-04-04T07:06:42.314Z</time></trkpt><trkpt lat="43.267784" lon="12.2050228"><ele>308.0</ele><time>2026-04-04T07:06:43.313Z</time></trkpt><trkpt lat="43.2679448" lon="12.2049252"><ele>303.6666666666667</ele><time>2026-04-04T07:06:44.313Z</time></trkpt><trkpt lat="43.2681007" lon="12.2048237"><ele>299.3333333333333</ele><time>2026-04-04T07:06:45.314Z</time></trkpt><trkpt lat="43.2682475" lon="12.2047269"><ele>295.0</ele><time>2026-04-04T07:06:46.314Z</time></trkpt><trkpt lat="43.2683804" lon="12.2046352"><ele>294.25</ele><time>2026-04-04T07:06:47.313Z</time></trkpt><trkpt lat="43.2685087" lon="12.2045374"><ele>293.5</ele><time>2026-04-04T07:06:48.314Z</time></trkpt><trkpt lat="43.2686334" lon="12.2044501"><ele>292.75</ele><time>2026-04-04T07:06:49.313Z</time></trkpt><trkpt lat="43.2687489" lon="12.2044053"><ele>292.0</ele><time>2026-04-04T07:06:50.313Z</time></trkpt><trkpt lat="43.2688754" lon="12.2043868"><ele>291.5</ele><time>2026-04-04T07:06:51.313Z</time></trkpt><trkpt lat="43.2690166" lon="12.2044147"><ele>291.0</ele><time>2026-04-04T07:06:52.313Z</time></trkpt><trkpt lat="43.2690964" lon="12.2044907"><ele>290.5</ele><time>2026-04-04T07:06:53.313Z</time></trkpt><trkpt lat="43.2692254" lon="12.204591"><ele>290.0</ele><time>2026-04-04T07:06:54.313Z</time></trkpt><trkpt lat="43.2693649" lon="12.2047218"><ele>290.33333333333337</ele><time>2026-04-04T07:06:55.314Z</time></trkpt><trkpt lat="43.2695097" lon="12.2049056"><ele>290.6666666666667</ele><time>2026-04-04T07:06:56.313Z</time></trkpt><trkpt lat="43.2696414" lon="12.2051105"><ele>291.0</ele><time>2026-04-04T07:06:57.313Z</time></trkpt><trkpt lat="43.269761" lon="12.2053128"><ele>289.0</ele><time>2026-04-04T07:06:58.313Z</time></trkpt><trkpt lat="43.2698984" lon="12.2055246"><ele>287.0</ele><time>2026-04-04T07:06:59.313Z</time></trkpt><trkpt lat="43.2699833" lon="12.2059573"><ele>287.0</ele><time>2026-04-04T07:07:00.313Z</time></trkpt><trkpt lat="43.2701366" lon="12.206197"><ele>287.0</ele><time>2026-04-04T07:07:01.313Z</time></trkpt><trkpt lat="43.2702639" lon="12.2064332"><ele>287.0</ele><time>2026-04-04T07:07:02.313Z</time></trkpt><trkpt lat="43.270381" lon="12.2066589"><ele>287.33333333333337</ele><time>2026-04-04T07:07:03.313Z</time></trkpt><trkpt lat="43.2704873" lon="12.2068657"><ele>287.6666666666667</ele><time>2026-04-04T07:07:04.313Z</time></trkpt><trkpt lat="43.2705974" lon="12.2070382"><ele>288.0</ele><time>2026-04-04T07:07:05.313Z</time></trkpt><trkpt lat="43.2707042" lon="12.207199"><ele>290.5</ele><time>2026-04-04T07:07:06.313Z</time></trkpt><trkpt lat="43.2708034" lon="12.2073446"><ele>293.0</ele><time>2026-04-04T07:07:07.313Z</time></trkpt><trkpt lat="43.2709129" lon="12.2074693"><ele>295.5</ele><time>2026-04-04T07:07:08.313Z</time></trkpt><trkpt lat="43.2710216" lon="12.2075667"><ele>298.0</ele><time>2026-04-04T07:07:09.313Z</time></trkpt><trkpt lat="43.2711277" lon="12.2076172"><ele>298.0</ele><time>2026-04-04T07:07:10.313Z</time></trkpt><trkpt lat="43.2712425" lon="12.2076275"><ele>298.0</ele><time>2026-04-04T07:07:11.313Z</time></trkpt><trkpt lat="43.2714048" lon="12.2075693"><ele>298.0</ele><time>2026-04-04T07:07:12.313Z</time></trkpt><trkpt lat="43.271562" lon="12.2074182"><ele>296.0</ele><time>2026-04-04T07:07:13.313Z</time></trkpt><trkpt lat="43.2717088" lon="12.2072976"><ele>294.0</ele><time>2026-04-04T07:07:14.313Z</time></trkpt><trkpt lat="43.2718519" lon="12.2071909"><ele>292.0</ele><time>2026-04-04T07:07:15.313Z</time></trkpt><trkpt lat="43.2719887" lon="12.2070942"><ele>292.0</ele><time>2026-04-04T07:07:16.313Z</time></trkpt><trkpt lat="43.2721182" lon="12.2070144"><ele>292.0</ele><time>2026-04-04T07:07:17.315Z</time></trkpt><trkpt lat="43.2722619" lon="12.2069403"><ele>292.0</ele><time>2026-04-04T07:07:18.314Z</time></trkpt><trkpt lat="43.2724267" lon="12.2068836"><ele>292.3333333333333</ele><time>2026-04-04T07:07:19.315Z</time></trkpt><trkpt lat="43.272595" lon="12.2068427"><ele>292.6666666666667</ele><time>2026-04-04T07:07:20.314Z</time></trkpt><trkpt lat="43.2727545" lon="12.2068515"><ele>293.0</ele><time>2026-04-04T07:07:21.315Z</time></trkpt><trkpt lat="43.2729132" lon="12.2068995"><ele>293.0</ele><time>2026-04-04T07:07:22.314Z</time></trkpt><trkpt lat="43.2730677" lon="12.2069681"><ele>293.0</ele><time>2026-04-04T07:07:23.315Z</time></trkpt><trkpt lat="43.2732165" lon="12.2070468"><ele>293.0</ele><time>2026-04-04T07:07:24.314Z</time></trkpt><trkpt lat="43.2733599" lon="12.2071202"><ele>291.0</ele><time>2026-04-04T07:07:25.314Z</time></trkpt><trkpt lat="43.2735027" lon="12.2072104"><ele>289.0</ele><time>2026-04-04T07:07:26.314Z</time></trkpt><trkpt lat="43.2736376" lon="12.2073159"><ele>287.0</ele><time>2026-04-04T07:07:27.314Z</time></trkpt><trkpt lat="43.2737748" lon="12.2074506"><ele>287.0</ele><time>2026-04-04T07:07:28.314Z</time></trkpt><trkpt lat="43.2739249" lon="12.2076166"><ele>287.0</ele><time>2026-04-04T07:07:29.314Z</time></trkpt><trkpt lat="43.274075" lon="12.2077859"><ele>287.0</ele><time>2026-04-04T07:07:30.314Z</time></trkpt><trkpt lat="43.2742207" lon="12.2079644"><ele>287.0</ele><time>2026-04-04T07:07:31.314Z</time></trkpt><trkpt lat="43.2743544" lon="12.2081549"><ele>287.0</ele><time>2026-04-04T07:07:32.314Z</time></trkpt><trkpt lat="43.2744901" lon="12.2083665"><ele>287.0</ele><time>2026-04-04T07:07:33.314Z</time></trkpt><trkpt lat="43.2746" lon="12.208567"><ele>291.33333333333337</ele><time>2026-04-04T07:07:34.314Z</time></trkpt><trkpt lat="43.2746863" lon="12.2087634"><ele>295.6666666666667</ele><time>2026-04-04T07:07:35.315Z</time></trkpt><trkpt lat="43.2747392" lon="12.2089646"><ele>300.0</ele><time>2026-04-04T07:07:36.314Z</time></trkpt><trkpt lat="43.2747634" lon="12.2091759"><ele>303.0</ele><time>2026-04-04T07:07:37.314Z</time></trkpt><trkpt lat="43.2747587" lon="12.2093647"><ele>306.0</ele><time>2026-04-04T07:07:38.315Z</time></trkpt><trkpt lat="43.2747519" lon="12.2095567"><ele>309.0</ele><time>2026-04-04T07:07:39.315Z</time></trkpt><trkpt lat="43.274735" lon="12.2097562"><ele>312.0</ele><time>2026-04-04T07:07:40.314Z</time></trkpt><trkpt lat="43.2747222" lon="12.2099535"><ele>312.0</ele><time>2026-04-04T07:07:41.314Z</time></trkpt><trkpt lat="43.2747025" lon="12.2101376"><ele>312.0</ele><time>2026-04-04T07:07:42.314Z</time></trkpt><trkpt lat="43.2746872" lon="12.21034"><ele>312.0</ele><time>2026-04-04T07:07:43.314Z</time></trkpt><trkpt lat="43.2746866" lon="12.2105194"><ele>312.0</ele><time>2026-04-04T07:07:44.314Z</time></trkpt><trkpt lat="43.2747258" lon="12.2106606"><ele>307.25</ele><time>2026-04-04T07:07:45.315Z</time></trkpt><trkpt lat="43.2748107" lon="12.2107563"><ele>302.5</ele><time>2026-04-04T07:07:46.314Z</time></trkpt><trkpt lat="43.2749282" lon="12.2108257"><ele>297.75</ele><time>2026-04-04T07:07:47.315Z</time></trkpt><trkpt lat="43.2750758" lon="12.2108745"><ele>293.0</ele><time>2026-04-04T07:07:48.315Z</time></trkpt><trkpt lat="43.2752221" lon="12.2109113"><ele>293.0</ele><time>2026-04-04T07:07:49.315Z</time></trkpt><trkpt lat="43.2753585" lon="12.2109293"><ele>293.0</ele><time>2026-04-04T07:07:50.315Z</time></trkpt><trkpt lat="43.275489" lon="12.2109282"><ele>293.0</ele><time>2026-04-04T07:07:51.314Z</time></trkpt><trkpt lat="43.2756126" lon="12.2109214"><ele>293.0</ele><time>2026-04-04T07:07:52.314Z</time></trkpt><trkpt lat="43.2757508" lon="12.210921"><ele>293.25</ele><time>2026-04-04T07:07:53.314Z</time></trkpt><trkpt lat="43.2758846" lon="12.2109308"><ele>293.5</ele><time>2026-04-04T07:07:54.315Z</time></trkpt><trkpt lat="43.2760193" lon="12.2109553"><ele>293.75</ele><time>2026-04-04T07:07:55.314Z</time></trkpt><trkpt lat="43.2761535" lon="12.210989"><ele>294.0</ele><time>2026-04-04T07:07:56.314Z</time></trkpt><trkpt lat="43.2762891" lon="12.2110335"><ele>294.0</ele><time>2026-04-04T07:07:57.314Z</time></trkpt><trkpt lat="43.2764108" lon="12.2111053"><ele>294.0</ele><time>2026-04-04T07:07:58.314Z</time></trkpt><trkpt lat="43.2765206" lon="12.2112103"><ele>294.0</ele><time>2026-04-04T07:07:59.315Z</time></trkpt><trkpt lat="43.2766041" lon="12.2112995"><ele>294.0</ele><time>2026-04-04T07:08:00.314Z</time></trkpt><trkpt lat="43.2766809" lon="12.211373"><ele>292.8</ele><time>2026-04-04T07:08:01.315Z</time></trkpt><trkpt lat="43.2767759" lon="12.2114277"><ele>291.59999999999997</ele><time>2026-04-04T07:08:02.314Z</time></trkpt><trkpt lat="43.2768694" lon="12.2114712"><ele>290.4</ele><time>2026-04-04T07:08:03.314Z</time></trkpt><trkpt lat="43.2769602" lon="12.2115087"><ele>289.2</ele><time>2026-04-04T07:08:04.314Z</time></trkpt><trkpt lat="43.277042" lon="12.2115376"><ele>288.0</ele><time>2026-04-04T07:08:05.314Z</time></trkpt><trkpt lat="43.2771162" lon="12.2115494"><ele>287.6666666666667</ele><time>2026-04-04T07:08:06.315Z</time></trkpt><trkpt lat="43.2771953" lon="12.2115442"><ele>287.3333333333333</ele><time>2026-04-04T07:08:07.315Z</time></trkpt><trkpt lat="43.2772697" lon="12.2115252"><ele>287.0</ele><time>2026-04-04T07:08:08.314Z</time></trkpt><trkpt lat="43.2773384" lon="12.211505"><ele>286.66666666666663</ele><time>2026-04-04T07:08:09.314Z</time></trkpt><trkpt lat="43.2773974" lon="12.2114694"><ele>286.3333333333333</ele><time>2026-04-04T07:08:10.314Z</time></trkpt><trkpt lat="43.2774865" lon="12.2114052"><ele>286.0</ele><time>2026-04-04T07:08:12.314Z</time></trkpt><trkpt lat="43.2774303" lon="12.2113482"><ele>286.0</ele><time>2026-04-04T07:08:19.315Z</time></trkpt><trkpt lat="43.2773013" lon="12.211406"><ele>286.0</ele><time>2026-04-04T07:08:21.315Z</time></trkpt><trkpt lat="43.2772167" lon="12.2114505"><ele>286.0</ele><time>2026-04-04T07:08:22.315Z</time></trkpt><trkpt lat="43.2771237" lon="12.2114922"><ele>286.0</ele><time>2026-04-04T07:08:23.315Z</time></trkpt><trkpt lat="43.2770224" lon="12.2115215"><ele>286.0</ele><time>2026-04-04T07:08:24.316Z</time></trkpt><trkpt lat="43.2769093" lon="12.2115354"><ele>286.5</ele><time>2026-04-04T07:08:25.315Z</time></trkpt><trkpt lat="43.2767869" lon="12.2114854"><ele>287.0</ele><time>2026-04-04T07:08:26.315Z</time></trkpt><trkpt lat="43.2766472" lon="12.2113947"><ele>287.5</ele><time>2026-04-04T07:08:27.316Z</time></trkpt><trkpt lat="43.2765234" lon="12.2113107"><ele>288.0</ele><time>2026-04-04T07:08:28.315Z</time></trkpt><trkpt lat="43.2764039" lon="12.2112246"><ele>289.5</ele><time>2026-04-04T07:08:29.315Z</time></trkpt><trkpt lat="43.2762846" lon="12.2111258"><ele>291.0</ele><time>2026-04-04T07:08:30.316Z</time></trkpt><trkpt lat="43.2761658" lon="12.210999"><ele>292.5</ele><time>2026-04-04T07:08:31.315Z</time></trkpt><trkpt lat="43.2760611" lon="12.2108888"><ele>294.0</ele><time>2026-04-04T07:08:32.315Z</time></trkpt><trkpt lat="43.2759657" lon="12.2107987"><ele>294.0</ele><time>2026-04-04T07:08:33.315Z</time></trkpt><trkpt lat="43.2758711" lon="12.2107388"><ele>294.0</ele><time>2026-04-04T07:08:34.315Z</time></trkpt><trkpt lat="43.2757814" lon="12.2107022"><ele>294.0</ele><time>2026-04-04T07:08:35.315Z</time></trkpt><trkpt lat="43.2756944" lon="12.2106751"><ele>294.0</ele><time>2026-04-04T07:08:36.316Z</time></trkpt><trkpt lat="43.2756206" lon="12.2106837"><ele>294.0</ele><time>2026-04-04T07:08:37.315Z</time></trkpt><trkpt lat="43.275543" lon="12.2107015"><ele>294.0</ele><time>2026-04-04T07:08:38.316Z</time></trkpt><trkpt lat="43.2754551" lon="12.2107126"><ele>293.2</ele><time>2026-04-04T07:08:40.315Z</time></trkpt><trkpt lat="43.2754048" lon="12.210642"><ele>292.4</ele><time>2026-04-04T07:08:42.315Z</time></trkpt><trkpt lat="43.2754127" lon="12.2104861"><ele>291.6</ele><time>2026-04-04T07:08:44.315Z</time></trkpt><trkpt lat="43.2754358" lon="12.2103578"><ele>290.8</ele><time>2026-04-04T07:08:45.315Z</time></trkpt><trkpt lat="43.2754658" lon="12.2102327"><ele>290.0</ele><time>2026-04-04T07:08:46.316Z</time></trkpt><trkpt lat="43.2755104" lon="12.2101082"><ele>290.0</ele><time>2026-04-04T07:08:47.316Z</time></trkpt><trkpt lat="43.2755584" lon="12.2099808"><ele>290.0</ele><time>2026-04-04T07:08:48.316Z</time></trkpt><trkpt lat="43.2756074" lon="12.2098532"><ele>290.0</ele><time>2026-04-04T07:08:49.315Z</time></trkpt><trkpt lat="43.2756627" lon="12.2097314"><ele>290.0</ele><time>2026-04-04T07:08:50.315Z</time></trkpt><trkpt lat="43.2757197" lon="12.2096161"><ele>290.0</ele><time>2026-04-04T07:08:51.315Z</time></trkpt><trkpt lat="43.275776" lon="12.2094989"><ele>288.8</ele><time>2026-04-04T07:08:52.316Z</time></trkpt><trkpt lat="43.2758299" lon="12.2093834"><ele>287.6</ele><time>2026-04-04T07:08:53.315Z</time></trkpt><trkpt lat="43.2758825" lon="12.2092689"><ele>286.4</ele><time>2026-04-04T07:08:54.316Z</time></trkpt><trkpt lat="43.2759331" lon="12.2091609"><ele>285.2</ele><time>2026-04-04T07:08:55.315Z</time></trkpt><trkpt lat="43.2759856" lon="12.2090551"><ele>284.0</ele><time>2026-04-04T07:08:56.315Z</time></trkpt><trkpt lat="43.2760418" lon="12.2089534"><ele>284.0</ele><time>2026-04-04T07:08:57.315Z</time></trkpt><trkpt lat="43.2760973" lon="12.2088455"><ele>284.0</ele><time>2026-04-04T07:08:58.315Z</time></trkpt><trkpt lat="43.2761478" lon="12.2087366"><ele>284.0</ele><time>2026-04-04T07:08:59.316Z</time></trkpt><trkpt lat="43.2761935" lon="12.2086322"><ele>284.0</ele><time>2026-04-04T07:09:00.315Z</time></trkpt><trkpt lat="43.2762462" lon="12.208542"><ele>284.0</ele><time>2026-04-04T07:09:01.315Z</time></trkpt><trkpt lat="43.2762937" lon="12.2084772"><ele>284.0</ele><time>2026-04-04T07:09:02.315Z</time></trkpt><trkpt lat="43.2763844" lon="12.2083648"><ele>284.0</ele><time>2026-04-04T07:09:04.315Z</time></trkpt><trkpt lat="43.2764268" lon="12.2082971"><ele>284.0</ele><time>2026-04-04T07:09:05.315Z</time></trkpt><trkpt lat="43.2764808" lon="12.2082142"><ele>284.0</ele><time>2026-04-04T07:09:06.315Z</time></trkpt><trkpt lat="43.2765349" lon="12.2081313"><ele>284.0</ele><time>2026-04-04T07:09:07.315Z</time></trkpt><trkpt lat="43.2766028" lon="12.2080457"><ele>284.0</ele><time>2026-04-04T07:09:08.317Z</time></trkpt><trkpt lat="43.2766744" lon="12.20797"><ele>284.0</ele><time>2026-04-04T07:09:09.316Z</time></trkpt><trkpt lat="43.2767491" lon="12.2079032"><ele>283.6666666666667</ele><time>2026-04-04T07:09:10.316Z</time></trkpt><trkpt lat="43.276823" lon="12.2078497"><ele>283.33333333333337</ele><time>2026-04-04T07:09:11.316Z</time></trkpt><trkpt lat="43.2768922" lon="12.2078061"><ele>283.0</ele><time>2026-04-04T07:09:12.316Z</time></trkpt><trkpt lat="43.2769836" lon="12.2077308"><ele>282.6666666666667</ele><time>2026-04-04T07:09:14.316Z</time></trkpt><trkpt lat="43.2770123" lon="12.2076314"><ele>282.3333333333333</ele><time>2026-04-04T07:09:16.317Z</time></trkpt><trkpt lat="43.2769439" lon="12.2075744"><ele>282.0</ele><time>2026-04-04T07:09:18.316Z</time></trkpt><trkpt lat="43.2768689" lon="12.2075609"><ele>282.0</ele><time>2026-04-04T07:09:19.316Z</time></trkpt><trkpt lat="43.2767842" lon="12.2075637"><ele>282.0</ele><time>2026-04-04T07:09:20.316Z</time></trkpt><trkpt lat="43.2767015" lon="12.207568"><ele>282.0</ele><time>2026-04-04T07:09:21.317Z</time></trkpt><trkpt lat="43.2766137" lon="12.2075625"><ele>282.0</ele><time>2026-04-04T07:09:22.317Z</time></trkpt><trkpt lat="43.2765327" lon="12.207553"><ele>282.0</ele><time>2026-04-04T07:09:23.316Z</time></trkpt><trkpt lat="43.2764584" lon="12.2075271"><ele>282.0</ele><time>2026-04-04T07:09:24.316Z</time></trkpt><trkpt lat="43.2763998" lon="12.2074833"><ele>282.1666666666667</ele><time>2026-04-04T07:09:25.316Z</time></trkpt><trkpt lat="43.2763395" lon="12.2073588"><ele>282.3333333333333</ele><time>2026-04-04T07:09:27.317Z</time></trkpt><trkpt lat="43.2763467" lon="12.2072039"><ele>282.5</ele><time>2026-04-04T07:09:29.316Z</time></trkpt><trkpt lat="43.2763625" lon="12.2071131"><ele>282.66666666666663</ele><time>2026-04-04T07:09:30.316Z</time></trkpt><trkpt lat="43.2763829" lon="12.2070164"><ele>282.8333333333333</ele><time>2026-04-04T07:09:31.316Z</time></trkpt><trkpt lat="43.2764161" lon="12.2069318"><ele>283.0</ele><time>2026-04-04T07:09:32.316Z</time></trkpt><trkpt lat="43.2764393" lon="12.2068469"><ele>283.3333333333333</ele><time>2026-04-04T07:09:33.317Z</time></trkpt><trkpt lat="43.2764866" lon="12.2066932"><ele>283.66666666666663</ele><time>2026-04-04T07:09:35.317Z</time></trkpt><trkpt lat="43.2765267" lon="12.2066139"><ele>284.0</ele><time>2026-04-04T07:09:36.317Z</time></trkpt><trkpt lat="43.2765778" lon="12.2065509"><ele>284.3333333333333</ele><time>2026-04-04T07:09:37.316Z</time></trkpt><trkpt lat="43.2766375" lon="12.2065012"><ele>284.6666666666667</ele><time>2026-04-04T07:09:38.316Z</time></trkpt><trkpt lat="43.2767031" lon="12.2064645"><ele>285.0</ele><time>2026-04-04T07:09:39.316Z</time></trkpt><trkpt lat="43.2768104" lon="12.2064684"><ele>285.0</ele><time>2026-04-04T07:09:41.316Z</time></trkpt><trkpt lat="43.2768868" lon="12.2064922"><ele>285.0</ele><time>2026-04-04T07:09:42.316Z</time></trkpt><trkpt lat="43.2769663" lon="12.2064982"><ele>285.0</ele><time>2026-04-04T07:09:43.316Z</time></trkpt><trkpt lat="43.2770417" lon="12.2064819"><ele>285.0</ele><time>2026-04-04T07:09:44.316Z</time></trkpt><trkpt lat="43.2771041" lon="12.2064563"><ele>285.0</ele><time>2026-04-04T07:09:45.316Z</time></trkpt><trkpt lat="43.2771743" lon="12.2064222"><ele>285.0</ele><time>2026-04-04T07:09:46.316Z</time></trkpt><trkpt lat="43.2772341" lon="12.2063658"><ele>285.0</ele><time>2026-04-04T07:09:47.317Z</time></trkpt><trkpt lat="43.2772878" lon="12.2062911"><ele>285.0</ele><time>2026-04-04T07:09:48.316Z</time></trkpt><trkpt lat="43.2773337" lon="12.2061997"><ele>285.0</ele><time>2026-04-04T07:09:49.316Z</time></trkpt><trkpt lat="43.2773672" lon="12.206103"><ele>285.0</ele><time>2026-04-04T07:09:50.317Z</time></trkpt><trkpt lat="43.2773842" lon="12.2059948"><ele>285.0</ele><time>2026-04-04T07:09:51.316Z</time></trkpt><trkpt lat="43.2773878" lon="12.2058784"><ele>285.0</ele><time>2026-04-04T07:09:52.316Z</time></trkpt><trkpt lat="43.2773812" lon="12.205753"><ele>285.0</ele><time>2026-04-04T07:09:53.316Z</time></trkpt><trkpt lat="43.2773656" lon="12.2056104"><ele>284.8</ele><time>2026-04-04T07:09:54.316Z</time></trkpt><trkpt lat="43.2773444" lon="12.2054673"><ele>284.6</ele><time>2026-04-04T07:09:55.316Z</time></trkpt><trkpt lat="43.2773204" lon="12.205316"><ele>284.4</ele><time>2026-04-04T07:09:56.316Z</time></trkpt><trkpt lat="43.2772975" lon="12.2051653"><ele>284.2</ele><time>2026-04-04T07:09:57.317Z</time></trkpt><trkpt lat="43.2772776" lon="12.2050091"><ele>284.0</ele><time>2026-04-04T07:09:58.316Z</time></trkpt><trkpt lat="43.277259" lon="12.2048657"><ele>284.4</ele><time>2026-04-04T07:09:59.316Z</time></trkpt><trkpt lat="43.277255" lon="12.2047245"><ele>284.79999999999995</ele><time>2026-04-04T07:10:00.316Z</time></trkpt><trkpt lat="43.2772662" lon="12.2045787"><ele>285.20000000000005</ele><time>2026-04-04T07:10:01.316Z</time></trkpt><trkpt lat="43.2772921" lon="12.2044321"><ele>285.6</ele><time>2026-04-04T07:10:02.316Z</time></trkpt><trkpt lat="43.2773276" lon="12.2042652"><ele>286.0</ele><time>2026-04-04T07:10:03.316Z</time></trkpt><trkpt lat="43.2773572" lon="12.2040926"><ele>287.5</ele><time>2026-04-04T07:10:04.317Z</time></trkpt><trkpt lat="43.2773853" lon="12.2039254"><ele>289.0</ele><time>2026-04-04T07:10:05.317Z</time></trkpt><trkpt lat="43.2774047" lon="12.203758"><ele>290.5</ele><time>2026-04-04T07:10:06.317Z</time></trkpt><trkpt lat="43.2774216" lon="12.203605"><ele>292.0</ele><time>2026-04-04T07:10:07.317Z</time></trkpt><trkpt lat="43.2774434" lon="12.2034533"><ele>292.0</ele><time>2026-04-04T07:10:08.317Z</time></trkpt><trkpt lat="43.2774686" lon="12.2033015"><ele>292.0</ele><time>2026-04-04T07:10:09.318Z</time></trkpt><trkpt lat="43.2774982" lon="12.2031683"><ele>292.0</ele><time>2026-04-04T07:10:10.318Z</time></trkpt><trkpt lat="43.2775289" lon="12.2030443"><ele>292.0</ele><time>2026-04-04T07:10:11.317Z</time></trkpt><trkpt lat="43.2775489" lon="12.2029212"><ele>292.0</ele><time>2026-04-04T07:10:12.317Z</time></trkpt><trkpt lat="43.2775578" lon="12.2027964"><ele>292.0</ele><time>2026-04-04T07:10:13.317Z</time></trkpt><trkpt lat="43.2775508" lon="12.2026485"><ele>292.0</ele><time>2026-04-04T07:10:14.318Z</time></trkpt><trkpt lat="43.2775467" lon="12.2024865"><ele>292.0</ele><time>2026-04-04T07:10:15.318Z</time></trkpt><trkpt lat="43.277551" lon="12.2023337"><ele>292.0</ele><time>2026-04-04T07:10:16.318Z</time></trkpt><trkpt lat="43.2775655" lon="12.2021868"><ele>292.0</ele><time>2026-04-04T07:10:17.317Z</time></trkpt><trkpt lat="43.2775826" lon="12.2020512"><ele>292.0</ele><time>2026-04-04T07:10:18.317Z</time></trkpt><trkpt lat="43.2776074" lon="12.2019184"><ele>292.0</ele><time>2026-04-04T07:10:19.317Z</time></trkpt><trkpt lat="43.2776287" lon="12.2017912"><ele>292.0</ele><time>2026-04-04T07:10:20.317Z</time></trkpt><trkpt lat="43.2776568" lon="12.2016628"><ele>292.0</ele><time>2026-04-04T07:10:21.317Z</time></trkpt><trkpt lat="43.2776876" lon="12.2015356"><ele>292.0</ele><time>2026-04-04T07:10:22.318Z</time></trkpt><trkpt lat="43.277722" lon="12.2014117"><ele>291.16666666666663</ele><time>2026-04-04T07:10:23.317Z</time></trkpt><trkpt lat="43.277751" lon="12.2012959"><ele>290.3333333333333</ele><time>2026-04-04T07:10:24.318Z</time></trkpt><trkpt lat="43.2777759" lon="12.2011839"><ele>289.5</ele><time>2026-04-04T07:10:25.317Z</time></trkpt><trkpt lat="43.2778008" lon="12.2010806"><ele>288.6666666666667</ele><time>2026-04-04T07:10:26.318Z</time></trkpt><trkpt lat="43.2778273" lon="12.200978"><ele>287.83333333333337</ele><time>2026-04-04T07:10:27.317Z</time></trkpt><trkpt lat="43.2778483" lon="12.2008721"><ele>287.0</ele><time>2026-04-04T07:10:28.317Z</time></trkpt><trkpt lat="43.2778608" lon="12.2007672"><ele>287.0</ele><time>2026-04-04T07:10:29.317Z</time></trkpt><trkpt lat="43.2778749" lon="12.2006739"><ele>287.0</ele><time>2026-04-04T07:10:30.317Z</time></trkpt><trkpt lat="43.2778874" lon="12.2005804"><ele>287.0</ele><time>2026-04-04T07:10:31.317Z</time></trkpt><trkpt lat="43.2779016" lon="12.2004871"><ele>287.0</ele><time>2026-04-04T07:10:32.317Z</time></trkpt><trkpt lat="43.2779183" lon="12.2003946"><ele>287.0</ele><time>2026-04-04T07:10:33.318Z</time></trkpt><trkpt lat="43.2779366" lon="12.2002967"><ele>287.0</ele><time>2026-04-04T07:10:34.317Z</time></trkpt><trkpt lat="43.2779656" lon="12.20019"><ele>287.0</ele><time>2026-04-04T07:10:35.317Z</time></trkpt><trkpt lat="43.2780055" lon="12.2000756"><ele>287.6</ele><time>2026-04-04T07:10:36.317Z</time></trkpt><trkpt lat="43.2780611" lon="12.1999628"><ele>288.2</ele><time>2026-04-04T07:10:37.318Z</time></trkpt><trkpt lat="43.2781231" lon="12.199848"><ele>288.8</ele><time>2026-04-04T07:10:38.318Z</time></trkpt><trkpt lat="43.2781965" lon="12.1997336"><ele>289.4</ele><time>2026-04-04T07:10:39.317Z</time></trkpt><trkpt lat="43.2782629" lon="12.1996302"><ele>290.0</ele><time>2026-04-04T07:10:40.317Z</time></trkpt><trkpt lat="43.2783233" lon="12.1995304"><ele>290.0</ele><time>2026-04-04T07:10:41.317Z</time></trkpt><trkpt lat="43.2783728" lon="12.1994426"><ele>290.0</ele><time>2026-04-04T07:10:42.317Z</time></trkpt><trkpt lat="43.278415" lon="12.1993627"><ele>290.0</ele><time>2026-04-04T07:10:43.317Z</time></trkpt><trkpt lat="43.2784926" lon="12.1992227"><ele>290.0</ele><time>2026-04-04T07:10:45.317Z</time></trkpt><trkpt lat="43.2785777" lon="12.1991306"><ele>290.0</ele><time>2026-04-04T07:10:47.317Z</time></trkpt><trkpt lat="43.2786534" lon="12.1990717"><ele>290.0</ele><time>2026-04-04T07:10:49.318Z</time></trkpt><trkpt lat="43.2787115" lon="12.1990063"><ele>290.0</ele><time>2026-04-04T07:10:52.317Z</time></trkpt><trkpt lat="43.2787976" lon="12.1988975"><ele>290.0</ele><time>2026-04-04T07:10:54.318Z</time></trkpt><trkpt lat="43.2788574" lon="12.1988313"><ele>290.0</ele><time>2026-04-04T07:10:55.317Z</time></trkpt><trkpt lat="43.2789199" lon="12.1987722"><ele>290.0</ele><time>2026-04-04T07:10:56.318Z</time></trkpt><trkpt lat="43.2789795" lon="12.198726"><ele>290.0</ele><time>2026-04-04T07:10:57.317Z</time></trkpt><trkpt lat="43.279047" lon="12.1986704"><ele>288.5</ele><time>2026-04-04T07:10:58.317Z</time></trkpt><trkpt lat="43.279118" lon="12.1986225"><ele>287.0</ele><time>2026-04-04T07:10:59.317Z</time></trkpt><trkpt lat="43.2791927" lon="12.1985733"><ele>285.5</ele><time>2026-04-04T07:11:00.318Z</time></trkpt><trkpt lat="43.279283" lon="12.1985253"><ele>284.0</ele><time>2026-04-04T07:11:01.318Z</time></trkpt><trkpt lat="43.279491" lon="12.1984164"><ele>284.0</ele><time>2026-04-04T07:11:03.318Z</time></trkpt><trkpt lat="43.2795829" lon="12.1983449"><ele>284.0</ele><time>2026-04-04T07:11:04.318Z</time></trkpt><trkpt lat="43.2796607" lon="12.198258"><ele>284.0</ele><time>2026-04-04T07:11:05.318Z</time></trkpt><trkpt lat="43.2797292" lon="12.1981583"><ele>284.0</ele><time>2026-04-04T07:11:06.319Z</time></trkpt><trkpt lat="43.2798015" lon="12.1980463"><ele>284.0</ele><time>2026-04-04T07:11:07.319Z</time></trkpt><trkpt lat="43.2798726" lon="12.1979172"><ele>284.0</ele><time>2026-04-04T07:11:08.318Z</time></trkpt><trkpt lat="43.27993" lon="12.1977877"><ele>284.0</ele><time>2026-04-04T07:11:09.318Z</time></trkpt><trkpt lat="43.2799788" lon="12.197649"><ele>284.0</ele><time>2026-04-04T07:11:10.319Z</time></trkpt><trkpt lat="43.2800247" lon="12.1975024"><ele>284.0</ele><time>2026-04-04T07:11:11.319Z</time></trkpt><trkpt lat="43.2800673" lon="12.1973517"><ele>283.75</ele><time>2026-04-04T07:11:12.318Z</time></trkpt><trkpt lat="43.2801033" lon="12.1971939"><ele>283.5</ele><time>2026-04-04T07:11:13.318Z</time></trkpt><trkpt lat="43.2801304" lon="12.1970395"><ele>283.25</ele><time>2026-04-04T07:11:14.318Z</time></trkpt><trkpt lat="43.2801602" lon="12.1968791"><ele>283.0</ele><time>2026-04-04T07:11:15.318Z</time></trkpt><trkpt lat="43.2801906" lon="12.196718"><ele>283.0</ele><time>2026-04-04T07:11:16.318Z</time></trkpt><trkpt lat="43.2802194" lon="12.1965613"><ele>283.0</ele><time>2026-04-04T07:11:17.318Z</time></trkpt><trkpt lat="43.280245" lon="12.1964083"><ele>283.0</ele><time>2026-04-04T07:11:18.318Z</time></trkpt><trkpt lat="43.2802757" lon="12.1962495"><ele>283.0</ele><time>2026-04-04T07:11:19.318Z</time></trkpt><trkpt lat="43.2803101" lon="12.1960892"><ele>283.0</ele><time>2026-04-04T07:11:20.318Z</time></trkpt><trkpt lat="43.2803429" lon="12.1959307"><ele>283.0</ele><time>2026-04-04T07:11:21.319Z</time></trkpt><trkpt lat="43.2803697" lon="12.1957957"><ele>283.0</ele><time>2026-04-04T07:11:22.318Z</time></trkpt><trkpt lat="43.2803903" lon="12.1956849"><ele>283.0</ele><time>2026-04-04T07:11:23.318Z</time></trkpt><trkpt lat="43.2804019" lon="12.1955966"><ele>283.0</ele><time>2026-04-04T07:11:24.318Z</time></trkpt><trkpt lat="43.2804341" lon="12.195484"><ele>283.2</ele><time>2026-04-04T07:11:26.318Z</time></trkpt><trkpt lat="43.2804447" lon="12.1953943"><ele>283.4</ele><time>2026-04-04T07:11:28.318Z</time></trkpt><trkpt lat="43.2803835" lon="12.1952359"><ele>283.59999999999997</ele><time>2026-04-04T07:11:30.318Z</time></trkpt><trkpt lat="43.2803384" lon="12.1951228"><ele>283.8</ele><time>2026-04-04T07:11:31.319Z</time></trkpt><trkpt lat="43.280281" lon="12.1949906"><ele>284.0</ele><time>2026-04-04T07:11:32.318Z</time></trkpt><trkpt lat="43.280215" lon="12.1948492"><ele>284.25</ele><time>2026-04-04T07:11:33.318Z</time></trkpt><trkpt lat="43.2801415" lon="12.1946959"><ele>284.5</ele><time>2026-04-04T07:11:34.318Z</time></trkpt><trkpt lat="43.2800685" lon="12.1945418"><ele>284.75</ele><time>2026-04-04T07:11:35.318Z</time></trkpt><trkpt lat="43.2799922" lon="12.1943779"><ele>285.0</ele><time>2026-04-04T07:11:36.318Z</time></trkpt><trkpt lat="43.2799153" lon="12.194209"><ele>285.0</ele><time>2026-04-04T07:11:37.318Z</time></trkpt><trkpt lat="43.2798354" lon="12.194029"><ele>285.0</ele><time>2026-04-04T07:11:38.318Z</time></trkpt><trkpt lat="43.2797527" lon="12.193854"><ele>285.0</ele><time>2026-04-04T07:11:39.319Z</time></trkpt><trkpt lat="43.2796437" lon="12.1936652"><ele>285.6666666666667</ele><time>2026-04-04T07:11:40.318Z</time></trkpt><trkpt lat="43.2795272" lon="12.1934865"><ele>286.33333333333337</ele><time>2026-04-04T07:11:41.319Z</time></trkpt><trkpt lat="43.2793983" lon="12.1933236"><ele>287.0</ele><time>2026-04-04T07:11:42.318Z</time></trkpt><trkpt lat="43.2792634" lon="12.1931676"><ele>286.0</ele><time>2026-04-04T07:11:43.318Z</time></trkpt><trkpt lat="43.2791245" lon="12.1930277"><ele>285.0</ele><time>2026-04-04T07:11:44.318Z</time></trkpt><trkpt lat="43.2789997" lon="12.1928816"><ele>284.0</ele><time>2026-04-04T07:11:45.318Z</time></trkpt><trkpt lat="43.2788771" lon="12.1927151"><ele>284.0</ele><time>2026-04-04T07:11:46.318Z</time></trkpt><trkpt lat="43.2787697" lon="12.1925294"><ele>284.0</ele><time>2026-04-04T07:11:47.318Z</time></trkpt><trkpt lat="43.2786727" lon="12.1923137"><ele>284.0</ele><time>2026-04-04T07:11:48.318Z</time></trkpt><trkpt lat="43.2785985" lon="12.1920777"><ele>284.0</ele><time>2026-04-04T07:11:49.318Z</time></trkpt><trkpt lat="43.2785448" lon="12.1918252"><ele>284.0</ele><time>2026-04-04T07:11:50.318Z</time></trkpt><trkpt lat="43.2784909" lon="12.1915589"><ele>284.0</ele><time>2026-04-04T07:11:51.319Z</time></trkpt><trkpt lat="43.2784531" lon="12.1912838"><ele>284.0</ele><time>2026-04-04T07:11:52.318Z</time></trkpt><trkpt lat="43.2784611" lon="12.1909995"><ele>284.0</ele><time>2026-04-04T07:11:53.32Z</time></trkpt><trkpt lat="43.2784333" lon="12.1907303"><ele>284.0</ele><time>2026-04-04T07:11:54.318Z</time></trkpt><trkpt lat="43.2783979" lon="12.1904385"><ele>285.0</ele><time>2026-04-04T07:11:55.318Z</time></trkpt><trkpt lat="43.2783732" lon="12.1901465"><ele>286.0</ele><time>2026-04-04T07:11:56.319Z</time></trkpt><trkpt lat="43.2783505" lon="12.1898631"><ele>287.0</ele><time>2026-04-04T07:11:57.319Z</time></trkpt><trkpt lat="43.2783183" lon="12.1895849"><ele>287.0</ele><time>2026-04-04T07:11:58.319Z</time></trkpt><trkpt lat="43.2782883" lon="12.1893125"><ele>287.0</ele><time>2026-04-04T07:11:59.319Z</time></trkpt><trkpt lat="43.2782625" lon="12.1890333"><ele>287.0</ele><time>2026-04-04T07:12:00.319Z</time></trkpt><trkpt lat="43.2782318" lon="12.1887688"><ele>286.6666666666667</ele><time>2026-04-04T07:12:01.32Z</time></trkpt><trkpt lat="43.2782051" lon="12.1885223"><ele>286.3333333333333</ele><time>2026-04-04T07:12:02.32Z</time></trkpt><trkpt lat="43.278179" lon="12.1882933"><ele>286.0</ele><time>2026-04-04T07:12:03.319Z</time></trkpt><trkpt lat="43.2781648" lon="12.1880945"><ele>286.75</ele><time>2026-04-04T07:12:04.32Z</time></trkpt><trkpt lat="43.2781525" lon="12.1879223"><ele>287.5</ele><time>2026-04-04T07:12:05.319Z</time></trkpt><trkpt lat="43.2781416" lon="12.1877778"><ele>288.25</ele><time>2026-04-04T07:12:06.319Z</time></trkpt><trkpt lat="43.2781306" lon="12.1876269"><ele>289.0</ele><time>2026-04-04T07:12:07.32Z</time></trkpt><trkpt lat="43.2781115" lon="12.1874725"><ele>287.75</ele><time>2026-04-04T07:12:08.319Z</time></trkpt><trkpt lat="43.2780868" lon="12.1872993"><ele>286.5</ele><time>2026-04-04T07:12:09.32Z</time></trkpt><trkpt lat="43.2780653" lon="12.1871008"><ele>285.25</ele><time>2026-04-04T07:12:10.319Z</time></trkpt><trkpt lat="43.2780438" lon="12.1869028"><ele>284.0</ele><time>2026-04-04T07:12:11.32Z</time></trkpt><trkpt lat="43.2780203" lon="12.1867066"><ele>284.25</ele><time>2026-04-04T07:12:12.319Z</time></trkpt><trkpt lat="43.277998" lon="12.1865073"><ele>284.5</ele><time>2026-04-04T07:12:13.319Z</time></trkpt><trkpt lat="43.2779778" lon="12.1863093"><ele>284.75</ele><time>2026-04-04T07:12:14.319Z</time></trkpt><trkpt lat="43.277962" lon="12.1861231"><ele>285.0</ele><time>2026-04-04T07:12:15.319Z</time></trkpt><trkpt lat="43.2779455" lon="12.1859439"><ele>285.0</ele><time>2026-04-04T07:12:16.319Z</time></trkpt><trkpt lat="43.2779288" lon="12.1857719"><ele>285.0</ele><time>2026-04-04T07:12:17.319Z</time></trkpt><trkpt lat="43.2779107" lon="12.1856094"><ele>285.0</ele><time>2026-04-04T07:12:18.319Z</time></trkpt><trkpt lat="43.2778959" lon="12.1854547"><ele>285.0</ele><time>2026-04-04T07:12:19.32Z</time></trkpt><trkpt lat="43.2778773" lon="12.1853056"><ele>285.0</ele><time>2026-04-04T07:12:20.319Z</time></trkpt><trkpt lat="43.2778559" lon="12.1851716"><ele>285.0</ele><time>2026-04-04T07:12:21.32Z</time></trkpt><trkpt lat="43.2778425" lon="12.1850479"><ele>285.0</ele><time>2026-04-04T07:12:22.319Z</time></trkpt><trkpt lat="43.2778291" lon="12.1849407"><ele>285.0</ele><time>2026-04-04T07:12:23.319Z</time></trkpt><trkpt lat="43.2778215" lon="12.1848464"><ele>285.0</ele><time>2026-04-04T07:12:24.319Z</time></trkpt><trkpt lat="43.2778747" lon="12.184696"><ele>285.0</ele><time>2026-04-04T07:12:26.319Z</time></trkpt><trkpt lat="43.2779486" lon="12.1846298"><ele>285.0</ele><time>2026-04-04T07:12:27.319Z</time></trkpt><trkpt lat="43.2780361" lon="12.1845601"><ele>285.0</ele><time>2026-04-04T07:12:28.319Z</time></trkpt><trkpt lat="43.2781338" lon="12.1844678"><ele>285.0</ele><time>2026-04-04T07:12:29.319Z</time></trkpt><trkpt lat="43.2782311" lon="12.1843625"><ele>285.0</ele><time>2026-04-04T07:12:30.32Z</time></trkpt><trkpt lat="43.2783512" lon="12.1842653"><ele>285.25</ele><time>2026-04-04T07:12:31.319Z</time></trkpt><trkpt lat="43.2784628" lon="12.1841527"><ele>285.5</ele><time>2026-04-04T07:12:32.32Z</time></trkpt><trkpt lat="43.2785865" lon="12.1840434"><ele>285.75</ele><time>2026-04-04T07:12:33.32Z</time></trkpt><trkpt lat="43.2787143" lon="12.1839204"><ele>286.0</ele><time>2026-04-04T07:12:34.319Z</time></trkpt><trkpt lat="43.2788433" lon="12.1837992"><ele>286.66666666666663</ele><time>2026-04-04T07:12:35.319Z</time></trkpt><trkpt lat="43.2789713" lon="12.1836775"><ele>287.3333333333333</ele><time>2026-04-04T07:12:36.319Z</time></trkpt><trkpt lat="43.2790965" lon="12.1835579"><ele>288.0</ele><time>2026-04-04T07:12:37.32Z</time></trkpt><trkpt lat="43.2792258" lon="12.1834392"><ele>288.0</ele><time>2026-04-04T07:12:38.319Z</time></trkpt><trkpt lat="43.2793481" lon="12.183326"><ele>288.0</ele><time>2026-04-04T07:12:39.319Z</time></trkpt><trkpt lat="43.2794621" lon="12.1832249"><ele>288.0</ele><time>2026-04-04T07:12:40.319Z</time></trkpt><trkpt lat="43.2795686" lon="12.1831294"><ele>288.0</ele><time>2026-04-04T07:12:41.319Z</time></trkpt><trkpt lat="43.2796506" lon="12.1830462"><ele>288.0</ele><time>2026-04-04T07:12:42.319Z</time></trkpt><trkpt lat="43.2797242" lon="12.1829805"><ele>288.0</ele><time>2026-04-04T07:12:43.32Z</time></trkpt><trkpt lat="43.2797803" lon="12.1829261"><ele>288.0</ele><time>2026-04-04T07:12:44.32Z</time></trkpt><trkpt lat="43.2798504" lon="12.1828688"><ele>288.0</ele><time>2026-04-04T07:12:46.319Z</time></trkpt><trkpt lat="43.2799614" lon="12.1827271"><ele>288.0</ele><time>2026-04-04T07:13:36.32Z</time></trkpt><trkpt lat="43.2800387" lon="12.1826443"><ele>288.25</ele><time>2026-04-04T07:13:37.321Z</time></trkpt><trkpt lat="43.2801292" lon="12.1825506"><ele>288.5</ele><time>2026-04-04T07:13:38.32Z</time></trkpt><trkpt lat="43.2802285" lon="12.1824491"><ele>288.75</ele><time>2026-04-04T07:13:39.32Z</time></trkpt><trkpt lat="43.2803334" lon="12.1823494"><ele>289.0</ele><time>2026-04-04T07:13:40.32Z</time></trkpt><trkpt lat="43.2804449" lon="12.1822466"><ele>289.0</ele><time>2026-04-04T07:13:41.32Z</time></trkpt><trkpt lat="43.280565" lon="12.1821286"><ele>289.0</ele><time>2026-04-04T07:13:42.321Z</time></trkpt><trkpt lat="43.2806973" lon="12.1819961"><ele>289.0</ele><time>2026-04-04T07:13:43.321Z</time></trkpt><trkpt lat="43.280833" lon="12.1818606"><ele>289.3333333333333</ele><time>2026-04-04T07:13:44.32Z</time></trkpt><trkpt lat="43.2809731" lon="12.1817212"><ele>289.6666666666667</ele><time>2026-04-04T07:13:45.322Z</time></trkpt><trkpt lat="43.2811178" lon="12.1815781"><ele>290.0</ele><time>2026-04-04T07:13:46.321Z</time></trkpt><trkpt lat="43.2812623" lon="12.1814362"><ele>290.0</ele><time>2026-04-04T07:13:47.321Z</time></trkpt><trkpt lat="43.2814002" lon="12.1813006"><ele>290.0</ele><time>2026-04-04T07:13:48.321Z</time></trkpt><trkpt lat="43.281532" lon="12.181171"><ele>290.0</ele><time>2026-04-04T07:13:49.321Z</time></trkpt><trkpt lat="43.2816579" lon="12.1810503"><ele>290.5</ele><time>2026-04-04T07:13:50.321Z</time></trkpt><trkpt lat="43.2817753" lon="12.1809362"><ele>291.0</ele><time>2026-04-04T07:13:51.321Z</time></trkpt><trkpt lat="43.2818878" lon="12.1808342"><ele>291.5</ele><time>2026-04-04T07:13:52.321Z</time></trkpt><trkpt lat="43.2819994" lon="12.1807484"><ele>292.0</ele><time>2026-04-04T07:13:53.321Z</time></trkpt><trkpt lat="43.2821155" lon="12.1806816"><ele>292.0</ele><time>2026-04-04T07:13:54.321Z</time></trkpt><trkpt lat="43.2822258" lon="12.1806369"><ele>292.0</ele><time>2026-04-04T07:13:55.321Z</time></trkpt><trkpt lat="43.2823443" lon="12.1806253"><ele>292.0</ele><time>2026-04-04T07:13:56.321Z</time></trkpt><trkpt lat="43.2824697" lon="12.1806465"><ele>292.0</ele><time>2026-04-04T07:13:57.321Z</time></trkpt><trkpt lat="43.2826081" lon="12.1806867"><ele>294.25</ele><time>2026-04-04T07:13:58.322Z</time></trkpt><trkpt lat="43.2827462" lon="12.1807554"><ele>296.5</ele><time>2026-04-04T07:13:59.321Z</time></trkpt><trkpt lat="43.2828753" lon="12.1808396"><ele>298.75</ele><time>2026-04-04T07:14:00.322Z</time></trkpt><trkpt lat="43.2829981" lon="12.1809274"><ele>301.0</ele><time>2026-04-04T07:14:01.321Z</time></trkpt><trkpt lat="43.283095" lon="12.181046"><ele>303.75</ele><time>2026-04-04T07:14:02.321Z</time></trkpt><trkpt lat="43.2831877" lon="12.1811607"><ele>306.5</ele><time>2026-04-04T07:14:03.321Z</time></trkpt><trkpt lat="43.283298" lon="12.1812654"><ele>309.25</ele><time>2026-04-04T07:14:04.321Z</time></trkpt><trkpt lat="43.283421" lon="12.1813666"><ele>312.0</ele><time>2026-04-04T07:14:05.321Z</time></trkpt><trkpt lat="43.28357" lon="12.1814645"><ele>311.0</ele><time>2026-04-04T07:14:06.321Z</time></trkpt><trkpt lat="43.2837257" lon="12.1815646"><ele>310.0</ele><time>2026-04-04T07:14:07.321Z</time></trkpt><trkpt lat="43.2838644" lon="12.1816587"><ele>309.0</ele><time>2026-04-04T07:14:08.321Z</time></trkpt><trkpt lat="43.2839972" lon="12.1817504"><ele>312.0</ele><time>2026-04-04T07:14:09.321Z</time></trkpt><trkpt lat="43.2841194" lon="12.181855"><ele>315.0</ele><time>2026-04-04T07:14:10.321Z</time></trkpt><trkpt lat="43.2842259" lon="12.1819845"><ele>318.0</ele><time>2026-04-04T07:14:11.321Z</time></trkpt><trkpt lat="43.2843091" lon="12.1821162"><ele>321.0</ele><time>2026-04-04T07:14:12.321Z</time></trkpt><trkpt lat="43.2843872" lon="12.1822287"><ele>321.0</ele><time>2026-04-04T07:14:13.321Z</time></trkpt><trkpt lat="43.2844764" lon="12.182313"><ele>321.0</ele><time>2026-04-04T07:14:14.321Z</time></trkpt><trkpt lat="43.2845778" lon="12.1823757"><ele>321.0</ele><time>2026-04-04T07:14:15.322Z</time></trkpt><trkpt lat="43.2846903" lon="12.1823908"><ele>321.0</ele><time>2026-04-04T07:14:16.321Z</time></trkpt><trkpt lat="43.2848279" lon="12.1823831"><ele>323.0</ele><time>2026-04-04T07:14:17.321Z</time></trkpt><trkpt lat="43.2849634" lon="12.1823265"><ele>325.0</ele><time>2026-04-04T07:14:18.321Z</time></trkpt><trkpt lat="43.2850964" lon="12.1822585"><ele>327.0</ele><time>2026-04-04T07:14:19.321Z</time></trkpt><trkpt lat="43.2852152" lon="12.1821696"><ele>329.0</ele><time>2026-04-04T07:14:20.321Z</time></trkpt><trkpt lat="43.2853101" lon="12.1820533"><ele>329.0</ele><time>2026-04-04T07:14:21.321Z</time></trkpt><trkpt lat="43.2853948" lon="12.1819316"><ele>329.0</ele><time>2026-04-04T07:14:22.321Z</time></trkpt><trkpt lat="43.2854489" lon="12.181802"><ele>329.0</ele><time>2026-04-04T07:14:23.322Z</time></trkpt><trkpt lat="43.2854603" lon="12.1816537"><ele>329.0</ele><time>2026-04-04T07:14:24.321Z</time></trkpt><trkpt lat="43.2854446" lon="12.1814621"><ele>334.0</ele><time>2026-04-04T07:14:25.321Z</time></trkpt><trkpt lat="43.2854094" lon="12.1812578"><ele>339.0</ele><time>2026-04-04T07:14:26.321Z</time></trkpt><trkpt lat="43.285353" lon="12.1810482"><ele>344.0</ele><time>2026-04-04T07:14:27.321Z</time></trkpt><trkpt lat="43.2852868" lon="12.1808667"><ele>344.0</ele><time>2026-04-04T07:14:28.321Z</time></trkpt><trkpt lat="43.285202" lon="12.1806915"><ele>344.0</ele><time>2026-04-04T07:14:29.321Z</time></trkpt><trkpt lat="43.2851181" lon="12.1805527"><ele>344.0</ele><time>2026-04-04T07:14:30.322Z</time></trkpt><trkpt lat="43.2850224" lon="12.1802906"><ele>344.6</ele><time>2026-04-04T07:14:32.321Z</time></trkpt><trkpt lat="43.2849958" lon="12.180179"><ele>345.2</ele><time>2026-04-04T07:14:33.321Z</time></trkpt><trkpt lat="43.2849841" lon="12.1800721"><ele>345.8</ele><time>2026-04-04T07:14:34.322Z</time></trkpt><trkpt lat="43.2850731" lon="12.1800058"><ele>346.40000000000003</ele><time>2026-04-04T07:14:35.321Z</time></trkpt><trkpt lat="43.2851861" lon="12.1800337"><ele>347.0</ele><time>2026-04-04T07:14:37.321Z</time></trkpt><trkpt lat="43.2852647" lon="12.1800441"><ele>347.0</ele><time>2026-04-04T07:14:38.323Z</time></trkpt><trkpt lat="43.285361" lon="12.180074"><ele>347.0</ele><time>2026-04-04T07:14:39.322Z</time></trkpt><trkpt lat="43.2854598" lon="12.1801343"><ele>347.0</ele><time>2026-04-04T07:14:40.322Z</time></trkpt><trkpt lat="43.2856149" lon="12.1802051"><ele>347.0</ele><time>2026-04-04T07:14:41.322Z</time></trkpt><trkpt lat="43.2858144" lon="12.1802759"><ele>348.6666666666667</ele><time>2026-04-04T07:14:42.322Z</time></trkpt><trkpt lat="43.2860268" lon="12.1803388"><ele>350.3333333333333</ele><time>2026-04-04T07:14:43.322Z</time></trkpt><trkpt lat="43.2862278" lon="12.180388"><ele>352.0</ele><time>2026-04-04T07:14:44.322Z</time></trkpt><trkpt lat="43.2864205" lon="12.1803771"><ele>354.66666666666663</ele><time>2026-04-04T07:14:45.322Z</time></trkpt><trkpt lat="43.286621" lon="12.1803568"><ele>357.3333333333333</ele><time>2026-04-04T07:14:46.322Z</time></trkpt><trkpt lat="43.2868143" lon="12.1803046"><ele>360.0</ele><time>2026-04-04T07:14:47.322Z</time></trkpt><trkpt lat="43.2870107" lon="12.1802619"><ele>360.0</ele><time>2026-04-04T07:14:48.322Z</time></trkpt><trkpt lat="43.2872127" lon="12.1802304"><ele>360.0</ele><time>2026-04-04T07:14:49.322Z</time></trkpt><trkpt lat="43.2873989" lon="12.1802018"><ele>360.0</ele><time>2026-04-04T07:14:50.322Z</time></trkpt><trkpt lat="43.2875552" lon="12.1801719"><ele>362.5</ele><time>2026-04-04T07:14:51.322Z</time></trkpt><trkpt lat="43.2876894" lon="12.1801418"><ele>365.0</ele><time>2026-04-04T07:14:52.322Z</time></trkpt><trkpt lat="43.2878128" lon="12.180103"><ele>367.5</ele><time>2026-04-04T07:14:53.322Z</time></trkpt><trkpt lat="43.2879219" lon="12.1800854"><ele>370.0</ele><time>2026-04-04T07:14:54.323Z</time></trkpt><trkpt lat="43.2880303" lon="12.1800679"><ele>372.5</ele><time>2026-04-04T07:14:55.322Z</time></trkpt><trkpt lat="43.288138" lon="12.1800865"><ele>375.0</ele><time>2026-04-04T07:14:56.323Z</time></trkpt><trkpt lat="43.288256" lon="12.1801656"><ele>377.5</ele><time>2026-04-04T07:14:57.322Z</time></trkpt><trkpt lat="43.2883751" lon="12.1802455"><ele>380.0</ele><time>2026-04-04T07:14:58.322Z</time></trkpt><trkpt lat="43.2884539" lon="12.180322"><ele>380.0</ele><time>2026-04-04T07:14:59.322Z</time></trkpt><trkpt lat="43.2886015" lon="12.18042"><ele>380.0</ele><time>2026-04-04T07:15:01.322Z</time></trkpt><trkpt lat="43.2887013" lon="12.1803692"><ele>380.0</ele><time>2026-04-04T07:15:02.322Z</time></trkpt><trkpt lat="43.2888034" lon="12.180314"><ele>380.0</ele><time>2026-04-04T07:15:03.322Z</time></trkpt><trkpt lat="43.288914" lon="12.1802368"><ele>382.5</ele><time>2026-04-04T07:15:04.323Z</time></trkpt><trkpt lat="43.2890313" lon="12.1801632"><ele>385.0</ele><time>2026-04-04T07:15:05.322Z</time></trkpt><trkpt lat="43.2891376" lon="12.1801057"><ele>387.5</ele><time>2026-04-04T07:15:06.322Z</time></trkpt><trkpt lat="43.289237" lon="12.1800539"><ele>390.0</ele><time>2026-04-04T07:15:07.323Z</time></trkpt><trkpt lat="43.2893341" lon="12.1800091"><ele>390.0</ele><time>2026-04-04T07:15:08.323Z</time></trkpt><trkpt lat="43.2894135" lon="12.1799947"><ele>390.0</ele><time>2026-04-04T07:15:09.322Z</time></trkpt><trkpt lat="43.2895017" lon="12.1799977"><ele>390.0</ele><time>2026-04-04T07:15:10.322Z</time></trkpt><trkpt lat="43.289607" lon="12.1800044"><ele>390.0</ele><time>2026-04-04T07:15:11.322Z</time></trkpt><trkpt lat="43.2897159" lon="12.1800573"><ele>390.0</ele><time>2026-04-04T07:15:12.322Z</time></trkpt><trkpt lat="43.2898456" lon="12.1801299"><ele>391.0</ele><time>2026-04-04T07:15:13.322Z</time></trkpt><trkpt lat="43.289972" lon="12.1802294"><ele>392.0</ele><time>2026-04-04T07:15:14.322Z</time></trkpt><trkpt lat="43.2901188" lon="12.1803373"><ele>393.0</ele><time>2026-04-04T07:15:15.322Z</time></trkpt><trkpt lat="43.2902699" lon="12.1804256"><ele>393.0</ele><time>2026-04-04T07:15:16.323Z</time></trkpt><trkpt lat="43.2904075" lon="12.1805122"><ele>393.0</ele><time>2026-04-04T07:15:17.322Z</time></trkpt><trkpt lat="43.2905584" lon="12.1807739"><ele>393.0</ele><time>2026-04-04T07:15:18.322Z</time></trkpt><trkpt lat="43.2906843" lon="12.1808771"><ele>397.0</ele><time>2026-04-04T07:15:19.322Z</time></trkpt><trkpt lat="43.2908089" lon="12.180992"><ele>401.0</ele><time>2026-04-04T07:15:20.322Z</time></trkpt><trkpt lat="43.2909382" lon="12.1811079"><ele>405.0</ele><time>2026-04-04T07:15:21.322Z</time></trkpt><trkpt lat="43.2910548" lon="12.1812188"><ele>409.0</ele><time>2026-04-04T07:15:22.322Z</time></trkpt><trkpt lat="43.2912655" lon="12.1814429"><ele>412.5</ele><time>2026-04-04T07:15:24.323Z</time></trkpt><trkpt lat="43.2913765" lon="12.1815267"><ele>416.0</ele><time>2026-04-04T07:15:25.322Z</time></trkpt><trkpt lat="43.291498" lon="12.1815348"><ele>419.5</ele><time>2026-04-04T07:15:26.322Z</time></trkpt><trkpt lat="43.2916251" lon="12.1815535"><ele>423.0</ele><time>2026-04-04T07:15:27.323Z</time></trkpt><trkpt lat="43.2917704" lon="12.1815389"><ele>423.1666666666667</ele><time>2026-04-04T07:15:28.322Z</time></trkpt><trkpt lat="43.291857" lon="12.1815721"><ele>423.33333333333337</ele><time>2026-04-04T07:15:29.323Z</time></trkpt><trkpt lat="43.2919258" lon="12.1816505"><ele>423.5</ele><time>2026-04-04T07:15:30.324Z</time></trkpt><trkpt lat="43.2919613" lon="12.1817601"><ele>423.6666666666667</ele><time>2026-04-04T07:15:31.323Z</time></trkpt><trkpt lat="43.2919592" lon="12.1818738"><ele>423.83333333333337</ele><time>2026-04-04T07:15:32.322Z</time></trkpt><trkpt lat="43.291925" lon="12.1819826"><ele>424.0</ele><time>2026-04-04T07:15:33.323Z</time></trkpt><trkpt lat="43.2918541" lon="12.1820772"><ele>424.0</ele><time>2026-04-04T07:15:34.323Z</time></trkpt><trkpt lat="43.2917525" lon="12.1821626"><ele>424.0</ele><time>2026-04-04T07:15:35.323Z</time></trkpt><trkpt lat="43.2916283" lon="12.1822445"><ele>424.0</ele><time>2026-04-04T07:15:36.323Z</time></trkpt><trkpt lat="43.2914973" lon="12.1823043"><ele>424.0</ele><time>2026-04-04T07:15:37.323Z</time></trkpt><trkpt lat="43.2913673" lon="12.182358"><ele>423.75</ele><time>2026-04-04T07:15:38.324Z</time></trkpt><trkpt lat="43.2912333" lon="12.1823894"><ele>423.5</ele><time>2026-04-04T07:15:39.323Z</time></trkpt><trkpt lat="43.2910812" lon="12.1823572"><ele>423.25</ele><time>2026-04-04T07:15:40.323Z</time></trkpt><trkpt lat="43.2909325" lon="12.1823274"><ele>423.0</ele><time>2026-04-04T07:15:41.323Z</time></trkpt><trkpt lat="43.2908076" lon="12.1822947"><ele>423.0</ele><time>2026-04-04T07:15:42.323Z</time></trkpt><trkpt lat="43.290692" lon="12.1822719"><ele>423.0</ele><time>2026-04-04T07:15:43.323Z</time></trkpt><trkpt lat="43.2905874" lon="12.1823025"><ele>423.0</ele><time>2026-04-04T07:15:44.323Z</time></trkpt><trkpt lat="43.2904861" lon="12.1823486"><ele>423.0</ele><time>2026-04-04T07:15:45.323Z</time></trkpt><trkpt lat="43.2904027" lon="12.1824241"><ele>423.0</ele><time>2026-04-04T07:15:46.324Z</time></trkpt><trkpt lat="43.2903405" lon="12.1825214"><ele>425.79999999999995</ele><time>2026-04-04T07:15:47.323Z</time></trkpt><trkpt lat="43.2903111" lon="12.1826316"><ele>428.6</ele><time>2026-04-04T07:15:48.323Z</time></trkpt><trkpt lat="43.2903383" lon="12.1827705"><ele>431.40000000000003</ele><time>2026-04-04T07:15:50.323Z</time></trkpt><trkpt lat="43.2904085" lon="12.1828089"><ele>434.20000000000005</ele><time>2026-04-04T07:15:51.324Z</time></trkpt><trkpt lat="43.2905094" lon="12.1828608"><ele>437.0</ele><time>2026-04-04T07:15:52.323Z</time></trkpt><trkpt lat="43.2906546" lon="12.182879"><ele>439.3333333333333</ele><time>2026-04-04T07:15:53.323Z</time></trkpt><trkpt lat="43.2908104" lon="12.1828913"><ele>441.66666666666663</ele><time>2026-04-04T07:15:54.323Z</time></trkpt><trkpt lat="43.290964" lon="12.1829114"><ele>444.0</ele><time>2026-04-04T07:15:55.323Z</time></trkpt><trkpt lat="43.2911024" lon="12.1829529"><ele>444.0</ele><time>2026-04-04T07:15:56.323Z</time></trkpt><trkpt lat="43.2912458" lon="12.1830019"><ele>444.0</ele><time>2026-04-04T07:15:57.323Z</time></trkpt><trkpt lat="43.2913967" lon="12.1831048"><ele>444.0</ele><time>2026-04-04T07:15:58.323Z</time></trkpt><trkpt lat="43.2915369" lon="12.1832127"><ele>448.66666666666663</ele><time>2026-04-04T07:15:59.323Z</time></trkpt><trkpt lat="43.2916825" lon="12.1833227"><ele>453.3333333333333</ele><time>2026-04-04T07:16:00.323Z</time></trkpt><trkpt lat="43.2918221" lon="12.18344"><ele>458.0</ele><time>2026-04-04T07:16:01.323Z</time></trkpt><trkpt lat="43.2919566" lon="12.1835473"><ele>458.0</ele><time>2026-04-04T07:16:02.323Z</time></trkpt><trkpt lat="43.2920971" lon="12.1836608"><ele>458.0</ele><time>2026-04-04T07:16:03.323Z</time></trkpt><trkpt lat="43.2922383" lon="12.183778"><ele>458.0</ele><time>2026-04-04T07:16:04.323Z</time></trkpt><trkpt lat="43.2923817" lon="12.1839055"><ele>463.0</ele><time>2026-04-04T07:16:05.323Z</time></trkpt><trkpt lat="43.2925167" lon="12.1840408"><ele>468.0</ele><time>2026-04-04T07:16:06.323Z</time></trkpt><trkpt lat="43.2926359" lon="12.184183"><ele>473.0</ele><time>2026-04-04T07:16:07.323Z</time></trkpt><trkpt lat="43.2927501" lon="12.1843343"><ele>473.0</ele><time>2026-04-04T07:16:08.323Z</time></trkpt><trkpt lat="43.2928587" lon="12.1844991"><ele>473.0</ele><time>2026-04-04T07:16:09.324Z</time></trkpt><trkpt lat="43.2929619" lon="12.1846701"><ele>473.0</ele><time>2026-04-04T07:16:10.323Z</time></trkpt><trkpt lat="43.2930601" lon="12.1848282"><ele>477.25</ele><time>2026-04-04T07:16:11.323Z</time></trkpt><trkpt lat="43.2931526" lon="12.1849726"><ele>481.5</ele><time>2026-04-04T07:16:12.323Z</time></trkpt><trkpt lat="43.2932414" lon="12.1850975"><ele>485.75</ele><time>2026-04-04T07:16:13.323Z</time></trkpt><trkpt lat="43.2933286" lon="12.185214"><ele>490.0</ele><time>2026-04-04T07:16:14.323Z</time></trkpt><trkpt lat="43.2934179" lon="12.1852972"><ele>490.0</ele><time>2026-04-04T07:16:15.323Z</time></trkpt><trkpt lat="43.293505" lon="12.185357"><ele>490.0</ele><time>2026-04-04T07:16:16.324Z</time></trkpt><trkpt lat="43.2936019" lon="12.1853921"><ele>490.0</ele><time>2026-04-04T07:16:17.323Z</time></trkpt><trkpt lat="43.2937057" lon="12.1854341"><ele>490.0</ele><time>2026-04-04T07:16:18.323Z</time></trkpt><trkpt lat="43.2938242" lon="12.185466"><ele>490.0</ele><time>2026-04-04T07:16:19.323Z</time></trkpt><trkpt lat="43.2939433" lon="12.1854945"><ele>490.6</ele><time>2026-04-04T07:16:20.323Z</time></trkpt><trkpt lat="43.2940564" lon="12.1855174"><ele>491.2</ele><time>2026-04-04T07:16:21.323Z</time></trkpt><trkpt lat="43.2941652" lon="12.1855319"><ele>491.79999999999995</ele><time>2026-04-04T07:16:22.323Z</time></trkpt><trkpt lat="43.2942664" lon="12.185537"><ele>492.4</ele><time>2026-04-04T07:16:23.323Z</time></trkpt><trkpt lat="43.2943696" lon="12.1855332"><ele>493.0</ele><time>2026-04-04T07:16:24.324Z</time></trkpt><trkpt lat="43.2944693" lon="12.1855078"><ele>493.0</ele><time>2026-04-04T07:16:25.323Z</time></trkpt><trkpt lat="43.2945621" lon="12.1854601"><ele>492.99999999999994</ele><time>2026-04-04T07:16:26.324Z</time></trkpt><trkpt lat="43.2946481" lon="12.1853991"><ele>492.99999999999994</ele><time>2026-04-04T07:16:27.323Z</time></trkpt><trkpt lat="43.2947325" lon="12.1853294"><ele>493.0</ele><time>2026-04-04T07:16:28.325Z</time></trkpt><trkpt lat="43.2948174" lon="12.1852602"><ele>493.0</ele><time>2026-04-04T07:16:29.324Z</time></trkpt><trkpt lat="43.2948986" lon="12.1851937"><ele>493.6666666666667</ele><time>2026-04-04T07:16:30.324Z</time></trkpt><trkpt lat="43.2949755" lon="12.1851288"><ele>494.33333333333337</ele><time>2026-04-04T07:16:31.325Z</time></trkpt><trkpt lat="43.2950405" lon="12.1850679"><ele>495.0</ele><time>2026-04-04T07:16:32.324Z</time></trkpt><trkpt lat="43.295106" lon="12.1850076"><ele>495.66666666666663</ele><time>2026-04-04T07:16:33.324Z</time></trkpt><trkpt lat="43.2951719" lon="12.1849547"><ele>496.3333333333333</ele><time>2026-04-04T07:16:34.324Z</time></trkpt><trkpt lat="43.2952534" lon="12.1849237"><ele>497.0</ele><time>2026-04-04T07:16:35.324Z</time></trkpt><trkpt lat="43.2953388" lon="12.1849165"><ele>496.99999999999994</ele><time>2026-04-04T07:16:36.324Z</time></trkpt><trkpt lat="43.2954302" lon="12.1849342"><ele>497.0</ele><time>2026-04-04T07:16:37.324Z</time></trkpt><trkpt lat="43.2955137" lon="12.184959"><ele>497.0</ele><time>2026-04-04T07:16:38.325Z</time></trkpt><trkpt lat="43.2955956" lon="12.1850004"><ele>497.0</ele><time>2026-04-04T07:16:39.325Z</time></trkpt><trkpt lat="43.2956741" lon="12.1850506"><ele>496.99999999999994</ele><time>2026-04-04T07:16:40.324Z</time></trkpt><trkpt lat="43.295759" lon="12.1850936"><ele>497.0</ele><time>2026-04-04T07:16:41.324Z</time></trkpt><trkpt lat="43.2958449" lon="12.1850956"><ele>495.99999999999994</ele><time>2026-04-04T07:16:42.324Z</time></trkpt><trkpt lat="43.2959233" lon="12.1850909"><ele>495.0</ele><time>2026-04-04T07:16:43.325Z</time></trkpt><trkpt lat="43.2959948" lon="12.1850412"><ele>494.0</ele><time>2026-04-04T07:16:44.324Z</time></trkpt><trkpt lat="43.2960575" lon="12.184959"><ele>493.0</ele><time>2026-04-04T07:16:45.325Z</time></trkpt><trkpt lat="43.296115" lon="12.1848563"><ele>491.99999999999994</ele><time>2026-04-04T07:16:46.324Z</time></trkpt><trkpt lat="43.2961686" lon="12.1847538"><ele>491.0</ele><time>2026-04-04T07:16:47.324Z</time></trkpt><trkpt lat="43.2962246" lon="12.184674"><ele>490.3333333333333</ele><time>2026-04-04T07:16:48.324Z</time></trkpt><trkpt lat="43.2962833" lon="12.1846109"><ele>489.66666666666663</ele><time>2026-04-04T07:16:49.324Z</time></trkpt><trkpt lat="43.2963611" lon="12.1845726"><ele>489.0</ele><time>2026-04-04T07:16:50.324Z</time></trkpt><trkpt lat="43.2964423" lon="12.1845832"><ele>488.33333333333337</ele><time>2026-04-04T07:16:51.324Z</time></trkpt><trkpt lat="43.2965338" lon="12.1846215"><ele>487.6666666666667</ele><time>2026-04-04T07:16:52.324Z</time></trkpt><trkpt lat="43.2966314" lon="12.1846945"><ele>487.0</ele><time>2026-04-04T07:16:53.324Z</time></trkpt><trkpt lat="43.2967171" lon="12.1847853"><ele>488.20000000000005</ele><time>2026-04-04T07:16:54.324Z</time></trkpt><trkpt lat="43.2968011" lon="12.184893"><ele>489.40000000000003</ele><time>2026-04-04T07:16:55.324Z</time></trkpt><trkpt lat="43.2968848" lon="12.1849882"><ele>490.59999999999997</ele><time>2026-04-04T07:16:56.325Z</time></trkpt><trkpt lat="43.29696" lon="12.1850454"><ele>491.79999999999995</ele><time>2026-04-04T07:16:57.324Z</time></trkpt><trkpt lat="43.297036" lon="12.1850746"><ele>493.0</ele><time>2026-04-04T07:16:58.324Z</time></trkpt><trkpt lat="43.2971052" lon="12.1850704"><ele>493.0</ele><time>2026-04-04T07:16:59.324Z</time></trkpt><trkpt lat="43.2971826" lon="12.1850297"><ele>492.99999999999994</ele><time>2026-04-04T07:17:00.324Z</time></trkpt><trkpt lat="43.2972652" lon="12.1849817"><ele>492.99999999999994</ele><time>2026-04-04T07:17:01.324Z</time></trkpt><trkpt lat="43.2973473" lon="12.1849256"><ele>493.0</ele><time>2026-04-04T07:17:02.324Z</time></trkpt><trkpt lat="43.2974315" lon="12.184865"><ele>493.0</ele><time>2026-04-04T07:17:03.325Z</time></trkpt><trkpt lat="43.2975138" lon="12.1848067"><ele>493.0</ele><time>2026-04-04T07:17:04.324Z</time></trkpt><trkpt lat="43.2975968" lon="12.1847543"><ele>492.99999999999994</ele><time>2026-04-04T07:17:05.324Z</time></trkpt><trkpt lat="43.2976943" lon="12.1847112"><ele>492.99999999999994</ele><time>2026-04-04T07:17:06.324Z</time></trkpt><trkpt lat="43.2977967" lon="12.1846764"><ele>493.0</ele><time>2026-04-04T07:17:07.324Z</time></trkpt><trkpt lat="43.2978935" lon="12.1846556"><ele>493.0</ele><time>2026-04-04T07:17:08.324Z</time></trkpt><trkpt lat="43.2979879" lon="12.1846513"><ele>493.00000000000006</ele><time>2026-04-04T07:17:09.324Z</time></trkpt><trkpt lat="43.2980757" lon="12.1846539"><ele>493.0</ele><time>2026-04-04T07:17:10.324Z</time></trkpt><trkpt lat="43.2981609" lon="12.1846441"><ele>493.0</ele><time>2026-04-04T07:17:11.324Z</time></trkpt><trkpt lat="43.2982329" lon="12.1846063"><ele>493.0</ele><time>2026-04-04T07:17:12.324Z</time></trkpt><trkpt lat="43.2983161" lon="12.184473"><ele>493.00000000000006</ele><time>2026-04-04T07:17:14.324Z</time></trkpt><trkpt lat="43.2982908" lon="12.1843868"><ele>493.0</ele><time>2026-04-04T07:17:15.324Z</time></trkpt><trkpt lat="43.2982381" lon="12.1842701"><ele>494.59999999999997</ele><time>2026-04-04T07:17:16.325Z</time></trkpt><trkpt lat="43.2981786" lon="12.1841584"><ele>496.19999999999993</ele><time>2026-04-04T07:17:17.325Z</time></trkpt><trkpt lat="43.2981111" lon="12.1840414"><ele>497.8</ele><time>2026-04-04T07:17:18.326Z</time></trkpt><trkpt lat="43.2980522" lon="12.1839173"><ele>499.4</ele><time>2026-04-04T07:17:19.325Z</time></trkpt><trkpt lat="43.2979952" lon="12.1837883"><ele>501.0</ele><time>2026-04-04T07:17:20.325Z</time></trkpt><trkpt lat="43.2979586" lon="12.1836455"><ele>498.0</ele><time>2026-04-04T07:17:21.324Z</time></trkpt><trkpt lat="43.2979346" lon="12.1835167"><ele>495.0</ele><time>2026-04-04T07:17:22.324Z</time></trkpt><trkpt lat="43.297929" lon="12.1833997"><ele>492.0</ele><time>2026-04-04T07:17:23.324Z</time></trkpt><trkpt lat="43.2979432" lon="12.1833042"><ele>489.0</ele><time>2026-04-04T07:17:24.324Z</time></trkpt><trkpt lat="43.297959" lon="12.1832115"><ele>486.0</ele><time>2026-04-04T07:17:25.325Z</time></trkpt><trkpt lat="43.297992" lon="12.1831289"><ele>483.0</ele><time>2026-04-04T07:17:26.325Z</time></trkpt><trkpt lat="43.2980678" lon="12.1831111"><ele>481.0</ele><time>2026-04-04T07:17:28.326Z</time></trkpt><trkpt lat="43.2981909" lon="12.1831568"><ele>479.0</ele><time>2026-04-04T07:17:30.325Z</time></trkpt><trkpt lat="43.2982896" lon="12.18322"><ele>477.0</ele><time>2026-04-04T07:17:31.325Z</time></trkpt><trkpt lat="43.2984121" lon="12.1833127"><ele>475.0</ele><time>2026-04-04T07:17:32.325Z</time></trkpt><trkpt lat="43.2985262" lon="12.1833933"><ele>479.25</ele><time>2026-04-04T07:17:33.325Z</time></trkpt><trkpt lat="43.2986627" lon="12.1835141"><ele>483.5</ele><time>2026-04-04T07:17:34.325Z</time></trkpt><trkpt lat="43.2987997" lon="12.1836301"><ele>487.75</ele><time>2026-04-04T07:17:35.325Z</time></trkpt><trkpt lat="43.2989095" lon="12.1836973"><ele>492.0</ele><time>2026-04-04T07:17:36.325Z</time></trkpt><trkpt lat="43.2990232" lon="12.1837767"><ele>493.1666666666667</ele><time>2026-04-04T07:17:37.325Z</time></trkpt><trkpt lat="43.2991085" lon="12.1838117"><ele>494.33333333333337</ele><time>2026-04-04T07:17:38.325Z</time></trkpt><trkpt lat="43.2991809" lon="12.1838104"><ele>495.5</ele><time>2026-04-04T07:17:39.326Z</time></trkpt><trkpt lat="43.2992748" lon="12.1837117"><ele>496.6666666666667</ele><time>2026-04-04T07:17:41.325Z</time></trkpt><trkpt lat="43.2992999" lon="12.1836227"><ele>497.83333333333337</ele><time>2026-04-04T07:17:42.325Z</time></trkpt><trkpt lat="43.2993036" lon="12.1835039"><ele>499.0</ele><time>2026-04-04T07:17:43.325Z</time></trkpt><trkpt lat="43.2992802" lon="12.1833576"><ele>499.0</ele><time>2026-04-04T07:17:44.325Z</time></trkpt><trkpt lat="43.2992671" lon="12.1832177"><ele>499.0</ele><time>2026-04-04T07:17:45.325Z</time></trkpt><trkpt lat="43.2992819" lon="12.1831027"><ele>499.0</ele><time>2026-04-04T07:17:46.325Z</time></trkpt><trkpt lat="43.2993046" lon="12.1829967"><ele>499.0</ele><time>2026-04-04T07:17:47.325Z</time></trkpt><trkpt lat="43.2993588" lon="12.1829025"><ele>499.0</ele><time>2026-04-04T07:17:48.325Z</time></trkpt><trkpt lat="43.2994293" lon="12.1828122"><ele>499.0</ele><time>2026-04-04T07:17:49.325Z</time></trkpt><trkpt lat="43.2995214" lon="12.1827244"><ele>499.0</ele><time>2026-04-04T07:17:50.325Z</time></trkpt><trkpt lat="43.2996185" lon="12.1826399"><ele>499.0</ele><time>2026-04-04T07:17:51.325Z</time></trkpt><trkpt lat="43.2997132" lon="12.1825568"><ele>499.0</ele><time>2026-04-04T07:17:52.325Z</time></trkpt><trkpt lat="43.2997977" lon="12.182492"><ele>499.0</ele><time>2026-04-04T07:17:53.325Z</time></trkpt><trkpt lat="43.2998802" lon="12.1824533"><ele>499.0</ele><time>2026-04-04T07:17:54.325Z</time></trkpt><trkpt lat="43.2999609" lon="12.1824177"><ele>499.0</ele><time>2026-04-04T07:17:55.326Z</time></trkpt><trkpt lat="43.3000415" lon="12.182409"><ele>499.0</ele><time>2026-04-04T07:17:56.325Z</time></trkpt><trkpt lat="43.3001518" lon="12.1824457"><ele>499.0</ele><time>2026-04-04T07:17:57.326Z</time></trkpt><trkpt lat="43.3002636" lon="12.1824794"><ele>499.0</ele><time>2026-04-04T07:17:58.326Z</time></trkpt><trkpt lat="43.3003765" lon="12.1825381"><ele>499.0</ele><time>2026-04-04T07:17:59.325Z</time></trkpt><trkpt lat="43.300475" lon="12.1826075"><ele>499.0</ele><time>2026-04-04T07:18:00.325Z</time></trkpt><trkpt lat="43.3005708" lon="12.1826785"><ele>499.0</ele><time>2026-04-04T07:18:01.325Z</time></trkpt><trkpt lat="43.3006528" lon="12.1827426"><ele>499.0</ele><time>2026-04-04T07:18:02.325Z</time></trkpt><trkpt lat="43.3007234" lon="12.1827852"><ele>499.0</ele><time>2026-04-04T07:18:03.325Z</time></trkpt><trkpt lat="43.3007918" lon="12.1828188"><ele>501.33333333333337</ele><time>2026-04-04T07:18:04.325Z</time></trkpt><trkpt lat="43.3008553" lon="12.182817"><ele>503.6666666666667</ele><time>2026-04-04T07:18:05.325Z</time></trkpt><trkpt lat="43.3009239" lon="12.1827833"><ele>506.0</ele><time>2026-04-04T07:18:06.326Z</time></trkpt><trkpt lat="43.3009757" lon="12.1827152"><ele>508.33333333333337</ele><time>2026-04-04T07:18:07.325Z</time></trkpt><trkpt lat="43.3010043" lon="12.1826061"><ele>510.6666666666667</ele><time>2026-04-04T07:18:08.325Z</time></trkpt><trkpt lat="43.3010169" lon="12.1824928"><ele>513.0</ele><time>2026-04-04T07:18:09.325Z</time></trkpt><trkpt lat="43.3010191" lon="12.1823628"><ele>510.5</ele><time>2026-04-04T07:18:10.325Z</time></trkpt><trkpt lat="43.3010312" lon="12.1822424"><ele>508.0</ele><time>2026-04-04T07:18:11.326Z</time></trkpt><trkpt lat="43.3010475" lon="12.1821276"><ele>505.5</ele><time>2026-04-04T07:18:12.325Z</time></trkpt><trkpt lat="43.3010804" lon="12.1820395"><ele>503.0</ele><time>2026-04-04T07:18:13.325Z</time></trkpt><trkpt lat="43.3011479" lon="12.1819634"><ele>500.5</ele><time>2026-04-04T07:18:14.325Z</time></trkpt><trkpt lat="43.3012359" lon="12.1818785"><ele>498.0</ele><time>2026-04-04T07:18:15.325Z</time></trkpt><trkpt lat="43.3013408" lon="12.1817933"><ele>502.59999999999997</ele><time>2026-04-04T07:18:16.325Z</time></trkpt><trkpt lat="43.3014451" lon="12.1817118"><ele>507.19999999999993</ele><time>2026-04-04T07:18:17.325Z</time></trkpt><trkpt lat="43.3015474" lon="12.1816459"><ele>511.8</ele><time>2026-04-04T07:18:18.325Z</time></trkpt><trkpt lat="43.3016431" lon="12.1815754"><ele>516.4</ele><time>2026-04-04T07:18:19.325Z</time></trkpt><trkpt lat="43.3017053" lon="12.1814897"><ele>521.0</ele><time>2026-04-04T07:18:20.326Z</time></trkpt><trkpt lat="43.3017525" lon="12.1813897"><ele>521.0</ele><time>2026-04-04T07:18:21.326Z</time></trkpt><trkpt lat="43.3017929" lon="12.1812828"><ele>521.0</ele><time>2026-04-04T07:18:22.326Z</time></trkpt><trkpt lat="43.3018282" lon="12.1811468"><ele>521.0</ele><time>2026-04-04T07:18:23.326Z</time></trkpt><trkpt lat="43.3018748" lon="12.1809927"><ele>521.0</ele><time>2026-04-04T07:18:24.326Z</time></trkpt><trkpt lat="43.301929" lon="12.1808331"><ele>521.0</ele><time>2026-04-04T07:18:25.326Z</time></trkpt><trkpt lat="43.3019854" lon="12.1806748"><ele>522.25</ele><time>2026-04-04T07:18:26.326Z</time></trkpt><trkpt lat="43.3020326" lon="12.1805265"><ele>523.5</ele><time>2026-04-04T07:18:27.326Z</time></trkpt><trkpt lat="43.3020764" lon="12.1803773"><ele>524.75</ele><time>2026-04-04T07:18:28.327Z</time></trkpt><trkpt lat="43.3021116" lon="12.1802233"><ele>526.0</ele><time>2026-04-04T07:18:29.326Z</time></trkpt><trkpt lat="43.3021384" lon="12.1800755"><ele>526.0</ele><time>2026-04-04T07:18:30.326Z</time></trkpt><trkpt lat="43.3021332" lon="12.1799408"><ele>526.0</ele><time>2026-04-04T07:18:31.326Z</time></trkpt><trkpt lat="43.3021161" lon="12.1798089"><ele>526.0</ele><time>2026-04-04T07:18:32.327Z</time></trkpt><trkpt lat="43.3020846" lon="12.1797101"><ele>526.0</ele><time>2026-04-04T07:18:33.326Z</time></trkpt><trkpt lat="43.3020694" lon="12.1796011"><ele>526.0</ele><time>2026-04-04T07:18:34.326Z</time></trkpt><trkpt lat="43.3020716" lon="12.1795128"><ele>526.0</ele><time>2026-04-04T07:18:35.326Z</time></trkpt><trkpt lat="43.3021331" lon="12.179359"><ele>526.8</ele><time>2026-04-04T07:18:37.327Z</time></trkpt><trkpt lat="43.3021844" lon="12.1792573"><ele>527.6</ele><time>2026-04-04T07:18:38.326Z</time></trkpt><trkpt lat="43.3022537" lon="12.1791362"><ele>528.4</ele><time>2026-04-04T07:18:39.326Z</time></trkpt><trkpt lat="43.3023221" lon="12.1790202"><ele>529.2</ele><time>2026-04-04T07:18:40.326Z</time></trkpt><trkpt lat="43.3023787" lon="12.1789194"><ele>530.0</ele><time>2026-04-04T07:18:41.326Z</time></trkpt><trkpt lat="43.302412" lon="12.1788188"><ele>534.1666666666666</ele><time>2026-04-04T07:18:42.327Z</time></trkpt><trkpt lat="43.3024276" lon="12.1787144"><ele>538.3333333333333</ele><time>2026-04-04T07:18:43.326Z</time></trkpt><trkpt lat="43.3024226" lon="12.1786119"><ele>542.5</ele><time>2026-04-04T07:18:44.326Z</time></trkpt><trkpt lat="43.3024113" lon="12.1785176"><ele>546.6666666666666</ele><time>2026-04-04T07:18:45.326Z</time></trkpt><trkpt lat="43.3023756" lon="12.1784192"><ele>550.8333333333334</ele><time>2026-04-04T07:18:46.327Z</time></trkpt><trkpt lat="43.3023252" lon="12.1783208"><ele>555.0</ele><time>2026-04-04T07:18:47.326Z</time></trkpt><trkpt lat="43.3022575" lon="12.1782366"><ele>554.6</ele><time>2026-04-04T07:18:48.327Z</time></trkpt><trkpt lat="43.3021849" lon="12.1781443"><ele>554.2</ele><time>2026-04-04T07:18:49.326Z</time></trkpt><trkpt lat="43.3021127" lon="12.1780787"><ele>553.8</ele><time>2026-04-04T07:18:50.326Z</time></trkpt><trkpt lat="43.3020169" lon="12.1780138"><ele>553.4</ele><time>2026-04-04T07:18:51.326Z</time></trkpt><trkpt lat="43.3019203" lon="12.177983"><ele>553.0</ele><time>2026-04-04T07:18:52.326Z</time></trkpt><trkpt lat="43.3018329" lon="12.1779252"><ele>553.0</ele><time>2026-04-04T07:18:53.327Z</time></trkpt><trkpt lat="43.3017533" lon="12.1778245"><ele>553.0</ele><time>2026-04-04T07:18:54.326Z</time></trkpt><trkpt lat="43.3016865" lon="12.1777126"><ele>553.0</ele><time>2026-04-04T07:18:55.326Z</time></trkpt><trkpt lat="43.3016265" lon="12.1776023"><ele>553.0</ele><time>2026-04-04T07:18:56.326Z</time></trkpt><trkpt lat="43.3015664" lon="12.177497"><ele>553.0</ele><time>2026-04-04T07:18:57.327Z</time></trkpt><trkpt lat="43.3015199" lon="12.1773906"><ele>551.8333333333334</ele><time>2026-04-04T07:18:58.326Z</time></trkpt><trkpt lat="43.3014804" lon="12.1772877"><ele>550.6666666666667</ele><time>2026-04-04T07:18:59.326Z</time></trkpt><trkpt lat="43.3014706" lon="12.1771857"><ele>549.5</ele><time>2026-04-04T07:19:00.326Z</time></trkpt><trkpt lat="43.3014798" lon="12.1770912"><ele>548.3333333333334</ele><time>2026-04-04T07:19:01.326Z</time></trkpt><trkpt lat="43.3014982" lon="12.1770027"><ele>547.1666666666666</ele><time>2026-04-04T07:19:02.326Z</time></trkpt><trkpt lat="43.3015559" lon="12.1769291"><ele>546.0</ele><time>2026-04-04T07:19:03.326Z</time></trkpt><trkpt lat="43.3016314" lon="12.1768618"><ele>546.0</ele><time>2026-04-04T07:19:04.326Z</time></trkpt><trkpt lat="43.3017167" lon="12.1768034"><ele>546.0</ele><time>2026-04-04T07:19:05.326Z</time></trkpt><trkpt lat="43.3018129" lon="12.1767517"><ele>546.0</ele><time>2026-04-04T07:19:06.326Z</time></trkpt><trkpt lat="43.3019086" lon="12.1767084"><ele>546.0</ele><time>2026-04-04T07:19:07.326Z</time></trkpt><trkpt lat="43.3020016" lon="12.1766691"><ele>546.0</ele><time>2026-04-04T07:19:08.326Z</time></trkpt><trkpt lat="43.3020899" lon="12.1766292"><ele>546.0</ele><time>2026-04-04T07:19:09.326Z</time></trkpt><trkpt lat="43.3021742" lon="12.1765774"><ele>546.0</ele><time>2026-04-04T07:19:10.326Z</time></trkpt><trkpt lat="43.30226" lon="12.1765151"><ele>546.0</ele><time>2026-04-04T07:19:11.326Z</time></trkpt><trkpt lat="43.3023314" lon="12.1764392"><ele>546.0</ele><time>2026-04-04T07:19:12.326Z</time></trkpt><trkpt lat="43.3024072" lon="12.1763578"><ele>546.0</ele><time>2026-04-04T07:19:13.326Z</time></trkpt><trkpt lat="43.302472" lon="12.1762701"><ele>546.3333333333334</ele><time>2026-04-04T07:19:14.327Z</time></trkpt><trkpt lat="43.3025416" lon="12.1761683"><ele>546.6666666666666</ele><time>2026-04-04T07:19:15.327Z</time></trkpt><trkpt lat="43.3025853" lon="12.1760719"><ele>547.0</ele><time>2026-04-04T07:19:16.327Z</time></trkpt><trkpt lat="43.3025947" lon="12.1759602"><ele>547.3333333333333</ele><time>2026-04-04T07:19:17.327Z</time></trkpt><trkpt lat="43.3025769" lon="12.1758392"><ele>547.6666666666666</ele><time>2026-04-04T07:19:18.327Z</time></trkpt><trkpt lat="43.3025509" lon="12.175735"><ele>548.0</ele><time>2026-04-04T07:19:19.327Z</time></trkpt><trkpt lat="43.3025008" lon="12.175637"><ele>547.1999999999999</ele><time>2026-04-04T07:19:20.327Z</time></trkpt><trkpt lat="43.3024461" lon="12.1755265"><ele>546.4</ele><time>2026-04-04T07:19:21.327Z</time></trkpt><trkpt lat="43.3023977" lon="12.1754136"><ele>545.5999999999999</ele><time>2026-04-04T07:19:22.327Z</time></trkpt><trkpt lat="43.302366" lon="12.1753059"><ele>544.8</ele><time>2026-04-04T07:19:23.327Z</time></trkpt><trkpt lat="43.3023386" lon="12.1751774"><ele>544.0</ele><time>2026-04-04T07:19:24.327Z</time></trkpt><trkpt lat="43.3023112" lon="12.1750673"><ele>544.0</ele><time>2026-04-04T07:19:25.327Z</time></trkpt><trkpt lat="43.3022758" lon="12.174952"><ele>544.0</ele><time>2026-04-04T07:19:26.327Z</time></trkpt><trkpt lat="43.3022242" lon="12.1748246"><ele>544.0</ele><time>2026-04-04T07:19:27.328Z</time></trkpt><trkpt lat="43.3021703" lon="12.1746929"><ele>544.0</ele><time>2026-04-04T07:19:28.327Z</time></trkpt><trkpt lat="43.3021132" lon="12.1745533"><ele>544.0</ele><time>2026-04-04T07:19:29.327Z</time></trkpt><trkpt lat="43.3020556" lon="12.1744058"><ele>544.0</ele><time>2026-04-04T07:19:30.327Z</time></trkpt><trkpt lat="43.3020016" lon="12.1742486"><ele>544.0</ele><time>2026-04-04T07:19:31.328Z</time></trkpt><trkpt lat="43.3019492" lon="12.1740994"><ele>544.0</ele><time>2026-04-04T07:19:32.327Z</time></trkpt><trkpt lat="43.301902" lon="12.1739519"><ele>544.0</ele><time>2026-04-04T07:19:33.328Z</time></trkpt><trkpt lat="43.3018551" lon="12.1738071"><ele>544.0</ele><time>2026-04-04T07:19:34.327Z</time></trkpt><trkpt lat="43.3018122" lon="12.1736705"><ele>544.0</ele><time>2026-04-04T07:19:35.327Z</time></trkpt><trkpt lat="43.3017714" lon="12.173534"><ele>544.0</ele><time>2026-04-04T07:19:36.327Z</time></trkpt><trkpt lat="43.3017312" lon="12.1734014"><ele>544.0</ele><time>2026-04-04T07:19:37.327Z</time></trkpt><trkpt lat="43.3017033" lon="12.1732822"><ele>544.0</ele><time>2026-04-04T07:19:38.327Z</time></trkpt><trkpt lat="43.3016838" lon="12.1731654"><ele>542.8</ele><time>2026-04-04T07:19:39.327Z</time></trkpt><trkpt lat="43.301673" lon="12.1730441"><ele>541.5999999999999</ele><time>2026-04-04T07:19:40.327Z</time></trkpt><trkpt lat="43.3016658" lon="12.172919"><ele>540.4</ele><time>2026-04-04T07:19:41.327Z</time></trkpt><trkpt lat="43.3016651" lon="12.1727842"><ele>539.1999999999999</ele><time>2026-04-04T07:19:42.327Z</time></trkpt><trkpt lat="43.3016698" lon="12.1726431"><ele>538.0</ele><time>2026-04-04T07:19:43.327Z</time></trkpt><trkpt lat="43.3016778" lon="12.1724997"><ele>535.8</ele><time>2026-04-04T07:19:44.327Z</time></trkpt><trkpt lat="43.3016826" lon="12.1723558"><ele>533.5999999999999</ele><time>2026-04-04T07:19:45.327Z</time></trkpt><trkpt lat="43.3016873" lon="12.1722103"><ele>531.4000000000001</ele><time>2026-04-04T07:19:46.328Z</time></trkpt><trkpt lat="43.3016896" lon="12.1720558"><ele>529.2</ele><time>2026-04-04T07:19:47.327Z</time></trkpt><trkpt lat="43.3016891" lon="12.1718963"><ele>527.0</ele><time>2026-04-04T07:19:48.328Z</time></trkpt><trkpt lat="43.3016823" lon="12.1717416"><ele>527.0</ele><time>2026-04-04T07:19:49.327Z</time></trkpt><trkpt lat="43.3016775" lon="12.1715869"><ele>527.0</ele><time>2026-04-04T07:19:50.327Z</time></trkpt><trkpt lat="43.3016782" lon="12.1714313"><ele>527.0</ele><time>2026-04-04T07:19:51.327Z</time></trkpt><trkpt lat="43.3016885" lon="12.1712758"><ele>527.0</ele><time>2026-04-04T07:19:52.328Z</time></trkpt><trkpt lat="43.3017019" lon="12.171118"><ele>525.25</ele><time>2026-04-04T07:19:53.327Z</time></trkpt><trkpt lat="43.3017197" lon="12.1709531"><ele>523.5</ele><time>2026-04-04T07:19:54.328Z</time></trkpt><trkpt lat="43.3017463" lon="12.1707799"><ele>521.75</ele><time>2026-04-04T07:19:55.327Z</time></trkpt><trkpt lat="43.3017791" lon="12.1706038"><ele>520.0</ele><time>2026-04-04T07:19:56.328Z</time></trkpt><trkpt lat="43.3018155" lon="12.1704343"><ele>519.0</ele><time>2026-04-04T07:19:57.327Z</time></trkpt><trkpt lat="43.3018558" lon="12.1702723"><ele>518.0</ele><time>2026-04-04T07:19:58.327Z</time></trkpt><trkpt lat="43.3018984" lon="12.1701148"><ele>517.0</ele><time>2026-04-04T07:19:59.327Z</time></trkpt><trkpt lat="43.3019401" lon="12.1699578"><ele>516.0</ele><time>2026-04-04T07:20:00.327Z</time></trkpt><trkpt lat="43.3019766" lon="12.169796"><ele>514.5</ele><time>2026-04-04T07:20:01.327Z</time></trkpt><trkpt lat="43.3020013" lon="12.1696324"><ele>513.0</ele><time>2026-04-04T07:20:02.327Z</time></trkpt><trkpt lat="43.302015" lon="12.1694642"><ele>511.5</ele><time>2026-04-04T07:20:03.328Z</time></trkpt><trkpt lat="43.302016" lon="12.1692907"><ele>510.0</ele><time>2026-04-04T07:20:04.327Z</time></trkpt><trkpt lat="43.3020054" lon="12.1691078"><ele>509.25</ele><time>2026-04-04T07:20:05.328Z</time></trkpt><trkpt lat="43.3019893" lon="12.1689223"><ele>508.5</ele><time>2026-04-04T07:20:06.328Z</time></trkpt><trkpt lat="43.3019749" lon="12.1687449"><ele>507.75</ele><time>2026-04-04T07:20:07.327Z</time></trkpt><trkpt lat="43.3019656" lon="12.1685718"><ele>507.0</ele><time>2026-04-04T07:20:08.327Z</time></trkpt><trkpt lat="43.3019602" lon="12.1683999"><ele>507.0</ele><time>2026-04-04T07:20:09.327Z</time></trkpt><trkpt lat="43.3019567" lon="12.168228"><ele>507.0</ele><time>2026-04-04T07:20:10.328Z</time></trkpt><trkpt lat="43.3019536" lon="12.1680564"><ele>507.0</ele><time>2026-04-04T07:20:11.327Z</time></trkpt><trkpt lat="43.3019498" lon="12.1678903"><ele>507.0</ele><time>2026-04-04T07:20:12.328Z</time></trkpt><trkpt lat="43.3019411" lon="12.1677269"><ele>507.40000000000003</ele><time>2026-04-04T07:20:13.328Z</time></trkpt><trkpt lat="43.3019272" lon="12.1675749"><ele>507.80000000000007</ele><time>2026-04-04T07:20:14.328Z</time></trkpt><trkpt lat="43.3019127" lon="12.1674458"><ele>508.2</ele><time>2026-04-04T07:20:15.329Z</time></trkpt><trkpt lat="43.301901" lon="12.1673289"><ele>508.6</ele><time>2026-04-04T07:20:16.328Z</time></trkpt><trkpt lat="43.3018977" lon="12.1671707"><ele>509.0</ele><time>2026-04-04T07:20:18.328Z</time></trkpt><trkpt lat="43.3019513" lon="12.1670496"><ele>511.66666666666663</ele><time>2026-04-04T07:20:20.328Z</time></trkpt><trkpt lat="43.3019985" lon="12.1669877"><ele>514.3333333333333</ele><time>2026-04-04T07:20:21.328Z</time></trkpt><trkpt lat="43.3020691" lon="12.1669236"><ele>517.0</ele><time>2026-04-04T07:20:22.328Z</time></trkpt><trkpt lat="43.3021301" lon="12.1668348"><ele>519.6666666666666</ele><time>2026-04-04T07:20:23.328Z</time></trkpt><trkpt lat="43.3021807" lon="12.1667613"><ele>522.3333333333334</ele><time>2026-04-04T07:20:24.328Z</time></trkpt><trkpt lat="43.3022271" lon="12.1666291"><ele>525.0</ele><time>2026-04-04T07:20:26.329Z</time></trkpt><trkpt lat="43.3022163" lon="12.166536"><ele>527.2</ele><time>2026-04-04T07:20:27.329Z</time></trkpt><trkpt lat="43.3021884" lon="12.1664276"><ele>529.4</ele><time>2026-04-04T07:20:28.328Z</time></trkpt><trkpt lat="43.3021615" lon="12.1662908"><ele>531.6</ele><time>2026-04-04T07:20:29.328Z</time></trkpt><trkpt lat="43.30215" lon="12.166137"><ele>533.8</ele><time>2026-04-04T07:20:30.328Z</time></trkpt><trkpt lat="43.3021522" lon="12.1659862"><ele>536.0</ele><time>2026-04-04T07:20:31.328Z</time></trkpt><trkpt lat="43.3021838" lon="12.1658246"><ele>538.5</ele><time>2026-04-04T07:20:32.328Z</time></trkpt><trkpt lat="43.3022374" lon="12.1656421"><ele>541.0</ele><time>2026-04-04T07:20:33.329Z</time></trkpt><trkpt lat="43.302287" lon="12.1654714"><ele>543.5</ele><time>2026-04-04T07:20:34.328Z</time></trkpt><trkpt lat="43.3023293" lon="12.1653099"><ele>546.0</ele><time>2026-04-04T07:20:35.328Z</time></trkpt><trkpt lat="43.3023681" lon="12.1651522"><ele>541.2</ele><time>2026-04-04T07:20:36.329Z</time></trkpt><trkpt lat="43.3024072" lon="12.1649981"><ele>536.4000000000001</ele><time>2026-04-04T07:20:37.328Z</time></trkpt><trkpt lat="43.3024513" lon="12.164873"><ele>531.6</ele><time>2026-04-04T07:20:38.328Z</time></trkpt><trkpt lat="43.3024872" lon="12.164737"><ele>526.8000000000001</ele><time>2026-04-04T07:20:39.328Z</time></trkpt><trkpt lat="43.3025052" lon="12.16462"><ele>522.0</ele><time>2026-04-04T07:20:40.329Z</time></trkpt><trkpt lat="43.3025119" lon="12.1644898"><ele>522.0</ele><time>2026-04-04T07:20:41.328Z</time></trkpt><trkpt lat="43.3025149" lon="12.1643355"><ele>522.0</ele><time>2026-04-04T07:20:42.328Z</time></trkpt><trkpt lat="43.3025372" lon="12.1641716"><ele>522.0</ele><time>2026-04-04T07:20:43.328Z</time></trkpt><trkpt lat="43.3025739" lon="12.1639994"><ele>522.0</ele><time>2026-04-04T07:20:44.328Z</time></trkpt><trkpt lat="43.3026256" lon="12.1638313"><ele>524.75</ele><time>2026-04-04T07:20:45.328Z</time></trkpt><trkpt lat="43.302678" lon="12.1636729"><ele>527.5</ele><time>2026-04-04T07:20:46.328Z</time></trkpt><trkpt lat="43.3027333" lon="12.1635269"><ele>530.25</ele><time>2026-04-04T07:20:47.328Z</time></trkpt><trkpt lat="43.3027902" lon="12.1633934"><ele>533.0</ele><time>2026-04-04T07:20:48.328Z</time></trkpt><trkpt lat="43.3028501" lon="12.1632651"><ele>534.1999999999999</ele><time>2026-04-04T07:20:49.328Z</time></trkpt><trkpt lat="43.3029121" lon="12.1631428"><ele>535.4</ele><time>2026-04-04T07:20:50.328Z</time></trkpt><trkpt lat="43.302962" lon="12.1630115"><ele>536.5999999999999</ele><time>2026-04-04T07:20:51.328Z</time></trkpt><trkpt lat="43.303001" lon="12.162872"><ele>537.8</ele><time>2026-04-04T07:20:52.328Z</time></trkpt><trkpt lat="43.3030161" lon="12.1627383"><ele>539.0</ele><time>2026-04-04T07:20:53.329Z</time></trkpt><trkpt lat="43.3030176" lon="12.1625924"><ele>539.0</ele><time>2026-04-04T07:20:54.329Z</time></trkpt><trkpt lat="43.3030109" lon="12.1624597"><ele>539.0</ele><time>2026-04-04T07:20:55.328Z</time></trkpt><trkpt lat="43.3030041" lon="12.1623526"><ele>539.0</ele><time>2026-04-04T07:20:56.329Z</time></trkpt><trkpt lat="43.3030516" lon="12.1622114"><ele>539.0</ele><time>2026-04-04T07:20:58.328Z</time></trkpt><trkpt lat="43.3031701" lon="12.1621701"><ele>539.0</ele><time>2026-04-04T07:21:00.328Z</time></trkpt><trkpt lat="43.3032465" lon="12.1621771"><ele>536.8333333333333</ele><time>2026-04-04T07:21:01.329Z</time></trkpt><trkpt lat="43.3033322" lon="12.1621631"><ele>534.6666666666666</ele><time>2026-04-04T07:21:02.329Z</time></trkpt><trkpt lat="43.3034165" lon="12.1621578"><ele>532.5</ele><time>2026-04-04T07:21:03.328Z</time></trkpt><trkpt lat="43.3034817" lon="12.1621459"><ele>530.3333333333334</ele><time>2026-04-04T07:21:04.329Z</time></trkpt><trkpt lat="43.3035756" lon="12.1620681"><ele>528.1666666666667</ele><time>2026-04-04T07:21:06.329Z</time></trkpt><trkpt lat="43.303599" lon="12.1619786"><ele>526.0</ele><time>2026-04-04T07:21:07.328Z</time></trkpt><trkpt lat="43.3036266" lon="12.161868"><ele>526.0</ele><time>2026-04-04T07:21:08.329Z</time></trkpt><trkpt lat="43.303637" lon="12.1617484"><ele>526.0</ele><time>2026-04-04T07:21:09.33Z</time></trkpt><trkpt lat="43.303657" lon="12.1616165"><ele>526.0</ele><time>2026-04-04T07:21:10.329Z</time></trkpt><trkpt lat="43.303676" lon="12.161461"><ele>526.0</ele><time>2026-04-04T07:21:11.33Z</time></trkpt><trkpt lat="43.3036946" lon="12.1612646"><ele>526.0</ele><time>2026-04-04T07:21:12.33Z</time></trkpt><trkpt lat="43.3037168" lon="12.1610814"><ele>528.25</ele><time>2026-04-04T07:21:13.329Z</time></trkpt><trkpt lat="43.303724" lon="12.1608725"><ele>530.5</ele><time>2026-04-04T07:21:14.329Z</time></trkpt><trkpt lat="43.3037318" lon="12.1606758"><ele>532.75</ele><time>2026-04-04T07:21:15.329Z</time></trkpt><trkpt lat="43.3037287" lon="12.1604718"><ele>535.0</ele><time>2026-04-04T07:21:16.329Z</time></trkpt><trkpt lat="43.3037269" lon="12.1602967"><ele>536.4</ele><time>2026-04-04T07:21:17.33Z</time></trkpt><trkpt lat="43.3037289" lon="12.1601332"><ele>537.8</ele><time>2026-04-04T07:21:18.329Z</time></trkpt><trkpt lat="43.3037476" lon="12.1600042"><ele>539.2</ele><time>2026-04-04T07:21:19.329Z</time></trkpt><trkpt lat="43.3037827" lon="12.1598621"><ele>540.6</ele><time>2026-04-04T07:21:20.329Z</time></trkpt><trkpt lat="43.3038229" lon="12.1597343"><ele>542.0</ele><time>2026-04-04T07:21:21.33Z</time></trkpt><trkpt lat="43.3038748" lon="12.1596559"><ele>543.1666666666666</ele><time>2026-04-04T07:21:22.329Z</time></trkpt><trkpt lat="43.3039012" lon="12.1595656"><ele>544.3333333333333</ele><time>2026-04-04T07:21:23.33Z</time></trkpt><trkpt lat="43.3038968" lon="12.1594714"><ele>545.5</ele><time>2026-04-04T07:21:24.329Z</time></trkpt><trkpt lat="43.3038678" lon="12.1593668"><ele>546.6666666666666</ele><time>2026-04-04T07:21:25.33Z</time></trkpt><trkpt lat="43.3038219" lon="12.1592468"><ele>547.8333333333334</ele><time>2026-04-04T07:21:26.329Z</time></trkpt><trkpt lat="43.3037746" lon="12.1591076"><ele>549.0</ele><time>2026-04-04T07:21:27.329Z</time></trkpt><trkpt lat="43.3037495" lon="12.1589577"><ele>550.0</ele><time>2026-04-04T07:21:28.329Z</time></trkpt><trkpt lat="43.3037443" lon="12.1588066"><ele>551.0</ele><time>2026-04-04T07:21:29.329Z</time></trkpt><trkpt lat="43.303754" lon="12.1586729"><ele>552.0</ele><time>2026-04-04T07:21:30.329Z</time></trkpt><trkpt lat="43.3037814" lon="12.1585479"><ele>553.0</ele><time>2026-04-04T07:21:31.33Z</time></trkpt><trkpt lat="43.3038273" lon="12.1584324"><ele>554.0</ele><time>2026-04-04T07:21:32.33Z</time></trkpt><trkpt lat="43.3038888" lon="12.1583166"><ele>553.75</ele><time>2026-04-04T07:21:33.329Z</time></trkpt><trkpt lat="43.3039815" lon="12.1582063"><ele>553.5</ele><time>2026-04-04T07:21:34.329Z</time></trkpt><trkpt lat="43.3041008" lon="12.1580944"><ele>553.25</ele><time>2026-04-04T07:21:35.329Z</time></trkpt><trkpt lat="43.3042138" lon="12.157988"><ele>553.0</ele><time>2026-04-04T07:21:36.329Z</time></trkpt><trkpt lat="43.3043031" lon="12.1578866"><ele>553.0</ele><time>2026-04-04T07:21:37.329Z</time></trkpt><trkpt lat="43.3043631" lon="12.1577967"><ele>553.0</ele><time>2026-04-04T07:21:38.329Z</time></trkpt><trkpt lat="43.3043861" lon="12.1577159"><ele>553.0</ele><time>2026-04-04T07:21:39.329Z</time></trkpt><trkpt lat="43.3043941" lon="12.1576247"><ele>553.0</ele><time>2026-04-04T07:21:40.329Z</time></trkpt><trkpt lat="43.3043312" lon="12.157484"><ele>553.0</ele><time>2026-04-04T07:21:42.329Z</time></trkpt><trkpt lat="43.3042632" lon="12.1574136"><ele>553.0</ele><time>2026-04-04T07:21:43.329Z</time></trkpt><trkpt lat="43.3041707" lon="12.1573666"><ele>553.0</ele><time>2026-04-04T07:21:44.329Z</time></trkpt><trkpt lat="43.3040992" lon="12.1573474"><ele>553.0</ele><time>2026-04-04T07:21:45.329Z</time></trkpt><trkpt lat="43.3040214" lon="12.1573446"><ele>553.0</ele><time>2026-04-04T07:21:48.329Z</time></trkpt><trkpt lat="43.3040635" lon="12.1574189"><ele>553.0</ele><time>2026-04-04T07:22:15.331Z</time></trkpt><trkpt lat="43.3040532" lon="12.1573305"><ele>553.0</ele><time>2026-04-04T07:22:17.33Z</time></trkpt><trkpt lat="43.304045" lon="12.1572427"><ele>553.0</ele><time>2026-04-04T07:22:18.33Z</time></trkpt><trkpt lat="43.3040245" lon="12.1571238"><ele>553.0</ele><time>2026-04-04T07:22:19.33Z</time></trkpt><trkpt lat="43.3040007" lon="12.1569833"><ele>552.0</ele><time>2026-04-04T07:22:20.33Z</time></trkpt><trkpt lat="43.3039605" lon="12.1568228"><ele>551.0</ele><time>2026-04-04T07:22:21.33Z</time></trkpt><trkpt lat="43.3039183" lon="12.1566462"><ele>550.0</ele><time>2026-04-04T07:22:22.33Z</time></trkpt><trkpt lat="43.3038782" lon="12.1564427"><ele>549.0</ele><time>2026-04-04T07:22:23.33Z</time></trkpt><trkpt lat="43.3038347" lon="12.1562384"><ele>552.3333333333334</ele><time>2026-04-04T07:22:24.33Z</time></trkpt><trkpt lat="43.3037966" lon="12.1560142"><ele>555.6666666666667</ele><time>2026-04-04T07:22:25.33Z</time></trkpt><trkpt lat="43.3037626" lon="12.1558066"><ele>559.0</ele><time>2026-04-04T07:22:26.331Z</time></trkpt><trkpt lat="43.303735" lon="12.1556014"><ele>559.0</ele><time>2026-04-04T07:22:27.33Z</time></trkpt><trkpt lat="43.3037037" lon="12.1554278"><ele>559.0</ele><time>2026-04-04T07:22:28.331Z</time></trkpt><trkpt lat="43.3036655" lon="12.1552764"><ele>559.0</ele><time>2026-04-04T07:22:29.33Z</time></trkpt><trkpt lat="43.3036312" lon="12.1551318"><ele>559.0</ele><time>2026-04-04T07:22:30.33Z</time></trkpt><trkpt lat="43.3036045" lon="12.1549886"><ele>559.75</ele><time>2026-04-04T07:22:31.33Z</time></trkpt><trkpt lat="43.3035858" lon="12.154841"><ele>560.5</ele><time>2026-04-04T07:22:32.33Z</time></trkpt><trkpt lat="43.303587" lon="12.1546812"><ele>561.25</ele><time>2026-04-04T07:22:33.331Z</time></trkpt><trkpt lat="43.3036049" lon="12.1545265"><ele>562.0</ele><time>2026-04-04T07:22:34.33Z</time></trkpt><trkpt lat="43.3036448" lon="12.1543616"><ele>562.0</ele><time>2026-04-04T07:22:35.33Z</time></trkpt><trkpt lat="43.3037067" lon="12.1541884"><ele>562.0</ele><time>2026-04-04T07:22:36.33Z</time></trkpt><trkpt lat="43.3037831" lon="12.1540087"><ele>562.0</ele><time>2026-04-04T07:22:37.33Z</time></trkpt><trkpt lat="43.3038621" lon="12.1538412"><ele>562.0</ele><time>2026-04-04T07:22:38.33Z</time></trkpt><trkpt lat="43.3039388" lon="12.1536803"><ele>559.25</ele><time>2026-04-04T07:22:39.33Z</time></trkpt><trkpt lat="43.3040198" lon="12.1535173"><ele>556.5</ele><time>2026-04-04T07:22:40.33Z</time></trkpt><trkpt lat="43.3040877" lon="12.1533654"><ele>553.75</ele><time>2026-04-04T07:22:41.33Z</time></trkpt><trkpt lat="43.3041563" lon="12.153218"><ele>551.0</ele><time>2026-04-04T07:22:42.33Z</time></trkpt><trkpt lat="43.3042285" lon="12.1530976"><ele>551.0</ele><time>2026-04-04T07:22:43.331Z</time></trkpt><trkpt lat="43.3043139" lon="12.1529741"><ele>551.0</ele><time>2026-04-04T07:22:44.33Z</time></trkpt><trkpt lat="43.3044121" lon="12.1528679"><ele>551.0</ele><time>2026-04-04T07:22:45.33Z</time></trkpt><trkpt lat="43.3045193" lon="12.1527838"><ele>551.0</ele><time>2026-04-04T07:22:46.331Z</time></trkpt><trkpt lat="43.3046327" lon="12.1527024"><ele>547.0</ele><time>2026-04-04T07:22:47.33Z</time></trkpt><trkpt lat="43.3047475" lon="12.152633"><ele>543.0</ele><time>2026-04-04T07:22:48.33Z</time></trkpt><trkpt lat="43.3048664" lon="12.1525908"><ele>539.0</ele><time>2026-04-04T07:22:49.33Z</time></trkpt><trkpt lat="43.3050037" lon="12.1525626"><ele>535.0</ele><time>2026-04-04T07:22:50.331Z</time></trkpt><trkpt lat="43.305136" lon="12.1525648"><ele>535.0</ele><time>2026-04-04T07:22:51.33Z</time></trkpt><trkpt lat="43.3052917" lon="12.1525674"><ele>535.0</ele><time>2026-04-04T07:22:52.33Z</time></trkpt><trkpt lat="43.305447" lon="12.1525488"><ele>535.0</ele><time>2026-04-04T07:22:53.33Z</time></trkpt><trkpt lat="43.3056119" lon="12.1525142"><ele>531.75</ele><time>2026-04-04T07:22:54.33Z</time></trkpt><trkpt lat="43.3057571" lon="12.1524652"><ele>528.5</ele><time>2026-04-04T07:22:55.33Z</time></trkpt><trkpt lat="43.3058917" lon="12.1524369"><ele>525.25</ele><time>2026-04-04T07:22:56.33Z</time></trkpt><trkpt lat="43.3060018" lon="12.1524423"><ele>522.0</ele><time>2026-04-04T07:22:57.33Z</time></trkpt><trkpt lat="43.3061221" lon="12.1525242"><ele>522.0</ele><time>2026-04-04T07:22:58.33Z</time></trkpt><trkpt lat="43.3062586" lon="12.1526182"><ele>522.0</ele><time>2026-04-04T07:22:59.33Z</time></trkpt><trkpt lat="43.3064049" lon="12.1526975"><ele>522.0</ele><time>2026-04-04T07:23:00.33Z</time></trkpt><trkpt lat="43.3065338" lon="12.1527646"><ele>522.0</ele><time>2026-04-04T07:23:01.33Z</time></trkpt><trkpt lat="43.3066882" lon="12.1527857"><ele>520.0</ele><time>2026-04-04T07:23:02.33Z</time></trkpt><trkpt lat="43.3068338" lon="12.1527921"><ele>518.0</ele><time>2026-04-04T07:23:03.331Z</time></trkpt><trkpt lat="43.3069671" lon="12.1527495"><ele>516.0</ele><time>2026-04-04T07:23:04.331Z</time></trkpt><trkpt lat="43.3071014" lon="12.1526756"><ele>514.0</ele><time>2026-04-04T07:23:05.331Z</time></trkpt><trkpt lat="43.3072475" lon="12.1525923"><ele>511.5</ele><time>2026-04-04T07:23:06.331Z</time></trkpt><trkpt lat="43.3073856" lon="12.1525193"><ele>509.0</ele><time>2026-04-04T07:23:07.331Z</time></trkpt><trkpt lat="43.3075152" lon="12.1524854"><ele>506.5</ele><time>2026-04-04T07:23:08.332Z</time></trkpt><trkpt lat="43.3076456" lon="12.1524748"><ele>504.0</ele><time>2026-04-04T07:23:09.331Z</time></trkpt><trkpt lat="43.3077801" lon="12.1524866"><ele>504.0</ele><time>2026-04-04T07:23:10.331Z</time></trkpt><trkpt lat="43.3079218" lon="12.1525058"><ele>504.0</ele><time>2026-04-04T07:23:11.331Z</time></trkpt><trkpt lat="43.3081111" lon="12.152578"><ele>504.0</ele><time>2026-04-04T07:23:12.331Z</time></trkpt><trkpt lat="43.3083141" lon="12.1526727"><ele>504.0</ele><time>2026-04-04T07:23:13.332Z</time></trkpt><trkpt lat="43.3085058" lon="12.152754"><ele>504.0</ele><time>2026-04-04T07:23:14.331Z</time></trkpt><trkpt lat="43.3086855" lon="12.1528199"><ele>504.0</ele><time>2026-04-04T07:23:15.331Z</time></trkpt><trkpt lat="43.3088348" lon="12.1528401"><ele>503.5</ele><time>2026-04-04T07:23:16.331Z</time></trkpt><trkpt lat="43.3089652" lon="12.1528292"><ele>503.0</ele><time>2026-04-04T07:23:17.331Z</time></trkpt><trkpt lat="43.3090891" lon="12.1527811"><ele>502.5</ele><time>2026-04-04T07:23:18.331Z</time></trkpt><trkpt lat="43.3092134" lon="12.1527115"><ele>502.0</ele><time>2026-04-04T07:23:19.331Z</time></trkpt><trkpt lat="43.3093345" lon="12.152642"><ele>502.0</ele><time>2026-04-04T07:23:20.331Z</time></trkpt><trkpt lat="43.3094525" lon="12.1526217"><ele>502.0</ele><time>2026-04-04T07:23:21.331Z</time></trkpt><trkpt lat="43.3095752" lon="12.1526326"><ele>502.0</ele><time>2026-04-04T07:23:22.331Z</time></trkpt><trkpt lat="43.3096846" lon="12.1526424"><ele>502.0</ele><time>2026-04-04T07:23:23.331Z</time></trkpt><trkpt lat="43.3097985" lon="12.1526573"><ele>499.5</ele><time>2026-04-04T07:23:24.331Z</time></trkpt><trkpt lat="43.309917" lon="12.1526523"><ele>497.0</ele><time>2026-04-04T07:23:25.331Z</time></trkpt><trkpt lat="43.3100453" lon="12.1526217"><ele>494.5</ele><time>2026-04-04T07:23:26.331Z</time></trkpt><trkpt lat="43.3101806" lon="12.1525606"><ele>492.0</ele><time>2026-04-04T07:23:27.332Z</time></trkpt><trkpt lat="43.3102962" lon="12.1525116"><ele>492.0</ele><time>2026-04-04T07:23:28.331Z</time></trkpt><trkpt lat="43.310406" lon="12.1524811"><ele>492.00000000000006</ele><time>2026-04-04T07:23:29.332Z</time></trkpt><trkpt lat="43.3105104" lon="12.1524683"><ele>492.00000000000006</ele><time>2026-04-04T07:23:30.331Z</time></trkpt><trkpt lat="43.3106065" lon="12.1524492"><ele>492.0</ele><time>2026-04-04T07:23:31.331Z</time></trkpt><trkpt lat="43.3107031" lon="12.1524256"><ele>492.0</ele><time>2026-04-04T07:23:32.331Z</time></trkpt><trkpt lat="43.310788" lon="12.1523839"><ele>490.0</ele><time>2026-04-04T07:23:33.331Z</time></trkpt><trkpt lat="43.3108666" lon="12.1523319"><ele>488.0</ele><time>2026-04-04T07:23:34.331Z</time></trkpt><trkpt lat="43.3109318" lon="12.1522707"><ele>486.0</ele><time>2026-04-04T07:23:35.332Z</time></trkpt><trkpt lat="43.3109711" lon="12.1521876"><ele>484.0</ele><time>2026-04-04T07:23:36.332Z</time></trkpt><trkpt lat="43.310971" lon="12.1520911"><ele>482.0</ele><time>2026-04-04T07:23:37.331Z</time></trkpt><trkpt lat="43.3109792" lon="12.1519864"><ele>480.0</ele><time>2026-04-04T07:23:38.331Z</time></trkpt><trkpt lat="43.3109774" lon="12.151873"><ele>480.0</ele><time>2026-04-04T07:23:39.331Z</time></trkpt><trkpt lat="43.310987" lon="12.1517684"><ele>480.0</ele><time>2026-04-04T07:23:40.332Z</time></trkpt><trkpt lat="43.3110005" lon="12.1516791"><ele>480.0</ele><time>2026-04-04T07:23:41.331Z</time></trkpt><trkpt lat="43.311086" lon="12.1516833"><ele>480.0</ele><time>2026-04-04T07:23:43.332Z</time></trkpt><trkpt lat="43.31115" lon="12.1517244"><ele>480.0</ele><time>2026-04-04T07:23:44.331Z</time></trkpt><trkpt lat="43.311225" lon="12.1518017"><ele>480.0</ele><time>2026-04-04T07:23:45.331Z</time></trkpt><trkpt lat="43.311276" lon="12.151914"><ele>480.0</ele><time>2026-04-04T07:23:46.331Z</time></trkpt><trkpt lat="43.3113277" lon="12.1520303"><ele>480.0</ele><time>2026-04-04T07:23:47.331Z</time></trkpt><trkpt lat="43.3113853" lon="12.1522306"><ele>480.0</ele><time>2026-04-04T07:23:48.331Z</time></trkpt><trkpt lat="43.3114797" lon="12.1523203"><ele>480.0</ele><time>2026-04-04T07:23:49.331Z</time></trkpt><trkpt lat="43.3115787" lon="12.1523807"><ele>475.5</ele><time>2026-04-04T07:23:50.332Z</time></trkpt><trkpt lat="43.3117013" lon="12.1524157"><ele>471.0</ele><time>2026-04-04T07:23:51.331Z</time></trkpt><trkpt lat="43.3118232" lon="12.1524332"><ele>466.5</ele><time>2026-04-04T07:23:52.331Z</time></trkpt><trkpt lat="43.3119337" lon="12.1524355"><ele>462.0</ele><time>2026-04-04T07:23:53.333Z</time></trkpt><trkpt lat="43.3120395" lon="12.1524374"><ele>462.0</ele><time>2026-04-04T07:23:54.331Z</time></trkpt><trkpt lat="43.3121369" lon="12.1524419"><ele>462.00000000000006</ele><time>2026-04-04T07:23:55.332Z</time></trkpt><trkpt lat="43.3122487" lon="12.1524616"><ele>462.00000000000006</ele><time>2026-04-04T07:23:56.331Z</time></trkpt><trkpt lat="43.3123603" lon="12.1524791"><ele>462.0</ele><time>2026-04-04T07:23:57.331Z</time></trkpt><trkpt lat="43.31247" lon="12.1524977"><ele>462.0</ele><time>2026-04-04T07:23:58.331Z</time></trkpt><trkpt lat="43.3125822" lon="12.1525105"><ele>459.20000000000005</ele><time>2026-04-04T07:23:59.331Z</time></trkpt><trkpt lat="43.3126772" lon="12.1525427"><ele>456.40000000000003</ele><time>2026-04-04T07:24:00.331Z</time></trkpt><trkpt lat="43.3127889" lon="12.1525952"><ele>453.59999999999997</ele><time>2026-04-04T07:24:01.331Z</time></trkpt><trkpt lat="43.3128493" lon="12.1526998"><ele>450.79999999999995</ele><time>2026-04-04T07:24:03.332Z</time></trkpt><trkpt lat="43.3128837" lon="12.1528044"><ele>448.0</ele><time>2026-04-04T07:24:04.332Z</time></trkpt><trkpt lat="43.3129" lon="12.1529154"><ele>448.0</ele><time>2026-04-04T07:24:05.332Z</time></trkpt><trkpt lat="43.3128907" lon="12.1530445"><ele>447.99999999999994</ele><time>2026-04-04T07:24:06.332Z</time></trkpt><trkpt lat="43.3129474" lon="12.1531213"><ele>447.99999999999994</ele><time>2026-04-04T07:24:08.332Z</time></trkpt><trkpt lat="43.313077" lon="12.1530945"><ele>448.0</ele><time>2026-04-04T07:24:10.332Z</time></trkpt><trkpt lat="43.3131533" lon="12.1530094"><ele>448.0</ele><time>2026-04-04T07:24:11.332Z</time></trkpt><trkpt lat="43.3132205" lon="12.1528756"><ele>443.5</ele><time>2026-04-04T07:24:12.332Z</time></trkpt><trkpt lat="43.3132673" lon="12.1527008"><ele>439.0</ele><time>2026-04-04T07:24:13.332Z</time></trkpt><trkpt lat="43.3133066" lon="12.152514"><ele>434.5</ele><time>2026-04-04T07:24:14.332Z</time></trkpt><trkpt lat="43.313327" lon="12.152326"><ele>430.0</ele><time>2026-04-04T07:24:15.332Z</time></trkpt><trkpt lat="43.3133319" lon="12.1521549"><ele>429.4</ele><time>2026-04-04T07:24:16.332Z</time></trkpt><trkpt lat="43.3133261" lon="12.1519912"><ele>428.8</ele><time>2026-04-04T07:24:17.332Z</time></trkpt><trkpt lat="43.3133112" lon="12.1518356"><ele>428.20000000000005</ele><time>2026-04-04T07:24:18.332Z</time></trkpt><trkpt lat="43.3133042" lon="12.1517016"><ele>427.6</ele><time>2026-04-04T07:24:19.332Z</time></trkpt><trkpt lat="43.3132946" lon="12.1515546"><ele>427.0</ele><time>2026-04-04T07:24:20.333Z</time></trkpt><trkpt lat="43.3133004" lon="12.15139"><ele>425.40000000000003</ele><time>2026-04-04T07:24:21.332Z</time></trkpt><trkpt lat="43.3133306" lon="12.1512915"><ele>423.80000000000007</ele><time>2026-04-04T07:24:22.332Z</time></trkpt><trkpt lat="43.3133983" lon="12.1511674"><ele>422.2</ele><time>2026-04-04T07:24:24.332Z</time></trkpt><trkpt lat="43.3135024" lon="12.1511292"><ele>420.6</ele><time>2026-04-04T07:24:26.332Z</time></trkpt><trkpt lat="43.3135817" lon="12.1511976"><ele>419.0</ele><time>2026-04-04T07:24:27.332Z</time></trkpt><trkpt lat="43.3136766" lon="12.1513121"><ele>419.0</ele><time>2026-04-04T07:24:28.332Z</time></trkpt><trkpt lat="43.3137883" lon="12.1514469"><ele>419.0</ele><time>2026-04-04T07:24:29.333Z</time></trkpt><trkpt lat="43.3138624" lon="12.1515059"><ele>419.0</ele><time>2026-04-04T07:24:30.333Z</time></trkpt><trkpt lat="43.3139622" lon="12.1515863"><ele>419.0</ele><time>2026-04-04T07:24:31.332Z</time></trkpt><trkpt lat="43.3140573" lon="12.1516054"><ele>419.0</ele><time>2026-04-04T07:24:32.332Z</time></trkpt><trkpt lat="43.3141999" lon="12.1515973"><ele>415.0</ele><time>2026-04-04T07:24:33.332Z</time></trkpt><trkpt lat="43.3143349" lon="12.1514047"><ele>411.0</ele><time>2026-04-04T07:24:35.332Z</time></trkpt><trkpt lat="43.3143337" lon="12.1512799"><ele>407.0</ele><time>2026-04-04T07:24:36.333Z</time></trkpt><trkpt lat="43.3142795" lon="12.1511047"><ele>403.0</ele><time>2026-04-04T07:24:37.333Z</time></trkpt><trkpt lat="43.314226" lon="12.1507462"><ele>401.79999999999995</ele><time>2026-04-04T07:24:38.332Z</time></trkpt><trkpt lat="43.3141876" lon="12.1505876"><ele>400.6</ele><time>2026-04-04T07:24:39.332Z</time></trkpt><trkpt lat="43.3141998" lon="12.1504802"><ele>399.4</ele><time>2026-04-04T07:24:40.333Z</time></trkpt><trkpt lat="43.3142343" lon="12.1503991"><ele>398.20000000000005</ele><time>2026-04-04T07:24:41.332Z</time></trkpt><trkpt lat="43.3143289" lon="12.1503284"><ele>397.0</ele><time>2026-04-04T07:24:43.332Z</time></trkpt><trkpt lat="43.3144151" lon="12.1503714"><ele>397.0</ele><time>2026-04-04T07:24:44.332Z</time></trkpt><trkpt lat="43.3145387" lon="12.1505033"><ele>397.0</ele><time>2026-04-04T07:24:45.332Z</time></trkpt><trkpt lat="43.3146708" lon="12.1506202"><ele>397.0</ele><time>2026-04-04T07:24:46.332Z</time></trkpt><trkpt lat="43.3148105" lon="12.150743"><ele>393.6666666666667</ele><time>2026-04-04T07:24:47.333Z</time></trkpt><trkpt lat="43.3149469" lon="12.1508639"><ele>390.33333333333337</ele><time>2026-04-04T07:24:48.332Z</time></trkpt><trkpt lat="43.315072" lon="12.1509815"><ele>387.0</ele><time>2026-04-04T07:24:49.332Z</time></trkpt><trkpt lat="43.3151995" lon="12.1511059"><ele>387.0</ele><time>2026-04-04T07:24:50.332Z</time></trkpt><trkpt lat="43.3152943" lon="12.1512301"><ele>387.0</ele><time>2026-04-04T07:24:51.332Z</time></trkpt><trkpt lat="43.3153802" lon="12.1513302"><ele>387.0</ele><time>2026-04-04T07:24:52.332Z</time></trkpt><trkpt lat="43.3154639" lon="12.151415"><ele>387.0</ele><time>2026-04-04T07:24:53.332Z</time></trkpt><trkpt lat="43.3155538" lon="12.1514493"><ele>387.0</ele><time>2026-04-04T07:24:54.332Z</time></trkpt><trkpt lat="43.3156669" lon="12.1514262"><ele>384.0</ele><time>2026-04-04T07:24:55.332Z</time></trkpt><trkpt lat="43.3157782" lon="12.1513899"><ele>381.0</ele><time>2026-04-04T07:24:56.332Z</time></trkpt><trkpt lat="43.3158763" lon="12.1513163"><ele>378.0</ele><time>2026-04-04T07:24:57.333Z</time></trkpt><trkpt lat="43.3159666" lon="12.1512254"><ele>375.0</ele><time>2026-04-04T07:24:58.332Z</time></trkpt><trkpt lat="43.3160185" lon="12.1510959"><ele>372.0</ele><time>2026-04-04T07:24:59.332Z</time></trkpt><trkpt lat="43.3160685" lon="12.1509645"><ele>372.0</ele><time>2026-04-04T07:25:00.332Z</time></trkpt><trkpt lat="43.3161098" lon="12.1508696"><ele>372.0</ele><time>2026-04-04T07:25:01.332Z</time></trkpt><trkpt lat="43.3161654" lon="12.1508244"><ele>372.0</ele><time>2026-04-04T07:25:02.332Z</time></trkpt><trkpt lat="43.3162323" lon="12.1508459"><ele>372.0</ele><time>2026-04-04T07:25:03.332Z</time></trkpt><trkpt lat="43.3162862" lon="12.150921"><ele>372.0</ele><time>2026-04-04T07:25:04.332Z</time></trkpt><trkpt lat="43.3163092" lon="12.1510233"><ele>372.0</ele><time>2026-04-04T07:25:05.333Z</time></trkpt><trkpt lat="43.3163053" lon="12.1511442"><ele>372.0</ele><time>2026-04-04T07:25:06.333Z</time></trkpt><trkpt lat="43.3162715" lon="12.1512967"><ele>372.0</ele><time>2026-04-04T07:25:07.334Z</time></trkpt><trkpt lat="43.3162332" lon="12.1514603"><ele>372.0</ele><time>2026-04-04T07:25:08.333Z</time></trkpt><trkpt lat="43.3161912" lon="12.1516084"><ele>372.0</ele><time>2026-04-04T07:25:09.333Z</time></trkpt><trkpt lat="43.3161458" lon="12.1517438"><ele>371.3333333333333</ele><time>2026-04-04T07:25:10.334Z</time></trkpt><trkpt lat="43.3160961" lon="12.1518738"><ele>370.6666666666667</ele><time>2026-04-04T07:25:11.334Z</time></trkpt><trkpt lat="43.3160749" lon="12.1519974"><ele>370.0</ele><time>2026-04-04T07:25:12.333Z</time></trkpt><trkpt lat="43.3160967" lon="12.1521363"><ele>369.33333333333337</ele><time>2026-04-04T07:25:14.333Z</time></trkpt><trkpt lat="43.3161448" lon="12.1522061"><ele>368.6666666666667</ele><time>2026-04-04T07:25:16.333Z</time></trkpt><trkpt lat="43.3162042" lon="12.152239"><ele>368.0</ele><time>2026-04-04T07:25:18.333Z</time></trkpt><trkpt lat="43.316517" lon="12.1521223"><ele>361.0</ele><time>2026-04-04T07:25:20.333Z</time></trkpt><trkpt lat="43.3166754" lon="12.1521166"><ele>354.0</ele><time>2026-04-04T07:25:21.333Z</time></trkpt><trkpt lat="43.3168655" lon="12.1520213"><ele>347.0</ele><time>2026-04-04T07:25:22.333Z</time></trkpt><trkpt lat="43.3170216" lon="12.1519152"><ele>347.0</ele><time>2026-04-04T07:25:23.333Z</time></trkpt><trkpt lat="43.3172096" lon="12.151753"><ele>347.0</ele><time>2026-04-04T07:25:24.333Z</time></trkpt><trkpt lat="43.3173755" lon="12.1515877"><ele>347.0</ele><time>2026-04-04T07:25:25.333Z</time></trkpt><trkpt lat="43.3174968" lon="12.151358"><ele>343.33333333333337</ele><time>2026-04-04T07:25:26.333Z</time></trkpt><trkpt lat="43.3175413" lon="12.1511255"><ele>339.6666666666667</ele><time>2026-04-04T07:25:27.333Z</time></trkpt><trkpt lat="43.3175274" lon="12.1509517"><ele>336.0</ele><time>2026-04-04T07:25:28.334Z</time></trkpt><trkpt lat="43.3174258" lon="12.1507741"><ele>334.6666666666667</ele><time>2026-04-04T07:25:29.334Z</time></trkpt><trkpt lat="43.3173329" lon="12.1506029"><ele>333.33333333333337</ele><time>2026-04-04T07:25:30.333Z</time></trkpt><trkpt lat="43.3172597" lon="12.1503585"><ele>332.0</ele><time>2026-04-04T07:25:31.334Z</time></trkpt><trkpt lat="43.3172269" lon="12.1501672"><ele>333.0</ele><time>2026-04-04T07:25:32.333Z</time></trkpt><trkpt lat="43.3172052" lon="12.1499705"><ele>334.0</ele><time>2026-04-04T07:25:33.333Z</time></trkpt><trkpt lat="43.3172263" lon="12.1498296"><ele>335.0</ele><time>2026-04-04T07:25:34.333Z</time></trkpt><trkpt lat="43.3172504" lon="12.1497016"><ele>336.0</ele><time>2026-04-04T07:25:35.333Z</time></trkpt><trkpt lat="43.3173061" lon="12.1496132"><ele>337.0</ele><time>2026-04-04T07:25:36.333Z</time></trkpt><trkpt lat="43.317358" lon="12.1495342"><ele>337.0</ele><time>2026-04-04T07:25:37.333Z</time></trkpt><trkpt lat="43.3174133" lon="12.1494782"><ele>337.0</ele><time>2026-04-04T07:25:38.333Z</time></trkpt><trkpt lat="43.3174775" lon="12.1494394"><ele>337.0</ele><time>2026-04-04T07:25:39.333Z</time></trkpt><trkpt lat="43.3175512" lon="12.1494295"><ele>337.0</ele><time>2026-04-04T07:25:40.333Z</time></trkpt><trkpt lat="43.3176488" lon="12.149452"><ele>337.0</ele><time>2026-04-04T07:25:41.333Z</time></trkpt><trkpt lat="43.3177455" lon="12.1494503"><ele>337.0</ele><time>2026-04-04T07:25:42.333Z</time></trkpt><trkpt lat="43.317852" lon="12.1494453"><ele>337.0</ele><time>2026-04-04T07:25:43.333Z</time></trkpt><trkpt lat="43.3179599" lon="12.1494572"><ele>337.0</ele><time>2026-04-04T07:25:44.333Z</time></trkpt><trkpt lat="43.3180613" lon="12.1494667"><ele>337.0</ele><time>2026-04-04T07:25:45.333Z</time></trkpt><trkpt lat="43.3181663" lon="12.1494804"><ele>337.0</ele><time>2026-04-04T07:25:46.333Z</time></trkpt><trkpt lat="43.3182762" lon="12.1494921"><ele>337.0</ele><time>2026-04-04T07:25:47.333Z</time></trkpt><trkpt lat="43.3183762" lon="12.149504"><ele>334.8</ele><time>2026-04-04T07:25:48.334Z</time></trkpt><trkpt lat="43.318484" lon="12.1495117"><ele>332.6</ele><time>2026-04-04T07:25:49.333Z</time></trkpt><trkpt lat="43.3185906" lon="12.1495064"><ele>330.40000000000003</ele><time>2026-04-04T07:25:50.333Z</time></trkpt><trkpt lat="43.3186908" lon="12.1494974"><ele>328.20000000000005</ele><time>2026-04-04T07:25:51.333Z</time></trkpt><trkpt lat="43.3187682" lon="12.1494696"><ele>326.0</ele><time>2026-04-04T07:25:52.333Z</time></trkpt><trkpt lat="43.3188405" lon="12.1494213"><ele>326.0</ele><time>2026-04-04T07:25:53.333Z</time></trkpt><trkpt lat="43.3188982" lon="12.1493514"><ele>326.0</ele><time>2026-04-04T07:25:54.333Z</time></trkpt><trkpt lat="43.3189377" lon="12.1492623"><ele>326.0</ele><time>2026-04-04T07:25:55.335Z</time></trkpt><trkpt lat="43.318954" lon="12.1491615"><ele>326.0</ele><time>2026-04-04T07:25:56.333Z</time></trkpt><trkpt lat="43.3189638" lon="12.1490644"><ele>326.0</ele><time>2026-04-04T07:25:57.334Z</time></trkpt><trkpt lat="43.318923" lon="12.1489817"><ele>326.0</ele><time>2026-04-04T07:25:58.333Z</time></trkpt><trkpt lat="43.3188779" lon="12.1488989"><ele>326.0</ele><time>2026-04-04T07:25:59.333Z</time></trkpt><trkpt lat="43.3188423" lon="12.1488129"><ele>325.1666666666667</ele><time>2026-04-04T07:26:00.333Z</time></trkpt><trkpt lat="43.3188142" lon="12.1487182"><ele>324.33333333333337</ele><time>2026-04-04T07:26:01.333Z</time></trkpt><trkpt lat="43.3188477" lon="12.1486046"><ele>323.5</ele><time>2026-04-04T07:26:02.333Z</time></trkpt><trkpt lat="43.3188981" lon="12.1484959"><ele>322.6666666666667</ele><time>2026-04-04T07:26:03.334Z</time></trkpt><trkpt lat="43.3189522" lon="12.1483899"><ele>321.8333333333333</ele><time>2026-04-04T07:26:04.333Z</time></trkpt><trkpt lat="43.31901" lon="12.1482832"><ele>321.0</ele><time>2026-04-04T07:26:05.333Z</time></trkpt><trkpt lat="43.3190724" lon="12.1481796"><ele>318.40000000000003</ele><time>2026-04-04T07:26:06.334Z</time></trkpt><trkpt lat="43.3191397" lon="12.1480852"><ele>315.8</ele><time>2026-04-04T07:26:07.334Z</time></trkpt><trkpt lat="43.3192229" lon="12.1479979"><ele>313.20000000000005</ele><time>2026-04-04T07:26:08.335Z</time></trkpt><trkpt lat="43.3192902" lon="12.1478843"><ele>310.6</ele><time>2026-04-04T07:26:09.334Z</time></trkpt><trkpt lat="43.3193534" lon="12.1477595"><ele>308.0</ele><time>2026-04-04T07:26:10.334Z</time></trkpt><trkpt lat="43.3194098" lon="12.1476256"><ele>308.0</ele><time>2026-04-04T07:26:11.335Z</time></trkpt><trkpt lat="43.3194524" lon="12.1474779"><ele>308.0</ele><time>2026-04-04T07:26:12.334Z</time></trkpt><trkpt lat="43.3194801" lon="12.1473259"><ele>308.0</ele><time>2026-04-04T07:26:13.334Z</time></trkpt><trkpt lat="43.319518" lon="12.1471875"><ele>308.0</ele><time>2026-04-04T07:26:14.334Z</time></trkpt><trkpt lat="43.3195619" lon="12.1470566"><ele>308.0</ele><time>2026-04-04T07:26:15.334Z</time></trkpt><trkpt lat="43.3196215" lon="12.1469621"><ele>307.75</ele><time>2026-04-04T07:26:16.334Z</time></trkpt><trkpt lat="43.3197182" lon="12.146899"><ele>307.5</ele><time>2026-04-04T07:26:17.334Z</time></trkpt><trkpt lat="43.3198318" lon="12.1468468"><ele>307.25</ele><time>2026-04-04T07:26:18.334Z</time></trkpt><trkpt lat="43.3199845" lon="12.1468397"><ele>307.0</ele><time>2026-04-04T07:26:19.334Z</time></trkpt><trkpt lat="43.3201431" lon="12.1468318"><ele>305.66666666666663</ele><time>2026-04-04T07:26:20.334Z</time></trkpt><trkpt lat="43.3203076" lon="12.1468202"><ele>304.3333333333333</ele><time>2026-04-04T07:26:21.334Z</time></trkpt><trkpt lat="43.3204614" lon="12.1468136"><ele>303.0</ele><time>2026-04-04T07:26:22.334Z</time></trkpt><trkpt lat="43.3205982" lon="12.1468109"><ele>303.0</ele><time>2026-04-04T07:26:23.334Z</time></trkpt><trkpt lat="43.3207225" lon="12.1468061"><ele>303.0</ele><time>2026-04-04T07:26:24.334Z</time></trkpt><trkpt lat="43.3208476" lon="12.1467986"><ele>303.0</ele><time>2026-04-04T07:26:25.335Z</time></trkpt><trkpt lat="43.3210759" lon="12.1467346"><ele>303.0</ele><time>2026-04-04T07:26:27.334Z</time></trkpt><trkpt lat="43.3211648" lon="12.1466914"><ele>303.0</ele><time>2026-04-04T07:26:28.334Z</time></trkpt><trkpt lat="43.3212474" lon="12.1466616"><ele>303.0</ele><time>2026-04-04T07:26:29.334Z</time></trkpt><trkpt lat="43.3213176" lon="12.1466358"><ele>303.0</ele><time>2026-04-04T07:26:30.334Z</time></trkpt><trkpt lat="43.3213675" lon="12.1465453"><ele>303.0</ele><time>2026-04-04T07:26:32.334Z</time></trkpt><trkpt lat="43.3213454" lon="12.146397"><ele>303.0</ele><time>2026-04-04T07:26:34.334Z</time></trkpt><trkpt lat="43.3212969" lon="12.1462843"><ele>303.25</ele><time>2026-04-04T07:26:35.334Z</time></trkpt><trkpt lat="43.3212444" lon="12.1461631"><ele>303.5</ele><time>2026-04-04T07:26:36.334Z</time></trkpt><trkpt lat="43.3211963" lon="12.1460214"><ele>303.75</ele><time>2026-04-04T07:26:37.334Z</time></trkpt><trkpt lat="43.321158" lon="12.1458512"><ele>304.0</ele><time>2026-04-04T07:26:38.334Z</time></trkpt><trkpt lat="43.3211298" lon="12.1456703"><ele>304.0</ele><time>2026-04-04T07:26:39.334Z</time></trkpt><trkpt lat="43.3211057" lon="12.1454803"><ele>304.0</ele><time>2026-04-04T07:26:40.334Z</time></trkpt><trkpt lat="43.3210817" lon="12.1452838"><ele>304.0</ele><time>2026-04-04T07:26:41.334Z</time></trkpt><trkpt lat="43.3210618" lon="12.1450719"><ele>304.0</ele><time>2026-04-04T07:26:42.334Z</time></trkpt><trkpt lat="43.3210479" lon="12.1448421"><ele>304.3333333333333</ele><time>2026-04-04T07:26:43.334Z</time></trkpt><trkpt lat="43.3210371" lon="12.1446045"><ele>304.6666666666667</ele><time>2026-04-04T07:26:44.334Z</time></trkpt><trkpt lat="43.3210334" lon="12.1443645"><ele>305.0</ele><time>2026-04-04T07:26:45.334Z</time></trkpt><trkpt lat="43.3210361" lon="12.1441223"><ele>305.6666666666667</ele><time>2026-04-04T07:26:46.334Z</time></trkpt><trkpt lat="43.3210463" lon="12.1438822"><ele>306.3333333333333</ele><time>2026-04-04T07:26:47.334Z</time></trkpt><trkpt lat="43.3210631" lon="12.1436504"><ele>307.0</ele><time>2026-04-04T07:26:48.334Z</time></trkpt><trkpt lat="43.3210777" lon="12.1434314"><ele>307.0</ele><time>2026-04-04T07:26:49.334Z</time></trkpt><trkpt lat="43.32108" lon="12.1432176"><ele>307.0</ele><time>2026-04-04T07:26:50.334Z</time></trkpt><trkpt lat="43.3210598" lon="12.1429921"><ele>307.0</ele><time>2026-04-04T07:26:51.334Z</time></trkpt><trkpt lat="43.3210139" lon="12.1427574"><ele>309.66666666666663</ele><time>2026-04-04T07:26:52.334Z</time></trkpt><trkpt lat="43.3209457" lon="12.1425178"><ele>312.3333333333333</ele><time>2026-04-04T07:26:53.334Z</time></trkpt><trkpt lat="43.3208722" lon="12.1422871"><ele>315.0</ele><time>2026-04-04T07:26:54.334Z</time></trkpt><trkpt lat="43.3207774" lon="12.142068"><ele>318.6666666666667</ele><time>2026-04-04T07:26:55.334Z</time></trkpt><trkpt lat="43.320682" lon="12.1418717"><ele>322.33333333333337</ele><time>2026-04-04T07:26:56.334Z</time></trkpt><trkpt lat="43.3205749" lon="12.1416837"><ele>326.0</ele><time>2026-04-04T07:26:57.335Z</time></trkpt><trkpt lat="43.3204679" lon="12.1415255"><ele>326.0</ele><time>2026-04-04T07:26:58.334Z</time></trkpt><trkpt lat="43.3203588" lon="12.141382"><ele>326.0</ele><time>2026-04-04T07:26:59.334Z</time></trkpt><trkpt lat="43.3202391" lon="12.1412761"><ele>326.0</ele><time>2026-04-04T07:27:00.334Z</time></trkpt><trkpt lat="43.3201108" lon="12.1412111"><ele>326.0</ele><time>2026-04-04T07:27:01.334Z</time></trkpt><trkpt lat="43.3199801" lon="12.1412047"><ele>326.0</ele><time>2026-04-04T07:27:02.334Z</time></trkpt><trkpt lat="43.3198594" lon="12.1412144"><ele>326.0</ele><time>2026-04-04T07:27:03.335Z</time></trkpt><trkpt lat="43.3197531" lon="12.1411956"><ele>326.0</ele><time>2026-04-04T07:27:04.334Z</time></trkpt><trkpt lat="43.3196642" lon="12.1411478"><ele>326.0</ele><time>2026-04-04T07:27:05.334Z</time></trkpt><trkpt lat="43.3195857" lon="12.1410699"><ele>326.0</ele><time>2026-04-04T07:27:06.335Z</time></trkpt><trkpt lat="43.3195188" lon="12.1409833"><ele>324.33333333333337</ele><time>2026-04-04T07:27:07.336Z</time></trkpt><trkpt lat="43.319475" lon="12.1408686"><ele>322.6666666666667</ele><time>2026-04-04T07:27:08.335Z</time></trkpt><trkpt lat="43.3194399" lon="12.1407737"><ele>321.0</ele><time>2026-04-04T07:27:09.335Z</time></trkpt><trkpt lat="43.3194242" lon="12.140662"><ele>319.3333333333333</ele><time>2026-04-04T07:27:10.335Z</time></trkpt><trkpt lat="43.3194162" lon="12.1405317"><ele>317.66666666666663</ele><time>2026-04-04T07:27:11.335Z</time></trkpt><trkpt lat="43.3194143" lon="12.140403"><ele>316.0</ele><time>2026-04-04T07:27:12.335Z</time></trkpt><trkpt lat="43.3194011" lon="12.1402756"><ele>316.0</ele><time>2026-04-04T07:27:13.335Z</time></trkpt><trkpt lat="43.3193562" lon="12.1401432"><ele>316.0</ele><time>2026-04-04T07:27:14.335Z</time></trkpt><trkpt lat="43.3192702" lon="12.1400211"><ele>316.0</ele><time>2026-04-04T07:27:15.335Z</time></trkpt><trkpt lat="43.3191598" lon="12.1399118"><ele>316.0</ele><time>2026-04-04T07:27:16.335Z</time></trkpt><trkpt lat="43.3190374" lon="12.1397939"><ele>314.3333333333333</ele><time>2026-04-04T07:27:17.336Z</time></trkpt><trkpt lat="43.3189032" lon="12.1396739"><ele>312.6666666666667</ele><time>2026-04-04T07:27:18.335Z</time></trkpt><trkpt lat="43.3187707" lon="12.1395598"><ele>311.0</ele><time>2026-04-04T07:27:19.335Z</time></trkpt><trkpt lat="43.3186425" lon="12.1394417"><ele>311.0</ele><time>2026-04-04T07:27:20.335Z</time></trkpt><trkpt lat="43.3185422" lon="12.1393189"><ele>311.0</ele><time>2026-04-04T07:27:21.336Z</time></trkpt><trkpt lat="43.3184475" lon="12.1391855"><ele>311.0</ele><time>2026-04-04T07:27:22.335Z</time></trkpt><trkpt lat="43.3183643" lon="12.1390251"><ele>311.0</ele><time>2026-04-04T07:27:23.335Z</time></trkpt><trkpt lat="43.3182991" lon="12.138855"><ele>312.0</ele><time>2026-04-04T07:27:24.335Z</time></trkpt><trkpt lat="43.3182242" lon="12.1386674"><ele>313.0</ele><time>2026-04-04T07:27:25.335Z</time></trkpt><trkpt lat="43.3181536" lon="12.1384993"><ele>314.0</ele><time>2026-04-04T07:27:26.335Z</time></trkpt><trkpt lat="43.3181084" lon="12.1383006"><ele>315.0</ele><time>2026-04-04T07:27:27.335Z</time></trkpt><trkpt lat="43.3180906" lon="12.1381074"><ele>312.3333333333333</ele><time>2026-04-04T07:27:28.335Z</time></trkpt><trkpt lat="43.3180546" lon="12.137906"><ele>309.66666666666663</ele><time>2026-04-04T07:27:29.335Z</time></trkpt><trkpt lat="43.3180015" lon="12.1377112"><ele>307.0</ele><time>2026-04-04T07:27:30.335Z</time></trkpt><trkpt lat="43.3179154" lon="12.1375269"><ele>310.66666666666663</ele><time>2026-04-04T07:27:31.335Z</time></trkpt><trkpt lat="43.3177981" lon="12.1373437"><ele>314.3333333333333</ele><time>2026-04-04T07:27:32.335Z</time></trkpt><trkpt lat="43.3176776" lon="12.1371428"><ele>318.0</ele><time>2026-04-04T07:27:33.335Z</time></trkpt><trkpt lat="43.3175616" lon="12.136942"><ele>318.0</ele><time>2026-04-04T07:27:34.335Z</time></trkpt><trkpt lat="43.3174605" lon="12.1367391"><ele>318.0</ele><time>2026-04-04T07:27:35.336Z</time></trkpt><trkpt lat="43.3173672" lon="12.1365479"><ele>318.0</ele><time>2026-04-04T07:27:36.335Z</time></trkpt><trkpt lat="43.3172808" lon="12.1363674"><ele>316.0</ele><time>2026-04-04T07:27:37.335Z</time></trkpt><trkpt lat="43.3172" lon="12.1361871"><ele>314.0</ele><time>2026-04-04T07:27:38.335Z</time></trkpt><trkpt lat="43.3171255" lon="12.1360105"><ele>312.0</ele><time>2026-04-04T07:27:39.335Z</time></trkpt><trkpt lat="43.3170562" lon="12.1358176"><ele>313.6666666666667</ele><time>2026-04-04T07:27:40.336Z</time></trkpt><trkpt lat="43.3169954" lon="12.1356093"><ele>315.33333333333337</ele><time>2026-04-04T07:27:41.336Z</time></trkpt><trkpt lat="43.3169303" lon="12.135395"><ele>317.0</ele><time>2026-04-04T07:27:42.335Z</time></trkpt><trkpt lat="43.3168593" lon="12.135181"><ele>317.0</ele><time>2026-04-04T07:27:43.335Z</time></trkpt><trkpt lat="43.3167839" lon="12.1349735"><ele>317.0</ele><time>2026-04-04T07:27:44.335Z</time></trkpt><trkpt lat="43.3166971" lon="12.1347635"><ele>317.0</ele><time>2026-04-04T07:27:45.336Z</time></trkpt><trkpt lat="43.3166056" lon="12.1345526"><ele>318.33333333333337</ele><time>2026-04-04T07:27:46.335Z</time></trkpt><trkpt lat="43.3165111" lon="12.1343506"><ele>319.6666666666667</ele><time>2026-04-04T07:27:47.336Z</time></trkpt><trkpt lat="43.3164108" lon="12.1341513"><ele>321.0</ele><time>2026-04-04T07:27:48.336Z</time></trkpt><trkpt lat="43.3163036" lon="12.1339599"><ele>321.0</ele><time>2026-04-04T07:27:49.335Z</time></trkpt><trkpt lat="43.3161973" lon="12.133795"><ele>321.0</ele><time>2026-04-04T07:27:50.335Z</time></trkpt><trkpt lat="43.3160847" lon="12.1336512"><ele>321.0</ele><time>2026-04-04T07:27:51.335Z</time></trkpt><trkpt lat="43.3159599" lon="12.1335395"><ele>321.0</ele><time>2026-04-04T07:27:52.336Z</time></trkpt><trkpt lat="43.315834" lon="12.1334357"><ele>321.0</ele><time>2026-04-04T07:27:53.335Z</time></trkpt><trkpt lat="43.3157324" lon="12.1333147"><ele>321.0</ele><time>2026-04-04T07:27:54.335Z</time></trkpt><trkpt lat="43.315643" lon="12.1331689"><ele>321.0</ele><time>2026-04-04T07:27:55.335Z</time></trkpt><trkpt lat="43.3155758" lon="12.1330189"><ele>322.25</ele><time>2026-04-04T07:27:56.336Z</time></trkpt><trkpt lat="43.3155463" lon="12.1328352"><ele>323.5</ele><time>2026-04-04T07:27:57.335Z</time></trkpt><trkpt lat="43.315544" lon="12.1326403"><ele>324.75</ele><time>2026-04-04T07:27:58.336Z</time></trkpt><trkpt lat="43.3155695" lon="12.1324296"><ele>326.0</ele><time>2026-04-04T07:27:59.335Z</time></trkpt><trkpt lat="43.3156061" lon="12.1322312"><ele>326.0</ele><time>2026-04-04T07:28:00.335Z</time></trkpt><trkpt lat="43.3156331" lon="12.1320392"><ele>326.0</ele><time>2026-04-04T07:28:01.336Z</time></trkpt><trkpt lat="43.3156448" lon="12.1318504"><ele>326.0</ele><time>2026-04-04T07:28:02.335Z</time></trkpt><trkpt lat="43.3156533" lon="12.1316689"><ele>326.0</ele><time>2026-04-04T07:28:03.335Z</time></trkpt><trkpt lat="43.3156121" lon="12.1315248"><ele>324.75</ele><time>2026-04-04T07:28:04.336Z</time></trkpt><trkpt lat="43.3155316" lon="12.1313938"><ele>323.5</ele><time>2026-04-04T07:28:05.335Z</time></trkpt><trkpt lat="43.3154244" lon="12.1312592"><ele>322.25</ele><time>2026-04-04T07:28:06.335Z</time></trkpt><trkpt lat="43.3152944" lon="12.1311416"><ele>321.0</ele><time>2026-04-04T07:28:07.335Z</time></trkpt><trkpt lat="43.3151483" lon="12.1310178"><ele>321.0</ele><time>2026-04-04T07:28:08.336Z</time></trkpt><trkpt lat="43.3150026" lon="12.1308902"><ele>321.0</ele><time>2026-04-04T07:28:09.336Z</time></trkpt><trkpt lat="43.3148784" lon="12.1307738"><ele>321.0</ele><time>2026-04-04T07:28:10.336Z</time></trkpt><trkpt lat="43.3147579" lon="12.1306564"><ele>322.0</ele><time>2026-04-04T07:28:11.336Z</time></trkpt><trkpt lat="43.314647" lon="12.1305383"><ele>323.0</ele><time>2026-04-04T07:28:12.336Z</time></trkpt><trkpt lat="43.3145359" lon="12.1303925"><ele>324.0</ele><time>2026-04-04T07:28:13.336Z</time></trkpt><trkpt lat="43.3144214" lon="12.1302474"><ele>324.0</ele><time>2026-04-04T07:28:14.336Z</time></trkpt><trkpt lat="43.3142923" lon="12.1301138"><ele>324.0</ele><time>2026-04-04T07:28:15.337Z</time></trkpt><trkpt lat="43.3141405" lon="12.129984"><ele>324.0</ele><time>2026-04-04T07:28:16.337Z</time></trkpt><trkpt lat="43.3139714" lon="12.1298606"><ele>326.6666666666667</ele><time>2026-04-04T07:28:17.336Z</time></trkpt><trkpt lat="43.3137961" lon="12.1297433"><ele>329.33333333333337</ele><time>2026-04-04T07:28:18.337Z</time></trkpt><trkpt lat="43.313605" lon="12.1296471"><ele>332.0</ele><time>2026-04-04T07:28:19.336Z</time></trkpt><trkpt lat="43.3134028" lon="12.129574"><ele>332.0</ele><time>2026-04-04T07:28:20.336Z</time></trkpt><trkpt lat="43.3132034" lon="12.1295192"><ele>332.0</ele><time>2026-04-04T07:28:21.336Z</time></trkpt><trkpt lat="43.3130164" lon="12.1294805"><ele>332.0</ele><time>2026-04-04T07:28:22.336Z</time></trkpt><trkpt lat="43.312829" lon="12.1294423"><ele>328.33333333333337</ele><time>2026-04-04T07:28:23.336Z</time></trkpt><trkpt lat="43.3126556" lon="12.1293969"><ele>324.6666666666667</ele><time>2026-04-04T07:28:24.336Z</time></trkpt><trkpt lat="43.3124941" lon="12.1293459"><ele>321.0</ele><time>2026-04-04T07:28:25.336Z</time></trkpt><trkpt lat="43.3123312" lon="12.1292774"><ele>320.0</ele><time>2026-04-04T07:28:26.336Z</time></trkpt><trkpt lat="43.3121771" lon="12.129175"><ele>319.0</ele><time>2026-04-04T07:28:27.336Z</time></trkpt><trkpt lat="43.3120217" lon="12.1290724"><ele>318.0</ele><time>2026-04-04T07:28:28.336Z</time></trkpt><trkpt lat="43.3118871" lon="12.1289927"><ele>318.0</ele><time>2026-04-04T07:28:29.336Z</time></trkpt><trkpt lat="43.3117653" lon="12.1289635"><ele>318.0</ele><time>2026-04-04T07:28:30.336Z</time></trkpt><trkpt lat="43.3116337" lon="12.1289807"><ele>318.0</ele><time>2026-04-04T07:28:31.336Z</time></trkpt><trkpt lat="43.3114877" lon="12.1290594"><ele>318.0</ele><time>2026-04-04T07:28:32.336Z</time></trkpt><trkpt lat="43.311361" lon="12.1291674"><ele>320.6666666666667</ele><time>2026-04-04T07:28:33.336Z</time></trkpt><trkpt lat="43.3112273" lon="12.1292599"><ele>323.33333333333337</ele><time>2026-04-04T07:28:34.336Z</time></trkpt><trkpt lat="43.3110786" lon="12.1292986"><ele>326.0</ele><time>2026-04-04T07:28:35.336Z</time></trkpt><trkpt lat="43.3109165" lon="12.1293222"><ele>326.0</ele><time>2026-04-04T07:28:36.337Z</time></trkpt><trkpt lat="43.3107505" lon="12.1293306"><ele>326.0</ele><time>2026-04-04T07:28:37.336Z</time></trkpt><trkpt lat="43.310584" lon="12.1293164"><ele>326.0</ele><time>2026-04-04T07:28:38.336Z</time></trkpt><trkpt lat="43.3104216" lon="12.1292801"><ele>324.75</ele><time>2026-04-04T07:28:39.337Z</time></trkpt><trkpt lat="43.3102783" lon="12.1292185"><ele>323.5</ele><time>2026-04-04T07:28:40.336Z</time></trkpt><trkpt lat="43.3101535" lon="12.1291468"><ele>322.25</ele><time>2026-04-04T07:28:41.336Z</time></trkpt><trkpt lat="43.3100518" lon="12.1290646"><ele>321.0</ele><time>2026-04-04T07:28:42.336Z</time></trkpt><trkpt lat="43.3099778" lon="12.128954"><ele>321.0</ele><time>2026-04-04T07:28:43.336Z</time></trkpt><trkpt lat="43.3099664" lon="12.128804"><ele>321.0</ele><time>2026-04-04T07:28:44.336Z</time></trkpt><trkpt lat="43.3099942" lon="12.1286286"><ele>321.0</ele><time>2026-04-04T07:28:45.337Z</time></trkpt><trkpt lat="43.3100322" lon="12.1284054"><ele>321.0</ele><time>2026-04-04T07:28:46.336Z</time></trkpt><trkpt lat="43.3100534" lon="12.1282271"><ele>322.0</ele><time>2026-04-04T07:28:47.336Z</time></trkpt><trkpt lat="43.3100987" lon="12.1279762"><ele>323.0</ele><time>2026-04-04T07:28:48.336Z</time></trkpt><trkpt lat="43.3101039" lon="12.1277516"><ele>324.0</ele><time>2026-04-04T07:28:49.336Z</time></trkpt><trkpt lat="43.3100632" lon="12.1275668"><ele>325.5</ele><time>2026-04-04T07:28:50.337Z</time></trkpt><trkpt lat="43.3100077" lon="12.127383"><ele>327.0</ele><time>2026-04-04T07:28:51.336Z</time></trkpt><trkpt lat="43.3099582" lon="12.1272053"><ele>328.5</ele><time>2026-04-04T07:28:52.336Z</time></trkpt><trkpt lat="43.3099135" lon="12.1270458"><ele>330.0</ele><time>2026-04-04T07:28:53.336Z</time></trkpt><trkpt lat="43.3098901" lon="12.1268825"><ele>330.0</ele><time>2026-04-04T07:28:54.336Z</time></trkpt><trkpt lat="43.3099057" lon="12.1266686"><ele>330.0</ele><time>2026-04-04T07:28:55.336Z</time></trkpt><trkpt lat="43.3099283" lon="12.1264314"><ele>330.0</ele><time>2026-04-04T07:28:56.337Z</time></trkpt><trkpt lat="43.3099603" lon="12.1261888"><ele>331.6666666666667</ele><time>2026-04-04T07:28:57.336Z</time></trkpt><trkpt lat="43.309984" lon="12.1259715"><ele>333.33333333333337</ele><time>2026-04-04T07:28:58.337Z</time></trkpt><trkpt lat="43.3100103" lon="12.1257549"><ele>335.0</ele><time>2026-04-04T07:28:59.336Z</time></trkpt><trkpt lat="43.3100124" lon="12.1255581"><ele>335.75</ele><time>2026-04-04T07:29:00.336Z</time></trkpt><trkpt lat="43.3100081" lon="12.125376"><ele>336.5</ele><time>2026-04-04T07:29:01.337Z</time></trkpt><trkpt lat="43.3099926" lon="12.1252135"><ele>337.25</ele><time>2026-04-04T07:29:02.336Z</time></trkpt><trkpt lat="43.3099537" lon="12.1250769"><ele>338.0</ele><time>2026-04-04T07:29:03.336Z</time></trkpt><trkpt lat="43.30988" lon="12.1249964"><ele>338.0</ele><time>2026-04-04T07:29:04.337Z</time></trkpt><trkpt lat="43.3097864" lon="12.1249683"><ele>338.0</ele><time>2026-04-04T07:29:05.336Z</time></trkpt><trkpt lat="43.3097045" lon="12.1249825"><ele>338.0</ele><time>2026-04-04T07:29:06.336Z</time></trkpt><trkpt lat="43.3095252" lon="12.1250508"><ele>338.0</ele><time>2026-04-04T07:29:08.337Z</time></trkpt><trkpt lat="43.3094528" lon="12.1250631"><ele>338.0</ele><time>2026-04-04T07:29:09.337Z</time></trkpt><trkpt lat="43.3093374" lon="12.125044"><ele>336.75</ele><time>2026-04-04T07:29:10.337Z</time></trkpt><trkpt lat="43.3092402" lon="12.1249607"><ele>335.5</ele><time>2026-04-04T07:29:11.338Z</time></trkpt><trkpt lat="43.3091487" lon="12.1248537"><ele>334.25</ele><time>2026-04-04T07:29:12.337Z</time></trkpt><trkpt lat="43.3090518" lon="12.1247359"><ele>333.0</ele><time>2026-04-04T07:29:13.338Z</time></trkpt><trkpt lat="43.3089457" lon="12.1246192"><ele>332.5</ele><time>2026-04-04T07:29:14.337Z</time></trkpt><trkpt lat="43.3088351" lon="12.1245057"><ele>332.0</ele><time>2026-04-04T07:29:15.337Z</time></trkpt><trkpt lat="43.3087121" lon="12.1243802"><ele>331.5</ele><time>2026-04-04T07:29:16.338Z</time></trkpt><trkpt lat="43.3085713" lon="12.1242937"><ele>331.0</ele><time>2026-04-04T07:29:17.337Z</time></trkpt><trkpt lat="43.3084137" lon="12.1242316"><ele>331.0</ele><time>2026-04-04T07:29:18.337Z</time></trkpt><trkpt lat="43.3082343" lon="12.1242118"><ele>331.0</ele><time>2026-04-04T07:29:19.337Z</time></trkpt><trkpt lat="43.3080813" lon="12.124187"><ele>331.0</ele><time>2026-04-04T07:29:20.337Z</time></trkpt><trkpt lat="43.3079373" lon="12.1241463"><ele>330.6</ele><time>2026-04-04T07:29:21.338Z</time></trkpt><trkpt lat="43.3078067" lon="12.1240888"><ele>330.20000000000005</ele><time>2026-04-04T07:29:22.337Z</time></trkpt><trkpt lat="43.3076979" lon="12.1240024"><ele>329.79999999999995</ele><time>2026-04-04T07:29:23.337Z</time></trkpt><trkpt lat="43.307617" lon="12.123924"><ele>329.4</ele><time>2026-04-04T07:29:24.337Z</time></trkpt><trkpt lat="43.3075597" lon="12.123873"><ele>329.0</ele><time>2026-04-04T07:29:25.337Z</time></trkpt><trkpt lat="43.3076533" lon="12.123857"><ele>329.0</ele><time>2026-04-04T07:29:49.337Z</time></trkpt><trkpt lat="43.307741" lon="12.1237914"><ele>329.0</ele><time>2026-04-04T07:29:51.337Z</time></trkpt><trkpt lat="43.3077765" lon="12.1237184"><ele>329.0</ele><time>2026-04-04T07:29:52.337Z</time></trkpt><trkpt lat="43.3078114" lon="12.1236179"><ele>329.0</ele><time>2026-04-04T07:29:53.337Z</time></trkpt><trkpt lat="43.3078329" lon="12.123495"><ele>329.0</ele><time>2026-04-04T07:29:54.337Z</time></trkpt><trkpt lat="43.307863" lon="12.123376"><ele>329.0</ele><time>2026-04-04T07:29:55.337Z</time></trkpt><trkpt lat="43.3078991" lon="12.1232509"><ele>332.5</ele><time>2026-04-04T07:29:56.337Z</time></trkpt><trkpt lat="43.3079331" lon="12.1231159"><ele>336.0</ele><time>2026-04-04T07:29:57.338Z</time></trkpt><trkpt lat="43.3079653" lon="12.1229653"><ele>339.5</ele><time>2026-04-04T07:29:58.337Z</time></trkpt><trkpt lat="43.3079858" lon="12.1227957"><ele>343.0</ele><time>2026-04-04T07:29:59.337Z</time></trkpt><trkpt lat="43.307986" lon="12.1226149"><ele>343.0</ele><time>2026-04-04T07:30:00.337Z</time></trkpt><trkpt lat="43.3079721" lon="12.1224329"><ele>343.0</ele><time>2026-04-04T07:30:01.338Z</time></trkpt><trkpt lat="43.3079575" lon="12.122278"><ele>343.0</ele><time>2026-04-04T07:30:02.337Z</time></trkpt><trkpt lat="43.3079408" lon="12.122157"><ele>343.0</ele><time>2026-04-04T07:30:03.337Z</time></trkpt><trkpt lat="43.3079108" lon="12.1220694"><ele>343.0</ele><time>2026-04-04T07:30:04.337Z</time></trkpt><trkpt lat="43.3078658" lon="12.1220029"><ele>346.59999999999997</ele><time>2026-04-04T07:30:05.337Z</time></trkpt><trkpt lat="43.3078079" lon="12.1219306"><ele>350.2</ele><time>2026-04-04T07:30:06.338Z</time></trkpt><trkpt lat="43.3077056" lon="12.1219289"><ele>353.8</ele><time>2026-04-04T07:30:07.337Z</time></trkpt><trkpt lat="43.3076109" lon="12.1219745"><ele>357.4</ele><time>2026-04-04T07:30:08.338Z</time></trkpt><trkpt lat="43.307521" lon="12.1220453"><ele>361.0</ele><time>2026-04-04T07:30:09.338Z</time></trkpt><trkpt lat="43.3074267" lon="12.1221211"><ele>361.0</ele><time>2026-04-04T07:30:10.339Z</time></trkpt><trkpt lat="43.3073288" lon="12.1222133"><ele>361.0</ele><time>2026-04-04T07:30:11.338Z</time></trkpt><trkpt lat="43.3072306" lon="12.1222652"><ele>361.0</ele><time>2026-04-04T07:30:12.338Z</time></trkpt><trkpt lat="43.3071408" lon="12.1222793"><ele>361.0</ele><time>2026-04-04T07:30:13.338Z</time></trkpt><trkpt lat="43.3070575" lon="12.1222735"><ele>361.0</ele><time>2026-04-04T07:30:14.338Z</time></trkpt><trkpt lat="43.3069555" lon="12.1222069"><ele>358.3333333333333</ele><time>2026-04-04T07:30:15.339Z</time></trkpt><trkpt lat="43.3068688" lon="12.1220499"><ele>355.6666666666667</ele><time>2026-04-04T07:30:16.338Z</time></trkpt><trkpt lat="43.3067886" lon="12.12185"><ele>353.0</ele><time>2026-04-04T07:30:17.338Z</time></trkpt><trkpt lat="43.3067151" lon="12.1216315"><ele>355.33333333333337</ele><time>2026-04-04T07:30:18.338Z</time></trkpt><trkpt lat="43.3066445" lon="12.1214194"><ele>357.6666666666667</ele><time>2026-04-04T07:30:19.338Z</time></trkpt><trkpt lat="43.3065923" lon="12.1212311"><ele>360.0</ele><time>2026-04-04T07:30:20.339Z</time></trkpt><trkpt lat="43.3065576" lon="12.1210442"><ele>360.0</ele><time>2026-04-04T07:30:21.338Z</time></trkpt><trkpt lat="43.3065325" lon="12.1208753"><ele>360.0</ele><time>2026-04-04T07:30:22.338Z</time></trkpt><trkpt lat="43.3065285" lon="12.1207448"><ele>360.0</ele><time>2026-04-04T07:30:23.339Z</time></trkpt><trkpt lat="43.3065537" lon="12.1206342"><ele>360.0</ele><time>2026-04-04T07:30:24.339Z</time></trkpt><trkpt lat="43.3066088" lon="12.1204959"><ele>360.0</ele><time>2026-04-04T07:30:25.338Z</time></trkpt><trkpt lat="43.3066724" lon="12.1203595"><ele>358.2</ele><time>2026-04-04T07:30:26.339Z</time></trkpt><trkpt lat="43.3067414" lon="12.1202439"><ele>356.4</ele><time>2026-04-04T07:30:27.339Z</time></trkpt><trkpt lat="43.3068155" lon="12.1201438"><ele>354.6</ele><time>2026-04-04T07:30:28.338Z</time></trkpt><trkpt lat="43.3068987" lon="12.1200756"><ele>352.8</ele><time>2026-04-04T07:30:29.338Z</time></trkpt><trkpt lat="43.3069831" lon="12.1200281"><ele>351.0</ele><time>2026-04-04T07:30:30.338Z</time></trkpt><trkpt lat="43.3070511" lon="12.1200094"><ele>351.0</ele><time>2026-04-04T07:30:31.338Z</time></trkpt><trkpt lat="43.3071285" lon="12.1200366"><ele>351.0</ele><time>2026-04-04T07:30:32.338Z</time></trkpt><trkpt lat="43.3072343" lon="12.1200877"><ele>351.0</ele><time>2026-04-04T07:30:33.338Z</time></trkpt><trkpt lat="43.3073454" lon="12.1201244"><ele>351.0</ele><time>2026-04-04T07:30:34.338Z</time></trkpt><trkpt lat="43.3074929" lon="12.1201373"><ele>353.5</ele><time>2026-04-04T07:30:35.338Z</time></trkpt><trkpt lat="43.3076173" lon="12.1200815"><ele>356.0</ele><time>2026-04-04T07:30:36.339Z</time></trkpt><trkpt lat="43.3077398" lon="12.1199955"><ele>358.5</ele><time>2026-04-04T07:30:37.338Z</time></trkpt><trkpt lat="43.3078558" lon="12.1199059"><ele>361.0</ele><time>2026-04-04T07:30:38.338Z</time></trkpt><trkpt lat="43.30797" lon="12.1198121"><ele>364.25</ele><time>2026-04-04T07:30:39.338Z</time></trkpt><trkpt lat="43.3080876" lon="12.1197157"><ele>367.5</ele><time>2026-04-04T07:30:40.338Z</time></trkpt><trkpt lat="43.3081843" lon="12.1196062"><ele>370.75</ele><time>2026-04-04T07:30:41.338Z</time></trkpt><trkpt lat="43.3082749" lon="12.1194717"><ele>374.0</ele><time>2026-04-04T07:30:42.339Z</time></trkpt><trkpt lat="43.3083601" lon="12.1193198"><ele>374.0</ele><time>2026-04-04T07:30:43.338Z</time></trkpt><trkpt lat="43.3084307" lon="12.1191509"><ele>374.0</ele><time>2026-04-04T07:30:44.338Z</time></trkpt><trkpt lat="43.3084902" lon="12.118965"><ele>374.0</ele><time>2026-04-04T07:30:45.338Z</time></trkpt><trkpt lat="43.3085459" lon="12.1187702"><ele>374.0</ele><time>2026-04-04T07:30:46.338Z</time></trkpt><trkpt lat="43.3086109" lon="12.1185728"><ele>376.25</ele><time>2026-04-04T07:30:47.338Z</time></trkpt><trkpt lat="43.3086653" lon="12.1183792"><ele>378.5</ele><time>2026-04-04T07:30:48.338Z</time></trkpt><trkpt lat="43.3086993" lon="12.1181987"><ele>380.75</ele><time>2026-04-04T07:30:49.338Z</time></trkpt><trkpt lat="43.3087289" lon="12.1180193"><ele>383.0</ele><time>2026-04-04T07:30:50.339Z</time></trkpt><trkpt lat="43.3087479" lon="12.1178534"><ele>384.4</ele><time>2026-04-04T07:30:51.338Z</time></trkpt><trkpt lat="43.3087488" lon="12.1177218"><ele>385.79999999999995</ele><time>2026-04-04T07:30:52.338Z</time></trkpt><trkpt lat="43.3087383" lon="12.1175818"><ele>387.2</ele><time>2026-04-04T07:30:53.338Z</time></trkpt><trkpt lat="43.3087085" lon="12.1174472"><ele>388.6</ele><time>2026-04-04T07:30:54.338Z</time></trkpt><trkpt lat="43.3086706" lon="12.1173301"><ele>390.0</ele><time>2026-04-04T07:30:55.338Z</time></trkpt><trkpt lat="43.3086362" lon="12.1172263"><ele>390.0</ele><time>2026-04-04T07:30:56.338Z</time></trkpt><trkpt lat="43.3086498" lon="12.1170488"><ele>390.0</ele><time>2026-04-04T07:30:58.339Z</time></trkpt><trkpt lat="43.3087009" lon="12.1169739"><ele>390.0</ele><time>2026-04-04T07:30:59.339Z</time></trkpt><trkpt lat="43.3087669" lon="12.1169353"><ele>390.0</ele><time>2026-04-04T07:31:00.338Z</time></trkpt><trkpt lat="43.3089001" lon="12.1169469"><ele>390.0</ele><time>2026-04-04T07:31:02.338Z</time></trkpt><trkpt lat="43.3089921" lon="12.1170264"><ele>395.33333333333337</ele><time>2026-04-04T07:31:04.338Z</time></trkpt><trkpt lat="43.3090388" lon="12.1171512"><ele>400.6666666666667</ele><time>2026-04-04T07:31:05.338Z</time></trkpt><trkpt lat="43.3091113" lon="12.117526"><ele>406.0</ele><time>2026-04-04T07:31:07.338Z</time></trkpt><trkpt lat="43.3091128" lon="12.1176924"><ele>406.0</ele><time>2026-04-04T07:31:08.338Z</time></trkpt><trkpt lat="43.3091148" lon="12.1178839"><ele>406.0</ele><time>2026-04-04T07:31:09.338Z</time></trkpt><trkpt lat="43.3091057" lon="12.1180737"><ele>406.0</ele><time>2026-04-04T07:31:10.339Z</time></trkpt><trkpt lat="43.3091188" lon="12.1182379"><ele>406.0</ele><time>2026-04-04T07:31:11.339Z</time></trkpt><trkpt lat="43.3091607" lon="12.1184116"><ele>405.20000000000005</ele><time>2026-04-04T07:31:12.34Z</time></trkpt><trkpt lat="43.3092091" lon="12.1185599"><ele>404.40000000000003</ele><time>2026-04-04T07:31:13.339Z</time></trkpt><trkpt lat="43.3092632" lon="12.1186796"><ele>403.6</ele><time>2026-04-04T07:31:14.339Z</time></trkpt><trkpt lat="43.3093355" lon="12.11873"><ele>402.8</ele><time>2026-04-04T07:31:15.339Z</time></trkpt><trkpt lat="43.3094084" lon="12.1187554"><ele>402.0</ele><time>2026-04-04T07:31:16.339Z</time></trkpt><trkpt lat="43.3095216" lon="12.1187113"><ele>402.0</ele><time>2026-04-04T07:31:17.339Z</time></trkpt><trkpt lat="43.3096505" lon="12.1186485"><ele>402.0</ele><time>2026-04-04T07:31:18.34Z</time></trkpt><trkpt lat="43.3097844" lon="12.118569"><ele>402.0</ele><time>2026-04-04T07:31:19.339Z</time></trkpt><trkpt lat="43.3099118" lon="12.1185143"><ele>402.0</ele><time>2026-04-04T07:31:20.339Z</time></trkpt><trkpt lat="43.3100331" lon="12.1184846"><ele>404.8</ele><time>2026-04-04T07:31:21.339Z</time></trkpt><trkpt lat="43.3101317" lon="12.118488"><ele>407.6</ele><time>2026-04-04T07:31:22.339Z</time></trkpt><trkpt lat="43.3102229" lon="12.1185263"><ele>410.40000000000003</ele><time>2026-04-04T07:31:23.339Z</time></trkpt><trkpt lat="43.3103016" lon="12.1185931"><ele>413.20000000000005</ele><time>2026-04-04T07:31:24.339Z</time></trkpt><trkpt lat="43.310342" lon="12.1186821"><ele>416.0</ele><time>2026-04-04T07:31:25.339Z</time></trkpt><trkpt lat="43.3103487" lon="12.1188149"><ele>416.0</ele><time>2026-04-04T07:31:26.34Z</time></trkpt><trkpt lat="43.3103238" lon="12.1189769"><ele>416.0</ele><time>2026-04-04T07:31:27.339Z</time></trkpt><trkpt lat="43.3102366" lon="12.1191406"><ele>416.0</ele><time>2026-04-04T07:31:28.339Z</time></trkpt><trkpt lat="43.3101461" lon="12.119309"><ele>416.0</ele><time>2026-04-04T07:31:29.34Z</time></trkpt><trkpt lat="43.3100611" lon="12.1194788"><ele>414.25</ele><time>2026-04-04T07:31:30.339Z</time></trkpt><trkpt lat="43.3100011" lon="12.1196465"><ele>412.5</ele><time>2026-04-04T07:31:31.339Z</time></trkpt><trkpt lat="43.3099632" lon="12.1198129"><ele>410.75</ele><time>2026-04-04T07:31:32.339Z</time></trkpt><trkpt lat="43.3099511" lon="12.1199959"><ele>409.0</ele><time>2026-04-04T07:31:33.34Z</time></trkpt><trkpt lat="43.3099609" lon="12.1201769"><ele>409.0</ele><time>2026-04-04T07:31:34.339Z</time></trkpt><trkpt lat="43.3099901" lon="12.1203504"><ele>409.0</ele><time>2026-04-04T07:31:35.339Z</time></trkpt><trkpt lat="43.3100162" lon="12.1205098"><ele>409.0</ele><time>2026-04-04T07:31:36.339Z</time></trkpt><trkpt lat="43.3100465" lon="12.1206638"><ele>409.0</ele><time>2026-04-04T07:31:37.339Z</time></trkpt><trkpt lat="43.3100786" lon="12.1208125"><ele>407.6</ele><time>2026-04-04T07:31:38.34Z</time></trkpt><trkpt lat="43.3101089" lon="12.1209467"><ele>406.2</ele><time>2026-04-04T07:31:39.339Z</time></trkpt><trkpt lat="43.3101399" lon="12.121075"><ele>404.8</ele><time>2026-04-04T07:31:40.339Z</time></trkpt><trkpt lat="43.3101718" lon="12.1211729"><ele>403.40000000000003</ele><time>2026-04-04T07:31:41.339Z</time></trkpt><trkpt lat="43.3102319" lon="12.1212705"><ele>402.0</ele><time>2026-04-04T07:31:43.339Z</time></trkpt><trkpt lat="43.3103345" lon="12.1212358"><ele>402.0</ele><time>2026-04-04T07:31:45.34Z</time></trkpt><trkpt lat="43.310403" lon="12.1211398"><ele>402.0</ele><time>2026-04-04T07:31:46.339Z</time></trkpt><trkpt lat="43.3104873" lon="12.1210143"><ele>402.0</ele><time>2026-04-04T07:31:47.339Z</time></trkpt><trkpt lat="43.3105697" lon="12.1209011"><ele>402.0</ele><time>2026-04-04T07:31:48.339Z</time></trkpt><trkpt lat="43.3106478" lon="12.1208027"><ele>402.0</ele><time>2026-04-04T07:31:49.34Z</time></trkpt><trkpt lat="43.3107214" lon="12.1207059"><ele>407.20000000000005</ele><time>2026-04-04T07:31:50.339Z</time></trkpt><trkpt lat="43.3108011" lon="12.1206165"><ele>412.4</ele><time>2026-04-04T07:31:51.34Z</time></trkpt><trkpt lat="43.3108849" lon="12.120577"><ele>417.59999999999997</ele><time>2026-04-04T07:31:52.339Z</time></trkpt><trkpt lat="43.3109879" lon="12.1205656"><ele>422.79999999999995</ele><time>2026-04-04T07:31:53.339Z</time></trkpt><trkpt lat="43.3110949" lon="12.1205828"><ele>428.0</ele><time>2026-04-04T07:31:54.339Z</time></trkpt><trkpt lat="43.3112273" lon="12.1206207"><ele>428.0</ele><time>2026-04-04T07:31:55.339Z</time></trkpt><trkpt lat="43.3113527" lon="12.1206909"><ele>428.0</ele><time>2026-04-04T07:31:56.339Z</time></trkpt><trkpt lat="43.3114599" lon="12.1207786"><ele>428.0</ele><time>2026-04-04T07:31:57.339Z</time></trkpt><trkpt lat="43.3115543" lon="12.1208711"><ele>428.0</ele><time>2026-04-04T07:31:58.339Z</time></trkpt><trkpt lat="43.3116496" lon="12.1209787"><ele>426.59999999999997</ele><time>2026-04-04T07:31:59.339Z</time></trkpt><trkpt lat="43.3117325" lon="12.1211033"><ele>425.19999999999993</ele><time>2026-04-04T07:32:00.339Z</time></trkpt><trkpt lat="43.3117962" lon="12.1211868"><ele>423.8</ele><time>2026-04-04T07:32:01.339Z</time></trkpt><trkpt lat="43.3118614" lon="12.1212524"><ele>422.4</ele><time>2026-04-04T07:32:02.339Z</time></trkpt><trkpt lat="43.3119419" lon="12.1212763"><ele>421.0</ele><time>2026-04-04T07:32:03.339Z</time></trkpt><trkpt lat="43.3120385" lon="12.1212535"><ele>421.0</ele><time>2026-04-04T07:32:04.339Z</time></trkpt><trkpt lat="43.3121582" lon="12.1211933"><ele>421.0</ele><time>2026-04-04T07:32:05.339Z</time></trkpt><trkpt lat="43.312286" lon="12.1211336"><ele>421.0</ele><time>2026-04-04T07:32:06.34Z</time></trkpt><trkpt lat="43.3124189" lon="12.1210815"><ele>421.0</ele><time>2026-04-04T07:32:07.34Z</time></trkpt><trkpt lat="43.3125427" lon="12.1210381"><ele>421.75</ele><time>2026-04-04T07:32:08.34Z</time></trkpt><trkpt lat="43.3126647" lon="12.1209933"><ele>422.5</ele><time>2026-04-04T07:32:09.339Z</time></trkpt><trkpt lat="43.3127766" lon="12.1209436"><ele>423.25</ele><time>2026-04-04T07:32:10.34Z</time></trkpt><trkpt lat="43.3128881" lon="12.1208918"><ele>424.0</ele><time>2026-04-04T07:32:11.341Z</time></trkpt><trkpt lat="43.3129977" lon="12.1208176"><ele>422.0</ele><time>2026-04-04T07:32:12.34Z</time></trkpt><trkpt lat="43.3131044" lon="12.1207339"><ele>420.0</ele><time>2026-04-04T07:32:13.341Z</time></trkpt><trkpt lat="43.3131959" lon="12.1206172"><ele>418.0</ele><time>2026-04-04T07:32:14.34Z</time></trkpt><trkpt lat="43.3132806" lon="12.1205026"><ele>416.0</ele><time>2026-04-04T07:32:15.34Z</time></trkpt><trkpt lat="43.3133714" lon="12.1203708"><ele>420.20000000000005</ele><time>2026-04-04T07:32:16.34Z</time></trkpt><trkpt lat="43.3134424" lon="12.1202446"><ele>424.40000000000003</ele><time>2026-04-04T07:32:17.341Z</time></trkpt><trkpt lat="43.3134978" lon="12.1201327"><ele>428.6</ele><time>2026-04-04T07:32:18.34Z</time></trkpt><trkpt lat="43.3135399" lon="12.1200345"><ele>432.8</ele><time>2026-04-04T07:32:19.34Z</time></trkpt><trkpt lat="43.3136247" lon="12.1199475"><ele>437.0</ele><time>2026-04-04T07:32:21.341Z</time></trkpt><trkpt lat="43.3136903" lon="12.1200098"><ele>437.0</ele><time>2026-04-04T07:32:23.34Z</time></trkpt><trkpt lat="43.3137042" lon="12.1201204"><ele>437.00000000000006</ele><time>2026-04-04T07:32:24.34Z</time></trkpt><trkpt lat="43.313704" lon="12.1202617"><ele>437.00000000000006</ele><time>2026-04-04T07:32:25.341Z</time></trkpt><trkpt lat="43.3137182" lon="12.1204172"><ele>437.0</ele><time>2026-04-04T07:32:26.34Z</time></trkpt><trkpt lat="43.3137388" lon="12.1206013"><ele>437.0</ele><time>2026-04-04T07:32:27.34Z</time></trkpt><trkpt lat="43.31375" lon="12.1207772"><ele>438.25</ele><time>2026-04-04T07:32:28.34Z</time></trkpt><trkpt lat="43.3137653" lon="12.1209777"><ele>439.5</ele><time>2026-04-04T07:32:29.34Z</time></trkpt><trkpt lat="43.3138001" lon="12.1211206"><ele>440.75</ele><time>2026-04-04T07:32:30.341Z</time></trkpt><trkpt lat="43.3138594" lon="12.1212328"><ele>442.0</ele><time>2026-04-04T07:32:31.34Z</time></trkpt><trkpt lat="43.3139349" lon="12.1213222"><ele>442.0</ele><time>2026-04-04T07:32:32.34Z</time></trkpt><trkpt lat="43.3140329" lon="12.1213596"><ele>442.0</ele><time>2026-04-04T07:32:33.34Z</time></trkpt><trkpt lat="43.3141408" lon="12.1213922"><ele>442.0</ele><time>2026-04-04T07:32:34.34Z</time></trkpt><trkpt lat="43.3144029" lon="12.1214098"><ele>442.00000000000006</ele><time>2026-04-04T07:32:36.34Z</time></trkpt><trkpt lat="43.3145104" lon="12.1214208"><ele>442.0</ele><time>2026-04-04T07:32:37.34Z</time></trkpt><trkpt lat="43.3145982" lon="12.1214315"><ele>442.0</ele><time>2026-04-04T07:32:38.34Z</time></trkpt><trkpt lat="43.3146711" lon="12.1214555"><ele>442.0</ele><time>2026-04-04T07:32:39.34Z</time></trkpt><trkpt lat="43.3147576" lon="12.1215499"><ele>442.00000000000006</ele><time>2026-04-04T07:32:41.34Z</time></trkpt><trkpt lat="43.3147887" lon="12.1216326"><ele>442.0</ele><time>2026-04-04T07:32:42.341Z</time></trkpt><trkpt lat="43.3147995" lon="12.121732"><ele>443.8</ele><time>2026-04-04T07:32:43.341Z</time></trkpt><trkpt lat="43.3147882" lon="12.1218601"><ele>445.6</ele><time>2026-04-04T07:32:44.34Z</time></trkpt><trkpt lat="43.3147835" lon="12.1219985"><ele>447.40000000000003</ele><time>2026-04-04T07:32:45.34Z</time></trkpt><trkpt lat="43.3147934" lon="12.1221611"><ele>449.20000000000005</ele><time>2026-04-04T07:32:46.34Z</time></trkpt><trkpt lat="43.3148273" lon="12.122312"><ele>451.0</ele><time>2026-04-04T07:32:47.34Z</time></trkpt><trkpt lat="43.3148807" lon="12.1224452"><ele>451.0</ele><time>2026-04-04T07:32:48.34Z</time></trkpt><trkpt lat="43.3149666" lon="12.1225837"><ele>451.0</ele><time>2026-04-04T07:32:49.34Z</time></trkpt><trkpt lat="43.3150705" lon="12.1227048"><ele>451.0</ele><time>2026-04-04T07:32:50.34Z</time></trkpt><trkpt lat="43.3151767" lon="12.1228232"><ele>451.0</ele><time>2026-04-04T07:32:51.34Z</time></trkpt><trkpt lat="43.3152848" lon="12.1229458"><ele>451.0</ele><time>2026-04-04T07:32:52.34Z</time></trkpt><trkpt lat="43.3153929" lon="12.1230705"><ele>451.0</ele><time>2026-04-04T07:32:53.34Z</time></trkpt><trkpt lat="43.3155015" lon="12.1231979"><ele>451.0</ele><time>2026-04-04T07:32:54.34Z</time></trkpt><trkpt lat="43.3156065" lon="12.1233148"><ele>451.0</ele><time>2026-04-04T07:32:55.34Z</time></trkpt><trkpt lat="43.3156939" lon="12.1234372"><ele>454.25</ele><time>2026-04-04T07:32:56.34Z</time></trkpt><trkpt lat="43.3157706" lon="12.1235638"><ele>457.5</ele><time>2026-04-04T07:32:57.34Z</time></trkpt><trkpt lat="43.3158248" lon="12.1236946"><ele>460.75</ele><time>2026-04-04T07:32:58.34Z</time></trkpt><trkpt lat="43.3158796" lon="12.1238589"><ele>464.0</ele><time>2026-04-04T07:32:59.34Z</time></trkpt><trkpt lat="43.3159323" lon="12.1240472"><ele>461.25</ele><time>2026-04-04T07:33:00.341Z</time></trkpt><trkpt lat="43.3159737" lon="12.1242361"><ele>458.5</ele><time>2026-04-04T07:33:01.34Z</time></trkpt><trkpt lat="43.3159987" lon="12.124417"><ele>455.75</ele><time>2026-04-04T07:33:02.34Z</time></trkpt><trkpt lat="43.3160195" lon="12.1245941"><ele>453.0</ele><time>2026-04-04T07:33:03.34Z</time></trkpt><trkpt lat="43.3159882" lon="12.1247814"><ele>455.5</ele><time>2026-04-04T07:33:04.34Z</time></trkpt><trkpt lat="43.3159359" lon="12.1249271"><ele>458.0</ele><time>2026-04-04T07:33:05.34Z</time></trkpt><trkpt lat="43.3158709" lon="12.1250565"><ele>460.5</ele><time>2026-04-04T07:33:06.34Z</time></trkpt><trkpt lat="43.315762" lon="12.1251327"><ele>463.0</ele><time>2026-04-04T07:33:07.34Z</time></trkpt><trkpt lat="43.3156683" lon="12.1252197"><ele>463.0</ele><time>2026-04-04T07:33:08.34Z</time></trkpt><trkpt lat="43.3155902" lon="12.1253178"><ele>462.99999999999994</ele><time>2026-04-04T07:33:09.34Z</time></trkpt><trkpt lat="43.315532" lon="12.1254402"><ele>462.99999999999994</ele><time>2026-04-04T07:33:10.341Z</time></trkpt><trkpt lat="43.3154882" lon="12.1255808"><ele>463.0</ele><time>2026-04-04T07:33:11.341Z</time></trkpt><trkpt lat="43.3154644" lon="12.1257188"><ele>463.0</ele><time>2026-04-04T07:33:12.341Z</time></trkpt><trkpt lat="43.3154755" lon="12.1258622"><ele>463.59999999999997</ele><time>2026-04-04T07:33:13.342Z</time></trkpt><trkpt lat="43.3155038" lon="12.1259834"><ele>464.19999999999993</ele><time>2026-04-04T07:33:14.342Z</time></trkpt><trkpt lat="43.3155937" lon="12.1260713"><ele>464.8</ele><time>2026-04-04T07:33:15.341Z</time></trkpt><trkpt lat="43.3156908" lon="12.126112"><ele>465.4</ele><time>2026-04-04T07:33:16.341Z</time></trkpt><trkpt lat="43.3157959" lon="12.1261293"><ele>466.0</ele><time>2026-04-04T07:33:17.341Z</time></trkpt><trkpt lat="43.3159321" lon="12.1261345"><ele>466.0</ele><time>2026-04-04T07:33:18.341Z</time></trkpt><trkpt lat="43.3160638" lon="12.1261251"><ele>466.0</ele><time>2026-04-04T07:33:19.341Z</time></trkpt><trkpt lat="43.3162025" lon="12.1261012"><ele>466.0</ele><time>2026-04-04T07:33:20.341Z</time></trkpt><trkpt lat="43.3163257" lon="12.1260462"><ele>466.0</ele><time>2026-04-04T07:33:21.341Z</time></trkpt><trkpt lat="43.3164291" lon="12.1259661"><ele>465.75</ele><time>2026-04-04T07:33:22.341Z</time></trkpt><trkpt lat="43.3165271" lon="12.1258574"><ele>465.5</ele><time>2026-04-04T07:33:23.341Z</time></trkpt><trkpt lat="43.3166147" lon="12.1257337"><ele>465.25</ele><time>2026-04-04T07:33:24.342Z</time></trkpt><trkpt lat="43.3166949" lon="12.125581"><ele>465.0</ele><time>2026-04-04T07:33:25.342Z</time></trkpt><trkpt lat="43.3167732" lon="12.1254197"><ele>468.0</ele><time>2026-04-04T07:33:26.341Z</time></trkpt><trkpt lat="43.3168606" lon="12.1252447"><ele>471.0</ele><time>2026-04-04T07:33:27.341Z</time></trkpt><trkpt lat="43.316951" lon="12.1250572"><ele>474.0</ele><time>2026-04-04T07:33:28.341Z</time></trkpt><trkpt lat="43.3170304" lon="12.1248778"><ele>475.25</ele><time>2026-04-04T07:33:29.341Z</time></trkpt><trkpt lat="43.3171029" lon="12.1247102"><ele>476.5</ele><time>2026-04-04T07:33:30.341Z</time></trkpt><trkpt lat="43.3171462" lon="12.1245495"><ele>477.75</ele><time>2026-04-04T07:33:31.342Z</time></trkpt><trkpt lat="43.3171848" lon="12.1244031"><ele>479.0</ele><time>2026-04-04T07:33:32.341Z</time></trkpt><trkpt lat="43.3172287" lon="12.1242943"><ele>481.25</ele><time>2026-04-04T07:33:33.342Z</time></trkpt><trkpt lat="43.3172866" lon="12.1242033"><ele>483.5</ele><time>2026-04-04T07:33:34.341Z</time></trkpt><trkpt lat="43.3173745" lon="12.124106"><ele>485.75</ele><time>2026-04-04T07:33:35.341Z</time></trkpt><trkpt lat="43.3174723" lon="12.1239987"><ele>488.0</ele><time>2026-04-04T07:33:36.341Z</time></trkpt><trkpt lat="43.3175582" lon="12.1238757"><ele>492.2</ele><time>2026-04-04T07:33:37.341Z</time></trkpt><trkpt lat="43.3176392" lon="12.1237592"><ele>496.4</ele><time>2026-04-04T07:33:38.341Z</time></trkpt><trkpt lat="43.3177135" lon="12.123672"><ele>500.59999999999997</ele><time>2026-04-04T07:33:39.341Z</time></trkpt><trkpt lat="43.3177942" lon="12.1236084"><ele>504.79999999999995</ele><time>2026-04-04T07:33:40.341Z</time></trkpt><trkpt lat="43.317875" lon="12.1235629"><ele>509.0</ele><time>2026-04-04T07:33:41.341Z</time></trkpt><trkpt lat="43.317952" lon="12.1235561"><ele>511.75</ele><time>2026-04-04T07:33:42.341Z</time></trkpt><trkpt lat="43.3181079" lon="12.1235927"><ele>514.5</ele><time>2026-04-04T07:33:44.341Z</time></trkpt><trkpt lat="43.3181821" lon="12.1236902"><ele>517.25</ele><time>2026-04-04T07:33:45.341Z</time></trkpt><trkpt lat="43.3182574" lon="12.1238141"><ele>520.0</ele><time>2026-04-04T07:33:46.341Z</time></trkpt><trkpt lat="43.318341" lon="12.1239565"><ele>516.5</ele><time>2026-04-04T07:33:47.341Z</time></trkpt><trkpt lat="43.3184172" lon="12.1241073"><ele>513.0</ele><time>2026-04-04T07:33:48.341Z</time></trkpt><trkpt lat="43.3184951" lon="12.1242344"><ele>509.5</ele><time>2026-04-04T07:33:49.341Z</time></trkpt><trkpt lat="43.3185705" lon="12.1243348"><ele>506.0</ele><time>2026-04-04T07:33:50.342Z</time></trkpt><trkpt lat="43.318651" lon="12.1243934"><ele>506.0</ele><time>2026-04-04T07:33:51.341Z</time></trkpt><trkpt lat="43.3187472" lon="12.1244128"><ele>506.0</ele><time>2026-04-04T07:33:52.341Z</time></trkpt><trkpt lat="43.318854" lon="12.1243894"><ele>506.0</ele><time>2026-04-04T07:33:53.341Z</time></trkpt><trkpt lat="43.3189663" lon="12.1243366"><ele>506.0</ele><time>2026-04-04T07:33:54.342Z</time></trkpt><trkpt lat="43.3190722" lon="12.1242774"><ele>506.0</ele><time>2026-04-04T07:33:55.342Z</time></trkpt><trkpt lat="43.3191731" lon="12.1242414"><ele>507.49999999999994</ele><time>2026-04-04T07:33:56.341Z</time></trkpt><trkpt lat="43.3192801" lon="12.1242267"><ele>509.0</ele><time>2026-04-04T07:33:57.342Z</time></trkpt><trkpt lat="43.3193748" lon="12.124213"><ele>510.5</ele><time>2026-04-04T07:33:58.341Z</time></trkpt><trkpt lat="43.319453" lon="12.1241846"><ele>512.0</ele><time>2026-04-04T07:33:59.341Z</time></trkpt><trkpt lat="43.3195203" lon="12.1241559"><ele>513.5</ele><time>2026-04-04T07:34:00.341Z</time></trkpt><trkpt lat="43.3195797" lon="12.1240922"><ele>515.0</ele><time>2026-04-04T07:34:01.341Z</time></trkpt><trkpt lat="43.3196087" lon="12.1239857"><ele>517.0</ele><time>2026-04-04T07:34:02.341Z</time></trkpt><trkpt lat="43.3196251" lon="12.123855"><ele>519.0</ele><time>2026-04-04T07:34:03.341Z</time></trkpt><trkpt lat="43.3196543" lon="12.1237236"><ele>521.0</ele><time>2026-04-04T07:34:04.341Z</time></trkpt><trkpt lat="43.3196771" lon="12.1235867"><ele>523.0</ele><time>2026-04-04T07:34:05.341Z</time></trkpt><trkpt lat="43.3197472" lon="12.1235168"><ele>525.0</ele><time>2026-04-04T07:34:06.343Z</time></trkpt><trkpt lat="43.3198094" lon="12.1234684"><ele>525.0</ele><time>2026-04-04T07:34:07.342Z</time></trkpt><trkpt lat="43.3198761" lon="12.1234415"><ele>525.0</ele><time>2026-04-04T07:34:08.342Z</time></trkpt><trkpt lat="43.3199605" lon="12.1234226"><ele>525.0</ele><time>2026-04-04T07:34:09.342Z</time></trkpt><trkpt lat="43.3200432" lon="12.1233922"><ele>525.0</ele><time>2026-04-04T07:34:10.342Z</time></trkpt><trkpt lat="43.3200902" lon="12.1233116"><ele>525.0</ele><time>2026-04-04T07:34:11.342Z</time></trkpt><trkpt lat="43.3201069" lon="12.1232211"><ele>525.0</ele><time>2026-04-04T07:34:12.342Z</time></trkpt><trkpt lat="43.3200699" lon="12.1231337"><ele>526.75</ele><time>2026-04-04T07:34:13.343Z</time></trkpt><trkpt lat="43.3200178" lon="12.1230256"><ele>528.5</ele><time>2026-04-04T07:34:14.342Z</time></trkpt><trkpt lat="43.3199458" lon="12.1229006"><ele>530.25</ele><time>2026-04-04T07:34:15.343Z</time></trkpt><trkpt lat="43.3198901" lon="12.1227556"><ele>532.0</ele><time>2026-04-04T07:34:16.342Z</time></trkpt><trkpt lat="43.319851" lon="12.1225974"><ele>532.0</ele><time>2026-04-04T07:34:17.342Z</time></trkpt><trkpt lat="43.3198194" lon="12.1224519"><ele>532.0</ele><time>2026-04-04T07:34:18.343Z</time></trkpt><trkpt lat="43.3197944" lon="12.1223259"><ele>532.0</ele><time>2026-04-04T07:34:19.342Z</time></trkpt><trkpt lat="43.3197566" lon="12.1222042"><ele>532.0</ele><time>2026-04-04T07:34:20.342Z</time></trkpt><trkpt lat="43.3197038" lon="12.1220934"><ele>532.0</ele><time>2026-04-04T07:34:21.342Z</time></trkpt><trkpt lat="43.3196304" lon="12.1220002"><ele>535.3333333333334</ele><time>2026-04-04T07:34:22.342Z</time></trkpt><trkpt lat="43.3195727" lon="12.1218786"><ele>538.6666666666667</ele><time>2026-04-04T07:34:23.342Z</time></trkpt><trkpt lat="43.3195353" lon="12.1217754"><ele>542.0</ele><time>2026-04-04T07:34:24.342Z</time></trkpt><trkpt lat="43.3195176" lon="12.1216584"><ele>545.3333333333334</ele><time>2026-04-04T07:34:25.342Z</time></trkpt><trkpt lat="43.3194639" lon="12.1215794"><ele>548.6666666666666</ele><time>2026-04-04T07:34:27.342Z</time></trkpt><trkpt lat="43.3194063" lon="12.1216476"><ele>552.0</ele><time>2026-04-04T07:34:30.343Z</time></trkpt><trkpt lat="43.3193407" lon="12.121717"><ele>552.0</ele><time>2026-04-04T07:34:31.342Z</time></trkpt><trkpt lat="43.3192267" lon="12.1218087"><ele>552.0</ele><time>2026-04-04T07:34:32.342Z</time></trkpt><trkpt lat="43.3190606" lon="12.1219405"><ele>552.0</ele><time>2026-04-04T07:34:33.342Z</time></trkpt><trkpt lat="43.3189562" lon="12.1220549"><ele>555.0</ele><time>2026-04-04T07:34:34.342Z</time></trkpt><trkpt lat="43.3188599" lon="12.1221461"><ele>558.0</ele><time>2026-04-04T07:34:35.342Z</time></trkpt><trkpt lat="43.3187874" lon="12.1222217"><ele>561.0</ele><time>2026-04-04T07:34:36.342Z</time></trkpt><trkpt lat="43.3187159" lon="12.1222615"><ele>564.0</ele><time>2026-04-04T07:34:37.342Z</time></trkpt><trkpt lat="43.3186413" lon="12.1223116"><ele>567.0</ele><time>2026-04-04T07:34:38.342Z</time></trkpt><trkpt lat="43.31855" lon="12.1223646"><ele>567.0</ele><time>2026-04-04T07:34:39.342Z</time></trkpt><trkpt lat="43.3184375" lon="12.122335"><ele>567.0</ele><time>2026-04-04T07:34:40.342Z</time></trkpt><trkpt lat="43.3183361" lon="12.1222698"><ele>567.0</ele><time>2026-04-04T07:34:41.342Z</time></trkpt><trkpt lat="43.3181163" lon="12.1221579"><ele>563.0</ele><time>2026-04-04T07:34:42.342Z</time></trkpt><trkpt lat="43.3180434" lon="12.1220447"><ele>559.0</ele><time>2026-04-04T07:34:43.342Z</time></trkpt><trkpt lat="43.3179882" lon="12.1219332"><ele>555.0</ele><time>2026-04-04T07:34:44.342Z</time></trkpt><trkpt lat="43.31794" lon="12.1218477"><ele>551.0</ele><time>2026-04-04T07:34:45.343Z</time></trkpt><trkpt lat="43.3178965" lon="12.1217236"><ele>547.0</ele><time>2026-04-04T07:34:47.342Z</time></trkpt><trkpt lat="43.3179449" lon="12.1216479"><ele>547.0</ele><time>2026-04-04T07:34:49.342Z</time></trkpt><trkpt lat="43.3180602" lon="12.1216798"><ele>547.0</ele><time>2026-04-04T07:34:51.342Z</time></trkpt><trkpt lat="43.3181342" lon="12.1217394"><ele>547.0</ele><time>2026-04-04T07:34:52.342Z</time></trkpt><trkpt lat="43.3182135" lon="12.1218046"><ele>547.0</ele><time>2026-04-04T07:34:53.343Z</time></trkpt><trkpt lat="43.3182766" lon="12.121861"><ele>547.0</ele><time>2026-04-04T07:34:54.342Z</time></trkpt><trkpt lat="43.3183361" lon="12.1219093"><ele>547.0</ele><time>2026-04-04T07:34:55.342Z</time></trkpt><trkpt lat="43.3184053" lon="12.1219638"><ele>550.3333333333334</ele><time>2026-04-04T07:34:56.342Z</time></trkpt><trkpt lat="43.3184694" lon="12.1219963"><ele>553.6666666666667</ele><time>2026-04-04T07:34:57.342Z</time></trkpt><trkpt lat="43.3185829" lon="12.1220353"><ele>557.0</ele><time>2026-04-04T07:34:59.342Z</time></trkpt><trkpt lat="43.3186432" lon="12.1220012"><ele>560.3333333333334</ele><time>2026-04-04T07:35:01.342Z</time></trkpt><trkpt lat="43.3185577" lon="12.1219571"><ele>563.6666666666666</ele><time>2026-04-04T07:35:03.343Z</time></trkpt><trkpt lat="43.318468" lon="12.1219201"><ele>567.0</ele><time>2026-04-04T07:35:04.343Z</time></trkpt><trkpt lat="43.3183875" lon="12.1218688"><ele>567.0</ele><time>2026-04-04T07:35:05.342Z</time></trkpt><trkpt lat="43.318273" lon="12.1217302"><ele>567.0</ele><time>2026-04-04T07:35:07.342Z</time></trkpt><trkpt lat="43.3182246" lon="12.1216586"><ele>567.0</ele><time>2026-04-04T07:35:09.346Z</time></trkpt><trkpt lat="43.3181659" lon="12.1215698"><ele>567.0</ele><time>2026-04-04T07:38:41.347Z</time></trkpt><trkpt lat="43.3181087" lon="12.1214342"><ele>567.0</ele><time>2026-04-04T07:38:43.346Z</time></trkpt><trkpt lat="43.3180663" lon="12.1212911"><ele>566.1666666666666</ele><time>2026-04-04T07:38:45.346Z</time></trkpt><trkpt lat="43.3180189" lon="12.1211355"><ele>565.3333333333334</ele><time>2026-04-04T07:38:47.346Z</time></trkpt><trkpt lat="43.3179852" lon="12.1210578"><ele>564.5</ele><time>2026-04-04T07:38:48.346Z</time></trkpt><trkpt lat="43.3179448" lon="12.1209773"><ele>563.6666666666667</ele><time>2026-04-04T07:38:49.346Z</time></trkpt><trkpt lat="43.3179039" lon="12.1208832"><ele>562.8333333333334</ele><time>2026-04-04T07:38:50.346Z</time></trkpt><trkpt lat="43.3178695" lon="12.1207854"><ele>562.0</ele><time>2026-04-04T07:38:51.346Z</time></trkpt><trkpt lat="43.3178444" lon="12.120675"><ele>562.0</ele><time>2026-04-04T07:38:52.346Z</time></trkpt><trkpt lat="43.3178309" lon="12.1205561"><ele>562.0</ele><time>2026-04-04T07:38:53.346Z</time></trkpt><trkpt lat="43.3178358" lon="12.1204172"><ele>562.0</ele><time>2026-04-04T07:38:54.346Z</time></trkpt><trkpt lat="43.3178474" lon="12.1202786"><ele>562.0</ele><time>2026-04-04T07:38:55.346Z</time></trkpt><trkpt lat="43.3178657" lon="12.1201421"><ele>562.0</ele><time>2026-04-04T07:38:56.346Z</time></trkpt><trkpt lat="43.3178914" lon="12.1199993"><ele>562.8000000000001</ele><time>2026-04-04T07:38:57.346Z</time></trkpt><trkpt lat="43.3179263" lon="12.1198792"><ele>563.6</ele><time>2026-04-04T07:38:58.346Z</time></trkpt><trkpt lat="43.3179658" lon="12.1197592"><ele>564.4000000000001</ele><time>2026-04-04T07:38:59.347Z</time></trkpt><trkpt lat="43.3180082" lon="12.1196523"><ele>565.2</ele><time>2026-04-04T07:39:00.346Z</time></trkpt><trkpt lat="43.3180625" lon="12.1195466"><ele>566.0</ele><time>2026-04-04T07:39:01.347Z</time></trkpt><trkpt lat="43.3181339" lon="12.1194453"><ele>570.4</ele><time>2026-04-04T07:39:02.346Z</time></trkpt><trkpt lat="43.3182115" lon="12.1193496"><ele>574.8</ele><time>2026-04-04T07:39:03.346Z</time></trkpt><trkpt lat="43.3182872" lon="12.1192561"><ele>579.1999999999999</ele><time>2026-04-04T07:39:04.346Z</time></trkpt><trkpt lat="43.3183565" lon="12.1191714"><ele>583.6</ele><time>2026-04-04T07:39:05.346Z</time></trkpt><trkpt lat="43.3184306" lon="12.1191009"><ele>588.0</ele><time>2026-04-04T07:39:06.346Z</time></trkpt><trkpt lat="43.3184995" lon="12.1190416"><ele>590.3333333333334</ele><time>2026-04-04T07:39:07.346Z</time></trkpt><trkpt lat="43.3185622" lon="12.1189879"><ele>592.6666666666666</ele><time>2026-04-04T07:39:08.346Z</time></trkpt><trkpt lat="43.3186047" lon="12.1189236"><ele>595.0</ele><time>2026-04-04T07:39:09.346Z</time></trkpt><trkpt lat="43.3186115" lon="12.1187695"><ele>597.3333333333333</ele><time>2026-04-04T07:39:11.346Z</time></trkpt><trkpt lat="43.3185877" lon="12.118683"><ele>599.6666666666666</ele><time>2026-04-04T07:39:12.346Z</time></trkpt><trkpt lat="43.3185438" lon="12.1185886"><ele>602.0</ele><time>2026-04-04T07:39:13.346Z</time></trkpt><trkpt lat="43.31847" lon="12.1185176"><ele>602.0</ele><time>2026-04-04T07:39:14.346Z</time></trkpt><trkpt lat="43.3183983" lon="12.1184471"><ele>602.0</ele><time>2026-04-04T07:39:15.346Z</time></trkpt><trkpt lat="43.318303" lon="12.1183892"><ele>602.0</ele><time>2026-04-04T07:39:16.346Z</time></trkpt><trkpt lat="43.3182026" lon="12.1183297"><ele>602.0</ele><time>2026-04-04T07:39:17.347Z</time></trkpt><trkpt lat="43.318104" lon="12.1182853"><ele>602.0</ele><time>2026-04-04T07:39:18.346Z</time></trkpt><trkpt lat="43.3180112" lon="12.1182701"><ele>599.0</ele><time>2026-04-04T07:39:19.347Z</time></trkpt><trkpt lat="43.3179327" lon="12.1183068"><ele>596.0</ele><time>2026-04-04T07:39:20.346Z</time></trkpt><trkpt lat="43.3178425" lon="12.1183432"><ele>593.0</ele><time>2026-04-04T07:39:21.346Z</time></trkpt><trkpt lat="43.3177485" lon="12.1183551"><ele>590.0</ele><time>2026-04-04T07:39:22.346Z</time></trkpt><trkpt lat="43.3176609" lon="12.1183527"><ele>587.0</ele><time>2026-04-04T07:39:23.347Z</time></trkpt><trkpt lat="43.3175726" lon="12.1183197"><ele>587.0</ele><time>2026-04-04T07:39:24.347Z</time></trkpt><trkpt lat="43.3174933" lon="12.1182807"><ele>587.0</ele><time>2026-04-04T07:39:25.347Z</time></trkpt><trkpt lat="43.3174204" lon="12.1182209"><ele>587.0</ele><time>2026-04-04T07:39:26.347Z</time></trkpt><trkpt lat="43.3173601" lon="12.1181399"><ele>587.0</ele><time>2026-04-04T07:39:27.347Z</time></trkpt><trkpt lat="43.317315" lon="12.1180293"><ele>587.0</ele><time>2026-04-04T07:39:28.347Z</time></trkpt><trkpt lat="43.3172792" lon="12.1179103"><ele>587.0</ele><time>2026-04-04T07:39:29.347Z</time></trkpt><trkpt lat="43.3172636" lon="12.1177869"><ele>590.0</ele><time>2026-04-04T07:39:30.348Z</time></trkpt><trkpt lat="43.31727" lon="12.1176566"><ele>593.0</ele><time>2026-04-04T07:39:31.347Z</time></trkpt><trkpt lat="43.3172942" lon="12.1175108"><ele>596.0</ele><time>2026-04-04T07:39:32.347Z</time></trkpt><trkpt lat="43.3173282" lon="12.1173602"><ele>599.0</ele><time>2026-04-04T07:39:33.347Z</time></trkpt><trkpt lat="43.3173528" lon="12.1172197"><ele>602.0</ele><time>2026-04-04T07:39:34.347Z</time></trkpt><trkpt lat="43.3173645" lon="12.1170867"><ele>604.8000000000001</ele><time>2026-04-04T07:39:35.347Z</time></trkpt><trkpt lat="43.3173586" lon="12.1169592"><ele>607.6</ele><time>2026-04-04T07:39:36.348Z</time></trkpt><trkpt lat="43.3173396" lon="12.1168325"><ele>610.4000000000001</ele><time>2026-04-04T07:39:37.347Z</time></trkpt><trkpt lat="43.3173102" lon="12.1166973"><ele>613.2</ele><time>2026-04-04T07:39:38.347Z</time></trkpt><trkpt lat="43.3172725" lon="12.1165626"><ele>616.0</ele><time>2026-04-04T07:39:39.347Z</time></trkpt><trkpt lat="43.3172341" lon="12.1164466"><ele>611.1666666666667</ele><time>2026-04-04T07:39:40.347Z</time></trkpt><trkpt lat="43.3171949" lon="12.1163406"><ele>606.3333333333334</ele><time>2026-04-04T07:39:41.347Z</time></trkpt><trkpt lat="43.3171455" lon="12.1162469"><ele>601.5</ele><time>2026-04-04T07:39:42.348Z</time></trkpt><trkpt lat="43.317097" lon="12.116155"><ele>596.6666666666666</ele><time>2026-04-04T07:39:43.347Z</time></trkpt><trkpt lat="43.3170531" lon="12.1160638"><ele>591.8333333333333</ele><time>2026-04-04T07:39:44.348Z</time></trkpt><trkpt lat="43.3170232" lon="12.1159813"><ele>587.0</ele><time>2026-04-04T07:39:45.348Z</time></trkpt><trkpt lat="43.3169971" lon="12.1158994"><ele>587.0</ele><time>2026-04-04T07:39:46.348Z</time></trkpt><trkpt lat="43.3169754" lon="12.1158016"><ele>587.0</ele><time>2026-04-04T07:39:47.347Z</time></trkpt><trkpt lat="43.3169609" lon="12.1156888"><ele>587.0</ele><time>2026-04-04T07:39:48.347Z</time></trkpt><trkpt lat="43.3169657" lon="12.1155562"><ele>587.0</ele><time>2026-04-04T07:39:49.347Z</time></trkpt><trkpt lat="43.3169924" lon="12.1154352"><ele>587.0</ele><time>2026-04-04T07:39:50.347Z</time></trkpt><trkpt lat="43.3170303" lon="12.1153218"><ele>587.0</ele><time>2026-04-04T07:39:51.347Z</time></trkpt><trkpt lat="43.317084" lon="12.1152285"><ele>588.2</ele><time>2026-04-04T07:39:52.347Z</time></trkpt><trkpt lat="43.3171494" lon="12.1151311"><ele>589.4000000000001</ele><time>2026-04-04T07:39:53.347Z</time></trkpt><trkpt lat="43.3172072" lon="12.1150292"><ele>590.5999999999999</ele><time>2026-04-04T07:39:54.347Z</time></trkpt><trkpt lat="43.3172644" lon="12.1149323"><ele>591.8</ele><time>2026-04-04T07:39:55.347Z</time></trkpt><trkpt lat="43.3173048" lon="12.1148299"><ele>593.0</ele><time>2026-04-04T07:39:56.348Z</time></trkpt><trkpt lat="43.3173249" lon="12.114712"><ele>597.0</ele><time>2026-04-04T07:39:57.348Z</time></trkpt><trkpt lat="43.3173232" lon="12.1145835"><ele>601.0</ele><time>2026-04-04T07:39:58.347Z</time></trkpt><trkpt lat="43.3173035" lon="12.1144463"><ele>605.0</ele><time>2026-04-04T07:39:59.347Z</time></trkpt><trkpt lat="43.317257" lon="12.1143261"><ele>609.0</ele><time>2026-04-04T07:40:00.347Z</time></trkpt><trkpt lat="43.3171901" lon="12.114204"><ele>613.0</ele><time>2026-04-04T07:40:01.347Z</time></trkpt><trkpt lat="43.3171247" lon="12.1140894"><ele>619.6666666666667</ele><time>2026-04-04T07:40:02.347Z</time></trkpt><trkpt lat="43.3170676" lon="12.1139901"><ele>626.3333333333334</ele><time>2026-04-04T07:40:03.347Z</time></trkpt><trkpt lat="43.3170134" lon="12.1138824"><ele>633.0</ele><time>2026-04-04T07:40:04.347Z</time></trkpt><trkpt lat="43.3169601" lon="12.1137895"><ele>639.6666666666666</ele><time>2026-04-04T07:40:05.347Z</time></trkpt><trkpt lat="43.3168991" lon="12.1137279"><ele>646.3333333333333</ele><time>2026-04-04T07:40:06.347Z</time></trkpt><trkpt lat="43.3168221" lon="12.1136896"><ele>653.0</ele><time>2026-04-04T07:40:07.347Z</time></trkpt><trkpt lat="43.3167406" lon="12.1136968"><ele>653.0</ele><time>2026-04-04T07:40:08.348Z</time></trkpt><trkpt lat="43.3166659" lon="12.1137422"><ele>653.0</ele><time>2026-04-04T07:40:09.347Z</time></trkpt><trkpt lat="43.3165878" lon="12.1137976"><ele>653.0</ele><time>2026-04-04T07:40:10.347Z</time></trkpt><trkpt lat="43.3165052" lon="12.1138751"><ele>653.0</ele><time>2026-04-04T07:40:11.347Z</time></trkpt><trkpt lat="43.3164195" lon="12.113951"><ele>653.0</ele><time>2026-04-04T07:40:12.348Z</time></trkpt><trkpt lat="43.3163317" lon="12.1140214"><ele>648.1999999999999</ele><time>2026-04-04T07:40:13.347Z</time></trkpt><trkpt lat="43.3162429" lon="12.1140842"><ele>643.4</ele><time>2026-04-04T07:40:14.347Z</time></trkpt><trkpt lat="43.316156" lon="12.1141612"><ele>638.5999999999999</ele><time>2026-04-04T07:40:15.347Z</time></trkpt><trkpt lat="43.3160681" lon="12.1141994"><ele>633.8</ele><time>2026-04-04T07:40:16.347Z</time></trkpt><trkpt lat="43.3159815" lon="12.1142262"><ele>629.0</ele><time>2026-04-04T07:40:17.347Z</time></trkpt><trkpt lat="43.3158879" lon="12.114252"><ele>629.0</ele><time>2026-04-04T07:40:18.347Z</time></trkpt><trkpt lat="43.3157924" lon="12.1142849"><ele>629.0</ele><time>2026-04-04T07:40:19.347Z</time></trkpt><trkpt lat="43.3156944" lon="12.1143104"><ele>629.0</ele><time>2026-04-04T07:40:20.347Z</time></trkpt><trkpt lat="43.3155954" lon="12.1143329"><ele>629.0</ele><time>2026-04-04T07:40:21.347Z</time></trkpt><trkpt lat="43.3154985" lon="12.1143547"><ele>629.0</ele><time>2026-04-04T07:40:22.347Z</time></trkpt><trkpt lat="43.3154013" lon="12.114372"><ele>627.6</ele><time>2026-04-04T07:40:23.347Z</time></trkpt><trkpt lat="43.3152996" lon="12.1143791"><ele>626.2</ele><time>2026-04-04T07:40:24.348Z</time></trkpt><trkpt lat="43.3151983" lon="12.1143454"><ele>624.8000000000001</ele><time>2026-04-04T07:40:25.347Z</time></trkpt><trkpt lat="43.3151043" lon="12.1142823"><ele>623.4</ele><time>2026-04-04T07:40:26.347Z</time></trkpt><trkpt lat="43.3150437" lon="12.1141999"><ele>622.0</ele><time>2026-04-04T07:40:27.348Z</time></trkpt><trkpt lat="43.3149895" lon="12.1141253"><ele>624.6</ele><time>2026-04-04T07:40:28.349Z</time></trkpt><trkpt lat="43.3149409" lon="12.1140238"><ele>627.2</ele><time>2026-04-04T07:40:29.349Z</time></trkpt><trkpt lat="43.3148989" lon="12.1139046"><ele>629.8</ele><time>2026-04-04T07:40:30.348Z</time></trkpt><trkpt lat="43.3148623" lon="12.1137273"><ele>632.4</ele><time>2026-04-04T07:40:31.348Z</time></trkpt><trkpt lat="43.314828" lon="12.1135757"><ele>635.0</ele><time>2026-04-04T07:40:32.348Z</time></trkpt><trkpt lat="43.3147908" lon="12.1134275"><ele>635.0</ele><time>2026-04-04T07:40:33.348Z</time></trkpt><trkpt lat="43.3147583" lon="12.1132797"><ele>635.0</ele><time>2026-04-04T07:40:34.348Z</time></trkpt><trkpt lat="43.3147285" lon="12.1131292"><ele>635.0</ele><time>2026-04-04T07:40:35.348Z</time></trkpt><trkpt lat="43.314707" lon="12.112982"><ele>635.0</ele><time>2026-04-04T07:40:36.349Z</time></trkpt><trkpt lat="43.3147052" lon="12.1128344"><ele>635.0</ele><time>2026-04-04T07:40:37.349Z</time></trkpt><trkpt lat="43.3147203" lon="12.1126831"><ele>636.75</ele><time>2026-04-04T07:40:38.348Z</time></trkpt><trkpt lat="43.3147432" lon="12.1125269"><ele>638.5</ele><time>2026-04-04T07:40:39.348Z</time></trkpt><trkpt lat="43.3147706" lon="12.1123602"><ele>640.25</ele><time>2026-04-04T07:40:40.348Z</time></trkpt><trkpt lat="43.3147885" lon="12.112198"><ele>642.0</ele><time>2026-04-04T07:40:41.348Z</time></trkpt><trkpt lat="43.314792" lon="12.1120399"><ele>643.6</ele><time>2026-04-04T07:40:42.348Z</time></trkpt><trkpt lat="43.3147896" lon="12.1119101"><ele>645.2</ele><time>2026-04-04T07:40:43.348Z</time></trkpt><trkpt lat="43.3148011" lon="12.1117827"><ele>646.8</ele><time>2026-04-04T07:40:44.348Z</time></trkpt><trkpt lat="43.3148286" lon="12.1116524"><ele>648.4</ele><time>2026-04-04T07:40:45.349Z</time></trkpt><trkpt lat="43.3148572" lon="12.1115261"><ele>650.0</ele><time>2026-04-04T07:40:46.348Z</time></trkpt><trkpt lat="43.3148704" lon="12.1113946"><ele>648.1666666666666</ele><time>2026-04-04T07:40:47.349Z</time></trkpt><trkpt lat="43.3148621" lon="12.1112791"><ele>646.3333333333333</ele><time>2026-04-04T07:40:48.348Z</time></trkpt><trkpt lat="43.314831" lon="12.1111711"><ele>644.5</ele><time>2026-04-04T07:40:49.348Z</time></trkpt><trkpt lat="43.3147979" lon="12.1110465"><ele>642.6666666666666</ele><time>2026-04-04T07:40:50.348Z</time></trkpt><trkpt lat="43.3147477" lon="12.1109656"><ele>640.8333333333334</ele><time>2026-04-04T07:40:51.349Z</time></trkpt><trkpt lat="43.3146671" lon="12.1108945"><ele>639.0</ele><time>2026-04-04T07:40:52.348Z</time></trkpt><trkpt lat="43.3145769" lon="12.1107588"><ele>648.0</ele><time>2026-04-04T07:40:53.348Z</time></trkpt><trkpt lat="43.3144993" lon="12.1106237"><ele>657.0</ele><time>2026-04-04T07:40:54.348Z</time></trkpt><trkpt lat="43.3144049" lon="12.110508"><ele>666.0</ele><time>2026-04-04T07:40:55.349Z</time></trkpt><trkpt lat="43.3142729" lon="12.1104266"><ele>675.0</ele><time>2026-04-04T07:40:56.349Z</time></trkpt><trkpt lat="43.31411" lon="12.1104345"><ele>675.0</ele><time>2026-04-04T07:40:57.348Z</time></trkpt><trkpt lat="43.3139799" lon="12.1104189"><ele>675.0</ele><time>2026-04-04T07:40:58.348Z</time></trkpt><trkpt lat="43.3138568" lon="12.1103853"><ele>675.0</ele><time>2026-04-04T07:40:59.349Z</time></trkpt><trkpt lat="43.3137634" lon="12.1103223"><ele>675.0</ele><time>2026-04-04T07:41:00.348Z</time></trkpt><trkpt lat="43.3136875" lon="12.1102269"><ele>677.6</ele><time>2026-04-04T07:41:01.348Z</time></trkpt><trkpt lat="43.3136378" lon="12.1101228"><ele>680.2</ele><time>2026-04-04T07:41:02.348Z</time></trkpt><trkpt lat="43.3135923" lon="12.1100132"><ele>682.8</ele><time>2026-04-04T07:41:03.348Z</time></trkpt><trkpt lat="43.3135469" lon="12.1098965"><ele>685.4</ele><time>2026-04-04T07:41:04.348Z</time></trkpt><trkpt lat="43.3134897" lon="12.1098139"><ele>688.0</ele><time>2026-04-04T07:41:05.348Z</time></trkpt><trkpt lat="43.3134094" lon="12.1097481"><ele>688.0</ele><time>2026-04-04T07:41:06.348Z</time></trkpt><trkpt lat="43.3133061" lon="12.1097321"><ele>688.0</ele><time>2026-04-04T07:41:07.348Z</time></trkpt><trkpt lat="43.3131878" lon="12.1097149"><ele>688.0</ele><time>2026-04-04T07:41:08.348Z</time></trkpt><trkpt lat="43.3130564" lon="12.1096762"><ele>688.0</ele><time>2026-04-04T07:41:09.348Z</time></trkpt><trkpt lat="43.3129408" lon="12.1096088"><ele>683.4</ele><time>2026-04-04T07:41:10.348Z</time></trkpt><trkpt lat="43.3128483" lon="12.1095353"><ele>678.8</ele><time>2026-04-04T07:41:11.348Z</time></trkpt><trkpt lat="43.3127604" lon="12.1094661"><ele>674.2</ele><time>2026-04-04T07:41:12.348Z</time></trkpt><trkpt lat="43.3126738" lon="12.1094069"><ele>669.6</ele><time>2026-04-04T07:41:13.348Z</time></trkpt><trkpt lat="43.3125911" lon="12.1093637"><ele>665.0</ele><time>2026-04-04T07:41:14.348Z</time></trkpt><trkpt lat="43.3125072" lon="12.1093366"><ele>665.0</ele><time>2026-04-04T07:41:15.348Z</time></trkpt><trkpt lat="43.3124245" lon="12.1093275"><ele>665.0</ele><time>2026-04-04T07:41:16.348Z</time></trkpt><trkpt lat="43.3123331" lon="12.1093073"><ele>665.0</ele><time>2026-04-04T07:41:17.348Z</time></trkpt><trkpt lat="43.3122432" lon="12.1092664"><ele>665.0</ele><time>2026-04-04T07:41:18.348Z</time></trkpt><trkpt lat="43.312148" lon="12.1091999"><ele>665.0</ele><time>2026-04-04T07:41:19.348Z</time></trkpt><trkpt lat="43.3120591" lon="12.1091111"><ele>659.0</ele><time>2026-04-04T07:41:20.348Z</time></trkpt><trkpt lat="43.3119876" lon="12.1089988"><ele>653.0</ele><time>2026-04-04T07:41:21.349Z</time></trkpt><trkpt lat="43.3119344" lon="12.1088635"><ele>647.0</ele><time>2026-04-04T07:41:22.349Z</time></trkpt><trkpt lat="43.3118994" lon="12.1087"><ele>641.0</ele><time>2026-04-04T07:41:23.348Z</time></trkpt><trkpt lat="43.3118825" lon="12.1085151"><ele>641.0</ele><time>2026-04-04T07:41:24.348Z</time></trkpt><trkpt lat="43.3118731" lon="12.1083166"><ele>641.0</ele><time>2026-04-04T07:41:25.348Z</time></trkpt><trkpt lat="43.3118688" lon="12.1081236"><ele>641.0</ele><time>2026-04-04T07:41:26.348Z</time></trkpt><trkpt lat="43.3118841" lon="12.1079304"><ele>641.0</ele><time>2026-04-04T07:41:27.348Z</time></trkpt><trkpt lat="43.3119294" lon="12.107721"><ele>643.8</ele><time>2026-04-04T07:41:28.348Z</time></trkpt><trkpt lat="43.3119813" lon="12.1075168"><ele>646.5999999999999</ele><time>2026-04-04T07:41:29.348Z</time></trkpt><trkpt lat="43.3120097" lon="12.1073544"><ele>649.4</ele><time>2026-04-04T07:41:30.349Z</time></trkpt><trkpt lat="43.3120355" lon="12.1072427"><ele>652.2</ele><time>2026-04-04T07:41:31.348Z</time></trkpt><trkpt lat="43.3120152" lon="12.1071431"><ele>655.0</ele><time>2026-04-04T07:41:32.349Z</time></trkpt><trkpt lat="43.311966" lon="12.1070218"><ele>660.5</ele><time>2026-04-04T07:41:33.349Z</time></trkpt><trkpt lat="43.3118824" lon="12.1069671"><ele>666.0</ele><time>2026-04-04T07:41:34.349Z</time></trkpt><trkpt lat="43.3117592" lon="12.1069663"><ele>671.5</ele><time>2026-04-04T07:41:35.349Z</time></trkpt><trkpt lat="43.3116029" lon="12.107003"><ele>677.0</ele><time>2026-04-04T07:41:36.35Z</time></trkpt><trkpt lat="43.3114816" lon="12.1069804"><ele>673.5</ele><time>2026-04-04T07:41:37.349Z</time></trkpt><trkpt lat="43.3113736" lon="12.1069282"><ele>670.0</ele><time>2026-04-04T07:41:38.349Z</time></trkpt><trkpt lat="43.3112805" lon="12.1068379"><ele>666.5</ele><time>2026-04-04T07:41:39.349Z</time></trkpt><trkpt lat="43.3112122" lon="12.1067322"><ele>663.0</ele><time>2026-04-04T07:41:40.349Z</time></trkpt><trkpt lat="43.311151" lon="12.1065748"><ele>663.0</ele><time>2026-04-04T07:41:41.349Z</time></trkpt><trkpt lat="43.3111278" lon="12.1063716"><ele>663.0</ele><time>2026-04-04T07:41:42.349Z</time></trkpt><trkpt lat="43.3111257" lon="12.1061678"><ele>663.0</ele><time>2026-04-04T07:41:43.35Z</time></trkpt><trkpt lat="43.3111342" lon="12.1059471"><ele>665.0</ele><time>2026-04-04T07:41:44.349Z</time></trkpt><trkpt lat="43.3111463" lon="12.1057275"><ele>667.0</ele><time>2026-04-04T07:41:45.349Z</time></trkpt><trkpt lat="43.3111688" lon="12.1055191"><ele>669.0</ele><time>2026-04-04T07:41:46.349Z</time></trkpt><trkpt lat="43.3112044" lon="12.1053321"><ele>669.0</ele><time>2026-04-04T07:41:47.349Z</time></trkpt><trkpt lat="43.3112573" lon="12.1051362"><ele>669.0</ele><time>2026-04-04T07:41:48.349Z</time></trkpt><trkpt lat="43.3112781" lon="12.1049626"><ele>669.0</ele><time>2026-04-04T07:41:49.349Z</time></trkpt><trkpt lat="43.3112577" lon="12.1048168"><ele>669.0</ele><time>2026-04-04T07:41:50.349Z</time></trkpt><trkpt lat="43.3111973" lon="12.1046731"><ele>670.75</ele><time>2026-04-04T07:41:51.349Z</time></trkpt><trkpt lat="43.3111131" lon="12.104542"><ele>672.5</ele><time>2026-04-04T07:41:52.349Z</time></trkpt><trkpt lat="43.3109959" lon="12.1044227"><ele>674.25</ele><time>2026-04-04T07:41:53.349Z</time></trkpt><trkpt lat="43.3108699" lon="12.1042942"><ele>676.0</ele><time>2026-04-04T07:41:54.349Z</time></trkpt><trkpt lat="43.3107721" lon="12.1041709"><ele>675.8</ele><time>2026-04-04T07:41:55.349Z</time></trkpt><trkpt lat="43.310693" lon="12.1040398"><ele>675.5999999999999</ele><time>2026-04-04T07:41:56.349Z</time></trkpt><trkpt lat="43.310654" lon="12.1039016"><ele>675.4</ele><time>2026-04-04T07:41:57.349Z</time></trkpt><trkpt lat="43.3106671" lon="12.1037824"><ele>675.2</ele><time>2026-04-04T07:41:58.349Z</time></trkpt><trkpt lat="43.3106896" lon="12.1036572"><ele>675.0</ele><time>2026-04-04T07:41:59.349Z</time></trkpt><trkpt lat="43.3107248" lon="12.1035494"><ele>675.0</ele><time>2026-04-04T07:42:00.349Z</time></trkpt><trkpt lat="43.3107895" lon="12.1034598"><ele>675.0</ele><time>2026-04-04T07:42:01.35Z</time></trkpt><trkpt lat="43.3108704" lon="12.1033876"><ele>675.0</ele><time>2026-04-04T07:42:02.349Z</time></trkpt><trkpt lat="43.3109587" lon="12.1033175"><ele>675.0</ele><time>2026-04-04T07:42:03.349Z</time></trkpt><trkpt lat="43.3110898" lon="12.1032422"><ele>675.0</ele><time>2026-04-04T07:42:04.349Z</time></trkpt><trkpt lat="43.3112295" lon="12.1031347"><ele>677.3333333333334</ele><time>2026-04-04T07:42:05.349Z</time></trkpt><trkpt lat="43.3113531" lon="12.1029842"><ele>679.6666666666667</ele><time>2026-04-04T07:42:06.349Z</time></trkpt><trkpt lat="43.3114546" lon="12.1028276"><ele>682.0</ele><time>2026-04-04T07:42:07.349Z</time></trkpt><trkpt lat="43.3115373" lon="12.1026529"><ele>682.0</ele><time>2026-04-04T07:42:08.35Z</time></trkpt><trkpt lat="43.3117587" lon="12.1024588"><ele>682.0</ele><time>2026-04-04T07:42:09.349Z</time></trkpt><trkpt lat="43.3118499" lon="12.1023208"><ele>682.0</ele><time>2026-04-04T07:42:10.349Z</time></trkpt><trkpt lat="43.3119207" lon="12.1021801"><ele>682.25</ele><time>2026-04-04T07:42:11.349Z</time></trkpt><trkpt lat="43.3119799" lon="12.1020384"><ele>682.5</ele><time>2026-04-04T07:42:12.35Z</time></trkpt><trkpt lat="43.312033" lon="12.1019051"><ele>682.75</ele><time>2026-04-04T07:42:13.349Z</time></trkpt><trkpt lat="43.312059" lon="12.1017517"><ele>683.0</ele><time>2026-04-04T07:42:14.35Z</time></trkpt><trkpt lat="43.3120787" lon="12.1015842"><ele>684.5</ele><time>2026-04-04T07:42:15.35Z</time></trkpt><trkpt lat="43.312076" lon="12.1013948"><ele>686.0</ele><time>2026-04-04T07:42:16.349Z</time></trkpt><trkpt lat="43.3120545" lon="12.1011825"><ele>687.5</ele><time>2026-04-04T07:42:17.349Z</time></trkpt><trkpt lat="43.3120291" lon="12.1009755"><ele>689.0</ele><time>2026-04-04T07:42:18.349Z</time></trkpt><trkpt lat="43.3120196" lon="12.1007763"><ele>689.0</ele><time>2026-04-04T07:42:19.349Z</time></trkpt><trkpt lat="43.3120345" lon="12.1005966"><ele>689.0</ele><time>2026-04-04T07:42:20.349Z</time></trkpt><trkpt lat="43.3120555" lon="12.1004288"><ele>689.0</ele><time>2026-04-04T07:42:21.349Z</time></trkpt><trkpt lat="43.3120745" lon="12.1002741"><ele>689.0</ele><time>2026-04-04T07:42:22.35Z</time></trkpt><trkpt lat="43.3120922" lon="12.1001061"><ele>689.0</ele><time>2026-04-04T07:42:23.349Z</time></trkpt><trkpt lat="43.3121055" lon="12.099931"><ele>689.0</ele><time>2026-04-04T07:42:24.35Z</time></trkpt><trkpt lat="43.3120976" lon="12.0997446"><ele>689.0</ele><time>2026-04-04T07:42:25.349Z</time></trkpt><trkpt lat="43.3120771" lon="12.0995547"><ele>689.0</ele><time>2026-04-04T07:42:26.35Z</time></trkpt><trkpt lat="43.3120507" lon="12.0993695"><ele>688.25</ele><time>2026-04-04T07:42:27.35Z</time></trkpt><trkpt lat="43.3120009" lon="12.099173"><ele>687.5</ele><time>2026-04-04T07:42:28.349Z</time></trkpt><trkpt lat="43.3119503" lon="12.0989893"><ele>686.75</ele><time>2026-04-04T07:42:29.349Z</time></trkpt><trkpt lat="43.3118983" lon="12.098809"><ele>686.0</ele><time>2026-04-04T07:42:30.349Z</time></trkpt><trkpt lat="43.3118354" lon="12.0986568"><ele>685.0</ele><time>2026-04-04T07:42:31.349Z</time></trkpt><trkpt lat="43.3117488" lon="12.0985146"><ele>684.0</ele><time>2026-04-04T07:42:32.35Z</time></trkpt><trkpt lat="43.3116573" lon="12.0983794"><ele>683.0</ele><time>2026-04-04T07:42:33.349Z</time></trkpt><trkpt lat="43.3115562" lon="12.0982567"><ele>682.0</ele><time>2026-04-04T07:42:34.349Z</time></trkpt><trkpt lat="43.3114789" lon="12.0981473"><ele>681.8</ele><time>2026-04-04T07:42:35.349Z</time></trkpt><trkpt lat="43.3114153" lon="12.0980197"><ele>681.6</ele><time>2026-04-04T07:42:36.35Z</time></trkpt><trkpt lat="43.311371" lon="12.0978929"><ele>681.4</ele><time>2026-04-04T07:42:37.35Z</time></trkpt><trkpt lat="43.3113486" lon="12.0977688"><ele>681.1999999999999</ele><time>2026-04-04T07:42:38.351Z</time></trkpt><trkpt lat="43.311358" lon="12.097656"><ele>681.0</ele><time>2026-04-04T07:42:39.35Z</time></trkpt><trkpt lat="43.3114107" lon="12.0975311"><ele>682.25</ele><time>2026-04-04T07:42:40.351Z</time></trkpt><trkpt lat="43.3114778" lon="12.0973682"><ele>683.5</ele><time>2026-04-04T07:42:41.351Z</time></trkpt><trkpt lat="43.3115263" lon="12.0972021"><ele>684.75</ele><time>2026-04-04T07:42:42.351Z</time></trkpt><trkpt lat="43.3115393" lon="12.0970384"><ele>686.0</ele><time>2026-04-04T07:42:43.35Z</time></trkpt><trkpt lat="43.311515" lon="12.0968646"><ele>686.0</ele><time>2026-04-04T07:42:44.351Z</time></trkpt><trkpt lat="43.3114611" lon="12.0966948"><ele>686.0</ele><time>2026-04-04T07:42:45.35Z</time></trkpt><trkpt lat="43.3113759" lon="12.0965216"><ele>686.0</ele><time>2026-04-04T07:42:46.351Z</time></trkpt><trkpt lat="43.3112828" lon="12.0963543"><ele>686.0</ele><time>2026-04-04T07:42:47.35Z</time></trkpt><trkpt lat="43.3111657" lon="12.0961859"><ele>688.3333333333333</ele><time>2026-04-04T07:42:48.35Z</time></trkpt><trkpt lat="43.3110479" lon="12.0960272"><ele>690.6666666666666</ele><time>2026-04-04T07:42:49.35Z</time></trkpt><trkpt lat="43.3109376" lon="12.0958789"><ele>693.0</ele><time>2026-04-04T07:42:50.35Z</time></trkpt><trkpt lat="43.3108239" lon="12.0957262"><ele>693.0</ele><time>2026-04-04T07:42:51.35Z</time></trkpt><trkpt lat="43.3107139" lon="12.09556"><ele>693.0</ele><time>2026-04-04T07:42:52.35Z</time></trkpt><trkpt lat="43.3106211" lon="12.0954055"><ele>693.0</ele><time>2026-04-04T07:42:53.35Z</time></trkpt><trkpt lat="43.3105416" lon="12.09525"><ele>693.0</ele><time>2026-04-04T07:42:54.35Z</time></trkpt><trkpt lat="43.3104489" lon="12.0950955"><ele>688.25</ele><time>2026-04-04T07:42:55.35Z</time></trkpt><trkpt lat="43.3103419" lon="12.0949541"><ele>683.5</ele><time>2026-04-04T07:42:56.35Z</time></trkpt><trkpt lat="43.3102286" lon="12.0948266"><ele>678.75</ele><time>2026-04-04T07:42:57.351Z</time></trkpt><trkpt lat="43.3101239" lon="12.0947114"><ele>674.0</ele><time>2026-04-04T07:42:58.35Z</time></trkpt><trkpt lat="43.3100256" lon="12.0945929"><ele>674.0</ele><time>2026-04-04T07:42:59.35Z</time></trkpt><trkpt lat="43.3099251" lon="12.0944615"><ele>674.0</ele><time>2026-04-04T07:43:00.35Z</time></trkpt><trkpt lat="43.3098335" lon="12.0943316"><ele>674.0</ele><time>2026-04-04T07:43:01.351Z</time></trkpt><trkpt lat="43.3097634" lon="12.0941996"><ele>674.0</ele><time>2026-04-04T07:43:02.35Z</time></trkpt><trkpt lat="43.3097015" lon="12.0940726"><ele>675.6666666666666</ele><time>2026-04-04T07:43:03.351Z</time></trkpt><trkpt lat="43.3096541" lon="12.093947"><ele>677.3333333333333</ele><time>2026-04-04T07:43:04.351Z</time></trkpt><trkpt lat="43.309633" lon="12.0938184"><ele>679.0</ele><time>2026-04-04T07:43:05.35Z</time></trkpt><trkpt lat="43.3096047" lon="12.0937086"><ele>680.6666666666666</ele><time>2026-04-04T07:43:06.35Z</time></trkpt><trkpt lat="43.3095662" lon="12.0936231"><ele>682.3333333333334</ele><time>2026-04-04T07:43:07.351Z</time></trkpt><trkpt lat="43.3095013" lon="12.093577"><ele>684.0</ele><time>2026-04-04T07:43:08.35Z</time></trkpt><trkpt lat="43.309409" lon="12.0935676"><ele>684.0</ele><time>2026-04-04T07:43:09.35Z</time></trkpt><trkpt lat="43.3092817" lon="12.0935878"><ele>684.0</ele><time>2026-04-04T07:43:10.351Z</time></trkpt><trkpt lat="43.3091655" lon="12.0935853"><ele>684.0</ele><time>2026-04-04T07:43:11.35Z</time></trkpt><trkpt lat="43.3090463" lon="12.0935844"><ele>684.0</ele><time>2026-04-04T07:43:12.35Z</time></trkpt><trkpt lat="43.3089341" lon="12.0935664"><ele>679.0</ele><time>2026-04-04T07:43:13.351Z</time></trkpt><trkpt lat="43.3088141" lon="12.0935165"><ele>674.0</ele><time>2026-04-04T07:43:14.35Z</time></trkpt><trkpt lat="43.30869" lon="12.0934504"><ele>669.0</ele><time>2026-04-04T07:43:15.35Z</time></trkpt><trkpt lat="43.3085739" lon="12.0933717"><ele>664.0</ele><time>2026-04-04T07:43:16.35Z</time></trkpt><trkpt lat="43.3084862" lon="12.093289"><ele>671.0</ele><time>2026-04-04T07:43:17.35Z</time></trkpt><trkpt lat="43.3084318" lon="12.0932006"><ele>678.0</ele><time>2026-04-04T07:43:18.35Z</time></trkpt><trkpt lat="43.3084003" lon="12.0930557"><ele>685.0</ele><time>2026-04-04T07:43:19.35Z</time></trkpt><trkpt lat="43.3083867" lon="12.0929089"><ele>692.0</ele><time>2026-04-04T07:43:20.351Z</time></trkpt><trkpt lat="43.3083698" lon="12.0927918"><ele>699.0</ele><time>2026-04-04T07:43:21.35Z</time></trkpt><trkpt lat="43.3083238" lon="12.0927252"><ele>699.0</ele><time>2026-04-04T07:43:22.35Z</time></trkpt><trkpt lat="43.3082625" lon="12.0926994"><ele>699.0</ele><time>2026-04-04T07:43:23.35Z</time></trkpt><trkpt lat="43.308143" lon="12.0927677"><ele>699.0</ele><time>2026-04-04T07:43:25.35Z</time></trkpt><trkpt lat="43.3080832" lon="12.0928567"><ele>699.0</ele><time>2026-04-04T07:43:26.35Z</time></trkpt><trkpt lat="43.3080214" lon="12.0929366"><ele>699.0</ele><time>2026-04-04T07:43:27.35Z</time></trkpt><trkpt lat="43.3079556" lon="12.0929963"><ele>699.0</ele><time>2026-04-04T07:43:28.35Z</time></trkpt><trkpt lat="43.3078739" lon="12.09301"><ele>699.25</ele><time>2026-04-04T07:43:29.35Z</time></trkpt><trkpt lat="43.3076952" lon="12.0930789"><ele>699.5</ele><time>2026-04-04T07:43:30.35Z</time></trkpt><trkpt lat="43.3075814" lon="12.0930615"><ele>699.75</ele><time>2026-04-04T07:43:31.35Z</time></trkpt><trkpt lat="43.3074442" lon="12.0930445"><ele>700.0</ele><time>2026-04-04T07:43:32.35Z</time></trkpt><trkpt lat="43.3072854" lon="12.0930169"><ele>697.25</ele><time>2026-04-04T07:43:33.35Z</time></trkpt><trkpt lat="43.3071386" lon="12.0930307"><ele>694.5</ele><time>2026-04-04T07:43:34.35Z</time></trkpt><trkpt lat="43.3070191" lon="12.0930885"><ele>691.75</ele><time>2026-04-04T07:43:35.35Z</time></trkpt><trkpt lat="43.3069049" lon="12.0931648"><ele>689.0</ele><time>2026-04-04T07:43:36.352Z</time></trkpt><trkpt lat="43.3067861" lon="12.093237"><ele>689.0</ele><time>2026-04-04T07:43:37.35Z</time></trkpt><trkpt lat="43.306684" lon="12.0932735"><ele>689.0</ele><time>2026-04-04T07:43:38.35Z</time></trkpt><trkpt lat="43.3065846" lon="12.0932569"><ele>689.0</ele><time>2026-04-04T07:43:39.351Z</time></trkpt><trkpt lat="43.3064932" lon="12.0931968"><ele>689.0</ele><time>2026-04-04T07:43:40.351Z</time></trkpt><trkpt lat="43.3064239" lon="12.0931136"><ele>689.0</ele><time>2026-04-04T07:43:41.352Z</time></trkpt><trkpt lat="43.3063589" lon="12.0930699"><ele>691.3333333333333</ele><time>2026-04-04T07:43:42.351Z</time></trkpt><trkpt lat="43.3062759" lon="12.0930222"><ele>693.6666666666666</ele><time>2026-04-04T07:43:43.351Z</time></trkpt><trkpt lat="43.3061963" lon="12.0929855"><ele>696.0</ele><time>2026-04-04T07:43:44.351Z</time></trkpt><trkpt lat="43.3061288" lon="12.0929535"><ele>698.3333333333334</ele><time>2026-04-04T07:43:45.352Z</time></trkpt><trkpt lat="43.3060577" lon="12.0930216"><ele>700.6666666666667</ele><time>2026-04-04T07:43:46.351Z</time></trkpt><trkpt lat="43.3060021" lon="12.0931135"><ele>703.0</ele><time>2026-04-04T07:43:47.351Z</time></trkpt><trkpt lat="43.3059476" lon="12.0932463"><ele>698.8</ele><time>2026-04-04T07:43:48.352Z</time></trkpt><trkpt lat="43.3059042" lon="12.0933788"><ele>694.5999999999999</ele><time>2026-04-04T07:43:49.351Z</time></trkpt><trkpt lat="43.3058666" lon="12.0935273"><ele>690.4000000000001</ele><time>2026-04-04T07:43:50.352Z</time></trkpt><trkpt lat="43.3058162" lon="12.0936575"><ele>686.2</ele><time>2026-04-04T07:43:51.351Z</time></trkpt><trkpt lat="43.3057661" lon="12.0937439"><ele>682.0</ele><time>2026-04-04T07:43:52.351Z</time></trkpt><trkpt lat="43.3056948" lon="12.0937758"><ele>682.0</ele><time>2026-04-04T07:43:53.352Z</time></trkpt><trkpt lat="43.3056182" lon="12.0937849"><ele>682.0</ele><time>2026-04-04T07:43:54.351Z</time></trkpt><trkpt lat="43.3055303" lon="12.0937643"><ele>682.0</ele><time>2026-04-04T07:43:55.351Z</time></trkpt><trkpt lat="43.3054413" lon="12.0936999"><ele>682.0</ele><time>2026-04-04T07:43:56.351Z</time></trkpt><trkpt lat="43.3053455" lon="12.0935947"><ele>682.0</ele><time>2026-04-04T07:43:57.351Z</time></trkpt><trkpt lat="43.3052777" lon="12.0932778"><ele>687.0</ele><time>2026-04-04T07:43:58.351Z</time></trkpt><trkpt lat="43.3052329" lon="12.0930833"><ele>692.0</ele><time>2026-04-04T07:43:59.352Z</time></trkpt><trkpt lat="43.3051919" lon="12.0929119"><ele>697.0</ele><time>2026-04-04T07:44:00.351Z</time></trkpt><trkpt lat="43.3051342" lon="12.0927879"><ele>702.0</ele><time>2026-04-04T07:44:01.351Z</time></trkpt><trkpt lat="43.3050682" lon="12.0927053"><ele>702.0</ele><time>2026-04-04T07:44:02.351Z</time></trkpt><trkpt lat="43.3049744" lon="12.0926831"><ele>702.0</ele><time>2026-04-04T07:44:03.352Z</time></trkpt><trkpt lat="43.3048703" lon="12.0927241"><ele>702.0</ele><time>2026-04-04T07:44:04.351Z</time></trkpt><trkpt lat="43.3047609" lon="12.0927886"><ele>702.0</ele><time>2026-04-04T07:44:05.352Z</time></trkpt><trkpt lat="43.3046465" lon="12.0928442"><ele>702.0</ele><time>2026-04-04T07:44:06.351Z</time></trkpt><trkpt lat="43.3045272" lon="12.0928808"><ele>701.75</ele><time>2026-04-04T07:44:07.351Z</time></trkpt><trkpt lat="43.3043842" lon="12.0929084"><ele>701.5</ele><time>2026-04-04T07:44:08.351Z</time></trkpt><trkpt lat="43.3042488" lon="12.0929191"><ele>701.25</ele><time>2026-04-04T07:44:09.351Z</time></trkpt><trkpt lat="43.304119" lon="12.0929161"><ele>701.0</ele><time>2026-04-04T07:44:10.352Z</time></trkpt><trkpt lat="43.3039953" lon="12.0929106"><ele>695.0</ele><time>2026-04-04T07:44:11.351Z</time></trkpt><trkpt lat="43.3038778" lon="12.0928654"><ele>689.0</ele><time>2026-04-04T07:44:12.351Z</time></trkpt><trkpt lat="43.3037522" lon="12.0927878"><ele>683.0</ele><time>2026-04-04T07:44:13.351Z</time></trkpt><trkpt lat="43.3036377" lon="12.092699"><ele>677.0</ele><time>2026-04-04T07:44:14.351Z</time></trkpt><trkpt lat="43.3035195" lon="12.0925684"><ele>683.3333333333333</ele><time>2026-04-04T07:44:15.351Z</time></trkpt><trkpt lat="43.3034161" lon="12.0924144"><ele>689.6666666666666</ele><time>2026-04-04T07:44:16.351Z</time></trkpt><trkpt lat="43.3033176" lon="12.0922561"><ele>696.0</ele><time>2026-04-04T07:44:17.351Z</time></trkpt><trkpt lat="43.3032198" lon="12.0920834"><ele>696.0</ele><time>2026-04-04T07:44:18.351Z</time></trkpt><trkpt lat="43.3031216" lon="12.0919061"><ele>696.0</ele><time>2026-04-04T07:44:19.351Z</time></trkpt><trkpt lat="43.3030282" lon="12.0917224"><ele>696.0</ele><time>2026-04-04T07:44:20.351Z</time></trkpt><trkpt lat="43.3029409" lon="12.091541"><ele>689.6666666666666</ele><time>2026-04-04T07:44:21.351Z</time></trkpt><trkpt lat="43.3028579" lon="12.0913549"><ele>683.3333333333333</ele><time>2026-04-04T07:44:22.351Z</time></trkpt><trkpt lat="43.3027797" lon="12.0911699"><ele>677.0</ele><time>2026-04-04T07:44:23.351Z</time></trkpt><trkpt lat="43.3027102" lon="12.0909913"><ele>677.0</ele><time>2026-04-04T07:44:24.351Z</time></trkpt><trkpt lat="43.3026536" lon="12.0908259"><ele>677.0</ele><time>2026-04-04T07:44:25.351Z</time></trkpt><trkpt lat="43.3026171" lon="12.0906611"><ele>677.0</ele><time>2026-04-04T07:44:26.352Z</time></trkpt><trkpt lat="43.3025837" lon="12.0904764"><ele>677.0</ele><time>2026-04-04T07:44:27.351Z</time></trkpt><trkpt lat="43.3025758" lon="12.0902944"><ele>676.3333333333333</ele><time>2026-04-04T07:44:28.351Z</time></trkpt><trkpt lat="43.3025926" lon="12.0901031"><ele>675.6666666666666</ele><time>2026-04-04T07:44:29.352Z</time></trkpt><trkpt lat="43.3026373" lon="12.0898885"><ele>675.0</ele><time>2026-04-04T07:44:30.351Z</time></trkpt><trkpt lat="43.302711" lon="12.0896845"><ele>675.0</ele><time>2026-04-04T07:44:31.352Z</time></trkpt><trkpt lat="43.3028232" lon="12.0894582"><ele>675.0</ele><time>2026-04-04T07:44:32.352Z</time></trkpt><trkpt lat="43.3029247" lon="12.0892865"><ele>675.0</ele><time>2026-04-04T07:44:33.352Z</time></trkpt><trkpt lat="43.3029993" lon="12.0891382"><ele>676.2</ele><time>2026-04-04T07:44:34.351Z</time></trkpt><trkpt lat="43.3030732" lon="12.0889833"><ele>677.4</ele><time>2026-04-04T07:44:35.351Z</time></trkpt><trkpt lat="43.3031146" lon="12.0888591"><ele>678.5999999999999</ele><time>2026-04-04T07:44:36.351Z</time></trkpt><trkpt lat="43.303112" lon="12.0887401"><ele>679.8</ele><time>2026-04-04T07:44:37.351Z</time></trkpt><trkpt lat="43.30308" lon="12.08863"><ele>681.0</ele><time>2026-04-04T07:44:38.351Z</time></trkpt><trkpt lat="43.3030152" lon="12.0885342"><ele>681.0</ele><time>2026-04-04T07:44:39.351Z</time></trkpt><trkpt lat="43.3029462" lon="12.0884433"><ele>681.0</ele><time>2026-04-04T07:44:40.351Z</time></trkpt><trkpt lat="43.3028936" lon="12.08835"><ele>681.0</ele><time>2026-04-04T07:44:41.352Z</time></trkpt><trkpt lat="43.3028764" lon="12.0881907"><ele>681.0</ele><time>2026-04-04T07:44:43.352Z</time></trkpt><trkpt lat="43.3029608" lon="12.0880643"><ele>681.0</ele><time>2026-04-04T07:44:45.353Z</time></trkpt><trkpt lat="43.303045" lon="12.0880671"><ele>682.1999999999999</ele><time>2026-04-04T07:44:46.352Z</time></trkpt><trkpt lat="43.303138" lon="12.0880808"><ele>683.4</ele><time>2026-04-04T07:44:47.353Z</time></trkpt><trkpt lat="43.3032413" lon="12.0880717"><ele>684.6</ele><time>2026-04-04T07:44:48.352Z</time></trkpt><trkpt lat="43.3033349" lon="12.0880324"><ele>685.8</ele><time>2026-04-04T07:44:49.352Z</time></trkpt><trkpt lat="43.3034327" lon="12.0879216"><ele>687.0</ele><time>2026-04-04T07:44:50.352Z</time></trkpt><trkpt lat="43.3035455" lon="12.087763"><ele>687.0</ele><time>2026-04-04T07:44:51.353Z</time></trkpt><trkpt lat="43.3036362" lon="12.0876051"><ele>687.0</ele><time>2026-04-04T07:44:52.352Z</time></trkpt><trkpt lat="43.3036984" lon="12.0874383"><ele>687.0</ele><time>2026-04-04T07:44:53.352Z</time></trkpt><trkpt lat="43.3037498" lon="12.0872715"><ele>687.0</ele><time>2026-04-04T07:44:54.353Z</time></trkpt><trkpt lat="43.3037695" lon="12.0871286"><ele>685.8</ele><time>2026-04-04T07:44:55.352Z</time></trkpt><trkpt lat="43.3037504" lon="12.0869818"><ele>684.6</ele><time>2026-04-04T07:44:56.352Z</time></trkpt><trkpt lat="43.3037232" lon="12.0868401"><ele>683.4</ele><time>2026-04-04T07:44:57.353Z</time></trkpt><trkpt lat="43.3037099" lon="12.0866981"><ele>682.1999999999999</ele><time>2026-04-04T07:44:58.352Z</time></trkpt><trkpt lat="43.3037107" lon="12.0865719"><ele>681.0</ele><time>2026-04-04T07:44:59.352Z</time></trkpt><trkpt lat="43.3037518" lon="12.0864479"><ele>679.8</ele><time>2026-04-04T07:45:00.352Z</time></trkpt><trkpt lat="43.3037981" lon="12.0863093"><ele>678.5999999999999</ele><time>2026-04-04T07:45:01.352Z</time></trkpt><trkpt lat="43.3038268" lon="12.0861676"><ele>677.4</ele><time>2026-04-04T07:45:02.352Z</time></trkpt><trkpt lat="43.3038401" lon="12.0860219"><ele>676.2</ele><time>2026-04-04T07:45:03.352Z</time></trkpt><trkpt lat="43.3038296" lon="12.0858698"><ele>675.0</ele><time>2026-04-04T07:45:04.352Z</time></trkpt><trkpt lat="43.3038031" lon="12.0857079"><ele>675.0</ele><time>2026-04-04T07:45:05.352Z</time></trkpt><trkpt lat="43.3037683" lon="12.0855322"><ele>675.0</ele><time>2026-04-04T07:45:06.353Z</time></trkpt><trkpt lat="43.3037212" lon="12.0853489"><ele>675.0</ele><time>2026-04-04T07:45:07.353Z</time></trkpt><trkpt lat="43.3036946" lon="12.0851717"><ele>675.0</ele><time>2026-04-04T07:45:08.352Z</time></trkpt><trkpt lat="43.3037048" lon="12.0850041"><ele>675.75</ele><time>2026-04-04T07:45:09.352Z</time></trkpt><trkpt lat="43.3037307" lon="12.0848465"><ele>676.5</ele><time>2026-04-04T07:45:10.353Z</time></trkpt><trkpt lat="43.3037785" lon="12.0847044"><ele>677.25</ele><time>2026-04-04T07:45:11.352Z</time></trkpt><trkpt lat="43.3038571" lon="12.0845602"><ele>678.0</ele><time>2026-04-04T07:45:12.353Z</time></trkpt><trkpt lat="43.3039264" lon="12.0844404"><ele>678.0</ele><time>2026-04-04T07:45:13.352Z</time></trkpt><trkpt lat="43.3040206" lon="12.0843394"><ele>678.0</ele><time>2026-04-04T07:45:14.353Z</time></trkpt><trkpt lat="43.3041242" lon="12.0842574"><ele>678.0</ele><time>2026-04-04T07:45:15.352Z</time></trkpt><trkpt lat="43.3042474" lon="12.0841914"><ele>678.0</ele><time>2026-04-04T07:45:16.352Z</time></trkpt><trkpt lat="43.3043725" lon="12.084156"><ele>678.0</ele><time>2026-04-04T07:45:17.352Z</time></trkpt><trkpt lat="43.3044894" lon="12.0841477"><ele>678.0</ele><time>2026-04-04T07:45:18.352Z</time></trkpt><trkpt lat="43.3046165" lon="12.0841491"><ele>678.0</ele><time>2026-04-04T07:45:19.352Z</time></trkpt><trkpt lat="43.3047476" lon="12.0841292"><ele>678.0</ele><time>2026-04-04T07:45:20.352Z</time></trkpt><trkpt lat="43.3048755" lon="12.084079"><ele>678.75</ele><time>2026-04-04T07:45:21.352Z</time></trkpt><trkpt lat="43.3050263" lon="12.0840218"><ele>679.5</ele><time>2026-04-04T07:45:22.352Z</time></trkpt><trkpt lat="43.3051098" lon="12.0838902"><ele>680.25</ele><time>2026-04-04T07:45:23.353Z</time></trkpt><trkpt lat="43.3051572" lon="12.0837219"><ele>681.0</ele><time>2026-04-04T07:45:24.352Z</time></trkpt><trkpt lat="43.3051757" lon="12.0835352"><ele>681.0</ele><time>2026-04-04T07:45:25.352Z</time></trkpt><trkpt lat="43.3051653" lon="12.0833449"><ele>681.0</ele><time>2026-04-04T07:45:26.353Z</time></trkpt><trkpt lat="43.3051458" lon="12.0831636"><ele>681.0</ele><time>2026-04-04T07:45:27.352Z</time></trkpt><trkpt lat="43.3051316" lon="12.0829948"><ele>681.0</ele><time>2026-04-04T07:45:28.352Z</time></trkpt><trkpt lat="43.305129" lon="12.0828239"><ele>679.5</ele><time>2026-04-04T07:45:29.353Z</time></trkpt><trkpt lat="43.3051436" lon="12.0826431"><ele>678.0</ele><time>2026-04-04T07:45:30.353Z</time></trkpt><trkpt lat="43.3051655" lon="12.0824685"><ele>676.5</ele><time>2026-04-04T07:45:31.352Z</time></trkpt><trkpt lat="43.305195" lon="12.0823055"><ele>675.0</ele><time>2026-04-04T07:45:32.353Z</time></trkpt><trkpt lat="43.3052325" lon="12.0821482"><ele>674.5</ele><time>2026-04-04T07:45:33.353Z</time></trkpt><trkpt lat="43.3052664" lon="12.0819802"><ele>674.0</ele><time>2026-04-04T07:45:34.352Z</time></trkpt><trkpt lat="43.3052872" lon="12.0818148"><ele>673.5</ele><time>2026-04-04T07:45:35.353Z</time></trkpt><trkpt lat="43.3052728" lon="12.0816434"><ele>673.0</ele><time>2026-04-04T07:45:36.353Z</time></trkpt><trkpt lat="43.3052489" lon="12.0814796"><ele>671.0</ele><time>2026-04-04T07:45:37.352Z</time></trkpt><trkpt lat="43.3052346" lon="12.0813081"><ele>669.0</ele><time>2026-04-04T07:45:38.352Z</time></trkpt><trkpt lat="43.3052552" lon="12.081142"><ele>667.0</ele><time>2026-04-04T07:45:39.352Z</time></trkpt><trkpt lat="43.3052821" lon="12.0809777"><ele>665.0</ele><time>2026-04-04T07:45:40.353Z</time></trkpt><trkpt lat="43.3053218" lon="12.0808098"><ele>666.0</ele><time>2026-04-04T07:45:41.352Z</time></trkpt><trkpt lat="43.3053786" lon="12.080645"><ele>667.0</ele><time>2026-04-04T07:45:42.353Z</time></trkpt><trkpt lat="43.3054448" lon="12.0805056"><ele>668.0</ele><time>2026-04-04T07:45:43.353Z</time></trkpt><trkpt lat="43.3055258" lon="12.0804062"><ele>669.0</ele><time>2026-04-04T07:45:44.353Z</time></trkpt><trkpt lat="43.305608" lon="12.0803296"><ele>669.0</ele><time>2026-04-04T07:45:45.353Z</time></trkpt><trkpt lat="43.3057087" lon="12.0802712"><ele>669.0</ele><time>2026-04-04T07:45:46.353Z</time></trkpt><trkpt lat="43.3058289" lon="12.0802046"><ele>669.0</ele><time>2026-04-04T07:45:47.353Z</time></trkpt><trkpt lat="43.3059521" lon="12.0801185"><ele>669.0</ele><time>2026-04-04T07:45:48.353Z</time></trkpt><trkpt lat="43.3060761" lon="12.0800269"><ele>669.0</ele><time>2026-04-04T07:45:49.353Z</time></trkpt><trkpt lat="43.306206" lon="12.079947"><ele>669.0</ele><time>2026-04-04T07:45:50.353Z</time></trkpt><trkpt lat="43.3063178" lon="12.0798518"><ele>669.0</ele><time>2026-04-04T07:45:51.354Z</time></trkpt><trkpt lat="43.3063964" lon="12.0797283"><ele>669.0</ele><time>2026-04-04T07:45:52.353Z</time></trkpt><trkpt lat="43.3064573" lon="12.0796098"><ele>669.2</ele><time>2026-04-04T07:45:53.353Z</time></trkpt><trkpt lat="43.3064684" lon="12.079481"><ele>669.4000000000001</ele><time>2026-04-04T07:45:54.353Z</time></trkpt><trkpt lat="43.3064455" lon="12.0793573"><ele>669.6</ele><time>2026-04-04T07:45:55.353Z</time></trkpt><trkpt lat="43.3064104" lon="12.0792389"><ele>669.8</ele><time>2026-04-04T07:45:56.354Z</time></trkpt><trkpt lat="43.3063684" lon="12.0791055"><ele>670.0</ele><time>2026-04-04T07:45:57.353Z</time></trkpt><trkpt lat="43.306331" lon="12.0789604"><ele>670.0</ele><time>2026-04-04T07:45:58.353Z</time></trkpt><trkpt lat="43.306296" lon="12.0787785"><ele>670.0</ele><time>2026-04-04T07:45:59.354Z</time></trkpt><trkpt lat="43.3062521" lon="12.0785811"><ele>670.0</ele><time>2026-04-04T07:46:00.353Z</time></trkpt><trkpt lat="43.306203" lon="12.0783813"><ele>670.0</ele><time>2026-04-04T07:46:01.353Z</time></trkpt><trkpt lat="43.3061531" lon="12.0781792"><ele>670.25</ele><time>2026-04-04T07:46:02.354Z</time></trkpt><trkpt lat="43.3061171" lon="12.0779838"><ele>670.5</ele><time>2026-04-04T07:46:03.354Z</time></trkpt><trkpt lat="43.3061146" lon="12.0777888"><ele>670.75</ele><time>2026-04-04T07:46:04.354Z</time></trkpt><trkpt lat="43.3061572" lon="12.0776174"><ele>671.0</ele><time>2026-04-04T07:46:05.353Z</time></trkpt><trkpt lat="43.3062135" lon="12.0774758"><ele>672.8</ele><time>2026-04-04T07:46:06.353Z</time></trkpt><trkpt lat="43.3062779" lon="12.0773512"><ele>674.5999999999999</ele><time>2026-04-04T07:46:07.353Z</time></trkpt><trkpt lat="43.3063426" lon="12.0772509"><ele>676.4</ele><time>2026-04-04T07:46:08.353Z</time></trkpt><trkpt lat="43.3063872" lon="12.0771565"><ele>678.2</ele><time>2026-04-04T07:46:09.353Z</time></trkpt><trkpt lat="43.3064173" lon="12.0770638"><ele>680.0</ele><time>2026-04-04T07:46:10.353Z</time></trkpt><trkpt lat="43.3064255" lon="12.0769446"><ele>680.0</ele><time>2026-04-04T07:46:12.353Z</time></trkpt><trkpt lat="43.3063814" lon="12.0768688"><ele>680.0</ele><time>2026-04-04T07:46:15.353Z</time></trkpt><trkpt lat="43.3063094" lon="12.0768908"><ele>680.0</ele><time>2026-04-04T07:46:43.354Z</time></trkpt><trkpt lat="43.3062914" lon="12.0767859"><ele>680.0</ele><time>2026-04-04T07:46:46.353Z</time></trkpt><trkpt lat="43.3062645" lon="12.0766692"><ele>680.0</ele><time>2026-04-04T07:46:48.354Z</time></trkpt><trkpt lat="43.3062443" lon="12.0765644"><ele>680.0</ele><time>2026-04-04T07:46:49.354Z</time></trkpt><trkpt lat="43.3062285" lon="12.0764338"><ele>683.5</ele><time>2026-04-04T07:46:50.354Z</time></trkpt><trkpt lat="43.3062163" lon="12.0763048"><ele>687.0</ele><time>2026-04-04T07:46:51.354Z</time></trkpt><trkpt lat="43.3061809" lon="12.076203"><ele>690.5</ele><time>2026-04-04T07:46:52.354Z</time></trkpt><trkpt lat="43.3061306" lon="12.0761263"><ele>694.0</ele><time>2026-04-04T07:46:53.354Z</time></trkpt><trkpt lat="43.3060613" lon="12.0760978"><ele>697.5</ele><time>2026-04-04T07:46:54.354Z</time></trkpt><trkpt lat="43.3059593" lon="12.0761163"><ele>701.0</ele><time>2026-04-04T07:46:55.355Z</time></trkpt><trkpt lat="43.3058431" lon="12.0761778"><ele>701.0</ele><time>2026-04-04T07:46:56.354Z</time></trkpt><trkpt lat="43.3057293" lon="12.0762496"><ele>701.0</ele><time>2026-04-04T07:46:57.354Z</time></trkpt><trkpt lat="43.3056269" lon="12.0763104"><ele>701.0</ele><time>2026-04-04T07:46:58.354Z</time></trkpt><trkpt lat="43.3055322" lon="12.0763352"><ele>701.0</ele><time>2026-04-04T07:46:59.354Z</time></trkpt><trkpt lat="43.3054285" lon="12.0763166"><ele>701.0</ele><time>2026-04-04T07:47:00.355Z</time></trkpt><trkpt lat="43.305343" lon="12.0762723"><ele>697.3333333333333</ele><time>2026-04-04T07:47:01.354Z</time></trkpt><trkpt lat="43.3052521" lon="12.0762584"><ele>693.6666666666666</ele><time>2026-04-04T07:47:02.354Z</time></trkpt><trkpt lat="43.3051748" lon="12.0762363"><ele>690.0</ele><time>2026-04-04T07:47:03.354Z</time></trkpt><trkpt lat="43.3051079" lon="12.0761993"><ele>686.3333333333334</ele><time>2026-04-04T07:47:04.354Z</time></trkpt><trkpt lat="43.3050461" lon="12.0761263"><ele>682.6666666666667</ele><time>2026-04-04T07:47:05.354Z</time></trkpt><trkpt lat="43.3049856" lon="12.0760193"><ele>679.0</ele><time>2026-04-04T07:47:06.354Z</time></trkpt><trkpt lat="43.3049335" lon="12.0759007"><ele>683.5</ele><time>2026-04-04T07:47:07.354Z</time></trkpt><trkpt lat="43.3048944" lon="12.0757681"><ele>688.0</ele><time>2026-04-04T07:47:08.354Z</time></trkpt><trkpt lat="43.3048663" lon="12.0756181"><ele>692.5</ele><time>2026-04-04T07:47:09.355Z</time></trkpt><trkpt lat="43.304843" lon="12.0754627"><ele>697.0</ele><time>2026-04-04T07:47:10.354Z</time></trkpt><trkpt lat="43.3048444" lon="12.0752803"><ele>697.0</ele><time>2026-04-04T07:47:11.354Z</time></trkpt><trkpt lat="43.3048508" lon="12.0751236"><ele>697.0</ele><time>2026-04-04T07:47:12.355Z</time></trkpt><trkpt lat="43.304942" lon="12.0748488"><ele>697.0</ele><time>2026-04-04T07:47:13.355Z</time></trkpt><trkpt lat="43.3050568" lon="12.0745213"><ele>702.6</ele><time>2026-04-04T07:47:14.354Z</time></trkpt><trkpt lat="43.304991" lon="12.0745495"><ele>708.2</ele><time>2026-04-04T07:47:17.354Z</time></trkpt><trkpt lat="43.3049011" lon="12.0746476"><ele>713.8</ele><time>2026-04-04T07:47:18.354Z</time></trkpt><trkpt lat="43.3048175" lon="12.0747441"><ele>719.4</ele><time>2026-04-04T07:47:19.354Z</time></trkpt><trkpt lat="43.30474" lon="12.0747865"><ele>725.0</ele><time>2026-04-04T07:47:20.355Z</time></trkpt><trkpt lat="43.3045632" lon="12.0748343"><ele>724.6</ele><time>2026-04-04T07:47:21.354Z</time></trkpt><trkpt lat="43.304471" lon="12.0748474"><ele>724.2</ele><time>2026-04-04T07:47:22.354Z</time></trkpt><trkpt lat="43.3043932" lon="12.074898"><ele>723.8</ele><time>2026-04-04T07:47:23.354Z</time></trkpt><trkpt lat="43.3043348" lon="12.0749957"><ele>723.4</ele><time>2026-04-04T07:47:24.355Z</time></trkpt><trkpt lat="43.3042905" lon="12.0751016"><ele>723.0</ele><time>2026-04-04T07:47:25.354Z</time></trkpt><trkpt lat="43.3042595" lon="12.0752357"><ele>723.0</ele><time>2026-04-04T07:47:26.354Z</time></trkpt><trkpt lat="43.3042503" lon="12.0753887"><ele>723.0</ele><time>2026-04-04T07:47:27.355Z</time></trkpt><trkpt lat="43.3042209" lon="12.075537"><ele>723.0</ele><time>2026-04-04T07:47:28.354Z</time></trkpt><trkpt lat="43.3041821" lon="12.0756624"><ele>723.0</ele><time>2026-04-04T07:47:29.354Z</time></trkpt><trkpt lat="43.3041341" lon="12.0757568"><ele>723.0</ele><time>2026-04-04T07:47:30.355Z</time></trkpt><trkpt lat="43.304007" lon="12.0758367"><ele>723.1666666666666</ele><time>2026-04-04T07:47:31.354Z</time></trkpt><trkpt lat="43.3039224" lon="12.0758805"><ele>723.3333333333334</ele><time>2026-04-04T07:47:32.354Z</time></trkpt><trkpt lat="43.3038489" lon="12.075937"><ele>723.5</ele><time>2026-04-04T07:47:33.354Z</time></trkpt><trkpt lat="43.3037928" lon="12.0760012"><ele>723.6666666666667</ele><time>2026-04-04T07:47:34.354Z</time></trkpt><trkpt lat="43.3037582" lon="12.0760768"><ele>723.8333333333334</ele><time>2026-04-04T07:47:35.354Z</time></trkpt><trkpt lat="43.3037689" lon="12.0761783"><ele>724.0</ele><time>2026-04-04T07:47:36.355Z</time></trkpt><trkpt lat="43.3037637" lon="12.0762726"><ele>724.0</ele><time>2026-04-04T07:47:37.354Z</time></trkpt><trkpt lat="43.3037243" lon="12.0763916"><ele>724.0</ele><time>2026-04-04T07:47:39.354Z</time></trkpt><trkpt lat="43.3037809" lon="12.0764508"><ele>724.0</ele><time>2026-04-04T07:47:44.355Z</time></trkpt><trkpt lat="43.3038343" lon="12.0763878"><ele>724.0</ele><time>2026-04-04T07:47:47.355Z</time></trkpt><trkpt lat="43.3037813" lon="12.076326"><ele>724.0</ele><time>2026-04-04T07:47:50.355Z</time></trkpt><trkpt lat="43.303653" lon="12.0763223"><ele>724.0</ele><time>2026-04-04T07:47:52.355Z</time></trkpt><trkpt lat="43.3035412" lon="12.0763153"><ele>724.0</ele><time>2026-04-04T07:47:53.355Z</time></trkpt><trkpt lat="43.3034283" lon="12.0763046"><ele>724.0</ele><time>2026-04-04T07:47:54.355Z</time></trkpt><trkpt lat="43.3033211" lon="12.0763046"><ele>724.0</ele><time>2026-04-04T07:47:55.355Z</time></trkpt><trkpt lat="43.3032158" lon="12.076332"><ele>724.0</ele><time>2026-04-04T07:47:56.355Z</time></trkpt><trkpt lat="43.3031261" lon="12.0764039"><ele>724.0</ele><time>2026-04-04T07:47:57.356Z</time></trkpt><trkpt lat="43.3030676" lon="12.076505"><ele>721.5</ele><time>2026-04-04T07:47:58.355Z</time></trkpt><trkpt lat="43.3030261" lon="12.0766252"><ele>719.0</ele><time>2026-04-04T07:47:59.355Z</time></trkpt><trkpt lat="43.3029772" lon="12.0767418"><ele>716.5</ele><time>2026-04-04T07:48:00.355Z</time></trkpt><trkpt lat="43.3029233" lon="12.0768378"><ele>714.0</ele><time>2026-04-04T07:48:01.355Z</time></trkpt><trkpt lat="43.302861" lon="12.0769134"><ele>711.5</ele><time>2026-04-04T07:48:02.355Z</time></trkpt><trkpt lat="43.3027961" lon="12.0769321"><ele>709.0</ele><time>2026-04-04T07:48:03.356Z</time></trkpt><trkpt lat="43.3027259" lon="12.0769164"><ele>709.0</ele><time>2026-04-04T07:48:04.355Z</time></trkpt><trkpt lat="43.3026143" lon="12.0768073"><ele>709.0</ele><time>2026-04-04T07:48:05.355Z</time></trkpt><trkpt lat="43.3025251" lon="12.0767374"><ele>709.0</ele><time>2026-04-04T07:48:06.355Z</time></trkpt><trkpt lat="43.3024219" lon="12.0766848"><ele>709.0</ele><time>2026-04-04T07:48:07.356Z</time></trkpt><trkpt lat="43.3023024" lon="12.0766343"><ele>709.75</ele><time>2026-04-04T07:48:08.355Z</time></trkpt><trkpt lat="43.3021801" lon="12.0766291"><ele>710.5</ele><time>2026-04-04T07:48:09.355Z</time></trkpt><trkpt lat="43.30206" lon="12.0766764"><ele>711.25</ele><time>2026-04-04T07:48:10.355Z</time></trkpt><trkpt lat="43.3019382" lon="12.0767628"><ele>712.0</ele><time>2026-04-04T07:48:11.356Z</time></trkpt><trkpt lat="43.3018487" lon="12.076891"><ele>712.0</ele><time>2026-04-04T07:48:12.355Z</time></trkpt><trkpt lat="43.3017806" lon="12.0770279"><ele>712.0</ele><time>2026-04-04T07:48:13.355Z</time></trkpt><trkpt lat="43.3017176" lon="12.0771785"><ele>712.0</ele><time>2026-04-04T07:48:14.355Z</time></trkpt><trkpt lat="43.3016575" lon="12.0772879"><ele>712.0</ele><time>2026-04-04T07:48:15.356Z</time></trkpt><trkpt lat="43.3016008" lon="12.0773374"><ele>712.0</ele><time>2026-04-04T07:48:16.356Z</time></trkpt><trkpt lat="43.3015336" lon="12.0773262"><ele>701.0</ele><time>2026-04-04T07:48:17.356Z</time></trkpt><trkpt lat="43.3014131" lon="12.0771823"><ele>690.0</ele><time>2026-04-04T07:48:19.356Z</time></trkpt><trkpt lat="43.3012933" lon="12.076735"><ele>693.6666666666666</ele><time>2026-04-04T07:48:20.355Z</time></trkpt><trkpt lat="43.3012458" lon="12.0765134"><ele>697.3333333333333</ele><time>2026-04-04T07:48:21.355Z</time></trkpt><trkpt lat="43.3011844" lon="12.0762667"><ele>701.0</ele><time>2026-04-04T07:48:22.355Z</time></trkpt><trkpt lat="43.301145" lon="12.0760377"><ele>701.0</ele><time>2026-04-04T07:48:23.355Z</time></trkpt><trkpt lat="43.3011029" lon="12.0757992"><ele>701.0</ele><time>2026-04-04T07:48:24.355Z</time></trkpt><trkpt lat="43.301081" lon="12.0755724"><ele>701.0</ele><time>2026-04-04T07:48:25.355Z</time></trkpt><trkpt lat="43.3010872" lon="12.0753645"><ele>701.0</ele><time>2026-04-04T07:48:26.355Z</time></trkpt><trkpt lat="43.3011153" lon="12.0751578"><ele>701.0</ele><time>2026-04-04T07:48:27.356Z</time></trkpt><trkpt lat="43.3011303" lon="12.0749454"><ele>701.0</ele><time>2026-04-04T07:48:28.355Z</time></trkpt><trkpt lat="43.3011242" lon="12.0747231"><ele>703.0</ele><time>2026-04-04T07:48:29.355Z</time></trkpt><trkpt lat="43.3011001" lon="12.0744946"><ele>705.0</ele><time>2026-04-04T07:48:30.356Z</time></trkpt><trkpt lat="43.301044" lon="12.07428"><ele>707.0</ele><time>2026-04-04T07:48:31.356Z</time></trkpt><trkpt lat="43.300982" lon="12.0740887"><ele>708.5</ele><time>2026-04-04T07:48:32.355Z</time></trkpt><trkpt lat="43.3009243" lon="12.0739049"><ele>710.0</ele><time>2026-04-04T07:48:33.355Z</time></trkpt><trkpt lat="43.3008756" lon="12.0737255"><ele>711.5</ele><time>2026-04-04T07:48:34.355Z</time></trkpt><trkpt lat="43.3008299" lon="12.0735612"><ele>713.0</ele><time>2026-04-04T07:48:35.355Z</time></trkpt><trkpt lat="43.3008036" lon="12.0733859"><ele>713.6666666666666</ele><time>2026-04-04T07:48:36.355Z</time></trkpt><trkpt lat="43.3008041" lon="12.0731854"><ele>714.3333333333334</ele><time>2026-04-04T07:48:37.355Z</time></trkpt><trkpt lat="43.3008053" lon="12.0729697"><ele>715.0</ele><time>2026-04-04T07:48:38.356Z</time></trkpt><trkpt lat="43.300806" lon="12.072741"><ele>715.0</ele><time>2026-04-04T07:48:39.355Z</time></trkpt><trkpt lat="43.3008054" lon="12.0725036"><ele>715.0</ele><time>2026-04-04T07:48:40.355Z</time></trkpt><trkpt lat="43.3008092" lon="12.0722742"><ele>715.0</ele><time>2026-04-04T07:48:41.355Z</time></trkpt><trkpt lat="43.3008112" lon="12.0720621"><ele>715.0</ele><time>2026-04-04T07:48:42.355Z</time></trkpt><trkpt lat="43.3008158" lon="12.0718648"><ele>715.0</ele><time>2026-04-04T07:48:43.356Z</time></trkpt><trkpt lat="43.3008182" lon="12.0716752"><ele>715.0</ele><time>2026-04-04T07:48:44.355Z</time></trkpt><trkpt lat="43.3008304" lon="12.0714949"><ele>715.0</ele><time>2026-04-04T07:48:45.355Z</time></trkpt><trkpt lat="43.3008378" lon="12.0713138"><ele>714.25</ele><time>2026-04-04T07:48:46.355Z</time></trkpt><trkpt lat="43.3008667" lon="12.0711367"><ele>713.5</ele><time>2026-04-04T07:48:47.356Z</time></trkpt><trkpt lat="43.3009137" lon="12.070961"><ele>712.75</ele><time>2026-04-04T07:48:48.356Z</time></trkpt><trkpt lat="43.3009787" lon="12.0707977"><ele>712.0</ele><time>2026-04-04T07:48:49.355Z</time></trkpt><trkpt lat="43.3010644" lon="12.0706209"><ele>712.0</ele><time>2026-04-04T07:48:50.356Z</time></trkpt><trkpt lat="43.3011302" lon="12.0704431"><ele>712.0</ele><time>2026-04-04T07:48:51.356Z</time></trkpt><trkpt lat="43.3011941" lon="12.0702823"><ele>712.0</ele><time>2026-04-04T07:48:52.356Z</time></trkpt><trkpt lat="43.3012598" lon="12.0701481"><ele>712.0</ele><time>2026-04-04T07:48:53.356Z</time></trkpt><trkpt lat="43.3013198" lon="12.0700408"><ele>712.0</ele><time>2026-04-04T07:48:54.357Z</time></trkpt><trkpt lat="43.3013675" lon="12.0699685"><ele>712.0</ele><time>2026-04-04T07:48:55.356Z</time></trkpt><trkpt lat="43.3014173" lon="12.0699116"><ele>712.0</ele><time>2026-04-04T07:48:56.356Z</time></trkpt><trkpt lat="43.3014961" lon="12.069788"><ele>712.0</ele><time>2026-04-04T07:48:58.356Z</time></trkpt><trkpt lat="43.3014658" lon="12.0696642"><ele>712.0</ele><time>2026-04-04T07:49:00.356Z</time></trkpt><trkpt lat="43.3014152" lon="12.0695949"><ele>712.0</ele><time>2026-04-04T07:49:01.356Z</time></trkpt><trkpt lat="43.3013309" lon="12.0695159"><ele>720.75</ele><time>2026-04-04T07:49:02.357Z</time></trkpt><trkpt lat="43.3012406" lon="12.0694514"><ele>729.5</ele><time>2026-04-04T07:49:03.356Z</time></trkpt><trkpt lat="43.3011371" lon="12.069382"><ele>738.25</ele><time>2026-04-04T07:49:04.356Z</time></trkpt><trkpt lat="43.301016" lon="12.0693465"><ele>747.0</ele><time>2026-04-04T07:49:05.356Z</time></trkpt><trkpt lat="43.3008855" lon="12.069306"><ele>741.5</ele><time>2026-04-04T07:49:06.356Z</time></trkpt><trkpt lat="43.3005042" lon="12.0691855"><ele>736.0</ele><time>2026-04-04T07:49:08.357Z</time></trkpt><trkpt lat="43.30039" lon="12.0691227"><ele>736.0</ele><time>2026-04-04T07:49:09.356Z</time></trkpt><trkpt lat="43.3002631" lon="12.0690721"><ele>736.0</ele><time>2026-04-04T07:49:10.356Z</time></trkpt><trkpt lat="43.3001124" lon="12.0690547"><ele>736.0</ele><time>2026-04-04T07:49:11.356Z</time></trkpt><trkpt lat="43.2999559" lon="12.0690633"><ele>736.0</ele><time>2026-04-04T07:49:12.357Z</time></trkpt><trkpt lat="43.2997969" lon="12.069114"><ele>732.3333333333334</ele><time>2026-04-04T07:49:13.356Z</time></trkpt><trkpt lat="43.2996309" lon="12.0692114"><ele>728.6666666666666</ele><time>2026-04-04T07:49:14.356Z</time></trkpt><trkpt lat="43.2994863" lon="12.0693116"><ele>725.0</ele><time>2026-04-04T07:49:15.357Z</time></trkpt><trkpt lat="43.2993539" lon="12.0693937"><ele>725.0</ele><time>2026-04-04T07:49:16.356Z</time></trkpt><trkpt lat="43.299215" lon="12.0694669"><ele>725.0</ele><time>2026-04-04T07:49:17.357Z</time></trkpt><trkpt lat="43.2990831" lon="12.0695307"><ele>725.0</ele><time>2026-04-04T07:49:18.356Z</time></trkpt><trkpt lat="43.2989586" lon="12.0695721"><ele>725.0</ele><time>2026-04-04T07:49:19.356Z</time></trkpt><trkpt lat="43.2988508" lon="12.0695485"><ele>716.0</ele><time>2026-04-04T07:49:20.356Z</time></trkpt><trkpt lat="43.2987648" lon="12.0694456"><ele>707.0</ele><time>2026-04-04T07:49:21.356Z</time></trkpt><trkpt lat="43.2987029" lon="12.0693057"><ele>698.0</ele><time>2026-04-04T07:49:22.357Z</time></trkpt><trkpt lat="43.2986894" lon="12.0690879"><ele>689.0</ele><time>2026-04-04T07:49:23.356Z</time></trkpt><trkpt lat="43.2986944" lon="12.0688798"><ele>689.0</ele><time>2026-04-04T07:49:24.357Z</time></trkpt><trkpt lat="43.2989166" lon="12.0686309"><ele>689.0</ele><time>2026-04-04T07:49:25.356Z</time></trkpt><trkpt lat="43.2989874" lon="12.0684269"><ele>694.75</ele><time>2026-04-04T07:49:26.356Z</time></trkpt><trkpt lat="43.2990578" lon="12.068238"><ele>700.5</ele><time>2026-04-04T07:49:27.356Z</time></trkpt><trkpt lat="43.2991296" lon="12.0680946"><ele>706.25</ele><time>2026-04-04T07:49:28.356Z</time></trkpt><trkpt lat="43.299219" lon="12.0679536"><ele>712.0</ele><time>2026-04-04T07:49:29.356Z</time></trkpt><trkpt lat="43.2993264" lon="12.067807"><ele>712.0</ele><time>2026-04-04T07:49:30.356Z</time></trkpt><trkpt lat="43.2994504" lon="12.0676575"><ele>712.0</ele><time>2026-04-04T07:49:31.357Z</time></trkpt><trkpt lat="43.2995548" lon="12.0674853"><ele>712.0</ele><time>2026-04-04T07:49:32.356Z</time></trkpt><trkpt lat="43.2995986" lon="12.0673103"><ele>713.5</ele><time>2026-04-04T07:49:33.356Z</time></trkpt><trkpt lat="43.299626" lon="12.0671347"><ele>715.0</ele><time>2026-04-04T07:49:34.356Z</time></trkpt><trkpt lat="43.2996616" lon="12.0669843"><ele>716.5</ele><time>2026-04-04T07:49:35.356Z</time></trkpt><trkpt lat="43.2997024" lon="12.0668396"><ele>718.0</ele><time>2026-04-04T07:49:36.356Z</time></trkpt><trkpt lat="43.2997415" lon="12.0666975"><ele>721.8</ele><time>2026-04-04T07:49:37.356Z</time></trkpt><trkpt lat="43.2997644" lon="12.0665553"><ele>725.5999999999999</ele><time>2026-04-04T07:49:38.357Z</time></trkpt><trkpt lat="43.2997738" lon="12.066407"><ele>729.4000000000001</ele><time>2026-04-04T07:49:39.356Z</time></trkpt><trkpt lat="43.2997446" lon="12.066275"><ele>733.2</ele><time>2026-04-04T07:49:40.356Z</time></trkpt><trkpt lat="43.2996956" lon="12.0661586"><ele>737.0</ele><time>2026-04-04T07:49:41.357Z</time></trkpt><trkpt lat="43.2996115" lon="12.0660324"><ele>737.0</ele><time>2026-04-04T07:49:42.356Z</time></trkpt><trkpt lat="43.2995094" lon="12.0659312"><ele>737.0</ele><time>2026-04-04T07:49:43.356Z</time></trkpt><trkpt lat="43.2993947" lon="12.0658257"><ele>737.0</ele><time>2026-04-04T07:49:44.356Z</time></trkpt><trkpt lat="43.2992797" lon="12.0657188"><ele>737.0</ele><time>2026-04-04T07:49:45.356Z</time></trkpt><trkpt lat="43.299161" lon="12.0656422"><ele>747.6666666666666</ele><time>2026-04-04T07:49:46.356Z</time></trkpt><trkpt lat="43.2990128" lon="12.0656136"><ele>758.3333333333333</ele><time>2026-04-04T07:49:47.357Z</time></trkpt><trkpt lat="43.2988429" lon="12.0656295"><ele>769.0</ele><time>2026-04-04T07:49:48.356Z</time></trkpt><trkpt lat="43.2986613" lon="12.065657"><ele>774.5</ele><time>2026-04-04T07:49:49.356Z</time></trkpt><trkpt lat="43.298366" lon="12.0657172"><ele>780.0</ele><time>2026-04-04T07:49:50.357Z</time></trkpt><trkpt lat="43.2981693" lon="12.0657919"><ele>771.3333333333334</ele><time>2026-04-04T07:49:51.356Z</time></trkpt><trkpt lat="43.2979839" lon="12.0658851"><ele>762.6666666666667</ele><time>2026-04-04T07:49:52.357Z</time></trkpt><trkpt lat="43.2977961" lon="12.0660124"><ele>754.0</ele><time>2026-04-04T07:49:53.357Z</time></trkpt><trkpt lat="43.2976281" lon="12.0661274"><ele>754.0</ele><time>2026-04-04T07:49:54.356Z</time></trkpt><trkpt lat="43.2973602" lon="12.0664621"><ele>754.0</ele><time>2026-04-04T07:49:56.357Z</time></trkpt><trkpt lat="43.2972605" lon="12.066638"><ele>754.25</ele><time>2026-04-04T07:49:57.357Z</time></trkpt><trkpt lat="43.2971702" lon="12.0668283"><ele>754.5</ele><time>2026-04-04T07:49:58.357Z</time></trkpt><trkpt lat="43.2970761" lon="12.0669805"><ele>754.75</ele><time>2026-04-04T07:49:59.358Z</time></trkpt><trkpt lat="43.2969729" lon="12.0671033"><ele>755.0</ele><time>2026-04-04T07:50:00.357Z</time></trkpt><trkpt lat="43.2968758" lon="12.067213"><ele>755.0</ele><time>2026-04-04T07:50:01.357Z</time></trkpt><trkpt lat="43.2967446" lon="12.0672812"><ele>755.0</ele><time>2026-04-04T07:50:02.357Z</time></trkpt><trkpt lat="43.2966023" lon="12.0673455"><ele>755.0</ele><time>2026-04-04T07:50:03.357Z</time></trkpt><trkpt lat="43.2964514" lon="12.0673958"><ele>755.0</ele><time>2026-04-04T07:50:04.357Z</time></trkpt><trkpt lat="43.2963134" lon="12.0674476"><ele>759.0</ele><time>2026-04-04T07:50:05.357Z</time></trkpt><trkpt lat="43.2961743" lon="12.0674839"><ele>763.0</ele><time>2026-04-04T07:50:06.357Z</time></trkpt><trkpt lat="43.2960134" lon="12.0674609"><ele>767.0</ele><time>2026-04-04T07:50:07.357Z</time></trkpt><trkpt lat="43.2958469" lon="12.067439"><ele>767.0</ele><time>2026-04-04T07:50:08.357Z</time></trkpt><trkpt lat="43.2956833" lon="12.0674282"><ele>767.0</ele><time>2026-04-04T07:50:09.357Z</time></trkpt><trkpt lat="43.2955243" lon="12.0674259"><ele>767.0</ele><time>2026-04-04T07:50:10.357Z</time></trkpt><trkpt lat="43.295378" lon="12.0674644"><ele>760.25</ele><time>2026-04-04T07:50:11.357Z</time></trkpt><trkpt lat="43.2952505" lon="12.067535"><ele>753.5</ele><time>2026-04-04T07:50:12.357Z</time></trkpt><trkpt lat="43.2951323" lon="12.0676466"><ele>746.75</ele><time>2026-04-04T07:50:13.357Z</time></trkpt><trkpt lat="43.2950151" lon="12.0677822"><ele>740.0</ele><time>2026-04-04T07:50:14.357Z</time></trkpt><trkpt lat="43.2948945" lon="12.0678988"><ele>740.0</ele><time>2026-04-04T07:50:15.357Z</time></trkpt><trkpt lat="43.2947864" lon="12.0679876"><ele>740.0</ele><time>2026-04-04T07:50:16.357Z</time></trkpt><trkpt lat="43.2946676" lon="12.0680384"><ele>740.0</ele><time>2026-04-04T07:50:17.357Z</time></trkpt><trkpt lat="43.2945469" lon="12.0680541"><ele>740.0</ele><time>2026-04-04T07:50:18.358Z</time></trkpt><trkpt lat="43.2943883" lon="12.0680314"><ele>740.6666666666666</ele><time>2026-04-04T07:50:19.357Z</time></trkpt><trkpt lat="43.2942074" lon="12.0679542"><ele>741.3333333333334</ele><time>2026-04-04T07:50:20.357Z</time></trkpt><trkpt lat="43.2940323" lon="12.0678735"><ele>742.0</ele><time>2026-04-04T07:50:21.357Z</time></trkpt><trkpt lat="43.2938535" lon="12.067797"><ele>735.6666666666667</ele><time>2026-04-04T07:50:22.357Z</time></trkpt><trkpt lat="43.2936924" lon="12.0677327"><ele>729.3333333333334</ele><time>2026-04-04T07:50:23.357Z</time></trkpt><trkpt lat="43.2935342" lon="12.0676649"><ele>723.0</ele><time>2026-04-04T07:50:24.357Z</time></trkpt><trkpt lat="43.2933731" lon="12.0675853"><ele>723.0</ele><time>2026-04-04T07:50:25.358Z</time></trkpt><trkpt lat="43.2932136" lon="12.0674987"><ele>723.0</ele><time>2026-04-04T07:50:26.357Z</time></trkpt><trkpt lat="43.293049" lon="12.0674036"><ele>723.0</ele><time>2026-04-04T07:50:27.357Z</time></trkpt><trkpt lat="43.2928962" lon="12.0673031"><ele>718.5</ele><time>2026-04-04T07:50:28.357Z</time></trkpt><trkpt lat="43.2927615" lon="12.0671947"><ele>714.0</ele><time>2026-04-04T07:50:29.357Z</time></trkpt><trkpt lat="43.2926412" lon="12.0670727"><ele>709.5</ele><time>2026-04-04T07:50:30.357Z</time></trkpt><trkpt lat="43.2925432" lon="12.066932"><ele>705.0</ele><time>2026-04-04T07:50:31.357Z</time></trkpt><trkpt lat="43.2924767" lon="12.0667431"><ele>710.3333333333334</ele><time>2026-04-04T07:50:32.357Z</time></trkpt><trkpt lat="43.2924314" lon="12.0665195"><ele>715.6666666666667</ele><time>2026-04-04T07:50:33.358Z</time></trkpt><trkpt lat="43.2924121" lon="12.066156"><ele>721.0</ele><time>2026-04-04T07:50:34.357Z</time></trkpt><trkpt lat="43.2923945" lon="12.0658818"><ele>725.6666666666667</ele><time>2026-04-04T07:50:35.357Z</time></trkpt><trkpt lat="43.2923813" lon="12.0656094"><ele>730.3333333333334</ele><time>2026-04-04T07:50:36.357Z</time></trkpt><trkpt lat="43.2923661" lon="12.0653378"><ele>735.0</ele><time>2026-04-04T07:50:37.357Z</time></trkpt><trkpt lat="43.2923371" lon="12.0650933"><ele>740.0</ele><time>2026-04-04T07:50:38.357Z</time></trkpt><trkpt lat="43.2923019" lon="12.0648685"><ele>745.0</ele><time>2026-04-04T07:50:39.357Z</time></trkpt><trkpt lat="43.2922383" lon="12.0646703"><ele>750.0</ele><time>2026-04-04T07:50:40.358Z</time></trkpt><trkpt lat="43.2921555" lon="12.0644784"><ele>739.0</ele><time>2026-04-04T07:50:41.357Z</time></trkpt><trkpt lat="43.2920704" lon="12.0642838"><ele>728.0</ele><time>2026-04-04T07:50:42.357Z</time></trkpt><trkpt lat="43.2919905" lon="12.0640556"><ele>717.0</ele><time>2026-04-04T07:50:43.357Z</time></trkpt><trkpt lat="43.2919251" lon="12.0637976"><ele>717.0</ele><time>2026-04-04T07:50:44.357Z</time></trkpt><trkpt lat="43.2918849" lon="12.0635165"><ele>717.0</ele><time>2026-04-04T07:50:45.357Z</time></trkpt><trkpt lat="43.2918485" lon="12.0632552"><ele>717.0</ele><time>2026-04-04T07:50:46.358Z</time></trkpt><trkpt lat="43.2918063" lon="12.0630268"><ele>720.3333333333334</ele><time>2026-04-04T07:50:47.357Z</time></trkpt><trkpt lat="43.291765" lon="12.0628165"><ele>723.6666666666667</ele><time>2026-04-04T07:50:48.357Z</time></trkpt><trkpt lat="43.2917359" lon="12.0626024"><ele>727.0</ele><time>2026-04-04T07:50:49.358Z</time></trkpt><trkpt lat="43.2917286" lon="12.0623947"><ele>728.0</ele><time>2026-04-04T07:50:50.357Z</time></trkpt><trkpt lat="43.2917457" lon="12.0621645"><ele>729.0</ele><time>2026-04-04T07:50:51.357Z</time></trkpt><trkpt lat="43.2917642" lon="12.0619336"><ele>730.0</ele><time>2026-04-04T07:50:52.357Z</time></trkpt><trkpt lat="43.2917953" lon="12.0616997"><ele>730.3333333333334</ele><time>2026-04-04T07:50:53.357Z</time></trkpt><trkpt lat="43.2918253" lon="12.0614921"><ele>730.6666666666666</ele><time>2026-04-04T07:50:54.357Z</time></trkpt><trkpt lat="43.2918572" lon="12.0613032"><ele>731.0</ele><time>2026-04-04T07:50:55.359Z</time></trkpt><trkpt lat="43.2918898" lon="12.0610951"><ele>731.0</ele><time>2026-04-04T07:50:56.357Z</time></trkpt><trkpt lat="43.2919132" lon="12.0609329"><ele>731.0</ele><time>2026-04-04T07:50:57.357Z</time></trkpt><trkpt lat="43.2919454" lon="12.0608352"><ele>731.0</ele><time>2026-04-04T07:50:58.359Z</time></trkpt><trkpt lat="43.2919668" lon="12.0607464"><ele>731.0</ele><time>2026-04-04T07:50:59.358Z</time></trkpt><trkpt lat="43.2919479" lon="12.0605934"><ele>731.0</ele><time>2026-04-04T07:51:01.358Z</time></trkpt><trkpt lat="43.2918946" lon="12.0605153"><ele>732.1999999999999</ele><time>2026-04-04T07:51:02.358Z</time></trkpt><trkpt lat="43.2918236" lon="12.060431"><ele>733.4</ele><time>2026-04-04T07:51:03.358Z</time></trkpt><trkpt lat="43.2917595" lon="12.060327"><ele>734.6</ele><time>2026-04-04T07:51:04.358Z</time></trkpt><trkpt lat="43.2917167" lon="12.060218"><ele>735.8</ele><time>2026-04-04T07:51:05.358Z</time></trkpt><trkpt lat="43.2916961" lon="12.0600509"><ele>737.0</ele><time>2026-04-04T07:51:06.358Z</time></trkpt><trkpt lat="43.2916889" lon="12.0598631"><ele>738.6666666666666</ele><time>2026-04-04T07:51:07.358Z</time></trkpt><trkpt lat="43.2917005" lon="12.0596539"><ele>740.3333333333334</ele><time>2026-04-04T07:51:08.358Z</time></trkpt><trkpt lat="43.2917073" lon="12.0594216"><ele>742.0</ele><time>2026-04-04T07:51:09.358Z</time></trkpt><trkpt lat="43.2916922" lon="12.0591747"><ele>743.0</ele><time>2026-04-04T07:51:10.358Z</time></trkpt><trkpt lat="43.2916568" lon="12.058917"><ele>744.0</ele><time>2026-04-04T07:51:11.358Z</time></trkpt><trkpt lat="43.291608" lon="12.0586613"><ele>745.0</ele><time>2026-04-04T07:51:12.359Z</time></trkpt><trkpt lat="43.2915708" lon="12.0584467"><ele>743.75</ele><time>2026-04-04T07:51:13.359Z</time></trkpt><trkpt lat="43.2915518" lon="12.0582478"><ele>742.5</ele><time>2026-04-04T07:51:14.358Z</time></trkpt><trkpt lat="43.2915486" lon="12.0580574"><ele>741.25</ele><time>2026-04-04T07:51:15.358Z</time></trkpt><trkpt lat="43.2915681" lon="12.0578909"><ele>740.0</ele><time>2026-04-04T07:51:16.358Z</time></trkpt><trkpt lat="43.2916162" lon="12.0577038"><ele>740.0</ele><time>2026-04-04T07:51:17.358Z</time></trkpt><trkpt lat="43.2916893" lon="12.0575392"><ele>740.0</ele><time>2026-04-04T07:51:18.358Z</time></trkpt><trkpt lat="43.291786" lon="12.0573917"><ele>740.0</ele><time>2026-04-04T07:51:19.359Z</time></trkpt><trkpt lat="43.2917359" lon="12.0626024"><ele>736.6666666666666</ele><time>2026-04-04T07:50:49.358Z</time></trkpt><trkpt lat="43.2917286" lon="12.0623947"><ele>733.3333333333334</ele><time>2026-04-04T07:50:50.357Z</time></trkpt><trkpt lat="43.2917457" lon="12.0621645"><ele>730.0</ele><time>2026-04-04T07:50:51.357Z</time></trkpt><trkpt lat="43.2917642" lon="12.0619336"><ele>730.0</ele><time>2026-04-04T07:50:52.357Z</time></trkpt><trkpt lat="43.2917953" lon="12.0616997"><ele>730.0</ele><time>2026-04-04T07:50:53.357Z</time></trkpt><trkpt lat="43.2918253" lon="12.0614921"><ele>730.0</ele><time>2026-04-04T07:50:54.357Z</time></trkpt><trkpt lat="43.2918572" lon="12.0613032"><ele>730.2</ele><time>2026-04-04T07:50:55.359Z</time></trkpt><trkpt lat="43.2918898" lon="12.0610951"><ele>730.4</ele><time>2026-04-04T07:50:56.357Z</time></trkpt><trkpt lat="43.2919132" lon="12.0609329"><ele>730.5999999999999</ele><time>2026-04-04T07:50:57.357Z</time></trkpt><trkpt lat="43.2919454" lon="12.0608352"><ele>730.8</ele><time>2026-04-04T07:50:58.359Z</time></trkpt><trkpt lat="43.2919668" lon="12.0607464"><ele>731.0</ele><time>2026-04-04T07:50:59.358Z</time></trkpt><trkpt lat="43.2919479" lon="12.0605934"><ele>732.1999999999999</ele><time>2026-04-04T07:51:01.358Z</time></trkpt><trkpt lat="43.2918946" lon="12.0605153"><ele>733.4</ele><time>2026-04-04T07:51:02.358Z</time></trkpt><trkpt lat="43.2918236" lon="12.060431"><ele>734.6</ele><time>2026-04-04T07:51:03.358Z</time></trkpt><trkpt lat="43.2917595" lon="12.060327"><ele>735.8</ele><time>2026-04-04T07:51:04.358Z</time></trkpt><trkpt lat="43.2917167" lon="12.060218"><ele>737.0</ele><time>2026-04-04T07:51:05.358Z</time></trkpt><trkpt lat="43.2916961" lon="12.0600509"><ele>738.6666666666666</ele><time>2026-04-04T07:51:06.358Z</time></trkpt><trkpt lat="43.2916889" lon="12.0598631"><ele>740.3333333333334</ele><time>2026-04-04T07:51:07.358Z</time></trkpt><trkpt lat="43.2917005" lon="12.0596539"><ele>742.0</ele><time>2026-04-04T07:51:08.358Z</time></trkpt><trkpt lat="43.2917073" lon="12.0594216"><ele>742.0</ele><time>2026-04-04T07:51:09.358Z</time></trkpt><trkpt lat="43.2916922" lon="12.0591747"><ele>742.0</ele><time>2026-04-04T07:51:10.358Z</time></trkpt><trkpt lat="43.2916568" lon="12.058917"><ele>742.0</ele><time>2026-04-04T07:51:11.358Z</time></trkpt><trkpt lat="43.291608" lon="12.0586613"><ele>741.5</ele><time>2026-04-04T07:51:12.359Z</time></trkpt><trkpt lat="43.2915708" lon="12.0584467"><ele>741.0</ele><time>2026-04-04T07:51:13.359Z</time></trkpt><trkpt lat="43.2915518" lon="12.0582478"><ele>740.5</ele><time>2026-04-04T07:51:14.358Z</time></trkpt><trkpt lat="43.2915486" lon="12.0580574"><ele>740.0</ele><time>2026-04-04T07:51:15.358Z</time></trkpt><trkpt lat="43.2915681" lon="12.0578909"><ele>740.0</ele><time>2026-04-04T07:51:16.358Z</time></trkpt><trkpt lat="43.2916162" lon="12.0577038"><ele>740.0</ele><time>2026-04-04T07:51:17.358Z</time></trkpt><trkpt lat="43.2916893" lon="12.0575392"><ele>740.0</ele><time>2026-04-04T07:51:18.358Z</time></trkpt><trkpt lat="43.291786" lon="12.0573917"><ele>740.0</ele><time>2026-04-04T07:51:19.359Z</time></trkpt><trkpt lat="43.2918925" lon="12.0572837"><ele>742.25</ele><time>2026-04-04T07:51:20.358Z</time></trkpt><trkpt lat="43.2920142" lon="12.057225"><ele>744.5</ele><time>2026-04-04T07:51:21.359Z</time></trkpt><trkpt lat="43.2921405" lon="12.0571702"><ele>746.75</ele><time>2026-04-04T07:51:22.358Z</time></trkpt><trkpt lat="43.2922334" lon="12.0571084"><ele>749.0</ele><time>2026-04-04T07:51:23.358Z</time></trkpt><trkpt lat="43.2922923" lon="12.057018"><ele>750.2</ele><time>2026-04-04T07:51:24.358Z</time></trkpt><trkpt lat="43.2923181" lon="12.0569241"><ele>751.4000000000001</ele><time>2026-04-04T07:51:25.358Z</time></trkpt><trkpt lat="43.2923038" lon="12.0567321"><ele>752.6</ele><time>2026-04-04T07:51:27.358Z</time></trkpt><trkpt lat="43.2922813" lon="12.0566087"><ele>753.8</ele><time>2026-04-04T07:51:28.358Z</time></trkpt><trkpt lat="43.2922586" lon="12.0565252"><ele>755.0</ele><time>2026-04-04T07:51:29.359Z</time></trkpt><trkpt lat="43.2922112" lon="12.0563847"><ele>755.0</ele><time>2026-04-04T07:51:30.359Z</time></trkpt><trkpt lat="43.2921426" lon="12.056236"><ele>755.0</ele><time>2026-04-04T07:51:31.358Z</time></trkpt><trkpt lat="43.2920361" lon="12.0561167"><ele>755.0</ele><time>2026-04-04T07:51:32.358Z</time></trkpt><trkpt lat="43.2919318" lon="12.0560638"><ele>755.0</ele><time>2026-04-04T07:51:33.358Z</time></trkpt><trkpt lat="43.2918276" lon="12.0559594"><ele>755.0</ele><time>2026-04-04T07:51:34.358Z</time></trkpt><trkpt lat="43.2917615" lon="12.0559173"><ele>755.0</ele><time>2026-04-04T07:51:35.358Z</time></trkpt><trkpt lat="43.2916281" lon="12.0559014"><ele>755.0</ele><time>2026-04-04T07:51:37.358Z</time></trkpt><trkpt lat="43.2915581" lon="12.0558763"><ele>755.0</ele><time>2026-04-04T07:51:38.358Z</time></trkpt><trkpt lat="43.2915336" lon="12.0557687"><ele>755.0</ele><time>2026-04-04T07:51:39.358Z</time></trkpt><trkpt lat="43.2915516" lon="12.0556297"><ele>754.6666666666666</ele><time>2026-04-04T07:51:40.359Z</time></trkpt><trkpt lat="43.291586" lon="12.0554545"><ele>754.3333333333334</ele><time>2026-04-04T07:51:41.359Z</time></trkpt><trkpt lat="43.2916482" lon="12.0552331"><ele>754.0</ele><time>2026-04-04T07:51:42.358Z</time></trkpt><trkpt lat="43.2917114" lon="12.0550152"><ele>755.3333333333334</ele><time>2026-04-04T07:51:43.358Z</time></trkpt><trkpt lat="43.2917656" lon="12.0547905"><ele>756.6666666666666</ele><time>2026-04-04T07:51:44.358Z</time></trkpt><trkpt lat="43.2917962" lon="12.0545873"><ele>758.0</ele><time>2026-04-04T07:51:45.358Z</time></trkpt><trkpt lat="43.2918055" lon="12.0544078"><ele>758.0</ele><time>2026-04-04T07:51:46.358Z</time></trkpt><trkpt lat="43.2918038" lon="12.054246"><ele>758.0</ele><time>2026-04-04T07:51:47.358Z</time></trkpt><trkpt lat="43.2917933" lon="12.0541145"><ele>758.0</ele><time>2026-04-04T07:51:48.358Z</time></trkpt><trkpt lat="43.2917914" lon="12.0540276"><ele>758.0</ele><time>2026-04-04T07:51:49.36Z</time></trkpt><trkpt lat="43.2917595" lon="12.05419"><ele>758.0</ele><time>2026-04-04T07:53:17.36Z</time></trkpt><trkpt lat="43.2917532" lon="12.0540913"><ele>758.8</ele><time>2026-04-04T07:54:04.36Z</time></trkpt><trkpt lat="43.2916998" lon="12.0539216"><ele>759.5999999999999</ele><time>2026-04-04T07:54:06.36Z</time></trkpt><trkpt lat="43.2916651" lon="12.0538099"><ele>760.4000000000001</ele><time>2026-04-04T07:54:07.36Z</time></trkpt><trkpt lat="43.2916307" lon="12.0536887"><ele>761.2</ele><time>2026-04-04T07:54:08.362Z</time></trkpt><trkpt lat="43.2916232" lon="12.0535617"><ele>762.0</ele><time>2026-04-04T07:54:09.362Z</time></trkpt><trkpt lat="43.2916417" lon="12.0534267"><ele>760.0</ele><time>2026-04-04T07:54:10.362Z</time></trkpt><trkpt lat="43.2916802" lon="12.0532791"><ele>758.0</ele><time>2026-04-04T07:54:11.361Z</time></trkpt><trkpt lat="43.2917357" lon="12.0531335"><ele>756.0</ele><time>2026-04-04T07:54:12.361Z</time></trkpt><trkpt lat="43.2917989" lon="12.0529999"><ele>754.0</ele><time>2026-04-04T07:54:13.361Z</time></trkpt><trkpt lat="43.2918649" lon="12.0528647"><ele>754.0</ele><time>2026-04-04T07:54:14.361Z</time></trkpt><trkpt lat="43.2919385" lon="12.0527385"><ele>754.0</ele><time>2026-04-04T07:54:15.361Z</time></trkpt><trkpt lat="43.2920215" lon="12.0526123"><ele>754.0</ele><time>2026-04-04T07:54:16.361Z</time></trkpt><trkpt lat="43.292104" lon="12.0525043"><ele>754.0</ele><time>2026-04-04T07:54:17.361Z</time></trkpt><trkpt lat="43.2921976" lon="12.0524066"><ele>752.0</ele><time>2026-04-04T07:54:18.362Z</time></trkpt><trkpt lat="43.2923108" lon="12.0523209"><ele>750.0</ele><time>2026-04-04T07:54:19.361Z</time></trkpt><trkpt lat="43.2924304" lon="12.0522605"><ele>748.0</ele><time>2026-04-04T07:54:20.361Z</time></trkpt><trkpt lat="43.2925697" lon="12.0522418"><ele>746.0</ele><time>2026-04-04T07:54:21.362Z</time></trkpt><trkpt lat="43.2927056" lon="12.0522484"><ele>746.0</ele><time>2026-04-04T07:54:22.361Z</time></trkpt><trkpt lat="43.2928389" lon="12.0522795"><ele>746.0</ele><time>2026-04-04T07:54:23.361Z</time></trkpt><trkpt lat="43.2929759" lon="12.0523201"><ele>746.0</ele><time>2026-04-04T07:54:24.361Z</time></trkpt><trkpt lat="43.2931278" lon="12.0523419"><ele>746.0</ele><time>2026-04-04T07:54:25.361Z</time></trkpt><trkpt lat="43.2932894" lon="12.0523271"><ele>750.6666666666666</ele><time>2026-04-04T07:54:26.361Z</time></trkpt><trkpt lat="43.29345" lon="12.0522797"><ele>755.3333333333334</ele><time>2026-04-04T07:54:27.361Z</time></trkpt><trkpt lat="43.2935958" lon="12.0521705"><ele>760.0</ele><time>2026-04-04T07:54:28.362Z</time></trkpt><trkpt lat="43.2937499" lon="12.052052"><ele>762.0</ele><time>2026-04-04T07:54:29.361Z</time></trkpt><trkpt lat="43.2917532" lon="12.0540913"><ele>762.0</ele><time>2026-04-04T07:54:04.36Z</time></trkpt><trkpt lat="43.2916998" lon="12.0539216"><ele>762.0</ele><time>2026-04-04T07:54:06.36Z</time></trkpt><trkpt lat="43.2916651" lon="12.0538099"><ele>762.0</ele><time>2026-04-04T07:54:07.36Z</time></trkpt><trkpt lat="43.2916307" lon="12.0536887"><ele>762.0</ele><time>2026-04-04T07:54:08.362Z</time></trkpt><trkpt lat="43.2916232" lon="12.0535617"><ele>762.0</ele><time>2026-04-04T07:54:09.362Z</time></trkpt><trkpt lat="43.2916417" lon="12.0534267"><ele>760.0</ele><time>2026-04-04T07:54:10.362Z</time></trkpt><trkpt lat="43.2916802" lon="12.0532791"><ele>758.0</ele><time>2026-04-04T07:54:11.361Z</time></trkpt><trkpt lat="43.2917357" lon="12.0531335"><ele>756.0</ele><time>2026-04-04T07:54:12.361Z</time></trkpt><trkpt lat="43.2917989" lon="12.0529999"><ele>754.0</ele><time>2026-04-04T07:54:13.361Z</time></trkpt><trkpt lat="43.2918649" lon="12.0528647"><ele>754.0</ele><time>2026-04-04T07:54:14.361Z</time></trkpt><trkpt lat="43.2919385" lon="12.0527385"><ele>754.0</ele><time>2026-04-04T07:54:15.361Z</time></trkpt><trkpt lat="43.2920215" lon="12.0526123"><ele>754.0</ele><time>2026-04-04T07:54:16.361Z</time></trkpt><trkpt lat="43.292104" lon="12.0525043"><ele>754.0</ele><time>2026-04-04T07:54:17.361Z</time></trkpt><trkpt lat="43.2921976" lon="12.0524066"><ele>752.0</ele><time>2026-04-04T07:54:18.362Z</time></trkpt><trkpt lat="43.2923108" lon="12.0523209"><ele>750.0</ele><time>2026-04-04T07:54:19.361Z</time></trkpt><trkpt lat="43.2924304" lon="12.0522605"><ele>748.0</ele><time>2026-04-04T07:54:20.361Z</time></trkpt><trkpt lat="43.2925697" lon="12.0522418"><ele>746.0</ele><time>2026-04-04T07:54:21.362Z</time></trkpt><trkpt lat="43.2927056" lon="12.0522484"><ele>746.0</ele><time>2026-04-04T07:54:22.361Z</time></trkpt><trkpt lat="43.2928389" lon="12.0522795"><ele>746.0</ele><time>2026-04-04T07:54:23.361Z</time></trkpt><trkpt lat="43.2929759" lon="12.0523201"><ele>746.0</ele><time>2026-04-04T07:54:24.361Z</time></trkpt><trkpt lat="43.2931278" lon="12.0523419"><ele>746.0</ele><time>2026-04-04T07:54:25.361Z</time></trkpt><trkpt lat="43.2932894" lon="12.0523271"><ele>750.6666666666666</ele><time>2026-04-04T07:54:26.361Z</time></trkpt><trkpt lat="43.29345" lon="12.0522797"><ele>755.3333333333334</ele><time>2026-04-04T07:54:27.361Z</time></trkpt><trkpt lat="43.2935958" lon="12.0521705"><ele>760.0</ele><time>2026-04-04T07:54:28.362Z</time></trkpt><trkpt lat="43.2937499" lon="12.052052"><ele>760.0</ele><time>2026-04-04T07:54:29.361Z</time></trkpt><trkpt lat="43.2938679" lon="12.0519172"><ele>760.0</ele><time>2026-04-04T07:54:30.362Z</time></trkpt><trkpt lat="43.2939722" lon="12.0518096"><ele>760.0</ele><time>2026-04-04T07:54:31.361Z</time></trkpt><trkpt lat="43.2940785" lon="12.0517306"><ele>760.0</ele><time>2026-04-04T07:54:32.361Z</time></trkpt><trkpt lat="43.2941756" lon="12.0516805"><ele>763.75</ele><time>2026-04-04T07:54:33.361Z</time></trkpt><trkpt lat="43.2942934" lon="12.0516617"><ele>767.5</ele><time>2026-04-04T07:54:34.361Z</time></trkpt><trkpt lat="43.2944363" lon="12.0516461"><ele>771.25</ele><time>2026-04-04T07:54:35.361Z</time></trkpt><trkpt lat="43.2945967" lon="12.0516241"><ele>775.0</ele><time>2026-04-04T07:54:36.361Z</time></trkpt><trkpt lat="43.2947901" lon="12.0516094"><ele>775.0</ele><time>2026-04-04T07:54:37.361Z</time></trkpt><trkpt lat="43.2949815" lon="12.0515713"><ele>775.0</ele><time>2026-04-04T07:54:38.361Z</time></trkpt><trkpt lat="43.2951439" lon="12.0515111"><ele>775.0</ele><time>2026-04-04T07:54:39.361Z</time></trkpt><trkpt lat="43.2952808" lon="12.0514393"><ele>775.0</ele><time>2026-04-04T07:54:40.361Z</time></trkpt><trkpt lat="43.2953708" lon="12.0513271"><ele>775.0</ele><time>2026-04-04T07:54:41.361Z</time></trkpt><trkpt lat="43.2954521" lon="12.0512073"><ele>775.0</ele><time>2026-04-04T07:54:42.361Z</time></trkpt><trkpt lat="43.2955188" lon="12.0510681"><ele>775.0</ele><time>2026-04-04T07:54:43.362Z</time></trkpt><trkpt lat="43.2955614" lon="12.0509099"><ele>777.0</ele><time>2026-04-04T07:54:44.361Z</time></trkpt><trkpt lat="43.2955956" lon="12.0507368"><ele>779.0</ele><time>2026-04-04T07:54:45.362Z</time></trkpt><trkpt lat="43.2956556" lon="12.0505545"><ele>781.0</ele><time>2026-04-04T07:54:46.361Z</time></trkpt><trkpt lat="43.2957403" lon="12.0503801"><ele>783.0</ele><time>2026-04-04T07:54:47.361Z</time></trkpt><trkpt lat="43.2958442" lon="12.0502236"><ele>783.0</ele><time>2026-04-04T07:54:48.361Z</time></trkpt><trkpt lat="43.2959578" lon="12.0500752"><ele>783.0</ele><time>2026-04-04T07:54:49.362Z</time></trkpt><trkpt lat="43.2960818" lon="12.0499319"><ele>783.0</ele><time>2026-04-04T07:54:50.362Z</time></trkpt><trkpt lat="43.2962113" lon="12.0497865"><ele>786.6666666666667</ele><time>2026-04-04T07:54:51.361Z</time></trkpt><trkpt lat="43.2963528" lon="12.0496434"><ele>790.3333333333334</ele><time>2026-04-04T07:54:52.361Z</time></trkpt><trkpt lat="43.2965129" lon="12.0495152"><ele>794.0</ele><time>2026-04-04T07:54:53.361Z</time></trkpt><trkpt lat="43.2966696" lon="12.0494083"><ele>794.0</ele><time>2026-04-04T07:54:54.361Z</time></trkpt><trkpt lat="43.2968183" lon="12.0493009"><ele>794.0</ele><time>2026-04-04T07:54:55.361Z</time></trkpt><trkpt lat="43.2969427" lon="12.049222"><ele>794.0</ele><time>2026-04-04T07:54:56.361Z</time></trkpt><trkpt lat="43.2970491" lon="12.0491482"><ele>794.0</ele><time>2026-04-04T07:54:57.361Z</time></trkpt><trkpt lat="43.2971325" lon="12.0490633"><ele>792.0</ele><time>2026-04-04T07:54:58.361Z</time></trkpt><trkpt lat="43.2971992" lon="12.0489637"><ele>790.0</ele><time>2026-04-04T07:54:59.361Z</time></trkpt><trkpt lat="43.2972631" lon="12.0488336"><ele>788.0</ele><time>2026-04-04T07:55:00.361Z</time></trkpt><trkpt lat="43.2973309" lon="12.0486814"><ele>786.0</ele><time>2026-04-04T07:55:01.361Z</time></trkpt><trkpt lat="43.2973588" lon="12.0485091"><ele>790.5</ele><time>2026-04-04T07:55:02.361Z</time></trkpt><trkpt lat="43.2973804" lon="12.0483335"><ele>795.0</ele><time>2026-04-04T07:55:03.361Z</time></trkpt><trkpt lat="43.2974283" lon="12.0481403"><ele>799.5</ele><time>2026-04-04T07:55:04.361Z</time></trkpt><trkpt lat="43.2975103" lon="12.0479489"><ele>804.0</ele><time>2026-04-04T07:55:05.362Z</time></trkpt><trkpt lat="43.2975978" lon="12.0477484"><ele>804.0</ele><time>2026-04-04T07:55:06.361Z</time></trkpt><trkpt lat="43.2976905" lon="12.0475548"><ele>804.0</ele><time>2026-04-04T07:55:07.361Z</time></trkpt><trkpt lat="43.2977902" lon="12.0473676"><ele>804.0</ele><time>2026-04-04T07:55:08.361Z</time></trkpt><trkpt lat="43.2978915" lon="12.0471891"><ele>803.6666666666667</ele><time>2026-04-04T07:55:09.361Z</time></trkpt><trkpt lat="43.2980018" lon="12.0470239"><ele>803.3333333333334</ele><time>2026-04-04T07:55:10.362Z</time></trkpt><trkpt lat="43.2981094" lon="12.0468669"><ele>803.0</ele><time>2026-04-04T07:55:11.362Z</time></trkpt><trkpt lat="43.2982711" lon="12.0467473"><ele>803.0</ele><time>2026-04-04T07:55:12.362Z</time></trkpt><trkpt lat="43.2984009" lon="12.0466386"><ele>803.0</ele><time>2026-04-04T07:55:13.362Z</time></trkpt><trkpt lat="43.2985193" lon="12.0465539"><ele>803.0</ele><time>2026-04-04T07:55:14.362Z</time></trkpt><trkpt lat="43.2986239" lon="12.0464762"><ele>803.0</ele><time>2026-04-04T07:55:15.362Z</time></trkpt><trkpt lat="43.2987035" lon="12.0464125"><ele>801.5</ele><time>2026-04-04T07:55:16.362Z</time></trkpt><trkpt lat="43.2988201" lon="12.0463014"><ele>800.0</ele><time>2026-04-04T07:55:18.362Z</time></trkpt><trkpt lat="43.2988982" lon="12.0461801"><ele>798.5</ele><time>2026-04-04T07:55:19.362Z</time></trkpt><trkpt lat="43.2989554" lon="12.046065"><ele>797.0</ele><time>2026-04-04T07:55:20.362Z</time></trkpt><trkpt lat="43.2989729" lon="12.0459284"><ele>802.6</ele><time>2026-04-04T07:55:21.363Z</time></trkpt><trkpt lat="43.2989824" lon="12.0457842"><ele>808.2</ele><time>2026-04-04T07:55:22.363Z</time></trkpt><trkpt lat="43.2989827" lon="12.045654"><ele>813.8</ele><time>2026-04-04T07:55:23.362Z</time></trkpt><trkpt lat="43.2989889" lon="12.04551"><ele>819.4</ele><time>2026-04-04T07:55:24.362Z</time></trkpt><trkpt lat="43.2990049" lon="12.0453652"><ele>825.0</ele><time>2026-04-04T07:55:25.362Z</time></trkpt><trkpt lat="43.2990474" lon="12.0452109"><ele>825.0</ele><time>2026-04-04T07:55:26.362Z</time></trkpt><trkpt lat="43.2991091" lon="12.045064"><ele>825.0</ele><time>2026-04-04T07:55:27.362Z</time></trkpt><trkpt lat="43.299257" lon="12.0448224"><ele>825.0</ele><time>2026-04-04T07:55:29.362Z</time></trkpt><trkpt lat="43.2993088" lon="12.0446957"><ele>823.8</ele><time>2026-04-04T07:55:30.362Z</time></trkpt><trkpt lat="43.2993261" lon="12.0445968"><ele>822.6</ele><time>2026-04-04T07:55:31.362Z</time></trkpt><trkpt lat="43.299329" lon="12.0444704"><ele>821.4000000000001</ele><time>2026-04-04T07:55:32.362Z</time></trkpt><trkpt lat="43.2993464" lon="12.0443043"><ele>820.2</ele><time>2026-04-04T07:55:33.362Z</time></trkpt><trkpt lat="43.2993974" lon="12.0441276"><ele>819.0</ele><time>2026-04-04T07:55:34.362Z</time></trkpt><trkpt lat="43.2994758" lon="12.0439351"><ele>815.6666666666667</ele><time>2026-04-04T07:55:35.363Z</time></trkpt><trkpt lat="43.2995505" lon="12.043743"><ele>812.3333333333334</ele><time>2026-04-04T07:55:36.362Z</time></trkpt><trkpt lat="43.2996013" lon="12.0435448"><ele>809.0</ele><time>2026-04-04T07:55:37.363Z</time></trkpt><trkpt lat="43.299633" lon="12.0433354"><ele>810.6666666666667</ele><time>2026-04-04T07:55:38.362Z</time></trkpt><trkpt lat="43.2996232" lon="12.0431157"><ele>812.3333333333333</ele><time>2026-04-04T07:55:39.362Z</time></trkpt><trkpt lat="43.299604" lon="12.0428942"><ele>814.0</ele><time>2026-04-04T07:55:40.362Z</time></trkpt><trkpt lat="43.2995649" lon="12.0426775"><ele>818.3333333333333</ele><time>2026-04-04T07:55:41.362Z</time></trkpt><trkpt lat="43.2995212" lon="12.0424623"><ele>822.6666666666667</ele><time>2026-04-04T07:55:42.362Z</time></trkpt><trkpt lat="43.2994417" lon="12.0422511"><ele>827.0</ele><time>2026-04-04T07:55:43.362Z</time></trkpt><trkpt lat="43.2993534" lon="12.042036"><ele>827.0</ele><time>2026-04-04T07:55:44.363Z</time></trkpt><trkpt lat="43.2992638" lon="12.0418185"><ele>827.0</ele><time>2026-04-04T07:55:45.363Z</time></trkpt><trkpt lat="43.2991799" lon="12.0416068"><ele>827.0</ele><time>2026-04-04T07:55:46.362Z</time></trkpt><trkpt lat="43.2990964" lon="12.0413993"><ele>828.25</ele><time>2026-04-04T07:55:47.362Z</time></trkpt><trkpt lat="43.2990328" lon="12.0412064"><ele>829.5</ele><time>2026-04-04T07:55:48.362Z</time></trkpt><trkpt lat="43.2989696" lon="12.0410236"><ele>830.75</ele><time>2026-04-04T07:55:49.362Z</time></trkpt><trkpt lat="43.2989076" lon="12.0408574"><ele>832.0</ele><time>2026-04-04T07:55:50.362Z</time></trkpt><trkpt lat="43.2988396" lon="12.0407081"><ele>829.5</ele><time>2026-04-04T07:55:51.362Z</time></trkpt><trkpt lat="43.2987696" lon="12.0405724"><ele>827.0</ele><time>2026-04-04T07:55:52.362Z</time></trkpt><trkpt lat="43.2987044" lon="12.0404422"><ele>824.5</ele><time>2026-04-04T07:55:53.362Z</time></trkpt><trkpt lat="43.2986445" lon="12.0403045"><ele>822.0</ele><time>2026-04-04T07:55:54.362Z</time></trkpt><trkpt lat="43.2985881" lon="12.0401626"><ele>822.0</ele><time>2026-04-04T07:55:55.362Z</time></trkpt><trkpt lat="43.2985243" lon="12.0399983"><ele>822.0</ele><time>2026-04-04T07:55:56.362Z</time></trkpt><trkpt lat="43.298451" lon="12.0398258"><ele>822.0</ele><time>2026-04-04T07:55:57.363Z</time></trkpt><trkpt lat="43.2983392" lon="12.0396684"><ele>822.0</ele><time>2026-04-04T07:55:58.362Z</time></trkpt><trkpt lat="43.2982272" lon="12.0395129"><ele>826.3333333333333</ele><time>2026-04-04T07:55:59.362Z</time></trkpt><trkpt lat="43.2981184" lon="12.0393595"><ele>830.6666666666666</ele><time>2026-04-04T07:56:00.363Z</time></trkpt><trkpt lat="43.2980012" lon="12.0392093"><ele>835.0</ele><time>2026-04-04T07:56:01.362Z</time></trkpt><trkpt lat="43.2978759" lon="12.039106"><ele>843.0</ele><time>2026-04-04T07:56:02.362Z</time></trkpt><trkpt lat="43.2977516" lon="12.0390225"><ele>851.0</ele><time>2026-04-04T07:56:03.362Z</time></trkpt><trkpt lat="43.2976353" lon="12.0389508"><ele>859.0</ele><time>2026-04-04T07:56:04.362Z</time></trkpt><trkpt lat="43.2975273" lon="12.0389288"><ele>867.0</ele><time>2026-04-04T07:56:05.362Z</time></trkpt><trkpt lat="43.2974223" lon="12.0389692"><ele>867.0</ele><time>2026-04-04T07:56:06.362Z</time></trkpt><trkpt lat="43.2973275" lon="12.0390559"><ele>867.0</ele><time>2026-04-04T07:56:07.362Z</time></trkpt><trkpt lat="43.2972639" lon="12.0391906"><ele>867.0</ele><time>2026-04-04T07:56:08.362Z</time></trkpt><trkpt lat="43.2972131" lon="12.0393466"><ele>867.0</ele><time>2026-04-04T07:56:09.363Z</time></trkpt><trkpt lat="43.2971689" lon="12.0395258"><ele>861.8</ele><time>2026-04-04T07:56:10.362Z</time></trkpt><trkpt lat="43.2971172" lon="12.0396691"><ele>856.6</ele><time>2026-04-04T07:56:11.364Z</time></trkpt><trkpt lat="43.2970565" lon="12.0397553"><ele>851.4</ele><time>2026-04-04T07:56:12.363Z</time></trkpt><trkpt lat="43.2969893" lon="12.0397778"><ele>846.1999999999999</ele><time>2026-04-04T07:56:13.363Z</time></trkpt><trkpt lat="43.296885" lon="12.0397238"><ele>841.0</ele><time>2026-04-04T07:56:14.363Z</time></trkpt><trkpt lat="43.296781" lon="12.039605"><ele>841.0</ele><time>2026-04-04T07:56:15.363Z</time></trkpt><trkpt lat="43.2966465" lon="12.0394639"><ele>841.0</ele><time>2026-04-04T07:56:16.363Z</time></trkpt><trkpt lat="43.296503" lon="12.0393502"><ele>841.0</ele><time>2026-04-04T07:56:17.363Z</time></trkpt><trkpt lat="43.2963311" lon="12.0392857"><ele>834.6666666666666</ele><time>2026-04-04T07:56:18.363Z</time></trkpt><trkpt lat="43.2961484" lon="12.0392223"><ele>828.3333333333333</ele><time>2026-04-04T07:56:19.363Z</time></trkpt><trkpt lat="43.2959803" lon="12.0391415"><ele>822.0</ele><time>2026-04-04T07:56:20.363Z</time></trkpt><trkpt lat="43.2958296" lon="12.0390496"><ele>833.0</ele><time>2026-04-04T07:56:21.364Z</time></trkpt><trkpt lat="43.2956872" lon="12.0389627"><ele>844.0</ele><time>2026-04-04T07:56:22.363Z</time></trkpt><trkpt lat="43.2955418" lon="12.0389046"><ele>855.0</ele><time>2026-04-04T07:56:23.364Z</time></trkpt><trkpt lat="43.2953917" lon="12.0388547"><ele>855.0</ele><time>2026-04-04T07:56:24.363Z</time></trkpt><trkpt lat="43.2952501" lon="12.038832"><ele>855.0</ele><time>2026-04-04T07:56:25.363Z</time></trkpt><trkpt lat="43.2951197" lon="12.0388179"><ele>855.0</ele><time>2026-04-04T07:56:26.363Z</time></trkpt><trkpt lat="43.2949968" lon="12.0388202"><ele>855.0</ele><time>2026-04-04T07:56:27.363Z</time></trkpt><trkpt lat="43.2948806" lon="12.0388982"><ele>851.6666666666667</ele><time>2026-04-04T07:56:28.363Z</time></trkpt><trkpt lat="43.2947477" lon="12.0390006"><ele>848.3333333333334</ele><time>2026-04-04T07:56:29.363Z</time></trkpt><trkpt lat="43.294606" lon="12.0390903"><ele>845.0</ele><time>2026-04-04T07:56:30.363Z</time></trkpt><trkpt lat="43.2944623" lon="12.039172"><ele>839.75</ele><time>2026-04-04T07:56:31.363Z</time></trkpt><trkpt lat="43.2943249" lon="12.0392642"><ele>834.5</ele><time>2026-04-04T07:56:32.364Z</time></trkpt><trkpt lat="43.2942237" lon="12.0393918"><ele>829.25</ele><time>2026-04-04T07:56:33.363Z</time></trkpt><trkpt lat="43.2941168" lon="12.0394965"><ele>824.0</ele><time>2026-04-04T07:56:34.364Z</time></trkpt><trkpt lat="43.2940104" lon="12.0395787"><ele>820.25</ele><time>2026-04-04T07:56:35.363Z</time></trkpt><trkpt lat="43.2938715" lon="12.0395742"><ele>816.5</ele><time>2026-04-04T07:56:36.363Z</time></trkpt><trkpt lat="43.2937391" lon="12.0395508"><ele>812.75</ele><time>2026-04-04T07:56:37.364Z</time></trkpt><trkpt lat="43.2936146" lon="12.0395144"><ele>809.0</ele><time>2026-04-04T07:56:38.363Z</time></trkpt><trkpt lat="43.2935167" lon="12.0394311"><ele>809.0</ele><time>2026-04-04T07:56:39.363Z</time></trkpt><trkpt lat="43.2934271" lon="12.0393067"><ele>809.0</ele><time>2026-04-04T07:56:40.363Z</time></trkpt><trkpt lat="43.2933423" lon="12.039125"><ele>809.0</ele><time>2026-04-04T07:56:41.364Z</time></trkpt><trkpt lat="43.2932927" lon="12.0388997"><ele>811.0</ele><time>2026-04-04T07:56:42.364Z</time></trkpt><trkpt lat="43.293261" lon="12.038671"><ele>813.0</ele><time>2026-04-04T07:56:43.364Z</time></trkpt><trkpt lat="43.2932493" lon="12.0384533"><ele>815.0</ele><time>2026-04-04T07:56:44.363Z</time></trkpt><trkpt lat="43.2932467" lon="12.0382397"><ele>815.5</ele><time>2026-04-04T07:56:45.363Z</time></trkpt><trkpt lat="43.2932439" lon="12.0380332"><ele>816.0</ele><time>2026-04-04T07:56:46.363Z</time></trkpt><trkpt lat="43.2932359" lon="12.0378328"><ele>816.5</ele><time>2026-04-04T07:56:47.364Z</time></trkpt><trkpt lat="43.29321" lon="12.0376349"><ele>817.0</ele><time>2026-04-04T07:56:48.363Z</time></trkpt><trkpt lat="43.2931563" lon="12.0374382"><ele>815.0</ele><time>2026-04-04T07:56:49.363Z</time></trkpt><trkpt lat="43.2930932" lon="12.0372409"><ele>813.0</ele><time>2026-04-04T07:56:50.363Z</time></trkpt><trkpt lat="43.2930074" lon="12.0370598"><ele>811.0</ele><time>2026-04-04T07:56:51.363Z</time></trkpt><trkpt lat="43.2929178" lon="12.0368908"><ele>811.0</ele><time>2026-04-04T07:56:52.363Z</time></trkpt><trkpt lat="43.2928054" lon="12.0367619"><ele>811.0</ele><time>2026-04-04T07:56:53.363Z</time></trkpt><trkpt lat="43.2926871" lon="12.0366381"><ele>811.0</ele><time>2026-04-04T07:56:54.363Z</time></trkpt><trkpt lat="43.2925596" lon="12.0365467"><ele>811.0</ele><time>2026-04-04T07:56:55.364Z</time></trkpt><trkpt lat="43.2924164" lon="12.0364704"><ele>813.5</ele><time>2026-04-04T07:56:56.363Z</time></trkpt><trkpt lat="43.2922655" lon="12.0364037"><ele>816.0</ele><time>2026-04-04T07:56:57.363Z</time></trkpt><trkpt lat="43.2921398" lon="12.03637"><ele>818.5</ele><time>2026-04-04T07:56:58.363Z</time></trkpt><trkpt lat="43.2920115" lon="12.0363678"><ele>821.0</ele><time>2026-04-04T07:56:59.364Z</time></trkpt><trkpt lat="43.291887" lon="12.036384"><ele>821.0</ele><time>2026-04-04T07:57:00.363Z</time></trkpt><trkpt lat="43.2917548" lon="12.0363895"><ele>821.0</ele><time>2026-04-04T07:57:01.364Z</time></trkpt><trkpt lat="43.2916269" lon="12.0363857"><ele>821.0</ele><time>2026-04-04T07:57:02.363Z</time></trkpt><trkpt lat="43.2915014" lon="12.0363752"><ele>821.0</ele><time>2026-04-04T07:57:03.363Z</time></trkpt><trkpt lat="43.2913698" lon="12.0363137"><ele>818.0</ele><time>2026-04-04T07:57:04.363Z</time></trkpt><trkpt lat="43.2912369" lon="12.036218"><ele>815.0</ele><time>2026-04-04T07:57:05.363Z</time></trkpt><trkpt lat="43.2911281" lon="12.0361156"><ele>812.0</ele><time>2026-04-04T07:57:06.363Z</time></trkpt><trkpt lat="43.2910061" lon="12.0360177"><ele>809.0</ele><time>2026-04-04T07:57:07.363Z</time></trkpt><trkpt lat="43.2908685" lon="12.0359669"><ele>809.0</ele><time>2026-04-04T07:57:08.364Z</time></trkpt><trkpt lat="43.2907008" lon="12.0359579"><ele>809.0</ele><time>2026-04-04T07:57:09.363Z</time></trkpt><trkpt lat="43.2905188" lon="12.0359386"><ele>809.0</ele><time>2026-04-04T07:57:10.364Z</time></trkpt><trkpt lat="43.29034" lon="12.0359122"><ele>804.0</ele><time>2026-04-04T07:57:11.363Z</time></trkpt><trkpt lat="43.290167" lon="12.035897"><ele>799.0</ele><time>2026-04-04T07:57:12.363Z</time></trkpt><trkpt lat="43.2900008" lon="12.0358759"><ele>794.0</ele><time>2026-04-04T07:57:13.363Z</time></trkpt><trkpt lat="43.2898368" lon="12.0358437"><ele>795.0</ele><time>2026-04-04T07:57:14.365Z</time></trkpt><trkpt lat="43.2896803" lon="12.0357892"><ele>796.0</ele><time>2026-04-04T07:57:15.364Z</time></trkpt><trkpt lat="43.2895495" lon="12.0357002"><ele>797.0</ele><time>2026-04-04T07:57:16.364Z</time></trkpt><trkpt lat="43.2894151" lon="12.0356112"><ele>797.0</ele><time>2026-04-04T07:57:17.364Z</time></trkpt><trkpt lat="43.2892857" lon="12.0354949"><ele>797.0</ele><time>2026-04-04T07:57:18.364Z</time></trkpt><trkpt lat="43.2891902" lon="12.0353526"><ele>797.0</ele><time>2026-04-04T07:57:19.364Z</time></trkpt><trkpt lat="43.2890955" lon="12.0352212"><ele>797.0</ele><time>2026-04-04T07:57:20.364Z</time></trkpt><trkpt lat="43.2889888" lon="12.0351312"><ele>792.5</ele><time>2026-04-04T07:57:21.364Z</time></trkpt><trkpt lat="43.2888773" lon="12.0350505"><ele>788.0</ele><time>2026-04-04T07:57:22.364Z</time></trkpt><trkpt lat="43.2887744" lon="12.0349486"><ele>783.5</ele><time>2026-04-04T07:57:23.364Z</time></trkpt><trkpt lat="43.2886802" lon="12.0348238"><ele>779.0</ele><time>2026-04-04T07:57:24.364Z</time></trkpt><trkpt lat="43.2885841" lon="12.0347382"><ele>788.0</ele><time>2026-04-04T07:57:25.365Z</time></trkpt><trkpt lat="43.288487" lon="12.0346646"><ele>797.0</ele><time>2026-04-04T07:57:26.364Z</time></trkpt><trkpt lat="43.288388" lon="12.0346491"><ele>806.0</ele><time>2026-04-04T07:57:27.364Z</time></trkpt><trkpt lat="43.2882738" lon="12.0346798"><ele>815.0</ele><time>2026-04-04T07:57:28.365Z</time></trkpt><trkpt lat="43.2881412" lon="12.0347644"><ele>813.75</ele><time>2026-04-04T07:57:29.365Z</time></trkpt><trkpt lat="43.2879941" lon="12.0348497"><ele>812.5</ele><time>2026-04-04T07:57:30.364Z</time></trkpt><trkpt lat="43.2878562" lon="12.0348904"><ele>811.25</ele><time>2026-04-04T07:57:31.364Z</time></trkpt><trkpt lat="43.2877152" lon="12.0349198"><ele>810.0</ele><time>2026-04-04T07:57:32.364Z</time></trkpt><trkpt lat="43.2875682" lon="12.0348931"><ele>810.0</ele><time>2026-04-04T07:57:33.365Z</time></trkpt><trkpt lat="43.2874416" lon="12.0347987"><ele>810.0</ele><time>2026-04-04T07:57:34.365Z</time></trkpt><trkpt lat="43.2873169" lon="12.034703"><ele>810.0</ele><time>2026-04-04T07:57:35.364Z</time></trkpt><trkpt lat="43.2871822" lon="12.0346415"><ele>810.0</ele><time>2026-04-04T07:57:36.364Z</time></trkpt><trkpt lat="43.2870448" lon="12.0345906"><ele>806.5</ele><time>2026-04-04T07:57:37.365Z</time></trkpt><trkpt lat="43.2868973" lon="12.0345964"><ele>803.0</ele><time>2026-04-04T07:57:38.364Z</time></trkpt><trkpt lat="43.2867516" lon="12.034638"><ele>799.5</ele><time>2026-04-04T07:57:39.364Z</time></trkpt><trkpt lat="43.2866151" lon="12.0347126"><ele>796.0</ele><time>2026-04-04T07:57:40.365Z</time></trkpt><trkpt lat="43.2864872" lon="12.0348081"><ele>792.0</ele><time>2026-04-04T07:57:41.364Z</time></trkpt><trkpt lat="43.2863589" lon="12.034902"><ele>788.0</ele><time>2026-04-04T07:57:42.364Z</time></trkpt><trkpt lat="43.2862264" lon="12.0349719"><ele>784.0</ele><time>2026-04-04T07:57:43.364Z</time></trkpt><trkpt lat="43.2860932" lon="12.0350219"><ele>780.0</ele><time>2026-04-04T07:57:44.365Z</time></trkpt><trkpt lat="43.28596" lon="12.0350664"><ele>777.0</ele><time>2026-04-04T07:57:45.364Z</time></trkpt><trkpt lat="43.2858307" lon="12.0350851"><ele>774.0</ele><time>2026-04-04T07:57:46.364Z</time></trkpt><trkpt lat="43.2857076" lon="12.0350894"><ele>771.0</ele><time>2026-04-04T07:57:47.364Z</time></trkpt><trkpt lat="43.2856002" lon="12.0350833"><ele>768.0</ele><time>2026-04-04T07:57:48.364Z</time></trkpt><trkpt lat="43.2855097" lon="12.0350675"><ele>765.5</ele><time>2026-04-04T07:57:49.364Z</time></trkpt><trkpt lat="43.2854254" lon="12.035046"><ele>763.0</ele><time>2026-04-04T07:57:50.365Z</time></trkpt><trkpt lat="43.2853479" lon="12.0350136"><ele>760.5</ele><time>2026-04-04T07:57:51.364Z</time></trkpt><trkpt lat="43.2852859" lon="12.0349676"><ele>758.0</ele><time>2026-04-04T07:57:52.365Z</time></trkpt><trkpt lat="43.2852079" lon="12.0348842"><ele>755.5</ele><time>2026-04-04T07:57:54.364Z</time></trkpt><trkpt lat="43.2851468" lon="12.0348223"><ele>753.0</ele><time>2026-04-04T07:57:57.364Z</time></trkpt><trkpt lat="43.2851328" lon="12.0347181"><ele>752.4</ele><time>2026-04-04T07:59:02.365Z</time></trkpt><trkpt lat="43.2851407" lon="12.034543"><ele>751.8</ele><time>2026-04-04T07:59:04.365Z</time></trkpt><trkpt lat="43.285169" lon="12.0344238"><ele>751.2</ele><time>2026-04-04T07:59:05.365Z</time></trkpt><trkpt lat="43.2852155" lon="12.0342891"><ele>750.6</ele><time>2026-04-04T07:59:06.365Z</time></trkpt><trkpt lat="43.2852686" lon="12.0341467"><ele>750.0</ele><time>2026-04-04T07:59:07.365Z</time></trkpt><trkpt lat="43.2853267" lon="12.0340152"><ele>747.6666666666666</ele><time>2026-04-04T07:59:08.365Z</time></trkpt><trkpt lat="43.2853543" lon="12.0339105"><ele>745.3333333333334</ele><time>2026-04-04T07:59:09.365Z</time></trkpt><trkpt lat="43.2853678" lon="12.0338082"><ele>743.0</ele><time>2026-04-04T07:59:10.365Z</time></trkpt><trkpt lat="43.2853808" lon="12.033715"><ele>740.6666666666667</ele><time>2026-04-04T07:59:11.365Z</time></trkpt><trkpt lat="43.2854051" lon="12.0336182"><ele>738.3333333333334</ele><time>2026-04-04T07:59:12.366Z</time></trkpt><trkpt lat="43.285439" lon="12.033513"><ele>736.0</ele><time>2026-04-04T07:59:13.365Z</time></trkpt><trkpt lat="43.2854915" lon="12.0333947"><ele>738.0</ele><time>2026-04-04T07:59:14.365Z</time></trkpt><trkpt lat="43.2855626" lon="12.033282"><ele>740.0</ele><time>2026-04-04T07:59:15.365Z</time></trkpt><trkpt lat="43.2856472" lon="12.0331815"><ele>742.0</ele><time>2026-04-04T07:59:16.366Z</time></trkpt><trkpt lat="43.2857437" lon="12.0330802"><ele>744.0</ele><time>2026-04-04T07:59:17.365Z</time></trkpt><trkpt lat="43.2858465" lon="12.0329767"><ele>744.0</ele><time>2026-04-04T07:59:18.365Z</time></trkpt><trkpt lat="43.2859514" lon="12.0328684"><ele>744.0</ele><time>2026-04-04T07:59:19.367Z</time></trkpt><trkpt lat="43.2860521" lon="12.0327509"><ele>744.0</ele><time>2026-04-04T07:59:20.365Z</time></trkpt><trkpt lat="43.286146" lon="12.032623"><ele>744.0</ele><time>2026-04-04T07:59:21.366Z</time></trkpt><trkpt lat="43.2862482" lon="12.032491"><ele>741.5</ele><time>2026-04-04T07:59:22.366Z</time></trkpt><trkpt lat="43.2863398" lon="12.0323551"><ele>739.0</ele><time>2026-04-04T07:59:23.366Z</time></trkpt><trkpt lat="43.2864246" lon="12.0322106"><ele>736.5</ele><time>2026-04-04T07:59:24.366Z</time></trkpt><trkpt lat="43.2864848" lon="12.0320605"><ele>734.0</ele><time>2026-04-04T07:59:25.366Z</time></trkpt><trkpt lat="43.2865315" lon="12.0318968"><ele>738.5</ele><time>2026-04-04T07:59:26.367Z</time></trkpt><trkpt lat="43.2865613" lon="12.0317307"><ele>743.0</ele><time>2026-04-04T07:59:27.366Z</time></trkpt><trkpt lat="43.2865783" lon="12.031563"><ele>747.5</ele><time>2026-04-04T07:59:28.366Z</time></trkpt><trkpt lat="43.2865898" lon="12.0313968"><ele>752.0</ele><time>2026-04-04T07:59:29.366Z</time></trkpt><trkpt lat="43.2865887" lon="12.0312281"><ele>752.0</ele><time>2026-04-04T07:59:30.366Z</time></trkpt><trkpt lat="43.2865849" lon="12.0310729"><ele>752.0</ele><time>2026-04-04T07:59:31.366Z</time></trkpt><trkpt lat="43.2865912" lon="12.0309292"><ele>752.0</ele><time>2026-04-04T07:59:32.367Z</time></trkpt><trkpt lat="43.2866073" lon="12.0307868"><ele>752.0</ele><time>2026-04-04T07:59:33.366Z</time></trkpt><trkpt lat="43.2866455" lon="12.0306604"><ele>752.0</ele><time>2026-04-04T07:59:34.366Z</time></trkpt><trkpt lat="43.2867071" lon="12.0305368"><ele>749.75</ele><time>2026-04-04T07:59:35.367Z</time></trkpt><trkpt lat="43.2867828" lon="12.0304279"><ele>747.5</ele><time>2026-04-04T07:59:36.366Z</time></trkpt><trkpt lat="43.2868693" lon="12.0303033"><ele>745.25</ele><time>2026-04-04T07:59:37.366Z</time></trkpt><trkpt lat="43.2869642" lon="12.0301739"><ele>743.0</ele><time>2026-04-04T07:59:38.366Z</time></trkpt><trkpt lat="43.2870528" lon="12.0300473"><ele>742.0</ele><time>2026-04-04T07:59:39.366Z</time></trkpt><trkpt lat="43.2871387" lon="12.0299238"><ele>741.0</ele><time>2026-04-04T07:59:40.366Z</time></trkpt><trkpt lat="43.2871912" lon="12.0297955"><ele>740.0</ele><time>2026-04-04T07:59:41.366Z</time></trkpt><trkpt lat="43.2872133" lon="12.0296547"><ele>739.0</ele><time>2026-04-04T07:59:42.367Z</time></trkpt><trkpt lat="43.2872167" lon="12.0295068"><ele>738.0</ele><time>2026-04-04T07:59:43.366Z</time></trkpt><trkpt lat="43.2872023" lon="12.0293588"><ele>738.0</ele><time>2026-04-04T07:59:44.366Z</time></trkpt><trkpt lat="43.2871543" lon="12.0292269"><ele>738.0</ele><time>2026-04-04T07:59:45.366Z</time></trkpt><trkpt lat="43.2870753" lon="12.0290724"><ele>738.0</ele><time>2026-04-04T07:59:46.366Z</time></trkpt><trkpt lat="43.2870012" lon="12.0289458"><ele>738.0</ele><time>2026-04-04T07:59:47.367Z</time></trkpt><trkpt lat="43.2869589" lon="12.0288703"><ele>738.0</ele><time>2026-04-04T07:59:48.367Z</time></trkpt><trkpt lat="43.2867781" lon="12.028605"><ele>736.5</ele><time>2026-04-04T07:59:50.366Z</time></trkpt><trkpt lat="43.2868036" lon="12.0285008"><ele>735.0</ele><time>2026-04-04T07:59:51.367Z</time></trkpt><trkpt lat="43.2868427" lon="12.0283947"><ele>733.5</ele><time>2026-04-04T07:59:52.366Z</time></trkpt><trkpt lat="43.2870357" lon="12.0283362"><ele>732.0</ele><time>2026-04-04T07:59:53.366Z</time></trkpt><trkpt lat="43.2871432" lon="12.0282806"><ele>733.25</ele><time>2026-04-04T07:59:54.366Z</time></trkpt><trkpt lat="43.2872625" lon="12.028217"><ele>734.5</ele><time>2026-04-04T07:59:55.366Z</time></trkpt><trkpt lat="43.2873904" lon="12.0281519"><ele>735.75</ele><time>2026-04-04T07:59:56.366Z</time></trkpt><trkpt lat="43.2875111" lon="12.0280632"><ele>737.0</ele><time>2026-04-04T07:59:57.367Z</time></trkpt><trkpt lat="43.2876077" lon="12.027963"><ele>737.0</ele><time>2026-04-04T07:59:58.366Z</time></trkpt><trkpt lat="43.2877069" lon="12.027856"><ele>737.0</ele><time>2026-04-04T07:59:59.366Z</time></trkpt><trkpt lat="43.287784" lon="12.0277523"><ele>737.0</ele><time>2026-04-04T08:00:00.367Z</time></trkpt><trkpt lat="43.287854" lon="12.0276457"><ele>737.0</ele><time>2026-04-04T08:00:02.367Z</time></trkpt><trkpt lat="43.2879156" lon="12.027514"><ele>738.75</ele><time>2026-04-04T08:00:04.366Z</time></trkpt><trkpt lat="43.2879204" lon="12.0274142"><ele>740.5</ele><time>2026-04-04T08:00:05.366Z</time></trkpt><trkpt lat="43.2878741" lon="12.0272953"><ele>742.25</ele><time>2026-04-04T08:00:06.367Z</time></trkpt><trkpt lat="43.2878223" lon="12.0271647"><ele>744.0</ele><time>2026-04-04T08:00:07.366Z</time></trkpt><trkpt lat="43.287665" lon="12.0269403"><ele>744.0</ele><time>2026-04-04T08:00:09.366Z</time></trkpt><trkpt lat="43.2875758" lon="12.0268541"><ele>744.0</ele><time>2026-04-04T08:00:10.366Z</time></trkpt><trkpt lat="43.2874889" lon="12.0267639"><ele>744.0</ele><time>2026-04-04T08:00:11.366Z</time></trkpt><trkpt lat="43.2873652" lon="12.0266264"><ele>744.0</ele><time>2026-04-04T08:00:12.368Z</time></trkpt><trkpt lat="43.2872776" lon="12.0264867"><ele>734.6666666666666</ele><time>2026-04-04T08:00:13.367Z</time></trkpt><trkpt lat="43.287109" lon="12.0262739"><ele>725.3333333333333</ele><time>2026-04-04T08:00:14.366Z</time></trkpt><trkpt lat="43.2869966" lon="12.0260894"><ele>716.0</ele><time>2026-04-04T08:00:15.367Z</time></trkpt><trkpt lat="43.2869533" lon="12.0257752"><ele>718.75</ele><time>2026-04-04T08:00:16.367Z</time></trkpt><trkpt lat="43.286986" lon="12.0256274"><ele>721.5</ele><time>2026-04-04T08:00:17.367Z</time></trkpt><trkpt lat="43.28712" lon="12.0254937"><ele>724.25</ele><time>2026-04-04T08:00:18.366Z</time></trkpt><trkpt lat="43.2872126" lon="12.0253503"><ele>727.0</ele><time>2026-04-04T08:00:19.366Z</time></trkpt><trkpt lat="43.2873044" lon="12.0252015"><ele>727.0</ele><time>2026-04-04T08:00:20.366Z</time></trkpt><trkpt lat="43.2873839" lon="12.0250362"><ele>727.0</ele><time>2026-04-04T08:00:21.366Z</time></trkpt><trkpt lat="43.2874381" lon="12.0248636"><ele>727.0</ele><time>2026-04-04T08:00:22.366Z</time></trkpt><trkpt lat="43.2874944" lon="12.0246937"><ele>727.0</ele><time>2026-04-04T08:00:23.366Z</time></trkpt><trkpt lat="43.2875091" lon="12.0245322"><ele>725.0</ele><time>2026-04-04T08:00:24.367Z</time></trkpt><trkpt lat="43.2874811" lon="12.024339"><ele>723.0</ele><time>2026-04-04T08:00:25.368Z</time></trkpt><trkpt lat="43.28747" lon="12.0241454"><ele>721.0</ele><time>2026-04-04T08:00:26.367Z</time></trkpt><trkpt lat="43.2874745" lon="12.0239521"><ele>719.0</ele><time>2026-04-04T08:00:27.367Z</time></trkpt><trkpt lat="43.2874914" lon="12.0237599"><ele>716.75</ele><time>2026-04-04T08:00:28.367Z</time></trkpt><trkpt lat="43.2875245" lon="12.023574"><ele>714.5</ele><time>2026-04-04T08:00:29.368Z</time></trkpt><trkpt lat="43.2875633" lon="12.0233943"><ele>712.25</ele><time>2026-04-04T08:00:30.368Z</time></trkpt><trkpt lat="43.2876353" lon="12.0232341"><ele>710.0</ele><time>2026-04-04T08:00:31.367Z</time></trkpt><trkpt lat="43.2877247" lon="12.0230892"><ele>710.0</ele><time>2026-04-04T08:00:32.368Z</time></trkpt><trkpt lat="43.2878156" lon="12.022947"><ele>710.0</ele><time>2026-04-04T08:00:33.367Z</time></trkpt><trkpt lat="43.2879407" lon="12.022822"><ele>710.0</ele><time>2026-04-04T08:00:34.367Z</time></trkpt><trkpt lat="43.288069" lon="12.022703"><ele>710.0</ele><time>2026-04-04T08:00:35.367Z</time></trkpt><trkpt lat="43.288197" lon="12.0225827"><ele>705.5</ele><time>2026-04-04T08:00:36.367Z</time></trkpt><trkpt lat="43.288317" lon="12.0224656"><ele>701.0</ele><time>2026-04-04T08:00:37.367Z</time></trkpt><trkpt lat="43.2884362" lon="12.0223462"><ele>696.5</ele><time>2026-04-04T08:00:38.367Z</time></trkpt><trkpt lat="43.2885479" lon="12.0222302"><ele>692.0</ele><time>2026-04-04T08:00:39.367Z</time></trkpt><trkpt lat="43.2886518" lon="12.0221105"><ele>692.0</ele><time>2026-04-04T08:00:40.368Z</time></trkpt><trkpt lat="43.2887123" lon="12.0219559"><ele>692.0</ele><time>2026-04-04T08:00:41.368Z</time></trkpt><trkpt lat="43.2887668" lon="12.0218048"><ele>692.0</ele><time>2026-04-04T08:00:42.367Z</time></trkpt><trkpt lat="43.2888069" lon="12.0216601"><ele>692.0</ele><time>2026-04-04T08:00:43.367Z</time></trkpt><trkpt lat="43.2887883" lon="12.0215113"><ele>688.75</ele><time>2026-04-04T08:00:44.367Z</time></trkpt><trkpt lat="43.2888023" lon="12.0213543"><ele>685.5</ele><time>2026-04-04T08:00:45.367Z</time></trkpt><trkpt lat="43.2888399" lon="12.0211846"><ele>682.25</ele><time>2026-04-04T08:00:46.368Z</time></trkpt><trkpt lat="43.2888889" lon="12.0210227"><ele>679.0</ele><time>2026-04-04T08:00:47.367Z</time></trkpt><trkpt lat="43.2889638" lon="12.0208633"><ele>683.0</ele><time>2026-04-04T08:00:48.367Z</time></trkpt><trkpt lat="43.289052" lon="12.0207117"><ele>687.0</ele><time>2026-04-04T08:00:49.367Z</time></trkpt><trkpt lat="43.2891374" lon="12.0205879"><ele>691.0</ele><time>2026-04-04T08:00:50.367Z</time></trkpt><trkpt lat="43.2892155" lon="12.0204693"><ele>695.0</ele><time>2026-04-04T08:00:51.367Z</time></trkpt><trkpt lat="43.2893073" lon="12.0203381"><ele>695.0</ele><time>2026-04-04T08:00:52.367Z</time></trkpt><trkpt lat="43.289345" lon="12.0202031"><ele>695.0</ele><time>2026-04-04T08:00:53.367Z</time></trkpt><trkpt lat="43.2893578" lon="12.0200662"><ele>695.0</ele><time>2026-04-04T08:00:54.368Z</time></trkpt><trkpt lat="43.2893762" lon="12.0199445"><ele>695.0</ele><time>2026-04-04T08:00:55.367Z</time></trkpt><trkpt lat="43.2893719" lon="12.0198119"><ele>695.0</ele><time>2026-04-04T08:00:56.367Z</time></trkpt><trkpt lat="43.2893471" lon="12.0196852"><ele>694.0</ele><time>2026-04-04T08:00:57.367Z</time></trkpt><trkpt lat="43.2893092" lon="12.0195207"><ele>693.0</ele><time>2026-04-04T08:00:58.367Z</time></trkpt><trkpt lat="43.2892856" lon="12.0193763"><ele>692.0</ele><time>2026-04-04T08:00:59.367Z</time></trkpt><trkpt lat="43.2892822" lon="12.019256"><ele>691.0</ele><time>2026-04-04T08:01:00.367Z</time></trkpt><trkpt lat="43.289314" lon="12.0190801"><ele>693.0</ele><time>2026-04-04T08:01:01.367Z</time></trkpt><trkpt lat="43.289373" lon="12.0189307"><ele>695.0</ele><time>2026-04-04T08:01:02.367Z</time></trkpt><trkpt lat="43.2894187" lon="12.0187903"><ele>697.0</ele><time>2026-04-04T08:01:03.367Z</time></trkpt><trkpt lat="43.2894501" lon="12.0186515"><ele>699.0</ele><time>2026-04-04T08:01:04.367Z</time></trkpt><trkpt lat="43.2894553" lon="12.018535"><ele>701.0</ele><time>2026-04-04T08:01:05.367Z</time></trkpt><trkpt lat="43.2894471" lon="12.0184301"><ele>701.0</ele><time>2026-04-04T08:01:06.368Z</time></trkpt><trkpt lat="43.2894106" lon="12.018346"><ele>701.0</ele><time>2026-04-04T08:01:07.367Z</time></trkpt><trkpt lat="43.2893539" lon="12.0182479"><ele>701.0</ele><time>2026-04-04T08:01:08.367Z</time></trkpt><trkpt lat="43.2892572" lon="12.0181998"><ele>701.0</ele><time>2026-04-04T08:01:09.367Z</time></trkpt><trkpt lat="43.2891733" lon="12.018152"><ele>701.0</ele><time>2026-04-04T08:01:10.367Z</time></trkpt><trkpt lat="43.2890554" lon="12.0181349"><ele>699.5</ele><time>2026-04-04T08:01:11.367Z</time></trkpt><trkpt lat="43.2889304" lon="12.0181036"><ele>698.0</ele><time>2026-04-04T08:01:12.367Z</time></trkpt><trkpt lat="43.2887812" lon="12.0181178"><ele>696.5</ele><time>2026-04-04T08:01:13.368Z</time></trkpt><trkpt lat="43.2886146" lon="12.0181668"><ele>695.0</ele><time>2026-04-04T08:01:14.367Z</time></trkpt><trkpt lat="43.2884094" lon="12.0182713"><ele>695.0</ele><time>2026-04-04T08:01:15.367Z</time></trkpt><trkpt lat="43.2882367" lon="12.0183026"><ele>695.0</ele><time>2026-04-04T08:01:16.367Z</time></trkpt><trkpt lat="43.2881009" lon="12.018252"><ele>695.0</ele><time>2026-04-04T08:01:17.367Z</time></trkpt><trkpt lat="43.2879807" lon="12.0182072"><ele>695.0</ele><time>2026-04-04T08:01:18.367Z</time></trkpt><trkpt lat="43.287879" lon="12.0181466"><ele>691.0</ele><time>2026-04-04T08:01:19.368Z</time></trkpt><trkpt lat="43.2877906" lon="12.0180897"><ele>687.0</ele><time>2026-04-04T08:01:20.367Z</time></trkpt><trkpt lat="43.2877159" lon="12.0180081"><ele>683.0</ele><time>2026-04-04T08:01:21.367Z</time></trkpt><trkpt lat="43.2876572" lon="12.017884"><ele>679.0</ele><time>2026-04-04T08:01:22.367Z</time></trkpt><trkpt lat="43.2876437" lon="12.0176875"><ele>675.0</ele><time>2026-04-04T08:01:23.367Z</time></trkpt><trkpt lat="43.2876263" lon="12.0175094"><ele>678.5</ele><time>2026-04-04T08:01:24.368Z</time></trkpt><trkpt lat="43.2876091" lon="12.0173278"><ele>682.0</ele><time>2026-04-04T08:01:25.367Z</time></trkpt><trkpt lat="43.2875794" lon="12.0171676"><ele>685.5</ele><time>2026-04-04T08:01:26.367Z</time></trkpt><trkpt lat="43.2875317" lon="12.0170198"><ele>689.0</ele><time>2026-04-04T08:01:27.367Z</time></trkpt><trkpt lat="43.2874496" lon="12.0168847"><ele>689.0</ele><time>2026-04-04T08:01:28.367Z</time></trkpt><trkpt lat="43.2873347" lon="12.0167528"><ele>689.0</ele><time>2026-04-04T08:01:29.367Z</time></trkpt><trkpt lat="43.2871948" lon="12.0166311"><ele>689.0</ele><time>2026-04-04T08:01:30.369Z</time></trkpt><trkpt lat="43.2870427" lon="12.0165626"><ele>690.6666666666666</ele><time>2026-04-04T08:01:31.368Z</time></trkpt><trkpt lat="43.2868862" lon="12.016498"><ele>692.3333333333334</ele><time>2026-04-04T08:01:32.369Z</time></trkpt><trkpt lat="43.2867359" lon="12.0164285"><ele>694.0</ele><time>2026-04-04T08:01:33.368Z</time></trkpt><trkpt lat="43.2865894" lon="12.0163547"><ele>694.0</ele><time>2026-04-04T08:01:34.368Z</time></trkpt><trkpt lat="43.2864444" lon="12.0162809"><ele>694.0</ele><time>2026-04-04T08:01:35.368Z</time></trkpt><trkpt lat="43.2863065" lon="12.0162098"><ele>694.0</ele><time>2026-04-04T08:01:36.368Z</time></trkpt><trkpt lat="43.2861702" lon="12.0161479"><ele>694.0</ele><time>2026-04-04T08:01:37.368Z</time></trkpt><trkpt lat="43.2860327" lon="12.0160953"><ele>687.5</ele><time>2026-04-04T08:01:38.368Z</time></trkpt><trkpt lat="43.2859032" lon="12.0160742"><ele>681.0</ele><time>2026-04-04T08:01:39.368Z</time></trkpt><trkpt lat="43.2857769" lon="12.0160491"><ele>674.5</ele><time>2026-04-04T08:01:40.368Z</time></trkpt><trkpt lat="43.2856637" lon="12.0159932"><ele>668.0</ele><time>2026-04-04T08:01:41.368Z</time></trkpt><trkpt lat="43.285561" lon="12.0159057"><ele>661.0</ele><time>2026-04-04T08:01:42.368Z</time></trkpt><trkpt lat="43.2854816" lon="12.0157964"><ele>654.0</ele><time>2026-04-04T08:01:43.368Z</time></trkpt><trkpt lat="43.2854256" lon="12.0156567"><ele>647.0</ele><time>2026-04-04T08:01:44.368Z</time></trkpt><trkpt lat="43.2854005" lon="12.0154945"><ele>640.0</ele><time>2026-04-04T08:01:45.368Z</time></trkpt><trkpt lat="43.2853935" lon="12.0152958"><ele>640.0</ele><time>2026-04-04T08:01:46.368Z</time></trkpt><trkpt lat="43.2853871" lon="12.0151015"><ele>640.0</ele><time>2026-04-04T08:01:47.369Z</time></trkpt><trkpt lat="43.2853869" lon="12.0149062"><ele>640.0</ele><time>2026-04-04T08:01:48.368Z</time></trkpt><trkpt lat="43.2853793" lon="12.0146873"><ele>640.0</ele><time>2026-04-04T08:01:49.368Z</time></trkpt><trkpt lat="43.2853661" lon="12.0144735"><ele>640.0</ele><time>2026-04-04T08:01:50.368Z</time></trkpt><trkpt lat="43.2853608" lon="12.0142788"><ele>640.0</ele><time>2026-04-04T08:01:51.369Z</time></trkpt><trkpt lat="43.2853703" lon="12.0140899"><ele>640.0</ele><time>2026-04-04T08:01:52.368Z</time></trkpt><trkpt lat="43.2853835" lon="12.0139029"><ele>640.0</ele><time>2026-04-04T08:01:53.368Z</time></trkpt><trkpt lat="43.2854043" lon="12.0137173"><ele>638.5</ele><time>2026-04-04T08:01:54.369Z</time></trkpt><trkpt lat="43.2854317" lon="12.0135339"><ele>637.0</ele><time>2026-04-04T08:01:55.368Z</time></trkpt><trkpt lat="43.2854661" lon="12.0133474"><ele>635.5</ele><time>2026-04-04T08:01:56.368Z</time></trkpt><trkpt lat="43.2855228" lon="12.013171"><ele>634.0</ele><time>2026-04-04T08:01:57.368Z</time></trkpt><trkpt lat="43.2855825" lon="12.0129993"><ele>638.25</ele><time>2026-04-04T08:01:58.368Z</time></trkpt><trkpt lat="43.2856411" lon="12.0128349"><ele>642.5</ele><time>2026-04-04T08:01:59.368Z</time></trkpt><trkpt lat="43.2856963" lon="12.0126841"><ele>646.75</ele><time>2026-04-04T08:02:00.368Z</time></trkpt><trkpt lat="43.2857504" lon="12.0125459"><ele>651.0</ele><time>2026-04-04T08:02:01.368Z</time></trkpt><trkpt lat="43.2858001" lon="12.0124227"><ele>651.0</ele><time>2026-04-04T08:02:02.369Z</time></trkpt><trkpt lat="43.2858465" lon="12.0123114"><ele>651.0</ele><time>2026-04-04T08:02:03.368Z</time></trkpt><trkpt lat="43.2858845" lon="12.0122116"><ele>651.0</ele><time>2026-04-04T08:02:04.368Z</time></trkpt><trkpt lat="43.2859185" lon="12.0120681"><ele>651.0</ele><time>2026-04-04T08:02:06.368Z</time></trkpt><trkpt lat="43.2859286" lon="12.0119662"><ele>651.0</ele><time>2026-04-04T08:02:10.368Z</time></trkpt><trkpt lat="43.2859155" lon="12.0118668"><ele>651.0</ele><time>2026-04-04T08:03:55.37Z</time></trkpt><trkpt lat="43.2858421" lon="12.0117726"><ele>653.75</ele><time>2026-04-04T08:03:58.371Z</time></trkpt><trkpt lat="43.2857437" lon="12.0116379"><ele>656.5</ele><time>2026-04-04T08:04:00.371Z</time></trkpt><trkpt lat="43.2856766" lon="12.0115565"><ele>659.25</ele><time>2026-04-04T08:04:01.37Z</time></trkpt><trkpt lat="43.2855912" lon="12.0114531"><ele>662.0</ele><time>2026-04-04T08:04:02.37Z</time></trkpt><trkpt lat="43.2855195" lon="12.0113407"><ele>652.0</ele><time>2026-04-04T08:04:03.37Z</time></trkpt><trkpt lat="43.2854524" lon="12.011192"><ele>642.0</ele><time>2026-04-04T08:04:04.371Z</time></trkpt><trkpt lat="43.2853806" lon="12.0108491"><ele>632.0</ele><time>2026-04-04T08:04:06.37Z</time></trkpt><trkpt lat="43.2853652" lon="12.0106496"><ele>632.0</ele><time>2026-04-04T08:04:07.371Z</time></trkpt><trkpt lat="43.2853427" lon="12.0104386"><ele>632.0</ele><time>2026-04-04T08:04:08.371Z</time></trkpt><trkpt lat="43.2852744" lon="12.0102043"><ele>632.0</ele><time>2026-04-04T08:04:09.37Z</time></trkpt><trkpt lat="43.2851793" lon="12.0099989"><ele>637.0</ele><time>2026-04-04T08:04:10.371Z</time></trkpt><trkpt lat="43.2850838" lon="12.0098088"><ele>642.0</ele><time>2026-04-04T08:04:11.37Z</time></trkpt><trkpt lat="43.2849857" lon="12.0096148"><ele>647.0</ele><time>2026-04-04T08:04:12.37Z</time></trkpt><trkpt lat="43.2848845" lon="12.0094151"><ele>647.0</ele><time>2026-04-04T08:04:13.371Z</time></trkpt><trkpt lat="43.284782" lon="12.009216"><ele>647.0</ele><time>2026-04-04T08:04:14.37Z</time></trkpt><trkpt lat="43.28468" lon="12.0090149"><ele>647.0</ele><time>2026-04-04T08:04:15.37Z</time></trkpt><trkpt lat="43.2845741" lon="12.008829"><ele>646.5</ele><time>2026-04-04T08:04:16.371Z</time></trkpt><trkpt lat="43.2843383" lon="12.008476"><ele>646.0</ele><time>2026-04-04T08:04:18.37Z</time></trkpt><trkpt lat="43.2842123" lon="12.0083175"><ele>646.0</ele><time>2026-04-04T08:04:19.37Z</time></trkpt><trkpt lat="43.2840868" lon="12.0081586"><ele>646.0</ele><time>2026-04-04T08:04:20.37Z</time></trkpt><trkpt lat="43.2839573" lon="12.0080149"><ele>646.0</ele><time>2026-04-04T08:04:21.37Z</time></trkpt><trkpt lat="43.2838237" lon="12.007868"><ele>637.0</ele><time>2026-04-04T08:04:22.37Z</time></trkpt><trkpt lat="43.283702" lon="12.0077204"><ele>628.0</ele><time>2026-04-04T08:04:23.37Z</time></trkpt><trkpt lat="43.2835975" lon="12.0075756"><ele>619.0</ele><time>2026-04-04T08:04:24.37Z</time></trkpt><trkpt lat="43.2835145" lon="12.0073985"><ele>619.0</ele><time>2026-04-04T08:04:25.37Z</time></trkpt><trkpt lat="43.2834461" lon="12.0072048"><ele>619.0</ele><time>2026-04-04T08:04:26.37Z</time></trkpt><trkpt lat="43.2833968" lon="12.0070147"><ele>619.0</ele><time>2026-04-04T08:04:27.37Z</time></trkpt><trkpt lat="43.2833689" lon="12.0068055"><ele>617.0</ele><time>2026-04-04T08:04:28.37Z</time></trkpt><trkpt lat="43.2833648" lon="12.006565"><ele>615.0</ele><time>2026-04-04T08:04:29.37Z</time></trkpt><trkpt lat="43.2833752" lon="12.0063212"><ele>613.0</ele><time>2026-04-04T08:04:30.371Z</time></trkpt><trkpt lat="43.2834007" lon="12.0060771"><ele>613.0</ele><time>2026-04-04T08:04:31.371Z</time></trkpt><trkpt lat="43.2834282" lon="12.0058523"><ele>613.0</ele><time>2026-04-04T08:04:32.37Z</time></trkpt><trkpt lat="43.2834532" lon="12.005646"><ele>613.0</ele><time>2026-04-04T08:04:33.37Z</time></trkpt><trkpt lat="43.2834819" lon="12.0054649"><ele>609.5</ele><time>2026-04-04T08:04:34.37Z</time></trkpt><trkpt lat="43.2835069" lon="12.0052869"><ele>606.0</ele><time>2026-04-04T08:04:35.37Z</time></trkpt><trkpt lat="43.2835398" lon="12.0051179"><ele>602.5</ele><time>2026-04-04T08:04:36.37Z</time></trkpt><trkpt lat="43.2835945" lon="12.004966"><ele>599.0</ele><time>2026-04-04T08:04:37.371Z</time></trkpt><trkpt lat="43.2836755" lon="12.0048576"><ele>597.4</ele><time>2026-04-04T08:04:38.37Z</time></trkpt><trkpt lat="43.2837556" lon="12.0047694"><ele>595.8</ele><time>2026-04-04T08:04:39.371Z</time></trkpt><trkpt lat="43.2838398" lon="12.0046726"><ele>594.2</ele><time>2026-04-04T08:04:40.37Z</time></trkpt><trkpt lat="43.2838861" lon="12.0045585"><ele>592.6</ele><time>2026-04-04T08:04:41.37Z</time></trkpt><trkpt lat="43.2838977" lon="12.0044308"><ele>591.0</ele><time>2026-04-04T08:04:42.37Z</time></trkpt><trkpt lat="43.2838802" lon="12.0042791"><ele>594.3333333333334</ele><time>2026-04-04T08:04:43.371Z</time></trkpt><trkpt lat="43.2837902" lon="12.0039002"><ele>597.6666666666667</ele><time>2026-04-04T08:04:45.371Z</time></trkpt><trkpt lat="43.2837402" lon="12.003722"><ele>601.0</ele><time>2026-04-04T08:04:46.371Z</time></trkpt><trkpt lat="43.2836742" lon="12.0035328"><ele>601.0</ele><time>2026-04-04T08:04:47.371Z</time></trkpt><trkpt lat="43.2835925" lon="12.0033376"><ele>601.0</ele><time>2026-04-04T08:04:48.371Z</time></trkpt><trkpt lat="43.2834861" lon="12.0031228"><ele>601.0</ele><time>2026-04-04T08:04:49.372Z</time></trkpt><trkpt lat="43.2833719" lon="12.002926"><ele>600.6666666666667</ele><time>2026-04-04T08:04:50.371Z</time></trkpt><trkpt lat="43.2832557" lon="12.0027496"><ele>600.3333333333334</ele><time>2026-04-04T08:04:51.371Z</time></trkpt><trkpt lat="43.2831313" lon="12.0025938"><ele>600.0</ele><time>2026-04-04T08:04:52.371Z</time></trkpt><trkpt lat="43.2829984" lon="12.002477"><ele>600.0</ele><time>2026-04-04T08:04:53.371Z</time></trkpt><trkpt lat="43.2828624" lon="12.0023766"><ele>600.0</ele><time>2026-04-04T08:04:54.371Z</time></trkpt><trkpt lat="43.2827402" lon="12.0022824"><ele>600.0</ele><time>2026-04-04T08:04:55.371Z</time></trkpt><trkpt lat="43.2826109" lon="12.0021577"><ele>600.0</ele><time>2026-04-04T08:04:56.371Z</time></trkpt><trkpt lat="43.2825146" lon="12.00204"><ele>600.0</ele><time>2026-04-04T08:04:57.371Z</time></trkpt><trkpt lat="43.2824441" lon="12.0018992"><ele>600.0</ele><time>2026-04-04T08:04:58.371Z</time></trkpt><trkpt lat="43.2823928" lon="12.0017435"><ele>600.0</ele><time>2026-04-04T08:04:59.371Z</time></trkpt><trkpt lat="43.2823566" lon="12.0015656"><ele>600.75</ele><time>2026-04-04T08:05:00.371Z</time></trkpt><trkpt lat="43.2823281" lon="12.0013682"><ele>601.5</ele><time>2026-04-04T08:05:01.372Z</time></trkpt><trkpt lat="43.2823141" lon="12.0011865"><ele>602.25</ele><time>2026-04-04T08:05:02.372Z</time></trkpt><trkpt lat="43.2822966" lon="12.0009964"><ele>603.0</ele><time>2026-04-04T08:05:03.371Z</time></trkpt><trkpt lat="43.282265" lon="12.0008047"><ele>589.0</ele><time>2026-04-04T08:05:04.371Z</time></trkpt><trkpt lat="43.2822166" lon="12.0006164"><ele>575.0</ele><time>2026-04-04T08:05:05.371Z</time></trkpt><trkpt lat="43.2820853" lon="12.0002292"><ele>575.0</ele><time>2026-04-04T08:05:07.372Z</time></trkpt><trkpt lat="43.2820368" lon="12.0000403"><ele>575.0</ele><time>2026-04-04T08:05:08.371Z</time></trkpt><trkpt lat="43.2819979" lon="11.9998549"><ele>575.0</ele><time>2026-04-04T08:05:09.371Z</time></trkpt><trkpt lat="43.2819621" lon="11.999674"><ele>575.0</ele><time>2026-04-04T08:05:10.371Z</time></trkpt><trkpt lat="43.2819237" lon="11.9994962"><ele>575.0</ele><time>2026-04-04T08:05:11.371Z</time></trkpt><trkpt lat="43.2818884" lon="11.9993296"><ele>575.0</ele><time>2026-04-04T08:05:12.371Z</time></trkpt><trkpt lat="43.2818614" lon="11.9991731"><ele>575.0</ele><time>2026-04-04T08:05:13.371Z</time></trkpt><trkpt lat="43.2818645" lon="11.9990516"><ele>575.0</ele><time>2026-04-04T08:05:14.371Z</time></trkpt><trkpt lat="43.2818825" lon="11.9989524"><ele>575.0</ele><time>2026-04-04T08:05:15.372Z</time></trkpt><trkpt lat="43.2818959" lon="11.9988521"><ele>576.2</ele><time>2026-04-04T08:05:16.371Z</time></trkpt><trkpt lat="43.2819398" lon="11.9987553"><ele>577.4</ele><time>2026-04-04T08:05:18.371Z</time></trkpt><trkpt lat="43.2820283" lon="11.9987165"><ele>578.6</ele><time>2026-04-04T08:05:20.371Z</time></trkpt><trkpt lat="43.2820936" lon="11.9987452"><ele>579.8</ele><time>2026-04-04T08:05:21.371Z</time></trkpt><trkpt lat="43.2821859" lon="11.9988096"><ele>581.0</ele><time>2026-04-04T08:05:22.371Z</time></trkpt><trkpt lat="43.2823008" lon="11.9988968"><ele>582.25</ele><time>2026-04-04T08:05:23.372Z</time></trkpt><trkpt lat="43.2824209" lon="11.998995"><ele>583.5</ele><time>2026-04-04T08:05:24.371Z</time></trkpt><trkpt lat="43.2825385" lon="11.9990811"><ele>584.75</ele><time>2026-04-04T08:05:25.371Z</time></trkpt><trkpt lat="43.2826527" lon="11.9991778"><ele>586.0</ele><time>2026-04-04T08:05:26.371Z</time></trkpt><trkpt lat="43.2827619" lon="11.9992763"><ele>587.0</ele><time>2026-04-04T08:05:27.372Z</time></trkpt><trkpt lat="43.282871" lon="11.9993723"><ele>588.0</ele><time>2026-04-04T08:05:28.371Z</time></trkpt><trkpt lat="43.2829665" lon="11.9994514"><ele>589.0</ele><time>2026-04-04T08:05:29.371Z</time></trkpt><trkpt lat="43.2831367" lon="11.9995005"><ele>590.0</ele><time>2026-04-04T08:05:31.371Z</time></trkpt><trkpt lat="43.2831939" lon="11.9994527"><ele>590.0</ele><time>2026-04-04T08:05:32.371Z</time></trkpt><trkpt lat="43.2832674" lon="11.9993489"><ele>590.0</ele><time>2026-04-04T08:05:34.371Z</time></trkpt><trkpt lat="43.2832231" lon="11.9992633"><ele>590.0</ele><time>2026-04-04T08:05:36.371Z</time></trkpt><trkpt lat="43.283136" lon="11.9991817"><ele>590.0</ele><time>2026-04-04T08:05:37.371Z</time></trkpt><trkpt lat="43.2830453" lon="11.9991054"><ele>590.0</ele><time>2026-04-04T08:05:38.371Z</time></trkpt><trkpt lat="43.2829403" lon="11.9990258"><ele>589.0</ele><time>2026-04-04T08:05:39.371Z</time></trkpt><trkpt lat="43.2828084" lon="11.9989101"><ele>588.0</ele><time>2026-04-04T08:05:40.371Z</time></trkpt><trkpt lat="43.2826649" lon="11.9987908"><ele>587.0</ele><time>2026-04-04T08:05:41.371Z</time></trkpt><trkpt lat="43.2825668" lon="11.9987135"><ele>586.0</ele><time>2026-04-04T08:05:42.371Z</time></trkpt><trkpt lat="43.2824171" lon="11.9986052"><ele>583.5</ele><time>2026-04-04T08:05:43.371Z</time></trkpt><trkpt lat="43.2822095" lon="11.9984499"><ele>581.0</ele><time>2026-04-04T08:05:44.371Z</time></trkpt><trkpt lat="43.2820179" lon="11.9983174"><ele>580.3333333333333</ele><time>2026-04-04T08:05:45.373Z</time></trkpt><trkpt lat="43.2818472" lon="11.9981757"><ele>579.6666666666666</ele><time>2026-04-04T08:05:46.372Z</time></trkpt><trkpt lat="43.2816644" lon="11.9980368"><ele>579.0</ele><time>2026-04-04T08:05:47.372Z</time></trkpt><trkpt lat="43.2815012" lon="11.9979126"><ele>580.0</ele><time>2026-04-04T08:05:48.373Z</time></trkpt><trkpt lat="43.281344" lon="11.9977694"><ele>581.0</ele><time>2026-04-04T08:05:49.372Z</time></trkpt><trkpt lat="43.2812186" lon="11.9976275"><ele>582.0</ele><time>2026-04-04T08:05:50.372Z</time></trkpt><trkpt lat="43.2811038" lon="11.9974637"><ele>582.0</ele><time>2026-04-04T08:05:51.372Z</time></trkpt><trkpt lat="43.2810018" lon="11.9972996"><ele>582.0</ele><time>2026-04-04T08:05:52.372Z</time></trkpt><trkpt lat="43.2809064" lon="11.9971305"><ele>582.0</ele><time>2026-04-04T08:05:53.373Z</time></trkpt><trkpt lat="43.2808279" lon="11.9969622"><ele>582.0</ele><time>2026-04-04T08:05:54.372Z</time></trkpt><trkpt lat="43.2807558" lon="11.9967918"><ele>582.0</ele><time>2026-04-04T08:05:55.372Z</time></trkpt><trkpt lat="43.2806741" lon="11.9965934"><ele>582.0</ele><time>2026-04-04T08:05:56.372Z</time></trkpt><trkpt lat="43.2806143" lon="11.9964239"><ele>582.0</ele><time>2026-04-04T08:05:57.372Z</time></trkpt><trkpt lat="43.2805455" lon="11.9962425"><ele>582.5</ele><time>2026-04-04T08:05:58.372Z</time></trkpt><trkpt lat="43.2804006" lon="11.995861"><ele>583.0</ele><time>2026-04-04T08:05:59.372Z</time></trkpt><trkpt lat="43.2803191" lon="11.9956267"><ele>583.0</ele><time>2026-04-04T08:06:00.372Z</time></trkpt><trkpt lat="43.2802352" lon="11.9953796"><ele>583.0</ele><time>2026-04-04T08:06:01.372Z</time></trkpt><trkpt lat="43.2801552" lon="11.9951293"><ele>583.0</ele><time>2026-04-04T08:06:02.372Z</time></trkpt><trkpt lat="43.2800821" lon="11.9948929"><ele>577.3333333333334</ele><time>2026-04-04T08:06:03.372Z</time></trkpt><trkpt lat="43.2800111" lon="11.9946783"><ele>571.6666666666666</ele><time>2026-04-04T08:06:04.372Z</time></trkpt><trkpt lat="43.2799438" lon="11.9944553"><ele>566.0</ele><time>2026-04-04T08:06:05.372Z</time></trkpt><trkpt lat="43.2798859" lon="11.9942145"><ele>561.3333333333333</ele><time>2026-04-04T08:06:06.372Z</time></trkpt><trkpt lat="43.2798292" lon="11.9939621"><ele>556.6666666666666</ele><time>2026-04-04T08:06:07.372Z</time></trkpt><trkpt lat="43.2797529" lon="11.9937359"><ele>552.0</ele><time>2026-04-04T08:06:08.372Z</time></trkpt><trkpt lat="43.2796854" lon="11.9935043"><ele>555.6666666666666</ele><time>2026-04-04T08:06:09.372Z</time></trkpt><trkpt lat="43.279597" lon="11.9932902"><ele>559.3333333333333</ele><time>2026-04-04T08:06:10.372Z</time></trkpt><trkpt lat="43.279496" lon="11.9930621"><ele>563.0</ele><time>2026-04-04T08:06:11.372Z</time></trkpt><trkpt lat="43.2794019" lon="11.992828"><ele>563.0</ele><time>2026-04-04T08:06:12.372Z</time></trkpt><trkpt lat="43.2793101" lon="11.992587"><ele>563.0</ele><time>2026-04-04T08:06:13.372Z</time></trkpt><trkpt lat="43.2792466" lon="11.9923851"><ele>563.0</ele><time>2026-04-04T08:06:14.372Z</time></trkpt><trkpt lat="43.2791262" lon="11.992107"><ele>561.3333333333333</ele><time>2026-04-04T08:06:15.372Z</time></trkpt><trkpt lat="43.2790167" lon="11.9918484"><ele>559.6666666666666</ele><time>2026-04-04T08:06:16.372Z</time></trkpt><trkpt lat="43.2789027" lon="11.9916012"><ele>558.0</ele><time>2026-04-04T08:06:17.372Z</time></trkpt><trkpt lat="43.278795" lon="11.9913835"><ele>558.0</ele><time>2026-04-04T08:06:18.373Z</time></trkpt><trkpt lat="43.2786901" lon="11.9911802"><ele>558.0</ele><time>2026-04-04T08:06:19.372Z</time></trkpt><trkpt lat="43.2785781" lon="11.9909589"><ele>558.0</ele><time>2026-04-04T08:06:20.372Z</time></trkpt><trkpt lat="43.2784708" lon="11.9907066"><ele>552.0</ele><time>2026-04-04T08:06:21.372Z</time></trkpt><trkpt lat="43.2783649" lon="11.9904839"><ele>546.0</ele><time>2026-04-04T08:06:22.372Z</time></trkpt><trkpt lat="43.2782466" lon="11.9902597"><ele>540.0</ele><time>2026-04-04T08:06:23.372Z</time></trkpt><trkpt lat="43.2781423" lon="11.9900044"><ele>542.0</ele><time>2026-04-04T08:06:24.372Z</time></trkpt><trkpt lat="43.2780361" lon="11.9898279"><ele>544.0</ele><time>2026-04-04T08:06:25.373Z</time></trkpt><trkpt lat="43.2779203" lon="11.9896873"><ele>546.0</ele><time>2026-04-04T08:06:26.372Z</time></trkpt><trkpt lat="43.277818" lon="11.9895414"><ele>546.0</ele><time>2026-04-04T08:06:27.372Z</time></trkpt><trkpt lat="43.2777074" lon="11.9894481"><ele>546.0</ele><time>2026-04-04T08:06:28.372Z</time></trkpt><trkpt lat="43.2776067" lon="11.989348"><ele>546.0</ele><time>2026-04-04T08:06:29.372Z</time></trkpt><trkpt lat="43.2775182" lon="11.989216"><ele>546.0</ele><time>2026-04-04T08:06:30.372Z</time></trkpt><trkpt lat="43.2774727" lon="11.9890375"><ele>540.75</ele><time>2026-04-04T08:06:31.372Z</time></trkpt><trkpt lat="43.2774452" lon="11.9888379"><ele>535.5</ele><time>2026-04-04T08:06:32.372Z</time></trkpt><trkpt lat="43.2774459" lon="11.9886659"><ele>530.25</ele><time>2026-04-04T08:06:33.372Z</time></trkpt><trkpt lat="43.2774496" lon="11.9885079"><ele>525.0</ele><time>2026-04-04T08:06:34.373Z</time></trkpt><trkpt lat="43.2774409" lon="11.9883362"><ele>522.75</ele><time>2026-04-04T08:06:35.372Z</time></trkpt><trkpt lat="43.2774139" lon="11.9881655"><ele>520.5</ele><time>2026-04-04T08:06:36.373Z</time></trkpt><trkpt lat="43.2773565" lon="11.9880121"><ele>518.25</ele><time>2026-04-04T08:06:37.372Z</time></trkpt><trkpt lat="43.2772984" lon="11.9878848"><ele>516.0</ele><time>2026-04-04T08:06:38.372Z</time></trkpt><trkpt lat="43.2772298" lon="11.987754"><ele>519.2</ele><time>2026-04-04T08:06:39.372Z</time></trkpt><trkpt lat="43.2771687" lon="11.9876169"><ele>522.4000000000001</ele><time>2026-04-04T08:06:40.372Z</time></trkpt><trkpt lat="43.2771126" lon="11.9874762"><ele>525.6</ele><time>2026-04-04T08:06:41.372Z</time></trkpt><trkpt lat="43.2770583" lon="11.9873451"><ele>528.8000000000001</ele><time>2026-04-04T08:06:42.372Z</time></trkpt><trkpt lat="43.2770306" lon="11.9872237"><ele>532.0</ele><time>2026-04-04T08:06:43.372Z</time></trkpt><trkpt lat="43.2770221" lon="11.9871129"><ele>532.0</ele><time>2026-04-04T08:06:44.373Z</time></trkpt><trkpt lat="43.2770106" lon="11.9870161"><ele>532.0</ele><time>2026-04-04T08:06:45.372Z</time></trkpt><trkpt lat="43.2770031" lon="11.9868709"><ele>532.0</ele><time>2026-04-04T08:06:47.373Z</time></trkpt><trkpt lat="43.2770151" lon="11.986761"><ele>532.0</ele><time>2026-04-04T08:06:49.373Z</time></trkpt><trkpt lat="43.2770036" lon="11.9866541"><ele>532.0</ele><time>2026-04-04T08:06:52.374Z</time></trkpt><trkpt lat="43.2770052" lon="11.9865436"><ele>532.0</ele><time>2026-04-04T08:06:55.373Z</time></trkpt><trkpt lat="43.2770261" lon="11.9864303"><ele>529.8333333333334</ele><time>2026-04-04T08:06:58.374Z</time></trkpt><trkpt lat="43.2770371" lon="11.9862729"><ele>527.6666666666667</ele><time>2026-04-04T08:07:00.374Z</time></trkpt><trkpt lat="43.2770387" lon="11.9861767"><ele>525.5</ele><time>2026-04-04T08:07:01.373Z</time></trkpt><trkpt lat="43.277034" lon="11.9860698"><ele>523.3333333333334</ele><time>2026-04-04T08:07:02.373Z</time></trkpt><trkpt lat="43.2770232" lon="11.9859638"><ele>521.1666666666666</ele><time>2026-04-04T08:07:03.373Z</time></trkpt><trkpt lat="43.2770083" lon="11.9858394"><ele>519.0</ele><time>2026-04-04T08:07:04.373Z</time></trkpt><trkpt lat="43.2769841" lon="11.9856987"><ele>517.25</ele><time>2026-04-04T08:07:05.373Z</time></trkpt><trkpt lat="43.276951" lon="11.9855467"><ele>515.5</ele><time>2026-04-04T08:07:06.373Z</time></trkpt><trkpt lat="43.2769272" lon="11.9854024"><ele>513.75</ele><time>2026-04-04T08:07:07.373Z</time></trkpt><trkpt lat="43.2768996" lon="11.9852501"><ele>512.0</ele><time>2026-04-04T08:07:08.373Z</time></trkpt><trkpt lat="43.2768727" lon="11.9850992"><ele>509.5</ele><time>2026-04-04T08:07:09.373Z</time></trkpt><trkpt lat="43.2768494" lon="11.9849475"><ele>507.0</ele><time>2026-04-04T08:07:10.373Z</time></trkpt><trkpt lat="43.2768214" lon="11.984796"><ele>504.5</ele><time>2026-04-04T08:07:11.373Z</time></trkpt><trkpt lat="43.2767827" lon="11.9846515"><ele>502.0</ele><time>2026-04-04T08:07:12.373Z</time></trkpt><trkpt lat="43.2767356" lon="11.9845074"><ele>502.0</ele><time>2026-04-04T08:07:13.373Z</time></trkpt><trkpt lat="43.2766867" lon="11.9843629"><ele>502.0</ele><time>2026-04-04T08:07:14.373Z</time></trkpt><trkpt lat="43.2766373" lon="11.9842206"><ele>502.0</ele><time>2026-04-04T08:07:15.373Z</time></trkpt><trkpt lat="43.2765881" lon="11.9840802"><ele>502.0</ele><time>2026-04-04T08:07:16.374Z</time></trkpt><trkpt lat="43.2765397" lon="11.9839431"><ele>500.5</ele><time>2026-04-04T08:07:17.373Z</time></trkpt><trkpt lat="43.2764842" lon="11.983809"><ele>499.0</ele><time>2026-04-04T08:07:18.373Z</time></trkpt><trkpt lat="43.2764181" lon="11.9836815"><ele>497.5</ele><time>2026-04-04T08:07:19.373Z</time></trkpt><trkpt lat="43.2763385" lon="11.9835674"><ele>496.0</ele><time>2026-04-04T08:07:20.373Z</time></trkpt><trkpt lat="43.2762573" lon="11.9834515"><ele>496.0</ele><time>2026-04-04T08:07:21.373Z</time></trkpt><trkpt lat="43.2761664" lon="11.9833655"><ele>496.0</ele><time>2026-04-04T08:07:22.374Z</time></trkpt><trkpt lat="43.2760733" lon="11.9832818"><ele>496.0</ele><time>2026-04-04T08:07:23.374Z</time></trkpt><trkpt lat="43.2759786" lon="11.9831986"><ele>496.0</ele><time>2026-04-04T08:07:24.373Z</time></trkpt><trkpt lat="43.2758924" lon="11.983112"><ele>496.0</ele><time>2026-04-04T08:07:25.374Z</time></trkpt><trkpt lat="43.2758087" lon="11.9830225"><ele>493.7142857142857</ele><time>2026-04-04T08:07:26.373Z</time></trkpt><trkpt lat="43.275759" lon="11.9829448"><ele>491.42857142857144</ele><time>2026-04-04T08:07:27.373Z</time></trkpt><trkpt lat="43.2757199" lon="11.9828578"><ele>489.14285714285717</ele><time>2026-04-04T08:07:28.373Z</time></trkpt><trkpt lat="43.2756862" lon="11.9827742"><ele>486.8571428571429</ele><time>2026-04-04T08:07:29.374Z</time></trkpt><trkpt lat="43.2756273" lon="11.9827129"><ele>484.57142857142856</ele><time>2026-04-04T08:07:30.374Z</time></trkpt><trkpt lat="43.2755683" lon="11.9826548"><ele>482.28571428571433</ele><time>2026-04-04T08:07:31.373Z</time></trkpt><trkpt lat="43.2754926" lon="11.9826168"><ele>480.0</ele><time>2026-04-04T08:07:32.373Z</time></trkpt><trkpt lat="43.2753893" lon="11.9826251"><ele>478.75</ele><time>2026-04-04T08:07:33.373Z</time></trkpt><trkpt lat="43.2752469" lon="11.9826631"><ele>477.5</ele><time>2026-04-04T08:07:34.373Z</time></trkpt><trkpt lat="43.275104" lon="11.9827154"><ele>476.25</ele><time>2026-04-04T08:07:35.373Z</time></trkpt><trkpt lat="43.2749715" lon="11.9827611"><ele>475.0</ele><time>2026-04-04T08:07:36.373Z</time></trkpt><trkpt lat="43.2748397" lon="11.9828036"><ele>472.0</ele><time>2026-04-04T08:07:37.373Z</time></trkpt><trkpt lat="43.2747016" lon="11.9828473"><ele>469.0</ele><time>2026-04-04T08:07:38.373Z</time></trkpt><trkpt lat="43.2745603" lon="11.9828921"><ele>466.0</ele><time>2026-04-04T08:07:39.373Z</time></trkpt><trkpt lat="43.2744135" lon="11.9829414"><ele>463.0</ele><time>2026-04-04T08:07:40.373Z</time></trkpt><trkpt lat="43.274264" lon="11.9829861"><ele>463.0</ele><time>2026-04-04T08:07:41.373Z</time></trkpt><trkpt lat="43.2741161" lon="11.9830306"><ele>463.0</ele><time>2026-04-04T08:07:42.373Z</time></trkpt><trkpt lat="43.2739695" lon="11.9830734"><ele>463.0</ele><time>2026-04-04T08:07:43.373Z</time></trkpt><trkpt lat="43.2738287" lon="11.983115"><ele>463.0</ele><time>2026-04-04T08:07:44.373Z</time></trkpt><trkpt lat="43.2736877" lon="11.9831555"><ele>461.75</ele><time>2026-04-04T08:07:45.373Z</time></trkpt><trkpt lat="43.2735539" lon="11.9831894"><ele>460.5</ele><time>2026-04-04T08:07:46.374Z</time></trkpt><trkpt lat="43.273429" lon="11.9832205"><ele>459.25</ele><time>2026-04-04T08:07:47.373Z</time></trkpt><trkpt lat="43.2733058" lon="11.9832512"><ele>458.0</ele><time>2026-04-04T08:07:48.374Z</time></trkpt><trkpt lat="43.2731887" lon="11.9832946"><ele>455.5</ele><time>2026-04-04T08:07:49.373Z</time></trkpt><trkpt lat="43.2730815" lon="11.9833527"><ele>453.0</ele><time>2026-04-04T08:07:50.373Z</time></trkpt><trkpt lat="43.2729481" lon="11.9834169"><ele>450.5</ele><time>2026-04-04T08:07:51.373Z</time></trkpt><trkpt lat="43.2728088" lon="11.9835054"><ele>448.0</ele><time>2026-04-04T08:07:52.373Z</time></trkpt><trkpt lat="43.2726791" lon="11.9835985"><ele>448.0</ele><time>2026-04-04T08:07:53.373Z</time></trkpt><trkpt lat="43.2725718" lon="11.983686"><ele>448.0</ele><time>2026-04-04T08:07:54.374Z</time></trkpt><trkpt lat="43.2724648" lon="11.9838157"><ele>448.0</ele><time>2026-04-04T08:07:55.374Z</time></trkpt><trkpt lat="43.2723694" lon="11.9839553"><ele>448.0</ele><time>2026-04-04T08:07:56.373Z</time></trkpt><trkpt lat="43.2722929" lon="11.9841032"><ele>441.25</ele><time>2026-04-04T08:07:57.374Z</time></trkpt><trkpt lat="43.2722495" lon="11.9842559"><ele>434.5</ele><time>2026-04-04T08:07:58.375Z</time></trkpt><trkpt lat="43.2722263" lon="11.9844076"><ele>427.75</ele><time>2026-04-04T08:07:59.374Z</time></trkpt><trkpt lat="43.2722233" lon="11.9845544"><ele>421.0</ele><time>2026-04-04T08:08:00.374Z</time></trkpt><trkpt lat="43.2722305" lon="11.9847131"><ele>425.0</ele><time>2026-04-04T08:08:01.374Z</time></trkpt><trkpt lat="43.2722873" lon="11.9849038"><ele>429.0</ele><time>2026-04-04T08:08:02.374Z</time></trkpt><trkpt lat="43.2724127" lon="11.9851365"><ele>433.0</ele><time>2026-04-04T08:08:03.374Z</time></trkpt><trkpt lat="43.2725406" lon="11.9853086"><ele>433.0</ele><time>2026-04-04T08:08:04.374Z</time></trkpt><trkpt lat="43.2727043" lon="11.9854496"><ele>433.0</ele><time>2026-04-04T08:08:05.374Z</time></trkpt><trkpt lat="43.2728284" lon="11.9855826"><ele>433.0</ele><time>2026-04-04T08:08:06.374Z</time></trkpt><trkpt lat="43.2729307" lon="11.985719"><ele>431.0</ele><time>2026-04-04T08:08:07.374Z</time></trkpt><trkpt lat="43.273022" lon="11.9858673"><ele>429.0</ele><time>2026-04-04T08:08:08.374Z</time></trkpt><trkpt lat="43.2730629" lon="11.9860483"><ele>427.0</ele><time>2026-04-04T08:08:09.374Z</time></trkpt><trkpt lat="43.2730382" lon="11.9862394"><ele>425.0</ele><time>2026-04-04T08:08:10.374Z</time></trkpt><trkpt lat="43.2730013" lon="11.9864327"><ele>425.0</ele><time>2026-04-04T08:08:11.374Z</time></trkpt><trkpt lat="43.2729558" lon="11.9866313"><ele>425.0</ele><time>2026-04-04T08:08:12.374Z</time></trkpt><trkpt lat="43.2729091" lon="11.9868362"><ele>425.0</ele><time>2026-04-04T08:08:13.375Z</time></trkpt><trkpt lat="43.272861" lon="11.9870442"><ele>426.3333333333333</ele><time>2026-04-04T08:08:14.374Z</time></trkpt><trkpt lat="43.2728053" lon="11.9872497"><ele>427.66666666666663</ele><time>2026-04-04T08:08:15.374Z</time></trkpt><trkpt lat="43.2727485" lon="11.9874465"><ele>429.0</ele><time>2026-04-04T08:08:16.375Z</time></trkpt><trkpt lat="43.2726859" lon="11.9876369"><ele>432.25</ele><time>2026-04-04T08:08:17.374Z</time></trkpt><trkpt lat="43.2726231" lon="11.9878251"><ele>435.5</ele><time>2026-04-04T08:08:18.374Z</time></trkpt><trkpt lat="43.2725476" lon="11.9879937"><ele>438.75</ele><time>2026-04-04T08:08:19.375Z</time></trkpt><trkpt lat="43.2724324" lon="11.9881339"><ele>442.0</ele><time>2026-04-04T08:08:20.374Z</time></trkpt><trkpt lat="43.2723254" lon="11.9882731"><ele>440.0</ele><time>2026-04-04T08:08:21.374Z</time></trkpt><trkpt lat="43.2722211" lon="11.9884152"><ele>438.0</ele><time>2026-04-04T08:08:22.374Z</time></trkpt><trkpt lat="43.272122" lon="11.9885553"><ele>436.0</ele><time>2026-04-04T08:08:23.374Z</time></trkpt><trkpt lat="43.2720194" lon="11.9887008"><ele>434.0</ele><time>2026-04-04T08:08:24.374Z</time></trkpt><trkpt lat="43.2719132" lon="11.9888535"><ele>434.0</ele><time>2026-04-04T08:08:25.374Z</time></trkpt><trkpt lat="43.2718045" lon="11.9890093"><ele>434.0</ele><time>2026-04-04T08:08:26.375Z</time></trkpt><trkpt lat="43.2717053" lon="11.9891643"><ele>434.0</ele><time>2026-04-04T08:08:27.374Z</time></trkpt><trkpt lat="43.2716084" lon="11.9893141"><ele>434.5</ele><time>2026-04-04T08:08:28.374Z</time></trkpt><trkpt lat="43.2715199" lon="11.9894657"><ele>435.0</ele><time>2026-04-04T08:08:29.374Z</time></trkpt><trkpt lat="43.271449" lon="11.989622"><ele>435.5</ele><time>2026-04-04T08:08:30.375Z</time></trkpt><trkpt lat="43.2713783" lon="11.9897817"><ele>436.0</ele><time>2026-04-04T08:08:31.374Z</time></trkpt><trkpt lat="43.2713453" lon="11.9899768"><ele>424.6666666666667</ele><time>2026-04-04T08:08:32.374Z</time></trkpt><trkpt lat="43.2713199" lon="11.9901789"><ele>413.33333333333337</ele><time>2026-04-04T08:08:33.374Z</time></trkpt><trkpt lat="43.271332" lon="11.9903958"><ele>402.0</ele><time>2026-04-04T08:08:34.374Z</time></trkpt><trkpt lat="43.2713534" lon="11.990613"><ele>402.0</ele><time>2026-04-04T08:08:35.374Z</time></trkpt><trkpt lat="43.271386" lon="11.9908304"><ele>402.0</ele><time>2026-04-04T08:08:36.374Z</time></trkpt><trkpt lat="43.2714245" lon="11.9910244"><ele>402.0</ele><time>2026-04-04T08:08:37.374Z</time></trkpt><trkpt lat="43.2714588" lon="11.9912068"><ele>402.0</ele><time>2026-04-04T08:08:38.374Z</time></trkpt><trkpt lat="43.2714938" lon="11.9913851"><ele>406.8</ele><time>2026-04-04T08:08:39.374Z</time></trkpt><trkpt lat="43.2715309" lon="11.9915626"><ele>411.6</ele><time>2026-04-04T08:08:40.374Z</time></trkpt><trkpt lat="43.2715672" lon="11.991717"><ele>416.40000000000003</ele><time>2026-04-04T08:08:41.374Z</time></trkpt><trkpt lat="43.2715936" lon="11.9918487"><ele>421.20000000000005</ele><time>2026-04-04T08:08:42.374Z</time></trkpt><trkpt lat="43.2716157" lon="11.9919718"><ele>426.0</ele><time>2026-04-04T08:08:43.374Z</time></trkpt><trkpt lat="43.2716126" lon="11.9920629"><ele>429.25</ele><time>2026-04-04T08:08:44.374Z</time></trkpt><trkpt lat="43.271531" lon="11.9921013"><ele>432.5</ele><time>2026-04-04T08:08:46.374Z</time></trkpt><trkpt lat="43.2714566" lon="11.9920286"><ele>435.75</ele><time>2026-04-04T08:08:47.374Z</time></trkpt><trkpt lat="43.2713922" lon="11.991904"><ele>439.0</ele><time>2026-04-04T08:08:48.374Z</time></trkpt><trkpt lat="43.2712691" lon="11.9915763"><ele>423.6666666666667</ele><time>2026-04-04T08:08:50.374Z</time></trkpt><trkpt lat="43.2711905" lon="11.9913689"><ele>408.33333333333337</ele><time>2026-04-04T08:08:51.374Z</time></trkpt><trkpt lat="43.2711265" lon="11.9911402"><ele>393.0</ele><time>2026-04-04T08:08:52.375Z</time></trkpt><trkpt lat="43.2710517" lon="11.9909218"><ele>396.0</ele><time>2026-04-04T08:08:53.374Z</time></trkpt><trkpt lat="43.2709641" lon="11.9907084"><ele>399.0</ele><time>2026-04-04T08:08:54.374Z</time></trkpt><trkpt lat="43.2708805" lon="11.990507"><ele>402.0</ele><time>2026-04-04T08:08:55.374Z</time></trkpt><trkpt lat="43.2708081" lon="11.9903147"><ele>402.0</ele><time>2026-04-04T08:08:56.375Z</time></trkpt><trkpt lat="43.2707793" lon="11.9900829"><ele>402.0</ele><time>2026-04-04T08:08:57.374Z</time></trkpt><trkpt lat="43.2707567" lon="11.9898591"><ele>402.0</ele><time>2026-04-04T08:08:58.374Z</time></trkpt><trkpt lat="43.2707616" lon="11.9896266"><ele>402.33333333333337</ele><time>2026-04-04T08:08:59.375Z</time></trkpt><trkpt lat="43.2707815" lon="11.9893818"><ele>402.6666666666667</ele><time>2026-04-04T08:09:00.374Z</time></trkpt><trkpt lat="43.2708181" lon="11.9891561"><ele>403.0</ele><time>2026-04-04T08:09:01.375Z</time></trkpt><trkpt lat="43.270848" lon="11.9889374"><ele>403.0</ele><time>2026-04-04T08:09:02.375Z</time></trkpt><trkpt lat="43.2708782" lon="11.9887151"><ele>403.0</ele><time>2026-04-04T08:09:03.375Z</time></trkpt><trkpt lat="43.270927" lon="11.9885239"><ele>403.0</ele><time>2026-04-04T08:09:04.375Z</time></trkpt><trkpt lat="43.2709789" lon="11.9883312"><ele>399.6666666666667</ele><time>2026-04-04T08:09:05.375Z</time></trkpt><trkpt lat="43.2710659" lon="11.9881427"><ele>396.33333333333337</ele><time>2026-04-04T08:09:06.375Z</time></trkpt><trkpt lat="43.2711645" lon="11.9879679"><ele>393.0</ele><time>2026-04-04T08:09:07.375Z</time></trkpt><trkpt lat="43.2712655" lon="11.9878041"><ele>393.0</ele><time>2026-04-04T08:09:08.375Z</time></trkpt><trkpt lat="43.2713704" lon="11.9876568"><ele>393.0</ele><time>2026-04-04T08:09:09.375Z</time></trkpt><trkpt lat="43.2714655" lon="11.987513"><ele>393.0</ele><time>2026-04-04T08:09:10.375Z</time></trkpt><trkpt lat="43.2715396" lon="11.9873738"><ele>393.0</ele><time>2026-04-04T08:09:11.375Z</time></trkpt><trkpt lat="43.2716008" lon="11.9872093"><ele>394.0</ele><time>2026-04-04T08:09:12.375Z</time></trkpt><trkpt lat="43.2716152" lon="11.9869925"><ele>395.0</ele><time>2026-04-04T08:09:13.375Z</time></trkpt><trkpt lat="43.2716318" lon="11.9867751"><ele>396.0</ele><time>2026-04-04T08:09:14.375Z</time></trkpt><trkpt lat="43.2716292" lon="11.9865812"><ele>396.0</ele><time>2026-04-04T08:09:15.375Z</time></trkpt><trkpt lat="43.2716229" lon="11.9864004"><ele>396.0</ele><time>2026-04-04T08:09:16.375Z</time></trkpt><trkpt lat="43.2715604" lon="11.9862444"><ele>396.0</ele><time>2026-04-04T08:09:17.375Z</time></trkpt><trkpt lat="43.2714717" lon="11.9861031"><ele>396.0</ele><time>2026-04-04T08:09:18.375Z</time></trkpt><trkpt lat="43.2713706" lon="11.985952"><ele>391.0</ele><time>2026-04-04T08:09:19.375Z</time></trkpt><trkpt lat="43.2712281" lon="11.9858293"><ele>386.0</ele><time>2026-04-04T08:09:20.375Z</time></trkpt><trkpt lat="43.2710706" lon="11.9857072"><ele>381.0</ele><time>2026-04-04T08:09:21.375Z</time></trkpt><trkpt lat="43.27092" lon="11.9855839"><ele>381.0</ele><time>2026-04-04T08:09:22.375Z</time></trkpt><trkpt lat="43.2707845" lon="11.9854661"><ele>381.0</ele><time>2026-04-04T08:09:23.376Z</time></trkpt><trkpt lat="43.2706484" lon="11.9853426"><ele>381.0</ele><time>2026-04-04T08:09:24.375Z</time></trkpt><trkpt lat="43.2705312" lon="11.9852268"><ele>379.75</ele><time>2026-04-04T08:09:25.375Z</time></trkpt><trkpt lat="43.2704155" lon="11.9851235"><ele>378.5</ele><time>2026-04-04T08:09:26.375Z</time></trkpt><trkpt lat="43.2703117" lon="11.9850229"><ele>377.25</ele><time>2026-04-04T08:09:27.375Z</time></trkpt><trkpt lat="43.2702232" lon="11.9849291"><ele>376.0</ele><time>2026-04-04T08:09:28.375Z</time></trkpt><trkpt lat="43.270139" lon="11.9848424"><ele>376.0</ele><time>2026-04-04T08:09:29.375Z</time></trkpt><trkpt lat="43.2700783" lon="11.9847942"><ele>376.0</ele><time>2026-04-04T08:09:30.375Z</time></trkpt><trkpt lat="43.2699832" lon="11.9847698"><ele>376.0</ele><time>2026-04-04T08:09:32.376Z</time></trkpt><trkpt lat="43.2699216" lon="11.9848124"><ele>376.0</ele><time>2026-04-04T08:09:34.375Z</time></trkpt><trkpt lat="43.2699443" lon="11.9849435"><ele>376.0</ele><time>2026-04-04T08:09:36.375Z</time></trkpt><trkpt lat="43.270008" lon="11.9850123"><ele>376.0</ele><time>2026-04-04T08:09:37.375Z</time></trkpt><trkpt lat="43.2700856" lon="11.9850894"><ele>373.25</ele><time>2026-04-04T08:09:38.375Z</time></trkpt><trkpt lat="43.2701694" lon="11.9851789"><ele>370.5</ele><time>2026-04-04T08:09:39.375Z</time></trkpt><trkpt lat="43.2702563" lon="11.9852912"><ele>367.75</ele><time>2026-04-04T08:09:40.375Z</time></trkpt><trkpt lat="43.2703463" lon="11.9854172"><ele>365.0</ele><time>2026-04-04T08:09:41.375Z</time></trkpt><trkpt lat="43.2704406" lon="11.9855478"><ele>365.0</ele><time>2026-04-04T08:09:42.375Z</time></trkpt><trkpt lat="43.2705334" lon="11.9856787"><ele>365.0</ele><time>2026-04-04T08:09:43.375Z</time></trkpt><trkpt lat="43.2706278" lon="11.9858135"><ele>365.0</ele><time>2026-04-04T08:09:44.375Z</time></trkpt><trkpt lat="43.2707217" lon="11.9859503"><ele>365.0</ele><time>2026-04-04T08:09:45.375Z</time></trkpt><trkpt lat="43.2708115" lon="11.9860818"><ele>366.75</ele><time>2026-04-04T08:09:46.375Z</time></trkpt><trkpt lat="43.2708963" lon="11.9862075"><ele>368.5</ele><time>2026-04-04T08:09:47.375Z</time></trkpt><trkpt lat="43.2709755" lon="11.9863313"><ele>370.25</ele><time>2026-04-04T08:09:48.375Z</time></trkpt><trkpt lat="43.271049" lon="11.9864571"><ele>372.0</ele><time>2026-04-04T08:09:49.376Z</time></trkpt><trkpt lat="43.271087" lon="11.9866016"><ele>373.8</ele><time>2026-04-04T08:09:50.375Z</time></trkpt><trkpt lat="43.2710902" lon="11.9867558"><ele>375.6</ele><time>2026-04-04T08:09:51.376Z</time></trkpt><trkpt lat="43.2710586" lon="11.986906"><ele>377.40000000000003</ele><time>2026-04-04T08:09:52.375Z</time></trkpt><trkpt lat="43.2710214" lon="11.9870527"><ele>379.20000000000005</ele><time>2026-04-04T08:09:53.375Z</time></trkpt><trkpt lat="43.2709533" lon="11.9871647"><ele>381.0</ele><time>2026-04-04T08:09:54.376Z</time></trkpt><trkpt lat="43.2708749" lon="11.9872503"><ele>381.0</ele><time>2026-04-04T08:09:55.375Z</time></trkpt><trkpt lat="43.2707585" lon="11.9873217"><ele>381.0</ele><time>2026-04-04T08:09:56.375Z</time></trkpt><trkpt lat="43.2706203" lon="11.9873843"><ele>381.0</ele><time>2026-04-04T08:09:57.375Z</time></trkpt><trkpt lat="43.2704798" lon="11.9874828"><ele>381.0</ele><time>2026-04-04T08:09:58.375Z</time></trkpt><trkpt lat="43.2703502" lon="11.9876203"><ele>376.6666666666667</ele><time>2026-04-04T08:09:59.375Z</time></trkpt><trkpt lat="43.2702338" lon="11.9877961"><ele>372.33333333333337</ele><time>2026-04-04T08:10:00.375Z</time></trkpt><trkpt lat="43.2701111" lon="11.9879747"><ele>368.0</ele><time>2026-04-04T08:10:01.375Z</time></trkpt><trkpt lat="43.2699824" lon="11.9881592"><ele>368.0</ele><time>2026-04-04T08:10:02.375Z</time></trkpt><trkpt lat="43.2698656" lon="11.9883286"><ele>368.0</ele><time>2026-04-04T08:10:03.375Z</time></trkpt><trkpt lat="43.2697581" lon="11.9884841"><ele>368.0</ele><time>2026-04-04T08:10:04.375Z</time></trkpt><trkpt lat="43.2696607" lon="11.988635"><ele>361.0</ele><time>2026-04-04T08:10:05.377Z</time></trkpt><trkpt lat="43.2695629" lon="11.9887898"><ele>354.0</ele><time>2026-04-04T08:10:06.376Z</time></trkpt><trkpt lat="43.2694855" lon="11.9889645"><ele>347.0</ele><time>2026-04-04T08:10:07.377Z</time></trkpt><trkpt lat="43.2694223" lon="11.9891611"><ele>347.33333333333337</ele><time>2026-04-04T08:10:08.376Z</time></trkpt><trkpt lat="43.2693807" lon="11.9893847"><ele>347.6666666666667</ele><time>2026-04-04T08:10:09.377Z</time></trkpt><trkpt lat="43.2693349" lon="11.9895896"><ele>348.0</ele><time>2026-04-04T08:10:10.376Z</time></trkpt><trkpt lat="43.2692965" lon="11.9897927"><ele>348.0</ele><time>2026-04-04T08:10:11.376Z</time></trkpt><trkpt lat="43.2692792" lon="11.9900019"><ele>348.0</ele><time>2026-04-04T08:10:12.376Z</time></trkpt><trkpt lat="43.2692669" lon="11.9902093"><ele>348.0</ele><time>2026-04-04T08:10:13.376Z</time></trkpt><trkpt lat="43.2692753" lon="11.9904284"><ele>347.3333333333333</ele><time>2026-04-04T08:10:14.376Z</time></trkpt><trkpt lat="43.269298" lon="11.9906528"><ele>346.66666666666663</ele><time>2026-04-04T08:10:15.376Z</time></trkpt><trkpt lat="43.2693181" lon="11.9908727"><ele>346.0</ele><time>2026-04-04T08:10:16.377Z</time></trkpt><trkpt lat="43.2693323" lon="11.9910755"><ele>346.0</ele><time>2026-04-04T08:10:17.377Z</time></trkpt><trkpt lat="43.26936" lon="11.991254"><ele>346.0</ele><time>2026-04-04T08:10:18.376Z</time></trkpt><trkpt lat="43.2694013" lon="11.9914079"><ele>346.0</ele><time>2026-04-04T08:10:19.376Z</time></trkpt><trkpt lat="43.269426" lon="11.9915608"><ele>346.0</ele><time>2026-04-04T08:10:20.376Z</time></trkpt><trkpt lat="43.2694434" lon="11.9917125"><ele>348.20000000000005</ele><time>2026-04-04T08:10:21.376Z</time></trkpt><trkpt lat="43.2694019" lon="11.991842"><ele>350.40000000000003</ele><time>2026-04-04T08:10:22.376Z</time></trkpt><trkpt lat="43.2693563" lon="11.9919601"><ele>352.6</ele><time>2026-04-04T08:10:23.377Z</time></trkpt><trkpt lat="43.2692632" lon="11.9920164"><ele>354.8</ele><time>2026-04-04T08:10:24.376Z</time></trkpt><trkpt lat="43.2691751" lon="11.9920561"><ele>357.0</ele><time>2026-04-04T08:10:25.376Z</time></trkpt><trkpt lat="43.2690916" lon="11.9920235"><ele>357.0</ele><time>2026-04-04T08:10:26.376Z</time></trkpt><trkpt lat="43.2690188" lon="11.9919799"><ele>357.0</ele><time>2026-04-04T08:10:27.376Z</time></trkpt><trkpt lat="43.2689558" lon="11.991912"><ele>357.0</ele><time>2026-04-04T08:10:28.376Z</time></trkpt><trkpt lat="43.2689228" lon="11.9918015"><ele>357.0</ele><time>2026-04-04T08:10:29.376Z</time></trkpt><trkpt lat="43.268903" lon="11.9916523"><ele>357.0</ele><time>2026-04-04T08:10:30.376Z</time></trkpt><trkpt lat="43.2689224" lon="11.9914567"><ele>353.3333333333333</ele><time>2026-04-04T08:10:31.377Z</time></trkpt><trkpt lat="43.2689461" lon="11.9912448"><ele>349.66666666666663</ele><time>2026-04-04T08:10:32.376Z</time></trkpt><trkpt lat="43.2689508" lon="11.9910298"><ele>346.0</ele><time>2026-04-04T08:10:33.376Z</time></trkpt><trkpt lat="43.268919" lon="11.9907948"><ele>340.3333333333333</ele><time>2026-04-04T08:10:34.376Z</time></trkpt><trkpt lat="43.2688833" lon="11.9905677"><ele>334.6666666666667</ele><time>2026-04-04T08:10:35.376Z</time></trkpt><trkpt lat="43.2688432" lon="11.9903428"><ele>329.0</ele><time>2026-04-04T08:10:36.376Z</time></trkpt><trkpt lat="43.2688055" lon="11.990123"><ele>328.6666666666667</ele><time>2026-04-04T08:10:37.376Z</time></trkpt><trkpt lat="43.2687676" lon="11.9899147"><ele>328.3333333333333</ele><time>2026-04-04T08:10:38.376Z</time></trkpt><trkpt lat="43.2687292" lon="11.9897115"><ele>328.0</ele><time>2026-04-04T08:10:39.377Z</time></trkpt><trkpt lat="43.2686929" lon="11.9895175"><ele>328.0</ele><time>2026-04-04T08:10:40.376Z</time></trkpt><trkpt lat="43.2686738" lon="11.9893167"><ele>328.0</ele><time>2026-04-04T08:10:41.376Z</time></trkpt><trkpt lat="43.2686668" lon="11.9891063"><ele>328.0</ele><time>2026-04-04T08:10:42.376Z</time></trkpt><trkpt lat="43.26867" lon="11.9888912"><ele>327.3333333333333</ele><time>2026-04-04T08:10:43.377Z</time></trkpt><trkpt lat="43.2686931" lon="11.9886724"><ele>326.6666666666667</ele><time>2026-04-04T08:10:44.376Z</time></trkpt><trkpt lat="43.2687257" lon="11.9884484"><ele>326.0</ele><time>2026-04-04T08:10:45.376Z</time></trkpt><trkpt lat="43.2687575" lon="11.9882237"><ele>325.0</ele><time>2026-04-04T08:10:46.376Z</time></trkpt><trkpt lat="43.2687871" lon="11.9880008"><ele>324.0</ele><time>2026-04-04T08:10:47.376Z</time></trkpt><trkpt lat="43.2688171" lon="11.9877944"><ele>323.0</ele><time>2026-04-04T08:10:48.376Z</time></trkpt><trkpt lat="43.2688452" lon="11.9875952"><ele>321.75</ele><time>2026-04-04T08:10:49.376Z</time></trkpt><trkpt lat="43.2688793" lon="11.987408"><ele>320.5</ele><time>2026-04-04T08:10:50.376Z</time></trkpt><trkpt lat="43.2689017" lon="11.9872245"><ele>319.25</ele><time>2026-04-04T08:10:51.376Z</time></trkpt><trkpt lat="43.2688981" lon="11.9870448"><ele>318.0</ele><time>2026-04-04T08:10:52.376Z</time></trkpt><trkpt lat="43.2688657" lon="11.9868703"><ele>318.0</ele><time>2026-04-04T08:10:53.376Z</time></trkpt><trkpt lat="43.2688019" lon="11.9867083"><ele>318.0</ele><time>2026-04-04T08:10:54.376Z</time></trkpt><trkpt lat="43.2687053" lon="11.9865659"><ele>318.0</ele><time>2026-04-04T08:10:55.376Z</time></trkpt><trkpt lat="43.2685803" lon="11.9864387"><ele>318.0</ele><time>2026-04-04T08:10:56.376Z</time></trkpt><trkpt lat="43.2684489" lon="11.9863135"><ele>318.3333333333333</ele><time>2026-04-04T08:10:57.376Z</time></trkpt><trkpt lat="43.2683051" lon="11.9861842"><ele>318.66666666666663</ele><time>2026-04-04T08:10:58.376Z</time></trkpt><trkpt lat="43.2681625" lon="11.9860379"><ele>319.0</ele><time>2026-04-04T08:10:59.377Z</time></trkpt><trkpt lat="43.2680167" lon="11.9858847"><ele>316.3333333333333</ele><time>2026-04-04T08:11:00.376Z</time></trkpt><trkpt lat="43.2678696" lon="11.9857238"><ele>313.6666666666667</ele><time>2026-04-04T08:11:01.376Z</time></trkpt><trkpt lat="43.2677235" lon="11.9855602"><ele>311.0</ele><time>2026-04-04T08:11:02.377Z</time></trkpt><trkpt lat="43.2675816" lon="11.9853988"><ele>311.0</ele><time>2026-04-04T08:11:03.376Z</time></trkpt><trkpt lat="43.2674383" lon="11.9852397"><ele>311.0</ele><time>2026-04-04T08:11:04.376Z</time></trkpt><trkpt lat="43.2673021" lon="11.9850854"><ele>311.0</ele><time>2026-04-04T08:11:05.377Z</time></trkpt><trkpt lat="43.267161" lon="11.9849335"><ele>310.0</ele><time>2026-04-04T08:11:06.377Z</time></trkpt><trkpt lat="43.2670165" lon="11.9847862"><ele>309.0</ele><time>2026-04-04T08:11:07.376Z</time></trkpt><trkpt lat="43.2668426" lon="11.9846899"><ele>308.0</ele><time>2026-04-04T08:11:08.377Z</time></trkpt><trkpt lat="43.266667" lon="11.9846229"><ele>308.0</ele><time>2026-04-04T08:11:09.377Z</time></trkpt><trkpt lat="43.2664948" lon="11.9845742"><ele>308.0</ele><time>2026-04-04T08:11:10.377Z</time></trkpt><trkpt lat="43.2663311" lon="11.9845161"><ele>308.0</ele><time>2026-04-04T08:11:11.377Z</time></trkpt><trkpt lat="43.2661688" lon="11.9844574"><ele>304.33333333333337</ele><time>2026-04-04T08:11:12.377Z</time></trkpt><trkpt lat="43.2660091" lon="11.9843951"><ele>300.6666666666667</ele><time>2026-04-04T08:11:13.377Z</time></trkpt><trkpt lat="43.2658625" lon="11.9843083"><ele>297.0</ele><time>2026-04-04T08:11:14.377Z</time></trkpt><trkpt lat="43.2657399" lon="11.984203"><ele>296.6666666666667</ele><time>2026-04-04T08:11:15.377Z</time></trkpt><trkpt lat="43.2656154" lon="11.9840597"><ele>296.33333333333337</ele><time>2026-04-04T08:11:16.377Z</time></trkpt><trkpt lat="43.2655217" lon="11.9839099"><ele>296.0</ele><time>2026-04-04T08:11:17.377Z</time></trkpt><trkpt lat="43.2654366" lon="11.9837425"><ele>296.0</ele><time>2026-04-04T08:11:18.378Z</time></trkpt><trkpt lat="43.2653713" lon="11.9835727"><ele>296.0</ele><time>2026-04-04T08:11:19.377Z</time></trkpt><trkpt lat="43.2653095" lon="11.9834069"><ele>296.0</ele><time>2026-04-04T08:11:20.377Z</time></trkpt><trkpt lat="43.2652326" lon="11.9832636"><ele>296.0</ele><time>2026-04-04T08:11:21.377Z</time></trkpt><trkpt lat="43.26516" lon="11.9831411"><ele>296.6</ele><time>2026-04-04T08:11:22.377Z</time></trkpt><trkpt lat="43.2650916" lon="11.9830465"><ele>297.20000000000005</ele><time>2026-04-04T08:11:23.377Z</time></trkpt><trkpt lat="43.2650245" lon="11.9829763"><ele>297.79999999999995</ele><time>2026-04-04T08:11:24.377Z</time></trkpt><trkpt lat="43.2649138" lon="11.9829704"><ele>298.4</ele><time>2026-04-04T08:11:26.378Z</time></trkpt><trkpt lat="43.2648526" lon="11.9830575"><ele>299.0</ele><time>2026-04-04T08:11:27.377Z</time></trkpt><trkpt lat="43.264807" lon="11.9831608"><ele>299.0</ele><time>2026-04-04T08:11:28.378Z</time></trkpt><trkpt lat="43.2647868" lon="11.9832979"><ele>299.0</ele><time>2026-04-04T08:11:29.377Z</time></trkpt><trkpt lat="43.2647886" lon="11.9834582"><ele>299.0</ele><time>2026-04-04T08:11:30.377Z</time></trkpt><trkpt lat="43.2648113" lon="11.9836185"><ele>299.0</ele><time>2026-04-04T08:11:31.378Z</time></trkpt><trkpt lat="43.2648407" lon="11.9837595"><ele>299.0</ele><time>2026-04-04T08:11:32.377Z</time></trkpt><trkpt lat="43.2649017" lon="11.9838843"><ele>298.5</ele><time>2026-04-04T08:11:33.377Z</time></trkpt><trkpt lat="43.2649616" lon="11.9839872"><ele>298.0</ele><time>2026-04-04T08:11:34.377Z</time></trkpt><trkpt lat="43.2650046" lon="11.984094"><ele>297.5</ele><time>2026-04-04T08:11:35.377Z</time></trkpt><trkpt lat="43.2650273" lon="11.9842176"><ele>297.0</ele><time>2026-04-04T08:11:36.377Z</time></trkpt><trkpt lat="43.2649906" lon="11.9843159"><ele>296.5</ele><time>2026-04-04T08:11:37.378Z</time></trkpt><trkpt lat="43.264941" lon="11.9844083"><ele>296.0</ele><time>2026-04-04T08:11:38.377Z</time></trkpt><trkpt lat="43.2648677" lon="11.9844655"><ele>292.5</ele><time>2026-04-04T08:11:39.377Z</time></trkpt><trkpt lat="43.2647648" lon="11.9844711"><ele>289.0</ele><time>2026-04-04T08:11:40.377Z</time></trkpt><trkpt lat="43.2646605" lon="11.9844161"><ele>285.5</ele><time>2026-04-04T08:11:41.377Z</time></trkpt><trkpt lat="43.264554" lon="11.9843106"><ele>282.0</ele><time>2026-04-04T08:11:42.377Z</time></trkpt><trkpt lat="43.2644567" lon="11.9841743"><ele>282.0</ele><time>2026-04-04T08:11:43.377Z</time></trkpt><trkpt lat="43.2643578" lon="11.98407"><ele>282.0</ele><time>2026-04-04T08:11:44.377Z</time></trkpt><trkpt lat="43.2642578" lon="11.9839962"><ele>282.0</ele><time>2026-04-04T08:11:45.377Z</time></trkpt><trkpt lat="43.2641379" lon="11.9840133"><ele>282.0</ele><time>2026-04-04T08:11:46.377Z</time></trkpt><trkpt lat="43.2640182" lon="11.9840405"><ele>279.3333333333333</ele><time>2026-04-04T08:11:47.377Z</time></trkpt><trkpt lat="43.2638891" lon="11.984112"><ele>276.66666666666663</ele><time>2026-04-04T08:11:48.377Z</time></trkpt><trkpt lat="43.2637562" lon="11.9842418"><ele>274.0</ele><time>2026-04-04T08:11:49.377Z</time></trkpt><trkpt lat="43.2636156" lon="11.9843833"><ele>274.0</ele><time>2026-04-04T08:11:50.377Z</time></trkpt><trkpt lat="43.2634776" lon="11.9845097"><ele>274.0</ele><time>2026-04-04T08:11:51.378Z</time></trkpt><trkpt lat="43.2633441" lon="11.9846247"><ele>274.0</ele><time>2026-04-04T08:11:52.378Z</time></trkpt><trkpt lat="43.2632241" lon="11.984719"><ele>273.0</ele><time>2026-04-04T08:11:53.377Z</time></trkpt><trkpt lat="43.2631059" lon="11.9847732"><ele>272.0</ele><time>2026-04-04T08:11:54.377Z</time></trkpt><trkpt lat="43.2629768" lon="11.9847688"><ele>271.0</ele><time>2026-04-04T08:11:55.377Z</time></trkpt><trkpt lat="43.2628582" lon="11.9847354"><ele>270.0</ele><time>2026-04-04T08:11:56.377Z</time></trkpt><trkpt lat="43.2627488" lon="11.9846921"><ele>270.0</ele><time>2026-04-04T08:11:57.377Z</time></trkpt><trkpt lat="43.2626615" lon="11.9846372"><ele>270.0</ele><time>2026-04-04T08:11:58.378Z</time></trkpt><trkpt lat="43.2626" lon="11.9845666"><ele>270.0</ele><time>2026-04-04T08:11:59.377Z</time></trkpt><trkpt lat="43.2625361" lon="11.9845028"><ele>270.0</ele><time>2026-04-04T08:12:00.377Z</time></trkpt><trkpt lat="43.2624656" lon="11.9844703"><ele>270.0</ele><time>2026-04-04T08:12:01.377Z</time></trkpt><trkpt lat="43.262349" lon="11.9844733"><ele>270.0</ele><time>2026-04-04T08:12:02.377Z</time></trkpt><trkpt lat="43.2622225" lon="11.9844653"><ele>269.5</ele><time>2026-04-04T08:12:03.377Z</time></trkpt><trkpt lat="43.2620915" lon="11.9844115"><ele>269.0</ele><time>2026-04-04T08:12:04.377Z</time></trkpt><trkpt lat="43.2619596" lon="11.9843541"><ele>268.5</ele><time>2026-04-04T08:12:05.377Z</time></trkpt><trkpt lat="43.2618292" lon="11.9842975"><ele>268.0</ele><time>2026-04-04T08:12:06.378Z</time></trkpt><trkpt lat="43.2617021" lon="11.9842454"><ele>268.0</ele><time>2026-04-04T08:12:07.377Z</time></trkpt><trkpt lat="43.2615802" lon="11.9841918"><ele>268.0</ele><time>2026-04-04T08:12:08.377Z</time></trkpt><trkpt lat="43.2614608" lon="11.9841397"><ele>268.0</ele><time>2026-04-04T08:12:09.378Z</time></trkpt><trkpt lat="43.2613443" lon="11.9840905"><ele>268.0</ele><time>2026-04-04T08:12:10.377Z</time></trkpt><trkpt lat="43.26123" lon="11.9840457"><ele>267.0</ele><time>2026-04-04T08:12:11.378Z</time></trkpt><trkpt lat="43.2611244" lon="11.9840075"><ele>266.0</ele><time>2026-04-04T08:12:12.379Z</time></trkpt><trkpt lat="43.2610274" lon="11.9839769"><ele>265.0</ele><time>2026-04-04T08:12:13.378Z</time></trkpt><trkpt lat="43.2609391" lon="11.9839451"><ele>264.0</ele><time>2026-04-04T08:12:14.378Z</time></trkpt><trkpt lat="43.2608462" lon="11.9839015"><ele>263.0</ele><time>2026-04-04T08:12:15.379Z</time></trkpt><trkpt lat="43.2607427" lon="11.9838519"><ele>263.0</ele><time>2026-04-04T08:12:16.378Z</time></trkpt><trkpt lat="43.2606188" lon="11.9837846"><ele>263.0</ele><time>2026-04-04T08:12:17.379Z</time></trkpt><trkpt lat="43.2604944" lon="11.9836935"><ele>263.0</ele><time>2026-04-04T08:12:18.378Z</time></trkpt><trkpt lat="43.2603686" lon="11.9835807"><ele>263.0</ele><time>2026-04-04T08:12:19.378Z</time></trkpt><trkpt lat="43.2602362" lon="11.9834631"><ele>263.0</ele><time>2026-04-04T08:12:20.378Z</time></trkpt><trkpt lat="43.260103" lon="11.9833443"><ele>263.0</ele><time>2026-04-04T08:12:21.378Z</time></trkpt><trkpt lat="43.2599611" lon="11.9832256"><ele>263.0</ele><time>2026-04-04T08:12:22.378Z</time></trkpt><trkpt lat="43.2598203" lon="11.983101"><ele>261.6666666666667</ele><time>2026-04-04T08:12:23.378Z</time></trkpt><trkpt lat="43.2596798" lon="11.9829906"><ele>260.3333333333333</ele><time>2026-04-04T08:12:24.378Z</time></trkpt><trkpt lat="43.2595381" lon="11.9828903"><ele>259.0</ele><time>2026-04-04T08:12:25.379Z</time></trkpt><trkpt lat="43.2593917" lon="11.9827959"><ele>259.0</ele><time>2026-04-04T08:12:26.378Z</time></trkpt><trkpt lat="43.2592527" lon="11.9827014"><ele>259.0</ele><time>2026-04-04T08:12:27.379Z</time></trkpt><trkpt lat="43.2591171" lon="11.9826076"><ele>259.0</ele><time>2026-04-04T08:12:28.378Z</time></trkpt><trkpt lat="43.2589833" lon="11.9825161"><ele>258.66666666666663</ele><time>2026-04-04T08:12:29.378Z</time></trkpt><trkpt lat="43.2588409" lon="11.9824146"><ele>258.3333333333333</ele><time>2026-04-04T08:12:30.378Z</time></trkpt><trkpt lat="43.2587017" lon="11.9823087"><ele>258.0</ele><time>2026-04-04T08:12:31.378Z</time></trkpt><trkpt lat="43.2585742" lon="11.9821708"><ele>258.0</ele><time>2026-04-04T08:12:32.378Z</time></trkpt><trkpt lat="43.2584475" lon="11.9820256"><ele>258.0</ele><time>2026-04-04T08:12:33.378Z</time></trkpt><trkpt lat="43.2583238" lon="11.9818723"><ele>258.0</ele><time>2026-04-04T08:12:34.378Z</time></trkpt><trkpt lat="43.2582126" lon="11.9817015"><ele>257.6666666666667</ele><time>2026-04-04T08:12:35.378Z</time></trkpt><trkpt lat="43.258106" lon="11.9815388"><ele>257.33333333333337</ele><time>2026-04-04T08:12:36.378Z</time></trkpt><trkpt lat="43.2580055" lon="11.9813834"><ele>257.0</ele><time>2026-04-04T08:12:37.378Z</time></trkpt><trkpt lat="43.2579123" lon="11.9812365"><ele>257.0</ele><time>2026-04-04T08:12:38.378Z</time></trkpt><trkpt lat="43.2578257" lon="11.9810999"><ele>257.0</ele><time>2026-04-04T08:12:39.379Z</time></trkpt><trkpt lat="43.2577498" lon="11.9809814"><ele>257.0</ele><time>2026-04-04T08:12:40.379Z</time></trkpt><trkpt lat="43.2576877" lon="11.9808826"><ele>257.0</ele><time>2026-04-04T08:12:41.378Z</time></trkpt><trkpt lat="43.2576337" lon="11.9807921"><ele>257.0</ele><time>2026-04-04T08:12:42.378Z</time></trkpt><trkpt lat="43.257571" lon="11.9806843"><ele>257.2</ele><time>2026-04-04T08:12:44.378Z</time></trkpt><trkpt lat="43.2575455" lon="11.9805954"><ele>257.4</ele><time>2026-04-04T08:12:48.379Z</time></trkpt><trkpt lat="43.2575339" lon="11.9804389"><ele>257.6</ele><time>2026-04-04T08:12:51.378Z</time></trkpt><trkpt lat="43.2575263" lon="11.9803502"><ele>257.8</ele><time>2026-04-04T08:12:52.378Z</time></trkpt><trkpt lat="43.257463" lon="11.9802305"><ele>258.0</ele><time>2026-04-04T08:12:54.378Z</time></trkpt><trkpt lat="43.2573766" lon="11.980155"><ele>258.0</ele><time>2026-04-04T08:12:56.378Z</time></trkpt><trkpt lat="43.257313" lon="11.980223"><ele>258.0</ele><time>2026-04-04T08:12:58.378Z</time></trkpt><trkpt lat="43.2572663" lon="11.9803105"><ele>258.0</ele><time>2026-04-04T08:12:59.378Z</time></trkpt><trkpt lat="43.2571864" lon="11.9804137"><ele>258.0</ele><time>2026-04-04T08:13:00.378Z</time></trkpt><trkpt lat="43.2570798" lon="11.9805037"><ele>258.0</ele><time>2026-04-04T08:13:01.379Z</time></trkpt><trkpt lat="43.2569691" lon="11.9805904"><ele>257.5</ele><time>2026-04-04T08:13:02.379Z</time></trkpt><trkpt lat="43.2568559" lon="11.9806836"><ele>257.0</ele><time>2026-04-04T08:13:03.378Z</time></trkpt><trkpt lat="43.2567333" lon="11.9807921"><ele>256.5</ele><time>2026-04-04T08:13:04.378Z</time></trkpt><trkpt lat="43.2566096" lon="11.9808974"><ele>256.0</ele><time>2026-04-04T08:13:05.378Z</time></trkpt><trkpt lat="43.2565011" lon="11.9809765"><ele>255.8</ele><time>2026-04-04T08:13:06.378Z</time></trkpt><trkpt lat="43.2564014" lon="11.9810477"><ele>255.60000000000002</ele><time>2026-04-04T08:13:07.378Z</time></trkpt><trkpt lat="43.2563058" lon="11.9811155"><ele>255.4</ele><time>2026-04-04T08:13:08.378Z</time></trkpt><trkpt lat="43.2562173" lon="11.9811821"><ele>255.2</ele><time>2026-04-04T08:13:09.378Z</time></trkpt><trkpt lat="43.2561293" lon="11.9812471"><ele>255.0</ele><time>2026-04-04T08:13:10.378Z</time></trkpt><trkpt lat="43.2560395" lon="11.9813057"><ele>255.0</ele><time>2026-04-04T08:13:11.379Z</time></trkpt><trkpt lat="43.2559605" lon="11.9813544"><ele>255.0</ele><time>2026-04-04T08:13:12.379Z</time></trkpt><trkpt lat="43.2558982" lon="11.9813926"><ele>255.0</ele><time>2026-04-04T08:13:13.379Z</time></trkpt><trkpt lat="43.2558406" lon="11.9814312"><ele>255.0</ele><time>2026-04-04T08:13:14.379Z</time></trkpt><trkpt lat="43.2557718" lon="11.9814834"><ele>255.0</ele><time>2026-04-04T08:13:15.379Z</time></trkpt><trkpt lat="43.2556868" lon="11.9815432"><ele>255.0</ele><time>2026-04-04T08:13:16.379Z</time></trkpt><trkpt lat="43.2555889" lon="11.9816003"><ele>255.25</ele><time>2026-04-04T08:13:17.38Z</time></trkpt><trkpt lat="43.2554803" lon="11.9816588"><ele>255.5</ele><time>2026-04-04T08:13:18.379Z</time></trkpt><trkpt lat="43.2553578" lon="11.9817285"><ele>255.75</ele><time>2026-04-04T08:13:19.38Z</time></trkpt><trkpt lat="43.2552221" lon="11.9818105"><ele>256.0</ele><time>2026-04-04T08:13:20.379Z</time></trkpt><trkpt lat="43.2550854" lon="11.9818981"><ele>256.0</ele><time>2026-04-04T08:13:21.379Z</time></trkpt><trkpt lat="43.2549488" lon="11.9819875"><ele>256.0</ele><time>2026-04-04T08:13:22.379Z</time></trkpt><trkpt lat="43.2547997" lon="11.9820871"><ele>256.0</ele><time>2026-04-04T08:13:23.379Z</time></trkpt><trkpt lat="43.2546466" lon="11.9821894"><ele>256.0</ele><time>2026-04-04T08:13:24.379Z</time></trkpt><trkpt lat="43.2544881" lon="11.9823006"><ele>256.0</ele><time>2026-04-04T08:13:25.379Z</time></trkpt><trkpt lat="43.2543275" lon="11.9824188"><ele>256.0</ele><time>2026-04-04T08:13:26.38Z</time></trkpt><trkpt lat="43.2541673" lon="11.9825429"><ele>256.0</ele><time>2026-04-04T08:13:27.38Z</time></trkpt><trkpt lat="43.2540036" lon="11.9826714"><ele>256.0</ele><time>2026-04-04T08:13:28.379Z</time></trkpt><trkpt lat="43.253837" lon="11.9828052"><ele>256.0</ele><time>2026-04-04T08:13:29.38Z</time></trkpt><trkpt lat="43.253668" lon="11.9829496"><ele>256.3333333333333</ele><time>2026-04-04T08:13:30.379Z</time></trkpt><trkpt lat="43.2534973" lon="11.9831049"><ele>256.6666666666667</ele><time>2026-04-04T08:13:31.379Z</time></trkpt><trkpt lat="43.2533235" lon="11.9832675"><ele>257.0</ele><time>2026-04-04T08:13:32.379Z</time></trkpt><trkpt lat="43.2531481" lon="11.9834343"><ele>257.33333333333337</ele><time>2026-04-04T08:13:33.379Z</time></trkpt><trkpt lat="43.2529672" lon="11.9836067"><ele>257.6666666666667</ele><time>2026-04-04T08:13:34.379Z</time></trkpt><trkpt lat="43.2527908" lon="11.9837823"><ele>258.0</ele><time>2026-04-04T08:13:35.379Z</time></trkpt><trkpt lat="43.2526136" lon="11.9839556"><ele>258.0</ele><time>2026-04-04T08:13:36.379Z</time></trkpt><trkpt lat="43.2524351" lon="11.984131"><ele>258.0</ele><time>2026-04-04T08:13:37.379Z</time></trkpt><trkpt lat="43.2522585" lon="11.9843099"><ele>258.0</ele><time>2026-04-04T08:13:38.379Z</time></trkpt><trkpt lat="43.2520734" lon="11.9844784"><ele>257.0</ele><time>2026-04-04T08:13:39.379Z</time></trkpt><trkpt lat="43.2518786" lon="11.9846452"><ele>256.0</ele><time>2026-04-04T08:13:40.379Z</time></trkpt><trkpt lat="43.2516797" lon="11.9848184"><ele>256.0</ele><time>2026-04-04T08:13:41.38Z</time></trkpt><trkpt lat="43.25149" lon="11.985005"><ele>256.0</ele><time>2026-04-04T08:13:42.379Z</time></trkpt><trkpt lat="43.2512968" lon="11.9851931"><ele>255.5</ele><time>2026-04-04T08:13:43.38Z</time></trkpt><trkpt lat="43.2511038" lon="11.9853831"><ele>255.0</ele><time>2026-04-04T08:13:44.379Z</time></trkpt><trkpt lat="43.2509154" lon="11.9855507"><ele>255.0</ele><time>2026-04-04T08:13:45.379Z</time></trkpt><trkpt lat="43.2507185" lon="11.9857145"><ele>255.0</ele><time>2026-04-04T08:13:46.38Z</time></trkpt><trkpt lat="43.2505218" lon="11.9858907"><ele>255.33333333333331</ele><time>2026-04-04T08:13:47.379Z</time></trkpt><trkpt lat="43.2503401" lon="11.9860623"><ele>255.66666666666666</ele><time>2026-04-04T08:13:48.379Z</time></trkpt><trkpt lat="43.2501719" lon="11.9862176"><ele>256.0</ele><time>2026-04-04T08:13:49.379Z</time></trkpt><trkpt lat="43.2500178" lon="11.9863519"><ele>256.0</ele><time>2026-04-04T08:13:50.379Z</time></trkpt><trkpt lat="43.2498846" lon="11.9864813"><ele>256.0</ele><time>2026-04-04T08:13:51.379Z</time></trkpt><trkpt lat="43.2497738" lon="11.9865904"><ele>256.0</ele><time>2026-04-04T08:13:52.379Z</time></trkpt><trkpt lat="43.2496679" lon="11.9867045"><ele>256.0</ele><time>2026-04-04T08:13:53.379Z</time></trkpt><trkpt lat="43.2495462" lon="11.9868276"><ele>255.0</ele><time>2026-04-04T08:13:54.379Z</time></trkpt><trkpt lat="43.2494154" lon="11.9869459"><ele>254.0</ele><time>2026-04-04T08:13:55.379Z</time></trkpt><trkpt lat="43.2492677" lon="11.9870958"><ele>253.0</ele><time>2026-04-04T08:13:56.38Z</time></trkpt><trkpt lat="43.249111" lon="11.9872558"><ele>253.33333333333331</ele><time>2026-04-04T08:13:57.38Z</time></trkpt><trkpt lat="43.2489394" lon="11.9874308"><ele>253.66666666666669</ele><time>2026-04-04T08:13:58.379Z</time></trkpt><trkpt lat="43.2487554" lon="11.9875984"><ele>254.0</ele><time>2026-04-04T08:13:59.379Z</time></trkpt><trkpt lat="43.2485715" lon="11.9877533"><ele>254.0</ele><time>2026-04-04T08:14:00.379Z</time></trkpt><trkpt lat="43.2483792" lon="11.9879037"><ele>254.0</ele><time>2026-04-04T08:14:01.379Z</time></trkpt><trkpt lat="43.2481915" lon="11.9880634"><ele>254.0</ele><time>2026-04-04T08:14:02.38Z</time></trkpt><trkpt lat="43.24801" lon="11.9882423"><ele>254.33333333333334</ele><time>2026-04-04T08:14:03.379Z</time></trkpt><trkpt lat="43.2478304" lon="11.9884138"><ele>254.66666666666669</ele><time>2026-04-04T08:14:04.379Z</time></trkpt><trkpt lat="43.2476504" lon="11.9885808"><ele>255.0</ele><time>2026-04-04T08:14:05.379Z</time></trkpt><trkpt lat="43.2474757" lon="11.9887382"><ele>255.0</ele><time>2026-04-04T08:14:06.379Z</time></trkpt><trkpt lat="43.2473011" lon="11.9889001"><ele>255.0</ele><time>2026-04-04T08:14:07.38Z</time></trkpt><trkpt lat="43.2471285" lon="11.9890633"><ele>255.0</ele><time>2026-04-04T08:14:08.379Z</time></trkpt><trkpt lat="43.2469598" lon="11.9892239"><ele>255.0</ele><time>2026-04-04T08:14:09.379Z</time></trkpt><trkpt lat="43.2467951" lon="11.9893868"><ele>255.0</ele><time>2026-04-04T08:14:10.379Z</time></trkpt><trkpt lat="43.2466384" lon="11.9895456"><ele>255.0</ele><time>2026-04-04T08:14:11.38Z</time></trkpt><trkpt lat="43.2464943" lon="11.9896892"><ele>255.0</ele><time>2026-04-04T08:14:12.38Z</time></trkpt><trkpt lat="43.246351" lon="11.9898173"><ele>255.0</ele><time>2026-04-04T08:14:13.379Z</time></trkpt><trkpt lat="43.2462208" lon="11.9899462"><ele>255.0</ele><time>2026-04-04T08:14:14.38Z</time></trkpt><trkpt lat="43.2460941" lon="11.990067"><ele>255.0</ele><time>2026-04-04T08:14:15.379Z</time></trkpt><trkpt lat="43.2459613" lon="11.9901868"><ele>255.0</ele><time>2026-04-04T08:14:16.379Z</time></trkpt><trkpt lat="43.2458299" lon="11.9903113"><ele>255.0</ele><time>2026-04-04T08:14:17.38Z</time></trkpt><trkpt lat="43.2456894" lon="11.990433"><ele>255.33333333333331</ele><time>2026-04-04T08:14:18.38Z</time></trkpt><trkpt lat="43.2455509" lon="11.9905723"><ele>255.66666666666666</ele><time>2026-04-04T08:14:19.38Z</time></trkpt><trkpt lat="43.2453995" lon="11.990714"><ele>256.0</ele><time>2026-04-04T08:14:20.381Z</time></trkpt><trkpt lat="43.2452406" lon="11.990859"><ele>256.0</ele><time>2026-04-04T08:14:21.38Z</time></trkpt><trkpt lat="43.2450837" lon="11.9910162"><ele>256.0</ele><time>2026-04-04T08:14:22.38Z</time></trkpt><trkpt lat="43.2449284" lon="11.9911638"><ele>256.0</ele><time>2026-04-04T08:14:23.38Z</time></trkpt><trkpt lat="43.2447685" lon="11.9913217"><ele>256.66666666666663</ele><time>2026-04-04T08:14:24.38Z</time></trkpt><trkpt lat="43.2445956" lon="11.9914738"><ele>257.3333333333333</ele><time>2026-04-04T08:14:25.38Z</time></trkpt><trkpt lat="43.2444317" lon="11.9916256"><ele>258.0</ele><time>2026-04-04T08:14:26.381Z</time></trkpt><trkpt lat="43.2442646" lon="11.9917749"><ele>258.0</ele><time>2026-04-04T08:14:27.38Z</time></trkpt><trkpt lat="43.2440994" lon="11.9919207"><ele>258.0</ele><time>2026-04-04T08:14:28.381Z</time></trkpt><trkpt lat="43.2439389" lon="11.9920656"><ele>258.0</ele><time>2026-04-04T08:14:29.381Z</time></trkpt><trkpt lat="43.2437885" lon="11.9921991"><ele>258.0</ele><time>2026-04-04T08:14:30.38Z</time></trkpt><trkpt lat="43.2436516" lon="11.9923225"><ele>258.0</ele><time>2026-04-04T08:14:31.38Z</time></trkpt><trkpt lat="43.2435231" lon="11.9924468"><ele>258.0</ele><time>2026-04-04T08:14:32.38Z</time></trkpt><trkpt lat="43.2434054" lon="11.9925547"><ele>258.0</ele><time>2026-04-04T08:14:33.38Z</time></trkpt><trkpt lat="43.2433029" lon="11.9926432"><ele>258.0</ele><time>2026-04-04T08:14:34.38Z</time></trkpt><trkpt lat="43.2432213" lon="11.9927085"><ele>258.0</ele><time>2026-04-04T08:14:35.38Z</time></trkpt><trkpt lat="43.243138" lon="11.9927539"><ele>258.0</ele><time>2026-04-04T08:14:36.38Z</time></trkpt><trkpt lat="43.2430637" lon="11.9927782"><ele>258.0</ele><time>2026-04-04T08:14:37.381Z</time></trkpt><trkpt lat="43.2429949" lon="11.9927819"><ele>258.0</ele><time>2026-04-04T08:14:38.38Z</time></trkpt><trkpt lat="43.2428961" lon="11.9928844"><ele>258.0</ele><time>2026-04-04T08:14:40.38Z</time></trkpt><trkpt lat="43.242848" lon="11.9930045"><ele>258.0</ele><time>2026-04-04T08:14:41.38Z</time></trkpt><trkpt lat="43.2427824" lon="11.9931368"><ele>258.0</ele><time>2026-04-04T08:14:42.38Z</time></trkpt><trkpt lat="43.2426892" lon="11.9932693"><ele>258.0</ele><time>2026-04-04T08:14:43.38Z</time></trkpt><trkpt lat="43.2425624" lon="11.9933843"><ele>258.0</ele><time>2026-04-04T08:14:44.38Z</time></trkpt><trkpt lat="43.2424269" lon="11.9934988"><ele>258.0</ele><time>2026-04-04T08:14:45.38Z</time></trkpt><trkpt lat="43.2422911" lon="11.9936302"><ele>258.3333333333333</ele><time>2026-04-04T08:14:46.381Z</time></trkpt><trkpt lat="43.2421353" lon="11.9937669"><ele>258.66666666666663</ele><time>2026-04-04T08:14:47.38Z</time></trkpt><trkpt lat="43.2419779" lon="11.9939127"><ele>259.0</ele><time>2026-04-04T08:14:48.38Z</time></trkpt><trkpt lat="43.2418108" lon="11.9940678"><ele>259.0</ele><time>2026-04-04T08:14:49.38Z</time></trkpt><trkpt lat="43.2416512" lon="11.9942164"><ele>259.0</ele><time>2026-04-04T08:14:50.38Z</time></trkpt><trkpt lat="43.2414732" lon="11.9943718"><ele>259.0</ele><time>2026-04-04T08:14:51.38Z</time></trkpt><trkpt lat="43.2412821" lon="11.9945429"><ele>259.0</ele><time>2026-04-04T08:14:52.38Z</time></trkpt><trkpt lat="43.2410935" lon="11.9947117"><ele>259.0</ele><time>2026-04-04T08:14:53.38Z</time></trkpt><trkpt lat="43.2409038" lon="11.9948886"><ele>258.5</ele><time>2026-04-04T08:14:54.38Z</time></trkpt><trkpt lat="43.2407204" lon="11.995072"><ele>258.0</ele><time>2026-04-04T08:14:55.381Z</time></trkpt><trkpt lat="43.2405346" lon="11.995257"><ele>258.6666666666667</ele><time>2026-04-04T08:14:56.38Z</time></trkpt><trkpt lat="43.2403485" lon="11.99543"><ele>259.33333333333337</ele><time>2026-04-04T08:14:57.38Z</time></trkpt><trkpt lat="43.2401748" lon="11.9955937"><ele>260.0</ele><time>2026-04-04T08:14:58.38Z</time></trkpt><trkpt lat="43.2400166" lon="11.9957332"><ele>260.0</ele><time>2026-04-04T08:14:59.38Z</time></trkpt><trkpt lat="43.2398777" lon="11.9958761"><ele>260.0</ele><time>2026-04-04T08:15:00.38Z</time></trkpt><trkpt lat="43.2397297" lon="11.9960095"><ele>260.0</ele><time>2026-04-04T08:15:01.38Z</time></trkpt><trkpt lat="43.2395876" lon="11.9961513"><ele>260.0</ele><time>2026-04-04T08:15:02.38Z</time></trkpt><trkpt lat="43.2394485" lon="11.9962793"><ele>260.0</ele><time>2026-04-04T08:15:03.38Z</time></trkpt><trkpt lat="43.2393126" lon="11.9964048"><ele>260.0</ele><time>2026-04-04T08:15:04.38Z</time></trkpt><trkpt lat="43.2391882" lon="11.9965264"><ele>260.0</ele><time>2026-04-04T08:15:05.381Z</time></trkpt><trkpt lat="43.2390663" lon="11.9966453"><ele>260.0</ele><time>2026-04-04T08:15:06.381Z</time></trkpt><trkpt lat="43.2389529" lon="11.9967461"><ele>260.0</ele><time>2026-04-04T08:15:07.381Z</time></trkpt><trkpt lat="43.2388374" lon="11.9968486"><ele>260.0</ele><time>2026-04-04T08:15:08.38Z</time></trkpt><trkpt lat="43.2387376" lon="11.9969534"><ele>260.33333333333337</ele><time>2026-04-04T08:15:09.38Z</time></trkpt><trkpt lat="43.2386279" lon="11.9970679"><ele>260.6666666666667</ele><time>2026-04-04T08:15:10.38Z</time></trkpt><trkpt lat="43.238498" lon="11.9971957"><ele>261.0</ele><time>2026-04-04T08:15:11.38Z</time></trkpt><trkpt lat="43.2383619" lon="11.9973371"><ele>261.0</ele><time>2026-04-04T08:15:12.38Z</time></trkpt><trkpt lat="43.2382103" lon="11.997463"><ele>261.0</ele><time>2026-04-04T08:15:13.38Z</time></trkpt><trkpt lat="43.2380637" lon="11.9975788"><ele>261.0</ele><time>2026-04-04T08:15:14.38Z</time></trkpt><trkpt lat="43.2379315" lon="11.9977007"><ele>260.6666666666667</ele><time>2026-04-04T08:15:15.38Z</time></trkpt><trkpt lat="43.2378039" lon="11.9978434"><ele>260.33333333333337</ele><time>2026-04-04T08:15:16.38Z</time></trkpt><trkpt lat="43.2376641" lon="11.9979925"><ele>260.0</ele><time>2026-04-04T08:15:17.38Z</time></trkpt><trkpt lat="43.2374869" lon="11.9981422"><ele>260.0</ele><time>2026-04-04T08:15:18.38Z</time></trkpt><trkpt lat="43.237303" lon="11.9982945"><ele>260.0</ele><time>2026-04-04T08:15:19.381Z</time></trkpt><trkpt lat="43.2371279" lon="11.9984517"><ele>260.0</ele><time>2026-04-04T08:15:20.381Z</time></trkpt><trkpt lat="43.2369457" lon="11.9986153"><ele>261.5</ele><time>2026-04-04T08:15:21.381Z</time></trkpt><trkpt lat="43.236759" lon="11.9987845"><ele>263.0</ele><time>2026-04-04T08:15:22.381Z</time></trkpt><trkpt lat="43.2365735" lon="11.998966"><ele>262.5</ele><time>2026-04-04T08:15:23.381Z</time></trkpt><trkpt lat="43.2363812" lon="11.9991484"><ele>262.0</ele><time>2026-04-04T08:15:24.381Z</time></trkpt><trkpt lat="43.2361859" lon="11.999332"><ele>263.0</ele><time>2026-04-04T08:15:25.381Z</time></trkpt><trkpt lat="43.2359786" lon="11.9995196"><ele>264.0</ele><time>2026-04-04T08:15:26.381Z</time></trkpt><trkpt lat="43.2357718" lon="11.9997165"><ele>264.0</ele><time>2026-04-04T08:15:27.381Z</time></trkpt><trkpt lat="43.2355661" lon="11.9999121"><ele>264.0</ele><time>2026-04-04T08:15:28.381Z</time></trkpt><trkpt lat="43.2353614" lon="12.0001034"><ele>264.0</ele><time>2026-04-04T08:15:29.381Z</time></trkpt><trkpt lat="43.2351558" lon="12.0002821"><ele>264.0</ele><time>2026-04-04T08:15:30.381Z</time></trkpt><trkpt lat="43.2349673" lon="12.0004641"><ele>264.0</ele><time>2026-04-04T08:15:31.381Z</time></trkpt><trkpt lat="43.2347675" lon="12.0006424"><ele>264.0</ele><time>2026-04-04T08:15:32.381Z</time></trkpt><trkpt lat="43.2345695" lon="12.0008227"><ele>266.0</ele><time>2026-04-04T08:15:33.381Z</time></trkpt><trkpt lat="43.2343764" lon="12.0010201"><ele>268.0</ele><time>2026-04-04T08:15:34.382Z</time></trkpt><trkpt lat="43.2341735" lon="12.0011977"><ele>268.0</ele><time>2026-04-04T08:15:35.382Z</time></trkpt><trkpt lat="43.2339779" lon="12.0013788"><ele>268.0</ele><time>2026-04-04T08:15:36.381Z</time></trkpt><trkpt lat="43.2337785" lon="12.0015705"><ele>271.5</ele><time>2026-04-04T08:15:37.382Z</time></trkpt><trkpt lat="43.2335786" lon="12.0017549"><ele>275.0</ele><time>2026-04-04T08:15:38.381Z</time></trkpt><trkpt lat="43.2333805" lon="12.0019395"><ele>275.0</ele><time>2026-04-04T08:15:39.381Z</time></trkpt><trkpt lat="43.2331917" lon="12.0021212"><ele>275.0</ele><time>2026-04-04T08:15:40.381Z</time></trkpt><trkpt lat="43.2330083" lon="12.0022896"><ele>274.0</ele><time>2026-04-04T08:15:41.381Z</time></trkpt><trkpt lat="43.2328405" lon="12.00245"><ele>273.0</ele><time>2026-04-04T08:15:42.381Z</time></trkpt><trkpt lat="43.2326797" lon="12.002605"><ele>272.0</ele><time>2026-04-04T08:15:43.382Z</time></trkpt><trkpt lat="43.2325251" lon="12.00276"><ele>273.33333333333337</ele><time>2026-04-04T08:15:44.381Z</time></trkpt><trkpt lat="43.2323717" lon="12.002908"><ele>274.6666666666667</ele><time>2026-04-04T08:15:45.381Z</time></trkpt><trkpt lat="43.2322179" lon="12.0030467"><ele>276.0</ele><time>2026-04-04T08:15:46.381Z</time></trkpt><trkpt lat="43.2320667" lon="12.0031712"><ele>276.0</ele><time>2026-04-04T08:15:47.381Z</time></trkpt><trkpt lat="43.2319273" lon="12.0032952"><ele>276.0</ele><time>2026-04-04T08:15:48.381Z</time></trkpt><trkpt lat="43.2317921" lon="12.0034094"><ele>276.0</ele><time>2026-04-04T08:15:49.381Z</time></trkpt><trkpt lat="43.2316637" lon="12.003519"><ele>276.75</ele><time>2026-04-04T08:15:50.381Z</time></trkpt><trkpt lat="43.2315425" lon="12.003617"><ele>277.5</ele><time>2026-04-04T08:15:51.381Z</time></trkpt><trkpt lat="43.2314148" lon="12.0037062"><ele>278.25</ele><time>2026-04-04T08:15:52.381Z</time></trkpt><trkpt lat="43.2312761" lon="12.0037839"><ele>279.0</ele><time>2026-04-04T08:15:53.381Z</time></trkpt><trkpt lat="43.2311309" lon="12.0038401"><ele>279.0</ele><time>2026-04-04T08:15:54.381Z</time></trkpt><trkpt lat="43.2309678" lon="12.0038858"><ele>279.0</ele><time>2026-04-04T08:15:55.381Z</time></trkpt><trkpt lat="43.230797" lon="12.0039293"><ele>279.0</ele><time>2026-04-04T08:15:56.381Z</time></trkpt><trkpt lat="43.2306135" lon="12.0039694"><ele>279.3333333333333</ele><time>2026-04-04T08:15:57.381Z</time></trkpt><trkpt lat="43.2304234" lon="12.0040136"><ele>279.66666666666663</ele><time>2026-04-04T08:15:58.382Z</time></trkpt><trkpt lat="43.2302236" lon="12.0040589"><ele>280.0</ele><time>2026-04-04T08:15:59.381Z</time></trkpt><trkpt lat="43.2300078" lon="12.0041034"><ele>279.3333333333333</ele><time>2026-04-04T08:16:00.381Z</time></trkpt><trkpt lat="43.229806" lon="12.0041601"><ele>278.6666666666667</ele><time>2026-04-04T08:16:01.381Z</time></trkpt><trkpt lat="43.2295982" lon="12.0042125"><ele>278.0</ele><time>2026-04-04T08:16:02.381Z</time></trkpt><trkpt lat="43.2293776" lon="12.0042618"><ele>280.0</ele><time>2026-04-04T08:16:03.381Z</time></trkpt><trkpt lat="43.229154" lon="12.0043192"><ele>282.0</ele><time>2026-04-04T08:16:04.381Z</time></trkpt><trkpt lat="43.2289338" lon="12.0043705"><ele>282.0</ele><time>2026-04-04T08:16:05.381Z</time></trkpt><trkpt lat="43.2287153" lon="12.0044199"><ele>282.0</ele><time>2026-04-04T08:16:06.381Z</time></trkpt><trkpt lat="43.2284998" lon="12.0044546"><ele>282.0</ele><time>2026-04-04T08:16:07.381Z</time></trkpt><trkpt lat="43.2282778" lon="12.004483"><ele>282.3333333333333</ele><time>2026-04-04T08:16:08.381Z</time></trkpt><trkpt lat="43.2280623" lon="12.0044989"><ele>282.66666666666663</ele><time>2026-04-04T08:16:09.381Z</time></trkpt><trkpt lat="43.227834" lon="12.0044947"><ele>283.0</ele><time>2026-04-04T08:16:10.381Z</time></trkpt><trkpt lat="43.227601" lon="12.0044748"><ele>283.0</ele><time>2026-04-04T08:16:11.381Z</time></trkpt><trkpt lat="43.2273644" lon="12.0044547"><ele>283.0</ele><time>2026-04-04T08:16:12.381Z</time></trkpt><trkpt lat="43.2271271" lon="12.0044461"><ele>283.5</ele><time>2026-04-04T08:16:13.381Z</time></trkpt><trkpt lat="43.2269024" lon="12.0044497"><ele>284.0</ele><time>2026-04-04T08:16:14.381Z</time></trkpt><trkpt lat="43.2266741" lon="12.0044698"><ele>283.6666666666667</ele><time>2026-04-04T08:16:15.381Z</time></trkpt><trkpt lat="43.2264607" lon="12.0044997"><ele>283.3333333333333</ele><time>2026-04-04T08:16:16.381Z</time></trkpt><trkpt lat="43.2262495" lon="12.0045404"><ele>283.0</ele><time>2026-04-04T08:16:17.381Z</time></trkpt><trkpt lat="43.22604" lon="12.0045849"><ele>283.0</ele><time>2026-04-04T08:16:18.381Z</time></trkpt><trkpt lat="43.2258308" lon="12.0046339"><ele>283.0</ele><time>2026-04-04T08:16:19.381Z</time></trkpt><trkpt lat="43.2256266" lon="12.0046773"><ele>283.0</ele><time>2026-04-04T08:16:20.382Z</time></trkpt><trkpt lat="43.2254319" lon="12.0047187"><ele>283.3333333333333</ele><time>2026-04-04T08:16:21.383Z</time></trkpt><trkpt lat="43.2252364" lon="12.0047574"><ele>283.6666666666667</ele><time>2026-04-04T08:16:22.382Z</time></trkpt><trkpt lat="43.2250451" lon="12.0047946"><ele>284.0</ele><time>2026-04-04T08:16:23.382Z</time></trkpt><trkpt lat="43.224854" lon="12.0048349"><ele>284.0</ele><time>2026-04-04T08:16:24.382Z</time></trkpt><trkpt lat="43.224665" lon="12.0048627"><ele>284.0</ele><time>2026-04-04T08:16:25.383Z</time></trkpt><trkpt lat="43.2244931" lon="12.0048876"><ele>284.0</ele><time>2026-04-04T08:16:26.382Z</time></trkpt><trkpt lat="43.2243213" lon="12.0049055"><ele>284.0</ele><time>2026-04-04T08:16:27.382Z</time></trkpt><trkpt lat="43.2241609" lon="12.0049452"><ele>284.0</ele><time>2026-04-04T08:16:28.382Z</time></trkpt><trkpt lat="43.2239944" lon="12.0049944"><ele>284.0</ele><time>2026-04-04T08:16:29.382Z</time></trkpt><trkpt lat="43.2238418" lon="12.0050706"><ele>284.2</ele><time>2026-04-04T08:16:30.382Z</time></trkpt><trkpt lat="43.2237115" lon="12.0051373"><ele>284.4</ele><time>2026-04-04T08:16:31.383Z</time></trkpt><trkpt lat="43.2236027" lon="12.0051929"><ele>284.6</ele><time>2026-04-04T08:16:32.382Z</time></trkpt><trkpt lat="43.2235192" lon="12.0052521"><ele>284.8</ele><time>2026-04-04T08:16:33.382Z</time></trkpt><trkpt lat="43.2234479" lon="12.0053025"><ele>285.0</ele><time>2026-04-04T08:16:34.382Z</time></trkpt><trkpt lat="43.2233909" lon="12.0053461"><ele>285.0</ele><time>2026-04-04T08:16:35.382Z</time></trkpt><trkpt lat="43.2233084" lon="12.0053919"><ele>285.0</ele><time>2026-04-04T08:16:37.382Z</time></trkpt><trkpt lat="43.2232323" lon="12.0054533"><ele>285.0</ele><time>2026-04-04T08:16:40.382Z</time></trkpt><trkpt lat="43.2231327" lon="12.0055611"><ele>285.0</ele><time>2026-04-04T08:16:42.382Z</time></trkpt><trkpt lat="43.223042" lon="12.0056526"><ele>285.0</ele><time>2026-04-04T08:16:43.383Z</time></trkpt><trkpt lat="43.2229292" lon="12.0057457"><ele>285.3333333333333</ele><time>2026-04-04T08:16:44.382Z</time></trkpt><trkpt lat="43.2228112" lon="12.0058336"><ele>285.66666666666663</ele><time>2026-04-04T08:16:45.382Z</time></trkpt><trkpt lat="43.2226622" lon="12.005911"><ele>286.0</ele><time>2026-04-04T08:16:46.382Z</time></trkpt><trkpt lat="43.222514" lon="12.0059853"><ele>286.0</ele><time>2026-04-04T08:16:47.382Z</time></trkpt><trkpt lat="43.2223663" lon="12.0060731"><ele>286.0</ele><time>2026-04-04T08:16:48.382Z</time></trkpt><trkpt lat="43.2221882" lon="12.0061593"><ele>286.0</ele><time>2026-04-04T08:16:49.382Z</time></trkpt><trkpt lat="43.2220113" lon="12.0062591"><ele>285.3333333333333</ele><time>2026-04-04T08:16:50.382Z</time></trkpt><trkpt lat="43.2218546" lon="12.0064084"><ele>284.6666666666667</ele><time>2026-04-04T08:16:51.382Z</time></trkpt><trkpt lat="43.2216799" lon="12.0065622"><ele>284.0</ele><time>2026-04-04T08:16:52.382Z</time></trkpt><trkpt lat="43.2214904" lon="12.0067207"><ele>281.6666666666667</ele><time>2026-04-04T08:16:53.382Z</time></trkpt><trkpt lat="43.221297" lon="12.0068893"><ele>279.3333333333333</ele><time>2026-04-04T08:16:54.382Z</time></trkpt><trkpt lat="43.2211249" lon="12.0070557"><ele>277.0</ele><time>2026-04-04T08:16:55.382Z</time></trkpt><trkpt lat="43.2209376" lon="12.0072314"><ele>277.0</ele><time>2026-04-04T08:16:56.382Z</time></trkpt><trkpt lat="43.2207501" lon="12.0074016"><ele>277.0</ele><time>2026-04-04T08:16:57.383Z</time></trkpt><trkpt lat="43.220565" lon="12.0075523"><ele>277.0</ele><time>2026-04-04T08:16:58.383Z</time></trkpt><trkpt lat="43.2203799" lon="12.007715"><ele>277.3333333333333</ele><time>2026-04-04T08:16:59.382Z</time></trkpt><trkpt lat="43.220187" lon="12.0078802"><ele>277.6666666666667</ele><time>2026-04-04T08:17:00.382Z</time></trkpt><trkpt lat="43.2200014" lon="12.0080049"><ele>278.0</ele><time>2026-04-04T08:17:01.382Z</time></trkpt><trkpt lat="43.2198146" lon="12.0080989"><ele>278.0</ele><time>2026-04-04T08:17:02.382Z</time></trkpt><trkpt lat="43.2196082" lon="12.008175"><ele>278.0</ele><time>2026-04-04T08:17:03.382Z</time></trkpt><trkpt lat="43.2193968" lon="12.0082704"><ele>278.0</ele><time>2026-04-04T08:17:04.383Z</time></trkpt><trkpt lat="43.2191815" lon="12.0083705"><ele>277.0</ele><time>2026-04-04T08:17:05.382Z</time></trkpt><trkpt lat="43.2189609" lon="12.0084696"><ele>276.0</ele><time>2026-04-04T08:17:06.382Z</time></trkpt><trkpt lat="43.2187414" lon="12.0085809"><ele>276.0</ele><time>2026-04-04T08:17:07.382Z</time></trkpt><trkpt lat="43.2185145" lon="12.0086851"><ele>276.0</ele><time>2026-04-04T08:17:08.383Z</time></trkpt><trkpt lat="43.2182888" lon="12.0087913"><ele>276.0</ele><time>2026-04-04T08:17:09.382Z</time></trkpt><trkpt lat="43.2180575" lon="12.0088921"><ele>276.0</ele><time>2026-04-04T08:17:10.382Z</time></trkpt><trkpt lat="43.2178315" lon="12.0089895"><ele>276.0</ele><time>2026-04-04T08:17:11.384Z</time></trkpt><trkpt lat="43.2173848" lon="12.009156"><ele>275.5</ele><time>2026-04-04T08:17:13.382Z</time></trkpt><trkpt lat="43.2171552" lon="12.0092345"><ele>275.0</ele><time>2026-04-04T08:17:14.382Z</time></trkpt><trkpt lat="43.216925" lon="12.0093003"><ele>275.0</ele><time>2026-04-04T08:17:15.382Z</time></trkpt><trkpt lat="43.2166917" lon="12.0093277"><ele>275.0</ele><time>2026-04-04T08:17:16.382Z</time></trkpt><trkpt lat="43.2164503" lon="12.0093438"><ele>274.6666666666667</ele><time>2026-04-04T08:17:17.382Z</time></trkpt><trkpt lat="43.2162208" lon="12.009355"><ele>274.3333333333333</ele><time>2026-04-04T08:17:18.382Z</time></trkpt><trkpt lat="43.2160067" lon="12.0093686"><ele>274.0</ele><time>2026-04-04T08:17:19.382Z</time></trkpt><trkpt lat="43.2158076" lon="12.009392"><ele>274.0</ele><time>2026-04-04T08:17:20.383Z</time></trkpt><trkpt lat="43.2156186" lon="12.0094127"><ele>274.0</ele><time>2026-04-04T08:17:21.383Z</time></trkpt><trkpt lat="43.2154297" lon="12.009438"><ele>274.0</ele><time>2026-04-04T08:17:22.383Z</time></trkpt><trkpt lat="43.2152547" lon="12.0094535"><ele>274.0</ele><time>2026-04-04T08:17:23.383Z</time></trkpt><trkpt lat="43.2150769" lon="12.0094497"><ele>274.0</ele><time>2026-04-04T08:17:24.383Z</time></trkpt><trkpt lat="43.2149002" lon="12.0094321"><ele>274.0</ele><time>2026-04-04T08:17:25.383Z</time></trkpt><trkpt lat="43.2147203" lon="12.0094001"><ele>273.66666666666663</ele><time>2026-04-04T08:17:26.383Z</time></trkpt><trkpt lat="43.21453" lon="12.0093513"><ele>273.3333333333333</ele><time>2026-04-04T08:17:27.383Z</time></trkpt><trkpt lat="43.2143347" lon="12.0093027"><ele>273.0</ele><time>2026-04-04T08:17:28.383Z</time></trkpt><trkpt lat="43.2141405" lon="12.0092563"><ele>273.3333333333333</ele><time>2026-04-04T08:17:29.384Z</time></trkpt><trkpt lat="43.2139509" lon="12.0092153"><ele>273.66666666666663</ele><time>2026-04-04T08:17:30.383Z</time></trkpt><trkpt lat="43.2137636" lon="12.0091773"><ele>274.0</ele><time>2026-04-04T08:17:31.383Z</time></trkpt><trkpt lat="43.2135844" lon="12.0091718"><ele>274.0</ele><time>2026-04-04T08:17:32.383Z</time></trkpt><trkpt lat="43.2134073" lon="12.0091714"><ele>274.0</ele><time>2026-04-04T08:17:33.384Z</time></trkpt><trkpt lat="43.2132225" lon="12.0091934"><ele>274.0</ele><time>2026-04-04T08:17:34.383Z</time></trkpt><trkpt lat="43.2130392" lon="12.0092296"><ele>274.66666666666663</ele><time>2026-04-04T08:17:35.383Z</time></trkpt><trkpt lat="43.2128672" lon="12.009273"><ele>275.3333333333333</ele><time>2026-04-04T08:17:36.383Z</time></trkpt><trkpt lat="43.212694" lon="12.0093223"><ele>276.0</ele><time>2026-04-04T08:17:37.383Z</time></trkpt><trkpt lat="43.212531" lon="12.0093592"><ele>276.0</ele><time>2026-04-04T08:17:38.384Z</time></trkpt><trkpt lat="43.2123805" lon="12.0093978"><ele>276.0</ele><time>2026-04-04T08:17:39.383Z</time></trkpt><trkpt lat="43.212235" lon="12.0094343"><ele>276.0</ele><time>2026-04-04T08:17:40.383Z</time></trkpt><trkpt lat="43.2120926" lon="12.0094744"><ele>276.0</ele><time>2026-04-04T08:17:41.383Z</time></trkpt><trkpt lat="43.2119579" lon="12.0094997"><ele>276.0</ele><time>2026-04-04T08:17:42.383Z</time></trkpt><trkpt lat="43.2118295" lon="12.0095319"><ele>276.0</ele><time>2026-04-04T08:17:43.383Z</time></trkpt><trkpt lat="43.2117062" lon="12.0095472"><ele>276.0</ele><time>2026-04-04T08:17:44.383Z</time></trkpt><trkpt lat="43.2115934" lon="12.0095639"><ele>276.0</ele><time>2026-04-04T08:17:45.383Z</time></trkpt><trkpt lat="43.2114902" lon="12.0095783"><ele>276.0</ele><time>2026-04-04T08:17:46.383Z</time></trkpt><trkpt lat="43.2113928" lon="12.0095818"><ele>276.0</ele><time>2026-04-04T08:17:47.383Z</time></trkpt><trkpt lat="43.2113001" lon="12.0095931"><ele>276.0</ele><time>2026-04-04T08:17:48.383Z</time></trkpt><trkpt lat="43.2111906" lon="12.0095877"><ele>276.0</ele><time>2026-04-04T08:17:49.383Z</time></trkpt><trkpt lat="43.2110672" lon="12.0095814"><ele>276.0</ele><time>2026-04-04T08:17:50.385Z</time></trkpt><trkpt lat="43.2109153" lon="12.0095855"><ele>276.0</ele><time>2026-04-04T08:17:51.383Z</time></trkpt><trkpt lat="43.21075" lon="12.0095864"><ele>276.0</ele><time>2026-04-04T08:17:52.383Z</time></trkpt><trkpt lat="43.2105778" lon="12.0095932"><ele>276.0</ele><time>2026-04-04T08:17:53.384Z</time></trkpt><trkpt lat="43.2103871" lon="12.009605"><ele>275.6666666666667</ele><time>2026-04-04T08:17:54.383Z</time></trkpt><trkpt lat="43.2101967" lon="12.0096161"><ele>275.33333333333337</ele><time>2026-04-04T08:17:55.383Z</time></trkpt><trkpt lat="43.2099945" lon="12.0096336"><ele>275.0</ele><time>2026-04-04T08:17:56.383Z</time></trkpt><trkpt lat="43.2097734" lon="12.0096549"><ele>273.6666666666667</ele><time>2026-04-04T08:17:57.383Z</time></trkpt><trkpt lat="43.2095448" lon="12.0096669"><ele>272.3333333333333</ele><time>2026-04-04T08:17:58.384Z</time></trkpt><trkpt lat="43.2093335" lon="12.0096789"><ele>271.0</ele><time>2026-04-04T08:17:59.383Z</time></trkpt><trkpt lat="43.2091207" lon="12.0097028"><ele>270.66666666666663</ele><time>2026-04-04T08:18:00.383Z</time></trkpt><trkpt lat="43.208902" lon="12.0097427"><ele>270.3333333333333</ele><time>2026-04-04T08:18:01.383Z</time></trkpt><trkpt lat="43.2086813" lon="12.0097998"><ele>270.0</ele><time>2026-04-04T08:18:02.384Z</time></trkpt><trkpt lat="43.2084758" lon="12.0098967"><ele>270.3333333333333</ele><time>2026-04-04T08:18:03.383Z</time></trkpt><trkpt lat="43.2082772" lon="12.010008"><ele>270.66666666666663</ele><time>2026-04-04T08:18:04.383Z</time></trkpt><trkpt lat="43.2080855" lon="12.0101387"><ele>271.0</ele><time>2026-04-04T08:18:05.384Z</time></trkpt><trkpt lat="43.207912" lon="12.0102784"><ele>271.0</ele><time>2026-04-04T08:18:06.383Z</time></trkpt><trkpt lat="43.2077603" lon="12.010422"><ele>271.0</ele><time>2026-04-04T08:18:07.383Z</time></trkpt><trkpt lat="43.2076077" lon="12.0105711"><ele>271.0</ele><time>2026-04-04T08:18:08.383Z</time></trkpt><trkpt lat="43.2074567" lon="12.0107157"><ele>270.3333333333333</ele><time>2026-04-04T08:18:09.383Z</time></trkpt><trkpt lat="43.2073104" lon="12.0108622"><ele>269.6666666666667</ele><time>2026-04-04T08:18:10.383Z</time></trkpt><trkpt lat="43.2071728" lon="12.0110062"><ele>269.0</ele><time>2026-04-04T08:18:11.384Z</time></trkpt><trkpt lat="43.2070347" lon="12.0111537"><ele>269.0</ele><time>2026-04-04T08:18:12.383Z</time></trkpt><trkpt lat="43.2068933" lon="12.0113062"><ele>269.0</ele><time>2026-04-04T08:18:13.383Z</time></trkpt><trkpt lat="43.2067421" lon="12.0114754"><ele>269.0</ele><time>2026-04-04T08:18:14.383Z</time></trkpt><trkpt lat="43.2065774" lon="12.0116481"><ele>269.33333333333337</ele><time>2026-04-04T08:18:15.383Z</time></trkpt><trkpt lat="43.2064016" lon="12.0118046"><ele>269.6666666666667</ele><time>2026-04-04T08:18:16.383Z</time></trkpt><trkpt lat="43.2062301" lon="12.0119544"><ele>270.0</ele><time>2026-04-04T08:18:17.383Z</time></trkpt><trkpt lat="43.2060702" lon="12.0121147"><ele>270.0</ele><time>2026-04-04T08:18:18.383Z</time></trkpt><trkpt lat="43.205915" lon="12.0122765"><ele>270.0</ele><time>2026-04-04T08:18:19.383Z</time></trkpt><trkpt lat="43.205766" lon="12.0124524"><ele>270.0</ele><time>2026-04-04T08:18:20.384Z</time></trkpt><trkpt lat="43.205618" lon="12.0126206"><ele>270.0</ele><time>2026-04-04T08:18:21.384Z</time></trkpt><trkpt lat="43.2054584" lon="12.0127909"><ele>270.0</ele><time>2026-04-04T08:18:22.384Z</time></trkpt><trkpt lat="43.2052678" lon="12.0129697"><ele>270.0</ele><time>2026-04-04T08:18:23.384Z</time></trkpt><trkpt lat="43.2050655" lon="12.0131533"><ele>270.0</ele><time>2026-04-04T08:18:24.384Z</time></trkpt><trkpt lat="43.204874" lon="12.0133072"><ele>270.0</ele><time>2026-04-04T08:18:25.384Z</time></trkpt><trkpt lat="43.2046882" lon="12.0134641"><ele>270.0</ele><time>2026-04-04T08:18:26.384Z</time></trkpt><trkpt lat="43.2045094" lon="12.013595"><ele>270.0</ele><time>2026-04-04T08:18:27.384Z</time></trkpt><trkpt lat="43.2043312" lon="12.0136989"><ele>270.0</ele><time>2026-04-04T08:18:28.385Z</time></trkpt><trkpt lat="43.2041645" lon="12.0137792"><ele>270.0</ele><time>2026-04-04T08:18:29.385Z</time></trkpt><trkpt lat="43.2039834" lon="12.0138297"><ele>269.0</ele><time>2026-04-04T08:18:30.384Z</time></trkpt><trkpt lat="43.2037818" lon="12.0138233"><ele>268.0</ele><time>2026-04-04T08:18:31.384Z</time></trkpt><trkpt lat="43.2035796" lon="12.0137673"><ele>267.0</ele><time>2026-04-04T08:18:32.384Z</time></trkpt><trkpt lat="43.2033554" lon="12.0136667"><ele>267.6666666666667</ele><time>2026-04-04T08:18:33.384Z</time></trkpt><trkpt lat="43.2031463" lon="12.0135697"><ele>268.33333333333337</ele><time>2026-04-04T08:18:34.384Z</time></trkpt><trkpt lat="43.2029338" lon="12.013476"><ele>269.0</ele><time>2026-04-04T08:18:35.384Z</time></trkpt><trkpt lat="43.2027322" lon="12.013399"><ele>268.33333333333337</ele><time>2026-04-04T08:18:36.384Z</time></trkpt><trkpt lat="43.2025366" lon="12.0133158"><ele>267.6666666666667</ele><time>2026-04-04T08:18:37.384Z</time></trkpt><trkpt lat="43.2023282" lon="12.0132342"><ele>267.0</ele><time>2026-04-04T08:18:38.384Z</time></trkpt><trkpt lat="43.2021215" lon="12.0131572"><ele>266.0</ele><time>2026-04-04T08:18:39.384Z</time></trkpt><trkpt lat="43.2018974" lon="12.0130874"><ele>265.0</ele><time>2026-04-04T08:18:40.385Z</time></trkpt><trkpt lat="43.2016798" lon="12.013026"><ele>265.3333333333333</ele><time>2026-04-04T08:18:41.384Z</time></trkpt><trkpt lat="43.2014651" lon="12.01297"><ele>265.6666666666667</ele><time>2026-04-04T08:18:42.384Z</time></trkpt><trkpt lat="43.201246" lon="12.0129309"><ele>266.0</ele><time>2026-04-04T08:18:43.385Z</time></trkpt><trkpt lat="43.2010265" lon="12.0129046"><ele>266.0</ele><time>2026-04-04T08:18:44.385Z</time></trkpt><trkpt lat="43.2007926" lon="12.0128871"><ele>266.0</ele><time>2026-04-04T08:18:45.385Z</time></trkpt><trkpt lat="43.2005511" lon="12.0128868"><ele>266.0</ele><time>2026-04-04T08:18:46.384Z</time></trkpt><trkpt lat="43.2003134" lon="12.0128896"><ele>266.0</ele><time>2026-04-04T08:18:47.384Z</time></trkpt><trkpt lat="43.2000763" lon="12.0128944"><ele>266.0</ele><time>2026-04-04T08:18:48.385Z</time></trkpt><trkpt lat="43.1998349" lon="12.0128983"><ele>266.0</ele><time>2026-04-04T08:18:49.384Z</time></trkpt><trkpt lat="43.1995874" lon="12.0129042"><ele>264.0</ele><time>2026-04-04T08:18:50.384Z</time></trkpt><trkpt lat="43.1993461" lon="12.0129152"><ele>262.0</ele><time>2026-04-04T08:18:51.384Z</time></trkpt><trkpt lat="43.1991043" lon="12.0129284"><ele>262.5</ele><time>2026-04-04T08:18:52.385Z</time></trkpt><trkpt lat="43.1988647" lon="12.0129304"><ele>263.0</ele><time>2026-04-04T08:18:53.384Z</time></trkpt><trkpt lat="43.1986342" lon="12.0129361"><ele>263.0</ele><time>2026-04-04T08:18:54.385Z</time></trkpt><trkpt lat="43.1984052" lon="12.0129468"><ele>263.0</ele><time>2026-04-04T08:18:55.384Z</time></trkpt><trkpt lat="43.1981856" lon="12.0129542"><ele>263.0</ele><time>2026-04-04T08:18:56.385Z</time></trkpt><trkpt lat="43.1979663" lon="12.0129627"><ele>263.33333333333337</ele><time>2026-04-04T08:18:57.384Z</time></trkpt><trkpt lat="43.1977507" lon="12.0129692"><ele>263.6666666666667</ele><time>2026-04-04T08:18:58.384Z</time></trkpt><trkpt lat="43.1975372" lon="12.0129757"><ele>264.0</ele><time>2026-04-04T08:18:59.385Z</time></trkpt><trkpt lat="43.1973237" lon="12.0129862"><ele>263.3333333333333</ele><time>2026-04-04T08:19:00.384Z</time></trkpt><trkpt lat="43.1971069" lon="12.0129939"><ele>262.66666666666663</ele><time>2026-04-04T08:19:01.384Z</time></trkpt><trkpt lat="43.1969009" lon="12.0130035"><ele>262.0</ele><time>2026-04-04T08:19:02.385Z</time></trkpt><trkpt lat="43.1967015" lon="12.0130067"><ele>262.0</ele><time>2026-04-04T08:19:03.385Z</time></trkpt><trkpt lat="43.1965076" lon="12.0130112"><ele>262.0</ele><time>2026-04-04T08:19:04.384Z</time></trkpt><trkpt lat="43.1963144" lon="12.0130252"><ele>262.0</ele><time>2026-04-04T08:19:05.384Z</time></trkpt><trkpt lat="43.196119" lon="12.0130305"><ele>262.0</ele><time>2026-04-04T08:19:06.384Z</time></trkpt><trkpt lat="43.1959212" lon="12.0130368"><ele>262.0</ele><time>2026-04-04T08:19:07.385Z</time></trkpt><trkpt lat="43.1957227" lon="12.0130422"><ele>262.0</ele><time>2026-04-04T08:19:08.384Z</time></trkpt><trkpt lat="43.1955199" lon="12.0130485"><ele>262.0</ele><time>2026-04-04T08:19:09.384Z</time></trkpt><trkpt lat="43.1953236" lon="12.0130519"><ele>262.0</ele><time>2026-04-04T08:19:10.384Z</time></trkpt><trkpt lat="43.1951294" lon="12.0130577"><ele>262.0</ele><time>2026-04-04T08:19:11.384Z</time></trkpt><trkpt lat="43.1949381" lon="12.0130809"><ele>262.0</ele><time>2026-04-04T08:19:12.385Z</time></trkpt><trkpt lat="43.1947429" lon="12.0131051"><ele>262.0</ele><time>2026-04-04T08:19:13.384Z</time></trkpt><trkpt lat="43.1945355" lon="12.0131034"><ele>262.0</ele><time>2026-04-04T08:19:14.384Z</time></trkpt><trkpt lat="43.1943074" lon="12.0130856"><ele>262.0</ele><time>2026-04-04T08:19:15.384Z</time></trkpt><trkpt lat="43.194076" lon="12.013083"><ele>262.0</ele><time>2026-04-04T08:19:16.384Z</time></trkpt><trkpt lat="43.1938402" lon="12.0130894"><ele>262.0</ele><time>2026-04-04T08:19:17.384Z</time></trkpt><trkpt lat="43.1936036" lon="12.013099"><ele>262.0</ele><time>2026-04-04T08:19:18.384Z</time></trkpt><trkpt lat="43.193369" lon="12.0131079"><ele>262.0</ele><time>2026-04-04T08:19:19.384Z</time></trkpt><trkpt lat="43.1931296" lon="12.0131119"><ele>262.0</ele><time>2026-04-04T08:19:20.385Z</time></trkpt><trkpt lat="43.1928925" lon="12.0131219"><ele>262.0</ele><time>2026-04-04T08:19:21.385Z</time></trkpt><trkpt lat="43.1926588" lon="12.013127"><ele>262.0</ele><time>2026-04-04T08:19:22.386Z</time></trkpt><trkpt lat="43.1924317" lon="12.0131316"><ele>263.0</ele><time>2026-04-04T08:19:23.385Z</time></trkpt><trkpt lat="43.1922043" lon="12.0131431"><ele>264.0</ele><time>2026-04-04T08:19:24.385Z</time></trkpt><trkpt lat="43.1919731" lon="12.0131507"><ele>264.0</ele><time>2026-04-04T08:19:25.385Z</time></trkpt><trkpt lat="43.1917423" lon="12.0131529"><ele>264.0</ele><time>2026-04-04T08:19:26.386Z</time></trkpt><trkpt lat="43.1915017" lon="12.0131602"><ele>263.5</ele><time>2026-04-04T08:19:27.385Z</time></trkpt><trkpt lat="43.1912647" lon="12.013161"><ele>263.0</ele><time>2026-04-04T08:19:28.385Z</time></trkpt><trkpt lat="43.1910202" lon="12.0131743"><ele>263.0</ele><time>2026-04-04T08:19:29.385Z</time></trkpt><trkpt lat="43.1907713" lon="12.0131865"><ele>263.0</ele><time>2026-04-04T08:19:30.385Z</time></trkpt><trkpt lat="43.1905189" lon="12.0131926"><ele>264.0</ele><time>2026-04-04T08:19:31.385Z</time></trkpt><trkpt lat="43.1902664" lon="12.0131959"><ele>265.0</ele><time>2026-04-04T08:19:32.385Z</time></trkpt><trkpt lat="43.1900198" lon="12.0131974"><ele>265.0</ele><time>2026-04-04T08:19:33.385Z</time></trkpt><trkpt lat="43.18977" lon="12.0131982"><ele>265.0</ele><time>2026-04-04T08:19:34.385Z</time></trkpt><trkpt lat="43.1895238" lon="12.0132074"><ele>265.0</ele><time>2026-04-04T08:19:35.386Z</time></trkpt><trkpt lat="43.1892768" lon="12.0132153"><ele>265.0</ele><time>2026-04-04T08:19:36.385Z</time></trkpt><trkpt lat="43.1890292" lon="12.0132293"><ele>264.5</ele><time>2026-04-04T08:19:37.385Z</time></trkpt><trkpt lat="43.1887755" lon="12.0132402"><ele>264.0</ele><time>2026-04-04T08:19:38.385Z</time></trkpt><trkpt lat="43.18852" lon="12.0132502"><ele>264.0</ele><time>2026-04-04T08:19:39.385Z</time></trkpt><trkpt lat="43.1882589" lon="12.0132531"><ele>264.0</ele><time>2026-04-04T08:19:40.385Z</time></trkpt><trkpt lat="43.1880023" lon="12.0132639"><ele>264.5</ele><time>2026-04-04T08:19:41.385Z</time></trkpt><trkpt lat="43.1877449" lon="12.0132766"><ele>265.0</ele><time>2026-04-04T08:19:42.385Z</time></trkpt><trkpt lat="43.1874879" lon="12.0132908"><ele>265.5</ele><time>2026-04-04T08:19:43.385Z</time></trkpt><trkpt lat="43.1872329" lon="12.0133038"><ele>266.0</ele><time>2026-04-04T08:19:44.385Z</time></trkpt><trkpt lat="43.1869762" lon="12.0133109"><ele>266.0</ele><time>2026-04-04T08:19:45.385Z</time></trkpt><trkpt lat="43.1867171" lon="12.0133133"><ele>266.0</ele><time>2026-04-04T08:19:46.385Z</time></trkpt><trkpt lat="43.186462" lon="12.0133246"><ele>265.0</ele><time>2026-04-04T08:19:47.385Z</time></trkpt><trkpt lat="43.1862072" lon="12.0133279"><ele>264.0</ele><time>2026-04-04T08:19:48.385Z</time></trkpt><trkpt lat="43.1859535" lon="12.0133347"><ele>264.0</ele><time>2026-04-04T08:19:49.385Z</time></trkpt><trkpt lat="43.185695" lon="12.0133399"><ele>264.0</ele><time>2026-04-04T08:19:50.385Z</time></trkpt><trkpt lat="43.1854436" lon="12.0133516"><ele>263.5</ele><time>2026-04-04T08:19:51.386Z</time></trkpt><trkpt lat="43.1851997" lon="12.013358"><ele>263.0</ele><time>2026-04-04T08:19:52.386Z</time></trkpt><trkpt lat="43.1849524" lon="12.0133671"><ele>263.0</ele><time>2026-04-04T08:19:53.385Z</time></trkpt><trkpt lat="43.1847033" lon="12.0133733"><ele>263.0</ele><time>2026-04-04T08:19:54.385Z</time></trkpt><trkpt lat="43.1844483" lon="12.0133862"><ele>263.0</ele><time>2026-04-04T08:19:55.385Z</time></trkpt><trkpt lat="43.1841948" lon="12.0133985"><ele>263.0</ele><time>2026-04-04T08:19:56.385Z</time></trkpt><trkpt lat="43.183941" lon="12.0134216"><ele>263.5</ele><time>2026-04-04T08:19:57.385Z</time></trkpt><trkpt lat="43.1836901" lon="12.0134419"><ele>264.0</ele><time>2026-04-04T08:19:58.385Z</time></trkpt><trkpt lat="43.1834474" lon="12.0134633"><ele>264.0</ele><time>2026-04-04T08:19:59.385Z</time></trkpt><trkpt lat="43.1832224" lon="12.0134884"><ele>264.0</ele><time>2026-04-04T08:20:00.385Z</time></trkpt><trkpt lat="43.183016" lon="12.0135105"><ele>264.0</ele><time>2026-04-04T08:20:01.385Z</time></trkpt><trkpt lat="43.1828138" lon="12.0135313"><ele>264.3333333333333</ele><time>2026-04-04T08:20:02.385Z</time></trkpt><trkpt lat="43.1826202" lon="12.013548"><ele>264.66666666666663</ele><time>2026-04-04T08:20:03.386Z</time></trkpt><trkpt lat="43.1824336" lon="12.0135631"><ele>265.0</ele><time>2026-04-04T08:20:04.385Z</time></trkpt><trkpt lat="43.1822628" lon="12.0135608"><ele>265.3333333333333</ele><time>2026-04-04T08:20:05.385Z</time></trkpt><trkpt lat="43.1820965" lon="12.0135604"><ele>265.6666666666667</ele><time>2026-04-04T08:20:06.385Z</time></trkpt><trkpt lat="43.1819503" lon="12.013556"><ele>266.0</ele><time>2026-04-04T08:20:07.385Z</time></trkpt><trkpt lat="43.1818123" lon="12.0135541"><ele>266.0</ele><time>2026-04-04T08:20:08.385Z</time></trkpt><trkpt lat="43.1816845" lon="12.0135462"><ele>266.0</ele><time>2026-04-04T08:20:09.385Z</time></trkpt><trkpt lat="43.1815564" lon="12.0135456"><ele>266.0</ele><time>2026-04-04T08:20:10.386Z</time></trkpt><trkpt lat="43.1814416" lon="12.0135418"><ele>266.0</ele><time>2026-04-04T08:20:11.385Z</time></trkpt><trkpt lat="43.1813306" lon="12.0135444"><ele>266.0</ele><time>2026-04-04T08:20:12.385Z</time></trkpt><trkpt lat="43.1812272" lon="12.013547"><ele>266.0</ele><time>2026-04-04T08:20:13.385Z</time></trkpt><trkpt lat="43.1811339" lon="12.0135468"><ele>266.0</ele><time>2026-04-04T08:20:14.385Z</time></trkpt><trkpt lat="43.1810522" lon="12.0135452"><ele>266.0</ele><time>2026-04-04T08:20:15.386Z</time></trkpt><trkpt lat="43.180981" lon="12.0135437"><ele>266.0</ele><time>2026-04-04T08:20:16.385Z</time></trkpt><trkpt lat="43.1809038" lon="12.0135487"><ele>266.0</ele><time>2026-04-04T08:20:17.385Z</time></trkpt><trkpt lat="43.1807992" lon="12.0135628"><ele>266.5</ele><time>2026-04-04T08:20:18.385Z</time></trkpt><trkpt lat="43.1806623" lon="12.0135774"><ele>267.0</ele><time>2026-04-04T08:20:19.385Z</time></trkpt><trkpt lat="43.1805183" lon="12.0135801"><ele>267.5</ele><time>2026-04-04T08:20:20.386Z</time></trkpt><trkpt lat="43.1803584" lon="12.0135948"><ele>268.0</ele><time>2026-04-04T08:20:21.386Z</time></trkpt><trkpt lat="43.1801915" lon="12.0136042"><ele>268.0</ele><time>2026-04-04T08:20:22.386Z</time></trkpt><trkpt lat="43.1800093" lon="12.0136208"><ele>268.0</ele><time>2026-04-04T08:20:23.386Z</time></trkpt><trkpt lat="43.1798244" lon="12.013626"><ele>268.0</ele><time>2026-04-04T08:20:24.386Z</time></trkpt><trkpt lat="43.1796242" lon="12.0136367"><ele>267.3333333333333</ele><time>2026-04-04T08:20:25.386Z</time></trkpt><trkpt lat="43.1794155" lon="12.0136507"><ele>266.6666666666667</ele><time>2026-04-04T08:20:26.386Z</time></trkpt><trkpt lat="43.1791942" lon="12.013668"><ele>266.0</ele><time>2026-04-04T08:20:27.386Z</time></trkpt><trkpt lat="43.1789719" lon="12.0136892"><ele>265.5</ele><time>2026-04-04T08:20:28.387Z</time></trkpt><trkpt lat="43.1787487" lon="12.0137045"><ele>265.0</ele><time>2026-04-04T08:20:29.387Z</time></trkpt><trkpt lat="43.1785169" lon="12.0137194"><ele>265.0</ele><time>2026-04-04T08:20:30.386Z</time></trkpt><trkpt lat="43.1782748" lon="12.0137336"><ele>265.0</ele><time>2026-04-04T08:20:31.386Z</time></trkpt><trkpt lat="43.1780368" lon="12.0137534"><ele>264.5</ele><time>2026-04-04T08:20:32.386Z</time></trkpt><trkpt lat="43.1777964" lon="12.0137683"><ele>264.0</ele><time>2026-04-04T08:20:33.386Z</time></trkpt><trkpt lat="43.177557" lon="12.0137811"><ele>264.0</ele><time>2026-04-04T08:20:34.386Z</time></trkpt><trkpt lat="43.1773099" lon="12.0137927"><ele>264.0</ele><time>2026-04-04T08:20:35.386Z</time></trkpt><trkpt lat="43.177055" lon="12.0138106"><ele>264.0</ele><time>2026-04-04T08:20:36.386Z</time></trkpt><trkpt lat="43.1768062" lon="12.0138259"><ele>264.0</ele><time>2026-04-04T08:20:37.386Z</time></trkpt><trkpt lat="43.1765599" lon="12.0138495"><ele>264.0</ele><time>2026-04-04T08:20:38.387Z</time></trkpt><trkpt lat="43.176322" lon="12.0138662"><ele>264.0</ele><time>2026-04-04T08:20:39.386Z</time></trkpt><trkpt lat="43.1760807" lon="12.0138722"><ele>264.0</ele><time>2026-04-04T08:20:40.386Z</time></trkpt><trkpt lat="43.17584" lon="12.0138897"><ele>264.0</ele><time>2026-04-04T08:20:41.386Z</time></trkpt><trkpt lat="43.1755973" lon="12.0139138"><ele>264.0</ele><time>2026-04-04T08:20:42.386Z</time></trkpt><trkpt lat="43.1753524" lon="12.0139374"><ele>264.0</ele><time>2026-04-04T08:20:43.387Z</time></trkpt><trkpt lat="43.1750986" lon="12.0139533"><ele>263.5</ele><time>2026-04-04T08:20:44.386Z</time></trkpt><trkpt lat="43.1748503" lon="12.0139667"><ele>263.0</ele><time>2026-04-04T08:20:45.386Z</time></trkpt><trkpt lat="43.1746016" lon="12.0139816"><ele>263.0</ele><time>2026-04-04T08:20:46.386Z</time></trkpt><trkpt lat="43.1743496" lon="12.0139911"><ele>263.0</ele><time>2026-04-04T08:20:47.386Z</time></trkpt><trkpt lat="43.174096" lon="12.014013"><ele>263.0</ele><time>2026-04-04T08:20:48.386Z</time></trkpt><trkpt lat="43.1738449" lon="12.0140326"><ele>263.0</ele><time>2026-04-04T08:20:49.386Z</time></trkpt><trkpt lat="43.1735958" lon="12.014049"><ele>263.0</ele><time>2026-04-04T08:20:50.387Z</time></trkpt><trkpt lat="43.1733421" lon="12.0140625"><ele>263.0</ele><time>2026-04-04T08:20:51.386Z</time></trkpt><trkpt lat="43.1730923" lon="12.0140779"><ele>262.5</ele><time>2026-04-04T08:20:52.386Z</time></trkpt><trkpt lat="43.1728436" lon="12.0140877"><ele>262.0</ele><time>2026-04-04T08:20:53.386Z</time></trkpt><trkpt lat="43.1725944" lon="12.014104"><ele>262.0</ele><time>2026-04-04T08:20:54.386Z</time></trkpt><trkpt lat="43.1723526" lon="12.0141233"><ele>262.0</ele><time>2026-04-04T08:20:55.386Z</time></trkpt><trkpt lat="43.1721217" lon="12.0141399"><ele>262.0</ele><time>2026-04-04T08:20:56.386Z</time></trkpt><trkpt lat="43.1718977" lon="12.0141488"><ele>262.0</ele><time>2026-04-04T08:20:57.386Z</time></trkpt><trkpt lat="43.1716821" lon="12.0141581"><ele>262.0</ele><time>2026-04-04T08:20:58.386Z</time></trkpt><trkpt lat="43.1714714" lon="12.0141724"><ele>262.0</ele><time>2026-04-04T08:20:59.386Z</time></trkpt><trkpt lat="43.1712638" lon="12.0141882"><ele>262.0</ele><time>2026-04-04T08:21:00.387Z</time></trkpt><trkpt lat="43.1710659" lon="12.0142152"><ele>262.0</ele><time>2026-04-04T08:21:01.386Z</time></trkpt><trkpt lat="43.1708556" lon="12.0142312"><ele>261.66666666666663</ele><time>2026-04-04T08:21:02.386Z</time></trkpt><trkpt lat="43.1706406" lon="12.014238"><ele>261.3333333333333</ele><time>2026-04-04T08:21:03.386Z</time></trkpt><trkpt lat="43.1704424" lon="12.0142506"><ele>261.0</ele><time>2026-04-04T08:21:04.387Z</time></trkpt><trkpt lat="43.1702415" lon="12.0142652"><ele>261.0</ele><time>2026-04-04T08:21:05.386Z</time></trkpt><trkpt lat="43.170051" lon="12.0142856"><ele>261.0</ele><time>2026-04-04T08:21:06.386Z</time></trkpt><trkpt lat="43.1698528" lon="12.0143041"><ele>261.0</ele><time>2026-04-04T08:21:07.386Z</time></trkpt><trkpt lat="43.16966" lon="12.0143227"><ele>261.0</ele><time>2026-04-04T08:21:08.386Z</time></trkpt><trkpt lat="43.1694699" lon="12.0143487"><ele>261.0</ele><time>2026-04-04T08:21:09.387Z</time></trkpt><trkpt lat="43.1692816" lon="12.014373"><ele>261.0</ele><time>2026-04-04T08:21:10.386Z</time></trkpt><trkpt lat="43.1690872" lon="12.0143883"><ele>261.0</ele><time>2026-04-04T08:21:11.386Z</time></trkpt><trkpt lat="43.1688934" lon="12.0143981"><ele>261.0</ele><time>2026-04-04T08:21:12.386Z</time></trkpt><trkpt lat="43.1687006" lon="12.0144155"><ele>261.0</ele><time>2026-04-04T08:21:13.386Z</time></trkpt><trkpt lat="43.1684836" lon="12.0144494"><ele>261.0</ele><time>2026-04-04T08:21:14.387Z</time></trkpt><trkpt lat="43.1682439" lon="12.0144815"><ele>261.0</ele><time>2026-04-04T08:21:15.386Z</time></trkpt><trkpt lat="43.1679748" lon="12.0144966"><ele>261.5</ele><time>2026-04-04T08:21:16.387Z</time></trkpt><trkpt lat="43.1677192" lon="12.0145105"><ele>262.0</ele><time>2026-04-04T08:21:17.387Z</time></trkpt><trkpt lat="43.1674774" lon="12.0145318"><ele>261.0</ele><time>2026-04-04T08:21:18.386Z</time></trkpt><trkpt lat="43.1672175" lon="12.0145674"><ele>260.0</ele><time>2026-04-04T08:21:19.388Z</time></trkpt><trkpt lat="43.1669527" lon="12.0146141"><ele>260.0</ele><time>2026-04-04T08:21:20.387Z</time></trkpt><trkpt lat="43.1666841" lon="12.0146631"><ele>260.0</ele><time>2026-04-04T08:21:21.387Z</time></trkpt><trkpt lat="43.1664182" lon="12.0147186"><ele>261.0</ele><time>2026-04-04T08:21:22.387Z</time></trkpt><trkpt lat="43.1661566" lon="12.0147738"><ele>262.0</ele><time>2026-04-04T08:21:23.387Z</time></trkpt><trkpt lat="43.1658919" lon="12.0148392"><ele>262.0</ele><time>2026-04-04T08:21:24.387Z</time></trkpt><trkpt lat="43.1656269" lon="12.0149122"><ele>262.0</ele><time>2026-04-04T08:21:25.387Z</time></trkpt><trkpt lat="43.1653573" lon="12.0149917"><ele>262.0</ele><time>2026-04-04T08:21:26.387Z</time></trkpt><trkpt lat="43.165075" lon="12.0150715"><ele>262.0</ele><time>2026-04-04T08:21:27.387Z</time></trkpt><trkpt lat="43.1648038" lon="12.0151555"><ele>262.0</ele><time>2026-04-04T08:21:28.388Z</time></trkpt><trkpt lat="43.1645259" lon="12.0152446"><ele>262.0</ele><time>2026-04-04T08:21:29.387Z</time></trkpt><trkpt lat="43.1642491" lon="12.0153275"><ele>262.0</ele><time>2026-04-04T08:21:30.387Z</time></trkpt><trkpt lat="43.1639743" lon="12.0154004"><ele>262.0</ele><time>2026-04-04T08:21:31.387Z</time></trkpt><trkpt lat="43.1637091" lon="12.0154661"><ele>262.0</ele><time>2026-04-04T08:21:32.387Z</time></trkpt><trkpt lat="43.1634455" lon="12.0155257"><ele>262.0</ele><time>2026-04-04T08:21:33.387Z</time></trkpt><trkpt lat="43.1631754" lon="12.01559"><ele>262.5</ele><time>2026-04-04T08:21:34.387Z</time></trkpt><trkpt lat="43.1629135" lon="12.0156481"><ele>263.0</ele><time>2026-04-04T08:21:35.387Z</time></trkpt><trkpt lat="43.1626657" lon="12.0157025"><ele>263.0</ele><time>2026-04-04T08:21:36.387Z</time></trkpt><trkpt lat="43.1624187" lon="12.0157628"><ele>263.0</ele><time>2026-04-04T08:21:37.387Z</time></trkpt><trkpt lat="43.1621748" lon="12.0158244"><ele>262.5</ele><time>2026-04-04T08:21:38.388Z</time></trkpt><trkpt lat="43.1619309" lon="12.0158891"><ele>262.0</ele><time>2026-04-04T08:21:39.388Z</time></trkpt><trkpt lat="43.1616741" lon="12.0159642"><ele>262.5</ele><time>2026-04-04T08:21:40.388Z</time></trkpt><trkpt lat="43.1614116" lon="12.0160508"><ele>263.0</ele><time>2026-04-04T08:21:41.387Z</time></trkpt><trkpt lat="43.1611473" lon="12.0161363"><ele>263.0</ele><time>2026-04-04T08:21:42.388Z</time></trkpt><trkpt lat="43.1608816" lon="12.0162274"><ele>263.0</ele><time>2026-04-04T08:21:43.387Z</time></trkpt><trkpt lat="43.1606101" lon="12.0163163"><ele>264.0</ele><time>2026-04-04T08:21:44.387Z</time></trkpt><trkpt lat="43.1603362" lon="12.0164064"><ele>265.0</ele><time>2026-04-04T08:21:45.388Z</time></trkpt><trkpt lat="43.1600687" lon="12.0164914"><ele>264.5</ele><time>2026-04-04T08:21:46.387Z</time></trkpt><trkpt lat="43.1598001" lon="12.016588"><ele>264.0</ele><time>2026-04-04T08:21:47.387Z</time></trkpt><trkpt lat="43.1595355" lon="12.0166958"><ele>264.0</ele><time>2026-04-04T08:21:48.387Z</time></trkpt><trkpt lat="43.1592681" lon="12.0168076"><ele>264.0</ele><time>2026-04-04T08:21:49.387Z</time></trkpt><trkpt lat="43.1590047" lon="12.0169229"><ele>265.5</ele><time>2026-04-04T08:21:50.387Z</time></trkpt><trkpt lat="43.1587325" lon="12.0170347"><ele>267.0</ele><time>2026-04-04T08:21:51.388Z</time></trkpt><trkpt lat="43.1584569" lon="12.0171486"><ele>266.5</ele><time>2026-04-04T08:21:52.387Z</time></trkpt><trkpt lat="43.1581729" lon="12.0172572"><ele>266.0</ele><time>2026-04-04T08:21:53.388Z</time></trkpt><trkpt lat="43.1578928" lon="12.017371"><ele>266.0</ele><time>2026-04-04T08:21:54.387Z</time></trkpt><trkpt lat="43.1576136" lon="12.0174789"><ele>266.0</ele><time>2026-04-04T08:21:55.388Z</time></trkpt><trkpt lat="43.1573374" lon="12.0175915"><ele>264.5</ele><time>2026-04-04T08:21:56.387Z</time></trkpt><trkpt lat="43.15706" lon="12.0177087"><ele>263.0</ele><time>2026-04-04T08:21:57.387Z</time></trkpt><trkpt lat="43.1567866" lon="12.0178279"><ele>263.0</ele><time>2026-04-04T08:21:58.387Z</time></trkpt><trkpt lat="43.1565083" lon="12.0179475"><ele>263.0</ele><time>2026-04-04T08:21:59.388Z</time></trkpt><trkpt lat="43.156231" lon="12.018065"><ele>263.0</ele><time>2026-04-04T08:22:00.388Z</time></trkpt><trkpt lat="43.1559598" lon="12.0181863"><ele>263.0</ele><time>2026-04-04T08:22:01.387Z</time></trkpt><trkpt lat="43.1556973" lon="12.0182939"><ele>262.0</ele><time>2026-04-04T08:22:02.387Z</time></trkpt><trkpt lat="43.1554521" lon="12.0184041"><ele>261.0</ele><time>2026-04-04T08:22:03.388Z</time></trkpt><trkpt lat="43.1552154" lon="12.018515"><ele>261.0</ele><time>2026-04-04T08:22:04.387Z</time></trkpt><trkpt lat="43.1549827" lon="12.018626"><ele>261.0</ele><time>2026-04-04T08:22:05.387Z</time></trkpt><trkpt lat="43.1547571" lon="12.0187445"><ele>261.5</ele><time>2026-04-04T08:22:06.387Z</time></trkpt><trkpt lat="43.154529" lon="12.01889"><ele>262.0</ele><time>2026-04-04T08:22:07.388Z</time></trkpt><trkpt lat="43.1542887" lon="12.0190568"><ele>262.0</ele><time>2026-04-04T08:22:08.388Z</time></trkpt><trkpt lat="43.1540495" lon="12.0192359"><ele>262.0</ele><time>2026-04-04T08:22:09.387Z</time></trkpt><trkpt lat="43.1538209" lon="12.0194077"><ele>262.0</ele><time>2026-04-04T08:22:10.388Z</time></trkpt><trkpt lat="43.1535976" lon="12.0195718"><ele>262.0</ele><time>2026-04-04T08:22:11.387Z</time></trkpt><trkpt lat="43.1533886" lon="12.0197335"><ele>263.0</ele><time>2026-04-04T08:22:12.387Z</time></trkpt><trkpt lat="43.1531774" lon="12.0198832"><ele>264.0</ele><time>2026-04-04T08:22:13.387Z</time></trkpt><trkpt lat="43.1529593" lon="12.0200267"><ele>262.0</ele><time>2026-04-04T08:22:14.387Z</time></trkpt><trkpt lat="43.1527374" lon="12.0201562"><ele>260.0</ele><time>2026-04-04T08:22:15.388Z</time></trkpt><trkpt lat="43.1525076" lon="12.0202681"><ele>261.0</ele><time>2026-04-04T08:22:16.387Z</time></trkpt><trkpt lat="43.1522757" lon="12.0203607"><ele>262.0</ele><time>2026-04-04T08:22:17.389Z</time></trkpt><trkpt lat="43.1520424" lon="12.0204476"><ele>262.0</ele><time>2026-04-04T08:22:18.389Z</time></trkpt><trkpt lat="43.1518185" lon="12.0205423"><ele>262.0</ele><time>2026-04-04T08:22:19.388Z</time></trkpt><trkpt lat="43.1515926" lon="12.0206294"><ele>262.5</ele><time>2026-04-04T08:22:20.388Z</time></trkpt><trkpt lat="43.1513713" lon="12.0207175"><ele>263.0</ele><time>2026-04-04T08:22:21.388Z</time></trkpt><trkpt lat="43.151162" lon="12.020807"><ele>262.5</ele><time>2026-04-04T08:22:22.388Z</time></trkpt><trkpt lat="43.1509446" lon="12.0209101"><ele>262.0</ele><time>2026-04-04T08:22:23.388Z</time></trkpt><trkpt lat="43.1507272" lon="12.0210212"><ele>262.0</ele><time>2026-04-04T08:22:24.389Z</time></trkpt><trkpt lat="43.1505173" lon="12.0211581"><ele>262.0</ele><time>2026-04-04T08:22:25.388Z</time></trkpt><trkpt lat="43.1503031" lon="12.0213129"><ele>262.0</ele><time>2026-04-04T08:22:26.388Z</time></trkpt><trkpt lat="43.1500894" lon="12.0214755"><ele>262.0</ele><time>2026-04-04T08:22:27.388Z</time></trkpt><trkpt lat="43.1498808" lon="12.0216311"><ele>262.5</ele><time>2026-04-04T08:22:28.388Z</time></trkpt><trkpt lat="43.1496652" lon="12.0217839"><ele>263.0</ele><time>2026-04-04T08:22:29.389Z</time></trkpt><trkpt lat="43.1494451" lon="12.0219336"><ele>263.0</ele><time>2026-04-04T08:22:30.388Z</time></trkpt><trkpt lat="43.1492339" lon="12.0220882"><ele>263.0</ele><time>2026-04-04T08:22:31.388Z</time></trkpt><trkpt lat="43.1490166" lon="12.0222512"><ele>262.0</ele><time>2026-04-04T08:22:32.388Z</time></trkpt><trkpt lat="43.148793" lon="12.0224251"><ele>261.0</ele><time>2026-04-04T08:22:33.388Z</time></trkpt><trkpt lat="43.1485632" lon="12.0225894"><ele>260.0</ele><time>2026-04-04T08:22:34.388Z</time></trkpt><trkpt lat="43.1483344" lon="12.0227607"><ele>259.0</ele><time>2026-04-04T08:22:35.388Z</time></trkpt><trkpt lat="43.1480996" lon="12.0229309"><ele>259.0</ele><time>2026-04-04T08:22:36.388Z</time></trkpt><trkpt lat="43.1478576" lon="12.0231054"><ele>259.0</ele><time>2026-04-04T08:22:37.388Z</time></trkpt><trkpt lat="43.1476159" lon="12.0232799"><ele>260.0</ele><time>2026-04-04T08:22:38.388Z</time></trkpt><trkpt lat="43.1473771" lon="12.0234476"><ele>261.0</ele><time>2026-04-04T08:22:39.388Z</time></trkpt><trkpt lat="43.1471329" lon="12.023621"><ele>261.0</ele><time>2026-04-04T08:22:40.388Z</time></trkpt><trkpt lat="43.1468998" lon="12.0237896"><ele>261.0</ele><time>2026-04-04T08:22:41.388Z</time></trkpt><trkpt lat="43.1466625" lon="12.0239652"><ele>260.5</ele><time>2026-04-04T08:22:42.389Z</time></trkpt><trkpt lat="43.1464306" lon="12.0241442"><ele>260.0</ele><time>2026-04-04T08:22:43.388Z</time></trkpt><trkpt lat="43.1462027" lon="12.024319"><ele>260.0</ele><time>2026-04-04T08:22:44.388Z</time></trkpt><trkpt lat="43.1459822" lon="12.0244804"><ele>260.0</ele><time>2026-04-04T08:22:45.388Z</time></trkpt><trkpt lat="43.145781" lon="12.0246372"><ele>260.0</ele><time>2026-04-04T08:22:46.389Z</time></trkpt><trkpt lat="43.145586" lon="12.0247841"><ele>260.0</ele><time>2026-04-04T08:22:47.388Z</time></trkpt><trkpt lat="43.1454033" lon="12.0249229"><ele>260.0</ele><time>2026-04-04T08:22:48.388Z</time></trkpt><trkpt lat="43.1452301" lon="12.0250551"><ele>260.0</ele><time>2026-04-04T08:22:49.388Z</time></trkpt><trkpt lat="43.1450602" lon="12.0251798"><ele>260.0</ele><time>2026-04-04T08:22:50.389Z</time></trkpt><trkpt lat="43.1448933" lon="12.0253001"><ele>260.0</ele><time>2026-04-04T08:22:51.389Z</time></trkpt><trkpt lat="43.1447022" lon="12.025404"><ele>260.6666666666667</ele><time>2026-04-04T08:22:52.388Z</time></trkpt><trkpt lat="43.144504" lon="12.0254671"><ele>261.3333333333333</ele><time>2026-04-04T08:22:53.388Z</time></trkpt><trkpt lat="43.144286" lon="12.0254701"><ele>262.0</ele><time>2026-04-04T08:22:54.388Z</time></trkpt><trkpt lat="43.1440668" lon="12.0254323"><ele>262.5</ele><time>2026-04-04T08:22:55.388Z</time></trkpt><trkpt lat="43.1438473" lon="12.0253405"><ele>263.0</ele><time>2026-04-04T08:22:56.388Z</time></trkpt><trkpt lat="43.1436316" lon="12.025212"><ele>263.0</ele><time>2026-04-04T08:22:57.388Z</time></trkpt><trkpt lat="43.1434116" lon="12.0250416"><ele>263.0</ele><time>2026-04-04T08:22:58.388Z</time></trkpt><trkpt lat="43.1432077" lon="12.0248764"><ele>263.33333333333337</ele><time>2026-04-04T08:22:59.388Z</time></trkpt><trkpt lat="43.1430062" lon="12.024726"><ele>263.6666666666667</ele><time>2026-04-04T08:23:00.388Z</time></trkpt><trkpt lat="43.1428136" lon="12.0245825"><ele>264.0</ele><time>2026-04-04T08:23:01.388Z</time></trkpt><trkpt lat="43.142635" lon="12.024465"><ele>264.0</ele><time>2026-04-04T08:23:02.388Z</time></trkpt><trkpt lat="43.1424419" lon="12.0243872"><ele>264.0</ele><time>2026-04-04T08:23:03.388Z</time></trkpt><trkpt lat="43.1422481" lon="12.0243261"><ele>264.0</ele><time>2026-04-04T08:23:04.388Z</time></trkpt><trkpt lat="43.1420385" lon="12.0243083"><ele>264.0</ele><time>2026-04-04T08:23:05.388Z</time></trkpt><trkpt lat="43.1418284" lon="12.0243235"><ele>264.0</ele><time>2026-04-04T08:23:06.388Z</time></trkpt><trkpt lat="43.1415978" lon="12.0243954"><ele>264.0</ele><time>2026-04-04T08:23:07.388Z</time></trkpt><trkpt lat="43.1413816" lon="12.0244615"><ele>264.0</ele><time>2026-04-04T08:23:08.389Z</time></trkpt><trkpt lat="43.1411441" lon="12.0245826"><ele>264.0</ele><time>2026-04-04T08:23:09.388Z</time></trkpt><trkpt lat="43.1408949" lon="12.0247651"><ele>264.0</ele><time>2026-04-04T08:23:10.389Z</time></trkpt><trkpt lat="43.140631" lon="12.0249166"><ele>264.0</ele><time>2026-04-04T08:23:11.388Z</time></trkpt><trkpt lat="43.1403523" lon="12.0250367"><ele>264.5</ele><time>2026-04-04T08:23:12.389Z</time></trkpt><trkpt lat="43.1400721" lon="12.0251607"><ele>265.0</ele><time>2026-04-04T08:23:13.388Z</time></trkpt><trkpt lat="43.1397917" lon="12.0252712"><ele>265.5</ele><time>2026-04-04T08:23:14.388Z</time></trkpt><trkpt lat="43.1395125" lon="12.0253891"><ele>266.0</ele><time>2026-04-04T08:23:15.389Z</time></trkpt><trkpt lat="43.1392365" lon="12.025516"><ele>265.0</ele><time>2026-04-04T08:23:16.389Z</time></trkpt><trkpt lat="43.1389579" lon="12.0256403"><ele>264.0</ele><time>2026-04-04T08:23:17.39Z</time></trkpt><trkpt lat="43.1386824" lon="12.0257629"><ele>263.5</ele><time>2026-04-04T08:23:18.389Z</time></trkpt><trkpt lat="43.1384179" lon="12.0258736"><ele>263.0</ele><time>2026-04-04T08:23:19.39Z</time></trkpt><trkpt lat="43.138152" lon="12.0259753"><ele>264.0</ele><time>2026-04-04T08:23:20.389Z</time></trkpt><trkpt lat="43.1378792" lon="12.0260822"><ele>265.0</ele><time>2026-04-04T08:23:21.39Z</time></trkpt><trkpt lat="43.1376081" lon="12.0261988"><ele>264.5</ele><time>2026-04-04T08:23:22.389Z</time></trkpt><trkpt lat="43.1373363" lon="12.026322"><ele>264.0</ele><time>2026-04-04T08:23:23.389Z</time></trkpt><trkpt lat="43.137068" lon="12.0264449"><ele>264.0</ele><time>2026-04-04T08:23:24.389Z</time></trkpt><trkpt lat="43.1367936" lon="12.0265596"><ele>264.0</ele><time>2026-04-04T08:23:25.389Z</time></trkpt><trkpt lat="43.136519" lon="12.0266755"><ele>264.5</ele><time>2026-04-04T08:23:26.389Z</time></trkpt><trkpt lat="43.1362373" lon="12.0267992"><ele>265.0</ele><time>2026-04-04T08:23:27.389Z</time></trkpt><trkpt lat="43.1359606" lon="12.0269166"><ele>264.0</ele><time>2026-04-04T08:23:28.39Z</time></trkpt><trkpt lat="43.1356874" lon="12.027032"><ele>263.0</ele><time>2026-04-04T08:23:29.389Z</time></trkpt><trkpt lat="43.1354167" lon="12.0271479"><ele>263.0</ele><time>2026-04-04T08:23:30.39Z</time></trkpt><trkpt lat="43.1351547" lon="12.0272535"><ele>263.0</ele><time>2026-04-04T08:23:31.389Z</time></trkpt><trkpt lat="43.1349063" lon="12.0273584"><ele>263.0</ele><time>2026-04-04T08:23:32.39Z</time></trkpt><trkpt lat="43.1346527" lon="12.0274694"><ele>263.0</ele><time>2026-04-04T08:23:33.389Z</time></trkpt><trkpt lat="43.1344083" lon="12.0275835"><ele>263.0</ele><time>2026-04-04T08:23:34.389Z</time></trkpt><trkpt lat="43.1341632" lon="12.0276959"><ele>263.0</ele><time>2026-04-04T08:23:35.389Z</time></trkpt><trkpt lat="43.1339106" lon="12.0278081"><ele>263.0</ele><time>2026-04-04T08:23:36.389Z</time></trkpt><trkpt lat="43.1336528" lon="12.0279335"><ele>263.0</ele><time>2026-04-04T08:23:37.389Z</time></trkpt><trkpt lat="43.1334051" lon="12.0280569"><ele>262.0</ele><time>2026-04-04T08:23:38.389Z</time></trkpt><trkpt lat="43.1331741" lon="12.0281765"><ele>261.0</ele><time>2026-04-04T08:23:39.389Z</time></trkpt><trkpt lat="43.132949" lon="12.0282876"><ele>261.3333333333333</ele><time>2026-04-04T08:23:40.389Z</time></trkpt><trkpt lat="43.132744" lon="12.0283821"><ele>261.66666666666663</ele><time>2026-04-04T08:23:41.389Z</time></trkpt><trkpt lat="43.1325492" lon="12.0284839"><ele>262.0</ele><time>2026-04-04T08:23:42.39Z</time></trkpt><trkpt lat="43.1323574" lon="12.0285752"><ele>262.3333333333333</ele><time>2026-04-04T08:23:43.389Z</time></trkpt><trkpt lat="43.1321795" lon="12.0286631"><ele>262.6666666666667</ele><time>2026-04-04T08:23:44.389Z</time></trkpt><trkpt lat="43.1320219" lon="12.0287604"><ele>263.0</ele><time>2026-04-04T08:23:45.389Z</time></trkpt><trkpt lat="43.1318771" lon="12.0288826"><ele>263.0</ele><time>2026-04-04T08:23:46.389Z</time></trkpt><trkpt lat="43.1317506" lon="12.0290264"><ele>263.0</ele><time>2026-04-04T08:23:47.389Z</time></trkpt><trkpt lat="43.1316449" lon="12.0292198"><ele>263.0</ele><time>2026-04-04T08:23:48.389Z</time></trkpt><trkpt lat="43.131569" lon="12.0294228"><ele>262.6666666666667</ele><time>2026-04-04T08:23:49.389Z</time></trkpt><trkpt lat="43.1315149" lon="12.0296598"><ele>262.3333333333333</ele><time>2026-04-04T08:23:50.389Z</time></trkpt><trkpt lat="43.1315027" lon="12.0299124"><ele>262.0</ele><time>2026-04-04T08:23:51.389Z</time></trkpt><trkpt lat="43.1315079" lon="12.0301779"><ele>262.0</ele><time>2026-04-04T08:23:52.389Z</time></trkpt><trkpt lat="43.1315541" lon="12.0304756"><ele>262.0</ele><time>2026-04-04T08:23:53.389Z</time></trkpt><trkpt lat="43.1315988" lon="12.0307844"><ele>262.0</ele><time>2026-04-04T08:23:54.389Z</time></trkpt><trkpt lat="43.1316528" lon="12.0311224"><ele>262.0</ele><time>2026-04-04T08:23:55.389Z</time></trkpt><trkpt lat="43.1317132" lon="12.0314691"><ele>262.0</ele><time>2026-04-04T08:23:56.389Z</time></trkpt><trkpt lat="43.131742" lon="12.0317918"><ele>262.0</ele><time>2026-04-04T08:23:57.389Z</time></trkpt><trkpt lat="43.1317735" lon="12.0321246"><ele>262.0</ele><time>2026-04-04T08:23:58.389Z</time></trkpt><trkpt lat="43.1318123" lon="12.0324698"><ele>262.0</ele><time>2026-04-04T08:23:59.389Z</time></trkpt><trkpt lat="43.1318571" lon="12.0328132"><ele>261.5</ele><time>2026-04-04T08:24:00.389Z</time></trkpt><trkpt lat="43.1319092" lon="12.0331637"><ele>261.0</ele><time>2026-04-04T08:24:01.389Z</time></trkpt><trkpt lat="43.1319413" lon="12.0335007"><ele>261.0</ele><time>2026-04-04T08:24:02.39Z</time></trkpt><trkpt lat="43.131981" lon="12.0338446"><ele>261.0</ele><time>2026-04-04T08:24:03.389Z</time></trkpt><trkpt lat="43.1320117" lon="12.0341873"><ele>261.0</ele><time>2026-04-04T08:24:04.389Z</time></trkpt><trkpt lat="43.1320428" lon="12.0345245"><ele>261.0</ele><time>2026-04-04T08:24:05.39Z</time></trkpt><trkpt lat="43.1320807" lon="12.0348585"><ele>259.5</ele><time>2026-04-04T08:24:06.389Z</time></trkpt><trkpt lat="43.1321167" lon="12.0351904"><ele>258.0</ele><time>2026-04-04T08:24:07.389Z</time></trkpt><trkpt lat="43.1321623" lon="12.0355075"><ele>258.0</ele><time>2026-04-04T08:24:08.39Z</time></trkpt><trkpt lat="43.1322007" lon="12.035801"><ele>258.0</ele><time>2026-04-04T08:24:09.389Z</time></trkpt><trkpt lat="43.1322324" lon="12.0360787"><ele>258.0</ele><time>2026-04-04T08:24:10.389Z</time></trkpt><trkpt lat="43.13226" lon="12.0363441"><ele>258.3333333333333</ele><time>2026-04-04T08:24:11.389Z</time></trkpt><trkpt lat="43.1322917" lon="12.0366042"><ele>258.66666666666663</ele><time>2026-04-04T08:24:12.39Z</time></trkpt><trkpt lat="43.1323115" lon="12.0368554"><ele>259.0</ele><time>2026-04-04T08:24:13.389Z</time></trkpt><trkpt lat="43.1323374" lon="12.0370994"><ele>259.66666666666663</ele><time>2026-04-04T08:24:14.389Z</time></trkpt><trkpt lat="43.1323654" lon="12.0373368"><ele>260.3333333333333</ele><time>2026-04-04T08:24:15.39Z</time></trkpt><trkpt lat="43.132391" lon="12.0375568"><ele>261.0</ele><time>2026-04-04T08:24:16.39Z</time></trkpt><trkpt lat="43.1324106" lon="12.0377701"><ele>262.25</ele><time>2026-04-04T08:24:17.391Z</time></trkpt><trkpt lat="43.1324172" lon="12.0379801"><ele>263.5</ele><time>2026-04-04T08:24:18.39Z</time></trkpt><trkpt lat="43.1324088" lon="12.0381666"><ele>264.75</ele><time>2026-04-04T08:24:19.39Z</time></trkpt><trkpt lat="43.1324031" lon="12.0383203"><ele>266.0</ele><time>2026-04-04T08:24:20.39Z</time></trkpt><trkpt lat="43.1323913" lon="12.0384512"><ele>264.8</ele><time>2026-04-04T08:24:21.391Z</time></trkpt><trkpt lat="43.1323591" lon="12.0385321"><ele>263.6</ele><time>2026-04-04T08:24:22.39Z</time></trkpt><trkpt lat="43.1323451" lon="12.0386912"><ele>262.4</ele><time>2026-04-04T08:24:24.39Z</time></trkpt><trkpt lat="43.1323147" lon="12.038791"><ele>261.2</ele><time>2026-04-04T08:24:25.39Z</time></trkpt><trkpt lat="43.1322693" lon="12.0389266"><ele>260.0</ele><time>2026-04-04T08:24:26.39Z</time></trkpt><trkpt lat="43.1321959" lon="12.0390807"><ele>260.0</ele><time>2026-04-04T08:24:27.39Z</time></trkpt><trkpt lat="43.1321205" lon="12.0392315"><ele>260.0</ele><time>2026-04-04T08:24:28.39Z</time></trkpt><trkpt lat="43.1320321" lon="12.0393698"><ele>260.0</ele><time>2026-04-04T08:24:29.39Z</time></trkpt><trkpt lat="43.1319712" lon="12.0394832"><ele>260.0</ele><time>2026-04-04T08:24:30.39Z</time></trkpt><trkpt lat="43.1319211" lon="12.0395769"><ele>260.00000000000006</ele><time>2026-04-04T08:24:31.39Z</time></trkpt><trkpt lat="43.1318805" lon="12.0396456"><ele>260.0</ele><time>2026-04-04T08:24:32.39Z</time></trkpt><trkpt lat="43.1318305" lon="12.0397112"><ele>260.0</ele><time>2026-04-04T08:24:33.39Z</time></trkpt><trkpt lat="43.1318436" lon="12.039803"><ele>260.0</ele><time>2026-04-04T08:24:35.39Z</time></trkpt><trkpt lat="43.1319011" lon="12.0398553"><ele>260.0</ele><time>2026-04-04T08:24:36.39Z</time></trkpt><trkpt lat="43.1319716" lon="12.0398888"><ele>260.00000000000006</ele><time>2026-04-04T08:24:37.39Z</time></trkpt><trkpt lat="43.1320577" lon="12.0399417"><ele>260.0</ele><time>2026-04-04T08:24:38.39Z</time></trkpt><trkpt lat="43.1321386" lon="12.0400097"><ele>260.25</ele><time>2026-04-04T08:24:39.39Z</time></trkpt><trkpt lat="43.1322139" lon="12.0400819"><ele>260.5</ele><time>2026-04-04T08:24:40.39Z</time></trkpt><trkpt lat="43.1322929" lon="12.0401487"><ele>260.75</ele><time>2026-04-04T08:24:41.39Z</time></trkpt><trkpt lat="43.132376" lon="12.0402309"><ele>261.0</ele><time>2026-04-04T08:24:42.39Z</time></trkpt><trkpt lat="43.1325479" lon="12.0403978"><ele>261.0</ele><time>2026-04-04T08:24:44.39Z</time></trkpt><trkpt lat="43.1326387" lon="12.0404868"><ele>261.0</ele><time>2026-04-04T08:24:45.39Z</time></trkpt><trkpt lat="43.1327342" lon="12.0405684"><ele>261.0</ele><time>2026-04-04T08:24:46.39Z</time></trkpt><trkpt lat="43.1328257" lon="12.0406405"><ele>261.0</ele><time>2026-04-04T08:24:47.39Z</time></trkpt><trkpt lat="43.1329069" lon="12.0407154"><ele>261.0</ele><time>2026-04-04T08:24:48.391Z</time></trkpt><trkpt lat="43.1329881" lon="12.0407965"><ele>261.0</ele><time>2026-04-04T08:24:49.39Z</time></trkpt><trkpt lat="43.1330667" lon="12.0408747"><ele>261.0</ele><time>2026-04-04T08:24:50.39Z</time></trkpt><trkpt lat="43.1331452" lon="12.0409474"><ele>261.0</ele><time>2026-04-04T08:24:51.39Z</time></trkpt><trkpt lat="43.1332155" lon="12.041011"><ele>261.0</ele><time>2026-04-04T08:24:52.39Z</time></trkpt><trkpt lat="43.1332776" lon="12.0410753"><ele>261.0</ele><time>2026-04-04T08:24:53.39Z</time></trkpt><trkpt lat="43.1333316" lon="12.0411498"><ele>261.0</ele><time>2026-04-04T08:24:54.39Z</time></trkpt><trkpt lat="43.133379" lon="12.0412355"><ele>261.0</ele><time>2026-04-04T08:24:55.39Z</time></trkpt><trkpt lat="43.1334044" lon="12.0413191"><ele>261.0</ele><time>2026-04-04T08:24:56.39Z</time></trkpt><trkpt lat="43.1334102" lon="12.0414114"><ele>261.0</ele><time>2026-04-04T08:24:57.39Z</time></trkpt><trkpt lat="43.1334034" lon="12.0415182"><ele>261.0</ele><time>2026-04-04T08:24:58.39Z</time></trkpt><trkpt lat="43.1333742" lon="12.0416318"><ele>261.0</ele><time>2026-04-04T08:24:59.39Z</time></trkpt><trkpt lat="43.1333344" lon="12.0417651"><ele>261.0</ele><time>2026-04-04T08:25:00.39Z</time></trkpt><trkpt lat="43.1332762" lon="12.0418934"><ele>261.0</ele><time>2026-04-04T08:25:01.39Z</time></trkpt><trkpt lat="43.1332017" lon="12.0420469"><ele>261.0</ele><time>2026-04-04T08:25:02.39Z</time></trkpt><trkpt lat="43.1331256" lon="12.0421676"><ele>261.0</ele><time>2026-04-04T08:25:03.39Z</time></trkpt><trkpt lat="43.1330306" lon="12.0422965"><ele>261.0</ele><time>2026-04-04T08:25:04.39Z</time></trkpt><trkpt lat="43.1329551" lon="12.0424025"><ele>261.40000000000003</ele><time>2026-04-04T08:25:05.39Z</time></trkpt><trkpt lat="43.1328917" lon="12.0425043"><ele>261.8</ele><time>2026-04-04T08:25:06.391Z</time></trkpt><trkpt lat="43.1328254" lon="12.0426075"><ele>262.20000000000005</ele><time>2026-04-04T08:25:07.39Z</time></trkpt><trkpt lat="43.1327619" lon="12.0427212"><ele>262.6</ele><time>2026-04-04T08:25:08.39Z</time></trkpt><trkpt lat="43.1326741" lon="12.0428238"><ele>263.0</ele><time>2026-04-04T08:25:09.391Z</time></trkpt><trkpt lat="43.1326046" lon="12.0429327"><ele>263.0</ele><time>2026-04-04T08:25:10.39Z</time></trkpt><trkpt lat="43.1325353" lon="12.043031"><ele>263.0</ele><time>2026-04-04T08:25:11.39Z</time></trkpt><trkpt lat="43.132486" lon="12.0431243"><ele>263.0</ele><time>2026-04-04T08:25:12.39Z</time></trkpt><trkpt lat="43.1324191" lon="12.0432366"><ele>263.0</ele><time>2026-04-04T08:25:14.391Z</time></trkpt><trkpt lat="43.1323626" lon="12.0433098"><ele>263.0</ele><time>2026-04-04T08:25:16.39Z</time></trkpt><trkpt lat="43.132299" lon="12.0433938"><ele>262.8</ele><time>2026-04-04T08:25:19.391Z</time></trkpt><trkpt lat="43.1323644" lon="12.0434903"><ele>262.6</ele><time>2026-04-04T08:25:24.392Z</time></trkpt><trkpt lat="43.1324739" lon="12.0434794"><ele>262.4</ele><time>2026-04-04T08:25:26.391Z</time></trkpt><trkpt lat="43.132539" lon="12.043461"><ele>262.2</ele><time>2026-04-04T08:25:27.391Z</time></trkpt><trkpt lat="43.1326612" lon="12.0435152"><ele>262.0</ele><time>2026-04-04T08:25:29.391Z</time></trkpt><trkpt lat="43.1327322" lon="12.0435746"><ele>262.0</ele><time>2026-04-04T08:25:30.391Z</time></trkpt><trkpt lat="43.1328054" lon="12.043658"><ele>262.0</ele><time>2026-04-04T08:25:31.391Z</time></trkpt><trkpt lat="43.1328892" lon="12.0437456"><ele>262.0</ele><time>2026-04-04T08:25:32.392Z</time></trkpt><trkpt lat="43.1329821" lon="12.0438279"><ele>262.0</ele><time>2026-04-04T08:25:33.391Z</time></trkpt><trkpt lat="43.1330713" lon="12.0438987"><ele>262.0</ele><time>2026-04-04T08:25:34.391Z</time></trkpt><trkpt lat="43.1331553" lon="12.0439696"><ele>261.8333333333333</ele><time>2026-04-04T08:25:35.391Z</time></trkpt><trkpt lat="43.1332324" lon="12.0440309"><ele>261.66666666666663</ele><time>2026-04-04T08:25:36.391Z</time></trkpt><trkpt lat="43.1332984" lon="12.0440875"><ele>261.5</ele><time>2026-04-04T08:25:37.391Z</time></trkpt><trkpt lat="43.1333621" lon="12.0441433"><ele>261.3333333333333</ele><time>2026-04-04T08:25:38.391Z</time></trkpt><trkpt lat="43.1334242" lon="12.0441877"><ele>261.1666666666667</ele><time>2026-04-04T08:25:39.391Z</time></trkpt><trkpt lat="43.1335197" lon="12.0442735"><ele>261.0</ele><time>2026-04-04T08:25:41.391Z</time></trkpt><trkpt lat="43.1335437" lon="12.0443954"><ele>261.0</ele><time>2026-04-04T08:25:43.392Z</time></trkpt><trkpt lat="43.1334995" lon="12.0445281"><ele>261.0</ele><time>2026-04-04T08:25:45.391Z</time></trkpt><trkpt lat="43.1334247" lon="12.0446124"><ele>261.0</ele><time>2026-04-04T08:25:47.391Z</time></trkpt><trkpt lat="43.1333562" lon="12.0446788"><ele>261.0</ele><time>2026-04-04T08:25:49.391Z</time></trkpt><trkpt lat="43.1332621" lon="12.0447413"><ele>261.0</ele><time>2026-04-04T08:25:51.391Z</time></trkpt><trkpt lat="43.1331924" lon="12.0448046"><ele>261.0</ele><time>2026-04-04T08:25:53.392Z</time></trkpt><trkpt lat="43.1331211" lon="12.0448794"><ele>261.0</ele><time>2026-04-04T08:25:55.391Z</time></trkpt><trkpt lat="43.1330281" lon="12.0449667"><ele>261.0</ele><time>2026-04-04T08:25:57.391Z</time></trkpt><trkpt lat="43.1329712" lon="12.045025"><ele>261.0</ele><time>2026-04-04T08:25:58.391Z</time></trkpt><trkpt lat="43.1329066" lon="12.0450914"><ele>261.0</ele><time>2026-04-04T08:25:59.391Z</time></trkpt><trkpt lat="43.1328324" lon="12.0451629"><ele>261.0</ele><time>2026-04-04T08:26:00.392Z</time></trkpt><trkpt lat="43.132758" lon="12.0452403"><ele>261.0</ele><time>2026-04-04T08:26:01.391Z</time></trkpt><trkpt lat="43.1326829" lon="12.0453157"><ele>261.0</ele><time>2026-04-04T08:26:02.392Z</time></trkpt><trkpt lat="43.1326033" lon="12.0454022"><ele>261.0</ele><time>2026-04-04T08:26:03.391Z</time></trkpt><trkpt lat="43.1325204" lon="12.0454956"><ele>261.0</ele><time>2026-04-04T08:26:04.391Z</time></trkpt><trkpt lat="43.1324394" lon="12.0455844"><ele>261.0</ele><time>2026-04-04T08:26:05.391Z</time></trkpt><trkpt lat="43.132355" lon="12.0456772"><ele>260.6</ele><time>2026-04-04T08:26:06.391Z</time></trkpt><trkpt lat="43.1322716" lon="12.045771"><ele>260.20000000000005</ele><time>2026-04-04T08:26:07.392Z</time></trkpt><trkpt lat="43.1321892" lon="12.0458688"><ele>259.79999999999995</ele><time>2026-04-04T08:26:08.391Z</time></trkpt><trkpt lat="43.1321106" lon="12.0459681"><ele>259.4</ele><time>2026-04-04T08:26:09.391Z</time></trkpt><trkpt lat="43.1320267" lon="12.0460748"><ele>259.0</ele><time>2026-04-04T08:26:10.392Z</time></trkpt><trkpt lat="43.1319424" lon="12.0461769"><ele>259.0</ele><time>2026-04-04T08:26:11.392Z</time></trkpt><trkpt lat="43.1318617" lon="12.0462745"><ele>259.0</ele><time>2026-04-04T08:26:12.392Z</time></trkpt><trkpt lat="43.1317752" lon="12.0463752"><ele>259.0</ele><time>2026-04-04T08:26:13.391Z</time></trkpt><trkpt lat="43.1316944" lon="12.0464765"><ele>259.0</ele><time>2026-04-04T08:26:14.391Z</time></trkpt><trkpt lat="43.1316197" lon="12.0465719"><ele>259.0</ele><time>2026-04-04T08:26:15.391Z</time></trkpt><trkpt lat="43.1315422" lon="12.0466731"><ele>259.2</ele><time>2026-04-04T08:26:16.392Z</time></trkpt><trkpt lat="43.1314576" lon="12.0467807"><ele>259.4</ele><time>2026-04-04T08:26:17.392Z</time></trkpt><trkpt lat="43.1313737" lon="12.0468852"><ele>259.6</ele><time>2026-04-04T08:26:18.392Z</time></trkpt><trkpt lat="43.1312916" lon="12.0469825"><ele>259.8</ele><time>2026-04-04T08:26:19.392Z</time></trkpt><trkpt lat="43.1312099" lon="12.047083"><ele>260.0</ele><time>2026-04-04T08:26:20.392Z</time></trkpt><trkpt lat="43.131132" lon="12.0471851"><ele>260.0</ele><time>2026-04-04T08:26:21.393Z</time></trkpt><trkpt lat="43.1310512" lon="12.0472831"><ele>260.0</ele><time>2026-04-04T08:26:22.392Z</time></trkpt><trkpt lat="43.1309712" lon="12.0473815"><ele>260.0</ele><time>2026-04-04T08:26:23.392Z</time></trkpt><trkpt lat="43.1308951" lon="12.0474767"><ele>260.0</ele><time>2026-04-04T08:26:24.393Z</time></trkpt><trkpt lat="43.1308214" lon="12.0475718"><ele>260.0</ele><time>2026-04-04T08:26:25.392Z</time></trkpt><trkpt lat="43.1307477" lon="12.0476682"><ele>259.8</ele><time>2026-04-04T08:26:26.392Z</time></trkpt><trkpt lat="43.1306747" lon="12.0477641"><ele>259.6</ele><time>2026-04-04T08:26:27.392Z</time></trkpt><trkpt lat="43.1305948" lon="12.0478661"><ele>259.4</ele><time>2026-04-04T08:26:28.392Z</time></trkpt><trkpt lat="43.1305111" lon="12.0479694"><ele>259.2</ele><time>2026-04-04T08:26:29.392Z</time></trkpt><trkpt lat="43.1304341" lon="12.0480698"><ele>259.0</ele><time>2026-04-04T08:26:30.392Z</time></trkpt><trkpt lat="43.1303548" lon="12.0481701"><ele>259.0</ele><time>2026-04-04T08:26:31.392Z</time></trkpt><trkpt lat="43.1302797" lon="12.0482621"><ele>259.0</ele><time>2026-04-04T08:26:32.392Z</time></trkpt><trkpt lat="43.1302049" lon="12.0483628"><ele>259.0</ele><time>2026-04-04T08:26:33.393Z</time></trkpt><trkpt lat="43.1301276" lon="12.0484595"><ele>259.0</ele><time>2026-04-04T08:26:34.392Z</time></trkpt><trkpt lat="43.1300515" lon="12.0485608"><ele>259.0</ele><time>2026-04-04T08:26:35.392Z</time></trkpt><trkpt lat="43.1299755" lon="12.0486591"><ele>259.0</ele><time>2026-04-04T08:26:36.393Z</time></trkpt><trkpt lat="43.1298994" lon="12.0487572"><ele>259.0</ele><time>2026-04-04T08:26:37.392Z</time></trkpt><trkpt lat="43.1298259" lon="12.0488544"><ele>259.0</ele><time>2026-04-04T08:26:38.392Z</time></trkpt><trkpt lat="43.1297551" lon="12.0489413"><ele>259.0</ele><time>2026-04-04T08:26:39.392Z</time></trkpt><trkpt lat="43.1296849" lon="12.0490247"><ele>259.0</ele><time>2026-04-04T08:26:40.392Z</time></trkpt><trkpt lat="43.1296119" lon="12.0490997"><ele>259.3333333333333</ele><time>2026-04-04T08:26:41.392Z</time></trkpt><trkpt lat="43.1295423" lon="12.0491711"><ele>259.66666666666663</ele><time>2026-04-04T08:26:42.393Z</time></trkpt><trkpt lat="43.1294753" lon="12.0492345"><ele>260.0</ele><time>2026-04-04T08:26:43.392Z</time></trkpt><trkpt lat="43.1294158" lon="12.0492909"><ele>260.3333333333333</ele><time>2026-04-04T08:26:44.393Z</time></trkpt><trkpt lat="43.1293141" lon="12.049373"><ele>260.6666666666667</ele><time>2026-04-04T08:26:46.392Z</time></trkpt><trkpt lat="43.1292576" lon="12.0494218"><ele>261.0</ele><time>2026-04-04T08:26:48.392Z</time></trkpt><trkpt lat="43.1292364" lon="12.0495208"><ele>261.0</ele><time>2026-04-04T08:26:50.392Z</time></trkpt><trkpt lat="43.1292373" lon="12.0496781"><ele>261.0</ele><time>2026-04-04T08:26:52.392Z</time></trkpt><trkpt lat="43.129217" lon="12.0498458"><ele>261.0</ele><time>2026-04-04T08:26:54.392Z</time></trkpt><trkpt lat="43.1292075" lon="12.0499366"><ele>261.0</ele><time>2026-04-04T08:26:55.392Z</time></trkpt><trkpt lat="43.1292027" lon="12.0500373"><ele>261.0</ele><time>2026-04-04T08:26:56.392Z</time></trkpt><trkpt lat="43.1291964" lon="12.0501373"><ele>261.0</ele><time>2026-04-04T08:26:57.392Z</time></trkpt><trkpt lat="43.1291859" lon="12.0502419"><ele>261.0</ele><time>2026-04-04T08:26:58.392Z</time></trkpt><trkpt lat="43.1291693" lon="12.0503506"><ele>261.0</ele><time>2026-04-04T08:26:59.392Z</time></trkpt><trkpt lat="43.1291513" lon="12.0504626"><ele>261.0</ele><time>2026-04-04T08:27:00.392Z</time></trkpt><trkpt lat="43.1291365" lon="12.0505733"><ele>261.0</ele><time>2026-04-04T08:27:01.392Z</time></trkpt><trkpt lat="43.1291273" lon="12.0506861"><ele>261.0</ele><time>2026-04-04T08:27:02.392Z</time></trkpt><trkpt lat="43.1291226" lon="12.0508021"><ele>261.3333333333333</ele><time>2026-04-04T08:27:03.392Z</time></trkpt><trkpt lat="43.1291191" lon="12.050926"><ele>261.6666666666667</ele><time>2026-04-04T08:27:04.392Z</time></trkpt><trkpt lat="43.1291168" lon="12.0510458"><ele>262.0</ele><time>2026-04-04T08:27:05.392Z</time></trkpt><trkpt lat="43.129117" lon="12.0511628"><ele>262.33333333333337</ele><time>2026-04-04T08:27:06.392Z</time></trkpt><trkpt lat="43.1291156" lon="12.0512834"><ele>262.6666666666667</ele><time>2026-04-04T08:27:07.392Z</time></trkpt><trkpt lat="43.1291194" lon="12.0513935"><ele>263.0</ele><time>2026-04-04T08:27:08.393Z</time></trkpt><trkpt lat="43.1291251" lon="12.0514993"><ele>263.0</ele><time>2026-04-04T08:27:09.392Z</time></trkpt><trkpt lat="43.1291317" lon="12.0516022"><ele>263.0</ele><time>2026-04-04T08:27:10.392Z</time></trkpt><trkpt lat="43.1291521" lon="12.051815"><ele>263.0</ele><time>2026-04-04T08:27:12.392Z</time></trkpt><trkpt lat="43.1291587" lon="12.0519167"><ele>263.0</ele><time>2026-04-04T08:27:13.393Z</time></trkpt><trkpt lat="43.1291638" lon="12.0520216"><ele>263.0</ele><time>2026-04-04T08:27:14.392Z</time></trkpt><trkpt lat="43.1291669" lon="12.0521251"><ele>263.1666666666667</ele><time>2026-04-04T08:27:15.393Z</time></trkpt><trkpt lat="43.1291689" lon="12.052233"><ele>263.33333333333337</ele><time>2026-04-04T08:27:16.392Z</time></trkpt><trkpt lat="43.1291722" lon="12.052342"><ele>263.5</ele><time>2026-04-04T08:27:17.392Z</time></trkpt><trkpt lat="43.1291774" lon="12.0524471"><ele>263.6666666666667</ele><time>2026-04-04T08:27:18.392Z</time></trkpt><trkpt lat="43.1291835" lon="12.0525575"><ele>263.8333333333333</ele><time>2026-04-04T08:27:19.393Z</time></trkpt><trkpt lat="43.129182" lon="12.0526712"><ele>264.0</ele><time>2026-04-04T08:27:20.393Z</time></trkpt><trkpt lat="43.1291834" lon="12.0527895"><ele>264.0</ele><time>2026-04-04T08:27:21.393Z</time></trkpt><trkpt lat="43.1291882" lon="12.0529039"><ele>264.0</ele><time>2026-04-04T08:27:22.394Z</time></trkpt><trkpt lat="43.1291985" lon="12.0530264"><ele>264.0</ele><time>2026-04-04T08:27:23.393Z</time></trkpt><trkpt lat="43.1292073" lon="12.0531472"><ele>264.0</ele><time>2026-04-04T08:27:24.393Z</time></trkpt><trkpt lat="43.129219" lon="12.0532686"><ele>264.0</ele><time>2026-04-04T08:27:25.393Z</time></trkpt><trkpt lat="43.1292278" lon="12.0533868"><ele>264.0</ele><time>2026-04-04T08:27:26.394Z</time></trkpt><trkpt lat="43.1292358" lon="12.0535038"><ele>264.0</ele><time>2026-04-04T08:27:27.393Z</time></trkpt><trkpt lat="43.1292419" lon="12.0536216"><ele>264.0</ele><time>2026-04-04T08:27:28.393Z</time></trkpt><trkpt lat="43.1292483" lon="12.0537394"><ele>264.0</ele><time>2026-04-04T08:27:29.393Z</time></trkpt><trkpt lat="43.1292547" lon="12.0538574"><ele>264.0</ele><time>2026-04-04T08:27:30.393Z</time></trkpt><trkpt lat="43.1292554" lon="12.0539683"><ele>264.0</ele><time>2026-04-04T08:27:31.393Z</time></trkpt><trkpt lat="43.1292503" lon="12.0540745"><ele>264.0</ele><time>2026-04-04T08:27:32.393Z</time></trkpt><trkpt lat="43.1292435" lon="12.0541872"><ele>264.0</ele><time>2026-04-04T08:27:33.393Z</time></trkpt><trkpt lat="43.1292296" lon="12.0542994"><ele>264.0</ele><time>2026-04-04T08:27:34.393Z</time></trkpt><trkpt lat="43.1292098" lon="12.0544015"><ele>264.0</ele><time>2026-04-04T08:27:35.394Z</time></trkpt><trkpt lat="43.1291865" lon="12.0545105"><ele>264.0</ele><time>2026-04-04T08:27:36.393Z</time></trkpt><trkpt lat="43.1291695" lon="12.0546073"><ele>264.0</ele><time>2026-04-04T08:27:37.393Z</time></trkpt><trkpt lat="43.1291576" lon="12.0546984"><ele>264.0</ele><time>2026-04-04T08:27:38.393Z</time></trkpt><trkpt lat="43.1291445" lon="12.0547886"><ele>264.0</ele><time>2026-04-04T08:27:39.393Z</time></trkpt><trkpt lat="43.1291277" lon="12.0548898"><ele>264.0</ele><time>2026-04-04T08:27:40.393Z</time></trkpt><trkpt lat="43.1291058" lon="12.0550031"><ele>264.0</ele><time>2026-04-04T08:27:41.393Z</time></trkpt><trkpt lat="43.1290868" lon="12.055117"><ele>264.0</ele><time>2026-04-04T08:27:42.393Z</time></trkpt><trkpt lat="43.1290662" lon="12.0552408"><ele>264.0</ele><time>2026-04-04T08:27:43.394Z</time></trkpt><trkpt lat="43.1290425" lon="12.0553751"><ele>264.0</ele><time>2026-04-04T08:27:44.393Z</time></trkpt><trkpt lat="43.1290141" lon="12.0555064"><ele>268.8</ele><time>2026-04-04T08:27:45.393Z</time></trkpt><trkpt lat="43.1289801" lon="12.0556361"><ele>273.59999999999997</ele><time>2026-04-04T08:27:46.394Z</time></trkpt><trkpt lat="43.1289396" lon="12.0557631"><ele>278.4</ele><time>2026-04-04T08:27:47.393Z</time></trkpt><trkpt lat="43.1288967" lon="12.0558903"><ele>283.2</ele><time>2026-04-04T08:27:48.393Z</time></trkpt><trkpt lat="43.1288536" lon="12.0560166"><ele>288.0</ele><time>2026-04-04T08:27:49.393Z</time></trkpt><trkpt lat="43.1288115" lon="12.0561431"><ele>288.6</ele><time>2026-04-04T08:27:50.394Z</time></trkpt><trkpt lat="43.1287642" lon="12.0562742"><ele>289.20000000000005</ele><time>2026-04-04T08:27:51.393Z</time></trkpt><trkpt lat="43.1287219" lon="12.0564041"><ele>289.8</ele><time>2026-04-04T08:27:52.394Z</time></trkpt><trkpt lat="43.1286782" lon="12.0565371"><ele>290.40000000000003</ele><time>2026-04-04T08:27:53.393Z</time></trkpt><trkpt lat="43.1286334" lon="12.056665"><ele>291.0</ele><time>2026-04-04T08:27:54.393Z</time></trkpt><trkpt lat="43.1285866" lon="12.0567897"><ele>289.2</ele><time>2026-04-04T08:27:55.393Z</time></trkpt><trkpt lat="43.1285265" lon="12.0569091"><ele>287.40000000000003</ele><time>2026-04-04T08:27:56.393Z</time></trkpt><trkpt lat="43.1284623" lon="12.0570041"><ele>285.6</ele><time>2026-04-04T08:27:57.393Z</time></trkpt><trkpt lat="43.128395" lon="12.0571004"><ele>283.8</ele><time>2026-04-04T08:27:58.394Z</time></trkpt><trkpt lat="43.1283202" lon="12.0571902"><ele>282.0</ele><time>2026-04-04T08:27:59.393Z</time></trkpt><trkpt lat="43.128234" lon="12.0572725"><ele>280.0</ele><time>2026-04-04T08:28:00.393Z</time></trkpt><trkpt lat="43.1281325" lon="12.0573517"><ele>278.0</ele><time>2026-04-04T08:28:01.393Z</time></trkpt><trkpt lat="43.1280292" lon="12.05741"><ele>276.0</ele><time>2026-04-04T08:28:02.393Z</time></trkpt><trkpt lat="43.127916" lon="12.0574505"><ele>274.0</ele><time>2026-04-04T08:28:03.393Z</time></trkpt><trkpt lat="43.1277994" lon="12.0574924"><ele>274.0</ele><time>2026-04-04T08:28:04.393Z</time></trkpt><trkpt lat="43.1276801" lon="12.0575304"><ele>274.0</ele><time>2026-04-04T08:28:05.393Z</time></trkpt><trkpt lat="43.1275627" lon="12.0575748"><ele>274.0</ele><time>2026-04-04T08:28:06.394Z</time></trkpt><trkpt lat="43.1274421" lon="12.0576235"><ele>274.0</ele><time>2026-04-04T08:28:07.393Z</time></trkpt><trkpt lat="43.1273299" lon="12.0576809"><ele>272.8</ele><time>2026-04-04T08:28:08.394Z</time></trkpt><trkpt lat="43.1272177" lon="12.0577363"><ele>271.59999999999997</ele><time>2026-04-04T08:28:09.394Z</time></trkpt><trkpt lat="43.1271129" lon="12.0577824"><ele>270.4</ele><time>2026-04-04T08:28:10.393Z</time></trkpt><trkpt lat="43.1270155" lon="12.057821"><ele>269.2</ele><time>2026-04-04T08:28:11.393Z</time></trkpt><trkpt lat="43.1269155" lon="12.0578556"><ele>268.0</ele><time>2026-04-04T08:28:12.393Z</time></trkpt><trkpt lat="43.1268145" lon="12.0578727"><ele>268.0</ele><time>2026-04-04T08:28:13.393Z</time></trkpt><trkpt lat="43.1267165" lon="12.0578694"><ele>268.0</ele><time>2026-04-04T08:28:14.393Z</time></trkpt><trkpt lat="43.1266182" lon="12.0578401"><ele>268.0</ele><time>2026-04-04T08:28:15.393Z</time></trkpt><trkpt lat="43.1265181" lon="12.0578053"><ele>268.0</ele><time>2026-04-04T08:28:16.393Z</time></trkpt><trkpt lat="43.1264154" lon="12.0577522"><ele>268.0</ele><time>2026-04-04T08:28:17.393Z</time></trkpt><trkpt lat="43.1263167" lon="12.0577"><ele>267.8</ele><time>2026-04-04T08:28:18.394Z</time></trkpt><trkpt lat="43.1262211" lon="12.0576475"><ele>267.6</ele><time>2026-04-04T08:28:19.393Z</time></trkpt><trkpt lat="43.12613" lon="12.0575846"><ele>267.4</ele><time>2026-04-04T08:28:20.393Z</time></trkpt><trkpt lat="43.1260403" lon="12.0575203"><ele>267.2</ele><time>2026-04-04T08:28:21.394Z</time></trkpt><trkpt lat="43.1259619" lon="12.0574614"><ele>267.0</ele><time>2026-04-04T08:28:22.394Z</time></trkpt><trkpt lat="43.1258827" lon="12.0574115"><ele>267.0</ele><time>2026-04-04T08:28:23.395Z</time></trkpt><trkpt lat="43.125816" lon="12.0573716"><ele>267.0</ele><time>2026-04-04T08:28:24.395Z</time></trkpt><trkpt lat="43.1257191" lon="12.0572962"><ele>267.0</ele><time>2026-04-04T08:28:26.394Z</time></trkpt><trkpt lat="43.1256475" lon="12.0571765"><ele>267.0</ele><time>2026-04-04T08:28:28.394Z</time></trkpt><trkpt lat="43.1256239" lon="12.0570938"><ele>267.0</ele><time>2026-04-04T08:28:29.394Z</time></trkpt><trkpt lat="43.1255996" lon="12.0570046"><ele>267.0</ele><time>2026-04-04T08:28:30.394Z</time></trkpt><trkpt lat="43.1255867" lon="12.056893"><ele>266.1666666666667</ele><time>2026-04-04T08:28:31.394Z</time></trkpt><trkpt lat="43.1255827" lon="12.056782"><ele>265.3333333333333</ele><time>2026-04-04T08:28:32.394Z</time></trkpt><trkpt lat="43.125573" lon="12.0566761"><ele>264.5</ele><time>2026-04-04T08:28:33.394Z</time></trkpt><trkpt lat="43.1255714" lon="12.0565732"><ele>263.66666666666663</ele><time>2026-04-04T08:28:34.394Z</time></trkpt><trkpt lat="43.1255619" lon="12.0564748"><ele>262.8333333333333</ele><time>2026-04-04T08:28:35.394Z</time></trkpt><trkpt lat="43.1255391" lon="12.0562874"><ele>262.0</ele><time>2026-04-04T08:28:37.394Z</time></trkpt><trkpt lat="43.1255024" lon="12.0561394"><ele>262.0</ele><time>2026-04-04T08:28:39.394Z</time></trkpt><trkpt lat="43.1254598" lon="12.0560195"><ele>262.0</ele><time>2026-04-04T08:28:41.395Z</time></trkpt><trkpt lat="43.1253777" lon="12.0559573"><ele>262.0</ele><time>2026-04-04T08:28:43.394Z</time></trkpt><trkpt lat="43.1252566" lon="12.0559789"><ele>262.0</ele><time>2026-04-04T08:28:45.394Z</time></trkpt><trkpt lat="43.1251836" lon="12.0560188"><ele>262.0</ele><time>2026-04-04T08:28:46.394Z</time></trkpt><trkpt lat="43.1250938" lon="12.0560695"><ele>262.0</ele><time>2026-04-04T08:28:47.394Z</time></trkpt><trkpt lat="43.1250086" lon="12.0561259"><ele>262.0</ele><time>2026-04-04T08:28:48.395Z</time></trkpt><trkpt lat="43.1249411" lon="12.0561738"><ele>262.0</ele><time>2026-04-04T08:28:49.395Z</time></trkpt><trkpt lat="43.1248735" lon="12.0562105"><ele>262.0</ele><time>2026-04-04T08:28:50.395Z</time></trkpt><trkpt lat="43.1247871" lon="12.0561624"><ele>262.0</ele><time>2026-04-04T08:28:52.395Z</time></trkpt><trkpt lat="43.124746" lon="12.0560962"><ele>262.0</ele><time>2026-04-04T08:28:53.394Z</time></trkpt><trkpt lat="43.1247143" lon="12.0560057"><ele>261.66666666666663</ele><time>2026-04-04T08:28:54.394Z</time></trkpt><trkpt lat="43.1246875" lon="12.0559003"><ele>261.3333333333333</ele><time>2026-04-04T08:28:55.394Z</time></trkpt><trkpt lat="43.1246631" lon="12.0557826"><ele>261.0</ele><time>2026-04-04T08:28:56.394Z</time></trkpt><trkpt lat="43.1246271" lon="12.0556756"><ele>260.6666666666667</ele><time>2026-04-04T08:28:57.394Z</time></trkpt><trkpt lat="43.1245871" lon="12.0555756"><ele>260.33333333333337</ele><time>2026-04-04T08:28:58.394Z</time></trkpt><trkpt lat="43.1245442" lon="12.0554807"><ele>260.0</ele><time>2026-04-04T08:28:59.394Z</time></trkpt><trkpt lat="43.1244863" lon="12.0553847"><ele>260.0</ele><time>2026-04-04T08:29:00.394Z</time></trkpt><trkpt lat="43.1244303" lon="12.0552808"><ele>260.0</ele><time>2026-04-04T08:29:01.394Z</time></trkpt><trkpt lat="43.1243775" lon="12.0551832"><ele>260.0</ele><time>2026-04-04T08:29:02.395Z</time></trkpt><trkpt lat="43.124324" lon="12.0550878"><ele>260.0</ele><time>2026-04-04T08:29:03.394Z</time></trkpt><trkpt lat="43.1242854" lon="12.0549865"><ele>260.0</ele><time>2026-04-04T08:29:04.394Z</time></trkpt><trkpt lat="43.1242498" lon="12.0548785"><ele>260.0</ele><time>2026-04-04T08:29:05.394Z</time></trkpt><trkpt lat="43.1242248" lon="12.0547643"><ele>260.0</ele><time>2026-04-04T08:29:06.394Z</time></trkpt><trkpt lat="43.1242039" lon="12.0546532"><ele>260.0</ele><time>2026-04-04T08:29:07.394Z</time></trkpt><trkpt lat="43.1241809" lon="12.0545474"><ele>260.0</ele><time>2026-04-04T08:29:08.394Z</time></trkpt><trkpt lat="43.1241577" lon="12.0544362"><ele>260.0</ele><time>2026-04-04T08:29:09.394Z</time></trkpt><trkpt lat="43.1241391" lon="12.0543289"><ele>260.0</ele><time>2026-04-04T08:29:10.394Z</time></trkpt><trkpt lat="43.1241258" lon="12.0542201"><ele>260.0</ele><time>2026-04-04T08:29:11.394Z</time></trkpt><trkpt lat="43.1241095" lon="12.0541016"><ele>260.0</ele><time>2026-04-04T08:29:12.395Z</time></trkpt><trkpt lat="43.1240975" lon="12.0539791"><ele>260.0</ele><time>2026-04-04T08:29:13.394Z</time></trkpt><trkpt lat="43.1240913" lon="12.0538523"><ele>260.0</ele><time>2026-04-04T08:29:14.394Z</time></trkpt><trkpt lat="43.1240853" lon="12.0537196"><ele>260.0</ele><time>2026-04-04T08:29:15.394Z</time></trkpt><trkpt lat="43.124081" lon="12.0535785"><ele>260.0</ele><time>2026-04-04T08:29:16.394Z</time></trkpt><trkpt lat="43.1240803" lon="12.0534418"><ele>260.0</ele><time>2026-04-04T08:29:17.394Z</time></trkpt><trkpt lat="43.1240831" lon="12.0533039"><ele>260.0</ele><time>2026-04-04T08:29:18.395Z</time></trkpt><trkpt lat="43.1240903" lon="12.0531746"><ele>260.0</ele><time>2026-04-04T08:29:19.394Z</time></trkpt><trkpt lat="43.1240953" lon="12.053043"><ele>260.0</ele><time>2026-04-04T08:29:20.396Z</time></trkpt><trkpt lat="43.1240917" lon="12.0529073"><ele>260.0</ele><time>2026-04-04T08:29:21.395Z</time></trkpt><trkpt lat="43.1240835" lon="12.0527671"><ele>259.8</ele><time>2026-04-04T08:29:22.396Z</time></trkpt><trkpt lat="43.1240739" lon="12.0526311"><ele>259.6</ele><time>2026-04-04T08:29:23.395Z</time></trkpt><trkpt lat="43.1240665" lon="12.0524959"><ele>259.4</ele><time>2026-04-04T08:29:24.396Z</time></trkpt><trkpt lat="43.1240608" lon="12.0523609"><ele>259.2</ele><time>2026-04-04T08:29:25.395Z</time></trkpt><trkpt lat="43.124054" lon="12.05223"><ele>259.0</ele><time>2026-04-04T08:29:26.395Z</time></trkpt><trkpt lat="43.1240452" lon="12.052098"><ele>259.0</ele><time>2026-04-04T08:29:27.396Z</time></trkpt><trkpt lat="43.1240368" lon="12.0519694"><ele>259.0</ele><time>2026-04-04T08:29:28.395Z</time></trkpt><trkpt lat="43.1240243" lon="12.0518466"><ele>259.0</ele><time>2026-04-04T08:29:29.395Z</time></trkpt><trkpt lat="43.1240126" lon="12.0517225"><ele>259.0</ele><time>2026-04-04T08:29:30.395Z</time></trkpt><trkpt lat="43.1240043" lon="12.0516063"><ele>259.0</ele><time>2026-04-04T08:29:31.395Z</time></trkpt><trkpt lat="43.1239985" lon="12.0514914"><ele>259.0</ele><time>2026-04-04T08:29:32.396Z</time></trkpt><trkpt lat="43.1239963" lon="12.0513788"><ele>259.0</ele><time>2026-04-04T08:29:33.395Z</time></trkpt><trkpt lat="43.1239917" lon="12.0512713"><ele>259.0</ele><time>2026-04-04T08:29:34.395Z</time></trkpt><trkpt lat="43.1239876" lon="12.0511688"><ele>259.0</ele><time>2026-04-04T08:29:35.395Z</time></trkpt><trkpt lat="43.1239835" lon="12.0510807"><ele>259.0</ele><time>2026-04-04T08:29:36.395Z</time></trkpt><trkpt lat="43.1239743" lon="12.0509913"><ele>259.0</ele><time>2026-04-04T08:29:37.395Z</time></trkpt><trkpt lat="43.1239579" lon="12.0508289"><ele>259.0</ele><time>2026-04-04T08:29:39.395Z</time></trkpt><trkpt lat="43.1239505" lon="12.050684"><ele>259.2</ele><time>2026-04-04T08:29:41.395Z</time></trkpt><trkpt lat="43.1239421" lon="12.0505383"><ele>259.4</ele><time>2026-04-04T08:29:43.395Z</time></trkpt><trkpt lat="43.1239247" lon="12.0503953"><ele>259.6</ele><time>2026-04-04T08:29:45.395Z</time></trkpt><trkpt lat="43.1238941" lon="12.0502804"><ele>259.8</ele><time>2026-04-04T08:29:47.395Z</time></trkpt><trkpt lat="43.1238701" lon="12.0501416"><ele>260.0</ele><time>2026-04-04T08:29:49.395Z</time></trkpt><trkpt lat="43.1238446" lon="12.0500142"><ele>259.8</ele><time>2026-04-04T08:29:51.395Z</time></trkpt><trkpt lat="43.1238169" lon="12.0498909"><ele>259.6</ele><time>2026-04-04T08:29:53.396Z</time></trkpt><trkpt lat="43.1237827" lon="12.0497738"><ele>259.4</ele><time>2026-04-04T08:29:55.396Z</time></trkpt><trkpt lat="43.1237461" lon="12.0496514"><ele>259.2</ele><time>2026-04-04T08:29:57.395Z</time></trkpt><trkpt lat="43.1236928" lon="12.0494933"><ele>259.0</ele><time>2026-04-04T08:29:59.395Z</time></trkpt><trkpt lat="43.1236597" lon="12.0494117"><ele>259.0</ele><time>2026-04-04T08:30:00.395Z</time></trkpt><trkpt lat="43.1235428" lon="12.0491486"><ele>259.0</ele><time>2026-04-04T08:30:03.395Z</time></trkpt><trkpt lat="43.1235032" lon="12.0490545"><ele>259.0</ele><time>2026-04-04T08:30:04.395Z</time></trkpt><trkpt lat="43.123465" lon="12.0489625"><ele>259.0</ele><time>2026-04-04T08:30:05.395Z</time></trkpt><trkpt lat="43.12343" lon="12.0488804"><ele>259.0</ele><time>2026-04-04T08:30:06.395Z</time></trkpt><trkpt lat="43.1233918" lon="12.0487525"><ele>259.0</ele><time>2026-04-04T08:30:08.395Z</time></trkpt><trkpt lat="43.123332" lon="12.0486855"><ele>259.0</ele><time>2026-04-04T08:30:55.396Z</time></trkpt><trkpt lat="43.1232635" lon="12.0485705"><ele>259.0</ele><time>2026-04-04T08:30:57.396Z</time></trkpt><trkpt lat="43.1232284" lon="12.0484797"><ele>259.0</ele><time>2026-04-04T08:30:58.396Z</time></trkpt><trkpt lat="43.1231884" lon="12.0483772"><ele>259.0</ele><time>2026-04-04T08:30:59.396Z</time></trkpt><trkpt lat="43.1231389" lon="12.0482755"><ele>258.8</ele><time>2026-04-04T08:31:00.396Z</time></trkpt><trkpt lat="43.1230887" lon="12.0481655"><ele>258.59999999999997</ele><time>2026-04-04T08:31:01.396Z</time></trkpt><trkpt lat="43.1230347" lon="12.0480501"><ele>258.4</ele><time>2026-04-04T08:31:02.396Z</time></trkpt><trkpt lat="43.1229701" lon="12.0479161"><ele>258.2</ele><time>2026-04-04T08:31:03.396Z</time></trkpt><trkpt lat="43.1229027" lon="12.0477726"><ele>258.0</ele><time>2026-04-04T08:31:04.396Z</time></trkpt><trkpt lat="43.1228165" lon="12.0476151"><ele>258.25</ele><time>2026-04-04T08:31:05.397Z</time></trkpt><trkpt lat="43.1227391" lon="12.0474529"><ele>258.5</ele><time>2026-04-04T08:31:06.396Z</time></trkpt><trkpt lat="43.1226571" lon="12.0472857"><ele>258.75</ele><time>2026-04-04T08:31:07.396Z</time></trkpt><trkpt lat="43.1225776" lon="12.0471269"><ele>259.0</ele><time>2026-04-04T08:31:08.396Z</time></trkpt><trkpt lat="43.1224948" lon="12.0469653"><ele>259.0</ele><time>2026-04-04T08:31:09.396Z</time></trkpt><trkpt lat="43.1224117" lon="12.0468056"><ele>259.0</ele><time>2026-04-04T08:31:10.396Z</time></trkpt><trkpt lat="43.1223216" lon="12.0466404"><ele>259.0</ele><time>2026-04-04T08:31:11.396Z</time></trkpt><trkpt lat="43.1222367" lon="12.0464783"><ele>259.0</ele><time>2026-04-04T08:31:12.396Z</time></trkpt><trkpt lat="43.1221568" lon="12.0463194"><ele>258.5</ele><time>2026-04-04T08:31:13.396Z</time></trkpt><trkpt lat="43.122076" lon="12.0461585"><ele>258.0</ele><time>2026-04-04T08:31:14.396Z</time></trkpt><trkpt lat="43.121997" lon="12.0460049"><ele>257.5</ele><time>2026-04-04T08:31:15.397Z</time></trkpt><trkpt lat="43.1219174" lon="12.0458447"><ele>257.0</ele><time>2026-04-04T08:31:16.396Z</time></trkpt><trkpt lat="43.1218366" lon="12.0456716"><ele>256.6666666666667</ele><time>2026-04-04T08:31:17.396Z</time></trkpt><trkpt lat="43.1217532" lon="12.0454906"><ele>256.3333333333333</ele><time>2026-04-04T08:31:18.396Z</time></trkpt><trkpt lat="43.1216682" lon="12.0453074"><ele>256.0</ele><time>2026-04-04T08:31:19.396Z</time></trkpt><trkpt lat="43.1215743" lon="12.0451283"><ele>256.66666666666663</ele><time>2026-04-04T08:31:20.396Z</time></trkpt><trkpt lat="43.121474" lon="12.0449477"><ele>257.3333333333333</ele><time>2026-04-04T08:31:21.396Z</time></trkpt><trkpt lat="43.1213684" lon="12.0447697"><ele>258.0</ele><time>2026-04-04T08:31:22.396Z</time></trkpt><trkpt lat="43.1212558" lon="12.044597"><ele>258.0</ele><time>2026-04-04T08:31:23.397Z</time></trkpt><trkpt lat="43.1211351" lon="12.0444244"><ele>258.0</ele><time>2026-04-04T08:31:24.398Z</time></trkpt><trkpt lat="43.1210132" lon="12.0442506"><ele>258.0</ele><time>2026-04-04T08:31:25.397Z</time></trkpt><trkpt lat="43.1208979" lon="12.0440823"><ele>258.3333333333333</ele><time>2026-04-04T08:31:26.398Z</time></trkpt><trkpt lat="43.1207837" lon="12.0439115"><ele>258.66666666666663</ele><time>2026-04-04T08:31:27.397Z</time></trkpt><trkpt lat="43.1206743" lon="12.043744"><ele>259.0</ele><time>2026-04-04T08:31:28.397Z</time></trkpt><trkpt lat="43.1205706" lon="12.0435847"><ele>259.0</ele><time>2026-04-04T08:31:29.398Z</time></trkpt><trkpt lat="43.1204673" lon="12.0434288"><ele>259.0</ele><time>2026-04-04T08:31:30.397Z</time></trkpt><trkpt lat="43.1203566" lon="12.0432676"><ele>259.0</ele><time>2026-04-04T08:31:31.397Z</time></trkpt><trkpt lat="43.1202416" lon="12.0431074"><ele>259.0</ele><time>2026-04-04T08:31:32.397Z</time></trkpt><trkpt lat="43.12013" lon="12.0429567"><ele>259.0</ele><time>2026-04-04T08:31:33.397Z</time></trkpt><trkpt lat="43.1200162" lon="12.0427968"><ele>259.0</ele><time>2026-04-04T08:31:34.397Z</time></trkpt><trkpt lat="43.1199036" lon="12.042634"><ele>258.66666666666663</ele><time>2026-04-04T08:31:35.397Z</time></trkpt><trkpt lat="43.1197937" lon="12.0424653"><ele>258.3333333333333</ele><time>2026-04-04T08:31:36.397Z</time></trkpt><trkpt lat="43.1196908" lon="12.0422947"><ele>258.0</ele><time>2026-04-04T08:31:37.397Z</time></trkpt><trkpt lat="43.1196" lon="12.0421128"><ele>258.0</ele><time>2026-04-04T08:31:38.397Z</time></trkpt><trkpt lat="43.1195173" lon="12.041923"><ele>258.0</ele><time>2026-04-04T08:31:39.398Z</time></trkpt><trkpt lat="43.119469" lon="12.0417039"><ele>258.0</ele><time>2026-04-04T08:31:40.398Z</time></trkpt><trkpt lat="43.1194568" lon="12.0414914"><ele>258.3333333333333</ele><time>2026-04-04T08:31:41.397Z</time></trkpt><trkpt lat="43.1194662" lon="12.0412666"><ele>258.66666666666663</ele><time>2026-04-04T08:31:42.397Z</time></trkpt><trkpt lat="43.1194803" lon="12.0410514"><ele>259.0</ele><time>2026-04-04T08:31:43.398Z</time></trkpt><trkpt lat="43.1195039" lon="12.0408233"><ele>259.3333333333333</ele><time>2026-04-04T08:31:44.397Z</time></trkpt><trkpt lat="43.11953" lon="12.040587"><ele>259.6666666666667</ele><time>2026-04-04T08:31:45.398Z</time></trkpt><trkpt lat="43.1195544" lon="12.0403817"><ele>260.0</ele><time>2026-04-04T08:31:46.397Z</time></trkpt><trkpt lat="43.1195842" lon="12.0401933"><ele>260.0</ele><time>2026-04-04T08:31:47.398Z</time></trkpt><trkpt lat="43.1196099" lon="12.0400414"><ele>260.0</ele><time>2026-04-04T08:31:48.397Z</time></trkpt><trkpt lat="43.1196313" lon="12.0399311"><ele>260.0</ele><time>2026-04-04T08:31:49.398Z</time></trkpt><trkpt lat="43.119646" lon="12.0398446"><ele>260.0</ele><time>2026-04-04T08:31:50.397Z</time></trkpt><trkpt lat="43.1196913" lon="12.0397266"><ele>260.0</ele><time>2026-04-04T08:31:52.397Z</time></trkpt><trkpt lat="43.1197702" lon="12.0396152"><ele>260.2</ele><time>2026-04-04T08:31:54.398Z</time></trkpt><trkpt lat="43.1197847" lon="12.0394725"><ele>260.4</ele><time>2026-04-04T08:31:56.397Z</time></trkpt><trkpt lat="43.1197456" lon="12.0394027"><ele>260.6</ele><time>2026-04-04T08:31:57.397Z</time></trkpt><trkpt lat="43.1196241" lon="12.0393276"><ele>260.8</ele><time>2026-04-04T08:31:59.397Z</time></trkpt><trkpt lat="43.1195302" lon="12.0393384"><ele>261.0</ele><time>2026-04-04T08:32:00.397Z</time></trkpt><trkpt lat="43.1194475" lon="12.0393751"><ele>261.0</ele><time>2026-04-04T08:32:01.397Z</time></trkpt><trkpt lat="43.119363" lon="12.0394428"><ele>261.0</ele><time>2026-04-04T08:32:02.397Z</time></trkpt><trkpt lat="43.1192728" lon="12.0394958"><ele>261.0</ele><time>2026-04-04T08:32:03.397Z</time></trkpt><trkpt lat="43.1191845" lon="12.0395335"><ele>261.0</ele><time>2026-04-04T08:32:04.397Z</time></trkpt><trkpt lat="43.1190787" lon="12.0395508"><ele>261.0</ele><time>2026-04-04T08:32:05.398Z</time></trkpt><trkpt lat="43.1188929" lon="12.0395309"><ele>261.0</ele><time>2026-04-04T08:32:06.397Z</time></trkpt><trkpt lat="43.1187587" lon="12.039528"><ele>261.0</ele><time>2026-04-04T08:32:07.398Z</time></trkpt><trkpt lat="43.1186046" lon="12.0395203"><ele>261.0</ele><time>2026-04-04T08:32:08.397Z</time></trkpt><trkpt lat="43.1184418" lon="12.0395199"><ele>261.0</ele><time>2026-04-04T08:32:09.398Z</time></trkpt><trkpt lat="43.1182687" lon="12.0395139"><ele>261.0</ele><time>2026-04-04T08:32:10.397Z</time></trkpt><trkpt lat="43.1181029" lon="12.0395098"><ele>261.0</ele><time>2026-04-04T08:32:11.397Z</time></trkpt><trkpt lat="43.1179372" lon="12.039512"><ele>261.3333333333333</ele><time>2026-04-04T08:32:12.397Z</time></trkpt><trkpt lat="43.1177682" lon="12.0395148"><ele>261.66666666666663</ele><time>2026-04-04T08:32:13.397Z</time></trkpt><trkpt lat="43.1175984" lon="12.0395124"><ele>262.0</ele><time>2026-04-04T08:32:14.397Z</time></trkpt><trkpt lat="43.1174235" lon="12.039508"><ele>262.0</ele><time>2026-04-04T08:32:15.398Z</time></trkpt><trkpt lat="43.1172442" lon="12.0395084"><ele>262.0</ele><time>2026-04-04T08:32:16.397Z</time></trkpt><trkpt lat="43.1170563" lon="12.0395108"><ele>262.0</ele><time>2026-04-04T08:32:17.397Z</time></trkpt><trkpt lat="43.1168684" lon="12.039512"><ele>262.0</ele><time>2026-04-04T08:32:18.397Z</time></trkpt><trkpt lat="43.1166804" lon="12.0395126"><ele>262.0</ele><time>2026-04-04T08:32:19.398Z</time></trkpt><trkpt lat="43.1164957" lon="12.0395122"><ele>262.0</ele><time>2026-04-04T08:32:20.398Z</time></trkpt><trkpt lat="43.116312" lon="12.0395116"><ele>262.0</ele><time>2026-04-04T08:32:21.397Z</time></trkpt><trkpt lat="43.1161274" lon="12.0395099"><ele>262.0</ele><time>2026-04-04T08:32:22.398Z</time></trkpt><trkpt lat="43.1159422" lon="12.0395098"><ele>262.0</ele><time>2026-04-04T08:32:23.397Z</time></trkpt><trkpt lat="43.1157672" lon="12.039509"><ele>261.3333333333333</ele><time>2026-04-04T08:32:24.397Z</time></trkpt><trkpt lat="43.1156031" lon="12.0395123"><ele>260.6666666666667</ele><time>2026-04-04T08:32:25.398Z</time></trkpt><trkpt lat="43.1154478" lon="12.039511"><ele>260.0</ele><time>2026-04-04T08:32:26.398Z</time></trkpt><trkpt lat="43.1152857" lon="12.0395086"><ele>260.0</ele><time>2026-04-04T08:32:27.398Z</time></trkpt><trkpt lat="43.1151258" lon="12.0395083"><ele>260.0</ele><time>2026-04-04T08:32:28.398Z</time></trkpt><trkpt lat="43.1149584" lon="12.0395077"><ele>260.0</ele><time>2026-04-04T08:32:29.398Z</time></trkpt><trkpt lat="43.1147921" lon="12.0395082"><ele>260.33333333333337</ele><time>2026-04-04T08:32:30.398Z</time></trkpt><trkpt lat="43.114627" lon="12.0395051"><ele>260.6666666666667</ele><time>2026-04-04T08:32:31.399Z</time></trkpt><trkpt lat="43.1144574" lon="12.0395062"><ele>261.0</ele><time>2026-04-04T08:32:32.398Z</time></trkpt><trkpt lat="43.1142908" lon="12.0395071"><ele>261.0</ele><time>2026-04-04T08:32:33.399Z</time></trkpt><trkpt lat="43.1141239" lon="12.0395092"><ele>261.0</ele><time>2026-04-04T08:32:34.398Z</time></trkpt><trkpt lat="43.1139684" lon="12.0395108"><ele>261.0</ele><time>2026-04-04T08:32:35.398Z</time></trkpt><trkpt lat="43.11381" lon="12.0395091"><ele>261.6666666666667</ele><time>2026-04-04T08:32:36.399Z</time></trkpt><trkpt lat="43.1136474" lon="12.0395116"><ele>262.33333333333337</ele><time>2026-04-04T08:32:37.398Z</time></trkpt><trkpt lat="43.1134837" lon="12.0395108"><ele>263.0</ele><time>2026-04-04T08:32:38.398Z</time></trkpt><trkpt lat="43.113317" lon="12.0395043"><ele>263.33333333333337</ele><time>2026-04-04T08:32:39.399Z</time></trkpt><trkpt lat="43.1131491" lon="12.0395089"><ele>263.6666666666667</ele><time>2026-04-04T08:32:40.398Z</time></trkpt><trkpt lat="43.1129809" lon="12.0395003"><ele>264.0</ele><time>2026-04-04T08:32:41.398Z</time></trkpt><trkpt lat="43.1128074" lon="12.0395007"><ele>264.0</ele><time>2026-04-04T08:32:42.399Z</time></trkpt><trkpt lat="43.1126345" lon="12.0395062"><ele>264.0</ele><time>2026-04-04T08:32:43.398Z</time></trkpt><trkpt lat="43.1124602" lon="12.0395078"><ele>264.0</ele><time>2026-04-04T08:32:44.398Z</time></trkpt><trkpt lat="43.1122844" lon="12.0395108"><ele>265.0</ele><time>2026-04-04T08:32:45.398Z</time></trkpt><trkpt lat="43.1121051" lon="12.0395115"><ele>266.0</ele><time>2026-04-04T08:32:46.399Z</time></trkpt><trkpt lat="43.1119288" lon="12.0395138"><ele>267.0</ele><time>2026-04-04T08:32:47.398Z</time></trkpt><trkpt lat="43.1117496" lon="12.0395146"><ele>267.0</ele><time>2026-04-04T08:32:48.398Z</time></trkpt><trkpt lat="43.1115904" lon="12.0395175"><ele>267.0</ele><time>2026-04-04T08:32:49.398Z</time></trkpt><trkpt lat="43.1114269" lon="12.0395159"><ele>267.0</ele><time>2026-04-04T08:32:50.399Z</time></trkpt><trkpt lat="43.1112622" lon="12.0395148"><ele>266.6666666666667</ele><time>2026-04-04T08:32:51.398Z</time></trkpt><trkpt lat="43.1110897" lon="12.0395034"><ele>266.33333333333337</ele><time>2026-04-04T08:32:52.398Z</time></trkpt><trkpt lat="43.1109176" lon="12.0395037"><ele>266.0</ele><time>2026-04-04T08:32:53.398Z</time></trkpt><trkpt lat="43.1107469" lon="12.0394967"><ele>266.33333333333337</ele><time>2026-04-04T08:32:54.398Z</time></trkpt><trkpt lat="43.1105837" lon="12.0394985"><ele>266.6666666666667</ele><time>2026-04-04T08:32:55.398Z</time></trkpt><trkpt lat="43.1104115" lon="12.039494"><ele>267.0</ele><time>2026-04-04T08:32:56.398Z</time></trkpt><trkpt lat="43.1102394" lon="12.0394947"><ele>267.0</ele><time>2026-04-04T08:32:57.399Z</time></trkpt><trkpt lat="43.1100638" lon="12.0395074"><ele>267.0</ele><time>2026-04-04T08:32:58.398Z</time></trkpt><trkpt lat="43.1098683" lon="12.039515"><ele>267.0</ele><time>2026-04-04T08:32:59.398Z</time></trkpt><trkpt lat="43.1096525" lon="12.0395225"><ele>267.5</ele><time>2026-04-04T08:33:00.398Z</time></trkpt><trkpt lat="43.1094207" lon="12.0395205"><ele>268.0</ele><time>2026-04-04T08:33:01.398Z</time></trkpt><trkpt lat="43.1091928" lon="12.0395113"><ele>268.3333333333333</ele><time>2026-04-04T08:33:02.398Z</time></trkpt><trkpt lat="43.1089704" lon="12.0395038"><ele>268.6666666666667</ele><time>2026-04-04T08:33:03.399Z</time></trkpt><trkpt lat="43.1087705" lon="12.0394996"><ele>269.0</ele><time>2026-04-04T08:33:04.398Z</time></trkpt><trkpt lat="43.1085808" lon="12.0394942"><ele>269.0</ele><time>2026-04-04T08:33:05.398Z</time></trkpt><trkpt lat="43.1084003" lon="12.039506"><ele>269.0</ele><time>2026-04-04T08:33:06.399Z</time></trkpt><trkpt lat="43.1082233" lon="12.0395408"><ele>269.0</ele><time>2026-04-04T08:33:07.398Z</time></trkpt><trkpt lat="43.1080608" lon="12.0396033"><ele>269.0</ele><time>2026-04-04T08:33:08.399Z</time></trkpt><trkpt lat="43.1078916" lon="12.039694"><ele>269.0</ele><time>2026-04-04T08:33:09.398Z</time></trkpt><trkpt lat="43.1077264" lon="12.0398146"><ele>269.0</ele><time>2026-04-04T08:33:10.399Z</time></trkpt><trkpt lat="43.1075589" lon="12.0399495"><ele>269.0</ele><time>2026-04-04T08:33:11.398Z</time></trkpt><trkpt lat="43.1073907" lon="12.0400841"><ele>269.0</ele><time>2026-04-04T08:33:12.399Z</time></trkpt><trkpt lat="43.1072298" lon="12.040229"><ele>269.0</ele><time>2026-04-04T08:33:13.398Z</time></trkpt><trkpt lat="43.107069" lon="12.0403672"><ele>269.0</ele><time>2026-04-04T08:33:14.398Z</time></trkpt><trkpt lat="43.1069086" lon="12.0405085"><ele>269.0</ele><time>2026-04-04T08:33:15.398Z</time></trkpt><trkpt lat="43.1067362" lon="12.0406381"><ele>269.0</ele><time>2026-04-04T08:33:16.398Z</time></trkpt><trkpt lat="43.1065665" lon="12.0407614"><ele>268.0</ele><time>2026-04-04T08:33:17.398Z</time></trkpt><trkpt lat="43.1064049" lon="12.0408806"><ele>267.0</ele><time>2026-04-04T08:33:18.398Z</time></trkpt><trkpt lat="43.106252" lon="12.0410019"><ele>266.0</ele><time>2026-04-04T08:33:19.398Z</time></trkpt><trkpt lat="43.1061093" lon="12.0411192"><ele>266.0</ele><time>2026-04-04T08:33:20.398Z</time></trkpt><trkpt lat="43.105966" lon="12.0412335"><ele>266.0</ele><time>2026-04-04T08:33:21.398Z</time></trkpt><trkpt lat="43.1058316" lon="12.0413431"><ele>266.0</ele><time>2026-04-04T08:33:22.398Z</time></trkpt><trkpt lat="43.1056921" lon="12.0414587"><ele>267.0</ele><time>2026-04-04T08:33:23.398Z</time></trkpt><trkpt lat="43.1055411" lon="12.0415782"><ele>268.0</ele><time>2026-04-04T08:33:24.398Z</time></trkpt><trkpt lat="43.1053838" lon="12.0416962"><ele>269.0</ele><time>2026-04-04T08:33:25.398Z</time></trkpt><trkpt lat="43.1052332" lon="12.0418212"><ele>269.0</ele><time>2026-04-04T08:33:26.399Z</time></trkpt><trkpt lat="43.1050768" lon="12.0419474"><ele>269.0</ele><time>2026-04-04T08:33:27.398Z</time></trkpt><trkpt lat="43.1049092" lon="12.0420702"><ele>269.0</ele><time>2026-04-04T08:33:28.4Z</time></trkpt><trkpt lat="43.1047384" lon="12.0421995"><ele>268.6666666666667</ele><time>2026-04-04T08:33:29.399Z</time></trkpt><trkpt lat="43.1045682" lon="12.0423326"><ele>268.3333333333333</ele><time>2026-04-04T08:33:30.399Z</time></trkpt><trkpt lat="43.1043999" lon="12.0424739"><ele>268.0</ele><time>2026-04-04T08:33:31.399Z</time></trkpt><trkpt lat="43.1042138" lon="12.0426277"><ele>267.3333333333333</ele><time>2026-04-04T08:33:32.4Z</time></trkpt><trkpt lat="43.1040292" lon="12.0427778"><ele>266.6666666666667</ele><time>2026-04-04T08:33:33.4Z</time></trkpt><trkpt lat="43.1038423" lon="12.0429256"><ele>266.0</ele><time>2026-04-04T08:33:34.399Z</time></trkpt><trkpt lat="43.103657" lon="12.043072"><ele>266.0</ele><time>2026-04-04T08:33:35.4Z</time></trkpt><trkpt lat="43.1034661" lon="12.0432207"><ele>266.0</ele><time>2026-04-04T08:33:36.399Z</time></trkpt><trkpt lat="43.1032811" lon="12.043367"><ele>266.0</ele><time>2026-04-04T08:33:37.399Z</time></trkpt><trkpt lat="43.1030882" lon="12.0435097"><ele>265.6666666666667</ele><time>2026-04-04T08:33:38.4Z</time></trkpt><trkpt lat="43.1029087" lon="12.0436544"><ele>265.3333333333333</ele><time>2026-04-04T08:33:39.399Z</time></trkpt><trkpt lat="43.102741" lon="12.0438001"><ele>265.0</ele><time>2026-04-04T08:33:40.4Z</time></trkpt><trkpt lat="43.102565" lon="12.0439447"><ele>265.0</ele><time>2026-04-04T08:33:41.399Z</time></trkpt><trkpt lat="43.1023874" lon="12.0440888"><ele>265.0</ele><time>2026-04-04T08:33:42.4Z</time></trkpt><trkpt lat="43.1022051" lon="12.0442273"><ele>265.0</ele><time>2026-04-04T08:33:43.399Z</time></trkpt><trkpt lat="43.1020236" lon="12.0443698"><ele>264.66666666666663</ele><time>2026-04-04T08:33:44.399Z</time></trkpt><trkpt lat="43.1018475" lon="12.0445055"><ele>264.3333333333333</ele><time>2026-04-04T08:33:45.399Z</time></trkpt><trkpt lat="43.1016773" lon="12.0446369"><ele>264.0</ele><time>2026-04-04T08:33:46.4Z</time></trkpt><trkpt lat="43.1015124" lon="12.0447669"><ele>264.0</ele><time>2026-04-04T08:33:47.399Z</time></trkpt><trkpt lat="43.1013523" lon="12.0448975"><ele>264.0</ele><time>2026-04-04T08:33:48.399Z</time></trkpt><trkpt lat="43.1011957" lon="12.0450279"><ele>264.0</ele><time>2026-04-04T08:33:49.4Z</time></trkpt><trkpt lat="43.1010468" lon="12.0451544"><ele>264.6666666666667</ele><time>2026-04-04T08:33:50.4Z</time></trkpt><trkpt lat="43.1009041" lon="12.0452729"><ele>265.33333333333337</ele><time>2026-04-04T08:33:51.399Z</time></trkpt><trkpt lat="43.1007726" lon="12.0453898"><ele>266.0</ele><time>2026-04-04T08:33:52.399Z</time></trkpt><trkpt lat="43.100649" lon="12.045502"><ele>266.0</ele><time>2026-04-04T08:33:53.399Z</time></trkpt><trkpt lat="43.1005332" lon="12.0456251"><ele>266.0</ele><time>2026-04-04T08:33:54.399Z</time></trkpt><trkpt lat="43.100426" lon="12.0457511"><ele>266.0</ele><time>2026-04-04T08:33:55.399Z</time></trkpt><trkpt lat="43.1003181" lon="12.0458986"><ele>266.0</ele><time>2026-04-04T08:33:56.4Z</time></trkpt><trkpt lat="43.1001989" lon="12.0460655"><ele>266.33333333333337</ele><time>2026-04-04T08:33:57.399Z</time></trkpt><trkpt lat="43.1000608" lon="12.0462622"><ele>266.6666666666667</ele><time>2026-04-04T08:33:58.399Z</time></trkpt><trkpt lat="43.0999245" lon="12.0464682"><ele>267.0</ele><time>2026-04-04T08:33:59.4Z</time></trkpt><trkpt lat="43.0997966" lon="12.0466814"><ele>266.0</ele><time>2026-04-04T08:34:00.399Z</time></trkpt><trkpt lat="43.0996667" lon="12.0469152"><ele>265.0</ele><time>2026-04-04T08:34:01.399Z</time></trkpt><trkpt lat="43.0995395" lon="12.0471819"><ele>264.0</ele><time>2026-04-04T08:34:02.399Z</time></trkpt><trkpt lat="43.0994109" lon="12.0474598"><ele>264.0</ele><time>2026-04-04T08:34:03.399Z</time></trkpt><trkpt lat="43.0992804" lon="12.047737"><ele>264.0</ele><time>2026-04-04T08:34:04.399Z</time></trkpt><trkpt lat="43.0991476" lon="12.0480121"><ele>265.5</ele><time>2026-04-04T08:34:05.399Z</time></trkpt><trkpt lat="43.0990104" lon="12.0482983"><ele>267.0</ele><time>2026-04-04T08:34:06.399Z</time></trkpt><trkpt lat="43.0988736" lon="12.0485882"><ele>267.0</ele><time>2026-04-04T08:34:07.399Z</time></trkpt><trkpt lat="43.0987357" lon="12.0488716"><ele>267.0</ele><time>2026-04-04T08:34:08.399Z</time></trkpt><trkpt lat="43.0986097" lon="12.0491545"><ele>266.5</ele><time>2026-04-04T08:34:09.399Z</time></trkpt><trkpt lat="43.0984764" lon="12.0494314"><ele>266.0</ele><time>2026-04-04T08:34:10.399Z</time></trkpt><trkpt lat="43.0983408" lon="12.0497197"><ele>265.5</ele><time>2026-04-04T08:34:11.399Z</time></trkpt><trkpt lat="43.0982063" lon="12.0500085"><ele>265.0</ele><time>2026-04-04T08:34:12.399Z</time></trkpt><trkpt lat="43.0980654" lon="12.0502982"><ele>265.0</ele><time>2026-04-04T08:34:13.399Z</time></trkpt><trkpt lat="43.0979224" lon="12.0505861"><ele>265.0</ele><time>2026-04-04T08:34:14.399Z</time></trkpt><trkpt lat="43.0977888" lon="12.0508812"><ele>264.5</ele><time>2026-04-04T08:34:15.399Z</time></trkpt><trkpt lat="43.0976522" lon="12.0511738"><ele>264.0</ele><time>2026-04-04T08:34:16.399Z</time></trkpt><trkpt lat="43.0975048" lon="12.0514696"><ele>264.0</ele><time>2026-04-04T08:34:17.4Z</time></trkpt><trkpt lat="43.0973581" lon="12.0517672"><ele>264.0</ele><time>2026-04-04T08:34:18.399Z</time></trkpt><trkpt lat="43.0972161" lon="12.0520607"><ele>264.0</ele><time>2026-04-04T08:34:19.399Z</time></trkpt><trkpt lat="43.0970758" lon="12.0523537"><ele>264.0</ele><time>2026-04-04T08:34:20.399Z</time></trkpt><trkpt lat="43.0969389" lon="12.0526368"><ele>263.0</ele><time>2026-04-04T08:34:21.4Z</time></trkpt><trkpt lat="43.0968118" lon="12.0529021"><ele>262.0</ele><time>2026-04-04T08:34:22.399Z</time></trkpt><trkpt lat="43.0966875" lon="12.0531591"><ele>261.66666666666663</ele><time>2026-04-04T08:34:23.399Z</time></trkpt><trkpt lat="43.0965677" lon="12.0534118"><ele>261.3333333333333</ele><time>2026-04-04T08:34:24.4Z</time></trkpt><trkpt lat="43.0964402" lon="12.0536618"><ele>261.0</ele><time>2026-04-04T08:34:25.399Z</time></trkpt><trkpt lat="43.0963103" lon="12.0539089"><ele>262.0</ele><time>2026-04-04T08:34:26.399Z</time></trkpt><trkpt lat="43.0961812" lon="12.0541471"><ele>263.0</ele><time>2026-04-04T08:34:27.4Z</time></trkpt><trkpt lat="43.0960535" lon="12.0543781"><ele>264.0</ele><time>2026-04-04T08:34:28.4Z</time></trkpt><trkpt lat="43.0959297" lon="12.0545891"><ele>264.0</ele><time>2026-04-04T08:34:29.4Z</time></trkpt><trkpt lat="43.0958047" lon="12.0547815"><ele>264.0</ele><time>2026-04-04T08:34:30.4Z</time></trkpt><trkpt lat="43.0956765" lon="12.0549686"><ele>264.0</ele><time>2026-04-04T08:34:31.4Z</time></trkpt><trkpt lat="43.0955505" lon="12.0551521"><ele>264.6666666666667</ele><time>2026-04-04T08:34:32.4Z</time></trkpt><trkpt lat="43.0954333" lon="12.0553262"><ele>265.33333333333337</ele><time>2026-04-04T08:34:33.4Z</time></trkpt><trkpt lat="43.0953205" lon="12.055499"><ele>266.0</ele><time>2026-04-04T08:34:34.4Z</time></trkpt><trkpt lat="43.0952168" lon="12.0556465"><ele>266.0</ele><time>2026-04-04T08:34:35.4Z</time></trkpt><trkpt lat="43.095127" lon="12.0557691"><ele>266.0</ele><time>2026-04-04T08:34:36.401Z</time></trkpt><trkpt lat="43.0950369" lon="12.0558702"><ele>266.0</ele><time>2026-04-04T08:34:37.4Z</time></trkpt><trkpt lat="43.0949541" lon="12.0559487"><ele>266.0</ele><time>2026-04-04T08:34:38.4Z</time></trkpt><trkpt lat="43.0948759" lon="12.0560018"><ele>266.0</ele><time>2026-04-04T08:34:39.4Z</time></trkpt><trkpt lat="43.0948119" lon="12.0560383"><ele>265.83333333333337</ele><time>2026-04-04T08:34:40.4Z</time></trkpt><trkpt lat="43.0947288" lon="12.0560319"><ele>265.6666666666667</ele><time>2026-04-04T08:34:41.4Z</time></trkpt><trkpt lat="43.0946389" lon="12.0560019"><ele>265.5</ele><time>2026-04-04T08:34:42.4Z</time></trkpt><trkpt lat="43.0945476" lon="12.0559969"><ele>265.3333333333333</ele><time>2026-04-04T08:34:43.4Z</time></trkpt><trkpt lat="43.0944551" lon="12.0560118"><ele>265.16666666666663</ele><time>2026-04-04T08:34:44.4Z</time></trkpt><trkpt lat="43.0943829" lon="12.0560744"><ele>265.0</ele><time>2026-04-04T08:34:45.4Z</time></trkpt><trkpt lat="43.0943294" lon="12.0561679"><ele>265.0</ele><time>2026-04-04T08:34:46.4Z</time></trkpt><trkpt lat="43.0942866" lon="12.0562737"><ele>265.0</ele><time>2026-04-04T08:34:47.4Z</time></trkpt><trkpt lat="43.0942808" lon="12.0563997"><ele>265.0</ele><time>2026-04-04T08:34:48.4Z</time></trkpt><trkpt lat="43.0943069" lon="12.0565215"><ele>265.0</ele><time>2026-04-04T08:34:49.401Z</time></trkpt><trkpt lat="43.0943636" lon="12.0566282"><ele>265.0</ele><time>2026-04-04T08:34:50.4Z</time></trkpt><trkpt lat="43.094435" lon="12.0567217"><ele>265.4</ele><time>2026-04-04T08:34:51.4Z</time></trkpt><trkpt lat="43.0945221" lon="12.0567829"><ele>265.8</ele><time>2026-04-04T08:34:52.4Z</time></trkpt><trkpt lat="43.0946078" lon="12.0568519"><ele>266.2</ele><time>2026-04-04T08:34:53.4Z</time></trkpt><trkpt lat="43.0946705" lon="12.0569642"><ele>266.6</ele><time>2026-04-04T08:34:54.4Z</time></trkpt><trkpt lat="43.0947066" lon="12.0571061"><ele>267.0</ele><time>2026-04-04T08:34:55.4Z</time></trkpt><trkpt lat="43.0947103" lon="12.0572817"><ele>267.0</ele><time>2026-04-04T08:34:56.4Z</time></trkpt><trkpt lat="43.0946764" lon="12.0574623"><ele>267.0</ele><time>2026-04-04T08:34:57.401Z</time></trkpt><trkpt lat="43.0946249" lon="12.0576429"><ele>267.0</ele><time>2026-04-04T08:34:58.4Z</time></trkpt><trkpt lat="43.0945403" lon="12.0578403"><ele>267.0</ele><time>2026-04-04T08:34:59.4Z</time></trkpt><trkpt lat="43.0944478" lon="12.0580398"><ele>267.0</ele><time>2026-04-04T08:35:00.4Z</time></trkpt><trkpt lat="43.094338" lon="12.058255"><ele>267.0</ele><time>2026-04-04T08:35:01.4Z</time></trkpt><trkpt lat="43.0942167" lon="12.0584756"><ele>267.0</ele><time>2026-04-04T08:35:02.4Z</time></trkpt><trkpt lat="43.0940912" lon="12.0587064"><ele>266.5</ele><time>2026-04-04T08:35:03.4Z</time></trkpt><trkpt lat="43.0939603" lon="12.0589616"><ele>266.0</ele><time>2026-04-04T08:35:04.401Z</time></trkpt><trkpt lat="43.0938448" lon="12.0592388"><ele>266.0</ele><time>2026-04-04T08:35:05.4Z</time></trkpt><trkpt lat="43.0936975" lon="12.0595258"><ele>266.0</ele><time>2026-04-04T08:35:06.4Z</time></trkpt><trkpt lat="43.0935739" lon="12.0597982"><ele>265.5</ele><time>2026-04-04T08:35:07.401Z</time></trkpt><trkpt lat="43.093434" lon="12.0600799"><ele>265.0</ele><time>2026-04-04T08:35:08.401Z</time></trkpt><trkpt lat="43.0932965" lon="12.0603754"><ele>265.5</ele><time>2026-04-04T08:35:09.4Z</time></trkpt><trkpt lat="43.0931487" lon="12.0606857"><ele>266.0</ele><time>2026-04-04T08:35:10.4Z</time></trkpt><trkpt lat="43.0929991" lon="12.0609952"><ele>266.5</ele><time>2026-04-04T08:35:11.401Z</time></trkpt><trkpt lat="43.0928495" lon="12.0613031"><ele>267.0</ele><time>2026-04-04T08:35:12.4Z</time></trkpt><trkpt lat="43.0926973" lon="12.0616158"><ele>267.0</ele><time>2026-04-04T08:35:13.401Z</time></trkpt><trkpt lat="43.0925422" lon="12.061933"><ele>267.0</ele><time>2026-04-04T08:35:14.4Z</time></trkpt><trkpt lat="43.0923977" lon="12.0622568"><ele>268.0</ele><time>2026-04-04T08:35:15.4Z</time></trkpt><trkpt lat="43.0922433" lon="12.0625847"><ele>269.0</ele><time>2026-04-04T08:35:16.401Z</time></trkpt><trkpt lat="43.0920936" lon="12.0629077"><ele>269.0</ele><time>2026-04-04T08:35:17.4Z</time></trkpt><trkpt lat="43.091941" lon="12.0632246"><ele>269.0</ele><time>2026-04-04T08:35:18.401Z</time></trkpt><trkpt lat="43.0917853" lon="12.0635372"><ele>269.5</ele><time>2026-04-04T08:35:19.4Z</time></trkpt><trkpt lat="43.0916331" lon="12.0638423"><ele>270.0</ele><time>2026-04-04T08:35:20.4Z</time></trkpt><trkpt lat="43.0914829" lon="12.0641448"><ele>268.0</ele><time>2026-04-04T08:35:21.4Z</time></trkpt><trkpt lat="43.0913162" lon="12.0644564"><ele>266.0</ele><time>2026-04-04T08:35:22.401Z</time></trkpt><trkpt lat="43.0911658" lon="12.0647678"><ele>265.5</ele><time>2026-04-04T08:35:23.401Z</time></trkpt><trkpt lat="43.0910179" lon="12.06509"><ele>265.0</ele><time>2026-04-04T08:35:24.4Z</time></trkpt><trkpt lat="43.0908679" lon="12.0654167"><ele>265.0</ele><time>2026-04-04T08:35:25.4Z</time></trkpt><trkpt lat="43.0907002" lon="12.065747"><ele>265.0</ele><time>2026-04-04T08:35:26.4Z</time></trkpt><trkpt lat="43.0905273" lon="12.0660774"><ele>265.0</ele><time>2026-04-04T08:35:27.401Z</time></trkpt><trkpt lat="43.0903655" lon="12.0664053"><ele>265.0</ele><time>2026-04-04T08:35:28.401Z</time></trkpt><trkpt lat="43.0902038" lon="12.0667311"><ele>265.0</ele><time>2026-04-04T08:35:29.401Z</time></trkpt><trkpt lat="43.0900544" lon="12.0670602"><ele>265.0</ele><time>2026-04-04T08:35:30.401Z</time></trkpt><trkpt lat="43.089895" lon="12.0673913"><ele>265.5</ele><time>2026-04-04T08:35:31.402Z</time></trkpt><trkpt lat="43.0897359" lon="12.0677228"><ele>266.0</ele><time>2026-04-04T08:35:32.401Z</time></trkpt><trkpt lat="43.0895758" lon="12.0680546"><ele>267.5</ele><time>2026-04-04T08:35:33.401Z</time></trkpt><trkpt lat="43.089421" lon="12.0683836"><ele>269.0</ele><time>2026-04-04T08:35:34.401Z</time></trkpt><trkpt lat="43.0892642" lon="12.0687055"><ele>269.0</ele><time>2026-04-04T08:35:35.401Z</time></trkpt><trkpt lat="43.0891085" lon="12.0690298"><ele>269.0</ele><time>2026-04-04T08:35:36.401Z</time></trkpt><trkpt lat="43.0889527" lon="12.0693496"><ele>269.0</ele><time>2026-04-04T08:35:37.401Z</time></trkpt><trkpt lat="43.0887929" lon="12.0696723"><ele>269.0</ele><time>2026-04-04T08:35:38.401Z</time></trkpt><trkpt lat="43.0886311" lon="12.0699976"><ele>268.0</ele><time>2026-04-04T08:35:39.401Z</time></trkpt><trkpt lat="43.0884685" lon="12.0703221"><ele>267.0</ele><time>2026-04-04T08:35:40.402Z</time></trkpt><trkpt lat="43.0883129" lon="12.0706437"><ele>267.0</ele><time>2026-04-04T08:35:41.401Z</time></trkpt><trkpt lat="43.0881562" lon="12.070972"><ele>267.0</ele><time>2026-04-04T08:35:42.402Z</time></trkpt><trkpt lat="43.0880007" lon="12.0712981"><ele>266.0</ele><time>2026-04-04T08:35:43.402Z</time></trkpt><trkpt lat="43.0878357" lon="12.0716256"><ele>265.0</ele><time>2026-04-04T08:35:44.401Z</time></trkpt><trkpt lat="43.08767" lon="12.0719535"><ele>265.0</ele><time>2026-04-04T08:35:45.401Z</time></trkpt><trkpt lat="43.0875072" lon="12.0722762"><ele>265.0</ele><time>2026-04-04T08:35:46.402Z</time></trkpt><trkpt lat="43.0873506" lon="12.0726013"><ele>264.5</ele><time>2026-04-04T08:35:47.401Z</time></trkpt><trkpt lat="43.0871945" lon="12.0729317"><ele>264.0</ele><time>2026-04-04T08:35:48.401Z</time></trkpt><trkpt lat="43.087036" lon="12.0732586"><ele>263.5</ele><time>2026-04-04T08:35:49.401Z</time></trkpt><trkpt lat="43.0868742" lon="12.0735824"><ele>263.0</ele><time>2026-04-04T08:35:50.401Z</time></trkpt><trkpt lat="43.0867149" lon="12.0739066"><ele>262.5</ele><time>2026-04-04T08:35:51.401Z</time></trkpt><trkpt lat="43.086558" lon="12.0742263"><ele>262.0</ele><time>2026-04-04T08:35:52.401Z</time></trkpt><trkpt lat="43.0863997" lon="12.0745552"><ele>262.0</ele><time>2026-04-04T08:35:53.401Z</time></trkpt><trkpt lat="43.0862393" lon="12.0748806"><ele>262.0</ele><time>2026-04-04T08:35:54.401Z</time></trkpt><trkpt lat="43.0860769" lon="12.0752085"><ele>262.0</ele><time>2026-04-04T08:35:55.401Z</time></trkpt><trkpt lat="43.0859192" lon="12.0755374"><ele>262.0</ele><time>2026-04-04T08:35:56.401Z</time></trkpt><trkpt lat="43.0857601" lon="12.0758667"><ele>262.0</ele><time>2026-04-04T08:35:57.401Z</time></trkpt><trkpt lat="43.0856051" lon="12.0761902"><ele>262.0</ele><time>2026-04-04T08:35:58.402Z</time></trkpt><trkpt lat="43.0854468" lon="12.0765069"><ele>262.0</ele><time>2026-04-04T08:35:59.401Z</time></trkpt><trkpt lat="43.085284" lon="12.0768287"><ele>262.0</ele><time>2026-04-04T08:36:00.401Z</time></trkpt><trkpt lat="43.0851263" lon="12.0771488"><ele>262.0</ele><time>2026-04-04T08:36:01.401Z</time></trkpt><trkpt lat="43.0849619" lon="12.0774687"><ele>262.0</ele><time>2026-04-04T08:36:02.401Z</time></trkpt><trkpt lat="43.0848088" lon="12.0777865"><ele>262.5</ele><time>2026-04-04T08:36:03.402Z</time></trkpt><trkpt lat="43.0846488" lon="12.0781025"><ele>263.0</ele><time>2026-04-04T08:36:04.401Z</time></trkpt><trkpt lat="43.0844922" lon="12.0784204"><ele>262.0</ele><time>2026-04-04T08:36:05.401Z</time></trkpt><trkpt lat="43.0843426" lon="12.078742"><ele>261.0</ele><time>2026-04-04T08:36:06.401Z</time></trkpt><trkpt lat="43.0841923" lon="12.079049"><ele>261.0</ele><time>2026-04-04T08:36:07.401Z</time></trkpt><trkpt lat="43.0840437" lon="12.0793508"><ele>261.0</ele><time>2026-04-04T08:36:08.401Z</time></trkpt><trkpt lat="43.0838949" lon="12.0796501"><ele>261.0</ele><time>2026-04-04T08:36:09.402Z</time></trkpt><trkpt lat="43.0837554" lon="12.0799501"><ele>261.0</ele><time>2026-04-04T08:36:10.401Z</time></trkpt><trkpt lat="43.0836129" lon="12.0802454"><ele>261.0</ele><time>2026-04-04T08:36:11.402Z</time></trkpt><trkpt lat="43.083472" lon="12.0805274"><ele>261.0</ele><time>2026-04-04T08:36:12.402Z</time></trkpt><trkpt lat="43.0833427" lon="12.0808014"><ele>261.3333333333333</ele><time>2026-04-04T08:36:13.401Z</time></trkpt><trkpt lat="43.0832195" lon="12.0810537"><ele>261.66666666666663</ele><time>2026-04-04T08:36:14.401Z</time></trkpt><trkpt lat="43.0831024" lon="12.0812994"><ele>262.0</ele><time>2026-04-04T08:36:15.402Z</time></trkpt><trkpt lat="43.0829742" lon="12.0815533"><ele>263.0</ele><time>2026-04-04T08:36:16.401Z</time></trkpt><trkpt lat="43.0828471" lon="12.0818218"><ele>264.0</ele><time>2026-04-04T08:36:17.401Z</time></trkpt><trkpt lat="43.0827119" lon="12.0820978"><ele>264.0</ele><time>2026-04-04T08:36:18.402Z</time></trkpt><trkpt lat="43.0825769" lon="12.0823749"><ele>264.0</ele><time>2026-04-04T08:36:19.401Z</time></trkpt><trkpt lat="43.0824387" lon="12.082652"><ele>263.0</ele><time>2026-04-04T08:36:20.402Z</time></trkpt><trkpt lat="43.0823032" lon="12.0829292"><ele>262.0</ele><time>2026-04-04T08:36:21.401Z</time></trkpt><trkpt lat="43.0821753" lon="12.0832053"><ele>262.5</ele><time>2026-04-04T08:36:22.401Z</time></trkpt><trkpt lat="43.0820447" lon="12.0834889"><ele>263.0</ele><time>2026-04-04T08:36:23.401Z</time></trkpt><trkpt lat="43.0819168" lon="12.0837686"><ele>263.0</ele><time>2026-04-04T08:36:24.401Z</time></trkpt><trkpt lat="43.0817877" lon="12.0840528"><ele>263.0</ele><time>2026-04-04T08:36:25.401Z</time></trkpt><trkpt lat="43.0816527" lon="12.0843368"><ele>261.0</ele><time>2026-04-04T08:36:26.402Z</time></trkpt><trkpt lat="43.0815178" lon="12.0846208"><ele>259.0</ele><time>2026-04-04T08:36:27.402Z</time></trkpt><trkpt lat="43.0813851" lon="12.0849072"><ele>259.5</ele><time>2026-04-04T08:36:28.403Z</time></trkpt><trkpt lat="43.0812583" lon="12.085188"><ele>260.0</ele><time>2026-04-04T08:36:29.402Z</time></trkpt><trkpt lat="43.0811317" lon="12.0854575"><ele>260.0</ele><time>2026-04-04T08:36:30.402Z</time></trkpt><trkpt lat="43.0810063" lon="12.0857229"><ele>260.0</ele><time>2026-04-04T08:36:31.402Z</time></trkpt><trkpt lat="43.0808842" lon="12.0859866"><ele>259.5</ele><time>2026-04-04T08:36:32.403Z</time></trkpt><trkpt lat="43.080759" lon="12.0862404"><ele>259.0</ele><time>2026-04-04T08:36:33.402Z</time></trkpt><trkpt lat="43.0806208" lon="12.086501"><ele>259.5</ele><time>2026-04-04T08:36:34.402Z</time></trkpt><trkpt lat="43.0804901" lon="12.0867694"><ele>260.0</ele><time>2026-04-04T08:36:35.402Z</time></trkpt><trkpt lat="43.0803599" lon="12.0870381"><ele>260.0</ele><time>2026-04-04T08:36:36.402Z</time></trkpt><trkpt lat="43.0802304" lon="12.0873018"><ele>260.0</ele><time>2026-04-04T08:36:37.403Z</time></trkpt><trkpt lat="43.080112" lon="12.087561"><ele>260.0</ele><time>2026-04-04T08:36:38.402Z</time></trkpt><trkpt lat="43.079997" lon="12.0878029"><ele>260.0</ele><time>2026-04-04T08:36:39.402Z</time></trkpt><trkpt lat="43.0798846" lon="12.0880348"><ele>260.0</ele><time>2026-04-04T08:36:40.403Z</time></trkpt><trkpt lat="43.0797728" lon="12.0882593"><ele>259.33333333333337</ele><time>2026-04-04T08:36:41.402Z</time></trkpt><trkpt lat="43.0796529" lon="12.0884782"><ele>258.6666666666667</ele><time>2026-04-04T08:36:42.403Z</time></trkpt><trkpt lat="43.0795343" lon="12.0886905"><ele>258.0</ele><time>2026-04-04T08:36:43.402Z</time></trkpt><trkpt lat="43.0794214" lon="12.0889"><ele>258.3333333333333</ele><time>2026-04-04T08:36:44.403Z</time></trkpt><trkpt lat="43.0793155" lon="12.0891024"><ele>258.66666666666663</ele><time>2026-04-04T08:36:45.402Z</time></trkpt><trkpt lat="43.0792442" lon="12.0893082"><ele>259.0</ele><time>2026-04-04T08:36:46.402Z</time></trkpt><trkpt lat="43.0791919" lon="12.0895299"><ele>259.0</ele><time>2026-04-04T08:36:47.402Z</time></trkpt><trkpt lat="43.079167" lon="12.0897756"><ele>259.0</ele><time>2026-04-04T08:36:48.402Z</time></trkpt><trkpt lat="43.0791876" lon="12.0900473"><ele>259.0</ele><time>2026-04-04T08:36:49.402Z</time></trkpt><trkpt lat="43.0792063" lon="12.0903294"><ele>259.0</ele><time>2026-04-04T08:36:50.402Z</time></trkpt><trkpt lat="43.0792152" lon="12.0906181"><ele>259.0</ele><time>2026-04-04T08:36:51.402Z</time></trkpt><trkpt lat="43.0792218" lon="12.0909183"><ele>259.0</ele><time>2026-04-04T08:36:52.402Z</time></trkpt><trkpt lat="43.0792241" lon="12.0912242"><ele>259.0</ele><time>2026-04-04T08:36:53.402Z</time></trkpt><trkpt lat="43.0792228" lon="12.0915266"><ele>259.0</ele><time>2026-04-04T08:36:54.402Z</time></trkpt><trkpt lat="43.0792186" lon="12.0918243"><ele>259.0</ele><time>2026-04-04T08:36:55.402Z</time></trkpt><trkpt lat="43.0792141" lon="12.092138"><ele>261.0</ele><time>2026-04-04T08:36:56.402Z</time></trkpt><trkpt lat="43.0792136" lon="12.0924679"><ele>263.0</ele><time>2026-04-04T08:36:57.402Z</time></trkpt><trkpt lat="43.079214" lon="12.0928004"><ele>263.0</ele><time>2026-04-04T08:36:58.402Z</time></trkpt><trkpt lat="43.0792168" lon="12.0931186"><ele>263.0</ele><time>2026-04-04T08:36:59.402Z</time></trkpt><trkpt lat="43.0792189" lon="12.0934389"><ele>263.5</ele><time>2026-04-04T08:37:00.402Z</time></trkpt><trkpt lat="43.0792267" lon="12.0937597"><ele>264.0</ele><time>2026-04-04T08:37:01.402Z</time></trkpt><trkpt lat="43.0792259" lon="12.0940892"><ele>262.0</ele><time>2026-04-04T08:37:02.402Z</time></trkpt><trkpt lat="43.079227" lon="12.0944166"><ele>260.0</ele><time>2026-04-04T08:37:03.403Z</time></trkpt><trkpt lat="43.0792328" lon="12.0947394"><ele>259.5</ele><time>2026-04-04T08:37:04.402Z</time></trkpt><trkpt lat="43.0792317" lon="12.0950568"><ele>259.0</ele><time>2026-04-04T08:37:05.402Z</time></trkpt><trkpt lat="43.0792324" lon="12.0953655"><ele>259.0</ele><time>2026-04-04T08:37:06.402Z</time></trkpt><trkpt lat="43.0792374" lon="12.0956684"><ele>259.0</ele><time>2026-04-04T08:37:07.402Z</time></trkpt><trkpt lat="43.0792382" lon="12.0959675"><ele>259.0</ele><time>2026-04-04T08:37:08.402Z</time></trkpt><trkpt lat="43.0792428" lon="12.0962669"><ele>259.3333333333333</ele><time>2026-04-04T08:37:09.402Z</time></trkpt><trkpt lat="43.0792349" lon="12.0965665"><ele>259.6666666666667</ele><time>2026-04-04T08:37:10.402Z</time></trkpt><trkpt lat="43.0792127" lon="12.09688"><ele>260.0</ele><time>2026-04-04T08:37:11.402Z</time></trkpt><trkpt lat="43.0791708" lon="12.0972027"><ele>260.0</ele><time>2026-04-04T08:37:12.403Z</time></trkpt><trkpt lat="43.0791111" lon="12.0975345"><ele>260.0</ele><time>2026-04-04T08:37:13.402Z</time></trkpt><trkpt lat="43.0790481" lon="12.0978684"><ele>260.0</ele><time>2026-04-04T08:37:14.403Z</time></trkpt><trkpt lat="43.078972" lon="12.0982088"><ele>260.0</ele><time>2026-04-04T08:37:15.402Z</time></trkpt><trkpt lat="43.0788937" lon="12.0985322"><ele>260.5</ele><time>2026-04-04T08:37:16.402Z</time></trkpt><trkpt lat="43.0788118" lon="12.0988585"><ele>261.0</ele><time>2026-04-04T08:37:17.402Z</time></trkpt><trkpt lat="43.0787421" lon="12.099171"><ele>260.3333333333333</ele><time>2026-04-04T08:37:18.402Z</time></trkpt><trkpt lat="43.0786757" lon="12.0994627"><ele>259.66666666666663</ele><time>2026-04-04T08:37:19.403Z</time></trkpt><trkpt lat="43.0785999" lon="12.0997449"><ele>259.0</ele><time>2026-04-04T08:37:20.402Z</time></trkpt><trkpt lat="43.0785339" lon="12.1000349"><ele>258.5</ele><time>2026-04-04T08:37:21.403Z</time></trkpt><trkpt lat="43.0784686" lon="12.1003391"><ele>258.0</ele><time>2026-04-04T08:37:22.402Z</time></trkpt><trkpt lat="43.0783995" lon="12.1006584"><ele>258.5</ele><time>2026-04-04T08:37:23.403Z</time></trkpt><trkpt lat="43.0783332" lon="12.101002"><ele>259.0</ele><time>2026-04-04T08:37:24.404Z</time></trkpt><trkpt lat="43.0782638" lon="12.1013611"><ele>259.0</ele><time>2026-04-04T08:37:25.404Z</time></trkpt><trkpt lat="43.0782008" lon="12.1017201"><ele>259.0</ele><time>2026-04-04T08:37:26.403Z</time></trkpt><trkpt lat="43.0781409" lon="12.1020801"><ele>259.0</ele><time>2026-04-04T08:37:27.403Z</time></trkpt><trkpt lat="43.0780816" lon="12.1024331"><ele>259.0</ele><time>2026-04-04T08:37:28.403Z</time></trkpt><trkpt lat="43.0780229" lon="12.1027776"><ele>259.0</ele><time>2026-04-04T08:37:29.403Z</time></trkpt><trkpt lat="43.0779597" lon="12.1031209"><ele>259.0</ele><time>2026-04-04T08:37:30.403Z</time></trkpt><trkpt lat="43.0778954" lon="12.1034667"><ele>258.5</ele><time>2026-04-04T08:37:31.404Z</time></trkpt><trkpt lat="43.0778338" lon="12.1038087"><ele>258.0</ele><time>2026-04-04T08:37:32.403Z</time></trkpt><trkpt lat="43.0777742" lon="12.1041296"><ele>258.0</ele><time>2026-04-04T08:37:33.404Z</time></trkpt><trkpt lat="43.0777191" lon="12.1044398"><ele>258.0</ele><time>2026-04-04T08:37:34.403Z</time></trkpt><trkpt lat="43.0776653" lon="12.1047234"><ele>258.0</ele><time>2026-04-04T08:37:35.403Z</time></trkpt><trkpt lat="43.077615" lon="12.104995"><ele>258.0</ele><time>2026-04-04T08:37:36.403Z</time></trkpt><trkpt lat="43.0775711" lon="12.1052474"><ele>258.0</ele><time>2026-04-04T08:37:37.404Z</time></trkpt><trkpt lat="43.0775354" lon="12.1054952"><ele>258.0</ele><time>2026-04-04T08:37:38.403Z</time></trkpt><trkpt lat="43.0774926" lon="12.1057276"><ele>258.0</ele><time>2026-04-04T08:37:39.404Z</time></trkpt><trkpt lat="43.0774478" lon="12.1059542"><ele>258.0</ele><time>2026-04-04T08:37:40.403Z</time></trkpt><trkpt lat="43.0773946" lon="12.1061591"><ele>258.0</ele><time>2026-04-04T08:37:41.403Z</time></trkpt><trkpt lat="43.0773176" lon="12.1063427"><ele>258.3333333333333</ele><time>2026-04-04T08:37:42.403Z</time></trkpt><trkpt lat="43.077206" lon="12.1064906"><ele>258.66666666666663</ele><time>2026-04-04T08:37:43.403Z</time></trkpt><trkpt lat="43.0770645" lon="12.1066084"><ele>259.0</ele><time>2026-04-04T08:37:44.404Z</time></trkpt><trkpt lat="43.0769123" lon="12.1066767"><ele>258.75</ele><time>2026-04-04T08:37:45.403Z</time></trkpt><trkpt lat="43.0767731" lon="12.1067223"><ele>258.5</ele><time>2026-04-04T08:37:46.404Z</time></trkpt><trkpt lat="43.0766553" lon="12.1067464"><ele>258.25</ele><time>2026-04-04T08:37:47.404Z</time></trkpt><trkpt lat="43.0765452" lon="12.1067827"><ele>258.0</ele><time>2026-04-04T08:37:48.403Z</time></trkpt><trkpt lat="43.0764366" lon="12.1068119"><ele>258.0</ele><time>2026-04-04T08:37:49.403Z</time></trkpt><trkpt lat="43.0763419" lon="12.1068408"><ele>258.0</ele><time>2026-04-04T08:37:50.403Z</time></trkpt><trkpt lat="43.0762688" lon="12.1068513"><ele>258.0</ele><time>2026-04-04T08:37:51.404Z</time></trkpt><trkpt lat="43.0761968" lon="12.1069545"><ele>258.0</ele><time>2026-04-04T08:37:53.403Z</time></trkpt><trkpt lat="43.0761926" lon="12.1070511"><ele>258.0</ele><time>2026-04-04T08:37:54.403Z</time></trkpt><trkpt lat="43.0762039" lon="12.1071693"><ele>258.0</ele><time>2026-04-04T08:37:55.403Z</time></trkpt><trkpt lat="43.0762576" lon="12.1073263"><ele>258.25</ele><time>2026-04-04T08:37:56.403Z</time></trkpt><trkpt lat="43.0763033" lon="12.1075045"><ele>258.5</ele><time>2026-04-04T08:37:57.403Z</time></trkpt><trkpt lat="43.0763497" lon="12.1077006"><ele>258.75</ele><time>2026-04-04T08:37:58.403Z</time></trkpt><trkpt lat="43.0763926" lon="12.1079071"><ele>259.0</ele><time>2026-04-04T08:37:59.403Z</time></trkpt><trkpt lat="43.0764337" lon="12.1081395"><ele>259.66666666666663</ele><time>2026-04-04T08:38:00.404Z</time></trkpt><trkpt lat="43.0764608" lon="12.1083747"><ele>260.3333333333333</ele><time>2026-04-04T08:38:01.403Z</time></trkpt><trkpt lat="43.0764843" lon="12.1086308"><ele>261.0</ele><time>2026-04-04T08:38:02.404Z</time></trkpt><trkpt lat="43.0765014" lon="12.1088919"><ele>260.3333333333333</ele><time>2026-04-04T08:38:03.403Z</time></trkpt><trkpt lat="43.0764903" lon="12.1091771"><ele>259.66666666666663</ele><time>2026-04-04T08:38:04.403Z</time></trkpt><trkpt lat="43.0764596" lon="12.1094832"><ele>259.0</ele><time>2026-04-04T08:38:05.403Z</time></trkpt><trkpt lat="43.0764242" lon="12.109782"><ele>259.5</ele><time>2026-04-04T08:38:06.403Z</time></trkpt><trkpt lat="43.076393" lon="12.1100935"><ele>260.0</ele><time>2026-04-04T08:38:07.403Z</time></trkpt><trkpt lat="43.0763611" lon="12.1103976"><ele>260.0</ele><time>2026-04-04T08:38:08.403Z</time></trkpt><trkpt lat="43.0763334" lon="12.1107014"><ele>260.0</ele><time>2026-04-04T08:38:09.403Z</time></trkpt><trkpt lat="43.0763032" lon="12.1110045"><ele>260.0</ele><time>2026-04-04T08:38:10.403Z</time></trkpt><trkpt lat="43.0762763" lon="12.1113185"><ele>260.0</ele><time>2026-04-04T08:38:11.403Z</time></trkpt><trkpt lat="43.0762541" lon="12.1116295"><ele>260.0</ele><time>2026-04-04T08:38:12.403Z</time></trkpt><trkpt lat="43.0762318" lon="12.1119462"><ele>260.0</ele><time>2026-04-04T08:38:13.403Z</time></trkpt><trkpt lat="43.0762122" lon="12.1122608"><ele>260.0</ele><time>2026-04-04T08:38:14.403Z</time></trkpt><trkpt lat="43.0761934" lon="12.1125753"><ele>260.0</ele><time>2026-04-04T08:38:15.403Z</time></trkpt><trkpt lat="43.0761795" lon="12.1128859"><ele>260.0</ele><time>2026-04-04T08:38:16.403Z</time></trkpt><trkpt lat="43.0761746" lon="12.1132011"><ele>260.0</ele><time>2026-04-04T08:38:17.403Z</time></trkpt><trkpt lat="43.0761853" lon="12.1135263"><ele>260.0</ele><time>2026-04-04T08:38:18.403Z</time></trkpt><trkpt lat="43.0762365" lon="12.1141902"><ele>260.0</ele><time>2026-04-04T08:38:20.403Z</time></trkpt><trkpt lat="43.076252" lon="12.1145157"><ele>260.0</ele><time>2026-04-04T08:38:21.404Z</time></trkpt><trkpt lat="43.0762663" lon="12.1148365"><ele>260.0</ele><time>2026-04-04T08:38:22.404Z</time></trkpt><trkpt lat="43.0762777" lon="12.1151553"><ele>260.0</ele><time>2026-04-04T08:38:23.405Z</time></trkpt><trkpt lat="43.0762935" lon="12.115479"><ele>260.0</ele><time>2026-04-04T08:38:24.405Z</time></trkpt><trkpt lat="43.0763073" lon="12.1157989"><ele>260.0</ele><time>2026-04-04T08:38:25.404Z</time></trkpt><trkpt lat="43.0763309" lon="12.116123"><ele>260.0</ele><time>2026-04-04T08:38:26.404Z</time></trkpt><trkpt lat="43.0763492" lon="12.1164491"><ele>260.0</ele><time>2026-04-04T08:38:27.405Z</time></trkpt><trkpt lat="43.076364" lon="12.1167742"><ele>259.5</ele><time>2026-04-04T08:38:28.405Z</time></trkpt><trkpt lat="43.0763835" lon="12.1171077"><ele>259.0</ele><time>2026-04-04T08:38:29.404Z</time></trkpt><trkpt lat="43.0764007" lon="12.1174427"><ele>259.0</ele><time>2026-04-04T08:38:30.404Z</time></trkpt><trkpt lat="43.0764158" lon="12.1177865"><ele>259.0</ele><time>2026-04-04T08:38:31.404Z</time></trkpt><trkpt lat="43.0764277" lon="12.1181312"><ele>259.5</ele><time>2026-04-04T08:38:32.404Z</time></trkpt><trkpt lat="43.0764306" lon="12.1184808"><ele>260.0</ele><time>2026-04-04T08:38:33.404Z</time></trkpt><trkpt lat="43.076428" lon="12.1188304"><ele>259.5</ele><time>2026-04-04T08:38:34.404Z</time></trkpt><trkpt lat="43.0764256" lon="12.119181"><ele>259.0</ele><time>2026-04-04T08:38:35.404Z</time></trkpt><trkpt lat="43.0764183" lon="12.1195304"><ele>259.0</ele><time>2026-04-04T08:38:36.405Z</time></trkpt><trkpt lat="43.0764137" lon="12.1198679"><ele>259.0</ele><time>2026-04-04T08:38:37.404Z</time></trkpt><trkpt lat="43.0764106" lon="12.1201968"><ele>259.0</ele><time>2026-04-04T08:38:38.404Z</time></trkpt><trkpt lat="43.0764111" lon="12.1205124"><ele>259.0</ele><time>2026-04-04T08:38:39.405Z</time></trkpt><trkpt lat="43.0764087" lon="12.1208278"><ele>259.0</ele><time>2026-04-04T08:38:40.404Z</time></trkpt><trkpt lat="43.0764057" lon="12.1211295"><ele>259.0</ele><time>2026-04-04T08:38:41.404Z</time></trkpt><trkpt lat="43.0764073" lon="12.1214279"><ele>259.0</ele><time>2026-04-04T08:38:42.404Z</time></trkpt><trkpt lat="43.0764122" lon="12.1217215"><ele>259.0</ele><time>2026-04-04T08:38:43.404Z</time></trkpt><trkpt lat="43.076451" lon="12.1220221"><ele>259.0</ele><time>2026-04-04T08:38:44.404Z</time></trkpt><trkpt lat="43.0765064" lon="12.1223344"><ele>258.5</ele><time>2026-04-04T08:38:45.404Z</time></trkpt><trkpt lat="43.0765736" lon="12.1226543"><ele>258.0</ele><time>2026-04-04T08:38:46.404Z</time></trkpt><trkpt lat="43.0766531" lon="12.1229798"><ele>258.0</ele><time>2026-04-04T08:38:47.404Z</time></trkpt><trkpt lat="43.0767266" lon="12.1233168"><ele>258.0</ele><time>2026-04-04T08:38:48.404Z</time></trkpt><trkpt lat="43.0768026" lon="12.1236632"><ele>258.0</ele><time>2026-04-04T08:38:49.405Z</time></trkpt><trkpt lat="43.0768728" lon="12.1240132"><ele>258.0</ele><time>2026-04-04T08:38:50.404Z</time></trkpt><trkpt lat="43.0769491" lon="12.12437"><ele>258.5</ele><time>2026-04-04T08:38:51.404Z</time></trkpt><trkpt lat="43.0770207" lon="12.1247206"><ele>259.0</ele><time>2026-04-04T08:38:52.404Z</time></trkpt><trkpt lat="43.0770912" lon="12.1250642"><ele>259.0</ele><time>2026-04-04T08:38:53.404Z</time></trkpt><trkpt lat="43.0771647" lon="12.1254046"><ele>259.0</ele><time>2026-04-04T08:38:54.404Z</time></trkpt><trkpt lat="43.0772416" lon="12.1257466"><ele>259.0</ele><time>2026-04-04T08:38:55.404Z</time></trkpt><trkpt lat="43.0773241" lon="12.1261001"><ele>259.0</ele><time>2026-04-04T08:38:56.405Z</time></trkpt><trkpt lat="43.0773995" lon="12.1264466"><ele>258.5</ele><time>2026-04-04T08:38:57.404Z</time></trkpt><trkpt lat="43.0774721" lon="12.1267922"><ele>258.0</ele><time>2026-04-04T08:38:58.404Z</time></trkpt><trkpt lat="43.0775464" lon="12.1271342"><ele>259.0</ele><time>2026-04-04T08:38:59.404Z</time></trkpt><trkpt lat="43.0776201" lon="12.127476"><ele>260.0</ele><time>2026-04-04T08:39:00.404Z</time></trkpt><trkpt lat="43.0776992" lon="12.1278121"><ele>260.0</ele><time>2026-04-04T08:39:01.404Z</time></trkpt><trkpt lat="43.0777799" lon="12.1281414"><ele>260.0</ele><time>2026-04-04T08:39:02.404Z</time></trkpt><trkpt lat="43.077852" lon="12.1284507"><ele>259.5</ele><time>2026-04-04T08:39:03.404Z</time></trkpt><trkpt lat="43.0779149" lon="12.1287549"><ele>259.0</ele><time>2026-04-04T08:39:04.405Z</time></trkpt><trkpt lat="43.0779796" lon="12.1290474"><ele>259.3333333333333</ele><time>2026-04-04T08:39:05.404Z</time></trkpt><trkpt lat="43.0780471" lon="12.1293262"><ele>259.6666666666667</ele><time>2026-04-04T08:39:06.404Z</time></trkpt><trkpt lat="43.0781118" lon="12.1295996"><ele>260.0</ele><time>2026-04-04T08:39:07.404Z</time></trkpt><trkpt lat="43.0781876" lon="12.1298951"><ele>260.5</ele><time>2026-04-04T08:39:08.404Z</time></trkpt><trkpt lat="43.0782651" lon="12.1302166"><ele>261.0</ele><time>2026-04-04T08:39:09.404Z</time></trkpt><trkpt lat="43.0783228" lon="12.1305572"><ele>260.5</ele><time>2026-04-04T08:39:10.404Z</time></trkpt><trkpt lat="43.0783841" lon="12.1309019"><ele>260.0</ele><time>2026-04-04T08:39:11.404Z</time></trkpt><trkpt lat="43.0784593" lon="12.1312379"><ele>260.5</ele><time>2026-04-04T08:39:12.404Z</time></trkpt><trkpt lat="43.0785362" lon="12.1315756"><ele>261.0</ele><time>2026-04-04T08:39:13.404Z</time></trkpt><trkpt lat="43.0786106" lon="12.1318979"><ele>261.0</ele><time>2026-04-04T08:39:14.405Z</time></trkpt><trkpt lat="43.0786835" lon="12.1321975"><ele>261.0</ele><time>2026-04-04T08:39:15.404Z</time></trkpt><trkpt lat="43.0787424" lon="12.1324739"><ele>261.0</ele><time>2026-04-04T08:39:16.404Z</time></trkpt><trkpt lat="43.0788066" lon="12.1327458"><ele>260.6666666666667</ele><time>2026-04-04T08:39:17.405Z</time></trkpt><trkpt lat="43.0788707" lon="12.1330066"><ele>260.33333333333337</ele><time>2026-04-04T08:39:18.405Z</time></trkpt><trkpt lat="43.0789257" lon="12.1332622"><ele>260.0</ele><time>2026-04-04T08:39:19.405Z</time></trkpt><trkpt lat="43.078982" lon="12.1335142"><ele>260.0</ele><time>2026-04-04T08:39:20.405Z</time></trkpt><trkpt lat="43.0790398" lon="12.1337529"><ele>260.0</ele><time>2026-04-04T08:39:21.405Z</time></trkpt><trkpt lat="43.0791031" lon="12.1339815"><ele>260.0</ele><time>2026-04-04T08:39:22.406Z</time></trkpt><trkpt lat="43.0791784" lon="12.1341802"><ele>261.6666666666667</ele><time>2026-04-04T08:39:23.405Z</time></trkpt><trkpt lat="43.0792772" lon="12.134358"><ele>263.3333333333333</ele><time>2026-04-04T08:39:24.405Z</time></trkpt><trkpt lat="43.0794083" lon="12.134502"><ele>265.0</ele><time>2026-04-04T08:39:25.405Z</time></trkpt><trkpt lat="43.0795697" lon="12.1345957"><ele>265.0</ele><time>2026-04-04T08:39:26.405Z</time></trkpt><trkpt lat="43.0797461" lon="12.1346538"><ele>265.0</ele><time>2026-04-04T08:39:27.405Z</time></trkpt><trkpt lat="43.0799407" lon="12.1346837"><ele>265.0</ele><time>2026-04-04T08:39:28.405Z</time></trkpt><trkpt lat="43.0801521" lon="12.1347073"><ele>264.0</ele><time>2026-04-04T08:39:29.405Z</time></trkpt><trkpt lat="43.0803621" lon="12.1347224"><ele>263.0</ele><time>2026-04-04T08:39:30.406Z</time></trkpt><trkpt lat="43.080554" lon="12.1347374"><ele>262.0</ele><time>2026-04-04T08:39:31.405Z</time></trkpt><trkpt lat="43.080735" lon="12.1347688"><ele>262.3333333333333</ele><time>2026-04-04T08:39:32.405Z</time></trkpt><trkpt lat="43.0809016" lon="12.1348233"><ele>262.6666666666667</ele><time>2026-04-04T08:39:33.405Z</time></trkpt><trkpt lat="43.0810613" lon="12.1348996"><ele>263.0</ele><time>2026-04-04T08:39:34.405Z</time></trkpt><trkpt lat="43.081202" lon="12.1349948"><ele>267.6666666666667</ele><time>2026-04-04T08:39:35.405Z</time></trkpt><trkpt lat="43.0813405" lon="12.1351142"><ele>272.3333333333333</ele><time>2026-04-04T08:39:36.405Z</time></trkpt><trkpt lat="43.0814651" lon="12.1352553"><ele>277.0</ele><time>2026-04-04T08:39:37.405Z</time></trkpt><trkpt lat="43.0815689" lon="12.1354286"><ele>277.0</ele><time>2026-04-04T08:39:38.405Z</time></trkpt><trkpt lat="43.0816315" lon="12.1356437"><ele>277.0</ele><time>2026-04-04T08:39:39.406Z</time></trkpt><trkpt lat="43.0816552" lon="12.1358699"><ele>277.0</ele><time>2026-04-04T08:39:40.405Z</time></trkpt><trkpt lat="43.0816394" lon="12.1360924"><ele>282.0</ele><time>2026-04-04T08:39:41.405Z</time></trkpt><trkpt lat="43.0815719" lon="12.1362891"><ele>287.0</ele><time>2026-04-04T08:39:42.405Z</time></trkpt><trkpt lat="43.0814692" lon="12.1364917"><ele>292.0</ele><time>2026-04-04T08:39:43.406Z</time></trkpt><trkpt lat="43.0813629" lon="12.1367076"><ele>293.0</ele><time>2026-04-04T08:39:44.405Z</time></trkpt><trkpt lat="43.081245" lon="12.1369128"><ele>294.0</ele><time>2026-04-04T08:39:45.405Z</time></trkpt><trkpt lat="43.0811465" lon="12.1371156"><ele>295.0</ele><time>2026-04-04T08:39:46.405Z</time></trkpt><trkpt lat="43.0810441" lon="12.1373008"><ele>297.66666666666663</ele><time>2026-04-04T08:39:47.406Z</time></trkpt><trkpt lat="43.0809494" lon="12.137482"><ele>300.3333333333333</ele><time>2026-04-04T08:39:48.405Z</time></trkpt><trkpt lat="43.0808502" lon="12.1376474"><ele>303.0</ele><time>2026-04-04T08:39:49.405Z</time></trkpt><trkpt lat="43.0807596" lon="12.1377904"><ele>303.0</ele><time>2026-04-04T08:39:50.405Z</time></trkpt><trkpt lat="43.0806758" lon="12.1379202"><ele>303.0</ele><time>2026-04-04T08:39:51.405Z</time></trkpt><trkpt lat="43.0806045" lon="12.1380344"><ele>303.0</ele><time>2026-04-04T08:39:52.405Z</time></trkpt><trkpt lat="43.0805354" lon="12.1381498"><ele>303.0</ele><time>2026-04-04T08:39:53.405Z</time></trkpt><trkpt lat="43.0804682" lon="12.138261"><ele>299.75</ele><time>2026-04-04T08:39:54.405Z</time></trkpt><trkpt lat="43.0804041" lon="12.1383734"><ele>296.5</ele><time>2026-04-04T08:39:55.405Z</time></trkpt><trkpt lat="43.0803322" lon="12.138488"><ele>293.25</ele><time>2026-04-04T08:39:56.405Z</time></trkpt><trkpt lat="43.0802621" lon="12.1386182"><ele>290.0</ele><time>2026-04-04T08:39:57.405Z</time></trkpt><trkpt lat="43.0801946" lon="12.1387501"><ele>290.0</ele><time>2026-04-04T08:39:58.406Z</time></trkpt><trkpt lat="43.0801206" lon="12.1389492"><ele>290.0</ele><time>2026-04-04T08:39:59.405Z</time></trkpt><trkpt lat="43.0800478" lon="12.1391734"><ele>290.0</ele><time>2026-04-04T08:40:00.405Z</time></trkpt><trkpt lat="43.0799726" lon="12.1394304"><ele>288.0</ele><time>2026-04-04T08:40:01.405Z</time></trkpt><trkpt lat="43.079917" lon="12.1396888"><ele>286.0</ele><time>2026-04-04T08:40:02.405Z</time></trkpt><trkpt lat="43.0798933" lon="12.1399377"><ele>284.0</ele><time>2026-04-04T08:40:03.405Z</time></trkpt><trkpt lat="43.0798887" lon="12.1402001"><ele>284.0</ele><time>2026-04-04T08:40:04.405Z</time></trkpt><trkpt lat="43.0799124" lon="12.1404539"><ele>284.0</ele><time>2026-04-04T08:40:05.405Z</time></trkpt><trkpt lat="43.0799774" lon="12.1407192"><ele>284.0</ele><time>2026-04-04T08:40:06.405Z</time></trkpt><trkpt lat="43.0800659" lon="12.1409748"><ele>278.6666666666667</ele><time>2026-04-04T08:40:07.406Z</time></trkpt><trkpt lat="43.0801773" lon="12.1412018"><ele>273.3333333333333</ele><time>2026-04-04T08:40:08.405Z</time></trkpt><trkpt lat="43.0803035" lon="12.14141"><ele>268.0</ele><time>2026-04-04T08:40:09.405Z</time></trkpt><trkpt lat="43.0804416" lon="12.1416056"><ele>267.0</ele><time>2026-04-04T08:40:10.406Z</time></trkpt><trkpt lat="43.0806019" lon="12.1417969"><ele>266.0</ele><time>2026-04-04T08:40:11.407Z</time></trkpt><trkpt lat="43.0807638" lon="12.1419666"><ele>265.0</ele><time>2026-04-04T08:40:12.405Z</time></trkpt><trkpt lat="43.0809011" lon="12.1421729"><ele>263.66666666666663</ele><time>2026-04-04T08:40:13.405Z</time></trkpt><trkpt lat="43.0810117" lon="12.1423842"><ele>262.3333333333333</ele><time>2026-04-04T08:40:14.406Z</time></trkpt><trkpt lat="43.0811053" lon="12.1426274"><ele>261.0</ele><time>2026-04-04T08:40:15.406Z</time></trkpt><trkpt lat="43.0811661" lon="12.1428822"><ele>261.0</ele><time>2026-04-04T08:40:16.407Z</time></trkpt><trkpt lat="43.0812112" lon="12.1431487"><ele>261.0</ele><time>2026-04-04T08:40:17.407Z</time></trkpt><trkpt lat="43.0812544" lon="12.1434046"><ele>261.0</ele><time>2026-04-04T08:40:18.406Z</time></trkpt><trkpt lat="43.0813103" lon="12.1436623"><ele>261.0</ele><time>2026-04-04T08:40:19.406Z</time></trkpt><trkpt lat="43.0813714" lon="12.1439175"><ele>261.0</ele><time>2026-04-04T08:40:20.406Z</time></trkpt><trkpt lat="43.0814286" lon="12.1441669"><ele>261.0</ele><time>2026-04-04T08:40:21.406Z</time></trkpt><trkpt lat="43.0814835" lon="12.1444194"><ele>261.3333333333333</ele><time>2026-04-04T08:40:22.407Z</time></trkpt><trkpt lat="43.0815396" lon="12.1446733"><ele>261.66666666666663</ele><time>2026-04-04T08:40:23.406Z</time></trkpt><trkpt lat="43.0816005" lon="12.1449277"><ele>262.0</ele><time>2026-04-04T08:40:24.406Z</time></trkpt><trkpt lat="43.0816605" lon="12.1451864"><ele>261.66666666666663</ele><time>2026-04-04T08:40:25.406Z</time></trkpt><trkpt lat="43.0817181" lon="12.1454303"><ele>261.3333333333333</ele><time>2026-04-04T08:40:26.406Z</time></trkpt><trkpt lat="43.0817703" lon="12.1456646"><ele>261.0</ele><time>2026-04-04T08:40:27.407Z</time></trkpt><trkpt lat="43.0818029" lon="12.1458897"><ele>261.0</ele><time>2026-04-04T08:40:28.406Z</time></trkpt><trkpt lat="43.0818557" lon="12.1461137"><ele>261.0</ele><time>2026-04-04T08:40:29.406Z</time></trkpt><trkpt lat="43.0818975" lon="12.1463322"><ele>261.0</ele><time>2026-04-04T08:40:30.406Z</time></trkpt><trkpt lat="43.0819426" lon="12.1465466"><ele>261.6666666666667</ele><time>2026-04-04T08:40:31.406Z</time></trkpt><trkpt lat="43.0819853" lon="12.1467607"><ele>262.33333333333337</ele><time>2026-04-04T08:40:32.406Z</time></trkpt><trkpt lat="43.0820269" lon="12.1469817"><ele>263.0</ele><time>2026-04-04T08:40:33.407Z</time></trkpt><trkpt lat="43.0820456" lon="12.1471943"><ele>263.0</ele><time>2026-04-04T08:40:34.407Z</time></trkpt><trkpt lat="43.0820496" lon="12.1474184"><ele>263.0</ele><time>2026-04-04T08:40:35.406Z</time></trkpt><trkpt lat="43.0820444" lon="12.1476426"><ele>263.0</ele><time>2026-04-04T08:40:36.407Z</time></trkpt><trkpt lat="43.0820242" lon="12.1478654"><ele>263.0</ele><time>2026-04-04T08:40:37.406Z</time></trkpt><trkpt lat="43.0820065" lon="12.1480911"><ele>263.0</ele><time>2026-04-04T08:40:38.406Z</time></trkpt><trkpt lat="43.0819913" lon="12.1483117"><ele>263.0</ele><time>2026-04-04T08:40:39.407Z</time></trkpt><trkpt lat="43.0819782" lon="12.1485309"><ele>263.6666666666667</ele><time>2026-04-04T08:40:40.406Z</time></trkpt><trkpt lat="43.0819679" lon="12.1487468"><ele>264.3333333333333</ele><time>2026-04-04T08:40:41.406Z</time></trkpt><trkpt lat="43.0819519" lon="12.1489637"><ele>265.0</ele><time>2026-04-04T08:40:42.406Z</time></trkpt><trkpt lat="43.0819359" lon="12.1491712"><ele>265.0</ele><time>2026-04-04T08:40:43.406Z</time></trkpt><trkpt lat="43.0819203" lon="12.1493845"><ele>265.0</ele><time>2026-04-04T08:40:44.406Z</time></trkpt><trkpt lat="43.0819073" lon="12.1496017"><ele>265.0</ele><time>2026-04-04T08:40:45.406Z</time></trkpt><trkpt lat="43.0818978" lon="12.1498179"><ele>265.0</ele><time>2026-04-04T08:40:46.406Z</time></trkpt><trkpt lat="43.0818782" lon="12.1500307"><ele>265.0</ele><time>2026-04-04T08:40:47.406Z</time></trkpt><trkpt lat="43.0818586" lon="12.1504678"><ele>265.0</ele><time>2026-04-04T08:40:49.406Z</time></trkpt><trkpt lat="43.0818432" lon="12.150689"><ele>265.0</ele><time>2026-04-04T08:40:50.406Z</time></trkpt><trkpt lat="43.0818242" lon="12.1509128"><ele>265.0</ele><time>2026-04-04T08:40:51.406Z</time></trkpt><trkpt lat="43.0818052" lon="12.151138"><ele>265.0</ele><time>2026-04-04T08:40:52.407Z</time></trkpt><trkpt lat="43.0817908" lon="12.1513609"><ele>265.0</ele><time>2026-04-04T08:40:53.406Z</time></trkpt><trkpt lat="43.0817811" lon="12.1515762"><ele>265.0</ele><time>2026-04-04T08:40:54.406Z</time></trkpt><trkpt lat="43.0817728" lon="12.1517896"><ele>265.0</ele><time>2026-04-04T08:40:55.406Z</time></trkpt><trkpt lat="43.0817578" lon="12.1519781"><ele>265.0</ele><time>2026-04-04T08:40:56.406Z</time></trkpt><trkpt lat="43.0817419" lon="12.1521608"><ele>265.0</ele><time>2026-04-04T08:40:57.406Z</time></trkpt><trkpt lat="43.0817385" lon="12.152325"><ele>265.0</ele><time>2026-04-04T08:40:58.406Z</time></trkpt><trkpt lat="43.0817327" lon="12.1524919"><ele>265.5</ele><time>2026-04-04T08:40:59.406Z</time></trkpt><trkpt lat="43.0817277" lon="12.1526647"><ele>266.0</ele><time>2026-04-04T08:41:00.407Z</time></trkpt><trkpt lat="43.0817411" lon="12.1528462"><ele>266.5</ele><time>2026-04-04T08:41:01.406Z</time></trkpt><trkpt lat="43.0817549" lon="12.1530251"><ele>267.0</ele><time>2026-04-04T08:41:02.406Z</time></trkpt><trkpt lat="43.0817753" lon="12.1532227"><ele>267.25</ele><time>2026-04-04T08:41:03.406Z</time></trkpt><trkpt lat="43.0818094" lon="12.1534103"><ele>267.5</ele><time>2026-04-04T08:41:04.406Z</time></trkpt><trkpt lat="43.0818521" lon="12.1535974"><ele>267.75</ele><time>2026-04-04T08:41:05.406Z</time></trkpt><trkpt lat="43.0819109" lon="12.1537798"><ele>268.0</ele><time>2026-04-04T08:41:06.406Z</time></trkpt><trkpt lat="43.0819658" lon="12.1539616"><ele>268.5</ele><time>2026-04-04T08:41:07.407Z</time></trkpt><trkpt lat="43.0820277" lon="12.1541429"><ele>269.0</ele><time>2026-04-04T08:41:08.407Z</time></trkpt><trkpt lat="43.0820872" lon="12.1543213"><ele>269.5</ele><time>2026-04-04T08:41:09.406Z</time></trkpt><trkpt lat="43.0821409" lon="12.1545014"><ele>270.0</ele><time>2026-04-04T08:41:10.407Z</time></trkpt><trkpt lat="43.0821993" lon="12.1546912"><ele>270.0</ele><time>2026-04-04T08:41:11.407Z</time></trkpt><trkpt lat="43.0822605" lon="12.1548889"><ele>270.0</ele><time>2026-04-04T08:41:12.407Z</time></trkpt><trkpt lat="43.0823167" lon="12.1550801"><ele>270.0</ele><time>2026-04-04T08:41:13.407Z</time></trkpt><trkpt lat="43.0823733" lon="12.1552722"><ele>270.0</ele><time>2026-04-04T08:41:14.407Z</time></trkpt><trkpt lat="43.082423" lon="12.1554676"><ele>270.0</ele><time>2026-04-04T08:41:15.407Z</time></trkpt><trkpt lat="43.0824864" lon="12.1556621"><ele>270.0</ele><time>2026-04-04T08:41:16.407Z</time></trkpt><trkpt lat="43.0825442" lon="12.1558538"><ele>269.3333333333333</ele><time>2026-04-04T08:41:17.407Z</time></trkpt><trkpt lat="43.0826012" lon="12.1560561"><ele>268.66666666666663</ele><time>2026-04-04T08:41:18.407Z</time></trkpt><trkpt lat="43.0826671" lon="12.1562624"><ele>268.0</ele><time>2026-04-04T08:41:19.407Z</time></trkpt><trkpt lat="43.0827245" lon="12.1564571"><ele>268.3333333333333</ele><time>2026-04-04T08:41:20.408Z</time></trkpt><trkpt lat="43.0827765" lon="12.1566449"><ele>268.6666666666667</ele><time>2026-04-04T08:41:21.407Z</time></trkpt><trkpt lat="43.0828355" lon="12.1568439"><ele>269.0</ele><time>2026-04-04T08:41:22.408Z</time></trkpt><trkpt lat="43.0828893" lon="12.1570327"><ele>269.0</ele><time>2026-04-04T08:41:23.407Z</time></trkpt><trkpt lat="43.082947" lon="12.1572155"><ele>269.0</ele><time>2026-04-04T08:41:24.407Z</time></trkpt><trkpt lat="43.0830043" lon="12.1573952"><ele>269.0</ele><time>2026-04-04T08:41:25.408Z</time></trkpt><trkpt lat="43.0830551" lon="12.1575642"><ele>269.0</ele><time>2026-04-04T08:41:26.408Z</time></trkpt><trkpt lat="43.0831048" lon="12.1577292"><ele>269.5</ele><time>2026-04-04T08:41:27.408Z</time></trkpt><trkpt lat="43.0831506" lon="12.1578983"><ele>270.0</ele><time>2026-04-04T08:41:28.407Z</time></trkpt><trkpt lat="43.0831933" lon="12.158064"><ele>270.5</ele><time>2026-04-04T08:41:29.408Z</time></trkpt><trkpt lat="43.0832373" lon="12.1582291"><ele>271.0</ele><time>2026-04-04T08:41:30.407Z</time></trkpt><trkpt lat="43.0832881" lon="12.1583943"><ele>271.0</ele><time>2026-04-04T08:41:31.407Z</time></trkpt><trkpt lat="43.0833484" lon="12.1585595"><ele>271.0</ele><time>2026-04-04T08:41:32.407Z</time></trkpt><trkpt lat="43.083419" lon="12.1587094"><ele>271.0</ele><time>2026-04-04T08:41:33.407Z</time></trkpt><trkpt lat="43.0835057" lon="12.1588512"><ele>271.0</ele><time>2026-04-04T08:41:34.407Z</time></trkpt><trkpt lat="43.0836055" lon="12.158975"><ele>271.5</ele><time>2026-04-04T08:41:35.408Z</time></trkpt><trkpt lat="43.0837125" lon="12.1590865"><ele>272.0</ele><time>2026-04-04T08:41:36.407Z</time></trkpt><trkpt lat="43.083819" lon="12.1591865"><ele>272.5</ele><time>2026-04-04T08:41:37.407Z</time></trkpt><trkpt lat="43.0839262" lon="12.1592978"><ele>273.0</ele><time>2026-04-04T08:41:38.408Z</time></trkpt><trkpt lat="43.0840268" lon="12.1594091"><ele>272.75</ele><time>2026-04-04T08:41:39.407Z</time></trkpt><trkpt lat="43.0841194" lon="12.1595167"><ele>272.5</ele><time>2026-04-04T08:41:40.407Z</time></trkpt><trkpt lat="43.0842116" lon="12.1596265"><ele>272.25</ele><time>2026-04-04T08:41:41.407Z</time></trkpt><trkpt lat="43.0843072" lon="12.1597357"><ele>272.0</ele><time>2026-04-04T08:41:42.407Z</time></trkpt><trkpt lat="43.0844022" lon="12.1598509"><ele>272.5</ele><time>2026-04-04T08:41:43.407Z</time></trkpt><trkpt lat="43.0844959" lon="12.1599652"><ele>273.0</ele><time>2026-04-04T08:41:44.407Z</time></trkpt><trkpt lat="43.0845933" lon="12.1600799"><ele>273.5</ele><time>2026-04-04T08:41:45.407Z</time></trkpt><trkpt lat="43.0846936" lon="12.1601933"><ele>274.0</ele><time>2026-04-04T08:41:46.407Z</time></trkpt><trkpt lat="43.0847965" lon="12.1603009"><ele>274.0</ele><time>2026-04-04T08:41:47.407Z</time></trkpt><trkpt lat="43.084902" lon="12.1603899"><ele>274.0</ele><time>2026-04-04T08:41:48.407Z</time></trkpt><trkpt lat="43.0850232" lon="12.1604662"><ele>274.0</ele><time>2026-04-04T08:41:49.407Z</time></trkpt><trkpt lat="43.0851451" lon="12.1605016"><ele>274.0</ele><time>2026-04-04T08:41:50.408Z</time></trkpt><trkpt lat="43.0853003" lon="12.160502"><ele>272.3333333333333</ele><time>2026-04-04T08:41:51.407Z</time></trkpt><trkpt lat="43.0854609" lon="12.160496"><ele>270.6666666666667</ele><time>2026-04-04T08:41:52.407Z</time></trkpt><trkpt lat="43.0856115" lon="12.1604916"><ele>269.0</ele><time>2026-04-04T08:41:53.407Z</time></trkpt><trkpt lat="43.0857796" lon="12.1604691"><ele>268.6666666666667</ele><time>2026-04-04T08:41:54.407Z</time></trkpt><trkpt lat="43.0859347" lon="12.1604384"><ele>268.3333333333333</ele><time>2026-04-04T08:41:55.407Z</time></trkpt><trkpt lat="43.0860786" lon="12.1604062"><ele>268.0</ele><time>2026-04-04T08:41:56.408Z</time></trkpt><trkpt lat="43.0862248" lon="12.1603755"><ele>268.0</ele><time>2026-04-04T08:41:57.407Z</time></trkpt><trkpt lat="43.0863634" lon="12.1603409"><ele>268.0</ele><time>2026-04-04T08:41:58.407Z</time></trkpt><trkpt lat="43.0865049" lon="12.1603139"><ele>268.0</ele><time>2026-04-04T08:41:59.407Z</time></trkpt><trkpt lat="43.086651" lon="12.1602926"><ele>268.0</ele><time>2026-04-04T08:42:00.407Z</time></trkpt><trkpt lat="43.0867994" lon="12.1602998"><ele>267.3333333333333</ele><time>2026-04-04T08:42:01.407Z</time></trkpt><trkpt lat="43.0869534" lon="12.1603555"><ele>266.6666666666667</ele><time>2026-04-04T08:42:02.407Z</time></trkpt><trkpt lat="43.0871529" lon="12.1604919"><ele>266.0</ele><time>2026-04-04T08:42:04.408Z</time></trkpt><trkpt lat="43.0873222" lon="12.1606523"><ele>266.5</ele><time>2026-04-04T08:42:05.407Z</time></trkpt><trkpt lat="43.0875017" lon="12.160855"><ele>267.0</ele><time>2026-04-04T08:42:06.407Z</time></trkpt><trkpt lat="43.0876841" lon="12.161057"><ele>267.0</ele><time>2026-04-04T08:42:07.408Z</time></trkpt><trkpt lat="43.0878696" lon="12.1612652"><ele>267.0</ele><time>2026-04-04T08:42:08.408Z</time></trkpt><trkpt lat="43.0880521" lon="12.1614681"><ele>269.0</ele><time>2026-04-04T08:42:09.408Z</time></trkpt><trkpt lat="43.0882387" lon="12.1616639"><ele>271.0</ele><time>2026-04-04T08:42:10.409Z</time></trkpt><trkpt lat="43.0884311" lon="12.1618568"><ele>271.0</ele><time>2026-04-04T08:42:11.408Z</time></trkpt><trkpt lat="43.0886226" lon="12.1620422"><ele>271.0</ele><time>2026-04-04T08:42:12.408Z</time></trkpt><trkpt lat="43.0888076" lon="12.1622227"><ele>270.0</ele><time>2026-04-04T08:42:13.409Z</time></trkpt><trkpt lat="43.0889904" lon="12.1624045"><ele>269.0</ele><time>2026-04-04T08:42:14.408Z</time></trkpt><trkpt lat="43.0891676" lon="12.1625785"><ele>268.0</ele><time>2026-04-04T08:42:15.408Z</time></trkpt><trkpt lat="43.089329" lon="12.1627337"><ele>268.0</ele><time>2026-04-04T08:42:16.409Z</time></trkpt><trkpt lat="43.0894822" lon="12.1628791"><ele>268.0</ele><time>2026-04-04T08:42:17.408Z</time></trkpt><trkpt lat="43.0896132" lon="12.1630067"><ele>268.0</ele><time>2026-04-04T08:42:18.408Z</time></trkpt><trkpt lat="43.0897496" lon="12.1631426"><ele>268.3333333333333</ele><time>2026-04-04T08:42:19.408Z</time></trkpt><trkpt lat="43.0898882" lon="12.1632777"><ele>268.6666666666667</ele><time>2026-04-04T08:42:20.409Z</time></trkpt><trkpt lat="43.090016" lon="12.1634052"><ele>269.0</ele><time>2026-04-04T08:42:21.408Z</time></trkpt><trkpt lat="43.0901359" lon="12.1635562"><ele>269.0</ele><time>2026-04-04T08:42:22.408Z</time></trkpt><trkpt lat="43.0902154" lon="12.1637255"><ele>269.0</ele><time>2026-04-04T08:42:23.408Z</time></trkpt><trkpt lat="43.0902779" lon="12.1639353"><ele>269.0</ele><time>2026-04-04T08:42:24.408Z</time></trkpt><trkpt lat="43.0903499" lon="12.1641786"><ele>274.0</ele><time>2026-04-04T08:42:25.408Z</time></trkpt><trkpt lat="43.0904228" lon="12.1644331"><ele>279.0</ele><time>2026-04-04T08:42:26.408Z</time></trkpt><trkpt lat="43.090498" lon="12.1646643"><ele>284.0</ele><time>2026-04-04T08:42:27.409Z</time></trkpt><trkpt lat="43.0905629" lon="12.1648783"><ele>286.33333333333337</ele><time>2026-04-04T08:42:28.408Z</time></trkpt><trkpt lat="43.0906212" lon="12.1650786"><ele>288.6666666666667</ele><time>2026-04-04T08:42:29.408Z</time></trkpt><trkpt lat="43.0906939" lon="12.1652877"><ele>291.0</ele><time>2026-04-04T08:42:30.408Z</time></trkpt><trkpt lat="43.0907515" lon="12.1654955"><ele>281.6666666666667</ele><time>2026-04-04T08:42:31.408Z</time></trkpt><trkpt lat="43.0907864" lon="12.1657298"><ele>272.33333333333337</ele><time>2026-04-04T08:42:32.409Z</time></trkpt><trkpt lat="43.0907915" lon="12.165975"><ele>263.0</ele><time>2026-04-04T08:42:33.408Z</time></trkpt><trkpt lat="43.090782" lon="12.1662269"><ele>269.33333333333337</ele><time>2026-04-04T08:42:34.408Z</time></trkpt><trkpt lat="43.0907448" lon="12.1664835"><ele>275.6666666666667</ele><time>2026-04-04T08:42:35.408Z</time></trkpt><trkpt lat="43.0906924" lon="12.1667461"><ele>282.0</ele><time>2026-04-04T08:42:36.408Z</time></trkpt><trkpt lat="43.0906453" lon="12.1670252"><ele>282.0</ele><time>2026-04-04T08:42:37.408Z</time></trkpt><trkpt lat="43.0905932" lon="12.167313"><ele>282.0</ele><time>2026-04-04T08:42:38.408Z</time></trkpt><trkpt lat="43.0905428" lon="12.1675951"><ele>282.0</ele><time>2026-04-04T08:42:39.408Z</time></trkpt><trkpt lat="43.0904917" lon="12.1678647"><ele>280.6666666666667</ele><time>2026-04-04T08:42:40.408Z</time></trkpt><trkpt lat="43.0904476" lon="12.1681279"><ele>279.33333333333337</ele><time>2026-04-04T08:42:41.408Z</time></trkpt><trkpt lat="43.0904005" lon="12.1683762"><ele>278.0</ele><time>2026-04-04T08:42:42.408Z</time></trkpt><trkpt lat="43.0903368" lon="12.1686112"><ele>278.0</ele><time>2026-04-04T08:42:43.408Z</time></trkpt><trkpt lat="43.0902593" lon="12.1688414"><ele>278.0</ele><time>2026-04-04T08:42:44.408Z</time></trkpt><trkpt lat="43.0901578" lon="12.1690804"><ele>278.0</ele><time>2026-04-04T08:42:45.409Z</time></trkpt><trkpt lat="43.0900094" lon="12.1693247"><ele>282.5</ele><time>2026-04-04T08:42:46.408Z</time></trkpt><trkpt lat="43.0898662" lon="12.169582"><ele>287.0</ele><time>2026-04-04T08:42:47.409Z</time></trkpt><trkpt lat="43.0897294" lon="12.1698401"><ele>279.0</ele><time>2026-04-04T08:42:48.408Z</time></trkpt><trkpt lat="43.0895935" lon="12.1700947"><ele>271.0</ele><time>2026-04-04T08:42:49.408Z</time></trkpt><trkpt lat="43.0894565" lon="12.1703435"><ele>271.0</ele><time>2026-04-04T08:42:50.408Z</time></trkpt><trkpt lat="43.0893245" lon="12.1705964"><ele>271.0</ele><time>2026-04-04T08:42:51.409Z</time></trkpt><trkpt lat="43.0891884" lon="12.1708538"><ele>279.0</ele><time>2026-04-04T08:42:52.408Z</time></trkpt><trkpt lat="43.0890512" lon="12.1711089"><ele>287.0</ele><time>2026-04-04T08:42:53.409Z</time></trkpt><trkpt lat="43.0889193" lon="12.17136"><ele>281.6666666666667</ele><time>2026-04-04T08:42:54.408Z</time></trkpt><trkpt lat="43.0887849" lon="12.1716075"><ele>276.3333333333333</ele><time>2026-04-04T08:42:55.408Z</time></trkpt><trkpt lat="43.0886606" lon="12.1718549"><ele>271.0</ele><time>2026-04-04T08:42:56.408Z</time></trkpt><trkpt lat="43.0885353" lon="12.1720824"><ele>271.0</ele><time>2026-04-04T08:42:57.409Z</time></trkpt><trkpt lat="43.0884193" lon="12.172314"><ele>271.0</ele><time>2026-04-04T08:42:58.408Z</time></trkpt><trkpt lat="43.0883236" lon="12.1725616"><ele>271.0</ele><time>2026-04-04T08:42:59.408Z</time></trkpt><trkpt lat="43.0882627" lon="12.172829"><ele>270.0</ele><time>2026-04-04T08:43:00.408Z</time></trkpt><trkpt lat="43.0882204" lon="12.1731206"><ele>269.0</ele><time>2026-04-04T08:43:01.409Z</time></trkpt><trkpt lat="43.0882128" lon="12.173444"><ele>269.0</ele><time>2026-04-04T08:43:02.408Z</time></trkpt><trkpt lat="43.0881754" lon="12.1737609"><ele>269.0</ele><time>2026-04-04T08:43:03.409Z</time></trkpt><trkpt lat="43.0881461" lon="12.1740785"><ele>268.0</ele><time>2026-04-04T08:43:04.41Z</time></trkpt><trkpt lat="43.0881186" lon="12.1743955"><ele>267.0</ele><time>2026-04-04T08:43:05.409Z</time></trkpt><trkpt lat="43.0881025" lon="12.1747178"><ele>267.0</ele><time>2026-04-04T08:43:06.409Z</time></trkpt><trkpt lat="43.0880836" lon="12.1750308"><ele>267.0</ele><time>2026-04-04T08:43:07.409Z</time></trkpt><trkpt lat="43.0880603" lon="12.1753406"><ele>267.0</ele><time>2026-04-04T08:43:08.409Z</time></trkpt><trkpt lat="43.0880338" lon="12.1756477"><ele>267.0</ele><time>2026-04-04T08:43:09.409Z</time></trkpt><trkpt lat="43.088012" lon="12.1759587"><ele>267.0</ele><time>2026-04-04T08:43:10.409Z</time></trkpt><trkpt lat="43.0879926" lon="12.1762857"><ele>267.0</ele><time>2026-04-04T08:43:11.409Z</time></trkpt><trkpt lat="43.0879686" lon="12.1766182"><ele>267.0</ele><time>2026-04-04T08:43:12.409Z</time></trkpt><trkpt lat="43.0879441" lon="12.1769543"><ele>267.0</ele><time>2026-04-04T08:43:13.41Z</time></trkpt><trkpt lat="43.0879127" lon="12.1772805"><ele>267.5</ele><time>2026-04-04T08:43:14.409Z</time></trkpt><trkpt lat="43.0878883" lon="12.1776038"><ele>268.0</ele><time>2026-04-04T08:43:15.409Z</time></trkpt><trkpt lat="43.0878657" lon="12.1779249"><ele>268.0</ele><time>2026-04-04T08:43:16.41Z</time></trkpt><trkpt lat="43.0878439" lon="12.1782577"><ele>268.0</ele><time>2026-04-04T08:43:17.409Z</time></trkpt><trkpt lat="43.0878225" lon="12.1785993"><ele>268.0</ele><time>2026-04-04T08:43:18.41Z</time></trkpt><trkpt lat="43.0877847" lon="12.1789412"><ele>268.0</ele><time>2026-04-04T08:43:19.409Z</time></trkpt><trkpt lat="43.0877534" lon="12.1792874"><ele>268.5</ele><time>2026-04-04T08:43:20.41Z</time></trkpt><trkpt lat="43.0877252" lon="12.1796287"><ele>269.0</ele><time>2026-04-04T08:43:21.41Z</time></trkpt><trkpt lat="43.0876946" lon="12.1799621"><ele>266.5</ele><time>2026-04-04T08:43:22.409Z</time></trkpt><trkpt lat="43.0876692" lon="12.1803029"><ele>264.0</ele><time>2026-04-04T08:43:23.41Z</time></trkpt><trkpt lat="43.08764" lon="12.1806429"><ele>264.0</ele><time>2026-04-04T08:43:24.409Z</time></trkpt><trkpt lat="43.0876091" lon="12.1809788"><ele>264.0</ele><time>2026-04-04T08:43:25.41Z</time></trkpt><trkpt lat="43.0875775" lon="12.181314"><ele>262.0</ele><time>2026-04-04T08:43:26.409Z</time></trkpt><trkpt lat="43.0875518" lon="12.1816508"><ele>260.0</ele><time>2026-04-04T08:43:27.409Z</time></trkpt><trkpt lat="43.0875224" lon="12.1819784"><ele>260.0</ele><time>2026-04-04T08:43:28.409Z</time></trkpt><trkpt lat="43.0874937" lon="12.1823075"><ele>260.0</ele><time>2026-04-04T08:43:29.409Z</time></trkpt><trkpt lat="43.0874708" lon="12.1826286"><ele>260.0</ele><time>2026-04-04T08:43:30.41Z</time></trkpt><trkpt lat="43.0874396" lon="12.1829437"><ele>260.0</ele><time>2026-04-04T08:43:31.41Z</time></trkpt><trkpt lat="43.0874128" lon="12.1832465"><ele>262.6666666666667</ele><time>2026-04-04T08:43:32.409Z</time></trkpt><trkpt lat="43.0873868" lon="12.1835277"><ele>265.3333333333333</ele><time>2026-04-04T08:43:33.41Z</time></trkpt><trkpt lat="43.0873673" lon="12.183789"><ele>268.0</ele><time>2026-04-04T08:43:34.409Z</time></trkpt><trkpt lat="43.0873432" lon="12.1840405"><ele>268.0</ele><time>2026-04-04T08:43:35.409Z</time></trkpt><trkpt lat="43.087319" lon="12.1842854"><ele>268.0</ele><time>2026-04-04T08:43:36.409Z</time></trkpt><trkpt lat="43.0872989" lon="12.1845169"><ele>268.0</ele><time>2026-04-04T08:43:37.41Z</time></trkpt><trkpt lat="43.0872877" lon="12.1847227"><ele>267.75</ele><time>2026-04-04T08:43:38.409Z</time></trkpt><trkpt lat="43.0872737" lon="12.1849161"><ele>267.5</ele><time>2026-04-04T08:43:39.409Z</time></trkpt><trkpt lat="43.087267" lon="12.185097"><ele>267.25</ele><time>2026-04-04T08:43:40.409Z</time></trkpt><trkpt lat="43.0872566" lon="12.1852677"><ele>267.0</ele><time>2026-04-04T08:43:41.409Z</time></trkpt><trkpt lat="43.0872416" lon="12.1854152"><ele>267.0</ele><time>2026-04-04T08:43:42.41Z</time></trkpt><trkpt lat="43.0872403" lon="12.1855447"><ele>267.0</ele><time>2026-04-04T08:43:43.409Z</time></trkpt><trkpt lat="43.0872441" lon="12.1856554"><ele>267.0</ele><time>2026-04-04T08:43:44.409Z</time></trkpt><trkpt lat="43.0872458" lon="12.185749"><ele>267.0</ele><time>2026-04-04T08:43:45.409Z</time></trkpt><trkpt lat="43.0872488" lon="12.185888"><ele>267.0</ele><time>2026-04-04T08:43:47.409Z</time></trkpt><trkpt lat="43.0872603" lon="12.1859942"><ele>267.0</ele><time>2026-04-04T08:43:49.409Z</time></trkpt><trkpt lat="43.087277" lon="12.1860798"><ele>268.0</ele><time>2026-04-04T08:43:51.409Z</time></trkpt><trkpt lat="43.0872997" lon="12.1861755"><ele>269.0</ele><time>2026-04-04T08:43:56.41Z</time></trkpt><trkpt lat="43.087194" lon="12.1860755"><ele>270.0</ele><time>2026-04-04T08:45:13.501Z</time></trkpt><trkpt lat="43.0871317" lon="12.1861368"><ele>271.0</ele><time>2026-04-04T08:49:16.54Z</time></trkpt><trkpt lat="43.0871519" lon="12.1862207"><ele>272.0</ele><time>2026-04-04T08:49:21.63Z</time></trkpt><trkpt lat="43.0872149" lon="12.1862239"><ele>273.0</ele><time>2026-04-04T08:58:29.51Z</time></trkpt><trkpt lat="43.0871568" lon="12.1862676"><ele>273.0</ele><time>2026-04-04T08:59:15.521Z</time></trkpt><trkpt lat="43.0872095" lon="12.1862143"><ele>273.0</ele><time>2026-04-04T09:00:00.51Z</time></trkpt><trkpt lat="43.0871387" lon="12.1862362"><ele>273.0</ele><time>2026-04-04T09:02:42.51Z</time></trkpt><trkpt lat="43.0872228" lon="12.1862025"><ele>273.0</ele><time>2026-04-04T09:03:04.51Z</time></trkpt><trkpt lat="43.0872871" lon="12.1861694"><ele>273.0</ele><time>2026-04-04T09:03:27.433Z</time></trkpt><trkpt lat="43.0872543" lon="12.1862502"><ele>273.0</ele><time>2026-04-04T09:03:49.549Z</time></trkpt><trkpt lat="43.0871846" lon="12.1862438"><ele>273.0</ele><time>2026-04-04T09:04:16.51Z</time></trkpt><trkpt lat="43.0871249" lon="12.1862163"><ele>273.0</ele><time>2026-04-04T09:04:31.51Z</time></trkpt><trkpt lat="43.0871941" lon="12.1861731"><ele>273.0</ele><time>2026-04-04T09:04:48.51Z</time></trkpt><trkpt lat="43.0871662" lon="12.1862552"><ele>273.0</ele><time>2026-04-04T09:06:37.44Z</time></trkpt><trkpt lat="43.0871847" lon="12.1861697"><ele>273.0</ele><time>2026-04-04T09:08:41.883Z</time></trkpt><trkpt lat="43.0872463" lon="12.1862199"><ele>273.0</ele><time>2026-04-04T09:09:05.587Z</time></trkpt><trkpt lat="43.0873099" lon="12.1861433"><ele>273.0</ele><time>2026-04-04T09:10:54.451Z</time></trkpt><trkpt lat="43.087379" lon="12.1861168"><ele>273.0</ele><time>2026-04-04T09:10:56.483Z</time></trkpt><trkpt lat="43.0874549" lon="12.186103"><ele>273.0</ele><time>2026-04-04T09:10:58.52Z</time></trkpt><trkpt lat="43.0875195" lon="12.1861308"><ele>273.0</ele><time>2026-04-04T09:11:00.443Z</time></trkpt><trkpt lat="43.0875951" lon="12.1862102"><ele>273.0</ele><time>2026-04-04T09:11:03.443Z</time></trkpt><trkpt lat="43.0875745" lon="12.1863266"><ele>273.0</ele><time>2026-04-04T09:11:05.466Z</time></trkpt><trkpt lat="43.087513" lon="12.1863741"><ele>273.0</ele><time>2026-04-04T09:11:06.544Z</time></trkpt><trkpt lat="43.0873719" lon="12.1863488"><ele>273.0</ele><time>2026-04-04T09:11:09.54Z</time></trkpt><trkpt lat="43.0872942" lon="12.1862933"><ele>273.0</ele><time>2026-04-04T09:11:29.443Z</time></trkpt><trkpt lat="43.0873638" lon="12.1863825"><ele>273.0</ele><time>2026-04-04T09:11:33.495Z</time></trkpt><trkpt lat="43.0874432" lon="12.1865265"><ele>273.0</ele><time>2026-04-04T09:11:35.443Z</time></trkpt><trkpt lat="43.0875001" lon="12.1866735"><ele>273.0</ele><time>2026-04-04T09:11:36.443Z</time></trkpt><trkpt lat="43.0875419" lon="12.1868282"><ele>273.5</ele><time>2026-04-04T09:11:37.444Z</time></trkpt><trkpt lat="43.0875819" lon="12.1869968"><ele>274.0</ele><time>2026-04-04T09:11:38.444Z</time></trkpt><trkpt lat="43.087623" lon="12.1871885"><ele>274.5</ele><time>2026-04-04T09:11:39.443Z</time></trkpt><trkpt lat="43.0876549" lon="12.1874071"><ele>275.0</ele><time>2026-04-04T09:11:40.443Z</time></trkpt><trkpt lat="43.0876653" lon="12.1876523"><ele>275.0</ele><time>2026-04-04T09:11:41.444Z</time></trkpt><trkpt lat="43.0876577" lon="12.1879097"><ele>275.0</ele><time>2026-04-04T09:11:42.445Z</time></trkpt><trkpt lat="43.0876128" lon="12.188182"><ele>275.0</ele><time>2026-04-04T09:11:43.445Z</time></trkpt><trkpt lat="43.0875411" lon="12.1884578"><ele>275.33333333333337</ele><time>2026-04-04T09:11:44.445Z</time></trkpt><trkpt lat="43.0874658" lon="12.1887141"><ele>275.6666666666667</ele><time>2026-04-04T09:11:45.444Z</time></trkpt><trkpt lat="43.0873962" lon="12.1889385"><ele>276.0</ele><time>2026-04-04T09:11:46.444Z</time></trkpt><trkpt lat="43.0873356" lon="12.1891397"><ele>279.5</ele><time>2026-04-04T09:11:47.444Z</time></trkpt><trkpt lat="43.0872806" lon="12.189319"><ele>283.0</ele><time>2026-04-04T09:11:48.444Z</time></trkpt><trkpt lat="43.0872307" lon="12.1894958"><ele>286.5</ele><time>2026-04-04T09:11:49.444Z</time></trkpt><trkpt lat="43.0871838" lon="12.1896723"><ele>290.0</ele><time>2026-04-04T09:11:50.444Z</time></trkpt><trkpt lat="43.0871414" lon="12.1898507"><ele>290.0</ele><time>2026-04-04T09:11:51.444Z</time></trkpt><trkpt lat="43.0871002" lon="12.1900305"><ele>290.0</ele><time>2026-04-04T09:11:52.444Z</time></trkpt><trkpt lat="43.0870624" lon="12.1902079"><ele>290.0</ele><time>2026-04-04T09:11:53.445Z</time></trkpt><trkpt lat="43.0870374" lon="12.1903829"><ele>290.0</ele><time>2026-04-04T09:11:54.444Z</time></trkpt><trkpt lat="43.0870437" lon="12.1905712"><ele>290.33333333333337</ele><time>2026-04-04T09:11:55.444Z</time></trkpt><trkpt lat="43.0870638" lon="12.190766"><ele>290.6666666666667</ele><time>2026-04-04T09:11:56.444Z</time></trkpt><trkpt lat="43.0871119" lon="12.1909555"><ele>291.0</ele><time>2026-04-04T09:11:57.444Z</time></trkpt><trkpt lat="43.0871878" lon="12.1911572"><ele>291.0</ele><time>2026-04-04T09:11:58.444Z</time></trkpt><trkpt lat="43.0872833" lon="12.1913505"><ele>291.0</ele><time>2026-04-04T09:11:59.444Z</time></trkpt><trkpt lat="43.0873855" lon="12.1915452"><ele>291.0</ele><time>2026-04-04T09:12:00.444Z</time></trkpt><trkpt lat="43.087493" lon="12.1917387"><ele>288.0</ele><time>2026-04-04T09:12:01.444Z</time></trkpt><trkpt lat="43.087586" lon="12.1919263"><ele>285.0</ele><time>2026-04-04T09:12:02.444Z</time></trkpt><trkpt lat="43.0876491" lon="12.1921183"><ele>282.0</ele><time>2026-04-04T09:12:03.444Z</time></trkpt><trkpt lat="43.0876871" lon="12.1923249"><ele>283.6666666666667</ele><time>2026-04-04T09:12:04.444Z</time></trkpt><trkpt lat="43.0876931" lon="12.1925403"><ele>285.33333333333337</ele><time>2026-04-04T09:12:05.444Z</time></trkpt><trkpt lat="43.0876749" lon="12.192753"><ele>287.0</ele><time>2026-04-04T09:12:06.444Z</time></trkpt><trkpt lat="43.0876461" lon="12.1929663"><ele>287.0</ele><time>2026-04-04T09:12:07.445Z</time></trkpt><trkpt lat="43.0876113" lon="12.19317"><ele>287.0</ele><time>2026-04-04T09:12:08.444Z</time></trkpt><trkpt lat="43.0875925" lon="12.1933538"><ele>287.0</ele><time>2026-04-04T09:12:09.444Z</time></trkpt><trkpt lat="43.0875759" lon="12.1935317"><ele>287.0</ele><time>2026-04-04T09:12:10.444Z</time></trkpt><trkpt lat="43.0875619" lon="12.193702"><ele>286.6666666666667</ele><time>2026-04-04T09:12:11.445Z</time></trkpt><trkpt lat="43.0875445" lon="12.1938666"><ele>286.33333333333337</ele><time>2026-04-04T09:12:12.444Z</time></trkpt><trkpt lat="43.0875307" lon="12.1940034"><ele>286.0</ele><time>2026-04-04T09:12:13.444Z</time></trkpt><trkpt lat="43.0875194" lon="12.1941087"><ele>285.6666666666667</ele><time>2026-04-04T09:12:14.444Z</time></trkpt><trkpt lat="43.0874955" lon="12.1941943"><ele>285.3333333333333</ele><time>2026-04-04T09:12:15.444Z</time></trkpt><trkpt lat="43.0874593" lon="12.1942677"><ele>285.0</ele><time>2026-04-04T09:12:16.444Z</time></trkpt><trkpt lat="43.0874025" lon="12.1943148"><ele>289.75</ele><time>2026-04-04T09:12:17.444Z</time></trkpt><trkpt lat="43.087315" lon="12.1943717"><ele>294.5</ele><time>2026-04-04T09:12:18.444Z</time></trkpt><trkpt lat="43.0872077" lon="12.1944291"><ele>299.25</ele><time>2026-04-04T09:12:19.444Z</time></trkpt><trkpt lat="43.0871015" lon="12.1944998"><ele>304.0</ele><time>2026-04-04T09:12:20.444Z</time></trkpt><trkpt lat="43.0870058" lon="12.1946159"><ele>304.0</ele><time>2026-04-04T09:12:21.444Z</time></trkpt><trkpt lat="43.0869167" lon="12.1947765"><ele>304.0</ele><time>2026-04-04T09:12:22.444Z</time></trkpt><trkpt lat="43.0868302" lon="12.1949624"><ele>304.0</ele><time>2026-04-04T09:12:23.444Z</time></trkpt><trkpt lat="43.0867302" lon="12.1951463"><ele>302.66666666666663</ele><time>2026-04-04T09:12:24.445Z</time></trkpt><trkpt lat="43.0866226" lon="12.1953272"><ele>301.3333333333333</ele><time>2026-04-04T09:12:25.445Z</time></trkpt><trkpt lat="43.0865113" lon="12.1955073"><ele>300.0</ele><time>2026-04-04T09:12:26.444Z</time></trkpt><trkpt lat="43.0864076" lon="12.1956939"><ele>305.6666666666667</ele><time>2026-04-04T09:12:27.444Z</time></trkpt><trkpt lat="43.0862998" lon="12.1958848"><ele>311.33333333333337</ele><time>2026-04-04T09:12:28.444Z</time></trkpt><trkpt lat="43.0861836" lon="12.1960927"><ele>317.0</ele><time>2026-04-04T09:12:29.444Z</time></trkpt><trkpt lat="43.0860744" lon="12.1962907"><ele>317.0</ele><time>2026-04-04T09:12:30.444Z</time></trkpt><trkpt lat="43.0859669" lon="12.1964899"><ele>317.0</ele><time>2026-04-04T09:12:31.444Z</time></trkpt><trkpt lat="43.0858583" lon="12.1966886"><ele>317.0</ele><time>2026-04-04T09:12:32.445Z</time></trkpt><trkpt lat="43.0857561" lon="12.196874"><ele>318.6666666666667</ele><time>2026-04-04T09:12:33.445Z</time></trkpt><trkpt lat="43.0856409" lon="12.1970547"><ele>320.3333333333333</ele><time>2026-04-04T09:12:34.444Z</time></trkpt><trkpt lat="43.0855509" lon="12.1972171"><ele>322.0</ele><time>2026-04-04T09:12:35.445Z</time></trkpt><trkpt lat="43.0854495" lon="12.1973812"><ele>322.0</ele><time>2026-04-04T09:12:36.444Z</time></trkpt><trkpt lat="43.0853546" lon="12.1975333"><ele>322.0</ele><time>2026-04-04T09:12:37.445Z</time></trkpt><trkpt lat="43.0852528" lon="12.1976752"><ele>322.0</ele><time>2026-04-04T09:12:38.445Z</time></trkpt><trkpt lat="43.0851315" lon="12.197796"><ele>322.0</ele><time>2026-04-04T09:12:39.446Z</time></trkpt><trkpt lat="43.0850039" lon="12.1978946"><ele>321.75</ele><time>2026-04-04T09:12:40.445Z</time></trkpt><trkpt lat="43.0848787" lon="12.197974"><ele>321.5</ele><time>2026-04-04T09:12:41.445Z</time></trkpt><trkpt lat="43.0847696" lon="12.1980454"><ele>321.25</ele><time>2026-04-04T09:12:42.445Z</time></trkpt><trkpt lat="43.0846825" lon="12.1981176"><ele>321.0</ele><time>2026-04-04T09:12:43.445Z</time></trkpt><trkpt lat="43.0846033" lon="12.1981968"><ele>317.40000000000003</ele><time>2026-04-04T09:12:44.445Z</time></trkpt><trkpt lat="43.0845425" lon="12.1983008"><ele>313.8</ele><time>2026-04-04T09:12:45.445Z</time></trkpt><trkpt lat="43.0845034" lon="12.198434"><ele>310.20000000000005</ele><time>2026-04-04T09:12:46.445Z</time></trkpt><trkpt lat="43.0844973" lon="12.1985727"><ele>306.6</ele><time>2026-04-04T09:12:47.445Z</time></trkpt><trkpt lat="43.0845053" lon="12.1987399"><ele>303.0</ele><time>2026-04-04T09:12:48.445Z</time></trkpt><trkpt lat="43.0845306" lon="12.1989186"><ele>300.0</ele><time>2026-04-04T09:12:49.445Z</time></trkpt><trkpt lat="43.0845698" lon="12.1991324"><ele>297.0</ele><time>2026-04-04T09:12:50.446Z</time></trkpt><trkpt lat="43.0846012" lon="12.1993482"><ele>294.0</ele><time>2026-04-04T09:12:51.445Z</time></trkpt><trkpt lat="43.0846203" lon="12.1995661"><ele>294.0</ele><time>2026-04-04T09:12:52.445Z</time></trkpt><trkpt lat="43.0845826" lon="12.1997578"><ele>294.0</ele><time>2026-04-04T09:12:53.446Z</time></trkpt><trkpt lat="43.084502" lon="12.1999277"><ele>294.0</ele><time>2026-04-04T09:12:54.445Z</time></trkpt><trkpt lat="43.0844101" lon="12.2001114"><ele>294.3333333333333</ele><time>2026-04-04T09:12:55.445Z</time></trkpt><trkpt lat="43.0843214" lon="12.2002983"><ele>294.66666666666663</ele><time>2026-04-04T09:12:56.445Z</time></trkpt><trkpt lat="43.0842352" lon="12.2004927"><ele>295.0</ele><time>2026-04-04T09:12:57.445Z</time></trkpt><trkpt lat="43.0841575" lon="12.2007082"><ele>295.0</ele><time>2026-04-04T09:12:58.445Z</time></trkpt><trkpt lat="43.0841" lon="12.2009464"><ele>295.0</ele><time>2026-04-04T09:12:59.445Z</time></trkpt><trkpt lat="43.0840799" lon="12.2011947"><ele>295.0</ele><time>2026-04-04T09:13:00.445Z</time></trkpt><trkpt lat="43.084071" lon="12.2014254"><ele>294.3333333333333</ele><time>2026-04-04T09:13:01.446Z</time></trkpt><trkpt lat="43.0840945" lon="12.2016538"><ele>293.6666666666667</ele><time>2026-04-04T09:13:02.445Z</time></trkpt><trkpt lat="43.0841331" lon="12.201875"><ele>293.0</ele><time>2026-04-04T09:13:03.445Z</time></trkpt><trkpt lat="43.0841789" lon="12.2021142"><ele>291.6666666666667</ele><time>2026-04-04T09:13:04.445Z</time></trkpt><trkpt lat="43.0842189" lon="12.2023377"><ele>290.3333333333333</ele><time>2026-04-04T09:13:05.445Z</time></trkpt><trkpt lat="43.0842379" lon="12.2025651"><ele>289.0</ele><time>2026-04-04T09:13:06.445Z</time></trkpt><trkpt lat="43.0841927" lon="12.2027726"><ele>289.0</ele><time>2026-04-04T09:13:07.445Z</time></trkpt><trkpt lat="43.0841117" lon="12.202965"><ele>289.0</ele><time>2026-04-04T09:13:08.445Z</time></trkpt><trkpt lat="43.0840194" lon="12.2031357"><ele>289.0</ele><time>2026-04-04T09:13:09.445Z</time></trkpt><trkpt lat="43.0838766" lon="12.2032677"><ele>288.3333333333333</ele><time>2026-04-04T09:13:10.445Z</time></trkpt><trkpt lat="43.0837296" lon="12.2033706"><ele>287.6666666666667</ele><time>2026-04-04T09:13:11.445Z</time></trkpt><trkpt lat="43.0835768" lon="12.2034598"><ele>287.0</ele><time>2026-04-04T09:13:12.445Z</time></trkpt><trkpt lat="43.0834393" lon="12.20354"><ele>287.0</ele><time>2026-04-04T09:13:13.445Z</time></trkpt><trkpt lat="43.0833009" lon="12.2036424"><ele>287.0</ele><time>2026-04-04T09:13:14.445Z</time></trkpt><trkpt lat="43.0831708" lon="12.2037738"><ele>287.0</ele><time>2026-04-04T09:13:15.445Z</time></trkpt><trkpt lat="43.0830451" lon="12.203942"><ele>285.6666666666667</ele><time>2026-04-04T09:13:16.445Z</time></trkpt><trkpt lat="43.0829387" lon="12.2041433"><ele>284.3333333333333</ele><time>2026-04-04T09:13:17.446Z</time></trkpt><trkpt lat="43.0828385" lon="12.2043598"><ele>283.0</ele><time>2026-04-04T09:13:18.445Z</time></trkpt><trkpt lat="43.0827635" lon="12.2046073"><ele>283.3333333333333</ele><time>2026-04-04T09:13:19.443Z</time></trkpt><trkpt lat="43.08269" lon="12.2048594"><ele>283.6666666666667</ele><time>2026-04-04T09:13:20.445Z</time></trkpt><trkpt lat="43.0826161" lon="12.205121"><ele>284.0</ele><time>2026-04-04T09:13:21.445Z</time></trkpt><trkpt lat="43.0825421" lon="12.205375"><ele>284.0</ele><time>2026-04-04T09:13:22.445Z</time></trkpt><trkpt lat="43.0824491" lon="12.205632"><ele>284.0</ele><time>2026-04-04T09:13:23.446Z</time></trkpt><trkpt lat="43.0823528" lon="12.2058834"><ele>284.0</ele><time>2026-04-04T09:13:24.445Z</time></trkpt><trkpt lat="43.0822546" lon="12.2061338"><ele>282.0</ele><time>2026-04-04T09:13:25.445Z</time></trkpt><trkpt lat="43.0821516" lon="12.2063891"><ele>280.0</ele><time>2026-04-04T09:13:26.445Z</time></trkpt><trkpt lat="43.0820431" lon="12.2066463"><ele>278.0</ele><time>2026-04-04T09:13:27.445Z</time></trkpt><trkpt lat="43.0819233" lon="12.2069007"><ele>277.6666666666667</ele><time>2026-04-04T09:13:28.445Z</time></trkpt><trkpt lat="43.0817922" lon="12.2071493"><ele>277.3333333333333</ele><time>2026-04-04T09:13:29.445Z</time></trkpt><trkpt lat="43.0816537" lon="12.2073925"><ele>277.0</ele><time>2026-04-04T09:13:30.445Z</time></trkpt><trkpt lat="43.0815174" lon="12.2076295"><ele>277.0</ele><time>2026-04-04T09:13:31.446Z</time></trkpt><trkpt lat="43.0813829" lon="12.2078633"><ele>277.0</ele><time>2026-04-04T09:13:32.445Z</time></trkpt><trkpt lat="43.0812464" lon="12.2080865"><ele>277.0</ele><time>2026-04-04T09:13:33.445Z</time></trkpt><trkpt lat="43.0811095" lon="12.2083174"><ele>277.0</ele><time>2026-04-04T09:13:34.445Z</time></trkpt><trkpt lat="43.080976" lon="12.2085473"><ele>277.0</ele><time>2026-04-04T09:13:35.445Z</time></trkpt><trkpt lat="43.0808453" lon="12.2087749"><ele>277.0</ele><time>2026-04-04T09:13:36.445Z</time></trkpt><trkpt lat="43.0807118" lon="12.2090103"><ele>276.0</ele><time>2026-04-04T09:13:37.446Z</time></trkpt><trkpt lat="43.0805737" lon="12.2092494"><ele>275.0</ele><time>2026-04-04T09:13:38.446Z</time></trkpt><trkpt lat="43.0804396" lon="12.2094879"><ele>274.0</ele><time>2026-04-04T09:13:39.446Z</time></trkpt><trkpt lat="43.0803014" lon="12.2097279"><ele>273.66666666666663</ele><time>2026-04-04T09:13:40.447Z</time></trkpt><trkpt lat="43.0801626" lon="12.2099681"><ele>273.3333333333333</ele><time>2026-04-04T09:13:41.446Z</time></trkpt><trkpt lat="43.0800262" lon="12.2102082"><ele>273.0</ele><time>2026-04-04T09:13:42.446Z</time></trkpt><trkpt lat="43.0798906" lon="12.2104468"><ele>270.5</ele><time>2026-04-04T09:13:43.447Z</time></trkpt><trkpt lat="43.0797506" lon="12.2106889"><ele>268.0</ele><time>2026-04-04T09:13:44.447Z</time></trkpt><trkpt lat="43.0796064" lon="12.2109288"><ele>268.0</ele><time>2026-04-04T09:13:45.446Z</time></trkpt><trkpt lat="43.0794628" lon="12.2111693"><ele>268.0</ele><time>2026-04-04T09:13:46.446Z</time></trkpt><trkpt lat="43.0793161" lon="12.2114199"><ele>267.5</ele><time>2026-04-04T09:13:47.446Z</time></trkpt><trkpt lat="43.0791721" lon="12.2116708"><ele>267.0</ele><time>2026-04-04T09:13:48.446Z</time></trkpt><trkpt lat="43.079031" lon="12.2119248"><ele>265.5</ele><time>2026-04-04T09:13:49.446Z</time></trkpt><trkpt lat="43.0788882" lon="12.21219"><ele>264.0</ele><time>2026-04-04T09:13:50.446Z</time></trkpt><trkpt lat="43.0787434" lon="12.2124492"><ele>264.0</ele><time>2026-04-04T09:13:51.447Z</time></trkpt><trkpt lat="43.078598" lon="12.2127075"><ele>264.0</ele><time>2026-04-04T09:13:52.446Z</time></trkpt><trkpt lat="43.0784494" lon="12.2129675"><ele>264.0</ele><time>2026-04-04T09:13:53.446Z</time></trkpt><trkpt lat="43.0783071" lon="12.2132297"><ele>264.0</ele><time>2026-04-04T09:13:54.446Z</time></trkpt><trkpt lat="43.0781641" lon="12.2134947"><ele>264.0</ele><time>2026-04-04T09:13:55.446Z</time></trkpt><trkpt lat="43.0780219" lon="12.2137616"><ele>264.0</ele><time>2026-04-04T09:13:56.446Z</time></trkpt><trkpt lat="43.0778758" lon="12.2140202"><ele>265.0</ele><time>2026-04-04T09:13:57.446Z</time></trkpt><trkpt lat="43.0777281" lon="12.2142774"><ele>266.0</ele><time>2026-04-04T09:13:58.446Z</time></trkpt><trkpt lat="43.0775876" lon="12.2145249"><ele>266.0</ele><time>2026-04-04T09:13:59.446Z</time></trkpt><trkpt lat="43.0774412" lon="12.2147763"><ele>266.0</ele><time>2026-04-04T09:14:00.446Z</time></trkpt><trkpt lat="43.0773061" lon="12.2150097"><ele>265.33333333333337</ele><time>2026-04-04T09:14:01.446Z</time></trkpt><trkpt lat="43.0771842" lon="12.2152206"><ele>264.6666666666667</ele><time>2026-04-04T09:14:02.446Z</time></trkpt><trkpt lat="43.077067" lon="12.2154309"><ele>264.0</ele><time>2026-04-04T09:14:03.446Z</time></trkpt><trkpt lat="43.0769547" lon="12.2156409"><ele>265.0</ele><time>2026-04-04T09:14:04.446Z</time></trkpt><trkpt lat="43.076857" lon="12.2158646"><ele>266.0</ele><time>2026-04-04T09:14:05.446Z</time></trkpt><trkpt lat="43.0767688" lon="12.2161012"><ele>267.0</ele><time>2026-04-04T09:14:06.447Z</time></trkpt><trkpt lat="43.0766999" lon="12.2163509"><ele>267.0</ele><time>2026-04-04T09:14:07.446Z</time></trkpt><trkpt lat="43.0766316" lon="12.2166001"><ele>267.0</ele><time>2026-04-04T09:14:08.447Z</time></trkpt><trkpt lat="43.0765685" lon="12.216829"><ele>267.0</ele><time>2026-04-04T09:14:09.446Z</time></trkpt><trkpt lat="43.0765072" lon="12.2170414"><ele>267.0</ele><time>2026-04-04T09:14:10.446Z</time></trkpt><trkpt lat="43.0764422" lon="12.2172456"><ele>267.0</ele><time>2026-04-04T09:14:11.446Z</time></trkpt><trkpt lat="43.0763828" lon="12.2174416"><ele>267.0</ele><time>2026-04-04T09:14:12.446Z</time></trkpt><trkpt lat="43.0763261" lon="12.217625"><ele>268.3333333333333</ele><time>2026-04-04T09:14:13.446Z</time></trkpt><trkpt lat="43.07625" lon="12.2178011"><ele>269.66666666666663</ele><time>2026-04-04T09:14:14.446Z</time></trkpt><trkpt lat="43.0761422" lon="12.2179779"><ele>271.0</ele><time>2026-04-04T09:14:15.447Z</time></trkpt><trkpt lat="43.076014" lon="12.2181644"><ele>272.0</ele><time>2026-04-04T09:14:16.446Z</time></trkpt><trkpt lat="43.0758804" lon="12.2183435"><ele>273.0</ele><time>2026-04-04T09:14:17.446Z</time></trkpt><trkpt lat="43.0757401" lon="12.2185221"><ele>274.0</ele><time>2026-04-04T09:14:18.446Z</time></trkpt><trkpt lat="43.0755828" lon="12.2186986"><ele>274.0</ele><time>2026-04-04T09:14:19.446Z</time></trkpt><trkpt lat="43.0754487" lon="12.2188636"><ele>274.0</ele><time>2026-04-04T09:14:20.446Z</time></trkpt><trkpt lat="43.0753318" lon="12.2190215"><ele>274.0</ele><time>2026-04-04T09:14:21.447Z</time></trkpt><trkpt lat="43.0752393" lon="12.2191722"><ele>275.5</ele><time>2026-04-04T09:14:22.446Z</time></trkpt><trkpt lat="43.0751774" lon="12.2193359"><ele>277.0</ele><time>2026-04-04T09:14:23.446Z</time></trkpt><trkpt lat="43.0751345" lon="12.2195203"><ele>278.5</ele><time>2026-04-04T09:14:24.446Z</time></trkpt><trkpt lat="43.0750967" lon="12.219722"><ele>280.0</ele><time>2026-04-04T09:14:25.446Z</time></trkpt><trkpt lat="43.0750558" lon="12.2199376"><ele>281.66666666666663</ele><time>2026-04-04T09:14:26.446Z</time></trkpt><trkpt lat="43.0749976" lon="12.2201582"><ele>283.3333333333333</ele><time>2026-04-04T09:14:27.446Z</time></trkpt><trkpt lat="43.0749391" lon="12.2203851"><ele>285.0</ele><time>2026-04-04T09:14:28.446Z</time></trkpt><trkpt lat="43.0748975" lon="12.2206219"><ele>282.3333333333333</ele><time>2026-04-04T09:14:29.446Z</time></trkpt><trkpt lat="43.074867" lon="12.2208631"><ele>279.66666666666663</ele><time>2026-04-04T09:14:30.446Z</time></trkpt><trkpt lat="43.0748245" lon="12.2210868"><ele>277.0</ele><time>2026-04-04T09:14:31.447Z</time></trkpt><trkpt lat="43.0747888" lon="12.2212892"><ele>277.0</ele><time>2026-04-04T09:14:32.446Z</time></trkpt><trkpt lat="43.0747622" lon="12.221475"><ele>277.0</ele><time>2026-04-04T09:14:33.446Z</time></trkpt><trkpt lat="43.0747606" lon="12.2216437"><ele>277.0</ele><time>2026-04-04T09:14:34.447Z</time></trkpt><trkpt lat="43.0748" lon="12.2217868"><ele>277.0</ele><time>2026-04-04T09:14:35.447Z</time></trkpt><trkpt lat="43.0749017" lon="12.2219221"><ele>278.75</ele><time>2026-04-04T09:14:36.447Z</time></trkpt><trkpt lat="43.0749928" lon="12.2220732"><ele>280.5</ele><time>2026-04-04T09:14:37.448Z</time></trkpt><trkpt lat="43.0750811" lon="12.2222474"><ele>282.25</ele><time>2026-04-04T09:14:38.448Z</time></trkpt><trkpt lat="43.0751235" lon="12.2224464"><ele>284.0</ele><time>2026-04-04T09:14:39.447Z</time></trkpt><trkpt lat="43.0751214" lon="12.222653"><ele>284.0</ele><time>2026-04-04T09:14:40.447Z</time></trkpt><trkpt lat="43.0750915" lon="12.2228441"><ele>284.0</ele><time>2026-04-04T09:14:41.447Z</time></trkpt><trkpt lat="43.0749995" lon="12.2230234"><ele>284.0</ele><time>2026-04-04T09:14:42.447Z</time></trkpt><trkpt lat="43.074894" lon="12.2232214"><ele>283.6666666666667</ele><time>2026-04-04T09:14:43.448Z</time></trkpt><trkpt lat="43.0747945" lon="12.2234129"><ele>283.3333333333333</ele><time>2026-04-04T09:14:44.447Z</time></trkpt><trkpt lat="43.0747074" lon="12.2236164"><ele>283.0</ele><time>2026-04-04T09:14:45.447Z</time></trkpt><trkpt lat="43.0746211" lon="12.2238159"><ele>284.3333333333333</ele><time>2026-04-04T09:14:46.448Z</time></trkpt><trkpt lat="43.0745342" lon="12.2240146"><ele>285.6666666666667</ele><time>2026-04-04T09:14:47.447Z</time></trkpt><trkpt lat="43.0744564" lon="12.224198"><ele>287.0</ele><time>2026-04-04T09:14:48.447Z</time></trkpt><trkpt lat="43.0743825" lon="12.2243786"><ele>287.0</ele><time>2026-04-04T09:14:49.448Z</time></trkpt><trkpt lat="43.0743269" lon="12.2245606"><ele>287.0</ele><time>2026-04-04T09:14:50.447Z</time></trkpt><trkpt lat="43.074304" lon="12.2247475"><ele>287.0</ele><time>2026-04-04T09:14:51.447Z</time></trkpt><trkpt lat="43.0743162" lon="12.2249289"><ele>287.0</ele><time>2026-04-04T09:14:52.447Z</time></trkpt><trkpt lat="43.0743493" lon="12.2251246"><ele>287.0</ele><time>2026-04-04T09:14:53.447Z</time></trkpt><trkpt lat="43.0744194" lon="12.2253016"><ele>287.0</ele><time>2026-04-04T09:14:54.447Z</time></trkpt><trkpt lat="43.0745187" lon="12.2254659"><ele>287.0</ele><time>2026-04-04T09:14:55.447Z</time></trkpt><trkpt lat="43.074637" lon="12.2256361"><ele>287.33333333333337</ele><time>2026-04-04T09:14:56.447Z</time></trkpt><trkpt lat="43.0747467" lon="12.2257934"><ele>287.6666666666667</ele><time>2026-04-04T09:14:57.447Z</time></trkpt><trkpt lat="43.0748509" lon="12.2259391"><ele>288.0</ele><time>2026-04-04T09:14:58.447Z</time></trkpt><trkpt lat="43.0750173" lon="12.2262084"><ele>290.25</ele><time>2026-04-04T09:15:00.447Z</time></trkpt><trkpt lat="43.0750876" lon="12.2263356"><ele>292.5</ele><time>2026-04-04T09:15:01.447Z</time></trkpt><trkpt lat="43.0751399" lon="12.2264744"><ele>294.75</ele><time>2026-04-04T09:15:02.447Z</time></trkpt><trkpt lat="43.0751579" lon="12.2266276"><ele>297.0</ele><time>2026-04-04T09:15:03.447Z</time></trkpt><trkpt lat="43.0751539" lon="12.2268015"><ele>297.0</ele><time>2026-04-04T09:15:04.447Z</time></trkpt><trkpt lat="43.0751086" lon="12.226977"><ele>297.0</ele><time>2026-04-04T09:15:05.447Z</time></trkpt><trkpt lat="43.0750268" lon="12.2271497"><ele>297.0</ele><time>2026-04-04T09:15:06.447Z</time></trkpt><trkpt lat="43.074925" lon="12.2272921"><ele>297.0</ele><time>2026-04-04T09:15:07.448Z</time></trkpt><trkpt lat="43.0747996" lon="12.2274221"><ele>299.6666666666667</ele><time>2026-04-04T09:15:08.447Z</time></trkpt><trkpt lat="43.0746749" lon="12.2275213"><ele>302.33333333333337</ele><time>2026-04-04T09:15:09.447Z</time></trkpt><trkpt lat="43.0745155" lon="12.2276053"><ele>305.0</ele><time>2026-04-04T09:15:10.447Z</time></trkpt><trkpt lat="43.0743681" lon="12.2276608"><ele>305.0</ele><time>2026-04-04T09:15:11.447Z</time></trkpt><trkpt lat="43.0742225" lon="12.2276793"><ele>305.0</ele><time>2026-04-04T09:15:12.447Z</time></trkpt><trkpt lat="43.0740911" lon="12.2276836"><ele>305.0</ele><time>2026-04-04T09:15:13.448Z</time></trkpt><trkpt lat="43.0739874" lon="12.2277219"><ele>305.0</ele><time>2026-04-04T09:15:14.447Z</time></trkpt><trkpt lat="43.073907" lon="12.227786"><ele>306.4</ele><time>2026-04-04T09:15:15.447Z</time></trkpt><trkpt lat="43.0738484" lon="12.2278939"><ele>307.8</ele><time>2026-04-04T09:15:16.447Z</time></trkpt><trkpt lat="43.0738221" lon="12.2280185"><ele>309.2</ele><time>2026-04-04T09:15:17.447Z</time></trkpt><trkpt lat="43.0738291" lon="12.2281276"><ele>310.6</ele><time>2026-04-04T09:15:18.447Z</time></trkpt><trkpt lat="43.073855" lon="12.2282309"><ele>312.0</ele><time>2026-04-04T09:15:19.447Z</time></trkpt><trkpt lat="43.073928" lon="12.2283659"><ele>312.0</ele><time>2026-04-04T09:15:20.448Z</time></trkpt><trkpt lat="43.073984" lon="12.2285208"><ele>312.0</ele><time>2026-04-04T09:15:21.448Z</time></trkpt><trkpt lat="43.0740018" lon="12.2287089"><ele>312.0</ele><time>2026-04-04T09:15:22.447Z</time></trkpt><trkpt lat="43.0739988" lon="12.228883"><ele>312.0</ele><time>2026-04-04T09:15:23.447Z</time></trkpt><trkpt lat="43.0739661" lon="12.2290505"><ele>312.0</ele><time>2026-04-04T09:15:24.447Z</time></trkpt><trkpt lat="43.0738942" lon="12.2292186"><ele>312.0</ele><time>2026-04-04T09:15:25.447Z</time></trkpt><trkpt lat="43.0737985" lon="12.2293688"><ele>312.0</ele><time>2026-04-04T09:15:26.448Z</time></trkpt><trkpt lat="43.0736913" lon="12.2295291"><ele>312.0</ele><time>2026-04-04T09:15:27.448Z</time></trkpt><trkpt lat="43.0735563" lon="12.2296928"><ele>312.0</ele><time>2026-04-04T09:15:28.447Z</time></trkpt><trkpt lat="43.0734274" lon="12.2298556"><ele>312.0</ele><time>2026-04-04T09:15:29.447Z</time></trkpt><trkpt lat="43.0733033" lon="12.2299966"><ele>312.0</ele><time>2026-04-04T09:15:30.447Z</time></trkpt><trkpt lat="43.0731817" lon="12.2301437"><ele>312.0</ele><time>2026-04-04T09:15:31.448Z</time></trkpt><trkpt lat="43.073068" lon="12.2302897"><ele>312.0</ele><time>2026-04-04T09:15:32.448Z</time></trkpt><trkpt lat="43.072953" lon="12.2304495"><ele>312.0</ele><time>2026-04-04T09:15:33.448Z</time></trkpt><trkpt lat="43.0728401" lon="12.2306251"><ele>315.6666666666667</ele><time>2026-04-04T09:15:34.448Z</time></trkpt><trkpt lat="43.0727326" lon="12.2308158"><ele>319.33333333333337</ele><time>2026-04-04T09:15:35.448Z</time></trkpt><trkpt lat="43.07264" lon="12.231018"><ele>323.0</ele><time>2026-04-04T09:15:36.448Z</time></trkpt><trkpt lat="43.0725673" lon="12.2312288"><ele>323.0</ele><time>2026-04-04T09:15:37.448Z</time></trkpt><trkpt lat="43.0725069" lon="12.2314538"><ele>323.0</ele><time>2026-04-04T09:15:38.448Z</time></trkpt><trkpt lat="43.0724495" lon="12.2316841"><ele>323.0</ele><time>2026-04-04T09:15:39.448Z</time></trkpt><trkpt lat="43.0724014" lon="12.2319161"><ele>321.33333333333337</ele><time>2026-04-04T09:15:40.448Z</time></trkpt><trkpt lat="43.0723588" lon="12.2321567"><ele>319.6666666666667</ele><time>2026-04-04T09:15:41.448Z</time></trkpt><trkpt lat="43.0723388" lon="12.2323847"><ele>318.0</ele><time>2026-04-04T09:15:42.448Z</time></trkpt><trkpt lat="43.0723333" lon="12.2326169"><ele>318.0</ele><time>2026-04-04T09:15:43.448Z</time></trkpt><trkpt lat="43.0723342" lon="12.2328314"><ele>318.0</ele><time>2026-04-04T09:15:44.448Z</time></trkpt><trkpt lat="43.072345" lon="12.2330526"><ele>318.0</ele><time>2026-04-04T09:15:45.448Z</time></trkpt><trkpt lat="43.0724042" lon="12.2332515"><ele>322.5</ele><time>2026-04-04T09:15:46.448Z</time></trkpt><trkpt lat="43.0724807" lon="12.233442"><ele>327.0</ele><time>2026-04-04T09:15:47.448Z</time></trkpt><trkpt lat="43.072574" lon="12.2336084"><ele>331.5</ele><time>2026-04-04T09:15:48.448Z</time></trkpt><trkpt lat="43.0726494" lon="12.2337622"><ele>336.0</ele><time>2026-04-04T09:15:49.448Z</time></trkpt><trkpt lat="43.0726909" lon="12.2339179"><ele>336.5</ele><time>2026-04-04T09:15:50.448Z</time></trkpt><trkpt lat="43.07269" lon="12.2341139"><ele>337.0</ele><time>2026-04-04T09:15:51.449Z</time></trkpt><trkpt lat="43.0726449" lon="12.2343055"><ele>337.5</ele><time>2026-04-04T09:15:52.448Z</time></trkpt><trkpt lat="43.0725935" lon="12.2344805"><ele>338.0</ele><time>2026-04-04T09:15:53.448Z</time></trkpt><trkpt lat="43.0725431" lon="12.2346411"><ele>339.5</ele><time>2026-04-04T09:15:54.448Z</time></trkpt><trkpt lat="43.0725074" lon="12.2348137"><ele>341.0</ele><time>2026-04-04T09:15:55.448Z</time></trkpt><trkpt lat="43.0724905" lon="12.2349998"><ele>342.5</ele><time>2026-04-04T09:15:56.448Z</time></trkpt><trkpt lat="43.0725146" lon="12.2352238"><ele>344.0</ele><time>2026-04-04T09:15:57.449Z</time></trkpt><trkpt lat="43.072552" lon="12.235451"><ele>345.6666666666667</ele><time>2026-04-04T09:15:58.448Z</time></trkpt><trkpt lat="43.0725911" lon="12.2356937"><ele>347.3333333333333</ele><time>2026-04-04T09:15:59.448Z</time></trkpt><trkpt lat="43.072627" lon="12.2359237"><ele>349.0</ele><time>2026-04-04T09:16:00.448Z</time></trkpt><trkpt lat="43.0726583" lon="12.2361264"><ele>349.0</ele><time>2026-04-04T09:16:01.448Z</time></trkpt><trkpt lat="43.0726829" lon="12.2363033"><ele>349.0</ele><time>2026-04-04T09:16:02.448Z</time></trkpt><trkpt lat="43.0727035" lon="12.2364647"><ele>349.0</ele><time>2026-04-04T09:16:03.448Z</time></trkpt><trkpt lat="43.0727218" lon="12.236609"><ele>349.0</ele><time>2026-04-04T09:16:04.448Z</time></trkpt><trkpt lat="43.0727246" lon="12.2367451"><ele>349.6</ele><time>2026-04-04T09:16:05.448Z</time></trkpt><trkpt lat="43.0727038" lon="12.2368667"><ele>350.2</ele><time>2026-04-04T09:16:06.449Z</time></trkpt><trkpt lat="43.0726507" lon="12.2369828"><ele>350.8</ele><time>2026-04-04T09:16:07.448Z</time></trkpt><trkpt lat="43.0725635" lon="12.2370553"><ele>351.40000000000003</ele><time>2026-04-04T09:16:08.448Z</time></trkpt><trkpt lat="43.0724474" lon="12.2370447"><ele>352.0</ele><time>2026-04-04T09:16:09.448Z</time></trkpt><trkpt lat="43.0723401" lon="12.2369988"><ele>352.0</ele><time>2026-04-04T09:16:10.448Z</time></trkpt><trkpt lat="43.0722375" lon="12.2369577"><ele>352.0</ele><time>2026-04-04T09:16:11.448Z</time></trkpt><trkpt lat="43.0721376" lon="12.2369487"><ele>352.0</ele><time>2026-04-04T09:16:12.449Z</time></trkpt><trkpt lat="43.0720278" lon="12.236953"><ele>352.0</ele><time>2026-04-04T09:16:13.448Z</time></trkpt><trkpt lat="43.071917" lon="12.236992"><ele>352.0</ele><time>2026-04-04T09:16:14.449Z</time></trkpt><trkpt lat="43.0718369" lon="12.2370817"><ele>352.0</ele><time>2026-04-04T09:16:15.448Z</time></trkpt><trkpt lat="43.0717813" lon="12.2372096"><ele>352.0</ele><time>2026-04-04T09:16:16.448Z</time></trkpt><trkpt lat="43.0717144" lon="12.2373306"><ele>352.0</ele><time>2026-04-04T09:16:17.448Z</time></trkpt><trkpt lat="43.0716528" lon="12.2374685"><ele>352.0</ele><time>2026-04-04T09:16:18.448Z</time></trkpt><trkpt lat="43.071596" lon="12.2376237"><ele>355.5</ele><time>2026-04-04T09:16:19.449Z</time></trkpt><trkpt lat="43.0715373" lon="12.2377804"><ele>359.0</ele><time>2026-04-04T09:16:20.449Z</time></trkpt><trkpt lat="43.0714855" lon="12.2379274"><ele>362.5</ele><time>2026-04-04T09:16:21.448Z</time></trkpt><trkpt lat="43.0714253" lon="12.2380702"><ele>366.0</ele><time>2026-04-04T09:16:22.448Z</time></trkpt><trkpt lat="43.0713747" lon="12.2382072"><ele>367.4</ele><time>2026-04-04T09:16:23.448Z</time></trkpt><trkpt lat="43.0713075" lon="12.2383363"><ele>368.8</ele><time>2026-04-04T09:16:24.448Z</time></trkpt><trkpt lat="43.0712428" lon="12.2384636"><ele>370.2</ele><time>2026-04-04T09:16:25.449Z</time></trkpt><trkpt lat="43.0711842" lon="12.2385907"><ele>371.59999999999997</ele><time>2026-04-04T09:16:26.448Z</time></trkpt><trkpt lat="43.0711267" lon="12.2386973"><ele>373.0</ele><time>2026-04-04T09:16:27.448Z</time></trkpt><trkpt lat="43.0710744" lon="12.2387737"><ele>373.0</ele><time>2026-04-04T09:16:28.448Z</time></trkpt><trkpt lat="43.0709865" lon="12.2388722"><ele>373.0</ele><time>2026-04-04T09:16:30.448Z</time></trkpt><trkpt lat="43.0709548" lon="12.2389492"><ele>373.0</ele><time>2026-04-04T09:16:35.449Z</time></trkpt><trkpt lat="43.0709587" lon="12.2390393"><ele>373.0</ele><time>2026-04-04T09:16:36.449Z</time></trkpt><trkpt lat="43.0709731" lon="12.2391499"><ele>373.0</ele><time>2026-04-04T09:16:37.449Z</time></trkpt><trkpt lat="43.0709875" lon="12.2392667"><ele>373.0</ele><time>2026-04-04T09:16:38.449Z</time></trkpt><trkpt lat="43.0709976" lon="12.2393964"><ele>372.2</ele><time>2026-04-04T09:16:39.449Z</time></trkpt><trkpt lat="43.071001" lon="12.239535"><ele>371.4</ele><time>2026-04-04T09:16:40.45Z</time></trkpt><trkpt lat="43.0710051" lon="12.2396759"><ele>370.59999999999997</ele><time>2026-04-04T09:16:41.45Z</time></trkpt><trkpt lat="43.0710155" lon="12.2398202"><ele>369.79999999999995</ele><time>2026-04-04T09:16:42.449Z</time></trkpt><trkpt lat="43.0710285" lon="12.2399679"><ele>369.0</ele><time>2026-04-04T09:16:43.449Z</time></trkpt><trkpt lat="43.0710648" lon="12.2402602"><ele>368.0</ele><time>2026-04-04T09:16:45.449Z</time></trkpt><trkpt lat="43.0711013" lon="12.2404116"><ele>367.0</ele><time>2026-04-04T09:16:46.449Z</time></trkpt><trkpt lat="43.0711437" lon="12.2405431"><ele>366.0</ele><time>2026-04-04T09:16:47.449Z</time></trkpt><trkpt lat="43.071217" lon="12.2406712"><ele>365.0</ele><time>2026-04-04T09:16:48.449Z</time></trkpt><trkpt lat="43.0713009" lon="12.2407984"><ele>364.2</ele><time>2026-04-04T09:16:49.449Z</time></trkpt><trkpt lat="43.0713947" lon="12.2409117"><ele>363.4</ele><time>2026-04-04T09:16:50.449Z</time></trkpt><trkpt lat="43.0714822" lon="12.241024"><ele>362.6</ele><time>2026-04-04T09:16:51.449Z</time></trkpt><trkpt lat="43.0715502" lon="12.241129"><ele>361.8</ele><time>2026-04-04T09:16:52.449Z</time></trkpt><trkpt lat="43.0716023" lon="12.2412284"><ele>361.0</ele><time>2026-04-04T09:16:53.45Z</time></trkpt><trkpt lat="43.0716196" lon="12.2413328"><ele>362.16666666666663</ele><time>2026-04-04T09:16:54.449Z</time></trkpt><trkpt lat="43.071649" lon="12.2414327"><ele>363.3333333333333</ele><time>2026-04-04T09:16:55.449Z</time></trkpt><trkpt lat="43.071697" lon="12.2415159"><ele>364.5</ele><time>2026-04-04T09:16:56.45Z</time></trkpt><trkpt lat="43.0717554" lon="12.2415938"><ele>365.6666666666667</ele><time>2026-04-04T09:16:57.449Z</time></trkpt><trkpt lat="43.0718246" lon="12.2416415"><ele>366.83333333333337</ele><time>2026-04-04T09:16:58.449Z</time></trkpt><trkpt lat="43.0719126" lon="12.2416612"><ele>368.0</ele><time>2026-04-04T09:16:59.449Z</time></trkpt><trkpt lat="43.0720075" lon="12.2416832"><ele>368.0</ele><time>2026-04-04T09:17:00.449Z</time></trkpt><trkpt lat="43.0720959" lon="12.2417018"><ele>368.0</ele><time>2026-04-04T09:17:01.449Z</time></trkpt><trkpt lat="43.0721677" lon="12.2417274"><ele>368.0</ele><time>2026-04-04T09:17:02.449Z</time></trkpt><trkpt lat="43.072236" lon="12.2418429"><ele>368.0</ele><time>2026-04-04T09:17:04.45Z</time></trkpt><trkpt lat="43.0722209" lon="12.2419606"><ele>368.0</ele><time>2026-04-04T09:17:05.449Z</time></trkpt><trkpt lat="43.0721811" lon="12.2421089"><ele>368.0</ele><time>2026-04-04T09:17:06.449Z</time></trkpt><trkpt lat="43.0721346" lon="12.242263"><ele>368.0</ele><time>2026-04-04T09:17:07.449Z</time></trkpt><trkpt lat="43.0721123" lon="12.2423881"><ele>368.0</ele><time>2026-04-04T09:17:08.449Z</time></trkpt><trkpt lat="43.0721093" lon="12.2424978"><ele>368.0</ele><time>2026-04-04T09:17:09.449Z</time></trkpt><trkpt lat="43.0721388" lon="12.2426137"><ele>368.0</ele><time>2026-04-04T09:17:10.449Z</time></trkpt><trkpt lat="43.0722115" lon="12.2426893"><ele>365.5</ele><time>2026-04-04T09:17:11.45Z</time></trkpt><trkpt lat="43.0723054" lon="12.2427724"><ele>363.0</ele><time>2026-04-04T09:17:12.449Z</time></trkpt><trkpt lat="43.0724053" lon="12.2428581"><ele>360.5</ele><time>2026-04-04T09:17:13.45Z</time></trkpt><trkpt lat="43.072513" lon="12.2429477"><ele>358.0</ele><time>2026-04-04T09:17:14.449Z</time></trkpt><trkpt lat="43.0726271" lon="12.2430451"><ele>355.0</ele><time>2026-04-04T09:17:15.449Z</time></trkpt><trkpt lat="43.0727518" lon="12.243131"><ele>352.0</ele><time>2026-04-04T09:17:16.449Z</time></trkpt><trkpt lat="43.0728843" lon="12.2432091"><ele>349.0</ele><time>2026-04-04T09:17:17.45Z</time></trkpt><trkpt lat="43.0730236" lon="12.2432833"><ele>346.0</ele><time>2026-04-04T09:17:18.45Z</time></trkpt><trkpt lat="43.0731602" lon="12.24337"><ele>347.25</ele><time>2026-04-04T09:17:19.449Z</time></trkpt><trkpt lat="43.0732948" lon="12.2434567"><ele>348.5</ele><time>2026-04-04T09:17:20.449Z</time></trkpt><trkpt lat="43.0734264" lon="12.2435462"><ele>349.75</ele><time>2026-04-04T09:17:21.449Z</time></trkpt><trkpt lat="43.0735539" lon="12.2436354"><ele>351.0</ele><time>2026-04-04T09:17:22.449Z</time></trkpt><trkpt lat="43.0736729" lon="12.2437265"><ele>351.0</ele><time>2026-04-04T09:17:23.449Z</time></trkpt><trkpt lat="43.0737876" lon="12.2438121"><ele>351.0</ele><time>2026-04-04T09:17:24.449Z</time></trkpt><trkpt lat="43.0739024" lon="12.2438965"><ele>351.0</ele><time>2026-04-04T09:17:25.449Z</time></trkpt><trkpt lat="43.0740168" lon="12.2439866"><ele>351.0</ele><time>2026-04-04T09:17:26.449Z</time></trkpt><trkpt lat="43.0741395" lon="12.2440808"><ele>353.0</ele><time>2026-04-04T09:17:27.449Z</time></trkpt><trkpt lat="43.0742616" lon="12.2441755"><ele>355.0</ele><time>2026-04-04T09:17:28.449Z</time></trkpt><trkpt lat="43.0743837" lon="12.2442806"><ele>357.0</ele><time>2026-04-04T09:17:29.449Z</time></trkpt><trkpt lat="43.074508" lon="12.2443901"><ele>359.0</ele><time>2026-04-04T09:17:30.449Z</time></trkpt><trkpt lat="43.074632" lon="12.2445005"><ele>359.0</ele><time>2026-04-04T09:17:31.45Z</time></trkpt><trkpt lat="43.0747537" lon="12.2446127"><ele>359.0</ele><time>2026-04-04T09:17:32.45Z</time></trkpt><trkpt lat="43.074873" lon="12.2447252"><ele>359.0</ele><time>2026-04-04T09:17:33.45Z</time></trkpt><trkpt lat="43.074989" lon="12.244846"><ele>359.0</ele><time>2026-04-04T09:17:34.45Z</time></trkpt><trkpt lat="43.0751005" lon="12.2449736"><ele>359.25</ele><time>2026-04-04T09:17:35.451Z</time></trkpt><trkpt lat="43.0752065" lon="12.2451121"><ele>359.5</ele><time>2026-04-04T09:17:36.45Z</time></trkpt><trkpt lat="43.0753031" lon="12.2452652"><ele>359.75</ele><time>2026-04-04T09:17:37.45Z</time></trkpt><trkpt lat="43.0753862" lon="12.2454408"><ele>360.0</ele><time>2026-04-04T09:17:38.45Z</time></trkpt><trkpt lat="43.0754557" lon="12.2456367"><ele>358.6666666666667</ele><time>2026-04-04T09:17:39.45Z</time></trkpt><trkpt lat="43.0755135" lon="12.2458533"><ele>357.33333333333337</ele><time>2026-04-04T09:17:40.45Z</time></trkpt><trkpt lat="43.0755598" lon="12.2460804"><ele>356.0</ele><time>2026-04-04T09:17:41.45Z</time></trkpt><trkpt lat="43.075612" lon="12.2463039"><ele>356.6666666666667</ele><time>2026-04-04T09:17:42.45Z</time></trkpt><trkpt lat="43.0756735" lon="12.2465216"><ele>357.3333333333333</ele><time>2026-04-04T09:17:43.45Z</time></trkpt><trkpt lat="43.0757426" lon="12.2467271"><ele>358.0</ele><time>2026-04-04T09:17:44.45Z</time></trkpt><trkpt lat="43.075811" lon="12.2469222"><ele>358.0</ele><time>2026-04-04T09:17:45.45Z</time></trkpt><trkpt lat="43.0758717" lon="12.2471126"><ele>358.0</ele><time>2026-04-04T09:17:46.45Z</time></trkpt><trkpt lat="43.075947" lon="12.247291"><ele>358.0</ele><time>2026-04-04T09:17:47.45Z</time></trkpt><trkpt lat="43.076032" lon="12.2474545"><ele>358.0</ele><time>2026-04-04T09:17:48.45Z</time></trkpt><trkpt lat="43.0761217" lon="12.2476159"><ele>355.5</ele><time>2026-04-04T09:17:49.45Z</time></trkpt><trkpt lat="43.0761986" lon="12.2477752"><ele>353.0</ele><time>2026-04-04T09:17:50.45Z</time></trkpt><trkpt lat="43.0762622" lon="12.2479673"><ele>350.5</ele><time>2026-04-04T09:17:51.45Z</time></trkpt><trkpt lat="43.0763015" lon="12.248166"><ele>348.0</ele><time>2026-04-04T09:17:52.451Z</time></trkpt><trkpt lat="43.0763216" lon="12.2483774"><ele>346.25</ele><time>2026-04-04T09:17:53.45Z</time></trkpt><trkpt lat="43.0763369" lon="12.2485809"><ele>344.5</ele><time>2026-04-04T09:17:54.45Z</time></trkpt><trkpt lat="43.0763453" lon="12.2487867"><ele>342.75</ele><time>2026-04-04T09:17:55.451Z</time></trkpt><trkpt lat="43.0763442" lon="12.2489845"><ele>341.0</ele><time>2026-04-04T09:17:56.45Z</time></trkpt><trkpt lat="43.0763445" lon="12.2491757"><ele>340.5</ele><time>2026-04-04T09:17:57.45Z</time></trkpt><trkpt lat="43.0763561" lon="12.2493564"><ele>340.0</ele><time>2026-04-04T09:17:58.451Z</time></trkpt><trkpt lat="43.076377" lon="12.2495406"><ele>339.5</ele><time>2026-04-04T09:17:59.45Z</time></trkpt><trkpt lat="43.0764096" lon="12.2497055"><ele>339.0</ele><time>2026-04-04T09:18:00.45Z</time></trkpt><trkpt lat="43.0764501" lon="12.249853"><ele>339.75</ele><time>2026-04-04T09:18:01.45Z</time></trkpt><trkpt lat="43.0765298" lon="12.2499896"><ele>340.5</ele><time>2026-04-04T09:18:02.451Z</time></trkpt><trkpt lat="43.0766473" lon="12.2501052"><ele>341.25</ele><time>2026-04-04T09:18:03.45Z</time></trkpt><trkpt lat="43.0767548" lon="12.25023"><ele>342.0</ele><time>2026-04-04T09:18:04.45Z</time></trkpt><trkpt lat="43.0768521" lon="12.250349"><ele>342.0</ele><time>2026-04-04T09:18:05.45Z</time></trkpt><trkpt lat="43.0769361" lon="12.2504899"><ele>342.0</ele><time>2026-04-04T09:18:06.45Z</time></trkpt><trkpt lat="43.0770118" lon="12.2506396"><ele>342.0</ele><time>2026-04-04T09:18:07.45Z</time></trkpt><trkpt lat="43.0770735" lon="12.2507857"><ele>342.0</ele><time>2026-04-04T09:18:08.45Z</time></trkpt><trkpt lat="43.0771328" lon="12.2509212"><ele>340.40000000000003</ele><time>2026-04-04T09:18:09.45Z</time></trkpt><trkpt lat="43.0771837" lon="12.2510521"><ele>338.8</ele><time>2026-04-04T09:18:10.45Z</time></trkpt><trkpt lat="43.0772272" lon="12.251165"><ele>337.2</ele><time>2026-04-04T09:18:11.45Z</time></trkpt><trkpt lat="43.0772752" lon="12.2512621"><ele>335.6</ele><time>2026-04-04T09:18:12.45Z</time></trkpt><trkpt lat="43.0773341" lon="12.2513566"><ele>334.0</ele><time>2026-04-04T09:18:13.45Z</time></trkpt><trkpt lat="43.0774079" lon="12.2514367"><ele>331.75</ele><time>2026-04-04T09:18:14.45Z</time></trkpt><trkpt lat="43.0775184" lon="12.2514955"><ele>329.5</ele><time>2026-04-04T09:18:15.45Z</time></trkpt><trkpt lat="43.0776487" lon="12.2515769"><ele>327.25</ele><time>2026-04-04T09:18:16.45Z</time></trkpt><trkpt lat="43.0777942" lon="12.2516552"><ele>325.0</ele><time>2026-04-04T09:18:17.45Z</time></trkpt><trkpt lat="43.0779563" lon="12.2517291"><ele>325.0</ele><time>2026-04-04T09:18:18.451Z</time></trkpt><trkpt lat="43.0781255" lon="12.2517862"><ele>325.0</ele><time>2026-04-04T09:18:19.45Z</time></trkpt><trkpt lat="43.0782846" lon="12.251843"><ele>325.0</ele><time>2026-04-04T09:18:20.45Z</time></trkpt><trkpt lat="43.0784399" lon="12.2519107"><ele>324.5</ele><time>2026-04-04T09:18:21.45Z</time></trkpt><trkpt lat="43.0785902" lon="12.2519837"><ele>324.0</ele><time>2026-04-04T09:18:22.45Z</time></trkpt><trkpt lat="43.0787208" lon="12.2520664"><ele>323.5</ele><time>2026-04-04T09:18:23.451Z</time></trkpt><trkpt lat="43.0788386" lon="12.2521485"><ele>323.0</ele><time>2026-04-04T09:18:24.45Z</time></trkpt><trkpt lat="43.0789622" lon="12.2522288"><ele>318.75</ele><time>2026-04-04T09:18:25.45Z</time></trkpt><trkpt lat="43.079095" lon="12.2522958"><ele>314.5</ele><time>2026-04-04T09:18:26.451Z</time></trkpt><trkpt lat="43.0792334" lon="12.2523472"><ele>310.25</ele><time>2026-04-04T09:18:27.45Z</time></trkpt><trkpt lat="43.0793739" lon="12.2523827"><ele>306.0</ele><time>2026-04-04T09:18:28.45Z</time></trkpt><trkpt lat="43.0795271" lon="12.2524097"><ele>306.0</ele><time>2026-04-04T09:18:29.45Z</time></trkpt><trkpt lat="43.0796965" lon="12.2524278"><ele>306.0</ele><time>2026-04-04T09:18:30.451Z</time></trkpt><trkpt lat="43.07987" lon="12.2524563"><ele>306.0</ele><time>2026-04-04T09:18:31.451Z</time></trkpt><trkpt lat="43.0800389" lon="12.252509"><ele>306.6666666666667</ele><time>2026-04-04T09:18:32.451Z</time></trkpt><trkpt lat="43.0802032" lon="12.252589"><ele>307.33333333333337</ele><time>2026-04-04T09:18:33.451Z</time></trkpt><trkpt lat="43.080362" lon="12.2527094"><ele>308.0</ele><time>2026-04-04T09:18:34.451Z</time></trkpt><trkpt lat="43.080508" lon="12.252858"><ele>308.0</ele><time>2026-04-04T09:18:35.451Z</time></trkpt><trkpt lat="43.0806303" lon="12.2530072"><ele>308.0</ele><time>2026-04-04T09:18:36.452Z</time></trkpt><trkpt lat="43.0807466" lon="12.253147"><ele>308.0</ele><time>2026-04-04T09:18:37.452Z</time></trkpt><trkpt lat="43.0808545" lon="12.253274"><ele>307.25</ele><time>2026-04-04T09:18:38.451Z</time></trkpt><trkpt lat="43.0809555" lon="12.253397"><ele>306.5</ele><time>2026-04-04T09:18:39.451Z</time></trkpt><trkpt lat="43.0810544" lon="12.253548"><ele>305.75</ele><time>2026-04-04T09:18:40.451Z</time></trkpt><trkpt lat="43.0811279" lon="12.2537312"><ele>305.0</ele><time>2026-04-04T09:18:41.452Z</time></trkpt><trkpt lat="43.0811931" lon="12.2539213"><ele>303.0</ele><time>2026-04-04T09:18:42.451Z</time></trkpt><trkpt lat="43.0812432" lon="12.2541176"><ele>301.0</ele><time>2026-04-04T09:18:43.451Z</time></trkpt><trkpt lat="43.0812905" lon="12.2543126"><ele>299.0</ele><time>2026-04-04T09:18:44.451Z</time></trkpt><trkpt lat="43.0813383" lon="12.2544895"><ele>297.0</ele><time>2026-04-04T09:18:45.452Z</time></trkpt><trkpt lat="43.0814015" lon="12.2546355"><ele>297.0</ele><time>2026-04-04T09:18:46.451Z</time></trkpt><trkpt lat="43.0814828" lon="12.2547668"><ele>297.0</ele><time>2026-04-04T09:18:47.452Z</time></trkpt><trkpt lat="43.0815739" lon="12.2548854"><ele>297.0</ele><time>2026-04-04T09:18:48.451Z</time></trkpt><trkpt lat="43.0816666" lon="12.2550044"><ele>297.0</ele><time>2026-04-04T09:18:49.451Z</time></trkpt><trkpt lat="43.0817706" lon="12.2551082"><ele>298.5</ele><time>2026-04-04T09:18:50.451Z</time></trkpt><trkpt lat="43.0818855" lon="12.2551942"><ele>300.0</ele><time>2026-04-04T09:18:51.451Z</time></trkpt><trkpt lat="43.0820059" lon="12.2552714"><ele>301.5</ele><time>2026-04-04T09:18:52.451Z</time></trkpt><trkpt lat="43.0821274" lon="12.2553105"><ele>303.0</ele><time>2026-04-04T09:18:53.451Z</time></trkpt><trkpt lat="43.0822654" lon="12.255326"><ele>303.0</ele><time>2026-04-04T09:18:54.451Z</time></trkpt><trkpt lat="43.0824148" lon="12.2553014"><ele>303.0</ele><time>2026-04-04T09:18:55.451Z</time></trkpt><trkpt lat="43.0825594" lon="12.255285"><ele>303.0</ele><time>2026-04-04T09:18:56.451Z</time></trkpt><trkpt lat="43.0826924" lon="12.2552694"><ele>303.0</ele><time>2026-04-04T09:18:57.452Z</time></trkpt><trkpt lat="43.0828278" lon="12.2552543"><ele>303.25</ele><time>2026-04-04T09:18:58.451Z</time></trkpt><trkpt lat="43.0829556" lon="12.2552512"><ele>303.5</ele><time>2026-04-04T09:18:59.451Z</time></trkpt><trkpt lat="43.0830768" lon="12.2552597"><ele>303.75</ele><time>2026-04-04T09:19:00.451Z</time></trkpt><trkpt lat="43.0832069" lon="12.255284"><ele>304.0</ele><time>2026-04-04T09:19:01.452Z</time></trkpt><trkpt lat="43.0833296" lon="12.2553248"><ele>302.0</ele><time>2026-04-04T09:19:02.451Z</time></trkpt><trkpt lat="43.083446" lon="12.2553731"><ele>300.0</ele><time>2026-04-04T09:19:03.451Z</time></trkpt><trkpt lat="43.0835618" lon="12.2554468"><ele>298.0</ele><time>2026-04-04T09:19:04.451Z</time></trkpt><trkpt lat="43.0836741" lon="12.2555465"><ele>296.0</ele><time>2026-04-04T09:19:05.451Z</time></trkpt><trkpt lat="43.0837738" lon="12.2556668"><ele>294.5</ele><time>2026-04-04T09:19:06.451Z</time></trkpt><trkpt lat="43.0838677" lon="12.2557962"><ele>293.0</ele><time>2026-04-04T09:19:07.451Z</time></trkpt><trkpt lat="43.0839578" lon="12.2559213"><ele>291.5</ele><time>2026-04-04T09:19:08.451Z</time></trkpt><trkpt lat="43.0840489" lon="12.2560222"><ele>290.0</ele><time>2026-04-04T09:19:09.452Z</time></trkpt><trkpt lat="43.0841418" lon="12.2560996"><ele>290.0</ele><time>2026-04-04T09:19:10.451Z</time></trkpt><trkpt lat="43.0842436" lon="12.25614"><ele>290.0</ele><time>2026-04-04T09:19:11.451Z</time></trkpt><trkpt lat="43.0843481" lon="12.2561678"><ele>290.0</ele><time>2026-04-04T09:19:12.451Z</time></trkpt><trkpt lat="43.0844441" lon="12.2561808"><ele>290.0</ele><time>2026-04-04T09:19:13.451Z</time></trkpt><trkpt lat="43.0845436" lon="12.2561493"><ele>290.0</ele><time>2026-04-04T09:19:14.452Z</time></trkpt><trkpt lat="43.0846659" lon="12.2561057"><ele>290.0</ele><time>2026-04-04T09:19:15.451Z</time></trkpt><trkpt lat="43.0847777" lon="12.256101"><ele>290.0</ele><time>2026-04-04T09:19:16.452Z</time></trkpt><trkpt lat="43.0848829" lon="12.2561319"><ele>290.0</ele><time>2026-04-04T09:19:17.451Z</time></trkpt><trkpt lat="43.0849875" lon="12.2561761"><ele>290.0</ele><time>2026-04-04T09:19:18.452Z</time></trkpt><trkpt lat="43.0851014" lon="12.2562313"><ele>287.75</ele><time>2026-04-04T09:19:19.451Z</time></trkpt><trkpt lat="43.0852306" lon="12.2562788"><ele>285.5</ele><time>2026-04-04T09:19:20.451Z</time></trkpt><trkpt lat="43.0853577" lon="12.2563196"><ele>283.25</ele><time>2026-04-04T09:19:21.451Z</time></trkpt><trkpt lat="43.0854828" lon="12.2563513"><ele>281.0</ele><time>2026-04-04T09:19:22.451Z</time></trkpt><trkpt lat="43.0856069" lon="12.2563847"><ele>281.0</ele><time>2026-04-04T09:19:23.451Z</time></trkpt><trkpt lat="43.0857305" lon="12.2564203"><ele>281.0</ele><time>2026-04-04T09:19:24.451Z</time></trkpt><trkpt lat="43.0858496" lon="12.2564509"><ele>281.0</ele><time>2026-04-04T09:19:25.451Z</time></trkpt><trkpt lat="43.0859707" lon="12.2564778"><ele>281.0</ele><time>2026-04-04T09:19:26.451Z</time></trkpt><trkpt lat="43.0860964" lon="12.256499"><ele>280.75</ele><time>2026-04-04T09:19:27.451Z</time></trkpt><trkpt lat="43.0862301" lon="12.2565091"><ele>280.5</ele><time>2026-04-04T09:19:28.451Z</time></trkpt><trkpt lat="43.08638" lon="12.2565101"><ele>280.25</ele><time>2026-04-04T09:19:29.452Z</time></trkpt><trkpt lat="43.0865136" lon="12.2564607"><ele>280.0</ele><time>2026-04-04T09:19:30.453Z</time></trkpt><trkpt lat="43.0866492" lon="12.2563904"><ele>274.75</ele><time>2026-04-04T09:19:31.453Z</time></trkpt><trkpt lat="43.0867899" lon="12.2563137"><ele>269.5</ele><time>2026-04-04T09:19:32.453Z</time></trkpt><trkpt lat="43.0869233" lon="12.2562353"><ele>264.25</ele><time>2026-04-04T09:19:33.452Z</time></trkpt><trkpt lat="43.0870458" lon="12.2561408"><ele>259.0</ele><time>2026-04-04T09:19:34.453Z</time></trkpt><trkpt lat="43.0871631" lon="12.256031"><ele>259.0</ele><time>2026-04-04T09:19:35.453Z</time></trkpt><trkpt lat="43.0872883" lon="12.2559319"><ele>259.0</ele><time>2026-04-04T09:19:36.452Z</time></trkpt><trkpt lat="43.087406" lon="12.2558506"><ele>259.0</ele><time>2026-04-04T09:19:37.452Z</time></trkpt><trkpt lat="43.0875283" lon="12.2558024"><ele>259.0</ele><time>2026-04-04T09:19:38.452Z</time></trkpt><trkpt lat="43.0876486" lon="12.255812"><ele>258.5</ele><time>2026-04-04T09:19:39.452Z</time></trkpt><trkpt lat="43.0877833" lon="12.2558994"><ele>258.0</ele><time>2026-04-04T09:19:40.453Z</time></trkpt><trkpt lat="43.087899" lon="12.2560146"><ele>257.5</ele><time>2026-04-04T09:19:41.452Z</time></trkpt><trkpt lat="43.0880001" lon="12.2561446"><ele>257.0</ele><time>2026-04-04T09:19:42.452Z</time></trkpt><trkpt lat="43.0881174" lon="12.2562787"><ele>257.0</ele><time>2026-04-04T09:19:43.453Z</time></trkpt><trkpt lat="43.0882302" lon="12.2564105"><ele>257.0</ele><time>2026-04-04T09:19:44.452Z</time></trkpt><trkpt lat="43.0883445" lon="12.2565403"><ele>257.0</ele><time>2026-04-04T09:19:45.453Z</time></trkpt><trkpt lat="43.0884543" lon="12.2566868"><ele>255.0</ele><time>2026-04-04T09:19:46.452Z</time></trkpt><trkpt lat="43.0885598" lon="12.2568402"><ele>253.0</ele><time>2026-04-04T09:19:47.452Z</time></trkpt><trkpt lat="43.0886501" lon="12.2569907"><ele>251.0</ele><time>2026-04-04T09:19:48.452Z</time></trkpt><trkpt lat="43.0887348" lon="12.2571489"><ele>249.0</ele><time>2026-04-04T09:19:49.452Z</time></trkpt><trkpt lat="43.0888259" lon="12.2572846"><ele>247.75</ele><time>2026-04-04T09:19:50.452Z</time></trkpt><trkpt lat="43.0889352" lon="12.2573856"><ele>246.5</ele><time>2026-04-04T09:19:51.452Z</time></trkpt><trkpt lat="43.0890564" lon="12.2574652"><ele>245.25</ele><time>2026-04-04T09:19:52.452Z</time></trkpt><trkpt lat="43.0891818" lon="12.257529"><ele>244.0</ele><time>2026-04-04T09:19:53.453Z</time></trkpt><trkpt lat="43.089321" lon="12.2575798"><ele>244.0</ele><time>2026-04-04T09:19:54.452Z</time></trkpt><trkpt lat="43.0894676" lon="12.2576105"><ele>244.0</ele><time>2026-04-04T09:19:55.452Z</time></trkpt><trkpt lat="43.0896127" lon="12.2576286"><ele>244.0</ele><time>2026-04-04T09:19:56.452Z</time></trkpt><trkpt lat="43.0897534" lon="12.2576449"><ele>244.0</ele><time>2026-04-04T09:19:57.452Z</time></trkpt><trkpt lat="43.0898897" lon="12.2576642"><ele>242.0</ele><time>2026-04-04T09:19:58.452Z</time></trkpt><trkpt lat="43.0900234" lon="12.2576886"><ele>240.0</ele><time>2026-04-04T09:19:59.452Z</time></trkpt><trkpt lat="43.0901521" lon="12.2577141"><ele>238.0</ele><time>2026-04-04T09:20:00.452Z</time></trkpt><trkpt lat="43.0902801" lon="12.2577416"><ele>236.0</ele><time>2026-04-04T09:20:01.452Z</time></trkpt><trkpt lat="43.0904041" lon="12.2577767"><ele>236.0</ele><time>2026-04-04T09:20:02.452Z</time></trkpt><trkpt lat="43.0905328" lon="12.2578303"><ele>236.0</ele><time>2026-04-04T09:20:03.452Z</time></trkpt><trkpt lat="43.0906633" lon="12.2578902"><ele>236.0</ele><time>2026-04-04T09:20:04.452Z</time></trkpt><trkpt lat="43.0907978" lon="12.2579481"><ele>236.0</ele><time>2026-04-04T09:20:05.452Z</time></trkpt><trkpt lat="43.0909367" lon="12.2580008"><ele>235.0</ele><time>2026-04-04T09:20:06.452Z</time></trkpt><trkpt lat="43.0910778" lon="12.2580519"><ele>234.0</ele><time>2026-04-04T09:20:07.452Z</time></trkpt><trkpt lat="43.0912168" lon="12.2581064"><ele>233.0</ele><time>2026-04-04T09:20:08.453Z</time></trkpt><trkpt lat="43.0913512" lon="12.2581649"><ele>232.0</ele><time>2026-04-04T09:20:09.452Z</time></trkpt><trkpt lat="43.0914704" lon="12.2582317"><ele>232.0</ele><time>2026-04-04T09:20:10.452Z</time></trkpt><trkpt lat="43.091571" lon="12.2583178"><ele>232.0</ele><time>2026-04-04T09:20:11.452Z</time></trkpt><trkpt lat="43.0916695" lon="12.2584269"><ele>232.0</ele><time>2026-04-04T09:20:12.452Z</time></trkpt><trkpt lat="43.0917453" lon="12.2585655"><ele>232.0</ele><time>2026-04-04T09:20:13.452Z</time></trkpt><trkpt lat="43.0918036" lon="12.2587558"><ele>229.33333333333331</ele><time>2026-04-04T09:20:14.452Z</time></trkpt><trkpt lat="43.0918586" lon="12.258983"><ele>226.66666666666669</ele><time>2026-04-04T09:20:15.453Z</time></trkpt><trkpt lat="43.0918951" lon="12.2592229"><ele>224.0</ele><time>2026-04-04T09:20:16.453Z</time></trkpt><trkpt lat="43.0919216" lon="12.2595244"><ele>223.66666666666669</ele><time>2026-04-04T09:20:17.453Z</time></trkpt><trkpt lat="43.0919551" lon="12.2598092"><ele>223.33333333333331</ele><time>2026-04-04T09:20:18.452Z</time></trkpt><trkpt lat="43.0919944" lon="12.2600952"><ele>223.0</ele><time>2026-04-04T09:20:19.452Z</time></trkpt><trkpt lat="43.0920349" lon="12.2603853"><ele>222.33333333333331</ele><time>2026-04-04T09:20:20.452Z</time></trkpt><trkpt lat="43.0920684" lon="12.2606794"><ele>221.66666666666669</ele><time>2026-04-04T09:20:21.453Z</time></trkpt><trkpt lat="43.0921042" lon="12.2609775"><ele>221.0</ele><time>2026-04-04T09:20:22.452Z</time></trkpt><trkpt lat="43.0921476" lon="12.2612922"><ele>221.0</ele><time>2026-04-04T09:20:23.452Z</time></trkpt><trkpt lat="43.0921919" lon="12.2615734"><ele>221.0</ele><time>2026-04-04T09:20:24.452Z</time></trkpt><trkpt lat="43.0922319" lon="12.2618669"><ele>221.0</ele><time>2026-04-04T09:20:25.452Z</time></trkpt><trkpt lat="43.0922866" lon="12.262151"><ele>221.33333333333334</ele><time>2026-04-04T09:20:26.453Z</time></trkpt><trkpt lat="43.0923404" lon="12.262421"><ele>221.66666666666669</ele><time>2026-04-04T09:20:27.453Z</time></trkpt><trkpt lat="43.0923878" lon="12.2626928"><ele>222.0</ele><time>2026-04-04T09:20:28.452Z</time></trkpt><trkpt lat="43.0924432" lon="12.2629663"><ele>222.66666666666669</ele><time>2026-04-04T09:20:29.453Z</time></trkpt><trkpt lat="43.0924984" lon="12.2632455"><ele>223.33333333333334</ele><time>2026-04-04T09:20:30.452Z</time></trkpt><trkpt lat="43.0925532" lon="12.2635231"><ele>224.0</ele><time>2026-04-04T09:20:31.452Z</time></trkpt><trkpt lat="43.0926072" lon="12.2638016"><ele>223.66666666666669</ele><time>2026-04-04T09:20:32.453Z</time></trkpt><trkpt lat="43.0926621" lon="12.2640697"><ele>223.33333333333331</ele><time>2026-04-04T09:20:33.453Z</time></trkpt><trkpt lat="43.0927155" lon="12.2643303"><ele>223.0</ele><time>2026-04-04T09:20:34.453Z</time></trkpt><trkpt lat="43.0927692" lon="12.2645905"><ele>223.0</ele><time>2026-04-04T09:20:35.453Z</time></trkpt><trkpt lat="43.0928248" lon="12.2648475"><ele>223.0</ele><time>2026-04-04T09:20:36.453Z</time></trkpt><trkpt lat="43.0928766" lon="12.2651066"><ele>223.0</ele><time>2026-04-04T09:20:37.453Z</time></trkpt><trkpt lat="43.0929297" lon="12.2653623"><ele>223.66666666666666</ele><time>2026-04-04T09:20:38.453Z</time></trkpt><trkpt lat="43.0929786" lon="12.2656298"><ele>224.33333333333331</ele><time>2026-04-04T09:20:39.453Z</time></trkpt><trkpt lat="43.0930228" lon="12.2658867"><ele>225.0</ele><time>2026-04-04T09:20:40.453Z</time></trkpt><trkpt lat="43.0930758" lon="12.2661418"><ele>225.0</ele><time>2026-04-04T09:20:41.453Z</time></trkpt><trkpt lat="43.0931218" lon="12.2663882"><ele>225.0</ele><time>2026-04-04T09:20:42.453Z</time></trkpt><trkpt lat="43.0931725" lon="12.2666451"><ele>225.0</ele><time>2026-04-04T09:20:43.453Z</time></trkpt><trkpt lat="43.0932202" lon="12.2668922"><ele>225.0</ele><time>2026-04-04T09:20:44.453Z</time></trkpt><trkpt lat="43.0932641" lon="12.2671257"><ele>225.0</ele><time>2026-04-04T09:20:45.453Z</time></trkpt><trkpt lat="43.0933121" lon="12.2673452"><ele>225.0</ele><time>2026-04-04T09:20:46.453Z</time></trkpt><trkpt lat="43.0933648" lon="12.2675661"><ele>225.0</ele><time>2026-04-04T09:20:47.453Z</time></trkpt><trkpt lat="43.0934119" lon="12.2677725"><ele>225.0</ele><time>2026-04-04T09:20:48.454Z</time></trkpt><trkpt lat="43.0934489" lon="12.2679752"><ele>225.0</ele><time>2026-04-04T09:20:49.453Z</time></trkpt><trkpt lat="43.093493" lon="12.2681587"><ele>224.5</ele><time>2026-04-04T09:20:50.453Z</time></trkpt><trkpt lat="43.0935323" lon="12.2683319"><ele>224.0</ele><time>2026-04-04T09:20:51.453Z</time></trkpt><trkpt lat="43.0935678" lon="12.2684906"><ele>223.5</ele><time>2026-04-04T09:20:52.453Z</time></trkpt><trkpt lat="43.0935938" lon="12.2686311"><ele>223.0</ele><time>2026-04-04T09:20:53.453Z</time></trkpt><trkpt lat="43.0936074" lon="12.2687567"><ele>223.0</ele><time>2026-04-04T09:20:54.453Z</time></trkpt><trkpt lat="43.0935871" lon="12.268867"><ele>223.0</ele><time>2026-04-04T09:20:55.454Z</time></trkpt><trkpt lat="43.0935354" lon="12.2689462"><ele>223.0</ele><time>2026-04-04T09:20:56.454Z</time></trkpt><trkpt lat="43.0934537" lon="12.2689934"><ele>223.0</ele><time>2026-04-04T09:20:57.453Z</time></trkpt><trkpt lat="43.0933479" lon="12.2690171"><ele>223.0</ele><time>2026-04-04T09:20:58.453Z</time></trkpt><trkpt lat="43.0932053" lon="12.2690047"><ele>223.0</ele><time>2026-04-04T09:20:59.453Z</time></trkpt><trkpt lat="43.0930455" lon="12.268993"><ele>223.0</ele><time>2026-04-04T09:21:00.453Z</time></trkpt><trkpt lat="43.0928848" lon="12.2689823"><ele>223.0</ele><time>2026-04-04T09:21:01.453Z</time></trkpt><trkpt lat="43.092736" lon="12.268993"><ele>223.0</ele><time>2026-04-04T09:21:02.454Z</time></trkpt><trkpt lat="43.0925761" lon="12.268989"><ele>223.0</ele><time>2026-04-04T09:21:03.453Z</time></trkpt><trkpt lat="43.0924095" lon="12.2689688"><ele>223.0</ele><time>2026-04-04T09:21:04.453Z</time></trkpt><trkpt lat="43.0922453" lon="12.2689424"><ele>227.0</ele><time>2026-04-04T09:21:05.453Z</time></trkpt><trkpt lat="43.0920728" lon="12.2689131"><ele>231.0</ele><time>2026-04-04T09:21:06.453Z</time></trkpt><trkpt lat="43.0919218" lon="12.2688888"><ele>235.0</ele><time>2026-04-04T09:21:07.453Z</time></trkpt><trkpt lat="43.0917775" lon="12.2688487"><ele>235.0</ele><time>2026-04-04T09:21:08.454Z</time></trkpt><trkpt lat="43.0916563" lon="12.2688147"><ele>235.0</ele><time>2026-04-04T09:21:09.453Z</time></trkpt><trkpt lat="43.091542" lon="12.2688082"><ele>235.0</ele><time>2026-04-04T09:21:10.453Z</time></trkpt><trkpt lat="43.0914247" lon="12.2688368"><ele>235.0</ele><time>2026-04-04T09:21:11.453Z</time></trkpt><trkpt lat="43.0913018" lon="12.2688843"><ele>230.66666666666666</ele><time>2026-04-04T09:21:12.453Z</time></trkpt><trkpt lat="43.0911415" lon="12.2689537"><ele>226.33333333333331</ele><time>2026-04-04T09:21:13.453Z</time></trkpt><trkpt lat="43.0909879" lon="12.2690267"><ele>222.0</ele><time>2026-04-04T09:21:14.453Z</time></trkpt><trkpt lat="43.0908219" lon="12.2691037"><ele>221.0</ele><time>2026-04-04T09:21:15.453Z</time></trkpt><trkpt lat="43.0906527" lon="12.2691975"><ele>220.0</ele><time>2026-04-04T09:21:16.453Z</time></trkpt><trkpt lat="43.09049" lon="12.2693156"><ele>219.0</ele><time>2026-04-04T09:21:17.453Z</time></trkpt><trkpt lat="43.0903378" lon="12.2694471"><ele>219.0</ele><time>2026-04-04T09:21:18.453Z</time></trkpt><trkpt lat="43.0901977" lon="12.2695745"><ele>219.0</ele><time>2026-04-04T09:21:19.453Z</time></trkpt><trkpt lat="43.0900728" lon="12.26969"><ele>219.0</ele><time>2026-04-04T09:21:20.453Z</time></trkpt><trkpt lat="43.0899493" lon="12.2697986"><ele>218.75</ele><time>2026-04-04T09:21:21.453Z</time></trkpt><trkpt lat="43.0898241" lon="12.2699134"><ele>218.5</ele><time>2026-04-04T09:21:22.454Z</time></trkpt><trkpt lat="43.0897201" lon="12.2700213"><ele>218.25</ele><time>2026-04-04T09:21:23.453Z</time></trkpt><trkpt lat="43.0896177" lon="12.2701343"><ele>218.0</ele><time>2026-04-04T09:21:24.453Z</time></trkpt><trkpt lat="43.0895268" lon="12.270246"><ele>218.0</ele><time>2026-04-04T09:21:25.453Z</time></trkpt><trkpt lat="43.0894281" lon="12.2703661"><ele>218.0</ele><time>2026-04-04T09:21:26.454Z</time></trkpt><trkpt lat="43.0893304" lon="12.2704858"><ele>218.0</ele><time>2026-04-04T09:21:27.453Z</time></trkpt><trkpt lat="43.0892299" lon="12.2706106"><ele>218.0</ele><time>2026-04-04T09:21:28.453Z</time></trkpt><trkpt lat="43.0891284" lon="12.270731"><ele>218.25</ele><time>2026-04-04T09:21:29.453Z</time></trkpt><trkpt lat="43.0890262" lon="12.2708457"><ele>218.5</ele><time>2026-04-04T09:21:30.454Z</time></trkpt><trkpt lat="43.0889264" lon="12.2709519"><ele>218.75</ele><time>2026-04-04T09:21:31.454Z</time></trkpt><trkpt lat="43.0888271" lon="12.2710415"><ele>219.0</ele><time>2026-04-04T09:21:32.454Z</time></trkpt><trkpt lat="43.0887281" lon="12.2711183"><ele>219.0</ele><time>2026-04-04T09:21:33.455Z</time></trkpt><trkpt lat="43.0886284" lon="12.2711923"><ele>218.99999999999997</ele><time>2026-04-04T09:21:34.454Z</time></trkpt><trkpt lat="43.0885417" lon="12.2712413"><ele>218.99999999999997</ele><time>2026-04-04T09:21:35.454Z</time></trkpt><trkpt lat="43.0884651" lon="12.2712826"><ele>219.0</ele><time>2026-04-04T09:21:36.454Z</time></trkpt><trkpt lat="43.0883625" lon="12.2713469"><ele>219.0</ele><time>2026-04-04T09:21:38.454Z</time></trkpt><trkpt lat="43.0883025" lon="12.2713995"><ele>218.83333333333334</ele><time>2026-04-04T09:21:41.455Z</time></trkpt><trkpt lat="43.0882406" lon="12.2714711"><ele>218.66666666666669</ele><time>2026-04-04T09:22:49.455Z</time></trkpt><trkpt lat="43.0881344" lon="12.2715588"><ele>218.5</ele><time>2026-04-04T09:22:51.456Z</time></trkpt><trkpt lat="43.0880677" lon="12.2716056"><ele>218.33333333333334</ele><time>2026-04-04T09:22:52.455Z</time></trkpt><trkpt lat="43.0879986" lon="12.2716569"><ele>218.16666666666669</ele><time>2026-04-04T09:22:53.455Z</time></trkpt><trkpt lat="43.087935" lon="12.2717071"><ele>218.0</ele><time>2026-04-04T09:22:54.455Z</time></trkpt><trkpt lat="43.0878672" lon="12.2717581"><ele>218.00000000000003</ele><time>2026-04-04T09:22:55.456Z</time></trkpt><trkpt lat="43.0878037" lon="12.2718163"><ele>218.0</ele><time>2026-04-04T09:22:56.456Z</time></trkpt><trkpt lat="43.087741" lon="12.2718781"><ele>218.0</ele><time>2026-04-04T09:22:57.455Z</time></trkpt><trkpt lat="43.0876743" lon="12.2719413"><ele>218.0</ele><time>2026-04-04T09:22:58.456Z</time></trkpt><trkpt lat="43.0876071" lon="12.2720042"><ele>218.00000000000003</ele><time>2026-04-04T09:22:59.455Z</time></trkpt><trkpt lat="43.0875407" lon="12.2720603"><ele>218.0</ele><time>2026-04-04T09:23:00.456Z</time></trkpt><trkpt lat="43.0874664" lon="12.2721139"><ele>218.2</ele><time>2026-04-04T09:23:01.455Z</time></trkpt><trkpt lat="43.0873886" lon="12.2721666"><ele>218.4</ele><time>2026-04-04T09:23:02.455Z</time></trkpt><trkpt lat="43.0873058" lon="12.2722146"><ele>218.59999999999997</ele><time>2026-04-04T09:23:03.456Z</time></trkpt><trkpt lat="43.0872173" lon="12.2722638"><ele>218.79999999999998</ele><time>2026-04-04T09:23:04.455Z</time></trkpt><trkpt lat="43.0871246" lon="12.272313"><ele>219.0</ele><time>2026-04-04T09:23:05.455Z</time></trkpt><trkpt lat="43.0870282" lon="12.2723611"><ele>219.0</ele><time>2026-04-04T09:23:06.455Z</time></trkpt><trkpt lat="43.0869312" lon="12.2724101"><ele>218.99999999999997</ele><time>2026-04-04T09:23:07.455Z</time></trkpt><trkpt lat="43.0868371" lon="12.2724556"><ele>218.99999999999997</ele><time>2026-04-04T09:23:08.455Z</time></trkpt><trkpt lat="43.0867388" lon="12.2725052"><ele>219.0</ele><time>2026-04-04T09:23:09.455Z</time></trkpt><trkpt lat="43.0866409" lon="12.272557"><ele>219.0</ele><time>2026-04-04T09:23:10.455Z</time></trkpt><trkpt lat="43.0865383" lon="12.2726102"><ele>219.25</ele><time>2026-04-04T09:23:11.455Z</time></trkpt><trkpt lat="43.0864322" lon="12.2726645"><ele>219.5</ele><time>2026-04-04T09:23:12.456Z</time></trkpt><trkpt lat="43.0863246" lon="12.2727085"><ele>219.75</ele><time>2026-04-04T09:23:13.455Z</time></trkpt><trkpt lat="43.0862129" lon="12.2727517"><ele>220.0</ele><time>2026-04-04T09:23:14.456Z</time></trkpt><trkpt lat="43.0861021" lon="12.2727839"><ele>220.0</ele><time>2026-04-04T09:23:15.455Z</time></trkpt><trkpt lat="43.0859887" lon="12.2728107"><ele>220.0</ele><time>2026-04-04T09:23:16.455Z</time></trkpt><trkpt lat="43.0858746" lon="12.2728387"><ele>220.0</ele><time>2026-04-04T09:23:17.456Z</time></trkpt><trkpt lat="43.0857635" lon="12.2728617"><ele>220.0</ele><time>2026-04-04T09:23:18.456Z</time></trkpt><trkpt lat="43.0856513" lon="12.2728837"><ele>220.75</ele><time>2026-04-04T09:23:19.455Z</time></trkpt><trkpt lat="43.0855359" lon="12.2729031"><ele>221.5</ele><time>2026-04-04T09:23:20.455Z</time></trkpt><trkpt lat="43.0854192" lon="12.2729243"><ele>222.25</ele><time>2026-04-04T09:23:21.455Z</time></trkpt><trkpt lat="43.0852998" lon="12.27295"><ele>223.0</ele><time>2026-04-04T09:23:22.455Z</time></trkpt><trkpt lat="43.0851814" lon="12.2729805"><ele>223.0</ele><time>2026-04-04T09:23:23.455Z</time></trkpt><trkpt lat="43.0850646" lon="12.2730149"><ele>223.0</ele><time>2026-04-04T09:23:24.455Z</time></trkpt><trkpt lat="43.0849501" lon="12.2730555"><ele>223.0</ele><time>2026-04-04T09:23:25.457Z</time></trkpt><trkpt lat="43.0848423" lon="12.2731113"><ele>223.0</ele><time>2026-04-04T09:23:26.456Z</time></trkpt><trkpt lat="43.0847318" lon="12.2731799"><ele>225.2</ele><time>2026-04-04T09:23:27.457Z</time></trkpt><trkpt lat="43.0846266" lon="12.2732631"><ele>227.4</ele><time>2026-04-04T09:23:28.456Z</time></trkpt><trkpt lat="43.0845304" lon="12.273332"><ele>229.59999999999997</ele><time>2026-04-04T09:23:29.456Z</time></trkpt><trkpt lat="43.0844302" lon="12.2733863"><ele>231.79999999999998</ele><time>2026-04-04T09:23:30.456Z</time></trkpt><trkpt lat="43.0843339" lon="12.2734343"><ele>234.0</ele><time>2026-04-04T09:23:31.456Z</time></trkpt><trkpt lat="43.0842346" lon="12.2734745"><ele>234.0</ele><time>2026-04-04T09:23:32.456Z</time></trkpt><trkpt lat="43.0841208" lon="12.2734851"><ele>233.99999999999997</ele><time>2026-04-04T09:23:33.456Z</time></trkpt><trkpt lat="43.0840101" lon="12.2734917"><ele>233.99999999999997</ele><time>2026-04-04T09:23:34.456Z</time></trkpt><trkpt lat="43.0838966" lon="12.2735021"><ele>234.0</ele><time>2026-04-04T09:23:35.456Z</time></trkpt><trkpt lat="43.083794" lon="12.2735361"><ele>234.0</ele><time>2026-04-04T09:23:36.456Z</time></trkpt><trkpt lat="43.0837144" lon="12.2735967"><ele>236.33333333333334</ele><time>2026-04-04T09:23:37.456Z</time></trkpt><trkpt lat="43.0836641" lon="12.2736622"><ele>238.66666666666669</ele><time>2026-04-04T09:23:38.456Z</time></trkpt><trkpt lat="43.0836183" lon="12.2737456"><ele>241.0</ele><time>2026-04-04T09:23:40.457Z</time></trkpt><trkpt lat="43.0836175" lon="12.2738452"><ele>243.33333333333334</ele><time>2026-04-04T09:23:42.456Z</time></trkpt><trkpt lat="43.0836365" lon="12.2739389"><ele>245.66666666666669</ele><time>2026-04-04T09:23:43.456Z</time></trkpt><trkpt lat="43.0836605" lon="12.2740513"><ele>248.0</ele><time>2026-04-04T09:23:44.456Z</time></trkpt><trkpt lat="43.0836814" lon="12.2741669"><ele>248.00000000000003</ele><time>2026-04-04T09:23:45.456Z</time></trkpt><trkpt lat="43.0836947" lon="12.2742768"><ele>248.0</ele><time>2026-04-04T09:23:46.456Z</time></trkpt><trkpt lat="43.0837097" lon="12.2743891"><ele>248.0</ele><time>2026-04-04T09:23:47.457Z</time></trkpt><trkpt lat="43.0837256" lon="12.2745029"><ele>248.0</ele><time>2026-04-04T09:23:48.456Z</time></trkpt><trkpt lat="43.0837398" lon="12.2746253"><ele>248.00000000000003</ele><time>2026-04-04T09:23:49.456Z</time></trkpt><trkpt lat="43.083749" lon="12.2747538"><ele>248.0</ele><time>2026-04-04T09:23:50.456Z</time></trkpt><trkpt lat="43.0837556" lon="12.2748818"><ele>247.8</ele><time>2026-04-04T09:23:51.457Z</time></trkpt><trkpt lat="43.0837599" lon="12.2750043"><ele>247.60000000000002</ele><time>2026-04-04T09:23:52.457Z</time></trkpt><trkpt lat="43.0837505" lon="12.2751337"><ele>247.39999999999998</ele><time>2026-04-04T09:23:53.457Z</time></trkpt><trkpt lat="43.083743" lon="12.2752776"><ele>247.2</ele><time>2026-04-04T09:23:54.456Z</time></trkpt><trkpt lat="43.0837507" lon="12.2754222"><ele>247.0</ele><time>2026-04-04T09:23:55.456Z</time></trkpt><trkpt lat="43.0837817" lon="12.2755582"><ele>247.8</ele><time>2026-04-04T09:23:56.456Z</time></trkpt><trkpt lat="43.0838425" lon="12.2756825"><ele>248.6</ele><time>2026-04-04T09:23:57.456Z</time></trkpt><trkpt lat="43.0839201" lon="12.2757848"><ele>249.40000000000003</ele><time>2026-04-04T09:23:58.456Z</time></trkpt><trkpt lat="43.0840115" lon="12.2758659"><ele>250.20000000000002</ele><time>2026-04-04T09:23:59.456Z</time></trkpt><trkpt lat="43.0841" lon="12.2759565"><ele>251.0</ele><time>2026-04-04T09:24:00.456Z</time></trkpt><trkpt lat="43.0841685" lon="12.2760511"><ele>249.0</ele><time>2026-04-04T09:24:01.456Z</time></trkpt><trkpt lat="43.0842235" lon="12.2761607"><ele>247.00000000000003</ele><time>2026-04-04T09:24:02.456Z</time></trkpt><trkpt lat="43.084266" lon="12.2762828"><ele>245.00000000000003</ele><time>2026-04-04T09:24:03.457Z</time></trkpt><trkpt lat="43.0842986" lon="12.2764186"><ele>243.0</ele><time>2026-04-04T09:24:04.456Z</time></trkpt><trkpt lat="43.0843297" lon="12.2765579"><ele>241.0</ele><time>2026-04-04T09:24:05.457Z</time></trkpt><trkpt lat="43.0843602" lon="12.2766922"><ele>241.0</ele><time>2026-04-04T09:24:06.456Z</time></trkpt><trkpt lat="43.0844115" lon="12.2768179"><ele>241.00000000000003</ele><time>2026-04-04T09:24:07.457Z</time></trkpt><trkpt lat="43.0844819" lon="12.2769292"><ele>241.00000000000003</ele><time>2026-04-04T09:24:08.457Z</time></trkpt><trkpt lat="43.084556" lon="12.2770333"><ele>241.0</ele><time>2026-04-04T09:24:09.457Z</time></trkpt><trkpt lat="43.0846213" lon="12.2771407"><ele>241.0</ele><time>2026-04-04T09:24:10.456Z</time></trkpt><trkpt lat="43.0846649" lon="12.2772684"><ele>242.0</ele><time>2026-04-04T09:24:11.456Z</time></trkpt><trkpt lat="43.0846975" lon="12.2773999"><ele>243.00000000000003</ele><time>2026-04-04T09:24:12.457Z</time></trkpt><trkpt lat="43.0847275" lon="12.2775295"><ele>244.00000000000003</ele><time>2026-04-04T09:24:13.456Z</time></trkpt><trkpt lat="43.0847596" lon="12.2776591"><ele>245.0</ele><time>2026-04-04T09:24:14.457Z</time></trkpt><trkpt lat="43.0847815" lon="12.2777992"><ele>246.0</ele><time>2026-04-04T09:24:15.457Z</time></trkpt><trkpt lat="43.0847906" lon="12.2779455"><ele>246.0</ele><time>2026-04-04T09:24:16.457Z</time></trkpt><trkpt lat="43.0847852" lon="12.2781001"><ele>246.0</ele><time>2026-04-04T09:24:17.457Z</time></trkpt><trkpt lat="43.0847602" lon="12.278268"><ele>246.0</ele><time>2026-04-04T09:24:18.457Z</time></trkpt><trkpt lat="43.0847312" lon="12.2784363"><ele>246.0</ele><time>2026-04-04T09:24:19.456Z</time></trkpt><trkpt lat="43.084697" lon="12.2785993"><ele>245.75</ele><time>2026-04-04T09:24:20.457Z</time></trkpt><trkpt lat="43.0846644" lon="12.2787626"><ele>245.5</ele><time>2026-04-04T09:24:21.457Z</time></trkpt><trkpt lat="43.0846372" lon="12.2789296"><ele>245.25</ele><time>2026-04-04T09:24:22.457Z</time></trkpt><trkpt lat="43.0846252" lon="12.2790924"><ele>245.0</ele><time>2026-04-04T09:24:23.457Z</time></trkpt><trkpt lat="43.0846234" lon="12.2792626"><ele>240.25</ele><time>2026-04-04T09:24:24.457Z</time></trkpt><trkpt lat="43.0846352" lon="12.2794285"><ele>235.5</ele><time>2026-04-04T09:24:25.457Z</time></trkpt><trkpt lat="43.0846708" lon="12.2795934"><ele>230.75</ele><time>2026-04-04T09:24:26.457Z</time></trkpt><trkpt lat="43.0847217" lon="12.2797531"><ele>226.0</ele><time>2026-04-04T09:24:27.457Z</time></trkpt><trkpt lat="43.0847891" lon="12.2799218"><ele>224.75</ele><time>2026-04-04T09:24:28.457Z</time></trkpt><trkpt lat="43.0848569" lon="12.280087"><ele>223.5</ele><time>2026-04-04T09:24:29.458Z</time></trkpt><trkpt lat="43.0849277" lon="12.2802626"><ele>222.25</ele><time>2026-04-04T09:24:30.457Z</time></trkpt><trkpt lat="43.0850105" lon="12.2804405"><ele>221.0</ele><time>2026-04-04T09:24:31.457Z</time></trkpt><trkpt lat="43.0850941" lon="12.2806185"><ele>220.0</ele><time>2026-04-04T09:24:32.457Z</time></trkpt><trkpt lat="43.0851701" lon="12.2808045"><ele>219.0</ele><time>2026-04-04T09:24:33.457Z</time></trkpt><trkpt lat="43.0852464" lon="12.2809974"><ele>218.0</ele><time>2026-04-04T09:24:34.457Z</time></trkpt><trkpt lat="43.085321" lon="12.2811869"><ele>218.0</ele><time>2026-04-04T09:24:35.457Z</time></trkpt><trkpt lat="43.0853899" lon="12.2813688"><ele>218.0</ele><time>2026-04-04T09:24:36.457Z</time></trkpt><trkpt lat="43.0854602" lon="12.2815534"><ele>218.0</ele><time>2026-04-04T09:24:37.457Z</time></trkpt><trkpt lat="43.0855321" lon="12.2817355"><ele>217.66666666666669</ele><time>2026-04-04T09:24:38.458Z</time></trkpt><trkpt lat="43.08561" lon="12.2819113"><ele>217.33333333333331</ele><time>2026-04-04T09:24:39.457Z</time></trkpt><trkpt lat="43.0856962" lon="12.2820826"><ele>217.0</ele><time>2026-04-04T09:24:40.457Z</time></trkpt><trkpt lat="43.0857931" lon="12.2822417"><ele>218.0</ele><time>2026-04-04T09:24:41.458Z</time></trkpt><trkpt lat="43.0858901" lon="12.2824033"><ele>219.0</ele><time>2026-04-04T09:24:42.457Z</time></trkpt><trkpt lat="43.0859836" lon="12.2825668"><ele>220.0</ele><time>2026-04-04T09:24:43.457Z</time></trkpt><trkpt lat="43.086075" lon="12.282729"><ele>220.0</ele><time>2026-04-04T09:24:44.457Z</time></trkpt><trkpt lat="43.0861679" lon="12.2829024"><ele>220.0</ele><time>2026-04-04T09:24:45.458Z</time></trkpt><trkpt lat="43.0862586" lon="12.2830766"><ele>220.0</ele><time>2026-04-04T09:24:46.458Z</time></trkpt><trkpt lat="43.0863495" lon="12.2832515"><ele>219.66666666666666</ele><time>2026-04-04T09:24:47.457Z</time></trkpt><trkpt lat="43.0864427" lon="12.2834262"><ele>219.33333333333331</ele><time>2026-04-04T09:24:48.457Z</time></trkpt><trkpt lat="43.0865394" lon="12.2835959"><ele>219.0</ele><time>2026-04-04T09:24:49.457Z</time></trkpt><trkpt lat="43.086647" lon="12.2837584"><ele>219.0</ele><time>2026-04-04T09:24:50.457Z</time></trkpt><trkpt lat="43.0867622" lon="12.2839149"><ele>219.0</ele><time>2026-04-04T09:24:51.458Z</time></trkpt><trkpt lat="43.0868799" lon="12.2840699"><ele>219.0</ele><time>2026-04-04T09:24:52.457Z</time></trkpt><trkpt lat="43.0869942" lon="12.2842309"><ele>219.0</ele><time>2026-04-04T09:24:53.457Z</time></trkpt><trkpt lat="43.0870942" lon="12.2844049"><ele>219.0</ele><time>2026-04-04T09:24:54.458Z</time></trkpt><trkpt lat="43.0871797" lon="12.2845899"><ele>219.0</ele><time>2026-04-04T09:24:55.457Z</time></trkpt><trkpt lat="43.087245" lon="12.2847985"><ele>219.0</ele><time>2026-04-04T09:24:56.457Z</time></trkpt><trkpt lat="43.0873016" lon="12.2850081"><ele>219.0</ele><time>2026-04-04T09:24:57.457Z</time></trkpt><trkpt lat="43.0873532" lon="12.2852271"><ele>219.0</ele><time>2026-04-04T09:24:58.457Z</time></trkpt><trkpt lat="43.0874097" lon="12.2854488"><ele>219.33333333333331</ele><time>2026-04-04T09:24:59.457Z</time></trkpt><trkpt lat="43.0874708" lon="12.2856553"><ele>219.66666666666666</ele><time>2026-04-04T09:25:00.458Z</time></trkpt><trkpt lat="43.0875353" lon="12.2858678"><ele>220.0</ele><time>2026-04-04T09:25:01.458Z</time></trkpt><trkpt lat="43.0876" lon="12.2860774"><ele>220.0</ele><time>2026-04-04T09:25:02.457Z</time></trkpt><trkpt lat="43.0876628" lon="12.2863012"><ele>220.0</ele><time>2026-04-04T09:25:03.457Z</time></trkpt><trkpt lat="43.0877257" lon="12.2865192"><ele>220.0</ele><time>2026-04-04T09:25:04.457Z</time></trkpt><trkpt lat="43.0877914" lon="12.2867386"><ele>219.33333333333331</ele><time>2026-04-04T09:25:05.457Z</time></trkpt><trkpt lat="43.087858" lon="12.2869486"><ele>218.66666666666669</ele><time>2026-04-04T09:25:06.457Z</time></trkpt><trkpt lat="43.0879257" lon="12.287159"><ele>218.0</ele><time>2026-04-04T09:25:07.457Z</time></trkpt><trkpt lat="43.0879887" lon="12.2873651"><ele>218.0</ele><time>2026-04-04T09:25:08.457Z</time></trkpt><trkpt lat="43.0880513" lon="12.2875654"><ele>218.0</ele><time>2026-04-04T09:25:09.457Z</time></trkpt><trkpt lat="43.0881199" lon="12.2877732"><ele>218.0</ele><time>2026-04-04T09:25:10.457Z</time></trkpt><trkpt lat="43.0882054" lon="12.287979"><ele>217.66666666666669</ele><time>2026-04-04T09:25:11.458Z</time></trkpt><trkpt lat="43.088301" lon="12.2881699"><ele>217.33333333333331</ele><time>2026-04-04T09:25:12.457Z</time></trkpt><trkpt lat="43.0884148" lon="12.2883504"><ele>217.0</ele><time>2026-04-04T09:25:13.458Z</time></trkpt><trkpt lat="43.0885437" lon="12.2885162"><ele>217.0</ele><time>2026-04-04T09:25:14.459Z</time></trkpt><trkpt lat="43.0886685" lon="12.2886774"><ele>217.0</ele><time>2026-04-04T09:25:15.458Z</time></trkpt><trkpt lat="43.0887936" lon="12.2888407"><ele>217.0</ele><time>2026-04-04T09:25:16.459Z</time></trkpt><trkpt lat="43.0889202" lon="12.2890073"><ele>217.33333333333331</ele><time>2026-04-04T09:25:17.458Z</time></trkpt><trkpt lat="43.0890498" lon="12.2891641"><ele>217.66666666666669</ele><time>2026-04-04T09:25:18.458Z</time></trkpt><trkpt lat="43.0891819" lon="12.2893132"><ele>218.0</ele><time>2026-04-04T09:25:19.458Z</time></trkpt><trkpt lat="43.0893214" lon="12.2894439"><ele>218.0</ele><time>2026-04-04T09:25:20.458Z</time></trkpt><trkpt lat="43.0894701" lon="12.289572"><ele>218.0</ele><time>2026-04-04T09:25:21.458Z</time></trkpt><trkpt lat="43.0896175" lon="12.2896903"><ele>218.0</ele><time>2026-04-04T09:25:22.458Z</time></trkpt><trkpt lat="43.0897681" lon="12.2898053"><ele>218.66666666666669</ele><time>2026-04-04T09:25:23.458Z</time></trkpt><trkpt lat="43.0899279" lon="12.2898839"><ele>219.33333333333331</ele><time>2026-04-04T09:25:24.458Z</time></trkpt><trkpt lat="43.0900865" lon="12.2899479"><ele>220.0</ele><time>2026-04-04T09:25:25.458Z</time></trkpt><trkpt lat="43.0902505" lon="12.2900004"><ele>220.0</ele><time>2026-04-04T09:25:26.459Z</time></trkpt><trkpt lat="43.0904245" lon="12.2900547"><ele>220.0</ele><time>2026-04-04T09:25:27.458Z</time></trkpt><trkpt lat="43.0905906" lon="12.2901237"><ele>220.0</ele><time>2026-04-04T09:25:28.458Z</time></trkpt><trkpt lat="43.0907517" lon="12.2902192"><ele>220.33333333333331</ele><time>2026-04-04T09:25:29.458Z</time></trkpt><trkpt lat="43.090912" lon="12.2903066"><ele>220.66666666666669</ele><time>2026-04-04T09:25:30.458Z</time></trkpt><trkpt lat="43.0910762" lon="12.2904011"><ele>221.0</ele><time>2026-04-04T09:25:31.458Z</time></trkpt><trkpt lat="43.0912387" lon="12.2904936"><ele>221.0</ele><time>2026-04-04T09:25:32.459Z</time></trkpt><trkpt lat="43.0914033" lon="12.2905799"><ele>221.0</ele><time>2026-04-04T09:25:33.458Z</time></trkpt><trkpt lat="43.0915673" lon="12.2906448"><ele>221.0</ele><time>2026-04-04T09:25:34.458Z</time></trkpt><trkpt lat="43.091718" lon="12.2907042"><ele>220.0</ele><time>2026-04-04T09:25:35.458Z</time></trkpt><trkpt lat="43.0918643" lon="12.2907808"><ele>219.0</ele><time>2026-04-04T09:25:36.458Z</time></trkpt><trkpt lat="43.0920057" lon="12.2908831"><ele>218.0</ele><time>2026-04-04T09:25:37.458Z</time></trkpt><trkpt lat="43.092131" lon="12.2910028"><ele>218.0</ele><time>2026-04-04T09:25:38.459Z</time></trkpt><trkpt lat="43.0922502" lon="12.2911464"><ele>218.0</ele><time>2026-04-04T09:25:39.458Z</time></trkpt><trkpt lat="43.0923716" lon="12.2912943"><ele>218.0</ele><time>2026-04-04T09:25:40.459Z</time></trkpt><trkpt lat="43.0924862" lon="12.2914425"><ele>220.33333333333334</ele><time>2026-04-04T09:25:41.458Z</time></trkpt><trkpt lat="43.0926105" lon="12.2915774"><ele>222.66666666666669</ele><time>2026-04-04T09:25:42.459Z</time></trkpt><trkpt lat="43.0927423" lon="12.2916954"><ele>225.0</ele><time>2026-04-04T09:25:43.458Z</time></trkpt><trkpt lat="43.0928645" lon="12.2918194"><ele>225.0</ele><time>2026-04-04T09:25:44.459Z</time></trkpt><trkpt lat="43.0929816" lon="12.2919438"><ele>225.0</ele><time>2026-04-04T09:25:45.458Z</time></trkpt><trkpt lat="43.0930951" lon="12.2920959"><ele>225.0</ele><time>2026-04-04T09:25:46.459Z</time></trkpt><trkpt lat="43.0932065" lon="12.2922604"><ele>225.66666666666669</ele><time>2026-04-04T09:25:47.458Z</time></trkpt><trkpt lat="43.0933033" lon="12.2924397"><ele>226.33333333333334</ele><time>2026-04-04T09:25:48.458Z</time></trkpt><trkpt lat="43.0933971" lon="12.2926207"><ele>227.0</ele><time>2026-04-04T09:25:49.458Z</time></trkpt><trkpt lat="43.0934819" lon="12.2928017"><ele>227.0</ele><time>2026-04-04T09:25:50.458Z</time></trkpt><trkpt lat="43.0935586" lon="12.2929919"><ele>227.0</ele><time>2026-04-04T09:25:51.459Z</time></trkpt><trkpt lat="43.0936334" lon="12.2931707"><ele>227.0</ele><time>2026-04-04T09:25:52.458Z</time></trkpt><trkpt lat="43.0937084" lon="12.2933475"><ele>228.0</ele><time>2026-04-04T09:25:53.459Z</time></trkpt><trkpt lat="43.0937934" lon="12.293523"><ele>229.0</ele><time>2026-04-04T09:25:54.458Z</time></trkpt><trkpt lat="43.0938793" lon="12.2936975"><ele>230.0</ele><time>2026-04-04T09:25:55.458Z</time></trkpt><trkpt lat="43.0939663" lon="12.2938885"><ele>230.0</ele><time>2026-04-04T09:25:56.458Z</time></trkpt><trkpt lat="43.0940517" lon="12.2940802"><ele>230.0</ele><time>2026-04-04T09:25:57.458Z</time></trkpt><trkpt lat="43.0941374" lon="12.2942793"><ele>230.0</ele><time>2026-04-04T09:25:58.458Z</time></trkpt><trkpt lat="43.0942241" lon="12.2944793"><ele>230.0</ele><time>2026-04-04T09:25:59.458Z</time></trkpt><trkpt lat="43.0943186" lon="12.294678"><ele>230.0</ele><time>2026-04-04T09:26:00.458Z</time></trkpt><trkpt lat="43.0944139" lon="12.294889"><ele>230.0</ele><time>2026-04-04T09:26:01.458Z</time></trkpt><trkpt lat="43.0945096" lon="12.2950965"><ele>231.33333333333334</ele><time>2026-04-04T09:26:02.458Z</time></trkpt><trkpt lat="43.094606" lon="12.295309"><ele>232.66666666666669</ele><time>2026-04-04T09:26:03.458Z</time></trkpt><trkpt lat="43.0946992" lon="12.295521"><ele>234.0</ele><time>2026-04-04T09:26:04.458Z</time></trkpt><trkpt lat="43.0947889" lon="12.2957308"><ele>235.66666666666669</ele><time>2026-04-04T09:26:05.458Z</time></trkpt><trkpt lat="43.0948705" lon="12.2959426"><ele>237.33333333333334</ele><time>2026-04-04T09:26:06.46Z</time></trkpt><trkpt lat="43.0949362" lon="12.2961607"><ele>239.0</ele><time>2026-04-04T09:26:07.46Z</time></trkpt><trkpt lat="43.0949893" lon="12.2963835"><ele>236.66666666666669</ele><time>2026-04-04T09:26:08.459Z</time></trkpt><trkpt lat="43.0950359" lon="12.2966125"><ele>234.33333333333331</ele><time>2026-04-04T09:26:09.46Z</time></trkpt><trkpt lat="43.0950709" lon="12.2968376"><ele>232.0</ele><time>2026-04-04T09:26:10.459Z</time></trkpt><trkpt lat="43.0951022" lon="12.2970626"><ele>232.66666666666666</ele><time>2026-04-04T09:26:11.459Z</time></trkpt><trkpt lat="43.0951333" lon="12.2972806"><ele>233.33333333333331</ele><time>2026-04-04T09:26:12.459Z</time></trkpt><trkpt lat="43.0951675" lon="12.2974982"><ele>234.0</ele><time>2026-04-04T09:26:13.459Z</time></trkpt><trkpt lat="43.0952001" lon="12.297714"><ele>234.0</ele><time>2026-04-04T09:26:14.459Z</time></trkpt><trkpt lat="43.0952366" lon="12.2979293"><ele>234.0</ele><time>2026-04-04T09:26:15.459Z</time></trkpt><trkpt lat="43.0952688" lon="12.2981267"><ele>234.0</ele><time>2026-04-04T09:26:16.459Z</time></trkpt><trkpt lat="43.0952999" lon="12.298333"><ele>234.0</ele><time>2026-04-04T09:26:17.459Z</time></trkpt><trkpt lat="43.0953293" lon="12.2985426"><ele>234.0</ele><time>2026-04-04T09:26:18.459Z</time></trkpt><trkpt lat="43.0953648" lon="12.2987393"><ele>234.0</ele><time>2026-04-04T09:26:19.46Z</time></trkpt><trkpt lat="43.0953949" lon="12.2989354"><ele>234.75</ele><time>2026-04-04T09:26:20.46Z</time></trkpt><trkpt lat="43.0954283" lon="12.2991249"><ele>235.5</ele><time>2026-04-04T09:26:21.459Z</time></trkpt><trkpt lat="43.095468" lon="12.2993019"><ele>236.25</ele><time>2026-04-04T09:26:22.459Z</time></trkpt><trkpt lat="43.0955225" lon="12.2994682"><ele>237.0</ele><time>2026-04-04T09:26:23.459Z</time></trkpt><trkpt lat="43.0955875" lon="12.2996151"><ele>237.75</ele><time>2026-04-04T09:26:24.459Z</time></trkpt><trkpt lat="43.0956595" lon="12.2997536"><ele>238.5</ele><time>2026-04-04T09:26:25.46Z</time></trkpt><trkpt lat="43.0957397" lon="12.2998813"><ele>239.25</ele><time>2026-04-04T09:26:26.46Z</time></trkpt><trkpt lat="43.0958211" lon="12.3000034"><ele>240.0</ele><time>2026-04-04T09:26:27.459Z</time></trkpt><trkpt lat="43.0959078" lon="12.300109"><ele>238.0</ele><time>2026-04-04T09:26:28.459Z</time></trkpt><trkpt lat="43.0960058" lon="12.3001974"><ele>236.0</ele><time>2026-04-04T09:26:29.459Z</time></trkpt><trkpt lat="43.0960995" lon="12.3002749"><ele>234.0</ele><time>2026-04-04T09:26:30.459Z</time></trkpt><trkpt lat="43.0961939" lon="12.3003304"><ele>232.0</ele><time>2026-04-04T09:26:31.459Z</time></trkpt><trkpt lat="43.096282" lon="12.3003876"><ele>230.0</ele><time>2026-04-04T09:26:32.459Z</time></trkpt><trkpt lat="43.0963688" lon="12.300423"><ele>230.00000000000003</ele><time>2026-04-04T09:26:33.459Z</time></trkpt><trkpt lat="43.0964473" lon="12.3004646"><ele>230.0</ele><time>2026-04-04T09:26:34.459Z</time></trkpt><trkpt lat="43.0965079" lon="12.3005222"><ele>230.0</ele><time>2026-04-04T09:26:35.46Z</time></trkpt><trkpt lat="43.0965544" lon="12.3006161"><ele>230.0</ele><time>2026-04-04T09:26:36.459Z</time></trkpt><trkpt lat="43.0965845" lon="12.300717"><ele>230.00000000000003</ele><time>2026-04-04T09:26:37.459Z</time></trkpt><trkpt lat="43.0965973" lon="12.3008445"><ele>230.0</ele><time>2026-04-04T09:26:38.46Z</time></trkpt><trkpt lat="43.0965891" lon="12.3009669"><ele>230.6</ele><time>2026-04-04T09:26:39.459Z</time></trkpt><trkpt lat="43.0965598" lon="12.3010955"><ele>231.2</ele><time>2026-04-04T09:26:40.459Z</time></trkpt><trkpt lat="43.0965305" lon="12.3012374"><ele>231.8</ele><time>2026-04-04T09:26:41.459Z</time></trkpt><trkpt lat="43.0965057" lon="12.3013772"><ele>232.4</ele><time>2026-04-04T09:26:42.459Z</time></trkpt><trkpt lat="43.0964971" lon="12.3015225"><ele>233.0</ele><time>2026-04-04T09:26:43.459Z</time></trkpt><trkpt lat="43.0965149" lon="12.3016622"><ele>233.2</ele><time>2026-04-04T09:26:44.459Z</time></trkpt><trkpt lat="43.0965406" lon="12.3018064"><ele>233.4</ele><time>2026-04-04T09:26:45.459Z</time></trkpt><trkpt lat="43.0965752" lon="12.3019484"><ele>233.59999999999997</ele><time>2026-04-04T09:26:46.459Z</time></trkpt><trkpt lat="43.0966185" lon="12.3020872"><ele>233.79999999999998</ele><time>2026-04-04T09:26:47.459Z</time></trkpt><trkpt lat="43.0966656" lon="12.3022312"><ele>234.0</ele><time>2026-04-04T09:26:48.459Z</time></trkpt><trkpt lat="43.0967126" lon="12.3023665"><ele>234.79999999999998</ele><time>2026-04-04T09:26:49.459Z</time></trkpt><trkpt lat="43.0967574" lon="12.3025001"><ele>235.59999999999997</ele><time>2026-04-04T09:26:50.46Z</time></trkpt><trkpt lat="43.0967939" lon="12.3026294"><ele>236.4</ele><time>2026-04-04T09:26:51.46Z</time></trkpt><trkpt lat="43.0968229" lon="12.3027627"><ele>237.2</ele><time>2026-04-04T09:26:52.459Z</time></trkpt><trkpt lat="43.0968328" lon="12.3028963"><ele>238.0</ele><time>2026-04-04T09:26:53.459Z</time></trkpt><trkpt lat="43.0968064" lon="12.3030188"><ele>238.8</ele><time>2026-04-04T09:26:54.459Z</time></trkpt><trkpt lat="43.096744" lon="12.3031196"><ele>239.60000000000002</ele><time>2026-04-04T09:26:55.459Z</time></trkpt><trkpt lat="43.0966642" lon="12.3031985"><ele>240.39999999999998</ele><time>2026-04-04T09:26:56.46Z</time></trkpt><trkpt lat="43.0965632" lon="12.303253"><ele>241.2</ele><time>2026-04-04T09:26:57.46Z</time></trkpt><trkpt lat="43.096441" lon="12.3032474"><ele>242.0</ele><time>2026-04-04T09:26:58.46Z</time></trkpt><trkpt lat="43.0963316" lon="12.3032156"><ele>242.5</ele><time>2026-04-04T09:26:59.46Z</time></trkpt><trkpt lat="43.0962203" lon="12.3031483"><ele>243.0</ele><time>2026-04-04T09:27:00.46Z</time></trkpt><trkpt lat="43.0960955" lon="12.3030558"><ele>243.5</ele><time>2026-04-04T09:27:01.46Z</time></trkpt><trkpt lat="43.0959694" lon="12.3029603"><ele>244.0</ele><time>2026-04-04T09:27:02.46Z</time></trkpt><trkpt lat="43.0958352" lon="12.3028597"><ele>245.5</ele><time>2026-04-04T09:27:03.461Z</time></trkpt><trkpt lat="43.0957068" lon="12.3027956"><ele>247.0</ele><time>2026-04-04T09:27:04.46Z</time></trkpt><trkpt lat="43.0955781" lon="12.3027605"><ele>248.5</ele><time>2026-04-04T09:27:05.46Z</time></trkpt><trkpt lat="43.095447" lon="12.3027492"><ele>250.0</ele><time>2026-04-04T09:27:06.46Z</time></trkpt><trkpt lat="43.0953095" lon="12.3027529"><ele>250.0</ele><time>2026-04-04T09:27:07.46Z</time></trkpt><trkpt lat="43.0951689" lon="12.3027984"><ele>250.0</ele><time>2026-04-04T09:27:08.46Z</time></trkpt><trkpt lat="43.0950349" lon="12.3028766"><ele>250.0</ele><time>2026-04-04T09:27:09.461Z</time></trkpt><trkpt lat="43.0949002" lon="12.3029599"><ele>250.0</ele><time>2026-04-04T09:27:10.46Z</time></trkpt><trkpt lat="43.0947658" lon="12.3030462"><ele>254.75</ele><time>2026-04-04T09:27:11.46Z</time></trkpt><trkpt lat="43.094627" lon="12.3031296"><ele>259.5</ele><time>2026-04-04T09:27:12.46Z</time></trkpt><trkpt lat="43.094487" lon="12.3032034"><ele>264.25</ele><time>2026-04-04T09:27:13.46Z</time></trkpt><trkpt lat="43.0943502" lon="12.3032766"><ele>269.0</ele><time>2026-04-04T09:27:14.46Z</time></trkpt><trkpt lat="43.0942079" lon="12.3033466"><ele>269.33333333333337</ele><time>2026-04-04T09:27:15.46Z</time></trkpt><trkpt lat="43.0940609" lon="12.3034196"><ele>269.6666666666667</ele><time>2026-04-04T09:27:16.46Z</time></trkpt><trkpt lat="43.0939189" lon="12.3034971"><ele>270.0</ele><time>2026-04-04T09:27:17.46Z</time></trkpt><trkpt lat="43.0937751" lon="12.3035754"><ele>270.0</ele><time>2026-04-04T09:27:18.46Z</time></trkpt><trkpt lat="43.0936374" lon="12.3036317"><ele>270.0</ele><time>2026-04-04T09:27:19.46Z</time></trkpt><trkpt lat="43.0935017" lon="12.3036643"><ele>270.0</ele><time>2026-04-04T09:27:20.46Z</time></trkpt><trkpt lat="43.0933594" lon="12.3036707"><ele>270.0</ele><time>2026-04-04T09:27:21.46Z</time></trkpt><trkpt lat="43.0932112" lon="12.3036781"><ele>273.25</ele><time>2026-04-04T09:27:22.46Z</time></trkpt><trkpt lat="43.0930707" lon="12.303693"><ele>276.5</ele><time>2026-04-04T09:27:23.46Z</time></trkpt><trkpt lat="43.0929315" lon="12.3037111"><ele>279.75</ele><time>2026-04-04T09:27:24.46Z</time></trkpt><trkpt lat="43.0928013" lon="12.3037353"><ele>283.0</ele><time>2026-04-04T09:27:25.46Z</time></trkpt><trkpt lat="43.0926773" lon="12.30376"><ele>283.0</ele><time>2026-04-04T09:27:26.46Z</time></trkpt><trkpt lat="43.0925609" lon="12.3037849"><ele>283.0</ele><time>2026-04-04T09:27:27.46Z</time></trkpt><trkpt lat="43.092454" lon="12.3038066"><ele>283.0</ele><time>2026-04-04T09:27:28.46Z</time></trkpt><trkpt lat="43.0923578" lon="12.3038238"><ele>283.0</ele><time>2026-04-04T09:27:29.46Z</time></trkpt><trkpt lat="43.0922695" lon="12.3038385"><ele>283.0</ele><time>2026-04-04T09:27:30.461Z</time></trkpt><trkpt lat="43.0921928" lon="12.303843"><ele>283.8333333333333</ele><time>2026-04-04T09:27:31.46Z</time></trkpt><trkpt lat="43.0921218" lon="12.303834"><ele>284.66666666666663</ele><time>2026-04-04T09:27:32.461Z</time></trkpt><trkpt lat="43.0920533" lon="12.3038148"><ele>285.5</ele><time>2026-04-04T09:27:33.46Z</time></trkpt><trkpt lat="43.0919907" lon="12.303803"><ele>286.3333333333333</ele><time>2026-04-04T09:27:34.46Z</time></trkpt><trkpt lat="43.0918951" lon="12.3038348"><ele>287.1666666666667</ele><time>2026-04-04T09:27:36.46Z</time></trkpt><trkpt lat="43.0918593" lon="12.3039068"><ele>288.0</ele><time>2026-04-04T09:27:38.46Z</time></trkpt><trkpt lat="43.0918778" lon="12.3040295"><ele>288.0</ele><time>2026-04-04T09:27:40.462Z</time></trkpt><trkpt lat="43.0919325" lon="12.3040995"><ele>288.0</ele><time>2026-04-04T09:27:41.46Z</time></trkpt><trkpt lat="43.091995" lon="12.304166"><ele>288.0</ele><time>2026-04-04T09:27:42.461Z</time></trkpt><trkpt lat="43.0920614" lon="12.3042315"><ele>288.0</ele><time>2026-04-04T09:27:43.462Z</time></trkpt><trkpt lat="43.092124" lon="12.3043084"><ele>288.0</ele><time>2026-04-04T09:27:44.46Z</time></trkpt><trkpt lat="43.0921883" lon="12.3043965"><ele>288.0</ele><time>2026-04-04T09:27:45.461Z</time></trkpt><trkpt lat="43.0922522" lon="12.304496"><ele>288.0</ele><time>2026-04-04T09:27:46.46Z</time></trkpt><trkpt lat="43.0923141" lon="12.3045961"><ele>288.0</ele><time>2026-04-04T09:27:47.461Z</time></trkpt><trkpt lat="43.0923675" lon="12.3047058"><ele>288.0</ele><time>2026-04-04T09:27:48.46Z</time></trkpt><trkpt lat="43.0924144" lon="12.3048208"><ele>288.0</ele><time>2026-04-04T09:27:49.461Z</time></trkpt><trkpt lat="43.0924363" lon="12.3049367"><ele>288.0</ele><time>2026-04-04T09:27:50.46Z</time></trkpt><trkpt lat="43.0924414" lon="12.3050741"><ele>290.6</ele><time>2026-04-04T09:27:51.46Z</time></trkpt><trkpt lat="43.0924434" lon="12.3052201"><ele>293.20000000000005</ele><time>2026-04-04T09:27:52.461Z</time></trkpt><trkpt lat="43.0924413" lon="12.3053738"><ele>295.8</ele><time>2026-04-04T09:27:53.46Z</time></trkpt><trkpt lat="43.0924407" lon="12.3055148"><ele>298.40000000000003</ele><time>2026-04-04T09:27:54.462Z</time></trkpt><trkpt lat="43.0924455" lon="12.3056532"><ele>301.0</ele><time>2026-04-04T09:27:55.461Z</time></trkpt><trkpt lat="43.0924526" lon="12.3057932"><ele>302.0</ele><time>2026-04-04T09:27:56.461Z</time></trkpt><trkpt lat="43.0924613" lon="12.3059328"><ele>303.0</ele><time>2026-04-04T09:27:57.461Z</time></trkpt><trkpt lat="43.0924705" lon="12.3060744"><ele>304.0</ele><time>2026-04-04T09:27:58.461Z</time></trkpt><trkpt lat="43.092476" lon="12.3061984"><ele>305.0</ele><time>2026-04-04T09:27:59.461Z</time></trkpt><trkpt lat="43.0924841" lon="12.3063121"><ele>306.0</ele><time>2026-04-04T09:28:00.461Z</time></trkpt><trkpt lat="43.0924935" lon="12.3064109"><ele>304.8333333333333</ele><time>2026-04-04T09:28:01.461Z</time></trkpt><trkpt lat="43.0924867" lon="12.3065196"><ele>303.6666666666667</ele><time>2026-04-04T09:28:03.461Z</time></trkpt><trkpt lat="43.0924183" lon="12.3065387"><ele>302.5</ele><time>2026-04-04T09:28:05.462Z</time></trkpt><trkpt lat="43.0922884" lon="12.3065245"><ele>301.33333333333337</ele><time>2026-04-04T09:28:07.461Z</time></trkpt><trkpt lat="43.0922152" lon="12.3065007"><ele>300.1666666666667</ele><time>2026-04-04T09:28:08.462Z</time></trkpt><trkpt lat="43.0921474" lon="12.306476"><ele>299.0</ele><time>2026-04-04T09:28:09.461Z</time></trkpt><trkpt lat="43.0920759" lon="12.3064471"><ele>297.1666666666667</ele><time>2026-04-04T09:28:10.461Z</time></trkpt><trkpt lat="43.0920046" lon="12.3064163"><ele>295.33333333333337</ele><time>2026-04-04T09:28:11.461Z</time></trkpt><trkpt lat="43.0919354" lon="12.3063859"><ele>293.5</ele><time>2026-04-04T09:28:12.461Z</time></trkpt><trkpt lat="43.0918655" lon="12.3063497"><ele>291.6666666666667</ele><time>2026-04-04T09:28:13.461Z</time></trkpt><trkpt lat="43.0917911" lon="12.3063056"><ele>289.8333333333333</ele><time>2026-04-04T09:28:14.461Z</time></trkpt><trkpt lat="43.0917182" lon="12.3062564"><ele>288.0</ele><time>2026-04-04T09:28:15.461Z</time></trkpt><trkpt lat="43.0916502" lon="12.3062104"><ele>286.14285714285717</ele><time>2026-04-04T09:28:16.461Z</time></trkpt><trkpt lat="43.0915765" lon="12.3061604"><ele>284.2857142857143</ele><time>2026-04-04T09:28:17.461Z</time></trkpt><trkpt lat="43.0915087" lon="12.3061157"><ele>282.42857142857144</ele><time>2026-04-04T09:28:18.461Z</time></trkpt><trkpt lat="43.0914416" lon="12.3060723"><ele>280.57142857142856</ele><time>2026-04-04T09:28:19.462Z</time></trkpt><trkpt lat="43.0913756" lon="12.3060319"><ele>278.7142857142857</ele><time>2026-04-04T09:28:20.462Z</time></trkpt><trkpt lat="43.0913085" lon="12.3059934"><ele>276.8571428571429</ele><time>2026-04-04T09:28:21.462Z</time></trkpt><trkpt lat="43.0912414" lon="12.305955"><ele>275.0</ele><time>2026-04-04T09:28:22.462Z</time></trkpt><trkpt lat="43.091175" lon="12.3059157"><ele>275.0</ele><time>2026-04-04T09:28:23.461Z</time></trkpt><trkpt lat="43.0911049" lon="12.305875"><ele>275.0</ele><time>2026-04-04T09:28:24.461Z</time></trkpt><trkpt lat="43.0910298" lon="12.3058288"><ele>275.0</ele><time>2026-04-04T09:28:25.461Z</time></trkpt><trkpt lat="43.0909524" lon="12.3057828"><ele>275.0</ele><time>2026-04-04T09:28:26.462Z</time></trkpt><trkpt lat="43.0908788" lon="12.3057402"><ele>275.0</ele><time>2026-04-04T09:28:27.461Z</time></trkpt><trkpt lat="43.0907999" lon="12.3056893"><ele>275.0</ele><time>2026-04-04T09:28:28.462Z</time></trkpt><trkpt lat="43.0907159" lon="12.3056337"><ele>275.1666666666667</ele><time>2026-04-04T09:28:29.461Z</time></trkpt><trkpt lat="43.090635" lon="12.3055819"><ele>275.33333333333337</ele><time>2026-04-04T09:28:30.461Z</time></trkpt><trkpt lat="43.0905603" lon="12.3055397"><ele>275.5</ele><time>2026-04-04T09:28:31.461Z</time></trkpt><trkpt lat="43.0904896" lon="12.3055259"><ele>275.6666666666667</ele><time>2026-04-04T09:28:32.462Z</time></trkpt><trkpt lat="43.0904226" lon="12.305551"><ele>275.8333333333333</ele><time>2026-04-04T09:28:33.462Z</time></trkpt><trkpt lat="43.0903327" lon="12.3055904"><ele>276.0</ele><time>2026-04-04T09:28:34.461Z</time></trkpt><trkpt lat="43.0902729" lon="12.3056713"><ele>274.2</ele><time>2026-04-04T09:28:35.461Z</time></trkpt><trkpt lat="43.0902234" lon="12.3057785"><ele>272.40000000000003</ele><time>2026-04-04T09:28:36.461Z</time></trkpt><trkpt lat="43.0902085" lon="12.3059008"><ele>270.6</ele><time>2026-04-04T09:28:37.461Z</time></trkpt><trkpt lat="43.0902304" lon="12.3060228"><ele>268.8</ele><time>2026-04-04T09:28:38.461Z</time></trkpt><trkpt lat="43.0902659" lon="12.3061534"><ele>267.0</ele><time>2026-04-04T09:28:39.461Z</time></trkpt><trkpt lat="43.0903094" lon="12.3062816"><ele>267.0</ele><time>2026-04-04T09:28:40.461Z</time></trkpt><trkpt lat="43.0903515" lon="12.3064077"><ele>267.0</ele><time>2026-04-04T09:28:41.461Z</time></trkpt><trkpt lat="43.0903842" lon="12.3065333"><ele>267.0</ele><time>2026-04-04T09:28:42.462Z</time></trkpt><trkpt lat="43.0904051" lon="12.3066398"><ele>267.0</ele><time>2026-04-04T09:28:43.461Z</time></trkpt><trkpt lat="43.0903455" lon="12.3067906"><ele>267.0</ele><time>2026-04-04T09:28:45.462Z</time></trkpt><trkpt lat="43.0902799" lon="12.3068329"><ele>266.5</ele><time>2026-04-04T09:28:46.462Z</time></trkpt><trkpt lat="43.0901937" lon="12.3068533"><ele>266.0</ele><time>2026-04-04T09:28:47.461Z</time></trkpt><trkpt lat="43.0900832" lon="12.3068375"><ele>265.5</ele><time>2026-04-04T09:28:48.462Z</time></trkpt><trkpt lat="43.0899605" lon="12.3067942"><ele>265.0</ele><time>2026-04-04T09:28:49.462Z</time></trkpt><trkpt lat="43.0898364" lon="12.3067384"><ele>264.25</ele><time>2026-04-04T09:28:50.462Z</time></trkpt><trkpt lat="43.0896973" lon="12.3066789"><ele>263.5</ele><time>2026-04-04T09:28:51.462Z</time></trkpt><trkpt lat="43.0895808" lon="12.306619"><ele>262.75</ele><time>2026-04-04T09:28:52.463Z</time></trkpt><trkpt lat="43.0894797" lon="12.3065678"><ele>262.0</ele><time>2026-04-04T09:28:53.462Z</time></trkpt><trkpt lat="43.0893803" lon="12.3065268"><ele>262.0</ele><time>2026-04-04T09:28:54.462Z</time></trkpt><trkpt lat="43.0892859" lon="12.3065067"><ele>262.0</ele><time>2026-04-04T09:28:55.463Z</time></trkpt><trkpt lat="43.0891942" lon="12.3065132"><ele>262.0</ele><time>2026-04-04T09:28:56.462Z</time></trkpt><trkpt lat="43.0891055" lon="12.3065446"><ele>262.0</ele><time>2026-04-04T09:28:57.463Z</time></trkpt><trkpt lat="43.0890223" lon="12.306591"><ele>262.0</ele><time>2026-04-04T09:28:58.462Z</time></trkpt><trkpt lat="43.0889397" lon="12.3066467"><ele>262.6</ele><time>2026-04-04T09:28:59.462Z</time></trkpt><trkpt lat="43.0888616" lon="12.3067156"><ele>263.2</ele><time>2026-04-04T09:29:00.462Z</time></trkpt><trkpt lat="43.0887866" lon="12.3067936"><ele>263.8</ele><time>2026-04-04T09:29:01.462Z</time></trkpt><trkpt lat="43.0887247" lon="12.3068841"><ele>264.4</ele><time>2026-04-04T09:29:02.462Z</time></trkpt><trkpt lat="43.088664" lon="12.3069687"><ele>265.0</ele><time>2026-04-04T09:29:03.462Z</time></trkpt><trkpt lat="43.0886142" lon="12.3070915"><ele>265.0</ele><time>2026-04-04T09:29:04.462Z</time></trkpt><trkpt lat="43.0885638" lon="12.3072033"><ele>265.0</ele><time>2026-04-04T09:29:05.462Z</time></trkpt><trkpt lat="43.0885098" lon="12.3073167"><ele>265.0</ele><time>2026-04-04T09:29:06.462Z</time></trkpt><trkpt lat="43.088456" lon="12.3074442"><ele>265.0</ele><time>2026-04-04T09:29:07.463Z</time></trkpt><trkpt lat="43.0883957" lon="12.3075695"><ele>265.0</ele><time>2026-04-04T09:29:08.462Z</time></trkpt><trkpt lat="43.0883372" lon="12.3077034"><ele>263.2</ele><time>2026-04-04T09:29:09.462Z</time></trkpt><trkpt lat="43.0882753" lon="12.3078344"><ele>261.4</ele><time>2026-04-04T09:29:10.462Z</time></trkpt><trkpt lat="43.0882107" lon="12.3079566"><ele>259.6</ele><time>2026-04-04T09:29:11.462Z</time></trkpt><trkpt lat="43.0881485" lon="12.3080798"><ele>257.8</ele><time>2026-04-04T09:29:12.462Z</time></trkpt><trkpt lat="43.0880929" lon="12.3082043"><ele>256.0</ele><time>2026-04-04T09:29:13.462Z</time></trkpt><trkpt lat="43.0880418" lon="12.3083155"><ele>254.83333333333331</ele><time>2026-04-04T09:29:14.463Z</time></trkpt><trkpt lat="43.0879945" lon="12.3084187"><ele>253.66666666666666</ele><time>2026-04-04T09:29:15.462Z</time></trkpt><trkpt lat="43.0879538" lon="12.3085141"><ele>252.5</ele><time>2026-04-04T09:29:16.462Z</time></trkpt><trkpt lat="43.0879182" lon="12.3086007"><ele>251.33333333333331</ele><time>2026-04-04T09:29:17.462Z</time></trkpt><trkpt lat="43.0878561" lon="12.3087198"><ele>250.16666666666666</ele><time>2026-04-04T09:29:19.462Z</time></trkpt><trkpt lat="43.0878331" lon="12.3088348"><ele>249.0</ele><time>2026-04-04T09:29:28.462Z</time></trkpt><trkpt lat="43.0878689" lon="12.3089206"><ele>248.83333333333334</ele><time>2026-04-04T09:29:29.463Z</time></trkpt><trkpt lat="43.0879187" lon="12.3089926"><ele>248.66666666666669</ele><time>2026-04-04T09:29:30.463Z</time></trkpt><trkpt lat="43.0879713" lon="12.3090597"><ele>248.5</ele><time>2026-04-04T09:29:31.462Z</time></trkpt><trkpt lat="43.0880354" lon="12.3091271"><ele>248.33333333333334</ele><time>2026-04-04T09:29:32.462Z</time></trkpt><trkpt lat="43.0880998" lon="12.309188"><ele>248.16666666666669</ele><time>2026-04-04T09:29:33.462Z</time></trkpt><trkpt lat="43.0881698" lon="12.3092435"><ele>248.0</ele><time>2026-04-04T09:29:34.463Z</time></trkpt><trkpt lat="43.0882391" lon="12.309309"><ele>248.50000000000003</ele><time>2026-04-04T09:29:35.462Z</time></trkpt><trkpt lat="43.0883085" lon="12.3093774"><ele>249.0</ele><time>2026-04-04T09:29:36.462Z</time></trkpt><trkpt lat="43.088372" lon="12.3094448"><ele>249.5</ele><time>2026-04-04T09:29:37.462Z</time></trkpt><trkpt lat="43.0884299" lon="12.3095055"><ele>250.0</ele><time>2026-04-04T09:29:38.462Z</time></trkpt><trkpt lat="43.088487" lon="12.3095639"><ele>250.50000000000003</ele><time>2026-04-04T09:29:39.462Z</time></trkpt><trkpt lat="43.0885428" lon="12.309622"><ele>251.0</ele><time>2026-04-04T09:29:40.462Z</time></trkpt><trkpt lat="43.0885997" lon="12.3096775"><ele>251.00000000000003</ele><time>2026-04-04T09:29:41.463Z</time></trkpt><trkpt lat="43.0886599" lon="12.3097416"><ele>251.0</ele><time>2026-04-04T09:29:42.463Z</time></trkpt><trkpt lat="43.0887265" lon="12.3098151"><ele>251.0</ele><time>2026-04-04T09:29:43.463Z</time></trkpt><trkpt lat="43.0887985" lon="12.3098932"><ele>251.0</ele><time>2026-04-04T09:29:44.463Z</time></trkpt><trkpt lat="43.0888713" lon="12.3099709"><ele>251.00000000000003</ele><time>2026-04-04T09:29:45.463Z</time></trkpt><trkpt lat="43.0889471" lon="12.3100497"><ele>251.0</ele><time>2026-04-04T09:29:46.463Z</time></trkpt><trkpt lat="43.0890139" lon="12.3101215"><ele>251.1428571428571</ele><time>2026-04-04T09:29:47.463Z</time></trkpt><trkpt lat="43.0890792" lon="12.310195"><ele>251.28571428571428</ele><time>2026-04-04T09:29:48.463Z</time></trkpt><trkpt lat="43.0891335" lon="12.310257"><ele>251.42857142857142</ele><time>2026-04-04T09:29:49.463Z</time></trkpt><trkpt lat="43.0891741" lon="12.3103333"><ele>251.57142857142856</ele><time>2026-04-04T09:29:50.462Z</time></trkpt><trkpt lat="43.0891948" lon="12.310417"><ele>251.71428571428572</ele><time>2026-04-04T09:29:51.463Z</time></trkpt><trkpt lat="43.0891866" lon="12.3105176"><ele>251.85714285714286</ele><time>2026-04-04T09:29:52.463Z</time></trkpt><trkpt lat="43.0891622" lon="12.3106291"><ele>252.0</ele><time>2026-04-04T09:29:53.463Z</time></trkpt><trkpt lat="43.0891333" lon="12.3107415"><ele>252.0</ele><time>2026-04-04T09:29:54.463Z</time></trkpt><trkpt lat="43.0891081" lon="12.310843"><ele>252.0</ele><time>2026-04-04T09:29:55.463Z</time></trkpt><trkpt lat="43.0890913" lon="12.3109463"><ele>252.0</ele><time>2026-04-04T09:29:56.464Z</time></trkpt><trkpt lat="43.0890764" lon="12.3110518"><ele>252.0</ele><time>2026-04-04T09:29:57.463Z</time></trkpt><trkpt lat="43.0890673" lon="12.3111555"><ele>252.0</ele><time>2026-04-04T09:29:58.463Z</time></trkpt><trkpt lat="43.0890603" lon="12.3112618"><ele>252.0</ele><time>2026-04-04T09:29:59.463Z</time></trkpt><trkpt lat="43.0890576" lon="12.3113562"><ele>252.0</ele><time>2026-04-04T09:30:00.463Z</time></trkpt><trkpt lat="43.0890551" lon="12.3115073"><ele>252.0</ele><time>2026-04-04T09:30:02.463Z</time></trkpt><trkpt lat="43.0890412" lon="12.3115969"><ele>252.0</ele><time>2026-04-04T09:30:04.463Z</time></trkpt><trkpt lat="43.0890039" lon="12.3116898"><ele>252.0</ele><time>2026-04-04T09:30:08.463Z</time></trkpt><trkpt lat="43.0890687" lon="12.3117548"><ele>252.0</ele><time>2026-04-04T09:30:13.463Z</time></trkpt><trkpt lat="43.0891216" lon="12.3118687"><ele>252.0</ele><time>2026-04-04T09:30:16.463Z</time></trkpt><trkpt lat="43.0891441" lon="12.3119566"><ele>252.0</ele><time>2026-04-04T09:30:19.463Z</time></trkpt><trkpt lat="43.0891631" lon="12.3120552"><ele>252.0</ele><time>2026-04-04T09:30:23.463Z</time></trkpt><trkpt lat="43.0891835" lon="12.3121435"><ele>252.0</ele><time>2026-04-04T09:30:38.464Z</time></trkpt><trkpt lat="43.0892453" lon="12.3121601"><ele>252.0</ele><time>2026-04-04T09:30:46.464Z</time></trkpt><trkpt lat="43.0893097" lon="12.3121981"><ele>252.0</ele><time>2026-04-04T09:30:48.464Z</time></trkpt><trkpt lat="43.089378" lon="12.312294"><ele>252.0</ele><time>2026-04-04T09:30:50.464Z</time></trkpt><trkpt lat="43.0894302" lon="12.3124048"><ele>252.33333333333334</ele><time>2026-04-04T09:30:52.464Z</time></trkpt><trkpt lat="43.0894895" lon="12.3125293"><ele>252.66666666666669</ele><time>2026-04-04T09:30:54.464Z</time></trkpt><trkpt lat="43.0895518" lon="12.312661"><ele>253.0</ele><time>2026-04-04T09:30:56.464Z</time></trkpt><trkpt lat="43.0895857" lon="12.3127421"><ele>253.33333333333334</ele><time>2026-04-04T09:30:57.464Z</time></trkpt><trkpt lat="43.0896147" lon="12.3128291"><ele>253.66666666666669</ele><time>2026-04-04T09:30:58.464Z</time></trkpt><trkpt lat="43.0896449" lon="12.3129307"><ele>254.0</ele><time>2026-04-04T09:30:59.464Z</time></trkpt><trkpt lat="43.08967" lon="12.3130316"><ele>253.66666666666669</ele><time>2026-04-04T09:31:00.464Z</time></trkpt><trkpt lat="43.0896874" lon="12.3131454"><ele>253.33333333333334</ele><time>2026-04-04T09:31:01.464Z</time></trkpt><trkpt lat="43.0897001" lon="12.3132663"><ele>253.0</ele><time>2026-04-04T09:31:02.464Z</time></trkpt><trkpt lat="43.0897132" lon="12.3133864"><ele>252.66666666666669</ele><time>2026-04-04T09:31:03.464Z</time></trkpt><trkpt lat="43.0897288" lon="12.3135049"><ele>252.33333333333334</ele><time>2026-04-04T09:31:04.464Z</time></trkpt><trkpt lat="43.0897474" lon="12.3136237"><ele>252.0</ele><time>2026-04-04T09:31:05.465Z</time></trkpt><trkpt lat="43.0897681" lon="12.3137599"><ele>252.0</ele><time>2026-04-04T09:31:06.464Z</time></trkpt><trkpt lat="43.0897832" lon="12.313898"><ele>252.0</ele><time>2026-04-04T09:31:07.464Z</time></trkpt><trkpt lat="43.0897972" lon="12.3140265"><ele>252.0</ele><time>2026-04-04T09:31:08.464Z</time></trkpt><trkpt lat="43.0898111" lon="12.3141519"><ele>252.0</ele><time>2026-04-04T09:31:09.464Z</time></trkpt><trkpt lat="43.0898265" lon="12.3142708"><ele>252.0</ele><time>2026-04-04T09:31:10.464Z</time></trkpt><trkpt lat="43.0898422" lon="12.3143845"><ele>251.33333333333334</ele><time>2026-04-04T09:31:11.464Z</time></trkpt><trkpt lat="43.0898549" lon="12.3144918"><ele>250.66666666666669</ele><time>2026-04-04T09:31:12.464Z</time></trkpt><trkpt lat="43.089869" lon="12.3145868"><ele>250.0</ele><time>2026-04-04T09:31:13.465Z</time></trkpt><trkpt lat="43.0898867" lon="12.3147398"><ele>249.33333333333334</ele><time>2026-04-04T09:31:15.465Z</time></trkpt><trkpt lat="43.0898836" lon="12.314842"><ele>248.66666666666669</ele><time>2026-04-04T09:31:17.464Z</time></trkpt><trkpt lat="43.0898077" lon="12.3149479"><ele>248.0</ele><time>2026-04-04T09:31:19.464Z</time></trkpt><trkpt lat="43.0897354" lon="12.3149981"><ele>248.0</ele><time>2026-04-04T09:31:20.464Z</time></trkpt><trkpt lat="43.0896618" lon="12.3150416"><ele>248.0</ele><time>2026-04-04T09:31:21.464Z</time></trkpt><trkpt lat="43.0895822" lon="12.3150867"><ele>248.0</ele><time>2026-04-04T09:31:22.464Z</time></trkpt><trkpt lat="43.0894947" lon="12.3151332"><ele>248.0</ele><time>2026-04-04T09:31:23.464Z</time></trkpt><trkpt lat="43.0894005" lon="12.3151827"><ele>248.0</ele><time>2026-04-04T09:31:24.465Z</time></trkpt><trkpt lat="43.0893092" lon="12.3152307"><ele>248.0</ele><time>2026-04-04T09:31:25.464Z</time></trkpt><trkpt lat="43.0892091" lon="12.3152689"><ele>248.0</ele><time>2026-04-04T09:31:26.464Z</time></trkpt><trkpt lat="43.0891053" lon="12.3152873"><ele>248.0</ele><time>2026-04-04T09:31:27.464Z</time></trkpt><trkpt lat="43.0890027" lon="12.3152814"><ele>248.0</ele><time>2026-04-04T09:31:28.464Z</time></trkpt><trkpt lat="43.0888932" lon="12.3152491"><ele>248.0</ele><time>2026-04-04T09:31:29.465Z</time></trkpt><trkpt lat="43.0888019" lon="12.3152043"><ele>248.16666666666669</ele><time>2026-04-04T09:31:30.464Z</time></trkpt><trkpt lat="43.0887246" lon="12.3151479"><ele>248.33333333333334</ele><time>2026-04-04T09:31:31.465Z</time></trkpt><trkpt lat="43.0886494" lon="12.3150663"><ele>248.5</ele><time>2026-04-04T09:31:32.465Z</time></trkpt><trkpt lat="43.0885957" lon="12.3150092"><ele>248.66666666666669</ele><time>2026-04-04T09:31:33.465Z</time></trkpt><trkpt lat="43.0885169" lon="12.3150131"><ele>248.83333333333334</ele><time>2026-04-04T09:31:35.466Z</time></trkpt><trkpt lat="43.0884559" lon="12.3151458"><ele>249.0</ele><time>2026-04-04T09:31:37.466Z</time></trkpt><trkpt lat="43.0884365" lon="12.3152371"><ele>249.0</ele><time>2026-04-04T09:31:38.465Z</time></trkpt><trkpt lat="43.0884163" lon="12.3153356"><ele>248.99999999999997</ele><time>2026-04-04T09:31:39.466Z</time></trkpt><trkpt lat="43.08839" lon="12.3154436"><ele>249.0</ele><time>2026-04-04T09:31:40.465Z</time></trkpt><trkpt lat="43.0883673" lon="12.315533"><ele>249.0</ele><time>2026-04-04T09:31:41.466Z</time></trkpt><trkpt lat="43.0883433" lon="12.3156275"><ele>248.99999999999997</ele><time>2026-04-04T09:31:42.466Z</time></trkpt><trkpt lat="43.0883172" lon="12.3157159"><ele>249.0</ele><time>2026-04-04T09:31:43.466Z</time></trkpt><trkpt lat="43.0882926" lon="12.3158015"><ele>249.0</ele><time>2026-04-04T09:31:44.465Z</time></trkpt><trkpt lat="43.0882739" lon="12.3158874"><ele>249.39999999999998</ele><time>2026-04-04T09:31:45.465Z</time></trkpt><trkpt lat="43.0882671" lon="12.3159796"><ele>249.79999999999998</ele><time>2026-04-04T09:31:46.466Z</time></trkpt><trkpt lat="43.0883152" lon="12.3161341"><ele>250.20000000000002</ele><time>2026-04-04T09:31:48.466Z</time></trkpt><trkpt lat="43.0883667" lon="12.3162163"><ele>250.60000000000002</ele><time>2026-04-04T09:31:49.465Z</time></trkpt><trkpt lat="43.0884273" lon="12.3163055"><ele>251.0</ele><time>2026-04-04T09:31:50.465Z</time></trkpt><trkpt lat="43.0884911" lon="12.3163976"><ele>251.60000000000002</ele><time>2026-04-04T09:31:51.465Z</time></trkpt><trkpt lat="43.0885572" lon="12.3164921"><ele>252.20000000000002</ele><time>2026-04-04T09:31:52.465Z</time></trkpt><trkpt lat="43.0886287" lon="12.3165902"><ele>252.79999999999998</ele><time>2026-04-04T09:31:53.465Z</time></trkpt><trkpt lat="43.0886807" lon="12.3166772"><ele>253.39999999999998</ele><time>2026-04-04T09:31:54.465Z</time></trkpt><trkpt lat="43.0887337" lon="12.3167684"><ele>254.0</ele><time>2026-04-04T09:31:55.465Z</time></trkpt><trkpt lat="43.088791" lon="12.3168568"><ele>254.0</ele><time>2026-04-04T09:31:56.465Z</time></trkpt><trkpt lat="43.0888541" lon="12.3169509"><ele>253.99999999999997</ele><time>2026-04-04T09:31:57.465Z</time></trkpt><trkpt lat="43.0889196" lon="12.3170495"><ele>253.99999999999997</ele><time>2026-04-04T09:31:58.465Z</time></trkpt><trkpt lat="43.0889876" lon="12.3171557"><ele>254.0</ele><time>2026-04-04T09:31:59.465Z</time></trkpt><trkpt lat="43.0890568" lon="12.3172591"><ele>254.0</ele><time>2026-04-04T09:32:00.466Z</time></trkpt><trkpt lat="43.0891274" lon="12.3173613"><ele>253.79999999999998</ele><time>2026-04-04T09:32:01.465Z</time></trkpt><trkpt lat="43.0891981" lon="12.317466"><ele>253.59999999999997</ele><time>2026-04-04T09:32:02.465Z</time></trkpt><trkpt lat="43.0892705" lon="12.3175751"><ele>253.4</ele><time>2026-04-04T09:32:03.466Z</time></trkpt><trkpt lat="43.0893427" lon="12.3176824"><ele>253.2</ele><time>2026-04-04T09:32:04.466Z</time></trkpt><trkpt lat="43.0894096" lon="12.317787"><ele>253.0</ele><time>2026-04-04T09:32:05.466Z</time></trkpt><trkpt lat="43.0894798" lon="12.3178885"><ele>253.0</ele><time>2026-04-04T09:32:06.465Z</time></trkpt><trkpt lat="43.0895525" lon="12.3179861"><ele>253.0</ele><time>2026-04-04T09:32:07.465Z</time></trkpt><trkpt lat="43.0896281" lon="12.3180842"><ele>253.0</ele><time>2026-04-04T09:32:08.466Z</time></trkpt><trkpt lat="43.0897018" lon="12.3181858"><ele>253.0</ele><time>2026-04-04T09:32:09.465Z</time></trkpt><trkpt lat="43.0897684" lon="12.3182906"><ele>253.0</ele><time>2026-04-04T09:32:10.465Z</time></trkpt><trkpt lat="43.0898344" lon="12.3183935"><ele>253.0</ele><time>2026-04-04T09:32:11.465Z</time></trkpt><trkpt lat="43.0899032" lon="12.3184912"><ele>253.0</ele><time>2026-04-04T09:32:12.465Z</time></trkpt><trkpt lat="43.0899736" lon="12.3185902"><ele>253.0</ele><time>2026-04-04T09:32:13.465Z</time></trkpt><trkpt lat="43.0900446" lon="12.318685"><ele>253.0</ele><time>2026-04-04T09:32:14.465Z</time></trkpt><trkpt lat="43.0901135" lon="12.3187789"><ele>253.0</ele><time>2026-04-04T09:32:15.465Z</time></trkpt><trkpt lat="43.0901728" lon="12.3188662"><ele>253.66666666666666</ele><time>2026-04-04T09:32:16.466Z</time></trkpt><trkpt lat="43.0902111" lon="12.3189614"><ele>254.33333333333331</ele><time>2026-04-04T09:32:17.465Z</time></trkpt><trkpt lat="43.0902204" lon="12.3190618"><ele>255.0</ele><time>2026-04-04T09:32:18.465Z</time></trkpt><trkpt lat="43.090202" lon="12.3191619"><ele>255.66666666666669</ele><time>2026-04-04T09:32:19.465Z</time></trkpt><trkpt lat="43.0901569" lon="12.3192628"><ele>256.33333333333337</ele><time>2026-04-04T09:32:20.465Z</time></trkpt><trkpt lat="43.0900823" lon="12.3193562"><ele>257.0</ele><time>2026-04-04T09:32:21.467Z</time></trkpt><trkpt lat="43.089986" lon="12.3194504"><ele>256.5</ele><time>2026-04-04T09:32:22.465Z</time></trkpt><trkpt lat="43.0898919" lon="12.3195481"><ele>256.0</ele><time>2026-04-04T09:32:23.465Z</time></trkpt><trkpt lat="43.089788" lon="12.3196488"><ele>255.5</ele><time>2026-04-04T09:32:24.466Z</time></trkpt><trkpt lat="43.0896835" lon="12.3197544"><ele>255.0</ele><time>2026-04-04T09:32:25.465Z</time></trkpt><trkpt lat="43.0895869" lon="12.3198504"><ele>254.8</ele><time>2026-04-04T09:32:26.466Z</time></trkpt><trkpt lat="43.0894911" lon="12.3199341"><ele>254.6</ele><time>2026-04-04T09:32:27.466Z</time></trkpt><trkpt lat="43.0894021" lon="12.3200147"><ele>254.39999999999998</ele><time>2026-04-04T09:32:28.466Z</time></trkpt><trkpt lat="43.0893136" lon="12.3200841"><ele>254.2</ele><time>2026-04-04T09:32:29.466Z</time></trkpt><trkpt lat="43.0892277" lon="12.3201582"><ele>254.0</ele><time>2026-04-04T09:32:30.466Z</time></trkpt><trkpt lat="43.0891423" lon="12.3202399"><ele>254.2</ele><time>2026-04-04T09:32:31.466Z</time></trkpt><trkpt lat="43.0890643" lon="12.3203374"><ele>254.39999999999998</ele><time>2026-04-04T09:32:32.467Z</time></trkpt><trkpt lat="43.0890038" lon="12.3204612"><ele>254.6</ele><time>2026-04-04T09:32:33.466Z</time></trkpt><trkpt lat="43.0889605" lon="12.3205909"><ele>254.8</ele><time>2026-04-04T09:32:34.466Z</time></trkpt><trkpt lat="43.0889504" lon="12.3207254"><ele>255.0</ele><time>2026-04-04T09:32:35.466Z</time></trkpt><trkpt lat="43.088961" lon="12.3208604"><ele>255.0</ele><time>2026-04-04T09:32:36.466Z</time></trkpt><trkpt lat="43.0889741" lon="12.3209612"><ele>255.0</ele><time>2026-04-04T09:32:37.466Z</time></trkpt><trkpt lat="43.0889866" lon="12.3210889"><ele>255.0</ele><time>2026-04-04T09:32:39.466Z</time></trkpt><trkpt lat="43.0888817" lon="12.3213317"><ele>255.0</ele><time>2026-04-04T09:32:49.466Z</time></trkpt><trkpt lat="43.0888387" lon="12.3214256"><ele>255.2</ele><time>2026-04-04T09:32:50.467Z</time></trkpt><trkpt lat="43.0887729" lon="12.3215161"><ele>255.4</ele><time>2026-04-04T09:32:51.466Z</time></trkpt><trkpt lat="43.0886927" lon="12.3215951"><ele>255.60000000000002</ele><time>2026-04-04T09:32:52.466Z</time></trkpt><trkpt lat="43.0886048" lon="12.3216516"><ele>255.8</ele><time>2026-04-04T09:32:53.466Z</time></trkpt><trkpt lat="43.0884971" lon="12.3216839"><ele>256.0</ele><time>2026-04-04T09:32:54.466Z</time></trkpt><trkpt lat="43.0883774" lon="12.3217162"><ele>256.0</ele><time>2026-04-04T09:32:55.466Z</time></trkpt><trkpt lat="43.0882561" lon="12.3217494"><ele>256.0</ele><time>2026-04-04T09:32:56.466Z</time></trkpt><trkpt lat="43.088129" lon="12.3217842"><ele>256.0</ele><time>2026-04-04T09:32:57.466Z</time></trkpt><trkpt lat="43.0879957" lon="12.3218218"><ele>256.0</ele><time>2026-04-04T09:32:58.466Z</time></trkpt><trkpt lat="43.0878558" lon="12.3218779"><ele>256.0</ele><time>2026-04-04T09:32:59.466Z</time></trkpt><trkpt lat="43.0877222" lon="12.3219563"><ele>256.0</ele><time>2026-04-04T09:33:00.466Z</time></trkpt><trkpt lat="43.0875847" lon="12.3220437"><ele>256.0</ele><time>2026-04-04T09:33:01.466Z</time></trkpt><trkpt lat="43.087445" lon="12.3221401"><ele>255.33333333333331</ele><time>2026-04-04T09:33:02.466Z</time></trkpt><trkpt lat="43.0873131" lon="12.3222357"><ele>254.66666666666669</ele><time>2026-04-04T09:33:03.466Z</time></trkpt><trkpt lat="43.0871827" lon="12.3223381"><ele>254.0</ele><time>2026-04-04T09:33:04.466Z</time></trkpt><trkpt lat="43.0870483" lon="12.3224533"><ele>254.0</ele><time>2026-04-04T09:33:05.466Z</time></trkpt><trkpt lat="43.08692" lon="12.3225736"><ele>254.0</ele><time>2026-04-04T09:33:06.467Z</time></trkpt><trkpt lat="43.0868004" lon="12.3226932"><ele>254.0</ele><time>2026-04-04T09:33:07.467Z</time></trkpt><trkpt lat="43.086685" lon="12.3228064"><ele>254.0</ele><time>2026-04-04T09:33:08.466Z</time></trkpt><trkpt lat="43.0865685" lon="12.322915"><ele>253.5</ele><time>2026-04-04T09:33:09.467Z</time></trkpt><trkpt lat="43.0864539" lon="12.3230275"><ele>253.0</ele><time>2026-04-04T09:33:10.466Z</time></trkpt><trkpt lat="43.0863418" lon="12.3231532"><ele>252.5</ele><time>2026-04-04T09:33:11.466Z</time></trkpt><trkpt lat="43.0862269" lon="12.3232829"><ele>252.0</ele><time>2026-04-04T09:33:12.466Z</time></trkpt><trkpt lat="43.0861079" lon="12.3234146"><ele>251.5</ele><time>2026-04-04T09:33:13.466Z</time></trkpt><trkpt lat="43.0859896" lon="12.3235414"><ele>251.0</ele><time>2026-04-04T09:33:14.466Z</time></trkpt><trkpt lat="43.0858687" lon="12.323664"><ele>250.5</ele><time>2026-04-04T09:33:15.466Z</time></trkpt><trkpt lat="43.0857525" lon="12.3237736"><ele>250.0</ele><time>2026-04-04T09:33:16.466Z</time></trkpt><trkpt lat="43.0856398" lon="12.3238791"><ele>249.25</ele><time>2026-04-04T09:33:17.466Z</time></trkpt><trkpt lat="43.0855324" lon="12.3239816"><ele>248.5</ele><time>2026-04-04T09:33:18.467Z</time></trkpt><trkpt lat="43.0854323" lon="12.3240815"><ele>247.75</ele><time>2026-04-04T09:33:19.468Z</time></trkpt><trkpt lat="43.0853397" lon="12.3241763"><ele>247.0</ele><time>2026-04-04T09:33:20.467Z</time></trkpt><trkpt lat="43.0852581" lon="12.3242598"><ele>246.99999999999997</ele><time>2026-04-04T09:33:21.466Z</time></trkpt><trkpt lat="43.0851787" lon="12.3243338"><ele>247.0</ele><time>2026-04-04T09:33:22.468Z</time></trkpt><trkpt lat="43.0850985" lon="12.3243909"><ele>247.0</ele><time>2026-04-04T09:33:23.467Z</time></trkpt><trkpt lat="43.0850216" lon="12.3244462"><ele>247.0</ele><time>2026-04-04T09:33:24.467Z</time></trkpt><trkpt lat="43.0849579" lon="12.3245164"><ele>246.99999999999997</ele><time>2026-04-04T09:33:25.468Z</time></trkpt><trkpt lat="43.0849147" lon="12.324609"><ele>247.0</ele><time>2026-04-04T09:33:26.467Z</time></trkpt><trkpt lat="43.0849004" lon="12.3247102"><ele>247.39999999999998</ele><time>2026-04-04T09:33:27.467Z</time></trkpt><trkpt lat="43.0849199" lon="12.3248428"><ele>247.79999999999998</ele><time>2026-04-04T09:33:28.467Z</time></trkpt><trkpt lat="43.0849802" lon="12.3249294"><ele>248.2</ele><time>2026-04-04T09:33:29.467Z</time></trkpt><trkpt lat="43.0850549" lon="12.3249845"><ele>248.6</ele><time>2026-04-04T09:33:30.467Z</time></trkpt><trkpt lat="43.085149" lon="12.3250256"><ele>249.0</ele><time>2026-04-04T09:33:31.467Z</time></trkpt><trkpt lat="43.085255" lon="12.3250053"><ele>248.2</ele><time>2026-04-04T09:33:32.468Z</time></trkpt><trkpt lat="43.0853767" lon="12.3249485"><ele>247.39999999999998</ele><time>2026-04-04T09:33:33.467Z</time></trkpt><trkpt lat="43.0854728" lon="12.3249051"><ele>246.6</ele><time>2026-04-04T09:33:34.468Z</time></trkpt><trkpt lat="43.0855577" lon="12.3248972"><ele>245.8</ele><time>2026-04-04T09:33:35.467Z</time></trkpt><trkpt lat="43.0856446" lon="12.3249197"><ele>245.0</ele><time>2026-04-04T09:33:36.467Z</time></trkpt><trkpt lat="43.0857603" lon="12.3250041"><ele>246.25</ele><time>2026-04-04T09:33:37.467Z</time></trkpt><trkpt lat="43.0858756" lon="12.3251247"><ele>247.5</ele><time>2026-04-04T09:33:38.467Z</time></trkpt><trkpt lat="43.085991" lon="12.3252508"><ele>248.75</ele><time>2026-04-04T09:33:39.467Z</time></trkpt><trkpt lat="43.0861045" lon="12.3253754"><ele>250.0</ele><time>2026-04-04T09:33:40.467Z</time></trkpt><trkpt lat="43.0862199" lon="12.3255128"><ele>249.0</ele><time>2026-04-04T09:33:41.467Z</time></trkpt><trkpt lat="43.0863341" lon="12.3256481"><ele>248.0</ele><time>2026-04-04T09:33:42.467Z</time></trkpt><trkpt lat="43.0864564" lon="12.3257894"><ele>247.0</ele><time>2026-04-04T09:33:43.467Z</time></trkpt><trkpt lat="43.086579" lon="12.3259257"><ele>247.33333333333331</ele><time>2026-04-04T09:33:44.467Z</time></trkpt><trkpt lat="43.0867007" lon="12.3260683"><ele>247.66666666666669</ele><time>2026-04-04T09:33:45.467Z</time></trkpt><trkpt lat="43.0868299" lon="12.3262072"><ele>248.0</ele><time>2026-04-04T09:33:46.468Z</time></trkpt><trkpt lat="43.0869564" lon="12.3263379"><ele>247.66666666666669</ele><time>2026-04-04T09:33:47.467Z</time></trkpt><trkpt lat="43.0870799" lon="12.3264661"><ele>247.33333333333331</ele><time>2026-04-04T09:33:48.467Z</time></trkpt><trkpt lat="43.0872013" lon="12.3266002"><ele>247.0</ele><time>2026-04-04T09:33:49.467Z</time></trkpt><trkpt lat="43.0873258" lon="12.3267297"><ele>247.66666666666666</ele><time>2026-04-04T09:33:50.467Z</time></trkpt><trkpt lat="43.0874578" lon="12.3268634"><ele>248.33333333333331</ele><time>2026-04-04T09:33:51.467Z</time></trkpt><trkpt lat="43.0875931" lon="12.3270004"><ele>249.0</ele><time>2026-04-04T09:33:52.467Z</time></trkpt><trkpt lat="43.0877308" lon="12.3271432"><ele>248.0</ele><time>2026-04-04T09:33:53.467Z</time></trkpt><trkpt lat="43.0878683" lon="12.3272797"><ele>247.0</ele><time>2026-04-04T09:33:54.467Z</time></trkpt><trkpt lat="43.0880077" lon="12.3274006"><ele>246.0</ele><time>2026-04-04T09:33:55.468Z</time></trkpt><trkpt lat="43.0881443" lon="12.3275084"><ele>246.75</ele><time>2026-04-04T09:33:56.468Z</time></trkpt><trkpt lat="43.0882756" lon="12.3276166"><ele>247.5</ele><time>2026-04-04T09:33:57.467Z</time></trkpt><trkpt lat="43.088398" lon="12.3277211"><ele>248.25</ele><time>2026-04-04T09:33:58.468Z</time></trkpt><trkpt lat="43.088508" lon="12.3278075"><ele>249.0</ele><time>2026-04-04T09:33:59.467Z</time></trkpt><trkpt lat="43.0886105" lon="12.3278824"><ele>249.0</ele><time>2026-04-04T09:34:00.467Z</time></trkpt><trkpt lat="43.0887188" lon="12.3279608"><ele>249.0</ele><time>2026-04-04T09:34:01.467Z</time></trkpt><trkpt lat="43.0888339" lon="12.3280326"><ele>249.0</ele><time>2026-04-04T09:34:02.467Z</time></trkpt><trkpt lat="43.0889502" lon="12.3281093"><ele>249.0</ele><time>2026-04-04T09:34:03.467Z</time></trkpt><trkpt lat="43.0890746" lon="12.3282019"><ele>249.33333333333331</ele><time>2026-04-04T09:34:04.468Z</time></trkpt><trkpt lat="43.0892124" lon="12.3283066"><ele>249.66666666666666</ele><time>2026-04-04T09:34:05.467Z</time></trkpt><trkpt lat="43.0893586" lon="12.3284071"><ele>250.0</ele><time>2026-04-04T09:34:06.467Z</time></trkpt><trkpt lat="43.0895139" lon="12.3285019"><ele>250.0</ele><time>2026-04-04T09:34:07.467Z</time></trkpt><trkpt lat="43.0896776" lon="12.3285966"><ele>250.0</ele><time>2026-04-04T09:34:08.468Z</time></trkpt><trkpt lat="43.0898461" lon="12.3286989"><ele>250.0</ele><time>2026-04-04T09:34:09.467Z</time></trkpt><trkpt lat="43.0900177" lon="12.3288133"><ele>251.33333333333331</ele><time>2026-04-04T09:34:10.467Z</time></trkpt><trkpt lat="43.0901906" lon="12.3289325"><ele>252.66666666666669</ele><time>2026-04-04T09:34:11.468Z</time></trkpt><trkpt lat="43.0903602" lon="12.3290424"><ele>254.0</ele><time>2026-04-04T09:34:12.468Z</time></trkpt><trkpt lat="43.0905236" lon="12.3291475"><ele>254.0</ele><time>2026-04-04T09:34:13.468Z</time></trkpt><trkpt lat="43.0906862" lon="12.3292572"><ele>254.0</ele><time>2026-04-04T09:34:14.469Z</time></trkpt><trkpt lat="43.0908479" lon="12.3293731"><ele>254.0</ele><time>2026-04-04T09:34:15.468Z</time></trkpt><trkpt lat="43.0910066" lon="12.3295064"><ele>255.0</ele><time>2026-04-04T09:34:16.468Z</time></trkpt><trkpt lat="43.0911597" lon="12.3296608"><ele>256.0</ele><time>2026-04-04T09:34:17.468Z</time></trkpt><trkpt lat="43.0913085" lon="12.3298295"><ele>257.0</ele><time>2026-04-04T09:34:18.468Z</time></trkpt><trkpt lat="43.0914499" lon="12.3300109"><ele>260.0</ele><time>2026-04-04T09:34:19.468Z</time></trkpt><trkpt lat="43.0915912" lon="12.3301749"><ele>263.0</ele><time>2026-04-04T09:34:20.468Z</time></trkpt><trkpt lat="43.0917308" lon="12.3303282"><ele>266.0</ele><time>2026-04-04T09:34:21.468Z</time></trkpt><trkpt lat="43.09187" lon="12.330467"><ele>267.25</ele><time>2026-04-04T09:34:22.468Z</time></trkpt><trkpt lat="43.0919982" lon="12.3305833"><ele>268.5</ele><time>2026-04-04T09:34:23.469Z</time></trkpt><trkpt lat="43.0921174" lon="12.3306857"><ele>269.75</ele><time>2026-04-04T09:34:24.468Z</time></trkpt><trkpt lat="43.0922304" lon="12.3307833"><ele>271.0</ele><time>2026-04-04T09:34:25.468Z</time></trkpt><trkpt lat="43.0923373" lon="12.3308627"><ele>273.2</ele><time>2026-04-04T09:34:26.468Z</time></trkpt><trkpt lat="43.0924467" lon="12.3309157"><ele>275.40000000000003</ele><time>2026-04-04T09:34:27.469Z</time></trkpt><trkpt lat="43.0925566" lon="12.3309133"><ele>277.6</ele><time>2026-04-04T09:34:28.468Z</time></trkpt><trkpt lat="43.0926498" lon="12.3308486"><ele>279.8</ele><time>2026-04-04T09:34:29.468Z</time></trkpt><trkpt lat="43.0927347" lon="12.3307696"><ele>282.0</ele><time>2026-04-04T09:34:30.468Z</time></trkpt><trkpt lat="43.0928323" lon="12.3307152"><ele>282.0</ele><time>2026-04-04T09:34:31.468Z</time></trkpt><trkpt lat="43.0929156" lon="12.3307051"><ele>282.0</ele><time>2026-04-04T09:34:32.469Z</time></trkpt><trkpt lat="43.0929721" lon="12.330751"><ele>282.0</ele><time>2026-04-04T09:34:33.468Z</time></trkpt><trkpt lat="43.0929807" lon="12.3308416"><ele>282.0</ele><time>2026-04-04T09:34:35.468Z</time></trkpt><trkpt lat="43.0929541" lon="12.3309386"><ele>282.0</ele><time>2026-04-04T09:34:42.468Z</time></trkpt><trkpt lat="43.0928964" lon="12.3310301"><ele>282.0</ele><time>2026-04-04T09:34:43.469Z</time></trkpt><trkpt lat="43.0928181" lon="12.3311037"><ele>282.0</ele><time>2026-04-04T09:34:44.468Z</time></trkpt><trkpt lat="43.0927201" lon="12.3311849"><ele>282.0</ele><time>2026-04-04T09:34:45.469Z</time></trkpt><trkpt lat="43.0926374" lon="12.3312948"><ele>282.0</ele><time>2026-04-04T09:34:46.468Z</time></trkpt><trkpt lat="43.0925438" lon="12.3314227"><ele>282.0</ele><time>2026-04-04T09:34:47.468Z</time></trkpt><trkpt lat="43.0924482" lon="12.3315596"><ele>280.3333333333333</ele><time>2026-04-04T09:34:48.468Z</time></trkpt><trkpt lat="43.0923526" lon="12.3317067"><ele>278.66666666666663</ele><time>2026-04-04T09:34:49.469Z</time></trkpt><trkpt lat="43.0922599" lon="12.3318671"><ele>277.0</ele><time>2026-04-04T09:34:50.468Z</time></trkpt><trkpt lat="43.0921671" lon="12.3320558"><ele>279.3333333333333</ele><time>2026-04-04T09:34:51.469Z</time></trkpt><trkpt lat="43.0920824" lon="12.3322491"><ele>281.6666666666667</ele><time>2026-04-04T09:34:52.468Z</time></trkpt><trkpt lat="43.0920158" lon="12.3324514"><ele>284.0</ele><time>2026-04-04T09:34:53.469Z</time></trkpt><trkpt lat="43.0919611" lon="12.3326552"><ele>284.0</ele><time>2026-04-04T09:34:54.468Z</time></trkpt><trkpt lat="43.0919044" lon="12.3328616"><ele>284.0</ele><time>2026-04-04T09:34:55.469Z</time></trkpt><trkpt lat="43.0918457" lon="12.3330753"><ele>284.0</ele><time>2026-04-04T09:34:56.469Z</time></trkpt><trkpt lat="43.0917756" lon="12.3332979"><ele>284.6666666666667</ele><time>2026-04-04T09:34:57.468Z</time></trkpt><trkpt lat="43.0917024" lon="12.3335277"><ele>285.3333333333333</ele><time>2026-04-04T09:34:58.468Z</time></trkpt><trkpt lat="43.0916388" lon="12.3337787"><ele>286.0</ele><time>2026-04-04T09:34:59.469Z</time></trkpt><trkpt lat="43.0915623" lon="12.3340136"><ele>286.0</ele><time>2026-04-04T09:35:00.47Z</time></trkpt><trkpt lat="43.0914551" lon="12.3343496"><ele>286.0</ele><time>2026-04-04T09:35:02.468Z</time></trkpt><trkpt lat="43.0914184" lon="12.3344868"><ele>286.0</ele><time>2026-04-04T09:35:03.469Z</time></trkpt><trkpt lat="43.0913968" lon="12.3346056"><ele>287.40000000000003</ele><time>2026-04-04T09:35:04.468Z</time></trkpt><trkpt lat="43.0913798" lon="12.3347452"><ele>288.8</ele><time>2026-04-04T09:35:06.469Z</time></trkpt><trkpt lat="43.0913458" lon="12.3348539"><ele>290.20000000000005</ele><time>2026-04-04T09:35:08.469Z</time></trkpt><trkpt lat="43.0912922" lon="12.3349841"><ele>291.6</ele><time>2026-04-04T09:35:10.469Z</time></trkpt><trkpt lat="43.0912454" lon="12.3351716"><ele>293.0</ele><time>2026-04-04T09:35:12.469Z</time></trkpt><trkpt lat="43.0912169" lon="12.3352973"><ele>293.0</ele><time>2026-04-04T09:35:13.469Z</time></trkpt><trkpt lat="43.0911714" lon="12.3354408"><ele>293.0</ele><time>2026-04-04T09:35:14.469Z</time></trkpt><trkpt lat="43.0911083" lon="12.3355987"><ele>293.0</ele><time>2026-04-04T09:35:15.469Z</time></trkpt><trkpt lat="43.0910351" lon="12.3357562"><ele>293.0</ele><time>2026-04-04T09:35:16.469Z</time></trkpt><trkpt lat="43.090951" lon="12.3359152"><ele>295.75</ele><time>2026-04-04T09:35:17.469Z</time></trkpt><trkpt lat="43.0908709" lon="12.3360867"><ele>298.5</ele><time>2026-04-04T09:35:18.47Z</time></trkpt><trkpt lat="43.0907902" lon="12.3362553"><ele>301.25</ele><time>2026-04-04T09:35:19.469Z</time></trkpt><trkpt lat="43.090711" lon="12.3364102"><ele>304.0</ele><time>2026-04-04T09:35:20.469Z</time></trkpt><trkpt lat="43.0906435" lon="12.336547"><ele>304.0</ele><time>2026-04-04T09:35:21.469Z</time></trkpt><trkpt lat="43.0905739" lon="12.3366894"><ele>304.0</ele><time>2026-04-04T09:35:22.469Z</time></trkpt><trkpt lat="43.0905034" lon="12.3368417"><ele>304.0</ele><time>2026-04-04T09:35:23.469Z</time></trkpt><trkpt lat="43.0904178" lon="12.3369972"><ele>304.0</ele><time>2026-04-04T09:35:24.47Z</time></trkpt><trkpt lat="43.0903284" lon="12.3371522"><ele>304.75</ele><time>2026-04-04T09:35:25.469Z</time></trkpt><trkpt lat="43.0902274" lon="12.3372849"><ele>305.5</ele><time>2026-04-04T09:35:26.47Z</time></trkpt><trkpt lat="43.0901245" lon="12.3374166"><ele>306.25</ele><time>2026-04-04T09:35:27.47Z</time></trkpt><trkpt lat="43.0900252" lon="12.3375369"><ele>307.0</ele><time>2026-04-04T09:35:28.47Z</time></trkpt><trkpt lat="43.0899315" lon="12.3376524"><ele>306.5</ele><time>2026-04-04T09:35:29.469Z</time></trkpt><trkpt lat="43.0898396" lon="12.3377626"><ele>306.0</ele><time>2026-04-04T09:35:30.469Z</time></trkpt><trkpt lat="43.0897387" lon="12.3378949"><ele>305.5</ele><time>2026-04-04T09:35:31.469Z</time></trkpt><trkpt lat="43.0896178" lon="12.3380408"><ele>305.0</ele><time>2026-04-04T09:35:32.469Z</time></trkpt><trkpt lat="43.0894877" lon="12.3381888"><ele>305.0</ele><time>2026-04-04T09:35:33.469Z</time></trkpt><trkpt lat="43.0893466" lon="12.3383433"><ele>305.0</ele><time>2026-04-04T09:35:34.469Z</time></trkpt><trkpt lat="43.0892037" lon="12.3385026"><ele>305.0</ele><time>2026-04-04T09:35:35.469Z</time></trkpt><trkpt lat="43.0890635" lon="12.3386613"><ele>304.33333333333337</ele><time>2026-04-04T09:35:36.469Z</time></trkpt><trkpt lat="43.0889267" lon="12.3388277"><ele>303.6666666666667</ele><time>2026-04-04T09:35:37.469Z</time></trkpt><trkpt lat="43.0887935" lon="12.3389981"><ele>303.0</ele><time>2026-04-04T09:35:38.469Z</time></trkpt><trkpt lat="43.0886657" lon="12.3391764"><ele>303.0</ele><time>2026-04-04T09:35:39.469Z</time></trkpt><trkpt lat="43.0885451" lon="12.339366"><ele>303.0</ele><time>2026-04-04T09:35:40.469Z</time></trkpt><trkpt lat="43.0884322" lon="12.3395711"><ele>303.0</ele><time>2026-04-04T09:35:41.469Z</time></trkpt><trkpt lat="43.0883315" lon="12.3397911"><ele>301.6666666666667</ele><time>2026-04-04T09:35:42.47Z</time></trkpt><trkpt lat="43.0882462" lon="12.3400299"><ele>300.33333333333337</ele><time>2026-04-04T09:35:43.469Z</time></trkpt><trkpt lat="43.0881662" lon="12.3402637"><ele>299.0</ele><time>2026-04-04T09:35:44.469Z</time></trkpt><trkpt lat="43.0880851" lon="12.3404894"><ele>301.0</ele><time>2026-04-04T09:35:45.469Z</time></trkpt><trkpt lat="43.0880156" lon="12.3407081"><ele>303.0</ele><time>2026-04-04T09:35:46.469Z</time></trkpt><trkpt lat="43.0879568" lon="12.3409216"><ele>305.0</ele><time>2026-04-04T09:35:47.469Z</time></trkpt><trkpt lat="43.0879253" lon="12.3411437"><ele>307.0</ele><time>2026-04-04T09:35:48.47Z</time></trkpt><trkpt lat="43.0879136" lon="12.341384"><ele>309.0</ele><time>2026-04-04T09:35:49.469Z</time></trkpt><trkpt lat="43.087926" lon="12.3416505"><ele>311.0</ele><time>2026-04-04T09:35:50.47Z</time></trkpt><trkpt lat="43.0879267" lon="12.3419205"><ele>311.0</ele><time>2026-04-04T09:35:51.469Z</time></trkpt><trkpt lat="43.0879243" lon="12.3421985"><ele>311.0</ele><time>2026-04-04T09:35:52.469Z</time></trkpt><trkpt lat="43.0879155" lon="12.3424557"><ele>311.0</ele><time>2026-04-04T09:35:53.469Z</time></trkpt><trkpt lat="43.0879116" lon="12.3427046"><ele>312.0</ele><time>2026-04-04T09:35:54.47Z</time></trkpt><trkpt lat="43.0879098" lon="12.3429562"><ele>313.0</ele><time>2026-04-04T09:35:55.469Z</time></trkpt><trkpt lat="43.0879123" lon="12.3432201"><ele>314.0</ele><time>2026-04-04T09:35:56.469Z</time></trkpt><trkpt lat="43.0879239" lon="12.343505"><ele>314.0</ele><time>2026-04-04T09:35:57.469Z</time></trkpt><trkpt lat="43.0879416" lon="12.3437954"><ele>314.0</ele><time>2026-04-04T09:35:58.471Z</time></trkpt><trkpt lat="43.0879694" lon="12.3440841"><ele>314.0</ele><time>2026-04-04T09:35:59.469Z</time></trkpt><trkpt lat="43.0880045" lon="12.3443741"><ele>313.33333333333337</ele><time>2026-04-04T09:36:00.47Z</time></trkpt><trkpt lat="43.0880506" lon="12.3446573"><ele>312.6666666666667</ele><time>2026-04-04T09:36:01.47Z</time></trkpt><trkpt lat="43.0881157" lon="12.3449276"><ele>312.0</ele><time>2026-04-04T09:36:02.47Z</time></trkpt><trkpt lat="43.0881907" lon="12.3451991"><ele>316.3333333333333</ele><time>2026-04-04T09:36:03.471Z</time></trkpt><trkpt lat="43.0882709" lon="12.3454635"><ele>320.66666666666663</ele><time>2026-04-04T09:36:04.47Z</time></trkpt><trkpt lat="43.0883464" lon="12.345723"><ele>325.0</ele><time>2026-04-04T09:36:05.47Z</time></trkpt><trkpt lat="43.0884317" lon="12.3459834"><ele>325.0</ele><time>2026-04-04T09:36:06.47Z</time></trkpt><trkpt lat="43.0885301" lon="12.3462275"><ele>325.0</ele><time>2026-04-04T09:36:07.471Z</time></trkpt><trkpt lat="43.0886311" lon="12.3464743"><ele>325.0</ele><time>2026-04-04T09:36:08.47Z</time></trkpt><trkpt lat="43.0887257" lon="12.3467105"><ele>324.0</ele><time>2026-04-04T09:36:09.47Z</time></trkpt><trkpt lat="43.0888181" lon="12.3469195"><ele>323.0</ele><time>2026-04-04T09:36:10.47Z</time></trkpt><trkpt lat="43.0889179" lon="12.3471363"><ele>322.0</ele><time>2026-04-04T09:36:11.471Z</time></trkpt><trkpt lat="43.0890138" lon="12.3473598"><ele>323.0</ele><time>2026-04-04T09:36:12.47Z</time></trkpt><trkpt lat="43.0891058" lon="12.3475798"><ele>324.0</ele><time>2026-04-04T09:36:13.47Z</time></trkpt><trkpt lat="43.0892008" lon="12.3477926"><ele>325.0</ele><time>2026-04-04T09:36:14.47Z</time></trkpt><trkpt lat="43.0892935" lon="12.3479887"><ele>321.3333333333333</ele><time>2026-04-04T09:36:15.47Z</time></trkpt><trkpt lat="43.0893849" lon="12.3481923"><ele>317.6666666666667</ele><time>2026-04-04T09:36:16.471Z</time></trkpt><trkpt lat="43.0894627" lon="12.348401"><ele>314.0</ele><time>2026-04-04T09:36:17.471Z</time></trkpt><trkpt lat="43.0895255" lon="12.3486188"><ele>314.0</ele><time>2026-04-04T09:36:18.47Z</time></trkpt><trkpt lat="43.0895724" lon="12.3488273"><ele>314.0</ele><time>2026-04-04T09:36:19.47Z</time></trkpt><trkpt lat="43.0895965" lon="12.3490303"><ele>314.0</ele><time>2026-04-04T09:36:20.47Z</time></trkpt><trkpt lat="43.0895993" lon="12.3492274"><ele>313.5</ele><time>2026-04-04T09:36:21.47Z</time></trkpt><trkpt lat="43.0895705" lon="12.3494017"><ele>313.0</ele><time>2026-04-04T09:36:22.47Z</time></trkpt><trkpt lat="43.0895067" lon="12.3495534"><ele>312.5</ele><time>2026-04-04T09:36:23.47Z</time></trkpt><trkpt lat="43.0894117" lon="12.3496863"><ele>312.0</ele><time>2026-04-04T09:36:24.47Z</time></trkpt><trkpt lat="43.08928" lon="12.3497838"><ele>312.3333333333333</ele><time>2026-04-04T09:36:25.47Z</time></trkpt><trkpt lat="43.0891311" lon="12.3498595"><ele>312.66666666666663</ele><time>2026-04-04T09:36:26.47Z</time></trkpt><trkpt lat="43.0889654" lon="12.3499207"><ele>313.0</ele><time>2026-04-04T09:36:27.47Z</time></trkpt><trkpt lat="43.0887969" lon="12.3499823"><ele>313.0</ele><time>2026-04-04T09:36:28.47Z</time></trkpt><trkpt lat="43.0886343" lon="12.3500561"><ele>313.0</ele><time>2026-04-04T09:36:29.47Z</time></trkpt><trkpt lat="43.0884815" lon="12.3501278"><ele>313.0</ele><time>2026-04-04T09:36:30.47Z</time></trkpt><trkpt lat="43.088346" lon="12.3501978"><ele>311.25</ele><time>2026-04-04T09:36:31.47Z</time></trkpt><trkpt lat="43.0882151" lon="12.3502551"><ele>309.5</ele><time>2026-04-04T09:36:32.47Z</time></trkpt><trkpt lat="43.088109" lon="12.3503223"><ele>307.75</ele><time>2026-04-04T09:36:33.47Z</time></trkpt><trkpt lat="43.0880182" lon="12.350436"><ele>306.0</ele><time>2026-04-04T09:36:34.47Z</time></trkpt><trkpt lat="43.0879416" lon="12.3505808"><ele>305.75</ele><time>2026-04-04T09:36:35.47Z</time></trkpt><trkpt lat="43.0878997" lon="12.3507543"><ele>305.5</ele><time>2026-04-04T09:36:36.47Z</time></trkpt><trkpt lat="43.0878838" lon="12.350937"><ele>305.25</ele><time>2026-04-04T09:36:37.47Z</time></trkpt><trkpt lat="43.087898" lon="12.3511378"><ele>305.0</ele><time>2026-04-04T09:36:38.47Z</time></trkpt><trkpt lat="43.0879026" lon="12.3513128"><ele>304.25</ele><time>2026-04-04T09:36:39.471Z</time></trkpt><trkpt lat="43.0879143" lon="12.3515023"><ele>303.5</ele><time>2026-04-04T09:36:40.471Z</time></trkpt><trkpt lat="43.0879222" lon="12.3516745"><ele>302.75</ele><time>2026-04-04T09:36:41.471Z</time></trkpt><trkpt lat="43.0879265" lon="12.3518333"><ele>302.0</ele><time>2026-04-04T09:36:42.47Z</time></trkpt><trkpt lat="43.0879287" lon="12.351969"><ele>302.0</ele><time>2026-04-04T09:36:43.47Z</time></trkpt><trkpt lat="43.0879257" lon="12.3520756"><ele>302.0</ele><time>2026-04-04T09:36:44.47Z</time></trkpt><trkpt lat="43.0878792" lon="12.3522116"><ele>302.0</ele><time>2026-04-04T09:36:46.471Z</time></trkpt><trkpt lat="43.0878291" lon="12.3522792"><ele>302.0</ele><time>2026-04-04T09:36:50.471Z</time></trkpt><trkpt lat="43.0878225" lon="12.352373"><ele>302.0</ele><time>2026-04-04T09:36:54.471Z</time></trkpt><trkpt lat="43.087833" lon="12.35246"><ele>302.0</ele><time>2026-04-04T09:36:55.471Z</time></trkpt><trkpt lat="43.0878554" lon="12.3525547"><ele>300.6</ele><time>2026-04-04T09:36:56.472Z</time></trkpt><trkpt lat="43.0879035" lon="12.3526441"><ele>299.2</ele><time>2026-04-04T09:36:57.471Z</time></trkpt><trkpt lat="43.0879526" lon="12.3527379"><ele>297.8</ele><time>2026-04-04T09:36:58.471Z</time></trkpt><trkpt lat="43.0880131" lon="12.3528516"><ele>296.4</ele><time>2026-04-04T09:36:59.471Z</time></trkpt><trkpt lat="43.0880727" lon="12.3529633"><ele>295.0</ele><time>2026-04-04T09:37:00.471Z</time></trkpt><trkpt lat="43.0881362" lon="12.3530886"><ele>294.75</ele><time>2026-04-04T09:37:01.471Z</time></trkpt><trkpt lat="43.0881989" lon="12.3532226"><ele>294.5</ele><time>2026-04-04T09:37:02.472Z</time></trkpt><trkpt lat="43.0882589" lon="12.353359"><ele>294.25</ele><time>2026-04-04T09:37:03.471Z</time></trkpt><trkpt lat="43.0883172" lon="12.3535061"><ele>294.0</ele><time>2026-04-04T09:37:04.471Z</time></trkpt><trkpt lat="43.0883707" lon="12.3536327"><ele>294.0</ele><time>2026-04-04T09:37:05.471Z</time></trkpt><trkpt lat="43.0884281" lon="12.3537496"><ele>294.0</ele><time>2026-04-04T09:37:06.471Z</time></trkpt><trkpt lat="43.0884916" lon="12.3538556"><ele>294.0</ele><time>2026-04-04T09:37:07.471Z</time></trkpt><trkpt lat="43.0885666" lon="12.3539507"><ele>294.0</ele><time>2026-04-04T09:37:08.471Z</time></trkpt><trkpt lat="43.0886592" lon="12.35402"><ele>294.0</ele><time>2026-04-04T09:37:09.471Z</time></trkpt><trkpt lat="43.0887646" lon="12.3540671"><ele>293.25</ele><time>2026-04-04T09:37:10.471Z</time></trkpt><trkpt lat="43.0888762" lon="12.3540895"><ele>292.5</ele><time>2026-04-04T09:37:11.471Z</time></trkpt><trkpt lat="43.088986" lon="12.3540999"><ele>291.75</ele><time>2026-04-04T09:37:12.471Z</time></trkpt><trkpt lat="43.0890818" lon="12.3541429"><ele>291.0</ele><time>2026-04-04T09:37:13.471Z</time></trkpt><trkpt lat="43.0892781" lon="12.3543027"><ele>291.0</ele><time>2026-04-04T09:37:15.471Z</time></trkpt><trkpt lat="43.0893466" lon="12.3544156"><ele>291.0</ele><time>2026-04-04T09:37:16.471Z</time></trkpt><trkpt lat="43.0893933" lon="12.3545499"><ele>291.0</ele><time>2026-04-04T09:37:17.471Z</time></trkpt><trkpt lat="43.0894158" lon="12.3547464"><ele>291.0</ele><time>2026-04-04T09:37:18.472Z</time></trkpt><trkpt lat="43.0894099" lon="12.3549452"><ele>290.0</ele><time>2026-04-04T09:37:19.471Z</time></trkpt><trkpt lat="43.0894091" lon="12.3551458"><ele>289.0</ele><time>2026-04-04T09:37:20.472Z</time></trkpt><trkpt lat="43.0894276" lon="12.3553551"><ele>288.0</ele><time>2026-04-04T09:37:21.471Z</time></trkpt><trkpt lat="43.0894561" lon="12.3555658"><ele>283.0</ele><time>2026-04-04T09:37:22.471Z</time></trkpt><trkpt lat="43.0895114" lon="12.3557753"><ele>278.0</ele><time>2026-04-04T09:37:23.471Z</time></trkpt><trkpt lat="43.0895874" lon="12.355969"><ele>273.0</ele><time>2026-04-04T09:37:24.471Z</time></trkpt><trkpt lat="43.0896826" lon="12.3561356"><ele>273.0</ele><time>2026-04-04T09:37:25.471Z</time></trkpt><trkpt lat="43.0897885" lon="12.3562556"><ele>273.0</ele><time>2026-04-04T09:37:26.471Z</time></trkpt><trkpt lat="43.0899051" lon="12.356328"><ele>273.0</ele><time>2026-04-04T09:37:27.471Z</time></trkpt><trkpt lat="43.0900482" lon="12.3563454"><ele>273.0</ele><time>2026-04-04T09:37:28.471Z</time></trkpt><trkpt lat="43.0902068" lon="12.3563344"><ele>273.0</ele><time>2026-04-04T09:37:29.471Z</time></trkpt><trkpt lat="43.090372" lon="12.3562814"><ele>273.0</ele><time>2026-04-04T09:37:30.472Z</time></trkpt><trkpt lat="43.0905381" lon="12.3562023"><ele>273.0</ele><time>2026-04-04T09:37:31.471Z</time></trkpt><trkpt lat="43.0907129" lon="12.3561149"><ele>270.6666666666667</ele><time>2026-04-04T09:37:32.472Z</time></trkpt><trkpt lat="43.0908955" lon="12.3560237"><ele>268.33333333333337</ele><time>2026-04-04T09:37:33.471Z</time></trkpt><trkpt lat="43.0910706" lon="12.3559446"><ele>266.0</ele><time>2026-04-04T09:37:34.471Z</time></trkpt><trkpt lat="43.09124" lon="12.3558756"><ele>266.0</ele><time>2026-04-04T09:37:35.471Z</time></trkpt><trkpt lat="43.0914045" lon="12.3558071"><ele>266.0</ele><time>2026-04-04T09:37:36.472Z</time></trkpt><trkpt lat="43.0915614" lon="12.355743"><ele>266.0</ele><time>2026-04-04T09:37:37.471Z</time></trkpt><trkpt lat="43.0917153" lon="12.3556919"><ele>265.5</ele><time>2026-04-04T09:37:38.472Z</time></trkpt><trkpt lat="43.0918689" lon="12.3556649"><ele>265.0</ele><time>2026-04-04T09:37:39.472Z</time></trkpt><trkpt lat="43.0920113" lon="12.3556528"><ele>264.5</ele><time>2026-04-04T09:37:40.471Z</time></trkpt><trkpt lat="43.092149" lon="12.3556495"><ele>264.0</ele><time>2026-04-04T09:37:41.471Z</time></trkpt><trkpt lat="43.0922814" lon="12.3556526"><ele>264.0</ele><time>2026-04-04T09:37:42.471Z</time></trkpt><trkpt lat="43.0924155" lon="12.3556617"><ele>264.0</ele><time>2026-04-04T09:37:43.472Z</time></trkpt><trkpt lat="43.0925476" lon="12.3556695"><ele>264.0</ele><time>2026-04-04T09:37:44.472Z</time></trkpt><trkpt lat="43.0926774" lon="12.355672"><ele>264.0</ele><time>2026-04-04T09:37:45.473Z</time></trkpt><trkpt lat="43.0928024" lon="12.3556741"><ele>263.75</ele><time>2026-04-04T09:37:46.473Z</time></trkpt><trkpt lat="43.0929247" lon="12.35568"><ele>263.5</ele><time>2026-04-04T09:37:47.472Z</time></trkpt><trkpt lat="43.093044" lon="12.3556882"><ele>263.25</ele><time>2026-04-04T09:37:48.472Z</time></trkpt><trkpt lat="43.0931533" lon="12.3556977"><ele>263.0</ele><time>2026-04-04T09:37:49.472Z</time></trkpt><trkpt lat="43.0932576" lon="12.355708"><ele>262.4</ele><time>2026-04-04T09:37:50.472Z</time></trkpt><trkpt lat="43.0933585" lon="12.3557188"><ele>261.8</ele><time>2026-04-04T09:37:51.472Z</time></trkpt><trkpt lat="43.093459" lon="12.3557348"><ele>261.2</ele><time>2026-04-04T09:37:52.472Z</time></trkpt><trkpt lat="43.0935616" lon="12.3557663"><ele>260.6</ele><time>2026-04-04T09:37:53.472Z</time></trkpt><trkpt lat="43.0936534" lon="12.3558148"><ele>260.0</ele><time>2026-04-04T09:37:54.472Z</time></trkpt><trkpt lat="43.0937237" lon="12.3558852"><ele>260.0</ele><time>2026-04-04T09:37:55.472Z</time></trkpt><trkpt lat="43.0937692" lon="12.3559766"><ele>260.0</ele><time>2026-04-04T09:37:56.473Z</time></trkpt><trkpt lat="43.0937953" lon="12.3560672"><ele>260.0</ele><time>2026-04-04T09:37:57.472Z</time></trkpt><trkpt lat="43.0938134" lon="12.3562435"><ele>260.0</ele><time>2026-04-04T09:37:59.473Z</time></trkpt><trkpt lat="43.0938247" lon="12.3563304"><ele>260.0</ele><time>2026-04-04T09:38:00.472Z</time></trkpt><trkpt lat="43.0938445" lon="12.356465"><ele>260.0</ele><time>2026-04-04T09:38:02.472Z</time></trkpt><trkpt lat="43.0938432" lon="12.3565526"><ele>259.0</ele><time>2026-04-04T09:38:04.472Z</time></trkpt><trkpt lat="43.093807" lon="12.356707"><ele>258.0</ele><time>2026-04-04T09:38:06.472Z</time></trkpt><trkpt lat="43.0937644" lon="12.356817"><ele>257.0</ele><time>2026-04-04T09:38:07.472Z</time></trkpt><trkpt lat="43.0937325" lon="12.3569324"><ele>256.0</ele><time>2026-04-04T09:38:08.472Z</time></trkpt><trkpt lat="43.0937345" lon="12.3570462"><ele>255.0</ele><time>2026-04-04T09:38:09.473Z</time></trkpt><trkpt lat="43.09377" lon="12.3571538"><ele>255.2</ele><time>2026-04-04T09:38:10.473Z</time></trkpt><trkpt lat="43.0938359" lon="12.3572474"><ele>255.4</ele><time>2026-04-04T09:38:11.472Z</time></trkpt><trkpt lat="43.0939209" lon="12.3573309"><ele>255.60000000000002</ele><time>2026-04-04T09:38:12.472Z</time></trkpt><trkpt lat="43.094026" lon="12.3573954"><ele>255.8</ele><time>2026-04-04T09:38:13.472Z</time></trkpt><trkpt lat="43.0941313" lon="12.3574552"><ele>256.0</ele><time>2026-04-04T09:38:14.472Z</time></trkpt><trkpt lat="43.094234" lon="12.3575053"><ele>257.5</ele><time>2026-04-04T09:38:15.472Z</time></trkpt><trkpt lat="43.0943404" lon="12.3575514"><ele>259.0</ele><time>2026-04-04T09:38:16.472Z</time></trkpt><trkpt lat="43.0944494" lon="12.3575951"><ele>260.5</ele><time>2026-04-04T09:38:17.472Z</time></trkpt><trkpt lat="43.0946644" lon="12.3576486"><ele>262.0</ele><time>2026-04-04T09:38:19.472Z</time></trkpt><trkpt lat="43.0947553" lon="12.3576758"><ele>262.0</ele><time>2026-04-04T09:38:20.472Z</time></trkpt><trkpt lat="43.0948386" lon="12.3577108"><ele>262.0</ele><time>2026-04-04T09:38:21.472Z</time></trkpt><trkpt lat="43.0949162" lon="12.3578354"><ele>262.0</ele><time>2026-04-04T09:38:23.472Z</time></trkpt><trkpt lat="43.0949021" lon="12.357921"><ele>262.0</ele><time>2026-04-04T09:38:24.472Z</time></trkpt><trkpt lat="43.0948598" lon="12.3579983"><ele>262.0</ele><time>2026-04-04T09:38:25.473Z</time></trkpt><trkpt lat="43.0947853" lon="12.3580867"><ele>262.0</ele><time>2026-04-04T09:38:26.473Z</time></trkpt><trkpt lat="43.0946842" lon="12.3581357"><ele>265.3333333333333</ele><time>2026-04-04T09:38:27.472Z</time></trkpt><trkpt lat="43.0945514" lon="12.3581847"><ele>268.6666666666667</ele><time>2026-04-04T09:38:28.472Z</time></trkpt><trkpt lat="43.0943893" lon="12.3582178"><ele>272.0</ele><time>2026-04-04T09:38:29.472Z</time></trkpt><trkpt lat="43.0942294" lon="12.3582386"><ele>269.6666666666667</ele><time>2026-04-04T09:38:30.472Z</time></trkpt><trkpt lat="43.0940691" lon="12.3582506"><ele>267.3333333333333</ele><time>2026-04-04T09:38:31.472Z</time></trkpt><trkpt lat="43.0939088" lon="12.3582629"><ele>265.0</ele><time>2026-04-04T09:38:32.472Z</time></trkpt><trkpt lat="43.093751" lon="12.3582846"><ele>265.0</ele><time>2026-04-04T09:38:33.472Z</time></trkpt><trkpt lat="43.0936087" lon="12.3583377"><ele>265.0</ele><time>2026-04-04T09:38:34.472Z</time></trkpt><trkpt lat="43.0934733" lon="12.3584234"><ele>265.0</ele><time>2026-04-04T09:38:35.473Z</time></trkpt><trkpt lat="43.0933763" lon="12.3585484"><ele>265.0</ele><time>2026-04-04T09:38:36.474Z</time></trkpt><trkpt lat="43.0932853" lon="12.3586748"><ele>267.0</ele><time>2026-04-04T09:38:37.473Z</time></trkpt><trkpt lat="43.0932246" lon="12.3588097"><ele>269.0</ele><time>2026-04-04T09:38:38.473Z</time></trkpt><trkpt lat="43.0932368" lon="12.3590188"><ele>271.0</ele><time>2026-04-04T09:38:39.473Z</time></trkpt><trkpt lat="43.0933117" lon="12.3592649"><ele>273.5</ele><time>2026-04-04T09:38:40.474Z</time></trkpt><trkpt lat="43.0933944" lon="12.359528"><ele>276.0</ele><time>2026-04-04T09:38:41.473Z</time></trkpt><trkpt lat="43.0935304" lon="12.3598016"><ele>277.3333333333333</ele><time>2026-04-04T09:38:42.474Z</time></trkpt><trkpt lat="43.0936685" lon="12.3599781"><ele>278.66666666666663</ele><time>2026-04-04T09:38:43.473Z</time></trkpt><trkpt lat="43.0938238" lon="12.3601679"><ele>280.0</ele><time>2026-04-04T09:38:44.473Z</time></trkpt><trkpt lat="43.0939876" lon="12.3603318"><ele>281.3333333333333</ele><time>2026-04-04T09:38:45.473Z</time></trkpt><trkpt lat="43.0941576" lon="12.3604696"><ele>282.6666666666667</ele><time>2026-04-04T09:38:46.474Z</time></trkpt><trkpt lat="43.0943339" lon="12.3606132"><ele>284.0</ele><time>2026-04-04T09:38:47.474Z</time></trkpt><trkpt lat="43.0945007" lon="12.3607417"><ele>284.33333333333337</ele><time>2026-04-04T09:38:48.473Z</time></trkpt><trkpt lat="43.0946491" lon="12.3608574"><ele>284.6666666666667</ele><time>2026-04-04T09:38:49.473Z</time></trkpt><trkpt lat="43.0947851" lon="12.3609619"><ele>285.0</ele><time>2026-04-04T09:38:50.473Z</time></trkpt><trkpt lat="43.0949009" lon="12.3610574"><ele>285.75</ele><time>2026-04-04T09:38:51.473Z</time></trkpt><trkpt lat="43.0950043" lon="12.3611496"><ele>286.5</ele><time>2026-04-04T09:38:52.474Z</time></trkpt><trkpt lat="43.0950953" lon="12.3612399"><ele>287.25</ele><time>2026-04-04T09:38:53.473Z</time></trkpt><trkpt lat="43.0951788" lon="12.3613429"><ele>288.0</ele><time>2026-04-04T09:38:54.473Z</time></trkpt><trkpt lat="43.0952515" lon="12.3614569"><ele>288.0</ele><time>2026-04-04T09:38:55.473Z</time></trkpt><trkpt lat="43.0953138" lon="12.3615824"><ele>288.0</ele><time>2026-04-04T09:38:56.473Z</time></trkpt><trkpt lat="43.0953789" lon="12.3617197"><ele>288.0</ele><time>2026-04-04T09:38:57.473Z</time></trkpt><trkpt lat="43.0954511" lon="12.3618767"><ele>288.0</ele><time>2026-04-04T09:38:58.473Z</time></trkpt><trkpt lat="43.095525" lon="12.3620448"><ele>288.6666666666667</ele><time>2026-04-04T09:38:59.473Z</time></trkpt><trkpt lat="43.0956007" lon="12.3622247"><ele>289.33333333333337</ele><time>2026-04-04T09:39:00.474Z</time></trkpt><trkpt lat="43.0956761" lon="12.3624133"><ele>290.0</ele><time>2026-04-04T09:39:01.473Z</time></trkpt><trkpt lat="43.0957534" lon="12.3626047"><ele>292.0</ele><time>2026-04-04T09:39:02.473Z</time></trkpt><trkpt lat="43.0958369" lon="12.3627922"><ele>294.0</ele><time>2026-04-04T09:39:03.473Z</time></trkpt><trkpt lat="43.0959244" lon="12.3629592"><ele>296.0</ele><time>2026-04-04T09:39:04.473Z</time></trkpt><trkpt lat="43.0960158" lon="12.3630864"><ele>298.0</ele><time>2026-04-04T09:39:05.473Z</time></trkpt><trkpt lat="43.0960963" lon="12.3631842"><ele>298.66666666666663</ele><time>2026-04-04T09:39:06.474Z</time></trkpt><trkpt lat="43.0961622" lon="12.3632477"><ele>299.3333333333333</ele><time>2026-04-04T09:39:07.473Z</time></trkpt><trkpt lat="43.0962329" lon="12.3632969"><ele>300.0</ele><time>2026-04-04T09:39:08.473Z</time></trkpt><trkpt lat="43.096299" lon="12.3633554"><ele>300.6666666666667</ele><time>2026-04-04T09:39:09.473Z</time></trkpt><trkpt lat="43.0963677" lon="12.3634143"><ele>301.33333333333337</ele><time>2026-04-04T09:39:10.473Z</time></trkpt><trkpt lat="43.0964402" lon="12.363475"><ele>302.0</ele><time>2026-04-04T09:39:11.473Z</time></trkpt><trkpt lat="43.0965152" lon="12.363539"><ele>303.5</ele><time>2026-04-04T09:39:12.473Z</time></trkpt><trkpt lat="43.0965959" lon="12.3636075"><ele>305.0</ele><time>2026-04-04T09:39:13.473Z</time></trkpt><trkpt lat="43.0967105" lon="12.3636548"><ele>306.5</ele><time>2026-04-04T09:39:14.473Z</time></trkpt><trkpt lat="43.0968342" lon="12.3637291"><ele>308.0</ele><time>2026-04-04T09:39:15.473Z</time></trkpt><trkpt lat="43.09697" lon="12.3638312"><ele>308.75</ele><time>2026-04-04T09:39:16.474Z</time></trkpt><trkpt lat="43.0970956" lon="12.3639027"><ele>309.5</ele><time>2026-04-04T09:39:17.473Z</time></trkpt><trkpt lat="43.0972169" lon="12.3639872"><ele>310.25</ele><time>2026-04-04T09:39:18.474Z</time></trkpt><trkpt lat="43.0973336" lon="12.3640633"><ele>311.0</ele><time>2026-04-04T09:39:19.473Z</time></trkpt><trkpt lat="43.0974483" lon="12.3641297"><ele>312.0</ele><time>2026-04-04T09:39:20.473Z</time></trkpt><trkpt lat="43.0975768" lon="12.3641886"><ele>313.0</ele><time>2026-04-04T09:39:21.473Z</time></trkpt><trkpt lat="43.097719" lon="12.3642441"><ele>314.0</ele><time>2026-04-04T09:39:22.473Z</time></trkpt><trkpt lat="43.097853" lon="12.3642981"><ele>315.0</ele><time>2026-04-04T09:39:23.474Z</time></trkpt><trkpt lat="43.0979815" lon="12.3643515"><ele>315.0</ele><time>2026-04-04T09:39:24.473Z</time></trkpt><trkpt lat="43.0981019" lon="12.3643975"><ele>315.0</ele><time>2026-04-04T09:39:25.473Z</time></trkpt><trkpt lat="43.0982125" lon="12.3644418"><ele>315.0</ele><time>2026-04-04T09:39:26.473Z</time></trkpt><trkpt lat="43.0983153" lon="12.3644902"><ele>315.0</ele><time>2026-04-04T09:39:27.474Z</time></trkpt><trkpt lat="43.0984129" lon="12.3645383"><ele>315.0</ele><time>2026-04-04T09:39:28.473Z</time></trkpt><trkpt lat="43.0985066" lon="12.364585"><ele>315.0</ele><time>2026-04-04T09:39:29.473Z</time></trkpt><trkpt lat="43.0985932" lon="12.3646266"><ele>315.0</ele><time>2026-04-04T09:39:30.474Z</time></trkpt><trkpt lat="43.0986719" lon="12.3646616"><ele>315.0</ele><time>2026-04-04T09:39:31.475Z</time></trkpt><trkpt lat="43.0987385" lon="12.3647007"><ele>315.0</ele><time>2026-04-04T09:39:32.474Z</time></trkpt><trkpt lat="43.0988278" lon="12.3647635"><ele>315.0</ele><time>2026-04-04T09:39:34.474Z</time></trkpt><trkpt lat="43.09888" lon="12.3648347"><ele>314.2</ele><time>2026-04-04T09:39:37.474Z</time></trkpt><trkpt lat="43.0989133" lon="12.364917"><ele>313.4</ele><time>2026-04-04T09:39:39.474Z</time></trkpt><trkpt lat="43.0989515" lon="12.3650706"><ele>312.6</ele><time>2026-04-04T09:39:41.474Z</time></trkpt><trkpt lat="43.099035" lon="12.3651625"><ele>311.8</ele><time>2026-04-04T09:39:43.474Z</time></trkpt><trkpt lat="43.099159" lon="12.3651617"><ele>311.0</ele><time>2026-04-04T09:39:45.474Z</time></trkpt><trkpt lat="43.099234" lon="12.3651546"><ele>311.0</ele><time>2026-04-04T09:39:46.474Z</time></trkpt><trkpt lat="43.0993104" lon="12.3651648"><ele>311.0</ele><time>2026-04-04T09:39:47.474Z</time></trkpt><trkpt lat="43.0993888" lon="12.3652143"><ele>311.0</ele><time>2026-04-04T09:39:48.474Z</time></trkpt><trkpt lat="43.0994727" lon="12.3652805"><ele>311.0</ele><time>2026-04-04T09:39:49.474Z</time></trkpt><trkpt lat="43.0995643" lon="12.3653559"><ele>311.0</ele><time>2026-04-04T09:39:50.474Z</time></trkpt><trkpt lat="43.0996511" lon="12.3654272"><ele>311.0</ele><time>2026-04-04T09:39:51.474Z</time></trkpt><trkpt lat="43.0997383" lon="12.3654932"><ele>311.0</ele><time>2026-04-04T09:39:52.474Z</time></trkpt><trkpt lat="43.0998246" lon="12.3655641"><ele>311.0</ele><time>2026-04-04T09:39:53.474Z</time></trkpt><trkpt lat="43.0999177" lon="12.3656388"><ele>311.0</ele><time>2026-04-04T09:39:54.474Z</time></trkpt><trkpt lat="43.1000104" lon="12.365725"><ele>311.0</ele><time>2026-04-04T09:39:55.474Z</time></trkpt><trkpt lat="43.1001059" lon="12.3658105"><ele>311.0</ele><time>2026-04-04T09:39:56.474Z</time></trkpt><trkpt lat="43.1001944" lon="12.3658916"><ele>311.0</ele><time>2026-04-04T09:39:57.474Z</time></trkpt><trkpt lat="43.1002779" lon="12.365974"><ele>311.0</ele><time>2026-04-04T09:39:58.474Z</time></trkpt><trkpt lat="43.1003552" lon="12.3660483"><ele>311.0</ele><time>2026-04-04T09:39:59.475Z</time></trkpt><trkpt lat="43.1004265" lon="12.3661159"><ele>311.0</ele><time>2026-04-04T09:40:00.474Z</time></trkpt><trkpt lat="43.1004978" lon="12.3661901"><ele>311.0</ele><time>2026-04-04T09:40:01.475Z</time></trkpt><trkpt lat="43.1005719" lon="12.3662796"><ele>311.0</ele><time>2026-04-04T09:40:02.474Z</time></trkpt><trkpt lat="43.1006569" lon="12.3663724"><ele>311.0</ele><time>2026-04-04T09:40:03.475Z</time></trkpt><trkpt lat="43.1007493" lon="12.3664556"><ele>311.0</ele><time>2026-04-04T09:40:04.474Z</time></trkpt><trkpt lat="43.1008462" lon="12.3665499"><ele>311.0</ele><time>2026-04-04T09:40:05.474Z</time></trkpt><trkpt lat="43.1009425" lon="12.3666434"><ele>309.8</ele><time>2026-04-04T09:40:06.474Z</time></trkpt><trkpt lat="43.10103" lon="12.3667328"><ele>308.6</ele><time>2026-04-04T09:40:07.474Z</time></trkpt><trkpt lat="43.1011043" lon="12.3668189"><ele>307.4</ele><time>2026-04-04T09:40:08.476Z</time></trkpt><trkpt lat="43.1011678" lon="12.3668979"><ele>306.2</ele><time>2026-04-04T09:40:09.474Z</time></trkpt><trkpt lat="43.1012287" lon="12.3669758"><ele>305.0</ele><time>2026-04-04T09:40:10.475Z</time></trkpt><trkpt lat="43.1012913" lon="12.3670624"><ele>305.0</ele><time>2026-04-04T09:40:11.474Z</time></trkpt><trkpt lat="43.1013525" lon="12.3671645"><ele>305.0</ele><time>2026-04-04T09:40:12.474Z</time></trkpt><trkpt lat="43.1014208" lon="12.367278"><ele>305.0</ele><time>2026-04-04T09:40:13.474Z</time></trkpt><trkpt lat="43.1015004" lon="12.3674047"><ele>305.0</ele><time>2026-04-04T09:40:14.474Z</time></trkpt><trkpt lat="43.1015842" lon="12.3675397"><ele>304.75</ele><time>2026-04-04T09:40:15.474Z</time></trkpt><trkpt lat="43.1016673" lon="12.3676856"><ele>304.5</ele><time>2026-04-04T09:40:16.474Z</time></trkpt><trkpt lat="43.1017464" lon="12.3678393"><ele>304.25</ele><time>2026-04-04T09:40:17.474Z</time></trkpt><trkpt lat="43.1018276" lon="12.367995"><ele>304.0</ele><time>2026-04-04T09:40:18.474Z</time></trkpt><trkpt lat="43.1019125" lon="12.3681532"><ele>303.0</ele><time>2026-04-04T09:40:19.474Z</time></trkpt><trkpt lat="43.1019994" lon="12.3683127"><ele>302.0</ele><time>2026-04-04T09:40:20.474Z</time></trkpt><trkpt lat="43.1020784" lon="12.3684706"><ele>301.0</ele><time>2026-04-04T09:40:21.475Z</time></trkpt><trkpt lat="43.1021549" lon="12.3686247"><ele>300.0</ele><time>2026-04-04T09:40:22.475Z</time></trkpt><trkpt lat="43.1022276" lon="12.3687722"><ele>299.8</ele><time>2026-04-04T09:40:23.475Z</time></trkpt><trkpt lat="43.1022924" lon="12.3689034"><ele>299.6</ele><time>2026-04-04T09:40:24.476Z</time></trkpt><trkpt lat="43.1023533" lon="12.3690255"><ele>299.4</ele><time>2026-04-04T09:40:25.476Z</time></trkpt><trkpt lat="43.1024118" lon="12.3691383"><ele>299.2</ele><time>2026-04-04T09:40:26.475Z</time></trkpt><trkpt lat="43.1024636" lon="12.3692392"><ele>299.0</ele><time>2026-04-04T09:40:27.475Z</time></trkpt><trkpt lat="43.10251" lon="12.3693343"><ele>299.0</ele><time>2026-04-04T09:40:28.475Z</time></trkpt><trkpt lat="43.1025548" lon="12.3694258"><ele>299.0</ele><time>2026-04-04T09:40:29.475Z</time></trkpt><trkpt lat="43.1025973" lon="12.3695192"><ele>299.0</ele><time>2026-04-04T09:40:30.476Z</time></trkpt><trkpt lat="43.102623" lon="12.3696158"><ele>299.0</ele><time>2026-04-04T09:40:31.475Z</time></trkpt><trkpt lat="43.1026092" lon="12.3697783"><ele>299.0</ele><time>2026-04-04T09:40:33.475Z</time></trkpt><trkpt lat="43.1025863" lon="12.3698829"><ele>299.0</ele><time>2026-04-04T09:40:35.475Z</time></trkpt><trkpt lat="43.1026289" lon="12.3699503"><ele>299.4</ele><time>2026-04-04T09:40:37.476Z</time></trkpt><trkpt lat="43.1027453" lon="12.370009"><ele>299.79999999999995</ele><time>2026-04-04T09:40:39.475Z</time></trkpt><trkpt lat="43.1028165" lon="12.3700467"><ele>300.20000000000005</ele><time>2026-04-04T09:40:40.476Z</time></trkpt><trkpt lat="43.1028807" lon="12.370105"><ele>300.6</ele><time>2026-04-04T09:40:41.476Z</time></trkpt><trkpt lat="43.1029447" lon="12.3701825"><ele>301.0</ele><time>2026-04-04T09:40:42.476Z</time></trkpt><trkpt lat="43.1030026" lon="12.3702905"><ele>301.0</ele><time>2026-04-04T09:40:43.475Z</time></trkpt><trkpt lat="43.1030497" lon="12.3704106"><ele>301.0</ele><time>2026-04-04T09:40:44.476Z</time></trkpt><trkpt lat="43.1030979" lon="12.3705434"><ele>301.0</ele><time>2026-04-04T09:40:45.475Z</time></trkpt><trkpt lat="43.1031384" lon="12.3706881"><ele>301.0</ele><time>2026-04-04T09:40:46.475Z</time></trkpt><trkpt lat="43.10317" lon="12.3708309"><ele>301.0</ele><time>2026-04-04T09:40:47.475Z</time></trkpt><trkpt lat="43.103207" lon="12.3709714"><ele>300.0</ele><time>2026-04-04T09:40:48.475Z</time></trkpt><trkpt lat="43.1032503" lon="12.3711187"><ele>299.0</ele><time>2026-04-04T09:40:49.475Z</time></trkpt><trkpt lat="43.103299" lon="12.3712894"><ele>298.0</ele><time>2026-04-04T09:40:50.475Z</time></trkpt><trkpt lat="43.1033491" lon="12.3714485"><ele>297.0</ele><time>2026-04-04T09:40:51.476Z</time></trkpt><trkpt lat="43.1033961" lon="12.3716017"><ele>297.2</ele><time>2026-04-04T09:40:52.475Z</time></trkpt><trkpt lat="43.1034399" lon="12.3717416"><ele>297.4</ele><time>2026-04-04T09:40:53.475Z</time></trkpt><trkpt lat="43.103479" lon="12.3718665"><ele>297.6</ele><time>2026-04-04T09:40:54.476Z</time></trkpt><trkpt lat="43.1035166" lon="12.3719948"><ele>297.8</ele><time>2026-04-04T09:40:55.475Z</time></trkpt><trkpt lat="43.1035563" lon="12.3721208"><ele>298.0</ele><time>2026-04-04T09:40:56.475Z</time></trkpt><trkpt lat="43.1035951" lon="12.3722408"><ele>298.0</ele><time>2026-04-04T09:40:57.475Z</time></trkpt><trkpt lat="43.103635" lon="12.3723644"><ele>298.0</ele><time>2026-04-04T09:40:58.475Z</time></trkpt><trkpt lat="43.1036776" lon="12.3724918"><ele>298.0</ele><time>2026-04-04T09:40:59.476Z</time></trkpt><trkpt lat="43.1037167" lon="12.3726168"><ele>298.0</ele><time>2026-04-04T09:41:00.475Z</time></trkpt><trkpt lat="43.1037513" lon="12.3727332"><ele>298.0</ele><time>2026-04-04T09:41:01.476Z</time></trkpt><trkpt lat="43.1037827" lon="12.3728372"><ele>298.0</ele><time>2026-04-04T09:41:02.475Z</time></trkpt><trkpt lat="43.103811" lon="12.3729264"><ele>298.0</ele><time>2026-04-04T09:41:03.475Z</time></trkpt><trkpt lat="43.1038365" lon="12.3730129"><ele>298.0</ele><time>2026-04-04T09:41:04.476Z</time></trkpt><trkpt lat="43.1038621" lon="12.3730995"><ele>298.0</ele><time>2026-04-04T09:41:05.475Z</time></trkpt><trkpt lat="43.1038928" lon="12.3731782"><ele>298.0</ele><time>2026-04-04T09:41:06.475Z</time></trkpt><trkpt lat="43.1039248" lon="12.3732654"><ele>298.0</ele><time>2026-04-04T09:41:07.476Z</time></trkpt><trkpt lat="43.1039559" lon="12.373365"><ele>298.0</ele><time>2026-04-04T09:41:08.475Z</time></trkpt><trkpt lat="43.1039951" lon="12.3734695"><ele>298.16666666666663</ele><time>2026-04-04T09:41:09.476Z</time></trkpt><trkpt lat="43.1040358" lon="12.3735744"><ele>298.3333333333333</ele><time>2026-04-04T09:41:10.476Z</time></trkpt><trkpt lat="43.1040714" lon="12.3736738"><ele>298.5</ele><time>2026-04-04T09:41:11.475Z</time></trkpt><trkpt lat="43.1041029" lon="12.3737638"><ele>298.6666666666667</ele><time>2026-04-04T09:41:12.476Z</time></trkpt><trkpt lat="43.104133" lon="12.3738419"><ele>298.83333333333337</ele><time>2026-04-04T09:41:13.475Z</time></trkpt><trkpt lat="43.1041821" lon="12.3739855"><ele>299.0</ele><time>2026-04-04T09:41:15.475Z</time></trkpt><trkpt lat="43.1042129" lon="12.3740651"><ele>299.6666666666667</ele><time>2026-04-04T09:41:16.475Z</time></trkpt><trkpt lat="43.1042482" lon="12.3741515"><ele>300.33333333333337</ele><time>2026-04-04T09:41:17.476Z</time></trkpt><trkpt lat="43.1042731" lon="12.37424"><ele>301.0</ele><time>2026-04-04T09:41:18.476Z</time></trkpt><trkpt lat="43.104285" lon="12.3743337"><ele>301.6666666666667</ele><time>2026-04-04T09:41:19.476Z</time></trkpt><trkpt lat="43.1042509" lon="12.3744394"><ele>302.3333333333333</ele><time>2026-04-04T09:41:20.476Z</time></trkpt><trkpt lat="43.1041926" lon="12.3745399"><ele>303.0</ele><time>2026-04-04T09:41:21.476Z</time></trkpt><trkpt lat="43.104094" lon="12.3746454"><ele>303.5</ele><time>2026-04-04T09:41:22.477Z</time></trkpt><trkpt lat="43.1039796" lon="12.3747412"><ele>304.0</ele><time>2026-04-04T09:41:23.476Z</time></trkpt><trkpt lat="43.1038684" lon="12.3748374"><ele>304.5</ele><time>2026-04-04T09:41:24.476Z</time></trkpt><trkpt lat="43.1037597" lon="12.37493"><ele>305.0</ele><time>2026-04-04T09:41:25.476Z</time></trkpt><trkpt lat="43.1036529" lon="12.3750121"><ele>305.0</ele><time>2026-04-04T09:41:26.476Z</time></trkpt><trkpt lat="43.1035511" lon="12.3750866"><ele>305.0</ele><time>2026-04-04T09:41:27.476Z</time></trkpt><trkpt lat="43.1034626" lon="12.3751754"><ele>305.0</ele><time>2026-04-04T09:41:28.476Z</time></trkpt><trkpt lat="43.1033804" lon="12.3752712"><ele>305.0</ele><time>2026-04-04T09:41:29.476Z</time></trkpt><trkpt lat="43.1032987" lon="12.3753781"><ele>305.0</ele><time>2026-04-04T09:41:30.476Z</time></trkpt><trkpt lat="43.1032238" lon="12.3754887"><ele>304.4</ele><time>2026-04-04T09:41:31.476Z</time></trkpt><trkpt lat="43.1031406" lon="12.375599"><ele>303.8</ele><time>2026-04-04T09:41:32.476Z</time></trkpt><trkpt lat="43.1030545" lon="12.3756988"><ele>303.2</ele><time>2026-04-04T09:41:33.477Z</time></trkpt><trkpt lat="43.1029708" lon="12.3758001"><ele>302.6</ele><time>2026-04-04T09:41:34.476Z</time></trkpt><trkpt lat="43.1028905" lon="12.3758964"><ele>302.0</ele><time>2026-04-04T09:41:35.476Z</time></trkpt><trkpt lat="43.1028187" lon="12.3759838"><ele>302.0</ele><time>2026-04-04T09:41:36.476Z</time></trkpt><trkpt lat="43.1027503" lon="12.3760618"><ele>302.0</ele><time>2026-04-04T09:41:37.476Z</time></trkpt><trkpt lat="43.1026863" lon="12.3761349"><ele>302.0</ele><time>2026-04-04T09:41:38.477Z</time></trkpt><trkpt lat="43.1026232" lon="12.3762043"><ele>302.0</ele><time>2026-04-04T09:41:39.476Z</time></trkpt><trkpt lat="43.1025613" lon="12.3762806"><ele>302.0</ele><time>2026-04-04T09:41:40.476Z</time></trkpt><trkpt lat="43.1024979" lon="12.3763537"><ele>302.0</ele><time>2026-04-04T09:41:41.476Z</time></trkpt><trkpt lat="43.1024326" lon="12.3764255"><ele>301.2</ele><time>2026-04-04T09:41:42.476Z</time></trkpt><trkpt lat="43.1023663" lon="12.3764944"><ele>300.4</ele><time>2026-04-04T09:41:43.477Z</time></trkpt><trkpt lat="43.1023121" lon="12.3765807"><ele>299.6</ele><time>2026-04-04T09:41:44.477Z</time></trkpt><trkpt lat="43.1022524" lon="12.3766964"><ele>298.8</ele><time>2026-04-04T09:41:45.476Z</time></trkpt><trkpt lat="43.1021767" lon="12.3767962"><ele>298.0</ele><time>2026-04-04T09:41:46.476Z</time></trkpt><trkpt lat="43.1020991" lon="12.376891"><ele>298.0</ele><time>2026-04-04T09:41:47.476Z</time></trkpt><trkpt lat="43.1020382" lon="12.3769971"><ele>298.0</ele><time>2026-04-04T09:41:48.476Z</time></trkpt><trkpt lat="43.1020048" lon="12.3771231"><ele>298.0</ele><time>2026-04-04T09:41:49.477Z</time></trkpt><trkpt lat="43.1019921" lon="12.3772709"><ele>298.0</ele><time>2026-04-04T09:41:50.477Z</time></trkpt><trkpt lat="43.1020036" lon="12.3774"><ele>298.0</ele><time>2026-04-04T09:41:51.476Z</time></trkpt><trkpt lat="43.102018" lon="12.377515"><ele>298.0</ele><time>2026-04-04T09:41:52.476Z</time></trkpt><trkpt lat="43.1020562" lon="12.3776052"><ele>298.0</ele><time>2026-04-04T09:41:53.476Z</time></trkpt><trkpt lat="43.1020864" lon="12.3776839"><ele>298.0</ele><time>2026-04-04T09:41:54.476Z</time></trkpt><trkpt lat="43.1021732" lon="12.37788"><ele>298.0</ele><time>2026-04-04T09:41:56.476Z</time></trkpt><trkpt lat="43.1022553" lon="12.377905"><ele>298.0</ele><time>2026-04-04T09:41:57.476Z</time></trkpt><trkpt lat="43.1023738" lon="12.377875"><ele>298.6</ele><time>2026-04-04T09:41:58.477Z</time></trkpt><trkpt lat="43.1024664" lon="12.3778664"><ele>299.20000000000005</ele><time>2026-04-04T09:41:59.476Z</time></trkpt><trkpt lat="43.1025603" lon="12.3778391"><ele>299.8</ele><time>2026-04-04T09:42:00.476Z</time></trkpt><trkpt lat="43.1026622" lon="12.3778145"><ele>300.40000000000003</ele><time>2026-04-04T09:42:01.477Z</time></trkpt><trkpt lat="43.1027853" lon="12.3777659"><ele>301.0</ele><time>2026-04-04T09:42:02.476Z</time></trkpt><trkpt lat="43.1028991" lon="12.3776944"><ele>301.0</ele><time>2026-04-04T09:42:03.477Z</time></trkpt><trkpt lat="43.102986" lon="12.3776525"><ele>301.0</ele><time>2026-04-04T09:42:04.476Z</time></trkpt><trkpt lat="43.1030837" lon="12.377587"><ele>301.0</ele><time>2026-04-04T09:42:05.476Z</time></trkpt><trkpt lat="43.1031678" lon="12.3775384"><ele>301.0</ele><time>2026-04-04T09:42:06.476Z</time></trkpt><trkpt lat="43.1032441" lon="12.3774804"><ele>301.0</ele><time>2026-04-04T09:42:07.476Z</time></trkpt><trkpt lat="43.1033031" lon="12.3774064"><ele>301.16666666666663</ele><time>2026-04-04T09:42:08.477Z</time></trkpt><trkpt lat="43.1033596" lon="12.377327"><ele>301.3333333333333</ele><time>2026-04-04T09:42:09.477Z</time></trkpt><trkpt lat="43.1034187" lon="12.3772417"><ele>301.5</ele><time>2026-04-04T09:42:10.476Z</time></trkpt><trkpt lat="43.1034785" lon="12.3771703"><ele>301.6666666666667</ele><time>2026-04-04T09:42:11.478Z</time></trkpt><trkpt lat="43.1035393" lon="12.377101"><ele>301.83333333333337</ele><time>2026-04-04T09:42:12.478Z</time></trkpt><trkpt lat="43.1035925" lon="12.3770426"><ele>302.0</ele><time>2026-04-04T09:42:13.478Z</time></trkpt><trkpt lat="43.1036724" lon="12.3769454"><ele>302.0</ele><time>2026-04-04T09:42:15.477Z</time></trkpt><trkpt lat="43.1037464" lon="12.3768579"><ele>302.0</ele><time>2026-04-04T09:42:17.477Z</time></trkpt><trkpt lat="43.1038348" lon="12.3767439"><ele>302.0</ele><time>2026-04-04T09:42:19.477Z</time></trkpt><trkpt lat="43.103891" lon="12.376675"><ele>302.0</ele><time>2026-04-04T09:42:20.477Z</time></trkpt><trkpt lat="43.1039533" lon="12.3766012"><ele>302.0</ele><time>2026-04-04T09:42:21.478Z</time></trkpt><trkpt lat="43.1040203" lon="12.3765297"><ele>302.33333333333337</ele><time>2026-04-04T09:42:22.478Z</time></trkpt><trkpt lat="43.1040805" lon="12.3764625"><ele>302.6666666666667</ele><time>2026-04-04T09:42:23.477Z</time></trkpt><trkpt lat="43.1041466" lon="12.3764106"><ele>303.0</ele><time>2026-04-04T09:42:24.477Z</time></trkpt><trkpt lat="43.1042268" lon="12.3763709"><ele>303.3333333333333</ele><time>2026-04-04T09:42:25.477Z</time></trkpt><trkpt lat="43.1043022" lon="12.3763538"><ele>303.66666666666663</ele><time>2026-04-04T09:42:26.477Z</time></trkpt><trkpt lat="43.1043832" lon="12.3763502"><ele>304.0</ele><time>2026-04-04T09:42:27.477Z</time></trkpt><trkpt lat="43.1044631" lon="12.3763794"><ele>305.0</ele><time>2026-04-04T09:42:28.477Z</time></trkpt><trkpt lat="43.1045507" lon="12.3764405"><ele>306.0</ele><time>2026-04-04T09:42:29.477Z</time></trkpt><trkpt lat="43.1046284" lon="12.3765481"><ele>307.0</ele><time>2026-04-04T09:42:30.477Z</time></trkpt><trkpt lat="43.1047001" lon="12.3766884"><ele>308.0</ele><time>2026-04-04T09:42:31.477Z</time></trkpt><trkpt lat="43.1047729" lon="12.3768516"><ele>308.0</ele><time>2026-04-04T09:42:32.477Z</time></trkpt><trkpt lat="43.1048465" lon="12.3769976"><ele>308.0</ele><time>2026-04-04T09:42:33.478Z</time></trkpt><trkpt lat="43.104926" lon="12.3771434"><ele>308.0</ele><time>2026-04-04T09:42:34.478Z</time></trkpt><trkpt lat="43.1050126" lon="12.3772911"><ele>308.0</ele><time>2026-04-04T09:42:35.478Z</time></trkpt><trkpt lat="43.1051139" lon="12.3774508"><ele>310.25</ele><time>2026-04-04T09:42:36.478Z</time></trkpt><trkpt lat="43.1052119" lon="12.3776007"><ele>312.5</ele><time>2026-04-04T09:42:37.477Z</time></trkpt><trkpt lat="43.1053023" lon="12.3777621"><ele>314.75</ele><time>2026-04-04T09:42:38.477Z</time></trkpt><trkpt lat="43.1053832" lon="12.3779026"><ele>317.0</ele><time>2026-04-04T09:42:39.477Z</time></trkpt><trkpt lat="43.1054582" lon="12.378038"><ele>318.0</ele><time>2026-04-04T09:42:40.477Z</time></trkpt><trkpt lat="43.1055326" lon="12.378174"><ele>319.0</ele><time>2026-04-04T09:42:41.478Z</time></trkpt><trkpt lat="43.1056085" lon="12.378293"><ele>320.0</ele><time>2026-04-04T09:42:42.477Z</time></trkpt><trkpt lat="43.1056914" lon="12.3784"><ele>321.0</ele><time>2026-04-04T09:42:43.477Z</time></trkpt><trkpt lat="43.105777" lon="12.3784912"><ele>321.0</ele><time>2026-04-04T09:42:44.477Z</time></trkpt><trkpt lat="43.1058689" lon="12.3785594"><ele>321.0</ele><time>2026-04-04T09:42:45.478Z</time></trkpt><trkpt lat="43.1059646" lon="12.3786213"><ele>321.0</ele><time>2026-04-04T09:42:46.477Z</time></trkpt><trkpt lat="43.1060592" lon="12.378669"><ele>321.0</ele><time>2026-04-04T09:42:47.477Z</time></trkpt><trkpt lat="43.1061539" lon="12.3787127"><ele>321.0</ele><time>2026-04-04T09:42:48.478Z</time></trkpt><trkpt lat="43.1062471" lon="12.3787572"><ele>321.0</ele><time>2026-04-04T09:42:49.477Z</time></trkpt><trkpt lat="43.1063422" lon="12.3788036"><ele>321.0</ele><time>2026-04-04T09:42:50.477Z</time></trkpt><trkpt lat="43.1064373" lon="12.3788518"><ele>321.0</ele><time>2026-04-04T09:42:51.477Z</time></trkpt><trkpt lat="43.1065384" lon="12.3788975"><ele>321.0</ele><time>2026-04-04T09:42:52.477Z</time></trkpt><trkpt lat="43.1066446" lon="12.3789328"><ele>321.0</ele><time>2026-04-04T09:42:53.477Z</time></trkpt><trkpt lat="43.106758" lon="12.3789669"><ele>323.5</ele><time>2026-04-04T09:42:54.477Z</time></trkpt><trkpt lat="43.1068683" lon="12.3789831"><ele>326.0</ele><time>2026-04-04T09:42:55.478Z</time></trkpt><trkpt lat="43.1070111" lon="12.3789628"><ele>328.5</ele><time>2026-04-04T09:42:56.477Z</time></trkpt><trkpt lat="43.107147" lon="12.3789421"><ele>331.0</ele><time>2026-04-04T09:42:57.477Z</time></trkpt><trkpt lat="43.107276" lon="12.3789269"><ele>331.0</ele><time>2026-04-04T09:42:58.477Z</time></trkpt><trkpt lat="43.1073911" lon="12.3788999"><ele>331.0</ele><time>2026-04-04T09:42:59.477Z</time></trkpt><trkpt lat="43.1075074" lon="12.3788654"><ele>331.0</ele><time>2026-04-04T09:43:00.477Z</time></trkpt><trkpt lat="43.1076347" lon="12.3788191"><ele>331.0</ele><time>2026-04-04T09:43:01.477Z</time></trkpt><trkpt lat="43.1077669" lon="12.3787639"><ele>330.5</ele><time>2026-04-04T09:43:02.478Z</time></trkpt><trkpt lat="43.1078933" lon="12.378705"><ele>330.0</ele><time>2026-04-04T09:43:03.477Z</time></trkpt><trkpt lat="43.1080136" lon="12.3786474"><ele>329.5</ele><time>2026-04-04T09:43:04.478Z</time></trkpt><trkpt lat="43.1081267" lon="12.3785998"><ele>329.0</ele><time>2026-04-04T09:43:05.478Z</time></trkpt><trkpt lat="43.1082318" lon="12.378554"><ele>329.33333333333337</ele><time>2026-04-04T09:43:06.478Z</time></trkpt><trkpt lat="43.1083219" lon="12.3785215"><ele>329.6666666666667</ele><time>2026-04-04T09:43:07.478Z</time></trkpt><trkpt lat="43.1084105" lon="12.3784954"><ele>330.0</ele><time>2026-04-04T09:43:08.478Z</time></trkpt><trkpt lat="43.1084896" lon="12.3784863"><ele>330.3333333333333</ele><time>2026-04-04T09:43:09.478Z</time></trkpt><trkpt lat="43.1085516" lon="12.3785081"><ele>330.66666666666663</ele><time>2026-04-04T09:43:10.478Z</time></trkpt><trkpt lat="43.1086174" lon="12.3785521"><ele>331.0</ele><time>2026-04-04T09:43:11.478Z</time></trkpt><trkpt lat="43.1086905" lon="12.3786823"><ele>331.0</ele><time>2026-04-04T09:43:13.478Z</time></trkpt><trkpt lat="43.1087237" lon="12.3788324"><ele>331.0</ele><time>2026-04-04T09:43:15.478Z</time></trkpt><trkpt lat="43.1086996" lon="12.378955"><ele>331.0</ele><time>2026-04-04T09:43:16.478Z</time></trkpt><trkpt lat="43.1086714" lon="12.3790567"><ele>331.0</ele><time>2026-04-04T09:43:17.479Z</time></trkpt><trkpt lat="43.1086184" lon="12.3791438"><ele>331.0</ele><time>2026-04-04T09:43:18.478Z</time></trkpt><trkpt lat="43.1085412" lon="12.3792287"><ele>331.6</ele><time>2026-04-04T09:43:19.478Z</time></trkpt><trkpt lat="43.1084611" lon="12.3792861"><ele>332.20000000000005</ele><time>2026-04-04T09:43:20.478Z</time></trkpt><trkpt lat="43.1083759" lon="12.379336"><ele>332.79999999999995</ele><time>2026-04-04T09:43:21.478Z</time></trkpt><trkpt lat="43.1082769" lon="12.3793812"><ele>333.4</ele><time>2026-04-04T09:43:22.478Z</time></trkpt><trkpt lat="43.108177" lon="12.3794322"><ele>334.0</ele><time>2026-04-04T09:43:23.478Z</time></trkpt><trkpt lat="43.1080716" lon="12.3794828"><ele>334.0</ele><time>2026-04-04T09:43:24.478Z</time></trkpt><trkpt lat="43.1079624" lon="12.3795375"><ele>334.0</ele><time>2026-04-04T09:43:25.478Z</time></trkpt><trkpt lat="43.1078529" lon="12.3795997"><ele>334.0</ele><time>2026-04-04T09:43:26.479Z</time></trkpt><trkpt lat="43.1077409" lon="12.3796611"><ele>334.0</ele><time>2026-04-04T09:43:27.478Z</time></trkpt><trkpt lat="43.1076331" lon="12.379728"><ele>336.25</ele><time>2026-04-04T09:43:28.479Z</time></trkpt><trkpt lat="43.107521" lon="12.379795"><ele>338.5</ele><time>2026-04-04T09:43:29.478Z</time></trkpt><trkpt lat="43.1074089" lon="12.3798661"><ele>340.75</ele><time>2026-04-04T09:43:30.478Z</time></trkpt><trkpt lat="43.1072953" lon="12.3799384"><ele>343.0</ele><time>2026-04-04T09:43:31.478Z</time></trkpt><trkpt lat="43.1071798" lon="12.38001"><ele>343.0</ele><time>2026-04-04T09:43:32.478Z</time></trkpt><trkpt lat="43.1070639" lon="12.3800809"><ele>343.0</ele><time>2026-04-04T09:43:33.478Z</time></trkpt><trkpt lat="43.1069512" lon="12.3801514"><ele>343.0</ele><time>2026-04-04T09:43:34.478Z</time></trkpt><trkpt lat="43.1068441" lon="12.3802167"><ele>343.0</ele><time>2026-04-04T09:43:35.478Z</time></trkpt><trkpt lat="43.106751" lon="12.3802774"><ele>343.0</ele><time>2026-04-04T09:43:36.479Z</time></trkpt><trkpt lat="43.1066729" lon="12.3803297"><ele>343.0</ele><time>2026-04-04T09:43:37.478Z</time></trkpt><trkpt lat="43.1066098" lon="12.380377"><ele>343.0</ele><time>2026-04-04T09:43:38.478Z</time></trkpt><trkpt lat="43.1065539" lon="12.3804212"><ele>343.0</ele><time>2026-04-04T09:43:39.479Z</time></trkpt><trkpt lat="43.1064603" lon="12.3804991"><ele>343.0</ele><time>2026-04-04T09:43:41.478Z</time></trkpt><trkpt lat="43.1064066" lon="12.3806173"><ele>343.0</ele><time>2026-04-04T09:43:43.479Z</time></trkpt><trkpt lat="43.1064267" lon="12.3807751"><ele>344.3333333333333</ele><time>2026-04-04T09:43:45.478Z</time></trkpt><trkpt lat="43.1064663" lon="12.3808684"><ele>345.66666666666663</ele><time>2026-04-04T09:43:46.478Z</time></trkpt><trkpt lat="43.1065255" lon="12.380981"><ele>347.0</ele><time>2026-04-04T09:43:47.479Z</time></trkpt><trkpt lat="43.1065708" lon="12.3810717"><ele>348.3333333333333</ele><time>2026-04-04T09:43:48.481Z</time></trkpt><trkpt lat="43.1066184" lon="12.381184"><ele>349.6666666666667</ele><time>2026-04-04T09:43:49.478Z</time></trkpt><trkpt lat="43.1066637" lon="12.381292"><ele>351.0</ele><time>2026-04-04T09:43:50.478Z</time></trkpt><trkpt lat="43.1067054" lon="12.3813983"><ele>353.4</ele><time>2026-04-04T09:43:51.478Z</time></trkpt><trkpt lat="43.1067487" lon="12.3815004"><ele>355.8</ele><time>2026-04-04T09:43:52.478Z</time></trkpt><trkpt lat="43.1067948" lon="12.3816225"><ele>358.2</ele><time>2026-04-04T09:43:53.478Z</time></trkpt><trkpt lat="43.1068361" lon="12.3817311"><ele>360.59999999999997</ele><time>2026-04-04T09:43:54.478Z</time></trkpt><trkpt lat="43.1068763" lon="12.3818431"><ele>363.0</ele><time>2026-04-04T09:43:55.478Z</time></trkpt><trkpt lat="43.1069168" lon="12.3819818"><ele>363.0</ele><time>2026-04-04T09:43:56.478Z</time></trkpt><trkpt lat="43.1069579" lon="12.3820987"><ele>363.0</ele><time>2026-04-04T09:43:57.478Z</time></trkpt><trkpt lat="43.1070025" lon="12.382231"><ele>363.0</ele><time>2026-04-04T09:43:58.478Z</time></trkpt><trkpt lat="43.1070518" lon="12.3823383"><ele>363.0</ele><time>2026-04-04T09:43:59.48Z</time></trkpt><trkpt lat="43.1071028" lon="12.3824641"><ele>363.0</ele><time>2026-04-04T09:44:00.479Z</time></trkpt><trkpt lat="43.1071586" lon="12.3826168"><ele>366.0</ele><time>2026-04-04T09:44:01.479Z</time></trkpt><trkpt lat="43.107213" lon="12.3827748"><ele>369.0</ele><time>2026-04-04T09:44:02.479Z</time></trkpt><trkpt lat="43.1072674" lon="12.3829311"><ele>372.0</ele><time>2026-04-04T09:44:03.479Z</time></trkpt><trkpt lat="43.1073247" lon="12.3830793"><ele>375.0</ele><time>2026-04-04T09:44:04.479Z</time></trkpt><trkpt lat="43.1073802" lon="12.3832213"><ele>379.5</ele><time>2026-04-04T09:44:05.479Z</time></trkpt><trkpt lat="43.107442" lon="12.383379"><ele>384.0</ele><time>2026-04-04T09:44:06.479Z</time></trkpt><trkpt lat="43.1075054" lon="12.3835454"><ele>388.5</ele><time>2026-04-04T09:44:07.479Z</time></trkpt><trkpt lat="43.1075664" lon="12.3837216"><ele>393.0</ele><time>2026-04-04T09:44:08.479Z</time></trkpt><trkpt lat="43.1076256" lon="12.3838747"><ele>395.75</ele><time>2026-04-04T09:44:09.479Z</time></trkpt><trkpt lat="43.1076932" lon="12.384014"><ele>398.5</ele><time>2026-04-04T09:44:10.479Z</time></trkpt><trkpt lat="43.1077563" lon="12.384154"><ele>401.25</ele><time>2026-04-04T09:44:11.479Z</time></trkpt><trkpt lat="43.1078101" lon="12.38431"><ele>404.0</ele><time>2026-04-04T09:44:12.479Z</time></trkpt><trkpt lat="43.1078644" lon="12.3844488"><ele>404.0</ele><time>2026-04-04T09:44:13.479Z</time></trkpt><trkpt lat="43.1079075" lon="12.3845657"><ele>404.0</ele><time>2026-04-04T09:44:14.48Z</time></trkpt><trkpt lat="43.1079501" lon="12.384716"><ele>404.0</ele><time>2026-04-04T09:44:16.479Z</time></trkpt><trkpt lat="43.107899" lon="12.3848164"><ele>404.0</ele><time>2026-04-04T09:44:18.479Z</time></trkpt><trkpt lat="43.107832" lon="12.3848701"><ele>404.0</ele><time>2026-04-04T09:44:19.479Z</time></trkpt><trkpt lat="43.1077724" lon="12.3849269"><ele>406.4</ele><time>2026-04-04T09:44:20.48Z</time></trkpt><trkpt lat="43.107711" lon="12.384983"><ele>408.79999999999995</ele><time>2026-04-04T09:44:21.479Z</time></trkpt><trkpt lat="43.1076477" lon="12.3850134"><ele>411.20000000000005</ele><time>2026-04-04T09:44:22.48Z</time></trkpt><trkpt lat="43.1075202" lon="12.385043"><ele>413.6</ele><time>2026-04-04T09:44:24.479Z</time></trkpt><trkpt lat="43.1074082" lon="12.3850463"><ele>416.0</ele><time>2026-04-04T09:44:26.48Z</time></trkpt><trkpt lat="43.1073199" lon="12.3850481"><ele>415.99999999999994</ele><time>2026-04-04T09:44:28.479Z</time></trkpt><trkpt lat="43.1072526" lon="12.3850499"><ele>416.0</ele><time>2026-04-04T09:44:30.479Z</time></trkpt><trkpt lat="43.107159" lon="12.3850447"><ele>416.0</ele><time>2026-04-04T09:44:33.48Z</time></trkpt><trkpt lat="43.1070949" lon="12.3850063"><ele>416.0</ele><time>2026-04-04T09:44:35.479Z</time></trkpt><trkpt lat="43.1070135" lon="12.3849689"><ele>415.99999999999994</ele><time>2026-04-04T09:44:38.479Z</time></trkpt><trkpt lat="43.1069338" lon="12.3849444"><ele>416.0</ele><time>2026-04-04T09:44:41.48Z</time></trkpt><trkpt lat="43.1068474" lon="12.3849033"><ele>415.99999999999994</ele><time>2026-04-04T09:44:44.48Z</time></trkpt><trkpt lat="43.106783" lon="12.3848693"><ele>416.0</ele><time>2026-04-04T09:44:46.479Z</time></trkpt><trkpt lat="43.1067543" lon="12.3847883"><ele>416.0</ele><time>2026-04-04T09:44:50.48Z</time></trkpt><trkpt lat="43.1067712" lon="12.3846976"><ele>416.0</ele><time>2026-04-04T09:44:53.48Z</time></trkpt><trkpt lat="43.1067993" lon="12.3845773"><ele>415.99999999999994</ele><time>2026-04-04T09:44:56.481Z</time></trkpt><trkpt lat="43.1068686" lon="12.3845399"><ele>416.0</ele><time>2026-04-04T09:45:33.48Z</time></trkpt><trkpt lat="43.1068291" lon="12.3844079"><ele>413.4</ele><time>2026-04-04T09:46:10.481Z</time></trkpt><trkpt lat="43.1067696" lon="12.3844461"><ele>410.8</ele><time>2026-04-04T09:47:00.482Z</time></trkpt><trkpt lat="43.1067275" lon="12.3845286"><ele>408.2</ele><time>2026-04-04T09:47:03.482Z</time></trkpt><trkpt lat="43.1067292" lon="12.3844306"><ele>405.59999999999997</ele><time>2026-04-04T09:48:21.483Z</time></trkpt><trkpt lat="43.1068361" lon="12.3843552"><ele>403.0</ele><time>2026-04-04T09:48:26.193Z</time></trkpt><trkpt lat="43.1072506" lon="12.3841723"><ele>403.0</ele><time>2026-04-04T09:48:30.484Z</time></trkpt><trkpt lat="43.1068128" lon="12.3844695"><ele>403.0</ele><time>2026-04-04T09:49:30.856Z</time></trkpt><trkpt lat="43.1069835" lon="12.3842832"><ele>403.0</ele><time>2026-04-04T09:50:42.486Z</time></trkpt><trkpt lat="43.1068032" lon="12.3844649"><ele>403.0</ele><time>2026-04-04T09:51:44.11Z</time></trkpt><trkpt lat="43.1068625" lon="12.384148"><ele>403.0</ele><time>2026-04-04T09:55:00.35Z</time></trkpt><trkpt lat="43.1067425" lon="12.3844547"><ele>403.0</ele><time>2026-04-04T09:55:06.589Z</time></trkpt><trkpt lat="43.1067809" lon="12.3843509"><ele>403.0</ele><time>2026-04-04T09:55:20.52Z</time></trkpt><trkpt lat="43.1068176" lon="12.3842569"><ele>403.0</ele><time>2026-04-04T09:57:02.494Z</time></trkpt><trkpt lat="43.1069013" lon="12.384222"><ele>403.00000000000006</ele><time>2026-04-04T09:57:06.494Z</time></trkpt><trkpt lat="43.1068754" lon="12.3843104"><ele>403.0</ele><time>2026-04-04T09:57:41.496Z</time></trkpt><trkpt lat="43.1068032" lon="12.384453"><ele>403.0</ele><time>2026-04-04T09:57:48.496Z</time></trkpt><trkpt lat="43.1067618" lon="12.3843459"><ele>403.0</ele><time>2026-04-04T09:58:22.495Z</time></trkpt><trkpt lat="43.1068068" lon="12.3842551"><ele>403.00000000000006</ele><time>2026-04-04T10:00:16.498Z</time></trkpt><trkpt lat="43.1068282" lon="12.3841727"><ele>403.0</ele><time>2026-04-04T10:00:22.498Z</time></trkpt><trkpt lat="43.1068022" lon="12.3842578"><ele>403.00000000000006</ele><time>2026-04-04T10:00:45.499Z</time></trkpt><trkpt lat="43.1067799" lon="12.3844106"><ele>403.0</ele><time>2026-04-04T10:00:56.498Z</time></trkpt><trkpt lat="43.106832" lon="12.3843581"><ele>403.0</ele><time>2026-04-04T10:01:29.499Z</time></trkpt><trkpt lat="43.1069004" lon="12.3843108"><ele>403.0</ele><time>2026-04-04T10:02:56.501Z</time></trkpt><trkpt lat="43.1069734" lon="12.3843207"><ele>403.00000000000006</ele><time>2026-04-04T10:03:02.5Z</time></trkpt><trkpt lat="43.1069119" lon="12.3843657"><ele>403.0</ele><time>2026-04-04T10:03:37.501Z</time></trkpt><trkpt lat="43.1068356" lon="12.3843736"><ele>403.00000000000006</ele><time>2026-04-04T10:03:44.502Z</time></trkpt><trkpt lat="43.1068551" lon="12.3842916"><ele>403.0</ele><time>2026-04-04T10:05:20.503Z</time></trkpt><trkpt lat="43.1069119" lon="12.3842524"><ele>403.0</ele><time>2026-04-04T10:05:32.503Z</time></trkpt><trkpt lat="43.1068085" lon="12.38429"><ele>403.0</ele><time>2026-04-04T10:06:30.504Z</time></trkpt><trkpt lat="43.1069027" lon="12.3843818"><ele>403.00000000000006</ele><time>2026-04-04T10:08:51.506Z</time></trkpt><trkpt lat="43.1068652" lon="12.3843109"><ele>403.0</ele><time>2026-04-04T10:09:11.507Z</time></trkpt><trkpt lat="43.1068008" lon="12.3843296"><ele>403.0</ele><time>2026-04-04T10:11:54.509Z</time></trkpt><trkpt lat="43.1067654" lon="12.3842413"><ele>403.0</ele><time>2026-04-04T10:12:59.51Z</time></trkpt><trkpt lat="43.1067761" lon="12.3841554"><ele>403.0</ele><time>2026-04-04T10:13:25.511Z</time></trkpt><trkpt lat="43.106932" lon="12.3841212"><ele>403.0</ele><time>2026-04-04T10:14:12.512Z</time></trkpt><trkpt lat="43.1069016" lon="12.3842249"><ele>403.0</ele><time>2026-04-04T10:14:19.512Z</time></trkpt><trkpt lat="43.1068249" lon="12.3843225"><ele>403.0</ele><time>2026-04-04T10:15:37.573Z</time></trkpt><trkpt lat="43.1068052" lon="12.3844079"><ele>403.0</ele><time>2026-04-04T10:15:44.643Z</time></trkpt><trkpt lat="43.1068355" lon="12.3844947"><ele>403.0</ele><time>2026-04-04T10:16:00.579Z</time></trkpt><trkpt lat="43.1067747" lon="12.3845895"><ele>403.0</ele><time>2026-04-04T10:16:13.64Z</time></trkpt><trkpt lat="43.1067524" lon="12.3847002"><ele>403.0</ele><time>2026-04-04T10:16:48.628Z</time></trkpt><trkpt lat="43.1067834" lon="12.3846148"><ele>403.0</ele><time>2026-04-04T10:16:57.616Z</time></trkpt><trkpt lat="43.106746" lon="12.3846925"><ele>403.0</ele><time>2026-04-04T10:17:47.561Z</time></trkpt><trkpt lat="43.1067618" lon="12.3845594"><ele>403.0</ele><time>2026-04-04T10:18:02.658Z</time></trkpt><trkpt lat="43.1067879" lon="12.3844451"><ele>403.0</ele><time>2026-04-04T10:18:04.576Z</time></trkpt><trkpt lat="43.1068151" lon="12.3843601"><ele>403.0</ele><time>2026-04-04T10:18:07.691Z</time></trkpt><trkpt lat="43.1068286" lon="12.3842751"><ele>403.0</ele><time>2026-04-04T10:18:33.573Z</time></trkpt><trkpt lat="43.1067995" lon="12.3841738"><ele>403.0</ele><time>2026-04-04T10:18:45.66Z</time></trkpt><trkpt lat="43.106795" lon="12.3840706"><ele>403.0</ele><time>2026-04-04T10:18:47.577Z</time></trkpt><trkpt lat="43.1067446" lon="12.3840052"><ele>403.0</ele><time>2026-04-04T10:19:02.66Z</time></trkpt><trkpt lat="43.1068104" lon="12.3840682"><ele>403.0</ele><time>2026-04-04T10:19:39.566Z</time></trkpt><trkpt lat="43.1068726" lon="12.3841082"><ele>403.0</ele><time>2026-04-04T10:19:53.69Z</time></trkpt><trkpt lat="43.1068378" lon="12.3840249"><ele>403.0</ele><time>2026-04-04T10:20:03.638Z</time></trkpt><trkpt lat="43.1068749" lon="12.3841078"><ele>403.0</ele><time>2026-04-04T10:21:02.689Z</time></trkpt><trkpt lat="43.1068036" lon="12.3840576"><ele>403.0</ele><time>2026-04-04T10:21:45.705Z</time></trkpt><trkpt lat="43.1068483" lon="12.3841263"><ele>403.0</ele><time>2026-04-04T10:22:36.629Z</time></trkpt><trkpt lat="43.1068353" lon="12.384218"><ele>403.0</ele><time>2026-04-04T10:22:40.583Z</time></trkpt><trkpt lat="43.1068197" lon="12.3843213"><ele>403.0</ele><time>2026-04-04T10:22:47.652Z</time></trkpt><trkpt lat="43.106817" lon="12.3844138"><ele>403.0</ele><time>2026-04-04T10:22:55.68Z</time></trkpt><trkpt lat="43.1067562" lon="12.3843843"><ele>403.0</ele><time>2026-04-04T10:23:34.621Z</time></trkpt><trkpt lat="43.1068029" lon="12.3844499"><ele>403.0</ele><time>2026-04-04T10:23:56.667Z</time></trkpt><trkpt lat="43.1067816" lon="12.3843649"><ele>403.0</ele><time>2026-04-04T10:38:11.575Z</time></trkpt><trkpt lat="43.1068013" lon="12.3842785"><ele>403.0</ele><time>2026-04-04T10:38:26.669Z</time></trkpt><trkpt lat="43.106812" lon="12.3843858"><ele>403.0</ele><time>2026-04-04T10:38:42.602Z</time></trkpt><trkpt lat="43.106784" lon="12.3844669"><ele>403.00000000000006</ele><time>2026-04-04T10:41:01.668Z</time></trkpt><trkpt lat="43.1068065" lon="12.3843855"><ele>403.0</ele><time>2026-04-04T10:41:16.642Z</time></trkpt><trkpt lat="43.106871" lon="12.3843092"><ele>403.0</ele><time>2026-04-04T10:41:21.673Z</time></trkpt><trkpt lat="43.1069445" lon="12.384228"><ele>403.0</ele><time>2026-04-04T10:41:24.669Z</time></trkpt><trkpt lat="43.106948" lon="12.3841386"><ele>403.00000000000006</ele><time>2026-04-04T10:41:28.621Z</time></trkpt><trkpt lat="43.1068901" lon="12.3840728"><ele>403.0</ele><time>2026-04-04T10:41:34.611Z</time></trkpt><trkpt lat="43.1068247" lon="12.3840456"><ele>403.00000000000006</ele><time>2026-04-04T10:41:38.685Z</time></trkpt><trkpt lat="43.1067702" lon="12.3840024"><ele>403.0</ele><time>2026-04-04T10:41:59.718Z</time></trkpt><trkpt lat="43.1067065" lon="12.3840773"><ele>403.0</ele><time>2026-04-04T10:42:03.601Z</time></trkpt><trkpt lat="43.106728" lon="12.3841804"><ele>403.0</ele><time>2026-04-04T10:42:05.638Z</time></trkpt><trkpt lat="43.1067979" lon="12.384231"><ele>403.00000000000006</ele><time>2026-04-04T10:42:07.674Z</time></trkpt><trkpt lat="43.1068393" lon="12.3843247"><ele>403.0</ele><time>2026-04-04T10:42:10.669Z</time></trkpt><trkpt lat="43.1067976" lon="12.3844088"><ele>403.00000000000006</ele><time>2026-04-04T10:43:08.634Z</time></trkpt><trkpt lat="43.1068169" lon="12.3843015"><ele>403.0</ele><time>2026-04-04T10:44:52.607Z</time></trkpt><trkpt lat="43.1068006" lon="12.3844301"><ele>403.0</ele><time>2026-04-04T10:46:40.65Z</time></trkpt><trkpt lat="43.1068058" lon="12.3843175"><ele>403.0</ele><time>2026-04-04T10:47:48.706Z</time></trkpt><trkpt lat="43.1067961" lon="12.3842271"><ele>403.00000000000006</ele><time>2026-04-04T10:47:54.696Z</time></trkpt><trkpt lat="43.1067605" lon="12.3843184"><ele>403.0</ele><time>2026-04-04T10:47:57.693Z</time></trkpt><trkpt lat="43.1067685" lon="12.3845031"><ele>403.0</ele><time>2026-04-04T10:47:59.609Z</time></trkpt><trkpt lat="43.1067818" lon="12.384598"><ele>403.0</ele><time>2026-04-04T10:48:00.687Z</time></trkpt><trkpt lat="43.1067985" lon="12.3846848"><ele>403.0</ele><time>2026-04-04T10:48:06.679Z</time></trkpt><trkpt lat="43.1067886" lon="12.3845919"><ele>403.0</ele><time>2026-04-04T10:48:08.714Z</time></trkpt><trkpt lat="43.1068371" lon="12.3846817"><ele>403.0</ele><time>2026-04-04T10:48:18.659Z</time></trkpt><trkpt lat="43.1069101" lon="12.3846834"><ele>403.0</ele><time>2026-04-04T10:48:27.645Z</time></trkpt><trkpt lat="43.106905" lon="12.3845968"><ele>403.0</ele><time>2026-04-04T10:48:28.723Z</time></trkpt><trkpt lat="43.1068899" lon="12.3844904"><ele>403.0</ele><time>2026-04-04T10:48:45.616Z</time></trkpt><trkpt lat="43.1068178" lon="12.3843765"><ele>403.0</ele><time>2026-04-04T10:49:18.684Z</time></trkpt><trkpt lat="43.1067841" lon="12.3842503"><ele>403.0</ele><time>2026-04-04T10:49:51.631Z</time></trkpt><trkpt lat="43.1068224" lon="12.3843274"><ele>403.0</ele><time>2026-04-04T10:50:32.725Z</time></trkpt><trkpt lat="43.1068097" lon="12.3844126"><ele>403.0</ele><time>2026-04-04T10:50:38.717Z</time></trkpt><trkpt lat="43.1068299" lon="12.3842632"><ele>403.00000000000006</ele><time>2026-04-04T10:51:14.658Z</time></trkpt><trkpt lat="43.1068408" lon="12.3843836"><ele>403.0</ele><time>2026-04-04T10:57:47.735Z</time></trkpt><trkpt lat="43.1068137" lon="12.3842992"><ele>403.0</ele><time>2026-04-04T10:58:32.66Z</time></trkpt><trkpt lat="43.1068882" lon="12.3842607"><ele>403.0</ele><time>2026-04-04T10:59:23.695Z</time></trkpt><trkpt lat="43.1068454" lon="12.3843397"><ele>403.00000000000006</ele><time>2026-04-04T10:59:29.685Z</time></trkpt><trkpt lat="43.1068017" lon="12.3844142"><ele>403.0</ele><time>2026-04-04T10:59:33.638Z</time></trkpt><trkpt lat="43.1068361" lon="12.3842811"><ele>403.0</ele><time>2026-04-04T11:01:26.715Z</time></trkpt><trkpt lat="43.1068352" lon="12.3844177"><ele>403.0</ele><time>2026-04-04T11:02:34.743Z</time></trkpt><trkpt lat="43.1068376" lon="12.3845115"><ele>403.0</ele><time>2026-04-04T11:02:45.644Z</time></trkpt><trkpt lat="43.106825" lon="12.3844016"><ele>403.0</ele><time>2026-04-04T11:03:02.655Z</time></trkpt><trkpt lat="43.1067914" lon="12.3844758"><ele>403.0</ele><time>2026-04-04T11:03:39.671Z</time></trkpt><trkpt lat="43.106812" lon="12.3843861"><ele>403.0</ele><time>2026-04-04T11:04:26.751Z</time></trkpt><trkpt lat="43.1067618" lon="12.3844422"><ele>403.0</ele><time>2026-04-04T11:05:07.721Z</time></trkpt><trkpt lat="43.1068368" lon="12.3844062"><ele>403.0</ele><time>2026-04-04T11:06:09.653Z</time></trkpt><trkpt lat="43.1067666" lon="12.3844116"><ele>403.0</ele><time>2026-04-04T11:06:49.664Z</time></trkpt><trkpt lat="43.1068169" lon="12.3844635"><ele>403.0</ele><time>2026-04-04T11:08:40.711Z</time></trkpt><trkpt lat="43.1068764" lon="12.3844252"><ele>403.0</ele><time>2026-04-04T11:09:09.7Z</time></trkpt><trkpt lat="43.106819" lon="12.3843843"><ele>403.0</ele><time>2026-04-04T11:09:23.717Z</time></trkpt><trkpt lat="43.1068096" lon="12.3844918"><ele>403.0</ele><time>2026-04-04T11:09:55.7Z</time></trkpt><trkpt lat="43.1068494" lon="12.3844168"><ele>403.0</ele><time>2026-04-04T11:10:25.648Z</time></trkpt><trkpt lat="43.1068892" lon="12.3843483"><ele>403.0</ele><time>2026-04-04T11:10:35.71Z</time></trkpt><trkpt lat="43.106831" lon="12.3843829"><ele>403.0</ele><time>2026-04-04T11:10:59.668Z</time></trkpt><trkpt lat="43.1067752" lon="12.3844254"><ele>403.0</ele><time>2026-04-04T11:12:06.738Z</time></trkpt><trkpt lat="43.1068385" lon="12.3844226"><ele>403.0</ele><time>2026-04-04T11:13:09.678Z</time></trkpt><trkpt lat="43.1068228" lon="12.3845192"><ele>403.0</ele><time>2026-04-04T11:13:24.725Z</time></trkpt><trkpt lat="43.1067481" lon="12.3844915"><ele>403.0</ele><time>2026-04-04T11:13:32.751Z</time></trkpt><trkpt lat="43.1067267" lon="12.3843971"><ele>403.0</ele><time>2026-04-04T11:13:44.731Z</time></trkpt><trkpt lat="43.1067937" lon="12.3844265"><ele>403.0</ele><time>2026-04-04T11:14:10.726Z</time></trkpt><trkpt lat="43.1068174" lon="12.3843391"><ele>403.0</ele><time>2026-04-04T11:16:44.66Z</time></trkpt><trkpt lat="43.1068583" lon="12.3842638"><ele>403.0</ele><time>2026-04-04T11:16:50.649Z</time></trkpt><trkpt lat="43.1068289" lon="12.3843459"><ele>403.0</ele><time>2026-04-04T11:18:28.759Z</time></trkpt><trkpt lat="43.1068005" lon="12.3844239"><ele>403.0</ele><time>2026-04-04T11:18:38.718Z</time></trkpt><trkpt lat="43.1068263" lon="12.3845029"><ele>403.0</ele><time>2026-04-04T11:19:33.687Z</time></trkpt><trkpt lat="43.1067774" lon="12.3844454"><ele>403.0</ele><time>2026-04-04T11:21:22.697Z</time></trkpt><trkpt lat="43.1067903" lon="12.3845345"><ele>403.0</ele><time>2026-04-04T11:21:41.743Z</time></trkpt><trkpt lat="43.1067579" lon="12.3844532"><ele>403.0</ele><time>2026-04-04T11:22:24.748Z</time></trkpt><trkpt lat="43.1067887" lon="12.3843753"><ele>403.0</ele><time>2026-04-04T11:22:32.655Z</time></trkpt><trkpt lat="43.1068157" lon="12.3844545"><ele>403.0</ele><time>2026-04-04T11:22:55.775Z</time></trkpt><trkpt lat="43.1068783" lon="12.384422"><ele>403.0</ele><time>2026-04-04T11:29:21.732Z</time></trkpt><trkpt lat="43.1068149" lon="12.3843965"><ele>403.0</ele><time>2026-04-04T11:29:37.783Z</time></trkpt><trkpt lat="43.1067812" lon="12.3844722"><ele>403.0</ele><time>2026-04-04T11:32:00.688Z</time></trkpt><trkpt lat="43.1067599" lon="12.3843809"><ele>403.00000000000006</ele><time>2026-04-04T11:33:26.694Z</time></trkpt><trkpt lat="43.1067666" lon="12.3842768"><ele>403.0</ele><time>2026-04-04T11:33:32.684Z</time></trkpt><trkpt lat="43.1068617" lon="12.3842243"><ele>403.0</ele><time>2026-04-04T11:33:42.607Z</time></trkpt><trkpt lat="43.1068046" lon="12.3842892"><ele>403.0</ele><time>2026-04-04T11:33:50.607Z</time></trkpt><trkpt lat="43.1068131" lon="12.384375"><ele>403.00000000000006</ele><time>2026-04-04T11:39:58.615Z</time></trkpt><trkpt lat="43.1067942" lon="12.3842849"><ele>403.0</ele><time>2026-04-04T11:51:14.629Z</time></trkpt><trkpt lat="43.106863" lon="12.3843129"><ele>403.0</ele><time>2026-04-04T11:52:39.631Z</time></trkpt><trkpt lat="43.1069268" lon="12.3842392"><ele>403.0</ele><time>2026-04-04T11:52:46.631Z</time></trkpt><trkpt lat="43.1068817" lon="12.3843088"><ele>403.0</ele><time>2026-04-04T11:52:55.631Z</time></trkpt><trkpt lat="43.1068087" lon="12.3843295"><ele>403.0</ele><time>2026-04-04T11:53:03.632Z</time></trkpt><trkpt lat="43.1068532" lon="12.3842646"><ele>403.0</ele><time>2026-04-04T11:57:42.638Z</time></trkpt><trkpt lat="43.1068064" lon="12.3843227"><ele>403.0</ele><time>2026-04-04T11:58:45.639Z</time></trkpt><trkpt lat="43.1067874" lon="12.3842203"><ele>403.0</ele><time>2026-04-04T12:01:18.642Z</time></trkpt><trkpt lat="43.1067728" lon="12.3841172"><ele>403.00000000000006</ele><time>2026-04-04T12:02:51.644Z</time></trkpt><trkpt lat="43.1067888" lon="12.3839996"><ele>403.0</ele><time>2026-04-04T12:02:56.644Z</time></trkpt><trkpt lat="43.1067831" lon="12.3841512"><ele>403.0</ele><time>2026-04-04T12:04:18.646Z</time></trkpt><trkpt lat="43.106804" lon="12.3842407"><ele>403.0</ele><time>2026-04-04T12:04:43.646Z</time></trkpt><trkpt lat="43.106839" lon="12.3843194"><ele>403.00000000000006</ele><time>2026-04-04T12:09:03.651Z</time></trkpt><trkpt lat="43.1068064" lon="12.3842423"><ele>403.0</ele><time>2026-04-04T12:12:50.657Z</time></trkpt><trkpt lat="43.1068733" lon="12.3842734"><ele>403.0</ele><time>2026-04-04T12:16:18.66Z</time></trkpt><trkpt lat="43.106802" lon="12.3842717"><ele>403.0</ele><time>2026-04-04T12:18:43.663Z</time></trkpt><trkpt lat="43.1067646" lon="12.384186"><ele>403.0</ele><time>2026-04-04T12:19:52.665Z</time></trkpt><trkpt lat="43.1068405" lon="12.3841464"><ele>403.0</ele><time>2026-04-04T12:19:55.665Z</time></trkpt><trkpt lat="43.1068717" lon="12.3842235"><ele>403.0</ele><time>2026-04-04T12:23:04.669Z</time></trkpt><trkpt lat="43.1068118" lon="12.3842651"><ele>403.0</ele><time>2026-04-04T12:26:37.674Z</time></trkpt><trkpt lat="43.1068363" lon="12.3841826"><ele>403.0</ele><time>2026-04-04T12:33:10.682Z</time></trkpt><trkpt lat="43.106833" lon="12.3840949"><ele>403.0</ele><time>2026-04-04T12:33:18.683Z</time></trkpt><trkpt lat="43.1068424" lon="12.3841839"><ele>403.0</ele><time>2026-04-04T12:33:34.683Z</time></trkpt><trkpt lat="43.1068615" lon="12.3842741"><ele>403.0</ele><time>2026-04-04T12:34:20.684Z</time></trkpt><trkpt lat="43.1069051" lon="12.3842107"><ele>403.0</ele><time>2026-04-04T12:35:03.688Z</time></trkpt><trkpt lat="43.1069376" lon="12.3841217"><ele>403.0</ele><time>2026-04-04T12:35:08.685Z</time></trkpt><trkpt lat="43.1069006" lon="12.3842312"><ele>403.0</ele><time>2026-04-04T12:35:32.685Z</time></trkpt><trkpt lat="43.1068403" lon="12.3842949"><ele>403.0</ele><time>2026-04-04T12:35:58.686Z</time></trkpt><trkpt lat="43.1068592" lon="12.3843858"><ele>403.00000000000006</ele><time>2026-04-04T12:36:44.686Z</time></trkpt><trkpt lat="43.106795" lon="12.3843426"><ele>403.0</ele><time>2026-04-04T12:37:38.687Z</time></trkpt><trkpt lat="43.106775" lon="12.3842053"><ele>403.0</ele><time>2026-04-04T12:38:19.688Z</time></trkpt><trkpt lat="43.1067808" lon="12.3841031"><ele>403.0</ele><time>2026-04-04T12:38:23.688Z</time></trkpt><trkpt lat="43.1067849" lon="12.3842095"><ele>403.00000000000006</ele><time>2026-04-04T12:38:33.69Z</time></trkpt><trkpt lat="43.1068098" lon="12.3842974"><ele>403.0</ele><time>2026-04-04T12:40:18.691Z</time></trkpt><trkpt lat="43.106778" lon="12.3843983"><ele>403.0</ele><time>2026-04-04T12:41:41.692Z</time></trkpt><trkpt lat="43.1068232" lon="12.3843257"><ele>403.0</ele><time>2026-04-04T12:42:10.692Z</time></trkpt><trkpt lat="43.1068933" lon="12.3843196"><ele>403.0</ele><time>2026-04-04T12:42:57.693Z</time></trkpt><trkpt lat="43.1069077" lon="12.3842337"><ele>403.0</ele><time>2026-04-04T12:43:33.694Z</time></trkpt><trkpt lat="43.1068849" lon="12.384322"><ele>403.0</ele><time>2026-04-04T12:43:50.694Z</time></trkpt><trkpt lat="43.1068161" lon="12.3843129"><ele>403.0</ele><time>2026-04-04T12:44:23.696Z</time></trkpt><trkpt lat="43.1068243" lon="12.3842202"><ele>403.0</ele><time>2026-04-04T12:45:04.695Z</time></trkpt><trkpt lat="43.1067969" lon="12.3843084"><ele>403.0</ele><time>2026-04-04T12:46:42.698Z</time></trkpt><trkpt lat="43.1068457" lon="12.3842453"><ele>403.0</ele><time>2026-04-04T12:47:11.699Z</time></trkpt><trkpt lat="43.1068684" lon="12.3843286"><ele>403.0</ele><time>2026-04-04T12:47:51.699Z</time></trkpt><trkpt lat="43.1068162" lon="12.38439"><ele>403.0</ele><time>2026-04-04T12:48:18.699Z</time></trkpt><trkpt lat="43.1068377" lon="12.3843049"><ele>403.0</ele><time>2026-04-04T12:48:43.699Z</time></trkpt><trkpt lat="43.1068287" lon="12.3842164"><ele>403.0</ele><time>2026-04-04T12:48:54.7Z</time></trkpt><trkpt lat="43.1067695" lon="12.3842582"><ele>403.0</ele><time>2026-04-04T12:49:20.7Z</time></trkpt><trkpt lat="43.1067979" lon="12.3843354"><ele>403.0</ele><time>2026-04-04T12:50:19.768Z</time></trkpt><trkpt lat="43.106736" lon="12.3842966"><ele>403.0</ele><time>2026-04-04T12:51:06.702Z</time></trkpt><trkpt lat="43.1067797" lon="12.3842174"><ele>403.0</ele><time>2026-04-04T12:51:44.703Z</time></trkpt><trkpt lat="43.1067863" lon="12.3841248"><ele>403.0</ele><time>2026-04-04T12:54:23.705Z</time></trkpt><trkpt lat="43.1068496" lon="12.3841649"><ele>403.0</ele><time>2026-04-04T12:54:31.706Z</time></trkpt><trkpt lat="43.106845" lon="12.3842723"><ele>403.0</ele><time>2026-04-04T12:54:49.706Z</time></trkpt><trkpt lat="43.1068276" lon="12.3843555"><ele>403.0</ele><time>2026-04-04T13:04:28.717Z</time></trkpt><trkpt lat="43.1068644" lon="12.3842854"><ele>403.0</ele><time>2026-04-04T13:06:07.72Z</time></trkpt><trkpt lat="43.1068655" lon="12.3843852"><ele>403.0</ele><time>2026-04-04T13:09:43.724Z</time></trkpt><trkpt lat="43.1069086" lon="12.3843205"><ele>403.0</ele><time>2026-04-04T13:11:14.725Z</time></trkpt><trkpt lat="43.1068709" lon="12.3842464"><ele>403.0</ele><time>2026-04-04T13:17:21.733Z</time></trkpt><trkpt lat="43.1069026" lon="12.3841602"><ele>403.0</ele><time>2026-04-04T13:20:12.794Z</time></trkpt><trkpt lat="43.106906" lon="12.3840687"><ele>403.0</ele><time>2026-04-04T13:20:16.738Z</time></trkpt><trkpt lat="43.1068497" lon="12.3841403"><ele>403.0</ele><time>2026-04-04T13:20:33.737Z</time></trkpt><trkpt lat="43.1068303" lon="12.3842278"><ele>403.0</ele><time>2026-04-04T13:20:38.738Z</time></trkpt><trkpt lat="43.1068824" lon="12.3841492"><ele>403.0</ele><time>2026-04-04T13:20:57.738Z</time></trkpt><trkpt lat="43.106908" lon="12.3840541"><ele>403.0</ele><time>2026-04-04T13:21:03.738Z</time></trkpt><trkpt lat="43.1068889" lon="12.3841652"><ele>403.0</ele><time>2026-04-04T13:21:27.739Z</time></trkpt><trkpt lat="43.1068457" lon="12.3842424"><ele>403.0</ele><time>2026-04-04T13:21:29.739Z</time></trkpt><trkpt lat="43.1069575" lon="12.3841032"><ele>403.0</ele><time>2026-04-04T13:22:25.74Z</time></trkpt><trkpt lat="43.1068953" lon="12.3841274"><ele>403.0</ele><time>2026-04-04T13:22:43.741Z</time></trkpt><trkpt lat="43.106833" lon="12.3841715"><ele>403.0</ele><time>2026-04-04T13:22:47.74Z</time></trkpt><trkpt lat="43.1068656" lon="12.384258"><ele>403.0</ele><time>2026-04-04T13:24:33.742Z</time></trkpt><trkpt lat="43.1068024" lon="12.384268"><ele>403.0</ele><time>2026-04-04T13:27:16.745Z</time></trkpt><trkpt lat="43.1068635" lon="12.3842456"><ele>403.0</ele><time>2026-04-04T13:27:51.746Z</time></trkpt><trkpt lat="43.1068214" lon="12.384328"><ele>403.0</ele><time>2026-04-04T13:28:54.747Z</time></trkpt><trkpt lat="43.1068796" lon="12.384365"><ele>403.00000000000006</ele><time>2026-04-04T13:29:51.749Z</time></trkpt><trkpt lat="43.1068521" lon="12.3842739"><ele>403.0</ele><time>2026-04-04T13:30:11.749Z</time></trkpt><trkpt lat="43.1068415" lon="12.3843632"><ele>403.0</ele><time>2026-04-04T13:30:33.75Z</time></trkpt><trkpt lat="43.1068556" lon="12.3842721"><ele>403.0</ele><time>2026-04-04T13:30:43.749Z</time></trkpt><trkpt lat="43.106875" lon="12.3841771"><ele>403.00000000000006</ele><time>2026-04-04T13:30:47.749Z</time></trkpt><trkpt lat="43.1068119" lon="12.3842032"><ele>403.0</ele><time>2026-04-04T13:31:15.75Z</time></trkpt><trkpt lat="43.1068991" lon="12.3842894"><ele>403.0</ele><time>2026-04-04T13:34:45.754Z</time></trkpt><trkpt lat="43.1068375" lon="12.3843763"><ele>403.0</ele><time>2026-04-04T13:37:27.757Z</time></trkpt><trkpt lat="43.106891" lon="12.3843249"><ele>403.0</ele><time>2026-04-04T13:38:21.759Z</time></trkpt><trkpt lat="43.1068282" lon="12.3843349"><ele>403.0</ele><time>2026-04-04T13:40:55.763Z</time></trkpt><trkpt lat="43.1068908" lon="12.3842662"><ele>403.0</ele><time>2026-04-04T13:41:49.763Z</time></trkpt><trkpt lat="43.106905" lon="12.3843528"><ele>403.0</ele><time>2026-04-04T13:46:01.768Z</time></trkpt><trkpt lat="43.1068402" lon="12.3843299"><ele>403.0</ele><time>2026-04-04T13:50:14.774Z</time></trkpt><trkpt lat="43.1068947" lon="12.3842688"><ele>403.0</ele><time>2026-04-04T13:51:33.775Z</time></trkpt><trkpt lat="43.1068161" lon="12.3842695"><ele>403.0</ele><time>2026-04-04T13:52:39.778Z</time></trkpt><trkpt lat="43.1068775" lon="12.3843227"><ele>403.0</ele><time>2026-04-04T13:56:01.781Z</time></trkpt><trkpt lat="43.106858" lon="12.38424"><ele>403.0</ele><time>2026-04-04T14:01:01.789Z</time></trkpt><trkpt lat="43.1069074" lon="12.3843053"><ele>403.0</ele><time>2026-04-04T14:05:26.794Z</time></trkpt><trkpt lat="43.1068989" lon="12.3844091"><ele>403.0</ele><time>2026-04-04T14:11:16.801Z</time></trkpt><trkpt lat="43.1068512" lon="12.3844691"><ele>403.0</ele><time>2026-04-04T14:12:00.803Z</time></trkpt><trkpt lat="43.1069121" lon="12.38443"><ele>403.00000000000006</ele><time>2026-04-04T14:12:04.802Z</time></trkpt><trkpt lat="43.1069759" lon="12.3844264"><ele>403.0</ele><time>2026-04-04T14:12:07.802Z</time></trkpt><trkpt lat="43.1070737" lon="12.3844339"><ele>403.0</ele><time>2026-04-04T14:12:09.802Z</time></trkpt><trkpt lat="43.1071925" lon="12.3844596"><ele>403.0</ele><time>2026-04-04T14:12:11.803Z</time></trkpt><trkpt lat="43.107282" lon="12.3844814"><ele>403.00000000000006</ele><time>2026-04-04T14:12:13.803Z</time></trkpt><trkpt lat="43.1073438" lon="12.3844987"><ele>403.0</ele><time>2026-04-04T14:12:16.803Z</time></trkpt><trkpt lat="43.1072664" lon="12.3844909"><ele>403.00000000000006</ele><time>2026-04-04T14:12:30.803Z</time></trkpt><trkpt lat="43.1071941" lon="12.3844261"><ele>403.0</ele><time>2026-04-04T14:12:50.803Z</time></trkpt><trkpt lat="43.1071394" lon="12.384352"><ele>403.0</ele><time>2026-04-04T14:12:55.804Z</time></trkpt><trkpt lat="43.107088" lon="12.3842859"><ele>403.0</ele><time>2026-04-04T14:13:02.803Z</time></trkpt><trkpt lat="43.1070217" lon="12.3842923"><ele>403.00000000000006</ele><time>2026-04-04T14:13:08.803Z</time></trkpt><trkpt lat="43.106932" lon="12.3843088"><ele>403.0</ele><time>2026-04-04T14:13:11.803Z</time></trkpt><trkpt lat="43.1068673" lon="12.3843553"><ele>403.0</ele><time>2026-04-04T14:13:12.988Z</time></trkpt><trkpt lat="43.106935" lon="12.3843723"><ele>403.0</ele><time>2026-04-04T14:13:17.988Z</time></trkpt><trkpt lat="43.1068749" lon="12.3844066"><ele>403.0</ele><time>2026-04-04T14:16:21.992Z</time></trkpt><trkpt lat="43.1068526" lon="12.3843167"><ele>403.0</ele><time>2026-04-04T14:22:58Z</time></trkpt><trkpt lat="43.1069244" lon="12.3843244"><ele>403.0</ele><time>2026-04-04T14:23:18.001Z</time></trkpt><trkpt lat="43.1069823" lon="12.3842779"><ele>403.0</ele><time>2026-04-04T14:24:16.002Z</time></trkpt><trkpt lat="43.1068994" lon="12.3843156"><ele>403.0</ele><time>2026-04-04T14:25:03.003Z</time></trkpt><trkpt lat="43.1068212" lon="12.3842911"><ele>403.0</ele><time>2026-04-04T14:29:48.009Z</time></trkpt></trkseg></trk></gpx>